<?xml version='1.0' encoding='UTF-8'?><gpx version="1.1" creator="JPX - https://github.com/jenetics/jpx" xmlns="http://www.topografix.com/GPX/1/1"><trk><trkseg><trkpt lat="40.1804243" lon="18.1687864"><ele>71.0</ele><time>2026-04-11T06:14:38.057Z</time></trkpt><trkpt lat="40.1803865" lon="18.1687157"><ele>71.0</ele><time>2026-04-11T06:14:40.079Z</time></trkpt><trkpt lat="40.1803591" lon="18.1686298"><ele>71.0</ele><time>2026-04-11T06:14:43.021Z</time></trkpt><trkpt lat="40.1802561" lon="18.168515"><ele>71.0</ele><time>2026-04-11T06:14:53.076Z</time></trkpt><trkpt lat="40.1801535" lon="18.1684638"><ele>71.0</ele><time>2026-04-11T06:14:58.065Z</time></trkpt><trkpt lat="40.1800592" lon="18.1684317"><ele>71.0</ele><time>2026-04-11T06:14:59.066Z</time></trkpt><trkpt lat="40.1800145" lon="18.1683644"><ele>71.0</ele><time>2026-04-11T06:15:00.025Z</time></trkpt><trkpt lat="40.1799913" lon="18.1682414"><ele>71.0</ele><time>2026-04-11T06:15:01.065Z</time></trkpt><trkpt lat="40.1799795" lon="18.1681206"><ele>71.0</ele><time>2026-04-11T06:15:02.077Z</time></trkpt><trkpt lat="40.1799694" lon="18.1679878"><ele>71.0</ele><time>2026-04-11T06:15:03.029Z</time></trkpt><trkpt lat="40.1799383" lon="18.1678414"><ele>72.0</ele><time>2026-04-11T06:15:04.025Z</time></trkpt><trkpt lat="40.1799035" lon="18.1675475"><ele>73.0</ele><time>2026-04-11T06:15:06.055Z</time></trkpt><trkpt lat="40.1798976" lon="18.1673949"><ele>74.0</ele><time>2026-04-11T06:15:07.053Z</time></trkpt><trkpt lat="40.1798883" lon="18.1672291"><ele>74.25</ele><time>2026-04-11T06:15:08.048Z</time></trkpt><trkpt lat="40.1798754" lon="18.1670528"><ele>74.5</ele><time>2026-04-11T06:15:09.06Z</time></trkpt><trkpt lat="40.1798426" lon="18.1668649"><ele>74.75</ele><time>2026-04-11T06:15:10.06Z</time></trkpt><trkpt lat="40.179813" lon="18.1666764"><ele>75.0</ele><time>2026-04-11T06:15:11.052Z</time></trkpt><trkpt lat="40.1797919" lon="18.1664818"><ele>75.0</ele><time>2026-04-11T06:15:12.052Z</time></trkpt><trkpt lat="40.1797543" lon="18.1662949"><ele>75.0</ele><time>2026-04-11T06:15:13.056Z</time></trkpt><trkpt lat="40.1797191" lon="18.1661111"><ele>75.0</ele><time>2026-04-11T06:15:14.025Z</time></trkpt><trkpt lat="40.1797017" lon="18.1659171"><ele>75.0</ele><time>2026-04-11T06:15:15.025Z</time></trkpt><trkpt lat="40.1796875" lon="18.1657436"><ele>75.0</ele><time>2026-04-11T06:15:16.068Z</time></trkpt><trkpt lat="40.1796694" lon="18.1655957"><ele>75.0</ele><time>2026-04-11T06:15:17.078Z</time></trkpt><trkpt lat="40.1796425" lon="18.1654516"><ele>75.0</ele><time>2026-04-11T06:15:18.15Z</time></trkpt><trkpt lat="40.1796228" lon="18.1651785"><ele>75.0</ele><time>2026-04-11T06:15:20.105Z</time></trkpt><trkpt lat="40.1796046" lon="18.165066"><ele>75.0</ele><time>2026-04-11T06:15:21.022Z</time></trkpt><trkpt lat="40.1795985" lon="18.1649568"><ele>75.0</ele><time>2026-04-11T06:15:22.051Z</time></trkpt><trkpt lat="40.1796252" lon="18.1648634"><ele>75.0</ele><time>2026-04-11T06:15:23.053Z</time></trkpt><trkpt lat="40.179642" lon="18.1647775"><ele>75.0</ele><time>2026-04-11T06:15:24.014Z</time></trkpt><trkpt lat="40.179722" lon="18.1647284"><ele>75.0</ele><time>2026-04-11T06:15:25.047Z</time></trkpt><trkpt lat="40.1797918" lon="18.1644243"><ele>75.33333333333333</ele><time>2026-04-11T06:15:29.049Z</time></trkpt><trkpt lat="40.1797811" lon="18.1643296"><ele>75.66666666666667</ele><time>2026-04-11T06:15:30.015Z</time></trkpt><trkpt lat="40.1797432" lon="18.1642207"><ele>76.0</ele><time>2026-04-11T06:15:31.049Z</time></trkpt><trkpt lat="40.1797119" lon="18.1641188"><ele>76.33333333333334</ele><time>2026-04-11T06:15:32.026Z</time></trkpt><trkpt lat="40.1796834" lon="18.16401"><ele>76.66666666666667</ele><time>2026-04-11T06:15:33.028Z</time></trkpt><trkpt lat="40.179657" lon="18.1639002"><ele>77.0</ele><time>2026-04-11T06:15:34.077Z</time></trkpt><trkpt lat="40.1796198" lon="18.1637915"><ele>77.0</ele><time>2026-04-11T06:15:35.038Z</time></trkpt><trkpt lat="40.1795694" lon="18.1636906"><ele>77.0</ele><time>2026-04-11T06:15:36.023Z</time></trkpt><trkpt lat="40.1795473" lon="18.1635552"><ele>77.0</ele><time>2026-04-11T06:15:37.024Z</time></trkpt><trkpt lat="40.1795128" lon="18.1634218"><ele>77.0</ele><time>2026-04-11T06:15:38.03Z</time></trkpt><trkpt lat="40.1794696" lon="18.163277"><ele>77.0</ele><time>2026-04-11T06:15:39.02Z</time></trkpt><trkpt lat="40.1794439" lon="18.1631226"><ele>76.6</ele><time>2026-04-11T06:15:40.019Z</time></trkpt><trkpt lat="40.1794114" lon="18.1629765"><ele>76.2</ele><time>2026-04-11T06:15:41.023Z</time></trkpt><trkpt lat="40.179382" lon="18.1628312"><ele>75.8</ele><time>2026-04-11T06:15:42.023Z</time></trkpt><trkpt lat="40.1793625" lon="18.1627108"><ele>75.4</ele><time>2026-04-11T06:15:43.023Z</time></trkpt><trkpt lat="40.1793477" lon="18.162593"><ele>75.0</ele><time>2026-04-11T06:15:44.023Z</time></trkpt><trkpt lat="40.1793273" lon="18.1624851"><ele>75.0</ele><time>2026-04-11T06:15:45.022Z</time></trkpt><trkpt lat="40.1793012" lon="18.1623969"><ele>75.0</ele><time>2026-04-11T06:15:46.026Z</time></trkpt></trkseg><trkseg><trkpt lat="40.1806411" lon="18.1579663"><ele>72.0</ele><time>2026-04-11T06:16:26.059Z</time></trkpt><trkpt lat="40.1807608" lon="18.1578175"><ele>72.0</ele><time>2026-04-11T06:16:27.049Z</time></trkpt><trkpt lat="40.1808792" lon="18.1576883"><ele>72.0</ele><time>2026-04-11T06:16:28.052Z</time></trkpt><trkpt lat="40.1809845" lon="18.1575558"><ele>72.0</ele><time>2026-04-11T06:16:29.022Z</time></trkpt><trkpt lat="40.1810849" lon="18.157428"><ele>72.0</ele><time>2026-04-11T06:16:30.049Z</time></trkpt><trkpt lat="40.1811715" lon="18.1572896"><ele>72.0</ele><time>2026-04-11T06:16:31.025Z</time></trkpt><trkpt lat="40.1812746" lon="18.1571485"><ele>72.0</ele><time>2026-04-11T06:16:32.016Z</time></trkpt><trkpt lat="40.1813744" lon="18.1569791"><ele>72.0</ele><time>2026-04-11T06:16:33.051Z</time></trkpt><trkpt lat="40.1814815" lon="18.156834"><ele>72.0</ele><time>2026-04-11T06:16:34.024Z</time></trkpt><trkpt lat="40.1815683" lon="18.1566913"><ele>72.0</ele><time>2026-04-11T06:16:35.026Z</time></trkpt><trkpt lat="40.1816636" lon="18.156536"><ele>72.0</ele><time>2026-04-11T06:16:36.02Z</time></trkpt><trkpt lat="40.1817542" lon="18.1563762"><ele>73.33333333333333</ele><time>2026-04-11T06:16:37.024Z</time></trkpt><trkpt lat="40.1818512" lon="18.1562174"><ele>74.66666666666666</ele><time>2026-04-11T06:16:38.023Z</time></trkpt><trkpt lat="40.181939" lon="18.156054"><ele>76.0</ele><time>2026-04-11T06:16:39.027Z</time></trkpt><trkpt lat="40.1820303" lon="18.155896"><ele>76.0</ele><time>2026-04-11T06:16:40.022Z</time></trkpt><trkpt lat="40.1821182" lon="18.1557217"><ele>76.0</ele><time>2026-04-11T06:16:41.027Z</time></trkpt><trkpt lat="40.1821909" lon="18.1555304"><ele>76.0</ele><time>2026-04-11T06:16:42.02Z</time></trkpt><trkpt lat="40.182281" lon="18.1553511"><ele>76.0</ele><time>2026-04-11T06:16:43.026Z</time></trkpt><trkpt lat="40.1823555" lon="18.1551782"><ele>76.0</ele><time>2026-04-11T06:16:44.025Z</time></trkpt><trkpt lat="40.1824436" lon="18.1550061"><ele>76.0</ele><time>2026-04-11T06:16:45.026Z</time></trkpt><trkpt lat="40.1825316" lon="18.1548066"><ele>75.66666666666666</ele><time>2026-04-11T06:16:46.022Z</time></trkpt><trkpt lat="40.1826202" lon="18.1546154"><ele>75.33333333333333</ele><time>2026-04-11T06:16:47.019Z</time></trkpt><trkpt lat="40.1827286" lon="18.1544213"><ele>75.0</ele><time>2026-04-11T06:16:48.023Z</time></trkpt><trkpt lat="40.1828225" lon="18.1542249"><ele>75.33333333333333</ele><time>2026-04-11T06:16:49.026Z</time></trkpt><trkpt lat="40.1829129" lon="18.154018"><ele>75.66666666666666</ele><time>2026-04-11T06:16:50.026Z</time></trkpt><trkpt lat="40.1829971" lon="18.1538188"><ele>76.0</ele><time>2026-04-11T06:16:51.022Z</time></trkpt><trkpt lat="40.1830569" lon="18.1536135"><ele>76.0</ele><time>2026-04-11T06:16:52.029Z</time></trkpt><trkpt lat="40.183147" lon="18.1534212"><ele>76.0</ele><time>2026-04-11T06:16:53.032Z</time></trkpt><trkpt lat="40.1832168" lon="18.1532229"><ele>76.0</ele><time>2026-04-11T06:16:54.059Z</time></trkpt><trkpt lat="40.1832868" lon="18.1530037"><ele>76.33333333333333</ele><time>2026-04-11T06:16:55.029Z</time></trkpt><trkpt lat="40.1833551" lon="18.152789"><ele>76.66666666666667</ele><time>2026-04-11T06:16:56.056Z</time></trkpt><trkpt lat="40.1834185" lon="18.1525812"><ele>77.0</ele><time>2026-04-11T06:16:57.012Z</time></trkpt><trkpt lat="40.1834848" lon="18.1524018"><ele>76.75</ele><time>2026-04-11T06:16:58.045Z</time></trkpt><trkpt lat="40.183549" lon="18.1522288"><ele>76.5</ele><time>2026-04-11T06:16:59.059Z</time></trkpt><trkpt lat="40.1836106" lon="18.1520477"><ele>76.25</ele><time>2026-04-11T06:17:00.029Z</time></trkpt><trkpt lat="40.1836807" lon="18.1518725"><ele>76.0</ele><time>2026-04-11T06:17:01.057Z</time></trkpt><trkpt lat="40.1837745" lon="18.1517041"><ele>76.0</ele><time>2026-04-11T06:17:02.056Z</time></trkpt><trkpt lat="40.1838595" lon="18.1515191"><ele>76.0</ele><time>2026-04-11T06:17:03.021Z</time></trkpt><trkpt lat="40.1839575" lon="18.1513404"><ele>76.0</ele><time>2026-04-11T06:17:04.033Z</time></trkpt><trkpt lat="40.1840366" lon="18.1511506"><ele>76.0</ele><time>2026-04-11T06:17:05.059Z</time></trkpt><trkpt lat="40.1841231" lon="18.1509691"><ele>76.0</ele><time>2026-04-11T06:17:06.053Z</time></trkpt><trkpt lat="40.1842157" lon="18.1507893"><ele>76.0</ele><time>2026-04-11T06:17:07.051Z</time></trkpt><trkpt lat="40.1843221" lon="18.1506066"><ele>76.0</ele><time>2026-04-11T06:17:08.024Z</time></trkpt><trkpt lat="40.1844292" lon="18.1504278"><ele>76.0</ele><time>2026-04-11T06:17:09.052Z</time></trkpt><trkpt lat="40.1845564" lon="18.1502521"><ele>76.0</ele><time>2026-04-11T06:17:10.097Z</time></trkpt><trkpt lat="40.1846752" lon="18.150075"><ele>76.0</ele><time>2026-04-11T06:17:11.015Z</time></trkpt><trkpt lat="40.1848105" lon="18.1499082"><ele>76.0</ele><time>2026-04-11T06:17:12.015Z</time></trkpt><trkpt lat="40.1849404" lon="18.14973"><ele>76.0</ele><time>2026-04-11T06:17:13.049Z</time></trkpt><trkpt lat="40.1850699" lon="18.1495479"><ele>75.66666666666666</ele><time>2026-04-11T06:17:14.025Z</time></trkpt><trkpt lat="40.1851861" lon="18.1493775"><ele>75.33333333333333</ele><time>2026-04-11T06:17:15.058Z</time></trkpt><trkpt lat="40.185318" lon="18.149213"><ele>75.0</ele><time>2026-04-11T06:17:16.024Z</time></trkpt><trkpt lat="40.1854458" lon="18.1490394"><ele>75.0</ele><time>2026-04-11T06:17:17.053Z</time></trkpt><trkpt lat="40.1855709" lon="18.1488669"><ele>75.0</ele><time>2026-04-11T06:17:18.013Z</time></trkpt><trkpt lat="40.1857058" lon="18.1486883"><ele>75.0</ele><time>2026-04-11T06:17:19.056Z</time></trkpt><trkpt lat="40.1858369" lon="18.1485251"><ele>74.66666666666667</ele><time>2026-04-11T06:17:20.026Z</time></trkpt><trkpt lat="40.1859666" lon="18.1483535"><ele>74.33333333333334</ele><time>2026-04-11T06:17:21.032Z</time></trkpt><trkpt lat="40.1860926" lon="18.1481812"><ele>74.0</ele><time>2026-04-11T06:17:22.021Z</time></trkpt><trkpt lat="40.1862013" lon="18.147989"><ele>74.0</ele><time>2026-04-11T06:17:23.018Z</time></trkpt><trkpt lat="40.186327" lon="18.1478136"><ele>74.0</ele><time>2026-04-11T06:17:24.024Z</time></trkpt><trkpt lat="40.1864484" lon="18.1476464"><ele>74.0</ele><time>2026-04-11T06:17:25.1Z</time></trkpt><trkpt lat="40.1865718" lon="18.1474635"><ele>73.33333333333334</ele><time>2026-04-11T06:17:26.037Z</time></trkpt><trkpt lat="40.1867004" lon="18.1473"><ele>72.66666666666667</ele><time>2026-04-11T06:17:27.026Z</time></trkpt><trkpt lat="40.1868279" lon="18.1471246"><ele>72.0</ele><time>2026-04-11T06:17:28.021Z</time></trkpt><trkpt lat="40.186943" lon="18.1469486"><ele>72.0</ele><time>2026-04-11T06:17:29.055Z</time></trkpt><trkpt lat="40.1870618" lon="18.1467773"><ele>72.0</ele><time>2026-04-11T06:17:30.055Z</time></trkpt><trkpt lat="40.1871903" lon="18.1465997"><ele>72.0</ele><time>2026-04-11T06:17:31.034Z</time></trkpt><trkpt lat="40.187315" lon="18.1464036"><ele>71.0</ele><time>2026-04-11T06:17:32.027Z</time></trkpt><trkpt lat="40.1874454" lon="18.1462246"><ele>70.0</ele><time>2026-04-11T06:17:33.015Z</time></trkpt><trkpt lat="40.1875726" lon="18.14604"><ele>69.0</ele><time>2026-04-11T06:17:34.015Z</time></trkpt><trkpt lat="40.1876957" lon="18.1458761"><ele>69.0</ele><time>2026-04-11T06:17:35.017Z</time></trkpt><trkpt lat="40.1878178" lon="18.1457179"><ele>69.0</ele><time>2026-04-11T06:17:36.059Z</time></trkpt><trkpt lat="40.1879378" lon="18.1455693"><ele>69.0</ele><time>2026-04-11T06:17:37.03Z</time></trkpt><trkpt lat="40.1880345" lon="18.1454319"><ele>69.25</ele><time>2026-04-11T06:17:38.024Z</time></trkpt><trkpt lat="40.1881345" lon="18.1452946"><ele>69.5</ele><time>2026-04-11T06:17:39.01Z</time></trkpt><trkpt lat="40.1882234" lon="18.1451651"><ele>69.75</ele><time>2026-04-11T06:17:40.053Z</time></trkpt><trkpt lat="40.1883204" lon="18.1450318"><ele>70.0</ele><time>2026-04-11T06:17:41.045Z</time></trkpt><trkpt lat="40.1884372" lon="18.144889"><ele>69.66666666666666</ele><time>2026-04-11T06:17:42.026Z</time></trkpt><trkpt lat="40.1885495" lon="18.1447319"><ele>69.33333333333333</ele><time>2026-04-11T06:17:43.024Z</time></trkpt><trkpt lat="40.1886597" lon="18.1445791"><ele>69.0</ele><time>2026-04-11T06:17:44.011Z</time></trkpt><trkpt lat="40.1887861" lon="18.1444193"><ele>69.0</ele><time>2026-04-11T06:17:45.023Z</time></trkpt><trkpt lat="40.1888951" lon="18.1442626"><ele>69.0</ele><time>2026-04-11T06:17:46.057Z</time></trkpt><trkpt lat="40.1890176" lon="18.1440958"><ele>69.0</ele><time>2026-04-11T06:17:47.012Z</time></trkpt><trkpt lat="40.1891455" lon="18.143916"><ele>69.33333333333333</ele><time>2026-04-11T06:17:48.015Z</time></trkpt><trkpt lat="40.1892767" lon="18.1437494"><ele>69.66666666666666</ele><time>2026-04-11T06:17:49.055Z</time></trkpt><trkpt lat="40.1894134" lon="18.1435699"><ele>70.0</ele><time>2026-04-11T06:17:50.03Z</time></trkpt><trkpt lat="40.1895416" lon="18.1433818"><ele>70.0</ele><time>2026-04-11T06:17:51.053Z</time></trkpt><trkpt lat="40.1896817" lon="18.143187"><ele>70.0</ele><time>2026-04-11T06:17:52.024Z</time></trkpt><trkpt lat="40.1898201" lon="18.1429954"><ele>70.0</ele><time>2026-04-11T06:17:53.015Z</time></trkpt><trkpt lat="40.189953" lon="18.1428009"><ele>69.33333333333333</ele><time>2026-04-11T06:17:54.052Z</time></trkpt><trkpt lat="40.1900904" lon="18.1425988"><ele>68.66666666666667</ele><time>2026-04-11T06:17:55.055Z</time></trkpt><trkpt lat="40.19023" lon="18.1424049"><ele>68.0</ele><time>2026-04-11T06:17:56.022Z</time></trkpt><trkpt lat="40.1903696" lon="18.1422092"><ele>68.0</ele><time>2026-04-11T06:17:57.012Z</time></trkpt><trkpt lat="40.1904941" lon="18.1420073"><ele>68.0</ele><time>2026-04-11T06:17:58.052Z</time></trkpt><trkpt lat="40.1906357" lon="18.1418183"><ele>68.0</ele><time>2026-04-11T06:17:59.057Z</time></trkpt><trkpt lat="40.1907676" lon="18.1416267"><ele>67.33333333333334</ele><time>2026-04-11T06:18:00.027Z</time></trkpt><trkpt lat="40.1909052" lon="18.141441"><ele>66.66666666666667</ele><time>2026-04-11T06:18:01.059Z</time></trkpt><trkpt lat="40.1910402" lon="18.1412548"><ele>66.0</ele><time>2026-04-11T06:18:02.016Z</time></trkpt><trkpt lat="40.1911671" lon="18.141055"><ele>66.0</ele><time>2026-04-11T06:18:03.023Z</time></trkpt><trkpt lat="40.1913036" lon="18.1408652"><ele>66.0</ele><time>2026-04-11T06:18:04.023Z</time></trkpt><trkpt lat="40.1914453" lon="18.1406746"><ele>66.0</ele><time>2026-04-11T06:18:05.029Z</time></trkpt><trkpt lat="40.191582" lon="18.1404821"><ele>65.33333333333333</ele><time>2026-04-11T06:18:06.017Z</time></trkpt><trkpt lat="40.1917265" lon="18.1402833"><ele>64.66666666666666</ele><time>2026-04-11T06:18:07.108Z</time></trkpt><trkpt lat="40.1918712" lon="18.1400924"><ele>64.0</ele><time>2026-04-11T06:18:08.056Z</time></trkpt><trkpt lat="40.1920084" lon="18.1398998"><ele>63.666666666666664</ele><time>2026-04-11T06:18:09.012Z</time></trkpt><trkpt lat="40.1921362" lon="18.1397055"><ele>63.33333333333333</ele><time>2026-04-11T06:18:10.02Z</time></trkpt><trkpt lat="40.1922668" lon="18.1394995"><ele>63.0</ele><time>2026-04-11T06:18:11.022Z</time></trkpt><trkpt lat="40.1923911" lon="18.1392986"><ele>63.0</ele><time>2026-04-11T06:18:12.049Z</time></trkpt><trkpt lat="40.1925076" lon="18.1390987"><ele>63.0</ele><time>2026-04-11T06:18:13.059Z</time></trkpt><trkpt lat="40.192624" lon="18.1388963"><ele>63.0</ele><time>2026-04-11T06:18:14.058Z</time></trkpt><trkpt lat="40.1927354" lon="18.1387021"><ele>62.66666666666667</ele><time>2026-04-11T06:18:15.032Z</time></trkpt><trkpt lat="40.1928486" lon="18.1385082"><ele>62.333333333333336</ele><time>2026-04-11T06:18:16.017Z</time></trkpt><trkpt lat="40.1929622" lon="18.1383175"><ele>62.0</ele><time>2026-04-11T06:18:17.027Z</time></trkpt><trkpt lat="40.1930774" lon="18.1381223"><ele>62.0</ele><time>2026-04-11T06:18:18.062Z</time></trkpt><trkpt lat="40.1931866" lon="18.1379164"><ele>62.0</ele><time>2026-04-11T06:18:19.027Z</time></trkpt><trkpt lat="40.1933073" lon="18.1377268"><ele>62.0</ele><time>2026-04-11T06:18:20.029Z</time></trkpt><trkpt lat="40.1934261" lon="18.1375374"><ele>62.333333333333336</ele><time>2026-04-11T06:18:21.053Z</time></trkpt><trkpt lat="40.1935533" lon="18.1373342"><ele>62.66666666666667</ele><time>2026-04-11T06:18:22.019Z</time></trkpt><trkpt lat="40.1936776" lon="18.1371329"><ele>63.0</ele><time>2026-04-11T06:18:23.051Z</time></trkpt><trkpt lat="40.193802" lon="18.1369325"><ele>63.0</ele><time>2026-04-11T06:18:24.052Z</time></trkpt><trkpt lat="40.1939227" lon="18.1367276"><ele>63.0</ele><time>2026-04-11T06:18:25.012Z</time></trkpt><trkpt lat="40.1940478" lon="18.1365214"><ele>63.0</ele><time>2026-04-11T06:18:26.046Z</time></trkpt><trkpt lat="40.1941705" lon="18.1363143"><ele>62.66666666666667</ele><time>2026-04-11T06:18:27.013Z</time></trkpt><trkpt lat="40.1942895" lon="18.1360973"><ele>62.333333333333336</ele><time>2026-04-11T06:18:28.012Z</time></trkpt><trkpt lat="40.1944175" lon="18.1358865"><ele>62.0</ele><time>2026-04-11T06:18:29.024Z</time></trkpt><trkpt lat="40.1945413" lon="18.1356755"><ele>61.333333333333336</ele><time>2026-04-11T06:18:30.06Z</time></trkpt><trkpt lat="40.1946621" lon="18.135467"><ele>60.66666666666667</ele><time>2026-04-11T06:18:31.054Z</time></trkpt><trkpt lat="40.1947934" lon="18.1352598"><ele>60.0</ele><time>2026-04-11T06:18:32.021Z</time></trkpt><trkpt lat="40.1949237" lon="18.1350453"><ele>61.0</ele><time>2026-04-11T06:18:33.052Z</time></trkpt><trkpt lat="40.1950578" lon="18.1348603"><ele>62.0</ele><time>2026-04-11T06:18:34.024Z</time></trkpt><trkpt lat="40.1951813" lon="18.1346509"><ele>63.0</ele><time>2026-04-11T06:18:35.018Z</time></trkpt><trkpt lat="40.1953072" lon="18.1344302"><ele>63.0</ele><time>2026-04-11T06:18:36.019Z</time></trkpt><trkpt lat="40.1954296" lon="18.1342216"><ele>63.0</ele><time>2026-04-11T06:18:37.025Z</time></trkpt><trkpt lat="40.1955523" lon="18.1340102"><ele>63.0</ele><time>2026-04-11T06:18:38.025Z</time></trkpt><trkpt lat="40.1956768" lon="18.1338089"><ele>63.0</ele><time>2026-04-11T06:18:39.028Z</time></trkpt><trkpt lat="40.1957935" lon="18.1336156"><ele>63.0</ele><time>2026-04-11T06:18:40.028Z</time></trkpt><trkpt lat="40.1959159" lon="18.1334081"><ele>63.0</ele><time>2026-04-11T06:18:41.023Z</time></trkpt><trkpt lat="40.1960418" lon="18.1331988"><ele>63.0</ele><time>2026-04-11T06:18:42.059Z</time></trkpt><trkpt lat="40.1961661" lon="18.1329938"><ele>63.0</ele><time>2026-04-11T06:18:43.028Z</time></trkpt><trkpt lat="40.1962858" lon="18.1327819"><ele>63.0</ele><time>2026-04-11T06:18:44.051Z</time></trkpt><trkpt lat="40.1964111" lon="18.1325774"><ele>63.66666666666667</ele><time>2026-04-11T06:18:45.02Z</time></trkpt><trkpt lat="40.1965205" lon="18.1323564"><ele>64.33333333333334</ele><time>2026-04-11T06:18:46.05Z</time></trkpt><trkpt lat="40.1966425" lon="18.1321513"><ele>65.0</ele><time>2026-04-11T06:18:47.022Z</time></trkpt><trkpt lat="40.1967638" lon="18.1319503"><ele>65.0</ele><time>2026-04-11T06:18:48.05Z</time></trkpt><trkpt lat="40.1968836" lon="18.1317495"><ele>65.0</ele><time>2026-04-11T06:18:49.012Z</time></trkpt><trkpt lat="40.1970093" lon="18.1315624"><ele>65.0</ele><time>2026-04-11T06:18:50.021Z</time></trkpt><trkpt lat="40.1971263" lon="18.1313514"><ele>64.66666666666667</ele><time>2026-04-11T06:18:51.026Z</time></trkpt><trkpt lat="40.1972446" lon="18.1311495"><ele>64.33333333333333</ele><time>2026-04-11T06:18:52.017Z</time></trkpt><trkpt lat="40.1973596" lon="18.1309631"><ele>64.0</ele><time>2026-04-11T06:18:53.024Z</time></trkpt><trkpt lat="40.1974832" lon="18.1307734"><ele>64.0</ele><time>2026-04-11T06:18:54.029Z</time></trkpt><trkpt lat="40.1976012" lon="18.1305775"><ele>64.0</ele><time>2026-04-11T06:18:55.015Z</time></trkpt><trkpt lat="40.1977147" lon="18.1303654"><ele>64.0</ele><time>2026-04-11T06:18:56.026Z</time></trkpt><trkpt lat="40.197832" lon="18.1301674"><ele>64.0</ele><time>2026-04-11T06:18:57.027Z</time></trkpt><trkpt lat="40.1979607" lon="18.1299701"><ele>64.0</ele><time>2026-04-11T06:18:58.055Z</time></trkpt><trkpt lat="40.1980875" lon="18.1297745"><ele>64.0</ele><time>2026-04-11T06:18:59.024Z</time></trkpt><trkpt lat="40.1982038" lon="18.1295687"><ele>63.666666666666664</ele><time>2026-04-11T06:19:00.053Z</time></trkpt><trkpt lat="40.198319" lon="18.1293688"><ele>63.33333333333333</ele><time>2026-04-11T06:19:01.049Z</time></trkpt><trkpt lat="40.1984327" lon="18.1291875"><ele>63.0</ele><time>2026-04-11T06:19:02.053Z</time></trkpt><trkpt lat="40.1985516" lon="18.1290078"><ele>63.0</ele><time>2026-04-11T06:19:03.019Z</time></trkpt><trkpt lat="40.1986655" lon="18.1288166"><ele>63.0</ele><time>2026-04-11T06:19:04.012Z</time></trkpt><trkpt lat="40.19877" lon="18.1286042"><ele>63.0</ele><time>2026-04-11T06:19:05.025Z</time></trkpt><trkpt lat="40.1988855" lon="18.1284063"><ele>62.66666666666667</ele><time>2026-04-11T06:19:06.055Z</time></trkpt><trkpt lat="40.198997" lon="18.1282036"><ele>62.333333333333336</ele><time>2026-04-11T06:19:07.028Z</time></trkpt><trkpt lat="40.1991049" lon="18.1279915"><ele>62.0</ele><time>2026-04-11T06:19:08.028Z</time></trkpt><trkpt lat="40.1992174" lon="18.1277868"><ele>61.333333333333336</ele><time>2026-04-11T06:19:09.05Z</time></trkpt><trkpt lat="40.1993327" lon="18.1275911"><ele>60.66666666666667</ele><time>2026-04-11T06:19:10.05Z</time></trkpt><trkpt lat="40.1994579" lon="18.1274005"><ele>60.0</ele><time>2026-04-11T06:19:11.03Z</time></trkpt><trkpt lat="40.199575" lon="18.1272034"><ele>60.0</ele><time>2026-04-11T06:19:12.015Z</time></trkpt><trkpt lat="40.1997002" lon="18.1270235"><ele>60.0</ele><time>2026-04-11T06:19:13.035Z</time></trkpt><trkpt lat="40.1998196" lon="18.1268288"><ele>60.0</ele><time>2026-04-11T06:19:14.025Z</time></trkpt><trkpt lat="40.1999313" lon="18.1266306"><ele>59.0</ele><time>2026-04-11T06:19:15.025Z</time></trkpt><trkpt lat="40.200043" lon="18.1264415"><ele>58.0</ele><time>2026-04-11T06:19:16.029Z</time></trkpt><trkpt lat="40.2001576" lon="18.1262335"><ele>57.0</ele><time>2026-04-11T06:19:17.025Z</time></trkpt><trkpt lat="40.2002747" lon="18.1260321"><ele>57.0</ele><time>2026-04-11T06:19:18.059Z</time></trkpt><trkpt lat="40.2004006" lon="18.1258408"><ele>57.0</ele><time>2026-04-11T06:19:19.04Z</time></trkpt><trkpt lat="40.2005221" lon="18.1256541"><ele>57.0</ele><time>2026-04-11T06:19:20.058Z</time></trkpt><trkpt lat="40.2006448" lon="18.1254487"><ele>57.66666666666667</ele><time>2026-04-11T06:19:21.063Z</time></trkpt><trkpt lat="40.2007566" lon="18.1252277"><ele>58.333333333333336</ele><time>2026-04-11T06:19:22.026Z</time></trkpt><trkpt lat="40.2008733" lon="18.1250254"><ele>59.0</ele><time>2026-04-11T06:19:23.035Z</time></trkpt><trkpt lat="40.200997" lon="18.1248258"><ele>59.333333333333336</ele><time>2026-04-11T06:19:24.028Z</time></trkpt><trkpt lat="40.2011184" lon="18.1246174"><ele>59.66666666666667</ele><time>2026-04-11T06:19:25.012Z</time></trkpt><trkpt lat="40.2012442" lon="18.1243993"><ele>60.0</ele><time>2026-04-11T06:19:26.021Z</time></trkpt><trkpt lat="40.2013704" lon="18.1241922"><ele>60.66666666666667</ele><time>2026-04-11T06:19:27.035Z</time></trkpt><trkpt lat="40.2014965" lon="18.1239806"><ele>61.333333333333336</ele><time>2026-04-11T06:19:28.03Z</time></trkpt><trkpt lat="40.201631" lon="18.1237685"><ele>62.0</ele><time>2026-04-11T06:19:29.031Z</time></trkpt><trkpt lat="40.2017572" lon="18.1235537"><ele>60.66666666666667</ele><time>2026-04-11T06:19:30.02Z</time></trkpt><trkpt lat="40.20189" lon="18.1233464"><ele>59.33333333333333</ele><time>2026-04-11T06:19:31.02Z</time></trkpt><trkpt lat="40.2020243" lon="18.1231494"><ele>58.0</ele><time>2026-04-11T06:19:32.048Z</time></trkpt><trkpt lat="40.2021473" lon="18.1229276"><ele>58.0</ele><time>2026-04-11T06:19:33.051Z</time></trkpt><trkpt lat="40.2022761" lon="18.1227115"><ele>58.0</ele><time>2026-04-11T06:19:34.021Z</time></trkpt><trkpt lat="40.2023951" lon="18.1224984"><ele>58.0</ele><time>2026-04-11T06:19:35.044Z</time></trkpt><trkpt lat="40.2025224" lon="18.1222792"><ele>57.666666666666664</ele><time>2026-04-11T06:19:36.03Z</time></trkpt><trkpt lat="40.2026463" lon="18.1220635"><ele>57.33333333333333</ele><time>2026-04-11T06:19:37.028Z</time></trkpt><trkpt lat="40.2027688" lon="18.1218387"><ele>57.0</ele><time>2026-04-11T06:19:38.061Z</time></trkpt><trkpt lat="40.2028887" lon="18.1216309"><ele>57.33333333333333</ele><time>2026-04-11T06:19:39.054Z</time></trkpt><trkpt lat="40.2030184" lon="18.1214063"><ele>57.666666666666664</ele><time>2026-04-11T06:19:40.023Z</time></trkpt><trkpt lat="40.20316" lon="18.121189"><ele>58.0</ele><time>2026-04-11T06:19:41.056Z</time></trkpt><trkpt lat="40.2032903" lon="18.120968"><ele>57.33333333333333</ele><time>2026-04-11T06:19:42.051Z</time></trkpt><trkpt lat="40.2034199" lon="18.1207495"><ele>56.66666666666667</ele><time>2026-04-11T06:19:43.01Z</time></trkpt><trkpt lat="40.2035548" lon="18.1205385"><ele>56.0</ele><time>2026-04-11T06:19:44.02Z</time></trkpt><trkpt lat="40.2036849" lon="18.1203211"><ele>56.0</ele><time>2026-04-11T06:19:45.016Z</time></trkpt><trkpt lat="40.2038106" lon="18.1201101"><ele>56.0</ele><time>2026-04-11T06:19:46.048Z</time></trkpt><trkpt lat="40.203937" lon="18.1198949"><ele>56.0</ele><time>2026-04-11T06:19:47.025Z</time></trkpt><trkpt lat="40.2040505" lon="18.1196572"><ele>56.0</ele><time>2026-04-11T06:19:48.024Z</time></trkpt><trkpt lat="40.2041755" lon="18.1194459"><ele>56.0</ele><time>2026-04-11T06:19:49.026Z</time></trkpt><trkpt lat="40.2043082" lon="18.1192423"><ele>56.0</ele><time>2026-04-11T06:19:50.051Z</time></trkpt><trkpt lat="40.2044318" lon="18.1190131"><ele>56.0</ele><time>2026-04-11T06:19:51.051Z</time></trkpt><trkpt lat="40.2045562" lon="18.1187905"><ele>56.0</ele><time>2026-04-11T06:19:52.021Z</time></trkpt><trkpt lat="40.2046831" lon="18.1185757"><ele>56.0</ele><time>2026-04-11T06:19:53.025Z</time></trkpt><trkpt lat="40.2048056" lon="18.1183429"><ele>55.333333333333336</ele><time>2026-04-11T06:19:54.021Z</time></trkpt><trkpt lat="40.2049379" lon="18.118133"><ele>54.66666666666667</ele><time>2026-04-11T06:19:55.022Z</time></trkpt><trkpt lat="40.2050689" lon="18.1179132"><ele>54.0</ele><time>2026-04-11T06:19:56.029Z</time></trkpt><trkpt lat="40.2051946" lon="18.1177036"><ele>54.0</ele><time>2026-04-11T06:19:57.061Z</time></trkpt><trkpt lat="40.2053203" lon="18.1174776"><ele>54.0</ele><time>2026-04-11T06:19:58.056Z</time></trkpt><trkpt lat="40.2054495" lon="18.1172576"><ele>54.0</ele><time>2026-04-11T06:19:59.018Z</time></trkpt><trkpt lat="40.205566" lon="18.1170612"><ele>53.66666666666667</ele><time>2026-04-11T06:20:00.053Z</time></trkpt><trkpt lat="40.2056844" lon="18.1168603"><ele>53.333333333333336</ele><time>2026-04-11T06:20:01.053Z</time></trkpt><trkpt lat="40.2057982" lon="18.1166642"><ele>53.0</ele><time>2026-04-11T06:20:02.012Z</time></trkpt><trkpt lat="40.2059104" lon="18.1164907"><ele>53.0</ele><time>2026-04-11T06:20:03.05Z</time></trkpt><trkpt lat="40.2060254" lon="18.1162988"><ele>53.0</ele><time>2026-04-11T06:20:04.014Z</time></trkpt><trkpt lat="40.206141" lon="18.116093"><ele>53.0</ele><time>2026-04-11T06:20:05.017Z</time></trkpt><trkpt lat="40.2062558" lon="18.1159002"><ele>52.66666666666667</ele><time>2026-04-11T06:20:06.029Z</time></trkpt><trkpt lat="40.2063686" lon="18.1156936"><ele>52.33333333333333</ele><time>2026-04-11T06:20:07.057Z</time></trkpt><trkpt lat="40.206484" lon="18.115498"><ele>52.0</ele><time>2026-04-11T06:20:08.018Z</time></trkpt><trkpt lat="40.2065952" lon="18.1152978"><ele>51.666666666666664</ele><time>2026-04-11T06:20:09.017Z</time></trkpt><trkpt lat="40.2067087" lon="18.1151063"><ele>51.33333333333333</ele><time>2026-04-11T06:20:10.017Z</time></trkpt><trkpt lat="40.2068266" lon="18.1149032"><ele>51.0</ele><time>2026-04-11T06:20:11.026Z</time></trkpt><trkpt lat="40.2069396" lon="18.1147024"><ele>51.0</ele><time>2026-04-11T06:20:12.025Z</time></trkpt><trkpt lat="40.2070589" lon="18.1145046"><ele>51.0</ele><time>2026-04-11T06:20:13.045Z</time></trkpt><trkpt lat="40.20718" lon="18.1143075"><ele>51.0</ele><time>2026-04-11T06:20:14.056Z</time></trkpt><trkpt lat="40.2072972" lon="18.1141105"><ele>50.33333333333333</ele><time>2026-04-11T06:20:15.055Z</time></trkpt><trkpt lat="40.2074245" lon="18.1139143"><ele>49.666666666666664</ele><time>2026-04-11T06:20:16.051Z</time></trkpt><trkpt lat="40.2075445" lon="18.1137172"><ele>49.0</ele><time>2026-04-11T06:20:17.013Z</time></trkpt><trkpt lat="40.2076645" lon="18.1135098"><ele>49.0</ele><time>2026-04-11T06:20:18.014Z</time></trkpt><trkpt lat="40.2077725" lon="18.1132819"><ele>49.0</ele><time>2026-04-11T06:20:19.051Z</time></trkpt><trkpt lat="40.2078915" lon="18.1130596"><ele>49.0</ele><time>2026-04-11T06:20:20.054Z</time></trkpt><trkpt lat="40.2080319" lon="18.1128741"><ele>49.0</ele><time>2026-04-11T06:20:21.051Z</time></trkpt><trkpt lat="40.2081699" lon="18.1126709"><ele>49.0</ele><time>2026-04-11T06:20:22.053Z</time></trkpt><trkpt lat="40.2083102" lon="18.1124826"><ele>49.0</ele><time>2026-04-11T06:20:23.052Z</time></trkpt><trkpt lat="40.2084307" lon="18.1122796"><ele>48.666666666666664</ele><time>2026-04-11T06:20:24.016Z</time></trkpt><trkpt lat="40.2085372" lon="18.1120741"><ele>48.33333333333333</ele><time>2026-04-11T06:20:25.053Z</time></trkpt><trkpt lat="40.2086404" lon="18.1118937"><ele>48.0</ele><time>2026-04-11T06:20:26.051Z</time></trkpt><trkpt lat="40.2087467" lon="18.1117143"><ele>48.0</ele><time>2026-04-11T06:20:27.013Z</time></trkpt><trkpt lat="40.2088349" lon="18.1115453"><ele>48.0</ele><time>2026-04-11T06:20:28.054Z</time></trkpt><trkpt lat="40.2089313" lon="18.1113785"><ele>48.0</ele><time>2026-04-11T06:20:29.026Z</time></trkpt><trkpt lat="40.2090124" lon="18.1112386"><ele>48.0</ele><time>2026-04-11T06:20:30.052Z</time></trkpt><trkpt lat="40.2090983" lon="18.1110868"><ele>48.0</ele><time>2026-04-11T06:20:31.052Z</time></trkpt><trkpt lat="40.2091807" lon="18.1109392"><ele>48.0</ele><time>2026-04-11T06:20:32.052Z</time></trkpt><trkpt lat="40.2092677" lon="18.1107983"><ele>48.0</ele><time>2026-04-11T06:20:33.028Z</time></trkpt><trkpt lat="40.2093537" lon="18.1106417"><ele>48.0</ele><time>2026-04-11T06:20:34.019Z</time></trkpt><trkpt lat="40.2094411" lon="18.1104916"><ele>48.0</ele><time>2026-04-11T06:20:35.014Z</time></trkpt><trkpt lat="40.2095432" lon="18.1103208"><ele>48.0</ele><time>2026-04-11T06:20:36.022Z</time></trkpt><trkpt lat="40.2096467" lon="18.1101573"><ele>48.0</ele><time>2026-04-11T06:20:37.028Z</time></trkpt><trkpt lat="40.2097402" lon="18.1099847"><ele>48.0</ele><time>2026-04-11T06:20:38.052Z</time></trkpt><trkpt lat="40.2098398" lon="18.1098145"><ele>48.0</ele><time>2026-04-11T06:20:39.013Z</time></trkpt><trkpt lat="40.2099433" lon="18.109645"><ele>47.0</ele><time>2026-04-11T06:20:40.026Z</time></trkpt><trkpt lat="40.2100545" lon="18.1094833"><ele>46.0</ele><time>2026-04-11T06:20:41.035Z</time></trkpt><trkpt lat="40.2101586" lon="18.1093042"><ele>45.0</ele><time>2026-04-11T06:20:42.028Z</time></trkpt><trkpt lat="40.2102591" lon="18.1091324"><ele>45.333333333333336</ele><time>2026-04-11T06:20:43.032Z</time></trkpt><trkpt lat="40.2103616" lon="18.1089565"><ele>45.66666666666667</ele><time>2026-04-11T06:20:44.031Z</time></trkpt><trkpt lat="40.2104641" lon="18.1087837"><ele>46.0</ele><time>2026-04-11T06:20:45.016Z</time></trkpt><trkpt lat="40.210579" lon="18.1086263"><ele>46.0</ele><time>2026-04-11T06:20:46.028Z</time></trkpt><trkpt lat="40.2106983" lon="18.1084575"><ele>46.0</ele><time>2026-04-11T06:20:47.032Z</time></trkpt><trkpt lat="40.21081" lon="18.1082897"><ele>46.0</ele><time>2026-04-11T06:20:48.028Z</time></trkpt><trkpt lat="40.2109344" lon="18.1081482"><ele>46.0</ele><time>2026-04-11T06:20:49.052Z</time></trkpt><trkpt lat="40.2110605" lon="18.1080118"><ele>46.0</ele><time>2026-04-11T06:20:50.023Z</time></trkpt><trkpt lat="40.211195" lon="18.1078717"><ele>46.0</ele><time>2026-04-11T06:20:51.019Z</time></trkpt><trkpt lat="40.2113446" lon="18.1077401"><ele>45.333333333333336</ele><time>2026-04-11T06:20:52.014Z</time></trkpt><trkpt lat="40.2114953" lon="18.1076089"><ele>44.666666666666664</ele><time>2026-04-11T06:20:53.027Z</time></trkpt><trkpt lat="40.2116446" lon="18.107471"><ele>44.0</ele><time>2026-04-11T06:20:54.027Z</time></trkpt><trkpt lat="40.2117952" lon="18.1073351"><ele>44.0</ele><time>2026-04-11T06:20:55.029Z</time></trkpt><trkpt lat="40.2119425" lon="18.1071946"><ele>44.0</ele><time>2026-04-11T06:20:56.034Z</time></trkpt><trkpt lat="40.2120921" lon="18.1070557"><ele>44.0</ele><time>2026-04-11T06:20:57.016Z</time></trkpt><trkpt lat="40.2122373" lon="18.1069184"><ele>44.0</ele><time>2026-04-11T06:20:58.019Z</time></trkpt><trkpt lat="40.2123824" lon="18.1067848"><ele>44.0</ele><time>2026-04-11T06:20:59.015Z</time></trkpt><trkpt lat="40.2125193" lon="18.1066579"><ele>44.0</ele><time>2026-04-11T06:21:00.031Z</time></trkpt><trkpt lat="40.2126613" lon="18.1065285"><ele>44.0</ele><time>2026-04-11T06:21:01.032Z</time></trkpt><trkpt lat="40.2128122" lon="18.1063897"><ele>44.0</ele><time>2026-04-11T06:21:02.027Z</time></trkpt><trkpt lat="40.2129596" lon="18.1062578"><ele>44.0</ele><time>2026-04-11T06:21:03.025Z</time></trkpt><trkpt lat="40.2130991" lon="18.1061269"><ele>44.0</ele><time>2026-04-11T06:21:04.03Z</time></trkpt><trkpt lat="40.2132476" lon="18.1059875"><ele>44.0</ele><time>2026-04-11T06:21:05.026Z</time></trkpt><trkpt lat="40.2133803" lon="18.1058318"><ele>44.0</ele><time>2026-04-11T06:21:06.026Z</time></trkpt><trkpt lat="40.2135142" lon="18.1056914"><ele>44.33333333333333</ele><time>2026-04-11T06:21:07.029Z</time></trkpt><trkpt lat="40.2136525" lon="18.1055522"><ele>44.666666666666664</ele><time>2026-04-11T06:21:08.029Z</time></trkpt><trkpt lat="40.2138032" lon="18.1054442"><ele>45.0</ele><time>2026-04-11T06:21:09.029Z</time></trkpt><trkpt lat="40.2139445" lon="18.1053097"><ele>44.333333333333336</ele><time>2026-04-11T06:21:10.03Z</time></trkpt><trkpt lat="40.2140906" lon="18.1051733"><ele>43.66666666666667</ele><time>2026-04-11T06:21:11.033Z</time></trkpt><trkpt lat="40.2142365" lon="18.1050445"><ele>43.0</ele><time>2026-04-11T06:21:12.033Z</time></trkpt><trkpt lat="40.214372" lon="18.104906"><ele>43.0</ele><time>2026-04-11T06:21:13.031Z</time></trkpt><trkpt lat="40.2145174" lon="18.1047814"><ele>43.0</ele><time>2026-04-11T06:21:14.02Z</time></trkpt><trkpt lat="40.2146536" lon="18.1046653"><ele>43.0</ele><time>2026-04-11T06:21:15.022Z</time></trkpt><trkpt lat="40.2147857" lon="18.1045465"><ele>43.333333333333336</ele><time>2026-04-11T06:21:16.031Z</time></trkpt><trkpt lat="40.214915" lon="18.1044419"><ele>43.666666666666664</ele><time>2026-04-11T06:21:17.022Z</time></trkpt><trkpt lat="40.2150411" lon="18.1043201"><ele>44.0</ele><time>2026-04-11T06:21:18.054Z</time></trkpt><trkpt lat="40.215164" lon="18.1042051"><ele>44.0</ele><time>2026-04-11T06:21:19.013Z</time></trkpt><trkpt lat="40.2152996" lon="18.1041324"><ele>44.0</ele><time>2026-04-11T06:21:20.045Z</time></trkpt><trkpt lat="40.2154275" lon="18.1040233"><ele>44.0</ele><time>2026-04-11T06:21:21.028Z</time></trkpt><trkpt lat="40.2155545" lon="18.1038997"><ele>44.0</ele><time>2026-04-11T06:21:22.024Z</time></trkpt><trkpt lat="40.2156844" lon="18.1037827"><ele>44.0</ele><time>2026-04-11T06:21:23.011Z</time></trkpt><trkpt lat="40.2158184" lon="18.1036532"><ele>44.0</ele><time>2026-04-11T06:21:24.047Z</time></trkpt><trkpt lat="40.2159548" lon="18.103529"><ele>44.0</ele><time>2026-04-11T06:21:25.051Z</time></trkpt><trkpt lat="40.2160946" lon="18.1034031"><ele>44.0</ele><time>2026-04-11T06:21:26.012Z</time></trkpt><trkpt lat="40.2162384" lon="18.1032596"><ele>44.0</ele><time>2026-04-11T06:21:27.026Z</time></trkpt><trkpt lat="40.2163845" lon="18.103125"><ele>44.33333333333333</ele><time>2026-04-11T06:21:28.06Z</time></trkpt><trkpt lat="40.2165357" lon="18.1029825"><ele>44.666666666666664</ele><time>2026-04-11T06:21:29.054Z</time></trkpt><trkpt lat="40.216687" lon="18.1028447"><ele>45.0</ele><time>2026-04-11T06:21:30.052Z</time></trkpt><trkpt lat="40.2168222" lon="18.1027236"><ele>45.0</ele><time>2026-04-11T06:21:31.053Z</time></trkpt><trkpt lat="40.2169734" lon="18.1025874"><ele>45.0</ele><time>2026-04-11T06:21:32.052Z</time></trkpt><trkpt lat="40.2171179" lon="18.1024507"><ele>45.0</ele><time>2026-04-11T06:21:33.021Z</time></trkpt><trkpt lat="40.2172696" lon="18.1022938"><ele>45.0</ele><time>2026-04-11T06:21:34.052Z</time></trkpt><trkpt lat="40.2174155" lon="18.1021719"><ele>45.0</ele><time>2026-04-11T06:21:35.051Z</time></trkpt><trkpt lat="40.2175604" lon="18.1020315"><ele>45.0</ele><time>2026-04-11T06:21:36.054Z</time></trkpt><trkpt lat="40.2177143" lon="18.1018794"><ele>45.0</ele><time>2026-04-11T06:21:37.018Z</time></trkpt><trkpt lat="40.2178621" lon="18.1017438"><ele>45.0</ele><time>2026-04-11T06:21:38.014Z</time></trkpt><trkpt lat="40.2180094" lon="18.1015745"><ele>45.0</ele><time>2026-04-11T06:21:39.047Z</time></trkpt><trkpt lat="40.2181551" lon="18.1014359"><ele>45.0</ele><time>2026-04-11T06:21:40.051Z</time></trkpt><trkpt lat="40.2183069" lon="18.101305"><ele>45.0</ele><time>2026-04-11T06:21:41.018Z</time></trkpt><trkpt lat="40.2184467" lon="18.1011799"><ele>45.0</ele><time>2026-04-11T06:21:42.054Z</time></trkpt><trkpt lat="40.2185868" lon="18.1010497"><ele>45.0</ele><time>2026-04-11T06:21:43.017Z</time></trkpt><trkpt lat="40.2187196" lon="18.1009464"><ele>45.0</ele><time>2026-04-11T06:21:44.025Z</time></trkpt><trkpt lat="40.2188492" lon="18.1008328"><ele>45.0</ele><time>2026-04-11T06:21:45.029Z</time></trkpt><trkpt lat="40.2189711" lon="18.1007176"><ele>44.75</ele><time>2026-04-11T06:21:46.067Z</time></trkpt><trkpt lat="40.2190962" lon="18.1006318"><ele>44.5</ele><time>2026-04-11T06:21:47.027Z</time></trkpt><trkpt lat="40.2192106" lon="18.1005263"><ele>44.25</ele><time>2026-04-11T06:21:48.03Z</time></trkpt><trkpt lat="40.2193283" lon="18.1004316"><ele>44.0</ele><time>2026-04-11T06:21:49.024Z</time></trkpt><trkpt lat="40.2194347" lon="18.1003352"><ele>44.0</ele><time>2026-04-11T06:21:50.048Z</time></trkpt><trkpt lat="40.2195515" lon="18.100252"><ele>44.0</ele><time>2026-04-11T06:21:51.057Z</time></trkpt><trkpt lat="40.2196513" lon="18.1001552"><ele>44.0</ele><time>2026-04-11T06:21:52.02Z</time></trkpt><trkpt lat="40.2197481" lon="18.1000594"><ele>44.0</ele><time>2026-04-11T06:21:53.048Z</time></trkpt><trkpt lat="40.2198458" lon="18.0999846"><ele>44.2</ele><time>2026-04-11T06:21:54.053Z</time></trkpt><trkpt lat="40.2199213" lon="18.0998945"><ele>44.400000000000006</ele><time>2026-04-11T06:21:55.023Z</time></trkpt><trkpt lat="40.2199906" lon="18.099823"><ele>44.6</ele><time>2026-04-11T06:21:56.058Z</time></trkpt><trkpt lat="40.2200726" lon="18.0997607"><ele>44.8</ele><time>2026-04-11T06:21:57.022Z</time></trkpt><trkpt lat="40.2201482" lon="18.0997205"><ele>45.0</ele><time>2026-04-11T06:21:58.054Z</time></trkpt><trkpt lat="40.2202294" lon="18.099689"><ele>45.0</ele><time>2026-04-11T06:21:59.012Z</time></trkpt><trkpt lat="40.2203214" lon="18.0996993"><ele>45.0</ele><time>2026-04-11T06:22:00.025Z</time></trkpt><trkpt lat="40.2203812" lon="18.0997255"><ele>45.0</ele><time>2026-04-11T06:22:01.053Z</time></trkpt><trkpt lat="40.2204572" lon="18.0997824"><ele>45.0</ele><time>2026-04-11T06:22:02.012Z</time></trkpt><trkpt lat="40.2204973" lon="18.0999173"><ele>45.0</ele><time>2026-04-11T06:22:03.028Z</time></trkpt><trkpt lat="40.2205218" lon="18.1000543"><ele>45.0</ele><time>2026-04-11T06:22:04.03Z</time></trkpt><trkpt lat="40.220516" lon="18.1001984"><ele>45.0</ele><time>2026-04-11T06:22:05.047Z</time></trkpt><trkpt lat="40.2205073" lon="18.1003359"><ele>45.0</ele><time>2026-04-11T06:22:06.012Z</time></trkpt><trkpt lat="40.2204615" lon="18.1004835"><ele>45.0</ele><time>2026-04-11T06:22:07.053Z</time></trkpt><trkpt lat="40.2204345" lon="18.1006243"><ele>45.0</ele><time>2026-04-11T06:22:08.015Z</time></trkpt><trkpt lat="40.2204071" lon="18.1007743"><ele>45.0</ele><time>2026-04-11T06:22:09.021Z</time></trkpt><trkpt lat="40.220357" lon="18.1008914"><ele>45.0</ele><time>2026-04-11T06:22:10.053Z</time></trkpt><trkpt lat="40.2203255" lon="18.1010256"><ele>45.0</ele><time>2026-04-11T06:22:11.012Z</time></trkpt><trkpt lat="40.2202794" lon="18.1011324"><ele>45.0</ele><time>2026-04-11T06:22:12.019Z</time></trkpt><trkpt lat="40.2202163" lon="18.1012271"><ele>45.0</ele><time>2026-04-11T06:22:13.051Z</time></trkpt><trkpt lat="40.220165" lon="18.1013043"><ele>45.0</ele><time>2026-04-11T06:22:14.052Z</time></trkpt><trkpt lat="40.2200851" lon="18.1013888"><ele>45.0</ele><time>2026-04-11T06:22:15.024Z</time></trkpt><trkpt lat="40.220003" lon="18.1014514"><ele>45.0</ele><time>2026-04-11T06:22:16.048Z</time></trkpt><trkpt lat="40.2199014" lon="18.101491"><ele>45.0</ele><time>2026-04-11T06:22:17.047Z</time></trkpt><trkpt lat="40.2197978" lon="18.1015296"><ele>45.0</ele><time>2026-04-11T06:22:18.009Z</time></trkpt><trkpt lat="40.2196611" lon="18.101518"><ele>45.25</ele><time>2026-04-11T06:22:19.048Z</time></trkpt><trkpt lat="40.2195457" lon="18.1015061"><ele>45.5</ele><time>2026-04-11T06:22:20.051Z</time></trkpt><trkpt lat="40.2194195" lon="18.1014763"><ele>45.75</ele><time>2026-04-11T06:22:21.011Z</time></trkpt><trkpt lat="40.2192732" lon="18.1014001"><ele>46.0</ele><time>2026-04-11T06:22:22.048Z</time></trkpt><trkpt lat="40.2191146" lon="18.1013392"><ele>45.66666666666667</ele><time>2026-04-11T06:22:23.053Z</time></trkpt><trkpt lat="40.2189509" lon="18.1012737"><ele>45.333333333333336</ele><time>2026-04-11T06:22:24.011Z</time></trkpt><trkpt lat="40.2187368" lon="18.1011986"><ele>45.0</ele><time>2026-04-11T06:22:25.029Z</time></trkpt><trkpt lat="40.2185413" lon="18.1011185"><ele>45.0</ele><time>2026-04-11T06:22:26.03Z</time></trkpt><trkpt lat="40.2183454" lon="18.1010362"><ele>45.0</ele><time>2026-04-11T06:22:27.051Z</time></trkpt><trkpt lat="40.2181356" lon="18.1009338"><ele>45.0</ele><time>2026-04-11T06:22:28.024Z</time></trkpt><trkpt lat="40.2179374" lon="18.1008537"><ele>44.666666666666664</ele><time>2026-04-11T06:22:29.027Z</time></trkpt><trkpt lat="40.2177326" lon="18.1007585"><ele>44.33333333333333</ele><time>2026-04-11T06:22:30.012Z</time></trkpt><trkpt lat="40.217515" lon="18.1006646"><ele>44.0</ele><time>2026-04-11T06:22:31.053Z</time></trkpt><trkpt lat="40.2172999" lon="18.1005665"><ele>43.5</ele><time>2026-04-11T06:22:32.017Z</time></trkpt><trkpt lat="40.2170863" lon="18.1004668"><ele>43.0</ele><time>2026-04-11T06:22:33.026Z</time></trkpt><trkpt lat="40.2168673" lon="18.100372"><ele>43.0</ele><time>2026-04-11T06:22:34.056Z</time></trkpt><trkpt lat="40.2166628" lon="18.1002845"><ele>43.0</ele><time>2026-04-11T06:22:35.021Z</time></trkpt><trkpt lat="40.2164596" lon="18.1001952"><ele>43.0</ele><time>2026-04-11T06:22:36.056Z</time></trkpt><trkpt lat="40.2162647" lon="18.1000984"><ele>43.333333333333336</ele><time>2026-04-11T06:22:37.051Z</time></trkpt><trkpt lat="40.2160696" lon="18.1000111"><ele>43.666666666666664</ele><time>2026-04-11T06:22:38.024Z</time></trkpt><trkpt lat="40.2158651" lon="18.0999214"><ele>44.0</ele><time>2026-04-11T06:22:39.024Z</time></trkpt><trkpt lat="40.2156676" lon="18.099828"><ele>43.666666666666664</ele><time>2026-04-11T06:22:40.025Z</time></trkpt><trkpt lat="40.2154595" lon="18.0997341"><ele>43.333333333333336</ele><time>2026-04-11T06:22:41.026Z</time></trkpt><trkpt lat="40.215259" lon="18.0996442"><ele>43.0</ele><time>2026-04-11T06:22:42.026Z</time></trkpt><trkpt lat="40.2150595" lon="18.0995557"><ele>43.0</ele><time>2026-04-11T06:22:43.026Z</time></trkpt><trkpt lat="40.2148519" lon="18.0994565"><ele>43.0</ele><time>2026-04-11T06:22:44.031Z</time></trkpt><trkpt lat="40.2146647" lon="18.0993736"><ele>43.0</ele><time>2026-04-11T06:22:45.034Z</time></trkpt><trkpt lat="40.2144723" lon="18.0992832"><ele>43.0</ele><time>2026-04-11T06:22:46.029Z</time></trkpt><trkpt lat="40.2142838" lon="18.0991855"><ele>43.0</ele><time>2026-04-11T06:22:47.031Z</time></trkpt><trkpt lat="40.2140904" lon="18.0990949"><ele>43.0</ele><time>2026-04-11T06:22:48.027Z</time></trkpt><trkpt lat="40.2138992" lon="18.0990086"><ele>43.333333333333336</ele><time>2026-04-11T06:22:49.033Z</time></trkpt><trkpt lat="40.2137036" lon="18.0989144"><ele>43.666666666666664</ele><time>2026-04-11T06:22:50.025Z</time></trkpt><trkpt lat="40.2135081" lon="18.0988233"><ele>44.0</ele><time>2026-04-11T06:22:51.025Z</time></trkpt><trkpt lat="40.213317" lon="18.0987354"><ele>44.666666666666664</ele><time>2026-04-11T06:22:52.028Z</time></trkpt><trkpt lat="40.213118" lon="18.0986347"><ele>45.333333333333336</ele><time>2026-04-11T06:22:53.028Z</time></trkpt><trkpt lat="40.2129209" lon="18.0985403"><ele>46.0</ele><time>2026-04-11T06:22:54.027Z</time></trkpt><trkpt lat="40.2127191" lon="18.098442"><ele>46.0</ele><time>2026-04-11T06:22:55.03Z</time></trkpt><trkpt lat="40.2125254" lon="18.0983559"><ele>46.0</ele><time>2026-04-11T06:22:56.094Z</time></trkpt><trkpt lat="40.2123283" lon="18.0982691"><ele>46.0</ele><time>2026-04-11T06:22:57.014Z</time></trkpt><trkpt lat="40.2121313" lon="18.0981748"><ele>46.0</ele><time>2026-04-11T06:22:58.047Z</time></trkpt><trkpt lat="40.2119349" lon="18.0980808"><ele>46.0</ele><time>2026-04-11T06:22:59.048Z</time></trkpt><trkpt lat="40.2117421" lon="18.0980023"><ele>46.0</ele><time>2026-04-11T06:23:00.027Z</time></trkpt><trkpt lat="40.2115378" lon="18.0979106"><ele>45.66666666666667</ele><time>2026-04-11T06:23:01.051Z</time></trkpt><trkpt lat="40.2113351" lon="18.0978164"><ele>45.333333333333336</ele><time>2026-04-11T06:23:02.052Z</time></trkpt><trkpt lat="40.2111242" lon="18.0977207"><ele>45.0</ele><time>2026-04-11T06:23:03.029Z</time></trkpt><trkpt lat="40.2109181" lon="18.0976379"><ele>45.0</ele><time>2026-04-11T06:23:04.031Z</time></trkpt><trkpt lat="40.2107142" lon="18.0975308"><ele>45.0</ele><time>2026-04-11T06:23:05.03Z</time></trkpt><trkpt lat="40.2105085" lon="18.0974379"><ele>45.0</ele><time>2026-04-11T06:23:06.025Z</time></trkpt><trkpt lat="40.2102982" lon="18.0973435"><ele>46.66666666666667</ele><time>2026-04-11T06:23:07.012Z</time></trkpt><trkpt lat="40.210088" lon="18.0972598"><ele>48.333333333333336</ele><time>2026-04-11T06:23:08.054Z</time></trkpt><trkpt lat="40.2098786" lon="18.097166"><ele>50.0</ele><time>2026-04-11T06:23:09.018Z</time></trkpt><trkpt lat="40.2096773" lon="18.0970861"><ele>51.0</ele><time>2026-04-11T06:23:10.021Z</time></trkpt><trkpt lat="40.2094872" lon="18.0970012"><ele>52.0</ele><time>2026-04-11T06:23:11.031Z</time></trkpt><trkpt lat="40.2092921" lon="18.0969138"><ele>53.0</ele><time>2026-04-11T06:23:12.017Z</time></trkpt><trkpt lat="40.2090973" lon="18.0968051"><ele>53.66666666666667</ele><time>2026-04-11T06:23:13.045Z</time></trkpt><trkpt lat="40.2089144" lon="18.0967183"><ele>54.33333333333333</ele><time>2026-04-11T06:23:14.024Z</time></trkpt><trkpt lat="40.2087319" lon="18.0966345"><ele>55.0</ele><time>2026-04-11T06:23:15.027Z</time></trkpt><trkpt lat="40.2085497" lon="18.0965582"><ele>55.666666666666664</ele><time>2026-04-11T06:23:16.025Z</time></trkpt><trkpt lat="40.2083582" lon="18.0964727"><ele>56.33333333333333</ele><time>2026-04-11T06:23:17.024Z</time></trkpt><trkpt lat="40.2081705" lon="18.0963988"><ele>57.0</ele><time>2026-04-11T06:23:18.023Z</time></trkpt><trkpt lat="40.2079835" lon="18.0963127"><ele>57.66666666666667</ele><time>2026-04-11T06:23:19.026Z</time></trkpt><trkpt lat="40.2077895" lon="18.0962377"><ele>58.333333333333336</ele><time>2026-04-11T06:23:20.025Z</time></trkpt><trkpt lat="40.2075948" lon="18.0961438"><ele>59.0</ele><time>2026-04-11T06:23:21.029Z</time></trkpt><trkpt lat="40.2074038" lon="18.0960476"><ele>59.333333333333336</ele><time>2026-04-11T06:23:22.028Z</time></trkpt><trkpt lat="40.2072033" lon="18.095965"><ele>59.66666666666667</ele><time>2026-04-11T06:23:23.028Z</time></trkpt><trkpt lat="40.2070088" lon="18.0958835"><ele>60.0</ele><time>2026-04-11T06:23:24.035Z</time></trkpt><trkpt lat="40.2068129" lon="18.0957946"><ele>60.0</ele><time>2026-04-11T06:23:25.014Z</time></trkpt><trkpt lat="40.2066343" lon="18.0957116"><ele>60.0</ele><time>2026-04-11T06:23:26.026Z</time></trkpt><trkpt lat="40.2064219" lon="18.095625"><ele>60.0</ele><time>2026-04-11T06:23:27.033Z</time></trkpt><trkpt lat="40.2062333" lon="18.0955419"><ele>59.66666666666667</ele><time>2026-04-11T06:23:28.014Z</time></trkpt><trkpt lat="40.2060445" lon="18.095457"><ele>59.333333333333336</ele><time>2026-04-11T06:23:29.025Z</time></trkpt><trkpt lat="40.2058562" lon="18.0953739"><ele>59.0</ele><time>2026-04-11T06:23:30.028Z</time></trkpt><trkpt lat="40.205665" lon="18.0952938"><ele>58.66666666666667</ele><time>2026-04-11T06:23:31.025Z</time></trkpt><trkpt lat="40.205473" lon="18.0952168"><ele>58.33333333333333</ele><time>2026-04-11T06:23:32.056Z</time></trkpt><trkpt lat="40.2052817" lon="18.0951333"><ele>58.0</ele><time>2026-04-11T06:23:33.018Z</time></trkpt><trkpt lat="40.2051072" lon="18.0950507"><ele>58.0</ele><time>2026-04-11T06:23:34.048Z</time></trkpt><trkpt lat="40.2049304" lon="18.0949663"><ele>58.0</ele><time>2026-04-11T06:23:35.025Z</time></trkpt><trkpt lat="40.204745" lon="18.0948823"><ele>58.0</ele><time>2026-04-11T06:23:36.015Z</time></trkpt><trkpt lat="40.2045817" lon="18.0948063"><ele>58.33333333333333</ele><time>2026-04-11T06:23:37.022Z</time></trkpt><trkpt lat="40.2044118" lon="18.0947283"><ele>58.66666666666667</ele><time>2026-04-11T06:23:38.013Z</time></trkpt><trkpt lat="40.2042621" lon="18.0946435"><ele>59.0</ele><time>2026-04-11T06:23:39.021Z</time></trkpt><trkpt lat="40.204109" lon="18.0945681"><ele>59.0</ele><time>2026-04-11T06:23:40.015Z</time></trkpt><trkpt lat="40.2039683" lon="18.0945016"><ele>59.0</ele><time>2026-04-11T06:23:41.02Z</time></trkpt><trkpt lat="40.2038383" lon="18.0944495"><ele>59.0</ele><time>2026-04-11T06:23:42.055Z</time></trkpt><trkpt lat="40.2037092" lon="18.094384"><ele>59.0</ele><time>2026-04-11T06:23:43.021Z</time></trkpt><trkpt lat="40.203586" lon="18.0943232"><ele>59.0</ele><time>2026-04-11T06:23:44.028Z</time></trkpt><trkpt lat="40.2034593" lon="18.0942598"><ele>59.0</ele><time>2026-04-11T06:23:45.012Z</time></trkpt><trkpt lat="40.2033546" lon="18.0941635"><ele>59.0</ele><time>2026-04-11T06:23:46.053Z</time></trkpt><trkpt lat="40.2032355" lon="18.0940709"><ele>59.0</ele><time>2026-04-11T06:23:47.029Z</time></trkpt><trkpt lat="40.2031205" lon="18.0939558"><ele>59.0</ele><time>2026-04-11T06:23:48.025Z</time></trkpt><trkpt lat="40.2030104" lon="18.093833"><ele>59.0</ele><time>2026-04-11T06:23:49.054Z</time></trkpt><trkpt lat="40.202918" lon="18.0936687"><ele>59.0</ele><time>2026-04-11T06:23:50.022Z</time></trkpt><trkpt lat="40.2028229" lon="18.0934996"><ele>59.0</ele><time>2026-04-11T06:23:51.03Z</time></trkpt><trkpt lat="40.2027409" lon="18.0933125"><ele>59.0</ele><time>2026-04-11T06:23:52.09Z</time></trkpt><trkpt lat="40.2026615" lon="18.0931368"><ele>59.0</ele><time>2026-04-11T06:23:53.052Z</time></trkpt><trkpt lat="40.2025922" lon="18.0929651"><ele>58.75</ele><time>2026-04-11T06:23:54.047Z</time></trkpt><trkpt lat="40.2025103" lon="18.0928013"><ele>58.5</ele><time>2026-04-11T06:23:55.051Z</time></trkpt><trkpt lat="40.2024243" lon="18.0926476"><ele>58.25</ele><time>2026-04-11T06:23:56.023Z</time></trkpt><trkpt lat="40.202339" lon="18.0924979"><ele>58.0</ele><time>2026-04-11T06:23:57.024Z</time></trkpt><trkpt lat="40.2022451" lon="18.0923471"><ele>57.666666666666664</ele><time>2026-04-11T06:23:58.024Z</time></trkpt><trkpt lat="40.2021476" lon="18.0921944"><ele>57.33333333333333</ele><time>2026-04-11T06:23:59.063Z</time></trkpt><trkpt lat="40.2020359" lon="18.0920525"><ele>57.0</ele><time>2026-04-11T06:24:00.053Z</time></trkpt><trkpt lat="40.2019211" lon="18.0919075"><ele>57.0</ele><time>2026-04-11T06:24:01.027Z</time></trkpt><trkpt lat="40.2018132" lon="18.0917534"><ele>57.0</ele><time>2026-04-11T06:24:02.009Z</time></trkpt><trkpt lat="40.2017233" lon="18.0915875"><ele>57.0</ele><time>2026-04-11T06:24:03.024Z</time></trkpt><trkpt lat="40.2016246" lon="18.0914298"><ele>56.0</ele><time>2026-04-11T06:24:04.019Z</time></trkpt><trkpt lat="40.2015299" lon="18.0912645"><ele>55.0</ele><time>2026-04-11T06:24:05.013Z</time></trkpt><trkpt lat="40.2014468" lon="18.0911155"><ele>54.0</ele><time>2026-04-11T06:24:06.051Z</time></trkpt><trkpt lat="40.2013701" lon="18.090957"><ele>53.0</ele><time>2026-04-11T06:24:07.014Z</time></trkpt><trkpt lat="40.2012915" lon="18.0907869"><ele>52.333333333333336</ele><time>2026-04-11T06:24:08.023Z</time></trkpt><trkpt lat="40.2012125" lon="18.090597"><ele>51.66666666666667</ele><time>2026-04-11T06:24:09.034Z</time></trkpt><trkpt lat="40.2011392" lon="18.0904023"><ele>51.0</ele><time>2026-04-11T06:24:10.025Z</time></trkpt><trkpt lat="40.2010631" lon="18.0901968"><ele>51.0</ele><time>2026-04-11T06:24:11.025Z</time></trkpt><trkpt lat="40.2009708" lon="18.0899859"><ele>51.0</ele><time>2026-04-11T06:24:12.029Z</time></trkpt><trkpt lat="40.2008872" lon="18.0897551"><ele>51.0</ele><time>2026-04-11T06:24:13.028Z</time></trkpt><trkpt lat="40.2008064" lon="18.0895267"><ele>50.66666666666667</ele><time>2026-04-11T06:24:14.025Z</time></trkpt><trkpt lat="40.2007194" lon="18.089294"><ele>50.333333333333336</ele><time>2026-04-11T06:24:15.012Z</time></trkpt><trkpt lat="40.2006333" lon="18.0890363"><ele>50.0</ele><time>2026-04-11T06:24:16.097Z</time></trkpt><trkpt lat="40.2005363" lon="18.0887855"><ele>50.0</ele><time>2026-04-11T06:24:17.059Z</time></trkpt><trkpt lat="40.2004441" lon="18.0885314"><ele>50.0</ele><time>2026-04-11T06:24:18.051Z</time></trkpt><trkpt lat="40.2003496" lon="18.0882744"><ele>50.0</ele><time>2026-04-11T06:24:19.013Z</time></trkpt><trkpt lat="40.2002482" lon="18.0880142"><ele>49.0</ele><time>2026-04-11T06:24:20.046Z</time></trkpt><trkpt lat="40.2001496" lon="18.087749"><ele>48.0</ele><time>2026-04-11T06:24:21.019Z</time></trkpt><trkpt lat="40.2000501" lon="18.0874781"><ele>47.0</ele><time>2026-04-11T06:24:22.025Z</time></trkpt><trkpt lat="40.1999432" lon="18.0871959"><ele>46.0</ele><time>2026-04-11T06:24:23.056Z</time></trkpt><trkpt lat="40.1998402" lon="18.0869222"><ele>46.0</ele><time>2026-04-11T06:24:24.015Z</time></trkpt><trkpt lat="40.1997324" lon="18.0866477"><ele>46.0</ele><time>2026-04-11T06:24:25.028Z</time></trkpt><trkpt lat="40.1996367" lon="18.0863654"><ele>45.5</ele><time>2026-04-11T06:24:26.032Z</time></trkpt><trkpt lat="40.1995336" lon="18.0860811"><ele>45.0</ele><time>2026-04-11T06:24:27.056Z</time></trkpt><trkpt lat="40.1994318" lon="18.0858108"><ele>44.5</ele><time>2026-04-11T06:24:28.024Z</time></trkpt><trkpt lat="40.1993308" lon="18.0855439"><ele>44.0</ele><time>2026-04-11T06:24:29.022Z</time></trkpt><trkpt lat="40.1992237" lon="18.0852704"><ele>44.0</ele><time>2026-04-11T06:24:30.048Z</time></trkpt><trkpt lat="40.1991268" lon="18.0849994"><ele>44.0</ele><time>2026-04-11T06:24:31.054Z</time></trkpt><trkpt lat="40.1990249" lon="18.0847239"><ele>44.5</ele><time>2026-04-11T06:24:32.049Z</time></trkpt><trkpt lat="40.1989253" lon="18.0844548"><ele>45.0</ele><time>2026-04-11T06:24:33.02Z</time></trkpt><trkpt lat="40.1988227" lon="18.0841863"><ele>44.333333333333336</ele><time>2026-04-11T06:24:34.012Z</time></trkpt><trkpt lat="40.1987154" lon="18.0839259"><ele>43.66666666666667</ele><time>2026-04-11T06:24:35.029Z</time></trkpt><trkpt lat="40.198623" lon="18.0836614"><ele>43.0</ele><time>2026-04-11T06:24:36.058Z</time></trkpt><trkpt lat="40.1985211" lon="18.0833884"><ele>42.0</ele><time>2026-04-11T06:24:37.056Z</time></trkpt><trkpt lat="40.1984194" lon="18.0831218"><ele>41.0</ele><time>2026-04-11T06:24:38.054Z</time></trkpt><trkpt lat="40.1983219" lon="18.0828489"><ele>41.0</ele><time>2026-04-11T06:24:39.027Z</time></trkpt><trkpt lat="40.1982181" lon="18.0825745"><ele>41.0</ele><time>2026-04-11T06:24:40.027Z</time></trkpt><trkpt lat="40.1981129" lon="18.0822956"><ele>41.0</ele><time>2026-04-11T06:24:41.014Z</time></trkpt><trkpt lat="40.1980022" lon="18.0820069"><ele>41.0</ele><time>2026-04-11T06:24:42.046Z</time></trkpt><trkpt lat="40.1978983" lon="18.0817325"><ele>40.0</ele><time>2026-04-11T06:24:43.054Z</time></trkpt><trkpt lat="40.1977981" lon="18.0814482"><ele>39.0</ele><time>2026-04-11T06:24:44.02Z</time></trkpt><trkpt lat="40.1976935" lon="18.0811766"><ele>39.0</ele><time>2026-04-11T06:24:45.048Z</time></trkpt><trkpt lat="40.1975957" lon="18.0808888"><ele>39.0</ele><time>2026-04-11T06:24:46.018Z</time></trkpt><trkpt lat="40.1974911" lon="18.080614"><ele>38.5</ele><time>2026-04-11T06:24:47.013Z</time></trkpt><trkpt lat="40.1973777" lon="18.0803386"><ele>38.0</ele><time>2026-04-11T06:24:48.022Z</time></trkpt><trkpt lat="40.1972697" lon="18.0800626"><ele>38.5</ele><time>2026-04-11T06:24:49.026Z</time></trkpt><trkpt lat="40.1971643" lon="18.0797851"><ele>39.0</ele><time>2026-04-11T06:24:50.011Z</time></trkpt><trkpt lat="40.1970566" lon="18.0795197"><ele>39.0</ele><time>2026-04-11T06:24:51.015Z</time></trkpt><trkpt lat="40.1969557" lon="18.0792432"><ele>39.0</ele><time>2026-04-11T06:24:52.026Z</time></trkpt><trkpt lat="40.1968512" lon="18.0789784"><ele>39.0</ele><time>2026-04-11T06:24:53.027Z</time></trkpt><trkpt lat="40.1967513" lon="18.0787236"><ele>39.0</ele><time>2026-04-11T06:24:54.042Z</time></trkpt><trkpt lat="40.1966604" lon="18.0784694"><ele>39.0</ele><time>2026-04-11T06:24:55.052Z</time></trkpt><trkpt lat="40.1965699" lon="18.0782319"><ele>39.333333333333336</ele><time>2026-04-11T06:24:56.027Z</time></trkpt><trkpt lat="40.1964942" lon="18.0779983"><ele>39.66666666666667</ele><time>2026-04-11T06:24:57.032Z</time></trkpt><trkpt lat="40.1964073" lon="18.0777574"><ele>40.0</ele><time>2026-04-11T06:24:58.034Z</time></trkpt><trkpt lat="40.1963207" lon="18.0775293"><ele>40.333333333333336</ele><time>2026-04-11T06:24:59.021Z</time></trkpt><trkpt lat="40.1962313" lon="18.0772931"><ele>40.666666666666664</ele><time>2026-04-11T06:25:00.017Z</time></trkpt><trkpt lat="40.1961437" lon="18.0770484"><ele>41.0</ele><time>2026-04-11T06:25:01.022Z</time></trkpt><trkpt lat="40.1960468" lon="18.0768103"><ele>41.666666666666664</ele><time>2026-04-11T06:25:02.029Z</time></trkpt><trkpt lat="40.1959563" lon="18.0765704"><ele>42.333333333333336</ele><time>2026-04-11T06:25:03.016Z</time></trkpt><trkpt lat="40.1958515" lon="18.0763293"><ele>43.0</ele><time>2026-04-11T06:25:04.022Z</time></trkpt><trkpt lat="40.1957494" lon="18.0760887"><ele>43.0</ele><time>2026-04-11T06:25:05.032Z</time></trkpt><trkpt lat="40.1956571" lon="18.0758425"><ele>43.0</ele><time>2026-04-11T06:25:06.012Z</time></trkpt><trkpt lat="40.1955611" lon="18.075593"><ele>43.0</ele><time>2026-04-11T06:25:07.016Z</time></trkpt><trkpt lat="40.1954702" lon="18.0753438"><ele>43.0</ele><time>2026-04-11T06:25:08.028Z</time></trkpt><trkpt lat="40.1953681" lon="18.0750929"><ele>43.0</ele><time>2026-04-11T06:25:09.029Z</time></trkpt><trkpt lat="40.1952746" lon="18.0748462"><ele>43.0</ele><time>2026-04-11T06:25:10.017Z</time></trkpt><trkpt lat="40.1951897" lon="18.0745909"><ele>43.333333333333336</ele><time>2026-04-11T06:25:11.024Z</time></trkpt><trkpt lat="40.1950852" lon="18.0743473"><ele>43.666666666666664</ele><time>2026-04-11T06:25:12.032Z</time></trkpt><trkpt lat="40.1949948" lon="18.0741011"><ele>44.0</ele><time>2026-04-11T06:25:13.03Z</time></trkpt><trkpt lat="40.1949008" lon="18.0738488"><ele>44.0</ele><time>2026-04-11T06:25:14.023Z</time></trkpt><trkpt lat="40.1948071" lon="18.0736006"><ele>44.0</ele><time>2026-04-11T06:25:15.015Z</time></trkpt><trkpt lat="40.1947267" lon="18.0733487"><ele>44.0</ele><time>2026-04-11T06:25:16.022Z</time></trkpt><trkpt lat="40.1946353" lon="18.0730951"><ele>43.666666666666664</ele><time>2026-04-11T06:25:17.035Z</time></trkpt><trkpt lat="40.1945421" lon="18.0728422"><ele>43.333333333333336</ele><time>2026-04-11T06:25:18.03Z</time></trkpt><trkpt lat="40.1944451" lon="18.0725859"><ele>43.0</ele><time>2026-04-11T06:25:19.061Z</time></trkpt><trkpt lat="40.1943491" lon="18.0723324"><ele>42.66666666666667</ele><time>2026-04-11T06:25:20.016Z</time></trkpt><trkpt lat="40.1942532" lon="18.0720758"><ele>42.333333333333336</ele><time>2026-04-11T06:25:21.024Z</time></trkpt><trkpt lat="40.1941584" lon="18.0718231"><ele>42.0</ele><time>2026-04-11T06:25:22.013Z</time></trkpt><trkpt lat="40.1940674" lon="18.0715806"><ele>41.666666666666664</ele><time>2026-04-11T06:25:23.05Z</time></trkpt><trkpt lat="40.1939657" lon="18.0713349"><ele>41.33333333333333</ele><time>2026-04-11T06:25:24.029Z</time></trkpt><trkpt lat="40.1938731" lon="18.0710885"><ele>41.0</ele><time>2026-04-11T06:25:25.013Z</time></trkpt><trkpt lat="40.19378" lon="18.0708509"><ele>40.33333333333333</ele><time>2026-04-11T06:25:26.051Z</time></trkpt><trkpt lat="40.1936908" lon="18.070611"><ele>39.666666666666664</ele><time>2026-04-11T06:25:27.034Z</time></trkpt><trkpt lat="40.1936032" lon="18.0703781"><ele>39.0</ele><time>2026-04-11T06:25:28.034Z</time></trkpt><trkpt lat="40.1935137" lon="18.0701439"><ele>38.333333333333336</ele><time>2026-04-11T06:25:29.02Z</time></trkpt><trkpt lat="40.1934232" lon="18.0699115"><ele>37.66666666666667</ele><time>2026-04-11T06:25:30.047Z</time></trkpt><trkpt lat="40.1933285" lon="18.0696844"><ele>37.0</ele><time>2026-04-11T06:25:31.024Z</time></trkpt><trkpt lat="40.1932392" lon="18.0694576"><ele>38.0</ele><time>2026-04-11T06:25:32.054Z</time></trkpt><trkpt lat="40.1931588" lon="18.0692175"><ele>39.0</ele><time>2026-04-11T06:25:33.021Z</time></trkpt><trkpt lat="40.1930754" lon="18.0689807"><ele>40.0</ele><time>2026-04-11T06:25:34.047Z</time></trkpt><trkpt lat="40.1929889" lon="18.0687501"><ele>40.333333333333336</ele><time>2026-04-11T06:25:35.011Z</time></trkpt><trkpt lat="40.1928995" lon="18.0685154"><ele>40.666666666666664</ele><time>2026-04-11T06:25:36.047Z</time></trkpt><trkpt lat="40.1928063" lon="18.0682792"><ele>41.0</ele><time>2026-04-11T06:25:37.031Z</time></trkpt><trkpt lat="40.1927146" lon="18.0680459"><ele>40.666666666666664</ele><time>2026-04-11T06:25:38.03Z</time></trkpt><trkpt lat="40.1926251" lon="18.0678195"><ele>40.333333333333336</ele><time>2026-04-11T06:25:39.028Z</time></trkpt><trkpt lat="40.1925281" lon="18.0675774"><ele>40.0</ele><time>2026-04-11T06:25:40.029Z</time></trkpt><trkpt lat="40.1924455" lon="18.0673322"><ele>40.0</ele><time>2026-04-11T06:25:41.022Z</time></trkpt><trkpt lat="40.1923555" lon="18.0671"><ele>40.0</ele><time>2026-04-11T06:25:42.055Z</time></trkpt><trkpt lat="40.1922737" lon="18.0668798"><ele>40.0</ele><time>2026-04-11T06:25:43.029Z</time></trkpt><trkpt lat="40.1921901" lon="18.0666635"><ele>40.0</ele><time>2026-04-11T06:25:44.027Z</time></trkpt><trkpt lat="40.1921099" lon="18.0664598"><ele>40.0</ele><time>2026-04-11T06:25:45.025Z</time></trkpt><trkpt lat="40.1920339" lon="18.0662612"><ele>40.0</ele><time>2026-04-11T06:25:46.027Z</time></trkpt><trkpt lat="40.1919587" lon="18.0660581"><ele>40.0</ele><time>2026-04-11T06:25:47.024Z</time></trkpt><trkpt lat="40.1918768" lon="18.0658515"><ele>40.0</ele><time>2026-04-11T06:25:48.029Z</time></trkpt><trkpt lat="40.1917983" lon="18.0656421"><ele>40.0</ele><time>2026-04-11T06:25:49.028Z</time></trkpt><trkpt lat="40.1917243" lon="18.0654096"><ele>39.66666666666667</ele><time>2026-04-11T06:25:50.057Z</time></trkpt><trkpt lat="40.1916413" lon="18.0651852"><ele>39.333333333333336</ele><time>2026-04-11T06:25:51.03Z</time></trkpt><trkpt lat="40.1915665" lon="18.0649639"><ele>39.0</ele><time>2026-04-11T06:25:52.052Z</time></trkpt><trkpt lat="40.1914879" lon="18.0647343"><ele>38.666666666666664</ele><time>2026-04-11T06:25:53.019Z</time></trkpt><trkpt lat="40.1914103" lon="18.0645001"><ele>38.33333333333333</ele><time>2026-04-11T06:25:54.012Z</time></trkpt><trkpt lat="40.1913457" lon="18.0642558"><ele>38.0</ele><time>2026-04-11T06:25:55.051Z</time></trkpt><trkpt lat="40.1912792" lon="18.0640035"><ele>38.0</ele><time>2026-04-11T06:25:56.032Z</time></trkpt><trkpt lat="40.1912117" lon="18.0637578"><ele>38.0</ele><time>2026-04-11T06:25:57.015Z</time></trkpt><trkpt lat="40.1911485" lon="18.0635119"><ele>38.0</ele><time>2026-04-11T06:25:58.024Z</time></trkpt><trkpt lat="40.1910879" lon="18.0632663"><ele>37.0</ele><time>2026-04-11T06:25:59.032Z</time></trkpt><trkpt lat="40.1910255" lon="18.0630273"><ele>36.0</ele><time>2026-04-11T06:26:00.028Z</time></trkpt><trkpt lat="40.1909829" lon="18.0628008"><ele>35.0</ele><time>2026-04-11T06:26:01.03Z</time></trkpt><trkpt lat="40.1909319" lon="18.0625713"><ele>35.0</ele><time>2026-04-11T06:26:02.051Z</time></trkpt><trkpt lat="40.1908923" lon="18.0623528"><ele>35.0</ele><time>2026-04-11T06:26:03.026Z</time></trkpt><trkpt lat="40.1908563" lon="18.0621318"><ele>35.0</ele><time>2026-04-11T06:26:04.016Z</time></trkpt><trkpt lat="40.1908226" lon="18.0619291"><ele>35.0</ele><time>2026-04-11T06:26:05.02Z</time></trkpt><trkpt lat="40.1907906" lon="18.0617324"><ele>35.0</ele><time>2026-04-11T06:26:06.053Z</time></trkpt><trkpt lat="40.1907669" lon="18.0615365"><ele>35.0</ele><time>2026-04-11T06:26:07.051Z</time></trkpt><trkpt lat="40.1907538" lon="18.0613513"><ele>35.0</ele><time>2026-04-11T06:26:08.052Z</time></trkpt><trkpt lat="40.1907269" lon="18.0611756"><ele>35.0</ele><time>2026-04-11T06:26:09.029Z</time></trkpt><trkpt lat="40.1906919" lon="18.0610256"><ele>35.0</ele><time>2026-04-11T06:26:10.054Z</time></trkpt><trkpt lat="40.1906836" lon="18.0608729"><ele>35.0</ele><time>2026-04-11T06:26:11.054Z</time></trkpt><trkpt lat="40.190646" lon="18.0607183"><ele>35.0</ele><time>2026-04-11T06:26:12.053Z</time></trkpt><trkpt lat="40.1906062" lon="18.0606018"><ele>35.0</ele><time>2026-04-11T06:26:13.054Z</time></trkpt><trkpt lat="40.1905713" lon="18.0604965"><ele>35.0</ele><time>2026-04-11T06:26:14.057Z</time></trkpt><trkpt lat="40.1905549" lon="18.0603785"><ele>35.0</ele><time>2026-04-11T06:26:15.026Z</time></trkpt><trkpt lat="40.1905722" lon="18.0602463"><ele>35.0</ele><time>2026-04-11T06:26:16.024Z</time></trkpt><trkpt lat="40.190577" lon="18.0601166"><ele>35.0</ele><time>2026-04-11T06:26:17.013Z</time></trkpt><trkpt lat="40.1905541" lon="18.059961"><ele>35.0</ele><time>2026-04-11T06:26:18.026Z</time></trkpt><trkpt lat="40.1905559" lon="18.0597988"><ele>35.0</ele><time>2026-04-11T06:26:19.026Z</time></trkpt><trkpt lat="40.1905713" lon="18.0596423"><ele>35.0</ele><time>2026-04-11T06:26:20.018Z</time></trkpt><trkpt lat="40.1905942" lon="18.0594747"><ele>35.0</ele><time>2026-04-11T06:26:21.015Z</time></trkpt><trkpt lat="40.1906252" lon="18.0592601"><ele>36.0</ele><time>2026-04-11T06:26:22.018Z</time></trkpt><trkpt lat="40.1906479" lon="18.059059"><ele>37.0</ele><time>2026-04-11T06:26:23.048Z</time></trkpt><trkpt lat="40.1906388" lon="18.0588253"><ele>38.0</ele><time>2026-04-11T06:26:24.053Z</time></trkpt><trkpt lat="40.19063" lon="18.0585962"><ele>38.0</ele><time>2026-04-11T06:26:25.029Z</time></trkpt><trkpt lat="40.1906205" lon="18.0583658"><ele>38.0</ele><time>2026-04-11T06:26:26.016Z</time></trkpt><trkpt lat="40.1906177" lon="18.0581054"><ele>38.0</ele><time>2026-04-11T06:26:27.026Z</time></trkpt><trkpt lat="40.1906099" lon="18.0578504"><ele>37.666666666666664</ele><time>2026-04-11T06:26:28.06Z</time></trkpt><trkpt lat="40.1906035" lon="18.0575931"><ele>37.333333333333336</ele><time>2026-04-11T06:26:29.017Z</time></trkpt><trkpt lat="40.190597" lon="18.0573498"><ele>37.0</ele><time>2026-04-11T06:26:30.047Z</time></trkpt><trkpt lat="40.1905878" lon="18.0570907"><ele>36.0</ele><time>2026-04-11T06:26:31.055Z</time></trkpt><trkpt lat="40.1905854" lon="18.0568444"><ele>35.0</ele><time>2026-04-11T06:26:32.024Z</time></trkpt><trkpt lat="40.1905795" lon="18.0566062"><ele>34.0</ele><time>2026-04-11T06:26:33.052Z</time></trkpt><trkpt lat="40.190571" lon="18.0563671"><ele>33.66666666666667</ele><time>2026-04-11T06:26:34.012Z</time></trkpt><trkpt lat="40.190559" lon="18.0561333"><ele>33.333333333333336</ele><time>2026-04-11T06:26:35.043Z</time></trkpt><trkpt lat="40.1905526" lon="18.0558842"><ele>33.0</ele><time>2026-04-11T06:26:36.051Z</time></trkpt><trkpt lat="40.1905449" lon="18.0556407"><ele>33.666666666666664</ele><time>2026-04-11T06:26:37.013Z</time></trkpt><trkpt lat="40.1905425" lon="18.0553885"><ele>34.33333333333333</ele><time>2026-04-11T06:26:38.025Z</time></trkpt><trkpt lat="40.1905337" lon="18.0551425"><ele>35.0</ele><time>2026-04-11T06:26:39.018Z</time></trkpt><trkpt lat="40.1905325" lon="18.054887"><ele>35.0</ele><time>2026-04-11T06:26:40.028Z</time></trkpt><trkpt lat="40.1905251" lon="18.0546375"><ele>35.0</ele><time>2026-04-11T06:26:41.015Z</time></trkpt><trkpt lat="40.190505" lon="18.0543876"><ele>35.0</ele><time>2026-04-11T06:26:42.027Z</time></trkpt><trkpt lat="40.1904982" lon="18.0541308"><ele>35.0</ele><time>2026-04-11T06:26:43.02Z</time></trkpt><trkpt lat="40.1904914" lon="18.0538603"><ele>35.0</ele><time>2026-04-11T06:26:44.014Z</time></trkpt><trkpt lat="40.1904844" lon="18.0535926"><ele>35.0</ele><time>2026-04-11T06:26:45.016Z</time></trkpt><trkpt lat="40.1904778" lon="18.0533164"><ele>35.0</ele><time>2026-04-11T06:26:46.023Z</time></trkpt><trkpt lat="40.1904707" lon="18.053035"><ele>35.0</ele><time>2026-04-11T06:26:47.03Z</time></trkpt><trkpt lat="40.1904626" lon="18.0527572"><ele>35.0</ele><time>2026-04-11T06:26:48.014Z</time></trkpt><trkpt lat="40.19045" lon="18.0524807"><ele>34.33333333333333</ele><time>2026-04-11T06:26:49.017Z</time></trkpt><trkpt lat="40.1904411" lon="18.0521924"><ele>33.666666666666664</ele><time>2026-04-11T06:26:50.023Z</time></trkpt><trkpt lat="40.1904418" lon="18.0519218"><ele>33.0</ele><time>2026-04-11T06:26:51.023Z</time></trkpt><trkpt lat="40.1904327" lon="18.0516517"><ele>33.333333333333336</ele><time>2026-04-11T06:26:52.011Z</time></trkpt><trkpt lat="40.1904148" lon="18.0513979"><ele>33.66666666666667</ele><time>2026-04-11T06:26:53.014Z</time></trkpt><trkpt lat="40.1903824" lon="18.0511561"><ele>34.0</ele><time>2026-04-11T06:26:54.056Z</time></trkpt><trkpt lat="40.1903542" lon="18.0509093"><ele>34.66666666666667</ele><time>2026-04-11T06:26:55.028Z</time></trkpt><trkpt lat="40.1903156" lon="18.0506935"><ele>35.333333333333336</ele><time>2026-04-11T06:26:56.028Z</time></trkpt><trkpt lat="40.1902776" lon="18.0504643"><ele>36.0</ele><time>2026-04-11T06:26:57.031Z</time></trkpt><trkpt lat="40.1902375" lon="18.0502443"><ele>36.0</ele><time>2026-04-11T06:26:58.057Z</time></trkpt><trkpt lat="40.1901862" lon="18.0500409"><ele>36.0</ele><time>2026-04-11T06:26:59.029Z</time></trkpt><trkpt lat="40.1901376" lon="18.0498465"><ele>36.0</ele><time>2026-04-11T06:27:00.054Z</time></trkpt><trkpt lat="40.1900925" lon="18.0496764"><ele>36.0</ele><time>2026-04-11T06:27:01.019Z</time></trkpt><trkpt lat="40.1900432" lon="18.0495191"><ele>36.0</ele><time>2026-04-11T06:27:02.018Z</time></trkpt><trkpt lat="40.1900004" lon="18.0493794"><ele>36.0</ele><time>2026-04-11T06:27:03.021Z</time></trkpt><trkpt lat="40.1899791" lon="18.0492643"><ele>36.0</ele><time>2026-04-11T06:27:04.021Z</time></trkpt><trkpt lat="40.1899543" lon="18.0491406"><ele>36.0</ele><time>2026-04-11T06:27:05.011Z</time></trkpt><trkpt lat="40.1899963" lon="18.0490337"><ele>36.0</ele><time>2026-04-11T06:27:06.049Z</time></trkpt><trkpt lat="40.1900337" lon="18.0489362"><ele>36.0</ele><time>2026-04-11T06:27:07.025Z</time></trkpt><trkpt lat="40.1900724" lon="18.0488477"><ele>36.0</ele><time>2026-04-11T06:27:08.01Z</time></trkpt><trkpt lat="40.1901269" lon="18.0487866"><ele>36.0</ele><time>2026-04-11T06:27:09.022Z</time></trkpt><trkpt lat="40.190154" lon="18.0487022"><ele>36.0</ele><time>2026-04-11T06:27:10.057Z</time></trkpt><trkpt lat="40.1901762" lon="18.0486077"><ele>36.0</ele><time>2026-04-11T06:27:11.012Z</time></trkpt><trkpt lat="40.1901456" lon="18.0485102"><ele>36.0</ele><time>2026-04-11T06:27:12.05Z</time></trkpt><trkpt lat="40.1900963" lon="18.0484251"><ele>36.0</ele><time>2026-04-11T06:27:13.029Z</time></trkpt><trkpt lat="40.1900272" lon="18.048373"><ele>36.0</ele><time>2026-04-11T06:27:14.036Z</time></trkpt><trkpt lat="40.1899587" lon="18.0483198"><ele>36.0</ele><time>2026-04-11T06:27:15.014Z</time></trkpt><trkpt lat="40.1898491" lon="18.0483439"><ele>36.0</ele><time>2026-04-11T06:27:16.016Z</time></trkpt><trkpt lat="40.18976" lon="18.048333"><ele>36.0</ele><time>2026-04-11T06:27:17.02Z</time></trkpt><trkpt lat="40.1896665" lon="18.0483298"><ele>35.5</ele><time>2026-04-11T06:27:18.01Z</time></trkpt><trkpt lat="40.1895785" lon="18.0482344"><ele>35.0</ele><time>2026-04-11T06:27:19.05Z</time></trkpt><trkpt lat="40.1894951" lon="18.0481233"><ele>34.5</ele><time>2026-04-11T06:27:20.037Z</time></trkpt><trkpt lat="40.18941" lon="18.0480111"><ele>34.0</ele><time>2026-04-11T06:27:21.023Z</time></trkpt><trkpt lat="40.1893389" lon="18.0478336"><ele>34.0</ele><time>2026-04-11T06:27:22.023Z</time></trkpt><trkpt lat="40.1892513" lon="18.0476871"><ele>34.0</ele><time>2026-04-11T06:27:23.013Z</time></trkpt><trkpt lat="40.1891398" lon="18.0474952"><ele>34.0</ele><time>2026-04-11T06:27:24.046Z</time></trkpt><trkpt lat="40.1890279" lon="18.0473107"><ele>34.66666666666667</ele><time>2026-04-11T06:27:25.05Z</time></trkpt><trkpt lat="40.1889161" lon="18.0471223"><ele>35.333333333333336</ele><time>2026-04-11T06:27:26.009Z</time></trkpt><trkpt lat="40.1887612" lon="18.0469072"><ele>36.0</ele><time>2026-04-11T06:27:27.02Z</time></trkpt><trkpt lat="40.1886314" lon="18.0466956"><ele>35.666666666666664</ele><time>2026-04-11T06:27:28.013Z</time></trkpt><trkpt lat="40.1884981" lon="18.0464694"><ele>35.33333333333333</ele><time>2026-04-11T06:27:29.022Z</time></trkpt><trkpt lat="40.1883631" lon="18.0462449"><ele>35.0</ele><time>2026-04-11T06:27:30.025Z</time></trkpt><trkpt lat="40.1882266" lon="18.0460264"><ele>34.666666666666664</ele><time>2026-04-11T06:27:31.049Z</time></trkpt><trkpt lat="40.1880934" lon="18.0457955"><ele>34.333333333333336</ele><time>2026-04-11T06:27:32.021Z</time></trkpt><trkpt lat="40.1879599" lon="18.0455656"><ele>34.0</ele><time>2026-04-11T06:27:33.011Z</time></trkpt><trkpt lat="40.1878471" lon="18.0453515"><ele>34.0</ele><time>2026-04-11T06:27:34.014Z</time></trkpt><trkpt lat="40.1877264" lon="18.0451403"><ele>34.0</ele><time>2026-04-11T06:27:35.055Z</time></trkpt><trkpt lat="40.1876105" lon="18.0449246"><ele>34.0</ele><time>2026-04-11T06:27:36.026Z</time></trkpt><trkpt lat="40.1874986" lon="18.0447249"><ele>34.0</ele><time>2026-04-11T06:27:37.056Z</time></trkpt><trkpt lat="40.1873868" lon="18.0445223"><ele>34.0</ele><time>2026-04-11T06:27:38.06Z</time></trkpt><trkpt lat="40.1872876" lon="18.0443357"><ele>34.0</ele><time>2026-04-11T06:27:39.051Z</time></trkpt><trkpt lat="40.1871912" lon="18.0441431"><ele>35.0</ele><time>2026-04-11T06:27:40.046Z</time></trkpt><trkpt lat="40.1870957" lon="18.0439587"><ele>36.0</ele><time>2026-04-11T06:27:41.012Z</time></trkpt><trkpt lat="40.187007" lon="18.043771"><ele>37.0</ele><time>2026-04-11T06:27:42.018Z</time></trkpt><trkpt lat="40.1869076" lon="18.0435833"><ele>37.0</ele><time>2026-04-11T06:27:43.016Z</time></trkpt><trkpt lat="40.1867866" lon="18.0433778"><ele>37.0</ele><time>2026-04-11T06:27:44.025Z</time></trkpt><trkpt lat="40.1866877" lon="18.0431448"><ele>37.0</ele><time>2026-04-11T06:27:45.022Z</time></trkpt><trkpt lat="40.1865951" lon="18.0429122"><ele>36.66666666666667</ele><time>2026-04-11T06:27:46.031Z</time></trkpt><trkpt lat="40.1865016" lon="18.0426731"><ele>36.333333333333336</ele><time>2026-04-11T06:27:47.019Z</time></trkpt><trkpt lat="40.1864185" lon="18.042469"><ele>36.0</ele><time>2026-04-11T06:27:48.023Z</time></trkpt><trkpt lat="40.1863424" lon="18.042268"><ele>36.0</ele><time>2026-04-11T06:27:49.031Z</time></trkpt><trkpt lat="40.186266" lon="18.0420873"><ele>36.0</ele><time>2026-04-11T06:27:50.028Z</time></trkpt><trkpt lat="40.1861906" lon="18.0419066"><ele>36.0</ele><time>2026-04-11T06:27:51.032Z</time></trkpt><trkpt lat="40.1861189" lon="18.0417182"><ele>35.666666666666664</ele><time>2026-04-11T06:27:52.03Z</time></trkpt><trkpt lat="40.186045" lon="18.0415431"><ele>35.33333333333333</ele><time>2026-04-11T06:27:53.024Z</time></trkpt><trkpt lat="40.1859769" lon="18.0413566"><ele>35.0</ele><time>2026-04-11T06:27:54.027Z</time></trkpt><trkpt lat="40.185898" lon="18.0411714"><ele>35.0</ele><time>2026-04-11T06:27:55.027Z</time></trkpt><trkpt lat="40.1858097" lon="18.040982"><ele>35.0</ele><time>2026-04-11T06:27:56.026Z</time></trkpt><trkpt lat="40.1857372" lon="18.0407846"><ele>35.0</ele><time>2026-04-11T06:27:57.027Z</time></trkpt><trkpt lat="40.1856615" lon="18.0405806"><ele>35.666666666666664</ele><time>2026-04-11T06:27:58.026Z</time></trkpt><trkpt lat="40.1855849" lon="18.0403772"><ele>36.333333333333336</ele><time>2026-04-11T06:27:59.026Z</time></trkpt><trkpt lat="40.1855135" lon="18.0401714"><ele>37.0</ele><time>2026-04-11T06:28:00.057Z</time></trkpt><trkpt lat="40.1854498" lon="18.0399743"><ele>36.5</ele><time>2026-04-11T06:28:01.05Z</time></trkpt><trkpt lat="40.1853894" lon="18.0398152"><ele>36.0</ele><time>2026-04-11T06:28:02.044Z</time></trkpt><trkpt lat="40.1853287" lon="18.0396702"><ele>35.5</ele><time>2026-04-11T06:28:03.045Z</time></trkpt><trkpt lat="40.1852764" lon="18.0395348"><ele>35.0</ele><time>2026-04-11T06:28:04.046Z</time></trkpt><trkpt lat="40.1852298" lon="18.0394256"><ele>35.0</ele><time>2026-04-11T06:28:05.05Z</time></trkpt><trkpt lat="40.1851999" lon="18.039328"><ele>35.0</ele><time>2026-04-11T06:28:06.046Z</time></trkpt><trkpt lat="40.1851805" lon="18.0392343"><ele>35.0</ele><time>2026-04-11T06:28:07.029Z</time></trkpt><trkpt lat="40.1851609" lon="18.0391425"><ele>35.0</ele><time>2026-04-11T06:28:08.017Z</time></trkpt><trkpt lat="40.1852115" lon="18.0390156"><ele>35.0</ele><time>2026-04-11T06:28:10.059Z</time></trkpt><trkpt lat="40.1852782" lon="18.0389887"><ele>35.0</ele><time>2026-04-11T06:28:11.023Z</time></trkpt><trkpt lat="40.1854388" lon="18.0389798"><ele>34.75</ele><time>2026-04-11T06:28:13.045Z</time></trkpt><trkpt lat="40.1855379" lon="18.038975"><ele>34.5</ele><time>2026-04-11T06:28:14.025Z</time></trkpt><trkpt lat="40.1856532" lon="18.0389932"><ele>34.25</ele><time>2026-04-11T06:28:15.024Z</time></trkpt><trkpt lat="40.1857696" lon="18.0390087"><ele>34.0</ele><time>2026-04-11T06:28:16.011Z</time></trkpt><trkpt lat="40.1859077" lon="18.0390123"><ele>33.25</ele><time>2026-04-11T06:28:17.047Z</time></trkpt><trkpt lat="40.1860334" lon="18.0390226"><ele>32.5</ele><time>2026-04-11T06:28:18.028Z</time></trkpt><trkpt lat="40.1861687" lon="18.0390376"><ele>31.75</ele><time>2026-04-11T06:28:19.014Z</time></trkpt><trkpt lat="40.1863141" lon="18.0390369"><ele>31.0</ele><time>2026-04-11T06:28:20.024Z</time></trkpt><trkpt lat="40.1864627" lon="18.0390586"><ele>31.0</ele><time>2026-04-11T06:28:21.031Z</time></trkpt><trkpt lat="40.1866046" lon="18.0390769"><ele>31.0</ele><time>2026-04-11T06:28:22.029Z</time></trkpt><trkpt lat="40.1867464" lon="18.0390952"><ele>31.0</ele><time>2026-04-11T06:28:23.03Z</time></trkpt><trkpt lat="40.1868929" lon="18.0391136"><ele>31.0</ele><time>2026-04-11T06:28:24.014Z</time></trkpt><trkpt lat="40.1870329" lon="18.0391273"><ele>31.25</ele><time>2026-04-11T06:28:25.019Z</time></trkpt><trkpt lat="40.1871786" lon="18.0391601"><ele>31.5</ele><time>2026-04-11T06:28:26.029Z</time></trkpt><trkpt lat="40.1873169" lon="18.0391805"><ele>31.75</ele><time>2026-04-11T06:28:27.024Z</time></trkpt><trkpt lat="40.187458" lon="18.0391939"><ele>32.0</ele><time>2026-04-11T06:28:28.012Z</time></trkpt><trkpt lat="40.1875924" lon="18.0392033"><ele>32.0</ele><time>2026-04-11T06:28:29.019Z</time></trkpt><trkpt lat="40.1877339" lon="18.0392184"><ele>32.0</ele><time>2026-04-11T06:28:30.012Z</time></trkpt><trkpt lat="40.1878924" lon="18.0392421"><ele>32.0</ele><time>2026-04-11T06:28:31.05Z</time></trkpt><trkpt lat="40.1880373" lon="18.0392605"><ele>32.0</ele><time>2026-04-11T06:28:32.02Z</time></trkpt><trkpt lat="40.1881775" lon="18.0392811"><ele>31.75</ele><time>2026-04-11T06:28:33.047Z</time></trkpt><trkpt lat="40.1883098" lon="18.039292"><ele>31.5</ele><time>2026-04-11T06:28:34.051Z</time></trkpt><trkpt lat="40.1884411" lon="18.0393182"><ele>31.25</ele><time>2026-04-11T06:28:35.019Z</time></trkpt><trkpt lat="40.1885485" lon="18.0393315"><ele>31.0</ele><time>2026-04-11T06:28:36.048Z</time></trkpt><trkpt lat="40.188656" lon="18.0393584"><ele>31.0</ele><time>2026-04-11T06:28:37.02Z</time></trkpt><trkpt lat="40.1887626" lon="18.0393855"><ele>31.0</ele><time>2026-04-11T06:28:38.013Z</time></trkpt><trkpt lat="40.1888472" lon="18.0394483"><ele>31.0</ele><time>2026-04-11T06:28:39.023Z</time></trkpt><trkpt lat="40.1889443" lon="18.0394923"><ele>31.0</ele><time>2026-04-11T06:28:40.025Z</time></trkpt><trkpt lat="40.1890313" lon="18.0395461"><ele>31.0</ele><time>2026-04-11T06:28:41.01Z</time></trkpt><trkpt lat="40.1891145" lon="18.0396102"><ele>31.000000000000004</ele><time>2026-04-11T06:28:42.028Z</time></trkpt><trkpt lat="40.1892002" lon="18.0396669"><ele>31.0</ele><time>2026-04-11T06:28:43.021Z</time></trkpt><trkpt lat="40.1892776" lon="18.0396807"><ele>31.0</ele><time>2026-04-11T06:28:44.027Z</time></trkpt><trkpt lat="40.1893609" lon="18.0396704"><ele>31.0</ele><time>2026-04-11T06:28:45.031Z</time></trkpt><trkpt lat="40.1894309" lon="18.0396158"><ele>31.000000000000004</ele><time>2026-04-11T06:28:46.024Z</time></trkpt><trkpt lat="40.1894743" lon="18.0395391"><ele>31.0</ele><time>2026-04-11T06:28:47.03Z</time></trkpt><trkpt lat="40.1895241" lon="18.0394306"><ele>31.0</ele><time>2026-04-11T06:28:48.024Z</time></trkpt><trkpt lat="40.1895393" lon="18.0393274"><ele>31.0</ele><time>2026-04-11T06:28:49.056Z</time></trkpt><trkpt lat="40.1895527" lon="18.0391825"><ele>31.0</ele><time>2026-04-11T06:28:50.052Z</time></trkpt><trkpt lat="40.1894643" lon="18.0390567"><ele>31.0</ele><time>2026-04-11T06:28:51.021Z</time></trkpt><trkpt lat="40.1894024" lon="18.0389203"><ele>31.0</ele><time>2026-04-11T06:28:52.02Z</time></trkpt><trkpt lat="40.1893491" lon="18.0387638"><ele>31.25</ele><time>2026-04-11T06:28:53.017Z</time></trkpt><trkpt lat="40.1892932" lon="18.0386219"><ele>31.5</ele><time>2026-04-11T06:28:54.01Z</time></trkpt><trkpt lat="40.1892811" lon="18.0384294"><ele>31.75</ele><time>2026-04-11T06:28:55.025Z</time></trkpt><trkpt lat="40.1892633" lon="18.038254"><ele>32.0</ele><time>2026-04-11T06:28:56.056Z</time></trkpt><trkpt lat="40.1892338" lon="18.0380706"><ele>32.33333333333333</ele><time>2026-04-11T06:28:57.047Z</time></trkpt><trkpt lat="40.1892251" lon="18.0378719"><ele>32.666666666666664</ele><time>2026-04-11T06:28:58.028Z</time></trkpt><trkpt lat="40.1892124" lon="18.0376686"><ele>33.0</ele><time>2026-04-11T06:28:59.027Z</time></trkpt><trkpt lat="40.1891984" lon="18.0374568"><ele>33.333333333333336</ele><time>2026-04-11T06:29:00.015Z</time></trkpt><trkpt lat="40.1891655" lon="18.0372345"><ele>33.66666666666667</ele><time>2026-04-11T06:29:01.025Z</time></trkpt><trkpt lat="40.1891472" lon="18.0370083"><ele>34.0</ele><time>2026-04-11T06:29:02.025Z</time></trkpt><trkpt lat="40.1891364" lon="18.0367644"><ele>34.0</ele><time>2026-04-11T06:29:03.024Z</time></trkpt><trkpt lat="40.1891075" lon="18.0365277"><ele>34.0</ele><time>2026-04-11T06:29:04.023Z</time></trkpt><trkpt lat="40.1890881" lon="18.0362863"><ele>34.0</ele><time>2026-04-11T06:29:05.022Z</time></trkpt><trkpt lat="40.1890672" lon="18.036043"><ele>34.0</ele><time>2026-04-11T06:29:06.019Z</time></trkpt><trkpt lat="40.1890493" lon="18.0358106"><ele>34.0</ele><time>2026-04-11T06:29:07.024Z</time></trkpt><trkpt lat="40.1890302" lon="18.0355654"><ele>34.0</ele><time>2026-04-11T06:29:08.052Z</time></trkpt><trkpt lat="40.1890111" lon="18.0353171"><ele>33.0</ele><time>2026-04-11T06:29:09.011Z</time></trkpt><trkpt lat="40.1889816" lon="18.0350643"><ele>32.0</ele><time>2026-04-11T06:29:10.045Z</time></trkpt><trkpt lat="40.1889523" lon="18.0348189"><ele>31.0</ele><time>2026-04-11T06:29:11.021Z</time></trkpt><trkpt lat="40.1889342" lon="18.0345703"><ele>31.0</ele><time>2026-04-11T06:29:12.026Z</time></trkpt><trkpt lat="40.1889136" lon="18.0343257"><ele>31.0</ele><time>2026-04-11T06:29:13.014Z</time></trkpt><trkpt lat="40.1888962" lon="18.0341168"><ele>31.0</ele><time>2026-04-11T06:29:14.025Z</time></trkpt><trkpt lat="40.1888912" lon="18.0338856"><ele>31.0</ele><time>2026-04-11T06:29:15.034Z</time></trkpt><trkpt lat="40.1888747" lon="18.0336774"><ele>31.0</ele><time>2026-04-11T06:29:16.016Z</time></trkpt><trkpt lat="40.1888459" lon="18.0335031"><ele>31.0</ele><time>2026-04-11T06:29:17.023Z</time></trkpt><trkpt lat="40.1888284" lon="18.0333117"><ele>31.0</ele><time>2026-04-11T06:29:18.018Z</time></trkpt><trkpt lat="40.1888193" lon="18.0331452"><ele>31.25</ele><time>2026-04-11T06:29:19.024Z</time></trkpt><trkpt lat="40.1888093" lon="18.0329784"><ele>31.5</ele><time>2026-04-11T06:29:20.036Z</time></trkpt><trkpt lat="40.1887963" lon="18.0328111"><ele>31.75</ele><time>2026-04-11T06:29:21.022Z</time></trkpt><trkpt lat="40.1888054" lon="18.0326357"><ele>32.0</ele><time>2026-04-11T06:29:22.052Z</time></trkpt><trkpt lat="40.1888104" lon="18.0324833"><ele>31.75</ele><time>2026-04-11T06:29:23.027Z</time></trkpt><trkpt lat="40.1888148" lon="18.0323245"><ele>31.5</ele><time>2026-04-11T06:29:24.01Z</time></trkpt><trkpt lat="40.1887832" lon="18.0321842"><ele>31.25</ele><time>2026-04-11T06:29:25.045Z</time></trkpt><trkpt lat="40.1887344" lon="18.0320366"><ele>31.0</ele><time>2026-04-11T06:29:26.028Z</time></trkpt><trkpt lat="40.1886575" lon="18.0319163"><ele>31.0</ele><time>2026-04-11T06:29:27.017Z</time></trkpt><trkpt lat="40.1885977" lon="18.0317679"><ele>31.0</ele><time>2026-04-11T06:29:28.047Z</time></trkpt><trkpt lat="40.1885679" lon="18.0316136"><ele>31.0</ele><time>2026-04-11T06:29:29.019Z</time></trkpt><trkpt lat="40.1885402" lon="18.0314452"><ele>31.0</ele><time>2026-04-11T06:29:30.012Z</time></trkpt><trkpt lat="40.1885801" lon="18.0312477"><ele>31.0</ele><time>2026-04-11T06:29:31.05Z</time></trkpt><trkpt lat="40.188589" lon="18.031033"><ele>31.0</ele><time>2026-04-11T06:29:32.022Z</time></trkpt><trkpt lat="40.1886095" lon="18.0308182"><ele>31.0</ele><time>2026-04-11T06:29:33.055Z</time></trkpt><trkpt lat="40.1886171" lon="18.0305954"><ele>31.0</ele><time>2026-04-11T06:29:34.014Z</time></trkpt><trkpt lat="40.1886202" lon="18.0303402"><ele>31.0</ele><time>2026-04-11T06:29:35.025Z</time></trkpt><trkpt lat="40.1886195" lon="18.0300817"><ele>31.0</ele><time>2026-04-11T06:29:36.03Z</time></trkpt><trkpt lat="40.1886252" lon="18.029824"><ele>30.333333333333336</ele><time>2026-04-11T06:29:37.025Z</time></trkpt><trkpt lat="40.1886282" lon="18.029568"><ele>29.666666666666664</ele><time>2026-04-11T06:29:38.049Z</time></trkpt><trkpt lat="40.1886356" lon="18.029312"><ele>29.0</ele><time>2026-04-11T06:29:39.014Z</time></trkpt><trkpt lat="40.1886408" lon="18.0290644"><ele>29.0</ele><time>2026-04-11T06:29:40.046Z</time></trkpt><trkpt lat="40.1886479" lon="18.028815"><ele>29.0</ele><time>2026-04-11T06:29:41.012Z</time></trkpt><trkpt lat="40.1886565" lon="18.0285959"><ele>29.0</ele><time>2026-04-11T06:29:42.014Z</time></trkpt><trkpt lat="40.1886589" lon="18.0283769"><ele>29.5</ele><time>2026-04-11T06:29:43.014Z</time></trkpt><trkpt lat="40.1886569" lon="18.0281966"><ele>30.0</ele><time>2026-04-11T06:29:44.023Z</time></trkpt><trkpt lat="40.1886517" lon="18.0280024"><ele>30.5</ele><time>2026-04-11T06:29:45.025Z</time></trkpt><trkpt lat="40.188665" lon="18.0278182"><ele>31.0</ele><time>2026-04-11T06:29:46.055Z</time></trkpt><trkpt lat="40.1886696" lon="18.0276454"><ele>31.0</ele><time>2026-04-11T06:29:47.023Z</time></trkpt><trkpt lat="40.1886583" lon="18.0275146"><ele>31.0</ele><time>2026-04-11T06:29:48.057Z</time></trkpt><trkpt lat="40.1886579" lon="18.0274004"><ele>31.0</ele><time>2026-04-11T06:29:49.026Z</time></trkpt><trkpt lat="40.1886551" lon="18.0273134"><ele>31.0</ele><time>2026-04-11T06:29:50.024Z</time></trkpt><trkpt lat="40.1886348" lon="18.0271988"><ele>31.0</ele><time>2026-04-11T06:29:53.012Z</time></trkpt><trkpt lat="40.1885814" lon="18.0270445"><ele>30.8</ele><time>2026-04-11T06:29:57.021Z</time></trkpt><trkpt lat="40.1885583" lon="18.0269491"><ele>30.6</ele><time>2026-04-11T06:29:58.051Z</time></trkpt><trkpt lat="40.1885024" lon="18.0268447"><ele>30.4</ele><time>2026-04-11T06:29:59.049Z</time></trkpt><trkpt lat="40.1884335" lon="18.0267453"><ele>30.2</ele><time>2026-04-11T06:30:00.029Z</time></trkpt><trkpt lat="40.1883579" lon="18.0266466"><ele>30.0</ele><time>2026-04-11T06:30:01.026Z</time></trkpt><trkpt lat="40.1882765" lon="18.026544"><ele>30.0</ele><time>2026-04-11T06:30:02.015Z</time></trkpt><trkpt lat="40.1882227" lon="18.0263761"><ele>30.0</ele><time>2026-04-11T06:30:03.015Z</time></trkpt><trkpt lat="40.1881609" lon="18.0262197"><ele>30.0</ele><time>2026-04-11T06:30:04.014Z</time></trkpt><trkpt lat="40.1881329" lon="18.0260114"><ele>30.0</ele><time>2026-04-11T06:30:05.033Z</time></trkpt><trkpt lat="40.1880782" lon="18.0258105"><ele>29.666666666666664</ele><time>2026-04-11T06:30:06.055Z</time></trkpt><trkpt lat="40.1880045" lon="18.0255989"><ele>29.333333333333332</ele><time>2026-04-11T06:30:07.048Z</time></trkpt><trkpt lat="40.1879195" lon="18.0253779"><ele>29.0</ele><time>2026-04-11T06:30:08.052Z</time></trkpt><trkpt lat="40.1878225" lon="18.0251531"><ele>28.666666666666664</ele><time>2026-04-11T06:30:09.053Z</time></trkpt><trkpt lat="40.1877107" lon="18.0249286"><ele>28.333333333333336</ele><time>2026-04-11T06:30:10.023Z</time></trkpt><trkpt lat="40.1875738" lon="18.0247101"><ele>28.0</ele><time>2026-04-11T06:30:11.053Z</time></trkpt><trkpt lat="40.1874356" lon="18.0244957"><ele>28.0</ele><time>2026-04-11T06:30:12.012Z</time></trkpt><trkpt lat="40.1872719" lon="18.0242796"><ele>28.0</ele><time>2026-04-11T06:30:13.021Z</time></trkpt><trkpt lat="40.1871088" lon="18.0240833"><ele>30.0</ele><time>2026-04-11T06:30:14.029Z</time></trkpt><trkpt lat="40.1869399" lon="18.0238744"><ele>32.0</ele><time>2026-04-11T06:30:15.028Z</time></trkpt><trkpt lat="40.186782" lon="18.0236683"><ele>32.0</ele><time>2026-04-11T06:30:16.012Z</time></trkpt><trkpt lat="40.1866455" lon="18.0234775"><ele>32.0</ele><time>2026-04-11T06:30:17.027Z</time></trkpt><trkpt lat="40.1865103" lon="18.023286"><ele>32.0</ele><time>2026-04-11T06:30:18.032Z</time></trkpt><trkpt lat="40.186362" lon="18.0231006"><ele>31.333333333333332</ele><time>2026-04-11T06:30:19.023Z</time></trkpt><trkpt lat="40.1862292" lon="18.0229283"><ele>30.666666666666664</ele><time>2026-04-11T06:30:20.011Z</time></trkpt><trkpt lat="40.1861098" lon="18.0227776"><ele>30.0</ele><time>2026-04-11T06:30:21.023Z</time></trkpt><trkpt lat="40.1859983" lon="18.022633"><ele>30.0</ele><time>2026-04-11T06:30:22.034Z</time></trkpt><trkpt lat="40.1858973" lon="18.022504"><ele>30.0</ele><time>2026-04-11T06:30:23.031Z</time></trkpt><trkpt lat="40.1858005" lon="18.022373"><ele>30.0</ele><time>2026-04-11T06:30:24.027Z</time></trkpt><trkpt lat="40.1857163" lon="18.0222508"><ele>30.0</ele><time>2026-04-11T06:30:25.027Z</time></trkpt><trkpt lat="40.1856444" lon="18.0221486"><ele>30.166666666666668</ele><time>2026-04-11T06:30:26.056Z</time></trkpt><trkpt lat="40.1855789" lon="18.0220464"><ele>30.333333333333336</ele><time>2026-04-11T06:30:27.019Z</time></trkpt><trkpt lat="40.1855706" lon="18.0219355"><ele>30.5</ele><time>2026-04-11T06:30:28.096Z</time></trkpt><trkpt lat="40.1855531" lon="18.0218324"><ele>30.666666666666668</ele><time>2026-04-11T06:30:29.06Z</time></trkpt><trkpt lat="40.1855553" lon="18.0217263"><ele>30.833333333333336</ele><time>2026-04-11T06:30:30.051Z</time></trkpt><trkpt lat="40.1855571" lon="18.0216066"><ele>31.0</ele><time>2026-04-11T06:30:31.013Z</time></trkpt><trkpt lat="40.1856147" lon="18.0214867"><ele>31.4</ele><time>2026-04-11T06:30:32.022Z</time></trkpt><trkpt lat="40.1856559" lon="18.0213698"><ele>31.8</ele><time>2026-04-11T06:30:33.013Z</time></trkpt><trkpt lat="40.1857209" lon="18.0212845"><ele>32.199999999999996</ele><time>2026-04-11T06:30:34.026Z</time></trkpt><trkpt lat="40.1857947" lon="18.0211717"><ele>32.6</ele><time>2026-04-11T06:30:35.034Z</time></trkpt><trkpt lat="40.1858751" lon="18.0210538"><ele>33.0</ele><time>2026-04-11T06:30:36.05Z</time></trkpt><trkpt lat="40.185966" lon="18.0209424"><ele>33.25</ele><time>2026-04-11T06:30:37.052Z</time></trkpt><trkpt lat="40.1860541" lon="18.0208196"><ele>33.5</ele><time>2026-04-11T06:30:38.018Z</time></trkpt><trkpt lat="40.1861435" lon="18.0207005"><ele>33.75</ele><time>2026-04-11T06:30:39.024Z</time></trkpt><trkpt lat="40.1862333" lon="18.0205657"><ele>34.0</ele><time>2026-04-11T06:30:40.024Z</time></trkpt><trkpt lat="40.1863195" lon="18.0204348"><ele>34.0</ele><time>2026-04-11T06:30:41.044Z</time></trkpt><trkpt lat="40.1864199" lon="18.0202844"><ele>34.0</ele><time>2026-04-11T06:30:42.048Z</time></trkpt><trkpt lat="40.1865196" lon="18.02015"><ele>34.0</ele><time>2026-04-11T06:30:43.01Z</time></trkpt><trkpt lat="40.1866234" lon="18.0200153"><ele>34.0</ele><time>2026-04-11T06:30:44.048Z</time></trkpt><trkpt lat="40.1867214" lon="18.0198834"><ele>34.0</ele><time>2026-04-11T06:30:45.062Z</time></trkpt><trkpt lat="40.1868248" lon="18.0197714"><ele>34.0</ele><time>2026-04-11T06:30:46.028Z</time></trkpt><trkpt lat="40.1869145" lon="18.0196342"><ele>34.0</ele><time>2026-04-11T06:30:47.062Z</time></trkpt><trkpt lat="40.187014" lon="18.0195329"><ele>34.0</ele><time>2026-04-11T06:30:48.018Z</time></trkpt><trkpt lat="40.1870891" lon="18.0194124"><ele>34.0</ele><time>2026-04-11T06:30:49.051Z</time></trkpt><trkpt lat="40.1871765" lon="18.0192993"><ele>34.0</ele><time>2026-04-11T06:30:50.049Z</time></trkpt><trkpt lat="40.1872454" lon="18.0191839"><ele>34.0</ele><time>2026-04-11T06:30:51.023Z</time></trkpt><trkpt lat="40.1873295" lon="18.0191044"><ele>34.0</ele><time>2026-04-11T06:30:52.023Z</time></trkpt><trkpt lat="40.1873994" lon="18.0190157"><ele>34.0</ele><time>2026-04-11T06:30:53.028Z</time></trkpt><trkpt lat="40.1874491" lon="18.0189219"><ele>33.5</ele><time>2026-04-11T06:30:54.025Z</time></trkpt><trkpt lat="40.1875027" lon="18.018852"><ele>33.0</ele><time>2026-04-11T06:30:55.027Z</time></trkpt><trkpt lat="40.1875545" lon="18.0188041"><ele>32.5</ele><time>2026-04-11T06:30:56.028Z</time></trkpt><trkpt lat="40.1876418" lon="18.0187394"><ele>32.0</ele><time>2026-04-11T06:30:58.024Z</time></trkpt><trkpt lat="40.1877218" lon="18.0187098"><ele>31.500000000000004</ele><time>2026-04-11T06:31:01.022Z</time></trkpt><trkpt lat="40.1877772" lon="18.0186549"><ele>31.0</ele><time>2026-04-11T06:31:04.021Z</time></trkpt><trkpt lat="40.1878492" lon="18.0186303"><ele>31.0</ele><time>2026-04-11T06:31:55.023Z</time></trkpt><trkpt lat="40.1879159" lon="18.0185404"><ele>31.0</ele><time>2026-04-11T06:31:58.024Z</time></trkpt><trkpt lat="40.1879562" lon="18.0184326"><ele>31.0</ele><time>2026-04-11T06:32:00.024Z</time></trkpt><trkpt lat="40.1879465" lon="18.0183413"><ele>31.0</ele><time>2026-04-11T06:32:01.024Z</time></trkpt><trkpt lat="40.1880194" lon="18.0182119"><ele>31.0</ele><time>2026-04-11T06:32:03.023Z</time></trkpt><trkpt lat="40.1880739" lon="18.0181484"><ele>31.200000000000003</ele><time>2026-04-11T06:32:04.025Z</time></trkpt><trkpt lat="40.1881305" lon="18.0180775"><ele>31.400000000000002</ele><time>2026-04-11T06:32:05.059Z</time></trkpt><trkpt lat="40.1881912" lon="18.0179994"><ele>31.6</ele><time>2026-04-11T06:32:06.049Z</time></trkpt><trkpt lat="40.1882552" lon="18.0179116"><ele>31.8</ele><time>2026-04-11T06:32:07.026Z</time></trkpt><trkpt lat="40.1883352" lon="18.0178183"><ele>32.0</ele><time>2026-04-11T06:32:08.024Z</time></trkpt><trkpt lat="40.1884079" lon="18.0177193"><ele>32.0</ele><time>2026-04-11T06:32:09.052Z</time></trkpt><trkpt lat="40.1884879" lon="18.0176164"><ele>32.0</ele><time>2026-04-11T06:32:10.049Z</time></trkpt><trkpt lat="40.188574" lon="18.017501"><ele>32.0</ele><time>2026-04-11T06:32:11.051Z</time></trkpt><trkpt lat="40.188662" lon="18.0173826"><ele>32.0</ele><time>2026-04-11T06:32:12.008Z</time></trkpt><trkpt lat="40.1887525" lon="18.017238"><ele>32.0</ele><time>2026-04-11T06:32:13.043Z</time></trkpt><trkpt lat="40.1888521" lon="18.0171132"><ele>32.0</ele><time>2026-04-11T06:32:14.054Z</time></trkpt><trkpt lat="40.1889578" lon="18.0169778"><ele>32.0</ele><time>2026-04-11T06:32:15.051Z</time></trkpt><trkpt lat="40.1890653" lon="18.0168213"><ele>32.0</ele><time>2026-04-11T06:32:16.03Z</time></trkpt><trkpt lat="40.1891716" lon="18.0166718"><ele>32.666666666666664</ele><time>2026-04-11T06:32:17.053Z</time></trkpt><trkpt lat="40.1892846" lon="18.0165197"><ele>33.333333333333336</ele><time>2026-04-11T06:32:18.023Z</time></trkpt><trkpt lat="40.1894086" lon="18.0163685"><ele>34.0</ele><time>2026-04-11T06:32:19.034Z</time></trkpt><trkpt lat="40.1895303" lon="18.0162152"><ele>34.0</ele><time>2026-04-11T06:32:20.049Z</time></trkpt><trkpt lat="40.1896456" lon="18.0160516"><ele>34.0</ele><time>2026-04-11T06:32:21.035Z</time></trkpt><trkpt lat="40.1897654" lon="18.0158903"><ele>34.0</ele><time>2026-04-11T06:32:22.019Z</time></trkpt><trkpt lat="40.1898992" lon="18.0157382"><ele>34.0</ele><time>2026-04-11T06:32:23.054Z</time></trkpt><trkpt lat="40.1900192" lon="18.015562"><ele>34.0</ele><time>2026-04-11T06:32:24.058Z</time></trkpt><trkpt lat="40.1901445" lon="18.0153988"><ele>34.0</ele><time>2026-04-11T06:32:25.019Z</time></trkpt><trkpt lat="40.1902705" lon="18.0152306"><ele>34.0</ele><time>2026-04-11T06:32:26.057Z</time></trkpt><trkpt lat="40.1904084" lon="18.0150741"><ele>34.0</ele><time>2026-04-11T06:32:27.022Z</time></trkpt><trkpt lat="40.1905368" lon="18.0149024"><ele>34.0</ele><time>2026-04-11T06:32:28.009Z</time></trkpt><trkpt lat="40.1906635" lon="18.0147102"><ele>34.0</ele><time>2026-04-11T06:32:29.037Z</time></trkpt><trkpt lat="40.1907919" lon="18.0145395"><ele>34.0</ele><time>2026-04-11T06:32:30.024Z</time></trkpt><trkpt lat="40.1909152" lon="18.0143717"><ele>34.0</ele><time>2026-04-11T06:32:31.018Z</time></trkpt><trkpt lat="40.1910301" lon="18.0142142"><ele>34.333333333333336</ele><time>2026-04-11T06:32:32.016Z</time></trkpt><trkpt lat="40.1911473" lon="18.0140543"><ele>34.666666666666664</ele><time>2026-04-11T06:32:33.021Z</time></trkpt><trkpt lat="40.1912669" lon="18.0138717"><ele>35.0</ele><time>2026-04-11T06:32:34.033Z</time></trkpt><trkpt lat="40.1913936" lon="18.0137035"><ele>34.666666666666664</ele><time>2026-04-11T06:32:35.022Z</time></trkpt><trkpt lat="40.1915142" lon="18.0135402"><ele>34.333333333333336</ele><time>2026-04-11T06:32:36.02Z</time></trkpt><trkpt lat="40.1916436" lon="18.0133703"><ele>34.0</ele><time>2026-04-11T06:32:37.021Z</time></trkpt><trkpt lat="40.1917748" lon="18.0131843"><ele>34.0</ele><time>2026-04-11T06:32:38.057Z</time></trkpt><trkpt lat="40.1919102" lon="18.013009"><ele>34.0</ele><time>2026-04-11T06:32:39.054Z</time></trkpt><trkpt lat="40.1920499" lon="18.0128478"><ele>34.0</ele><time>2026-04-11T06:32:40.027Z</time></trkpt><trkpt lat="40.1921757" lon="18.0126571"><ele>34.0</ele><time>2026-04-11T06:32:41.057Z</time></trkpt><trkpt lat="40.1923101" lon="18.0124816"><ele>34.0</ele><time>2026-04-11T06:32:42.06Z</time></trkpt><trkpt lat="40.1924415" lon="18.0122873"><ele>34.0</ele><time>2026-04-11T06:32:43.023Z</time></trkpt><trkpt lat="40.192575" lon="18.0121071"><ele>34.0</ele><time>2026-04-11T06:32:44.012Z</time></trkpt><trkpt lat="40.1927127" lon="18.011941"><ele>34.0</ele><time>2026-04-11T06:32:45.021Z</time></trkpt><trkpt lat="40.1928612" lon="18.0117691"><ele>34.0</ele><time>2026-04-11T06:32:46.116Z</time></trkpt><trkpt lat="40.1930232" lon="18.0115665"><ele>33.0</ele><time>2026-04-11T06:32:47.05Z</time></trkpt><trkpt lat="40.193196" lon="18.0113552"><ele>32.0</ele><time>2026-04-11T06:32:48.048Z</time></trkpt><trkpt lat="40.1933678" lon="18.0111214"><ele>32.0</ele><time>2026-04-11T06:32:49.05Z</time></trkpt><trkpt lat="40.1935457" lon="18.0108861"><ele>32.0</ele><time>2026-04-11T06:32:50.023Z</time></trkpt><trkpt lat="40.1937318" lon="18.010636"><ele>31.5</ele><time>2026-04-11T06:32:51.025Z</time></trkpt><trkpt lat="40.1939261" lon="18.0103759"><ele>31.0</ele><time>2026-04-11T06:32:52.025Z</time></trkpt><trkpt lat="40.1941146" lon="18.0101368"><ele>33.0</ele><time>2026-04-11T06:32:53.023Z</time></trkpt><trkpt lat="40.1942973" lon="18.0098998"><ele>35.0</ele><time>2026-04-11T06:32:54.069Z</time></trkpt><trkpt lat="40.1944752" lon="18.0096586"><ele>35.0</ele><time>2026-04-11T06:32:55.055Z</time></trkpt><trkpt lat="40.1946538" lon="18.0094245"><ele>35.0</ele><time>2026-04-11T06:32:56.056Z</time></trkpt><trkpt lat="40.1948331" lon="18.0091867"><ele>35.0</ele><time>2026-04-11T06:32:57.012Z</time></trkpt><trkpt lat="40.1949964" lon="18.0089453"><ele>35.0</ele><time>2026-04-11T06:32:58.028Z</time></trkpt><trkpt lat="40.1951696" lon="18.0087027"><ele>35.0</ele><time>2026-04-11T06:32:59.06Z</time></trkpt><trkpt lat="40.1953486" lon="18.0084702"><ele>35.0</ele><time>2026-04-11T06:33:00.024Z</time></trkpt><trkpt lat="40.1955172" lon="18.0082447"><ele>35.0</ele><time>2026-04-11T06:33:01.058Z</time></trkpt><trkpt lat="40.1956902" lon="18.0080012"><ele>35.0</ele><time>2026-04-11T06:33:02.056Z</time></trkpt><trkpt lat="40.1958637" lon="18.0077769"><ele>35.0</ele><time>2026-04-11T06:33:03.052Z</time></trkpt><trkpt lat="40.1960401" lon="18.0075589"><ele>35.0</ele><time>2026-04-11T06:33:04.018Z</time></trkpt><trkpt lat="40.1962172" lon="18.0073309"><ele>36.0</ele><time>2026-04-11T06:33:05.051Z</time></trkpt><trkpt lat="40.1963855" lon="18.0070709"><ele>37.0</ele><time>2026-04-11T06:33:06.025Z</time></trkpt><trkpt lat="40.1965658" lon="18.0068309"><ele>36.5</ele><time>2026-04-11T06:33:07.014Z</time></trkpt><trkpt lat="40.1967643" lon="18.0065896"><ele>36.0</ele><time>2026-04-11T06:33:08.045Z</time></trkpt><trkpt lat="40.1969536" lon="18.0063197"><ele>36.0</ele><time>2026-04-11T06:33:09.028Z</time></trkpt><trkpt lat="40.197153" lon="18.0060696"><ele>36.0</ele><time>2026-04-11T06:33:10.051Z</time></trkpt><trkpt lat="40.1973498" lon="18.0058094"><ele>35.5</ele><time>2026-04-11T06:33:11.015Z</time></trkpt><trkpt lat="40.197552" lon="18.0055258"><ele>35.0</ele><time>2026-04-11T06:33:12.052Z</time></trkpt><trkpt lat="40.1977582" lon="18.0052722"><ele>35.0</ele><time>2026-04-11T06:33:13.029Z</time></trkpt><trkpt lat="40.1979561" lon="18.0050085"><ele>35.0</ele><time>2026-04-11T06:33:14.014Z</time></trkpt><trkpt lat="40.1981498" lon="18.0047662"><ele>35.5</ele><time>2026-04-11T06:33:15.047Z</time></trkpt><trkpt lat="40.1983435" lon="18.0045166"><ele>36.0</ele><time>2026-04-11T06:33:16.03Z</time></trkpt><trkpt lat="40.1985371" lon="18.0042617"><ele>36.0</ele><time>2026-04-11T06:33:17.023Z</time></trkpt><trkpt lat="40.198727" lon="18.0039981"><ele>36.0</ele><time>2026-04-11T06:33:18.026Z</time></trkpt><trkpt lat="40.1989121" lon="18.0037494"><ele>36.5</ele><time>2026-04-11T06:33:19.018Z</time></trkpt><trkpt lat="40.1990734" lon="18.0035197"><ele>37.0</ele><time>2026-04-11T06:33:20.015Z</time></trkpt><trkpt lat="40.1992559" lon="18.0032928"><ele>37.0</ele><time>2026-04-11T06:33:21.024Z</time></trkpt><trkpt lat="40.1994325" lon="18.0030672"><ele>37.0</ele><time>2026-04-11T06:33:22.054Z</time></trkpt><trkpt lat="40.1995973" lon="18.0028441"><ele>37.0</ele><time>2026-04-11T06:33:23.046Z</time></trkpt><trkpt lat="40.1997576" lon="18.002616"><ele>37.0</ele><time>2026-04-11T06:33:24.027Z</time></trkpt><trkpt lat="40.199926" lon="18.0024026"><ele>37.0</ele><time>2026-04-11T06:33:25.031Z</time></trkpt><trkpt lat="40.2000967" lon="18.0021884"><ele>37.0</ele><time>2026-04-11T06:33:26.031Z</time></trkpt><trkpt lat="40.2002567" lon="18.0019551"><ele>37.0</ele><time>2026-04-11T06:33:27.031Z</time></trkpt><trkpt lat="40.2004259" lon="18.0017345"><ele>37.0</ele><time>2026-04-11T06:33:28.025Z</time></trkpt><trkpt lat="40.2005944" lon="18.0015108"><ele>36.0</ele><time>2026-04-11T06:33:29.03Z</time></trkpt><trkpt lat="40.2007652" lon="18.001279"><ele>35.0</ele><time>2026-04-11T06:33:30.023Z</time></trkpt><trkpt lat="40.2009411" lon="18.0010594"><ele>35.5</ele><time>2026-04-11T06:33:31.033Z</time></trkpt><trkpt lat="40.2011081" lon="18.0008236"><ele>36.0</ele><time>2026-04-11T06:33:32.055Z</time></trkpt><trkpt lat="40.201276" lon="18.000602"><ele>36.0</ele><time>2026-04-11T06:33:33.009Z</time></trkpt><trkpt lat="40.2014424" lon="18.0003737"><ele>36.0</ele><time>2026-04-11T06:33:34.015Z</time></trkpt><trkpt lat="40.2016094" lon="18.0001532"><ele>36.0</ele><time>2026-04-11T06:33:35.015Z</time></trkpt><trkpt lat="40.2017752" lon="17.9999225"><ele>36.0</ele><time>2026-04-11T06:33:36.015Z</time></trkpt><trkpt lat="40.2019481" lon="17.9996927"><ele>36.0</ele><time>2026-04-11T06:33:37.049Z</time></trkpt><trkpt lat="40.2021176" lon="17.9994719"><ele>36.0</ele><time>2026-04-11T06:33:38.056Z</time></trkpt><trkpt lat="40.2022881" lon="17.9992459"><ele>36.0</ele><time>2026-04-11T06:33:39.009Z</time></trkpt><trkpt lat="40.2024606" lon="17.999025"><ele>36.0</ele><time>2026-04-11T06:33:40.031Z</time></trkpt><trkpt lat="40.2026402" lon="17.9988001"><ele>36.0</ele><time>2026-04-11T06:33:41.02Z</time></trkpt><trkpt lat="40.2028131" lon="17.9985724"><ele>36.0</ele><time>2026-04-11T06:33:42.014Z</time></trkpt><trkpt lat="40.2029859" lon="17.9983563"><ele>36.0</ele><time>2026-04-11T06:33:43.075Z</time></trkpt><trkpt lat="40.2031577" lon="17.9981143"><ele>36.0</ele><time>2026-04-11T06:33:44.028Z</time></trkpt><trkpt lat="40.2033384" lon="17.9978814"><ele>37.5</ele><time>2026-04-11T06:33:45.022Z</time></trkpt><trkpt lat="40.2035159" lon="17.9976477"><ele>39.0</ele><time>2026-04-11T06:33:46.026Z</time></trkpt><trkpt lat="40.2036983" lon="17.9974093"><ele>39.0</ele><time>2026-04-11T06:33:47.027Z</time></trkpt><trkpt lat="40.2038773" lon="17.9971733"><ele>39.0</ele><time>2026-04-11T06:33:48.014Z</time></trkpt><trkpt lat="40.2040466" lon="17.9969378"><ele>38.5</ele><time>2026-04-11T06:33:49.017Z</time></trkpt><trkpt lat="40.2042263" lon="17.9966991"><ele>38.0</ele><time>2026-04-11T06:33:50.014Z</time></trkpt><trkpt lat="40.2044043" lon="17.9964782"><ele>37.5</ele><time>2026-04-11T06:33:51.051Z</time></trkpt><trkpt lat="40.2045866" lon="17.9962334"><ele>37.0</ele><time>2026-04-11T06:33:52.053Z</time></trkpt><trkpt lat="40.2047545" lon="17.9959989"><ele>37.5</ele><time>2026-04-11T06:33:53.019Z</time></trkpt><trkpt lat="40.2049217" lon="17.9957608"><ele>38.0</ele><time>2026-04-11T06:33:54.046Z</time></trkpt><trkpt lat="40.2050914" lon="17.995554"><ele>38.0</ele><time>2026-04-11T06:33:55.055Z</time></trkpt><trkpt lat="40.2052501" lon="17.9953431"><ele>38.0</ele><time>2026-04-11T06:33:56.021Z</time></trkpt><trkpt lat="40.2054102" lon="17.9951355"><ele>38.33333333333333</ele><time>2026-04-11T06:33:57.022Z</time></trkpt><trkpt lat="40.2055699" lon="17.9949238"><ele>38.666666666666664</ele><time>2026-04-11T06:33:58.011Z</time></trkpt><trkpt lat="40.2057352" lon="17.9947587"><ele>39.0</ele><time>2026-04-11T06:33:59.05Z</time></trkpt><trkpt lat="40.2058898" lon="17.9945441"><ele>38.5</ele><time>2026-04-11T06:34:00.028Z</time></trkpt><trkpt lat="40.2060508" lon="17.9943335"><ele>38.0</ele><time>2026-04-11T06:34:01.052Z</time></trkpt><trkpt lat="40.2062092" lon="17.9941237"><ele>38.0</ele><time>2026-04-11T06:34:02.011Z</time></trkpt><trkpt lat="40.20636" lon="17.9938928"><ele>38.0</ele><time>2026-04-11T06:34:03.051Z</time></trkpt><trkpt lat="40.2065288" lon="17.993697"><ele>37.666666666666664</ele><time>2026-04-11T06:34:04.027Z</time></trkpt><trkpt lat="40.2066896" lon="17.9934867"><ele>37.333333333333336</ele><time>2026-04-11T06:34:05.051Z</time></trkpt><trkpt lat="40.2068382" lon="17.9932747"><ele>37.0</ele><time>2026-04-11T06:34:06.022Z</time></trkpt><trkpt lat="40.2069943" lon="17.9930733"><ele>37.0</ele><time>2026-04-11T06:34:07.025Z</time></trkpt><trkpt lat="40.2071552" lon="17.9928624"><ele>37.0</ele><time>2026-04-11T06:34:08.013Z</time></trkpt><trkpt lat="40.2073218" lon="17.992619"><ele>38.0</ele><time>2026-04-11T06:34:09.022Z</time></trkpt><trkpt lat="40.2074732" lon="17.992386"><ele>39.0</ele><time>2026-04-11T06:34:10.031Z</time></trkpt><trkpt lat="40.2076449" lon="17.9921918"><ele>39.0</ele><time>2026-04-11T06:34:11.027Z</time></trkpt><trkpt lat="40.2078133" lon="17.9919751"><ele>39.0</ele><time>2026-04-11T06:34:12.025Z</time></trkpt><trkpt lat="40.2079749" lon="17.9917614"><ele>39.5</ele><time>2026-04-11T06:34:13.013Z</time></trkpt><trkpt lat="40.2081456" lon="17.9915578"><ele>40.0</ele><time>2026-04-11T06:34:14.02Z</time></trkpt><trkpt lat="40.2083151" lon="17.9913437"><ele>40.0</ele><time>2026-04-11T06:34:15.051Z</time></trkpt><trkpt lat="40.2084785" lon="17.9911283"><ele>40.0</ele><time>2026-04-11T06:34:16.027Z</time></trkpt><trkpt lat="40.2086415" lon="17.990913"><ele>41.0</ele><time>2026-04-11T06:34:17.011Z</time></trkpt><trkpt lat="40.2087976" lon="17.9906858"><ele>42.0</ele><time>2026-04-11T06:34:18.087Z</time></trkpt><trkpt lat="40.208969" lon="17.990484"><ele>41.0</ele><time>2026-04-11T06:34:19.032Z</time></trkpt><trkpt lat="40.2091359" lon="17.9902641"><ele>40.0</ele><time>2026-04-11T06:34:20.018Z</time></trkpt><trkpt lat="40.2093068" lon="17.9900457"><ele>40.5</ele><time>2026-04-11T06:34:21.019Z</time></trkpt><trkpt lat="40.2094826" lon="17.9898204"><ele>41.0</ele><time>2026-04-11T06:34:22.019Z</time></trkpt><trkpt lat="40.2096473" lon="17.9895907"><ele>41.0</ele><time>2026-04-11T06:34:23.019Z</time></trkpt><trkpt lat="40.2098174" lon="17.9893644"><ele>41.0</ele><time>2026-04-11T06:34:24.012Z</time></trkpt><trkpt lat="40.2099863" lon="17.9891556"><ele>41.5</ele><time>2026-04-11T06:34:25.049Z</time></trkpt><trkpt lat="40.2101503" lon="17.988915"><ele>42.0</ele><time>2026-04-11T06:34:26.052Z</time></trkpt><trkpt lat="40.2103177" lon="17.9886834"><ele>42.0</ele><time>2026-04-11T06:34:27.022Z</time></trkpt><trkpt lat="40.2104894" lon="17.988456"><ele>42.0</ele><time>2026-04-11T06:34:28.009Z</time></trkpt><trkpt lat="40.210656" lon="17.9882029"><ele>42.0</ele><time>2026-04-11T06:34:29.022Z</time></trkpt><trkpt lat="40.2108321" lon="17.9879947"><ele>42.0</ele><time>2026-04-11T06:34:30.029Z</time></trkpt><trkpt lat="40.2110028" lon="17.9877778"><ele>42.0</ele><time>2026-04-11T06:34:31.055Z</time></trkpt><trkpt lat="40.2111723" lon="17.9875512"><ele>42.0</ele><time>2026-04-11T06:34:32.011Z</time></trkpt><trkpt lat="40.2113437" lon="17.9873107"><ele>42.5</ele><time>2026-04-11T06:34:33.017Z</time></trkpt><trkpt lat="40.2115129" lon="17.9870949"><ele>43.0</ele><time>2026-04-11T06:34:34.028Z</time></trkpt><trkpt lat="40.2116839" lon="17.986869"><ele>44.0</ele><time>2026-04-11T06:34:35.017Z</time></trkpt><trkpt lat="40.211857" lon="17.9866458"><ele>45.0</ele><time>2026-04-11T06:34:36.02Z</time></trkpt><trkpt lat="40.2120292" lon="17.9864164"><ele>45.0</ele><time>2026-04-11T06:34:37.019Z</time></trkpt><trkpt lat="40.212199" lon="17.9861895"><ele>45.0</ele><time>2026-04-11T06:34:38.024Z</time></trkpt><trkpt lat="40.2123693" lon="17.9859633"><ele>45.0</ele><time>2026-04-11T06:34:39.029Z</time></trkpt><trkpt lat="40.2125363" lon="17.9857285"><ele>45.0</ele><time>2026-04-11T06:34:40.025Z</time></trkpt><trkpt lat="40.2127111" lon="17.9855065"><ele>45.0</ele><time>2026-04-11T06:34:41.024Z</time></trkpt><trkpt lat="40.2128863" lon="17.9852576"><ele>45.0</ele><time>2026-04-11T06:34:42.035Z</time></trkpt><trkpt lat="40.2130604" lon="17.9850259"><ele>44.0</ele><time>2026-04-11T06:34:43.014Z</time></trkpt><trkpt lat="40.21325" lon="17.9847948"><ele>43.0</ele><time>2026-04-11T06:34:44.024Z</time></trkpt><trkpt lat="40.2134249" lon="17.9845639"><ele>43.0</ele><time>2026-04-11T06:34:45.012Z</time></trkpt><trkpt lat="40.2135973" lon="17.9843287"><ele>43.0</ele><time>2026-04-11T06:34:46.03Z</time></trkpt><trkpt lat="40.2137707" lon="17.9840991"><ele>42.5</ele><time>2026-04-11T06:34:47.016Z</time></trkpt><trkpt lat="40.2139545" lon="17.9838692"><ele>42.0</ele><time>2026-04-11T06:34:48.028Z</time></trkpt><trkpt lat="40.2141294" lon="17.9836396"><ele>42.0</ele><time>2026-04-11T06:34:49.025Z</time></trkpt><trkpt lat="40.2142912" lon="17.9834109"><ele>42.0</ele><time>2026-04-11T06:34:50.026Z</time></trkpt><trkpt lat="40.2144463" lon="17.983159"><ele>42.5</ele><time>2026-04-11T06:34:51.034Z</time></trkpt><trkpt lat="40.2146157" lon="17.9829363"><ele>43.0</ele><time>2026-04-11T06:34:52.019Z</time></trkpt><trkpt lat="40.2148054" lon="17.9827222"><ele>43.5</ele><time>2026-04-11T06:34:53.025Z</time></trkpt><trkpt lat="40.2149753" lon="17.9824997"><ele>44.0</ele><time>2026-04-11T06:34:54.02Z</time></trkpt><trkpt lat="40.215134" lon="17.9822914"><ele>44.0</ele><time>2026-04-11T06:34:55.023Z</time></trkpt><trkpt lat="40.2152995" lon="17.9820724"><ele>44.0</ele><time>2026-04-11T06:34:56.018Z</time></trkpt><trkpt lat="40.2154504" lon="17.9818463"><ele>44.0</ele><time>2026-04-11T06:34:57.027Z</time></trkpt><trkpt lat="40.2156154" lon="17.9816315"><ele>44.0</ele><time>2026-04-11T06:34:58.029Z</time></trkpt><trkpt lat="40.2157853" lon="17.9814075"><ele>43.5</ele><time>2026-04-11T06:34:59.028Z</time></trkpt><trkpt lat="40.2159492" lon="17.9811917"><ele>43.0</ele><time>2026-04-11T06:35:00.013Z</time></trkpt><trkpt lat="40.216094" lon="17.9809559"><ele>42.66666666666667</ele><time>2026-04-11T06:35:01.021Z</time></trkpt><trkpt lat="40.2162517" lon="17.9807535"><ele>42.333333333333336</ele><time>2026-04-11T06:35:02.034Z</time></trkpt><trkpt lat="40.2164021" lon="17.980551"><ele>42.0</ele><time>2026-04-11T06:35:03.03Z</time></trkpt><trkpt lat="40.2165599" lon="17.9803556"><ele>42.333333333333336</ele><time>2026-04-11T06:35:04.034Z</time></trkpt><trkpt lat="40.2167138" lon="17.9801527"><ele>42.66666666666667</ele><time>2026-04-11T06:35:05.017Z</time></trkpt><trkpt lat="40.2168628" lon="17.9799389"><ele>43.0</ele><time>2026-04-11T06:35:06.023Z</time></trkpt><trkpt lat="40.2170229" lon="17.9797174"><ele>43.0</ele><time>2026-04-11T06:35:07.027Z</time></trkpt><trkpt lat="40.2171799" lon="17.979487"><ele>43.0</ele><time>2026-04-11T06:35:08.025Z</time></trkpt><trkpt lat="40.217342" lon="17.979274"><ele>42.0</ele><time>2026-04-11T06:35:09.029Z</time></trkpt><trkpt lat="40.2174926" lon="17.9790558"><ele>41.0</ele><time>2026-04-11T06:35:10.026Z</time></trkpt><trkpt lat="40.2176517" lon="17.9788443"><ele>41.0</ele><time>2026-04-11T06:35:11.012Z</time></trkpt><trkpt lat="40.2178278" lon="17.9786411"><ele>41.0</ele><time>2026-04-11T06:35:12.027Z</time></trkpt><trkpt lat="40.2179901" lon="17.9784291"><ele>41.5</ele><time>2026-04-11T06:35:13.018Z</time></trkpt><trkpt lat="40.2181516" lon="17.978213"><ele>42.0</ele><time>2026-04-11T06:35:14.019Z</time></trkpt><trkpt lat="40.2183079" lon="17.9779966"><ele>42.0</ele><time>2026-04-11T06:35:15.019Z</time></trkpt><trkpt lat="40.2184813" lon="17.9777851"><ele>42.0</ele><time>2026-04-11T06:35:16.022Z</time></trkpt><trkpt lat="40.2186482" lon="17.9775655"><ele>42.0</ele><time>2026-04-11T06:35:17.016Z</time></trkpt><trkpt lat="40.2188273" lon="17.9773726"><ele>42.0</ele><time>2026-04-11T06:35:18.021Z</time></trkpt><trkpt lat="40.2189999" lon="17.9771501"><ele>41.0</ele><time>2026-04-11T06:35:19.031Z</time></trkpt><trkpt lat="40.219175" lon="17.9769253"><ele>40.0</ele><time>2026-04-11T06:35:20.038Z</time></trkpt><trkpt lat="40.2193464" lon="17.9766973"><ele>40.0</ele><time>2026-04-11T06:35:21.033Z</time></trkpt><trkpt lat="40.2195161" lon="17.9764728"><ele>40.0</ele><time>2026-04-11T06:35:22.017Z</time></trkpt><trkpt lat="40.2196877" lon="17.9762615"><ele>41.0</ele><time>2026-04-11T06:35:23.027Z</time></trkpt><trkpt lat="40.2198581" lon="17.9760377"><ele>42.0</ele><time>2026-04-11T06:35:24.019Z</time></trkpt><trkpt lat="40.2200293" lon="17.9757907"><ele>42.0</ele><time>2026-04-11T06:35:25.029Z</time></trkpt><trkpt lat="40.2202032" lon="17.9755732"><ele>42.0</ele><time>2026-04-11T06:35:26.029Z</time></trkpt><trkpt lat="40.2203734" lon="17.9753405"><ele>42.0</ele><time>2026-04-11T06:35:27.028Z</time></trkpt><trkpt lat="40.2205442" lon="17.9751099"><ele>42.0</ele><time>2026-04-11T06:35:28.014Z</time></trkpt><trkpt lat="40.2207154" lon="17.9748631"><ele>42.0</ele><time>2026-04-11T06:35:29.023Z</time></trkpt><trkpt lat="40.2208874" lon="17.974631"><ele>42.0</ele><time>2026-04-11T06:35:30.017Z</time></trkpt><trkpt lat="40.2210834" lon="17.9744381"><ele>42.0</ele><time>2026-04-11T06:35:31.018Z</time></trkpt><trkpt lat="40.2212528" lon="17.9742129"><ele>42.0</ele><time>2026-04-11T06:35:32.025Z</time></trkpt><trkpt lat="40.2214057" lon="17.9739806"><ele>42.666666666666664</ele><time>2026-04-11T06:35:33.022Z</time></trkpt><trkpt lat="40.2215623" lon="17.9737663"><ele>43.33333333333333</ele><time>2026-04-11T06:35:34.015Z</time></trkpt><trkpt lat="40.2217044" lon="17.9735904"><ele>44.0</ele><time>2026-04-11T06:35:35.023Z</time></trkpt><trkpt lat="40.2218528" lon="17.9733921"><ele>44.0</ele><time>2026-04-11T06:35:36.022Z</time></trkpt><trkpt lat="40.2219871" lon="17.9731943"><ele>44.0</ele><time>2026-04-11T06:35:37.052Z</time></trkpt><trkpt lat="40.2221318" lon="17.9729882"><ele>44.0</ele><time>2026-04-11T06:35:38.08Z</time></trkpt><trkpt lat="40.2222872" lon="17.9727885"><ele>44.0</ele><time>2026-04-11T06:35:39.052Z</time></trkpt><trkpt lat="40.2224371" lon="17.9725967"><ele>44.0</ele><time>2026-04-11T06:35:40.051Z</time></trkpt><trkpt lat="40.222586" lon="17.9723885"><ele>44.0</ele><time>2026-04-11T06:35:41.067Z</time></trkpt><trkpt lat="40.2227444" lon="17.9721928"><ele>44.0</ele><time>2026-04-11T06:35:42.06Z</time></trkpt><trkpt lat="40.2228964" lon="17.9719915"><ele>44.0</ele><time>2026-04-11T06:35:43.106Z</time></trkpt><trkpt lat="40.2230545" lon="17.9717932"><ele>44.0</ele><time>2026-04-11T06:35:44.024Z</time></trkpt><trkpt lat="40.2232091" lon="17.9715879"><ele>43.5</ele><time>2026-04-11T06:35:45.007Z</time></trkpt><trkpt lat="40.2233752" lon="17.9713768"><ele>43.0</ele><time>2026-04-11T06:35:46.019Z</time></trkpt><trkpt lat="40.2235401" lon="17.9711766"><ele>43.0</ele><time>2026-04-11T06:35:47.052Z</time></trkpt><trkpt lat="40.2237017" lon="17.9709566"><ele>43.0</ele><time>2026-04-11T06:35:48.048Z</time></trkpt><trkpt lat="40.223859" lon="17.9707472"><ele>43.0</ele><time>2026-04-11T06:35:49.016Z</time></trkpt><trkpt lat="40.2240131" lon="17.9705318"><ele>43.0</ele><time>2026-04-11T06:35:50.06Z</time></trkpt><trkpt lat="40.2241782" lon="17.9703432"><ele>43.0</ele><time>2026-04-11T06:35:51.06Z</time></trkpt><trkpt lat="40.2243339" lon="17.9701396"><ele>43.5</ele><time>2026-04-11T06:35:52.045Z</time></trkpt><trkpt lat="40.2245032" lon="17.9699435"><ele>44.0</ele><time>2026-04-11T06:35:53.056Z</time></trkpt><trkpt lat="40.2246796" lon="17.9697451"><ele>43.0</ele><time>2026-04-11T06:35:54.054Z</time></trkpt><trkpt lat="40.2248501" lon="17.9695423"><ele>42.0</ele><time>2026-04-11T06:35:55.052Z</time></trkpt><trkpt lat="40.2250174" lon="17.9693218"><ele>42.5</ele><time>2026-04-11T06:35:56.012Z</time></trkpt><trkpt lat="40.2252024" lon="17.9691237"><ele>43.0</ele><time>2026-04-11T06:35:57.018Z</time></trkpt><trkpt lat="40.2253878" lon="17.9689358"><ele>43.0</ele><time>2026-04-11T06:35:58.02Z</time></trkpt><trkpt lat="40.2255576" lon="17.9687101"><ele>43.0</ele><time>2026-04-11T06:35:59.023Z</time></trkpt><trkpt lat="40.2257283" lon="17.9684866"><ele>43.0</ele><time>2026-04-11T06:36:00.015Z</time></trkpt><trkpt lat="40.2258832" lon="17.9682489"><ele>43.0</ele><time>2026-04-11T06:36:01.104Z</time></trkpt><trkpt lat="40.2260526" lon="17.9680215"><ele>43.0</ele><time>2026-04-11T06:36:02.014Z</time></trkpt><trkpt lat="40.22623" lon="17.9677877"><ele>43.0</ele><time>2026-04-11T06:36:03.023Z</time></trkpt><trkpt lat="40.2263997" lon="17.9675692"><ele>43.0</ele><time>2026-04-11T06:36:04.026Z</time></trkpt><trkpt lat="40.2265582" lon="17.9673321"><ele>43.0</ele><time>2026-04-11T06:36:05.043Z</time></trkpt><trkpt lat="40.2267255" lon="17.9671084"><ele>43.0</ele><time>2026-04-11T06:36:06.011Z</time></trkpt><trkpt lat="40.2268757" lon="17.966884"><ele>43.0</ele><time>2026-04-11T06:36:07.016Z</time></trkpt><trkpt lat="40.2270399" lon="17.9666822"><ele>43.333333333333336</ele><time>2026-04-11T06:36:08.017Z</time></trkpt><trkpt lat="40.2271848" lon="17.9664865"><ele>43.666666666666664</ele><time>2026-04-11T06:36:09.049Z</time></trkpt><trkpt lat="40.2273371" lon="17.9662848"><ele>44.0</ele><time>2026-04-11T06:36:10.016Z</time></trkpt><trkpt lat="40.227467" lon="17.9660558"><ele>43.666666666666664</ele><time>2026-04-11T06:36:11.046Z</time></trkpt><trkpt lat="40.2276208" lon="17.9658501"><ele>43.333333333333336</ele><time>2026-04-11T06:36:12.009Z</time></trkpt><trkpt lat="40.2277683" lon="17.9656238"><ele>43.0</ele><time>2026-04-11T06:36:13.019Z</time></trkpt><trkpt lat="40.2279416" lon="17.9654069"><ele>43.0</ele><time>2026-04-11T06:36:14.025Z</time></trkpt><trkpt lat="40.2280993" lon="17.965183"><ele>43.0</ele><time>2026-04-11T06:36:15.029Z</time></trkpt><trkpt lat="40.2282641" lon="17.964965"><ele>42.5</ele><time>2026-04-11T06:36:16.015Z</time></trkpt><trkpt lat="40.2284258" lon="17.9647416"><ele>42.0</ele><time>2026-04-11T06:36:17.028Z</time></trkpt><trkpt lat="40.2285889" lon="17.9644925"><ele>42.0</ele><time>2026-04-11T06:36:18.03Z</time></trkpt><trkpt lat="40.228758" lon="17.9642692"><ele>42.0</ele><time>2026-04-11T06:36:19.011Z</time></trkpt><trkpt lat="40.2289286" lon="17.9640588"><ele>42.5</ele><time>2026-04-11T06:36:20.02Z</time></trkpt><trkpt lat="40.2291046" lon="17.9638453"><ele>43.0</ele><time>2026-04-11T06:36:21.032Z</time></trkpt><trkpt lat="40.2292763" lon="17.9636278"><ele>43.0</ele><time>2026-04-11T06:36:22.031Z</time></trkpt><trkpt lat="40.229444" lon="17.9634067"><ele>43.0</ele><time>2026-04-11T06:36:23.085Z</time></trkpt><trkpt lat="40.2296145" lon="17.9631706"><ele>43.5</ele><time>2026-04-11T06:36:24.028Z</time></trkpt><trkpt lat="40.2297844" lon="17.9629483"><ele>44.0</ele><time>2026-04-11T06:36:25.027Z</time></trkpt><trkpt lat="40.2299601" lon="17.9627239"><ele>44.5</ele><time>2026-04-11T06:36:26.025Z</time></trkpt><trkpt lat="40.2301312" lon="17.9624911"><ele>45.0</ele><time>2026-04-11T06:36:27.025Z</time></trkpt><trkpt lat="40.2302978" lon="17.9622556"><ele>45.0</ele><time>2026-04-11T06:36:28.025Z</time></trkpt><trkpt lat="40.2304607" lon="17.9619985"><ele>45.0</ele><time>2026-04-11T06:36:29.025Z</time></trkpt><trkpt lat="40.2306315" lon="17.9617706"><ele>44.0</ele><time>2026-04-11T06:36:30.01Z</time></trkpt><trkpt lat="40.2308198" lon="17.9615345"><ele>43.0</ele><time>2026-04-11T06:36:31.023Z</time></trkpt><trkpt lat="40.2309926" lon="17.9613037"><ele>43.0</ele><time>2026-04-11T06:36:32.027Z</time></trkpt><trkpt lat="40.2311716" lon="17.9610546"><ele>43.0</ele><time>2026-04-11T06:36:33.032Z</time></trkpt><trkpt lat="40.2313497" lon="17.9608308"><ele>43.0</ele><time>2026-04-11T06:36:34.056Z</time></trkpt><trkpt lat="40.2315256" lon="17.9605915"><ele>43.0</ele><time>2026-04-11T06:36:35.029Z</time></trkpt><trkpt lat="40.2317001" lon="17.9603595"><ele>43.0</ele><time>2026-04-11T06:36:36.016Z</time></trkpt><trkpt lat="40.2318834" lon="17.96014"><ele>43.0</ele><time>2026-04-11T06:36:37.068Z</time></trkpt><trkpt lat="40.2320621" lon="17.9599111"><ele>42.5</ele><time>2026-04-11T06:36:38.022Z</time></trkpt><trkpt lat="40.2322339" lon="17.9596851"><ele>42.0</ele><time>2026-04-11T06:36:39.009Z</time></trkpt><trkpt lat="40.2324052" lon="17.9594769"><ele>42.0</ele><time>2026-04-11T06:36:40.046Z</time></trkpt><trkpt lat="40.2325809" lon="17.9592491"><ele>42.0</ele><time>2026-04-11T06:36:41.022Z</time></trkpt><trkpt lat="40.232753" lon="17.9590266"><ele>41.666666666666664</ele><time>2026-04-11T06:36:42.01Z</time></trkpt><trkpt lat="40.2329081" lon="17.9588398"><ele>41.33333333333333</ele><time>2026-04-11T06:36:43.018Z</time></trkpt><trkpt lat="40.233063" lon="17.9586373"><ele>41.0</ele><time>2026-04-11T06:36:44.01Z</time></trkpt><trkpt lat="40.2331935" lon="17.9584451"><ele>40.666666666666664</ele><time>2026-04-11T06:36:45.018Z</time></trkpt><trkpt lat="40.2333159" lon="17.9582732"><ele>40.333333333333336</ele><time>2026-04-11T06:36:46.054Z</time></trkpt><trkpt lat="40.2334411" lon="17.9581049"><ele>40.0</ele><time>2026-04-11T06:36:47.025Z</time></trkpt><trkpt lat="40.23356" lon="17.9579733"><ele>40.0</ele><time>2026-04-11T06:36:48.029Z</time></trkpt><trkpt lat="40.2336639" lon="17.9578463"><ele>40.0</ele><time>2026-04-11T06:36:49.03Z</time></trkpt><trkpt lat="40.2337549" lon="17.9577244"><ele>40.0</ele><time>2026-04-11T06:36:50.022Z</time></trkpt><trkpt lat="40.2338356" lon="17.9576159"><ele>40.0</ele><time>2026-04-11T06:36:51.031Z</time></trkpt><trkpt lat="40.2339116" lon="17.9575241"><ele>40.2</ele><time>2026-04-11T06:36:52.094Z</time></trkpt><trkpt lat="40.2339899" lon="17.9574741"><ele>40.4</ele><time>2026-04-11T06:36:53.049Z</time></trkpt><trkpt lat="40.2340652" lon="17.9574044"><ele>40.599999999999994</ele><time>2026-04-11T06:36:54.008Z</time></trkpt><trkpt lat="40.2341448" lon="17.9573777"><ele>40.8</ele><time>2026-04-11T06:36:55.02Z</time></trkpt><trkpt lat="40.234245" lon="17.9574224"><ele>41.0</ele><time>2026-04-11T06:36:56.027Z</time></trkpt><trkpt lat="40.2343396" lon="17.9574403"><ele>41.0</ele><time>2026-04-11T06:36:57.019Z</time></trkpt><trkpt lat="40.2344358" lon="17.9574409"><ele>41.0</ele><time>2026-04-11T06:36:58.024Z</time></trkpt><trkpt lat="40.2345325" lon="17.9574292"><ele>41.0</ele><time>2026-04-11T06:36:59.016Z</time></trkpt><trkpt lat="40.2346079" lon="17.9573335"><ele>41.0</ele><time>2026-04-11T06:37:00.032Z</time></trkpt><trkpt lat="40.2346618" lon="17.9572243"><ele>41.0</ele><time>2026-04-11T06:37:01.032Z</time></trkpt><trkpt lat="40.2346888" lon="17.9571128"><ele>41.0</ele><time>2026-04-11T06:37:02.019Z</time></trkpt><trkpt lat="40.2347157" lon="17.9569988"><ele>41.0</ele><time>2026-04-11T06:37:03.021Z</time></trkpt><trkpt lat="40.2347019" lon="17.9568699"><ele>41.0</ele><time>2026-04-11T06:37:04.031Z</time></trkpt><trkpt lat="40.2346781" lon="17.9567572"><ele>41.0</ele><time>2026-04-11T06:37:05.033Z</time></trkpt><trkpt lat="40.2346576" lon="17.9566386"><ele>41.0</ele><time>2026-04-11T06:37:06.012Z</time></trkpt><trkpt lat="40.2345252" lon="17.9565298"><ele>41.0</ele><time>2026-04-11T06:37:07.049Z</time></trkpt><trkpt lat="40.2344557" lon="17.9564282"><ele>41.0</ele><time>2026-04-11T06:37:08.012Z</time></trkpt><trkpt lat="40.2343424" lon="17.9563788"><ele>41.0</ele><time>2026-04-11T06:37:09.01Z</time></trkpt><trkpt lat="40.2342396" lon="17.9563393"><ele>41.0</ele><time>2026-04-11T06:37:10.025Z</time></trkpt><trkpt lat="40.2341122" lon="17.956274"><ele>41.0</ele><time>2026-04-11T06:37:11.059Z</time></trkpt><trkpt lat="40.2340055" lon="17.9561961"><ele>41.0</ele><time>2026-04-11T06:37:12.033Z</time></trkpt><trkpt lat="40.2339055" lon="17.9561231"><ele>41.0</ele><time>2026-04-11T06:37:13.014Z</time></trkpt><trkpt lat="40.2338433" lon="17.9559535"><ele>41.0</ele><time>2026-04-11T06:37:14.023Z</time></trkpt><trkpt lat="40.2337632" lon="17.9557978"><ele>42.0</ele><time>2026-04-11T06:37:15.031Z</time></trkpt><trkpt lat="40.2336673" lon="17.955639"><ele>43.0</ele><time>2026-04-11T06:37:16.045Z</time></trkpt><trkpt lat="40.2335739" lon="17.9554731"><ele>44.0</ele><time>2026-04-11T06:37:17.05Z</time></trkpt><trkpt lat="40.2334726" lon="17.9553017"><ele>44.0</ele><time>2026-04-11T06:37:18.022Z</time></trkpt><trkpt lat="40.2333628" lon="17.9551022"><ele>44.0</ele><time>2026-04-11T06:37:19.026Z</time></trkpt><trkpt lat="40.2332503" lon="17.9549153"><ele>44.0</ele><time>2026-04-11T06:37:20.045Z</time></trkpt><trkpt lat="40.2331397" lon="17.9547146"><ele>44.0</ele><time>2026-04-11T06:37:21.037Z</time></trkpt><trkpt lat="40.2330087" lon="17.9545084"><ele>44.0</ele><time>2026-04-11T06:37:22.047Z</time></trkpt><trkpt lat="40.2328765" lon="17.9542911"><ele>44.0</ele><time>2026-04-11T06:37:23.027Z</time></trkpt><trkpt lat="40.232756" lon="17.9540622"><ele>43.33333333333333</ele><time>2026-04-11T06:37:24.025Z</time></trkpt><trkpt lat="40.2326402" lon="17.9538316"><ele>42.666666666666664</ele><time>2026-04-11T06:37:25.048Z</time></trkpt><trkpt lat="40.2325018" lon="17.9535926"><ele>42.0</ele><time>2026-04-11T06:37:26.045Z</time></trkpt><trkpt lat="40.2323685" lon="17.9533557"><ele>41.0</ele><time>2026-04-11T06:37:27.035Z</time></trkpt><trkpt lat="40.2322226" lon="17.9531059"><ele>40.0</ele><time>2026-04-11T06:37:28.054Z</time></trkpt><trkpt lat="40.2320839" lon="17.9528613"><ele>40.0</ele><time>2026-04-11T06:37:29.022Z</time></trkpt><trkpt lat="40.2319407" lon="17.952584"><ele>40.0</ele><time>2026-04-11T06:37:30.019Z</time></trkpt><trkpt lat="40.2318038" lon="17.9523332"><ele>39.5</ele><time>2026-04-11T06:37:31.007Z</time></trkpt><trkpt lat="40.2316631" lon="17.9520956"><ele>39.0</ele><time>2026-04-11T06:37:32.019Z</time></trkpt><trkpt lat="40.2315199" lon="17.9518437"><ele>38.0</ele><time>2026-04-11T06:37:33.022Z</time></trkpt><trkpt lat="40.2313926" lon="17.9515809"><ele>37.0</ele><time>2026-04-11T06:37:34.052Z</time></trkpt><trkpt lat="40.2312574" lon="17.9513338"><ele>37.0</ele><time>2026-04-11T06:37:35.025Z</time></trkpt><trkpt lat="40.2311243" lon="17.9510761"><ele>37.0</ele><time>2026-04-11T06:37:36.029Z</time></trkpt><trkpt lat="40.2309805" lon="17.950815"><ele>36.5</ele><time>2026-04-11T06:37:37.09Z</time></trkpt><trkpt lat="40.2308413" lon="17.9505614"><ele>36.0</ele><time>2026-04-11T06:37:38.011Z</time></trkpt><trkpt lat="40.2306996" lon="17.9502986"><ele>37.0</ele><time>2026-04-11T06:37:39.015Z</time></trkpt><trkpt lat="40.230562" lon="17.9500666"><ele>38.0</ele><time>2026-04-11T06:37:40.017Z</time></trkpt><trkpt lat="40.2304123" lon="17.9498038"><ele>38.0</ele><time>2026-04-11T06:37:41.016Z</time></trkpt><trkpt lat="40.230274" lon="17.9495514"><ele>38.0</ele><time>2026-04-11T06:37:42.019Z</time></trkpt><trkpt lat="40.2301428" lon="17.9493029"><ele>37.5</ele><time>2026-04-11T06:37:43.047Z</time></trkpt><trkpt lat="40.2300012" lon="17.9490491"><ele>37.0</ele><time>2026-04-11T06:37:44.013Z</time></trkpt><trkpt lat="40.2298536" lon="17.9487976"><ele>37.0</ele><time>2026-04-11T06:37:45.026Z</time></trkpt><trkpt lat="40.2297147" lon="17.9485508"><ele>37.0</ele><time>2026-04-11T06:37:46.035Z</time></trkpt><trkpt lat="40.2295782" lon="17.9483026"><ele>37.0</ele><time>2026-04-11T06:37:47.026Z</time></trkpt><trkpt lat="40.229443" lon="17.9480563"><ele>37.0</ele><time>2026-04-11T06:37:48.025Z</time></trkpt><trkpt lat="40.2293034" lon="17.9478216"><ele>37.0</ele><time>2026-04-11T06:37:49.025Z</time></trkpt><trkpt lat="40.2291509" lon="17.9475714"><ele>37.0</ele><time>2026-04-11T06:37:50.028Z</time></trkpt><trkpt lat="40.2290135" lon="17.9473454"><ele>37.5</ele><time>2026-04-11T06:37:51.027Z</time></trkpt><trkpt lat="40.2288792" lon="17.9470871"><ele>38.0</ele><time>2026-04-11T06:37:52.029Z</time></trkpt><trkpt lat="40.2287349" lon="17.946854"><ele>37.5</ele><time>2026-04-11T06:37:53.031Z</time></trkpt><trkpt lat="40.2285892" lon="17.9466034"><ele>37.0</ele><time>2026-04-11T06:37:54.023Z</time></trkpt><trkpt lat="40.2284514" lon="17.9463682"><ele>37.0</ele><time>2026-04-11T06:37:55.026Z</time></trkpt><trkpt lat="40.2283052" lon="17.9461269"><ele>37.0</ele><time>2026-04-11T06:37:56.03Z</time></trkpt><trkpt lat="40.2281638" lon="17.9458854"><ele>35.0</ele><time>2026-04-11T06:37:57.031Z</time></trkpt><trkpt lat="40.2280177" lon="17.945642"><ele>33.0</ele><time>2026-04-11T06:37:58.03Z</time></trkpt><trkpt lat="40.2278787" lon="17.9454055"><ele>33.0</ele><time>2026-04-11T06:37:59.056Z</time></trkpt><trkpt lat="40.2277358" lon="17.9451515"><ele>33.0</ele><time>2026-04-11T06:38:00.024Z</time></trkpt><trkpt lat="40.2275896" lon="17.9448909"><ele>31.5</ele><time>2026-04-11T06:38:01.03Z</time></trkpt><trkpt lat="40.2274551" lon="17.9446502"><ele>30.0</ele><time>2026-04-11T06:38:02.026Z</time></trkpt><trkpt lat="40.2273218" lon="17.9444175"><ele>32.0</ele><time>2026-04-11T06:38:03.053Z</time></trkpt><trkpt lat="40.2271908" lon="17.9441799"><ele>34.0</ele><time>2026-04-11T06:38:04.027Z</time></trkpt><trkpt lat="40.2270505" lon="17.9439454"><ele>34.0</ele><time>2026-04-11T06:38:05.027Z</time></trkpt><trkpt lat="40.2269156" lon="17.9437064"><ele>34.0</ele><time>2026-04-11T06:38:06.027Z</time></trkpt><trkpt lat="40.2267904" lon="17.9434724"><ele>34.0</ele><time>2026-04-11T06:38:07.03Z</time></trkpt><trkpt lat="40.2266544" lon="17.9432454"><ele>34.0</ele><time>2026-04-11T06:38:08.054Z</time></trkpt><trkpt lat="40.2265297" lon="17.9430249"><ele>34.0</ele><time>2026-04-11T06:38:09.011Z</time></trkpt><trkpt lat="40.226409" lon="17.9428148"><ele>34.0</ele><time>2026-04-11T06:38:10.014Z</time></trkpt><trkpt lat="40.2262992" lon="17.9426114"><ele>34.0</ele><time>2026-04-11T06:38:11.023Z</time></trkpt><trkpt lat="40.2261928" lon="17.9424033"><ele>34.0</ele><time>2026-04-11T06:38:12.064Z</time></trkpt><trkpt lat="40.226086" lon="17.9422149"><ele>34.0</ele><time>2026-04-11T06:38:13.021Z</time></trkpt><trkpt lat="40.2259708" lon="17.9420276"><ele>34.0</ele><time>2026-04-11T06:38:14.018Z</time></trkpt><trkpt lat="40.2258638" lon="17.9418368"><ele>34.0</ele><time>2026-04-11T06:38:15.007Z</time></trkpt><trkpt lat="40.2257712" lon="17.941671"><ele>34.0</ele><time>2026-04-11T06:38:16.044Z</time></trkpt><trkpt lat="40.22567" lon="17.9414934"><ele>32.66666666666667</ele><time>2026-04-11T06:38:17.014Z</time></trkpt><trkpt lat="40.2255741" lon="17.9413213"><ele>31.333333333333336</ele><time>2026-04-11T06:38:18.012Z</time></trkpt><trkpt lat="40.2254658" lon="17.9411294"><ele>30.0</ele><time>2026-04-11T06:38:19.026Z</time></trkpt><trkpt lat="40.2253724" lon="17.9409484"><ele>29.333333333333336</ele><time>2026-04-11T06:38:20.028Z</time></trkpt><trkpt lat="40.2252788" lon="17.9407754"><ele>28.666666666666668</ele><time>2026-04-11T06:38:21.032Z</time></trkpt><trkpt lat="40.2251903" lon="17.9406171"><ele>28.0</ele><time>2026-04-11T06:38:22.038Z</time></trkpt><trkpt lat="40.2251049" lon="17.9404593"><ele>28.0</ele><time>2026-04-11T06:38:23.088Z</time></trkpt><trkpt lat="40.2250174" lon="17.940303"><ele>28.0</ele><time>2026-04-11T06:38:24.015Z</time></trkpt><trkpt lat="40.2249557" lon="17.9401531"><ele>28.0</ele><time>2026-04-11T06:38:25.101Z</time></trkpt><trkpt lat="40.2248804" lon="17.9400263"><ele>28.0</ele><time>2026-04-11T06:38:26.035Z</time></trkpt><trkpt lat="40.2248231" lon="17.9399153"><ele>27.500000000000004</ele><time>2026-04-11T06:38:27.054Z</time></trkpt><trkpt lat="40.2247694" lon="17.9398337"><ele>27.0</ele><time>2026-04-11T06:38:28.021Z</time></trkpt><trkpt lat="40.2247239" lon="17.9397347"><ele>26.5</ele><time>2026-04-11T06:38:29.008Z</time></trkpt><trkpt lat="40.2247091" lon="17.9396468"><ele>26.0</ele><time>2026-04-11T06:38:30.043Z</time></trkpt><trkpt lat="40.2247141" lon="17.9395516"><ele>25.500000000000004</ele><time>2026-04-11T06:38:31.05Z</time></trkpt><trkpt lat="40.2247276" lon="17.9394503"><ele>25.0</ele><time>2026-04-11T06:38:32.027Z</time></trkpt><trkpt lat="40.2247374" lon="17.9393348"><ele>25.0</ele><time>2026-04-11T06:38:33.012Z</time></trkpt><trkpt lat="40.2247654" lon="17.9391952"><ele>25.0</ele><time>2026-04-11T06:38:34.015Z</time></trkpt><trkpt lat="40.2248179" lon="17.9390887"><ele>25.0</ele><time>2026-04-11T06:38:35.049Z</time></trkpt><trkpt lat="40.2248606" lon="17.9389697"><ele>25.0</ele><time>2026-04-11T06:38:36.029Z</time></trkpt><trkpt lat="40.224911" lon="17.9388494"><ele>25.0</ele><time>2026-04-11T06:38:37.013Z</time></trkpt><trkpt lat="40.2250132" lon="17.9387704"><ele>25.25</ele><time>2026-04-11T06:38:38.052Z</time></trkpt><trkpt lat="40.2251046" lon="17.9386888"><ele>25.5</ele><time>2026-04-11T06:38:39.031Z</time></trkpt><trkpt lat="40.2252132" lon="17.9385983"><ele>25.75</ele><time>2026-04-11T06:38:40.033Z</time></trkpt><trkpt lat="40.2253526" lon="17.9385152"><ele>26.0</ele><time>2026-04-11T06:38:41.026Z</time></trkpt><trkpt lat="40.2254727" lon="17.9384183"><ele>26.0</ele><time>2026-04-11T06:38:42.022Z</time></trkpt><trkpt lat="40.2255962" lon="17.9383159"><ele>26.0</ele><time>2026-04-11T06:38:43.028Z</time></trkpt><trkpt lat="40.2257258" lon="17.9382068"><ele>26.0</ele><time>2026-04-11T06:38:44.029Z</time></trkpt><trkpt lat="40.2258625" lon="17.9380901"><ele>26.0</ele><time>2026-04-11T06:38:45.029Z</time></trkpt><trkpt lat="40.2260105" lon="17.9379826"><ele>26.0</ele><time>2026-04-11T06:38:46.028Z</time></trkpt><trkpt lat="40.2261514" lon="17.9378649"><ele>26.0</ele><time>2026-04-11T06:38:47.02Z</time></trkpt><trkpt lat="40.2263414" lon="17.9377318"><ele>26.0</ele><time>2026-04-11T06:38:48.029Z</time></trkpt><trkpt lat="40.2265198" lon="17.9376272"><ele>26.0</ele><time>2026-04-11T06:38:49.06Z</time></trkpt><trkpt lat="40.226676" lon="17.9374986"><ele>26.0</ele><time>2026-04-11T06:38:50.014Z</time></trkpt><trkpt lat="40.2268232" lon="17.9373697"><ele>26.0</ele><time>2026-04-11T06:38:51.018Z</time></trkpt><trkpt lat="40.2269809" lon="17.9372261"><ele>26.0</ele><time>2026-04-11T06:38:52.051Z</time></trkpt><trkpt lat="40.2271245" lon="17.9370864"><ele>26.0</ele><time>2026-04-11T06:38:53.027Z</time></trkpt><trkpt lat="40.2272917" lon="17.9369569"><ele>26.333333333333332</ele><time>2026-04-11T06:38:54.023Z</time></trkpt><trkpt lat="40.2274689" lon="17.9368381"><ele>26.666666666666664</ele><time>2026-04-11T06:38:55.055Z</time></trkpt><trkpt lat="40.2276328" lon="17.9367042"><ele>27.0</ele><time>2026-04-11T06:38:56.01Z</time></trkpt><trkpt lat="40.2277779" lon="17.9365562"><ele>27.333333333333336</ele><time>2026-04-11T06:38:57.029Z</time></trkpt><trkpt lat="40.2279338" lon="17.9364316"><ele>27.666666666666668</ele><time>2026-04-11T06:38:58.023Z</time></trkpt><trkpt lat="40.2280965" lon="17.9363087"><ele>28.0</ele><time>2026-04-11T06:38:59.03Z</time></trkpt><trkpt lat="40.2282377" lon="17.9361789"><ele>27.333333333333336</ele><time>2026-04-11T06:39:00.031Z</time></trkpt><trkpt lat="40.2283925" lon="17.9360497"><ele>26.666666666666664</ele><time>2026-04-11T06:39:01.012Z</time></trkpt><trkpt lat="40.2285571" lon="17.9359125"><ele>26.0</ele><time>2026-04-11T06:39:02.017Z</time></trkpt><trkpt lat="40.2287003" lon="17.9357698"><ele>25.666666666666664</ele><time>2026-04-11T06:39:03.021Z</time></trkpt><trkpt lat="40.2288618" lon="17.935632"><ele>25.333333333333336</ele><time>2026-04-11T06:39:04.029Z</time></trkpt><trkpt lat="40.2290088" lon="17.9354895"><ele>25.0</ele><time>2026-04-11T06:39:05.028Z</time></trkpt><trkpt lat="40.22916" lon="17.9353587"><ele>25.0</ele><time>2026-04-11T06:39:06.025Z</time></trkpt><trkpt lat="40.2293238" lon="17.9352233"><ele>25.0</ele><time>2026-04-11T06:39:07.01Z</time></trkpt><trkpt lat="40.2294981" lon="17.9350822"><ele>25.0</ele><time>2026-04-11T06:39:08.027Z</time></trkpt><trkpt lat="40.2296666" lon="17.9349546"><ele>25.0</ele><time>2026-04-11T06:39:09.028Z</time></trkpt><trkpt lat="40.2298337" lon="17.9348254"><ele>25.0</ele><time>2026-04-11T06:39:10.029Z</time></trkpt><trkpt lat="40.2299975" lon="17.934688"><ele>25.0</ele><time>2026-04-11T06:39:11.013Z</time></trkpt><trkpt lat="40.2301561" lon="17.9345556"><ele>25.0</ele><time>2026-04-11T06:39:12.019Z</time></trkpt><trkpt lat="40.2303245" lon="17.9344272"><ele>25.0</ele><time>2026-04-11T06:39:13.028Z</time></trkpt><trkpt lat="40.2304711" lon="17.9342855"><ele>25.0</ele><time>2026-04-11T06:39:14.027Z</time></trkpt><trkpt lat="40.2306311" lon="17.9341679"><ele>24.333333333333336</ele><time>2026-04-11T06:39:15.025Z</time></trkpt><trkpt lat="40.2307949" lon="17.9340357"><ele>23.666666666666668</ele><time>2026-04-11T06:39:16.034Z</time></trkpt><trkpt lat="40.2309661" lon="17.9339301"><ele>23.0</ele><time>2026-04-11T06:39:17.024Z</time></trkpt><trkpt lat="40.2311358" lon="17.9338186"><ele>23.0</ele><time>2026-04-11T06:39:18.026Z</time></trkpt><trkpt lat="40.231288" lon="17.9336903"><ele>23.0</ele><time>2026-04-11T06:39:19.028Z</time></trkpt><trkpt lat="40.2314468" lon="17.93356"><ele>23.0</ele><time>2026-04-11T06:39:20.022Z</time></trkpt><trkpt lat="40.2316053" lon="17.9334339"><ele>22.666666666666668</ele><time>2026-04-11T06:39:21.015Z</time></trkpt><trkpt lat="40.2317537" lon="17.9333206"><ele>22.333333333333332</ele><time>2026-04-11T06:39:22.017Z</time></trkpt><trkpt lat="40.2319132" lon="17.9332094"><ele>22.0</ele><time>2026-04-11T06:39:23.028Z</time></trkpt><trkpt lat="40.2320926" lon="17.9331247"><ele>22.0</ele><time>2026-04-11T06:39:24.029Z</time></trkpt><trkpt lat="40.2322579" lon="17.9330341"><ele>22.0</ele><time>2026-04-11T06:39:25.03Z</time></trkpt><trkpt lat="40.2324422" lon="17.932955"><ele>22.0</ele><time>2026-04-11T06:39:26.029Z</time></trkpt><trkpt lat="40.2326224" lon="17.9329097"><ele>22.333333333333332</ele><time>2026-04-11T06:39:27.031Z</time></trkpt><trkpt lat="40.2327983" lon="17.9328712"><ele>22.666666666666668</ele><time>2026-04-11T06:39:28.11Z</time></trkpt><trkpt lat="40.2329645" lon="17.9328301"><ele>23.0</ele><time>2026-04-11T06:39:29.051Z</time></trkpt><trkpt lat="40.2331396" lon="17.9328073"><ele>23.0</ele><time>2026-04-11T06:39:30.011Z</time></trkpt><trkpt lat="40.2333325" lon="17.932824"><ele>23.0</ele><time>2026-04-11T06:39:31.045Z</time></trkpt><trkpt lat="40.2335071" lon="17.9328312"><ele>23.0</ele><time>2026-04-11T06:39:32.055Z</time></trkpt><trkpt lat="40.2336867" lon="17.9328534"><ele>23.0</ele><time>2026-04-11T06:39:33.05Z</time></trkpt><trkpt lat="40.2338668" lon="17.9328712"><ele>23.0</ele><time>2026-04-11T06:39:34.009Z</time></trkpt><trkpt lat="40.2340534" lon="17.932912"><ele>23.0</ele><time>2026-04-11T06:39:35.046Z</time></trkpt><trkpt lat="40.2342346" lon="17.9329391"><ele>23.666666666666668</ele><time>2026-04-11T06:39:36.052Z</time></trkpt><trkpt lat="40.2344102" lon="17.9329613"><ele>24.333333333333336</ele><time>2026-04-11T06:39:37.052Z</time></trkpt><trkpt lat="40.2345872" lon="17.9329887"><ele>25.0</ele><time>2026-04-11T06:39:38.025Z</time></trkpt><trkpt lat="40.2347637" lon="17.9330102"><ele>24.666666666666668</ele><time>2026-04-11T06:39:39.031Z</time></trkpt><trkpt lat="40.2349462" lon="17.9330258"><ele>24.333333333333336</ele><time>2026-04-11T06:39:40.052Z</time></trkpt><trkpt lat="40.2351326" lon="17.9330402"><ele>24.0</ele><time>2026-04-11T06:39:41.018Z</time></trkpt><trkpt lat="40.2353095" lon="17.9330711"><ele>24.0</ele><time>2026-04-11T06:39:42.049Z</time></trkpt><trkpt lat="40.235503" lon="17.9331189"><ele>24.0</ele><time>2026-04-11T06:39:43.019Z</time></trkpt><trkpt lat="40.235693" lon="17.9331435"><ele>24.0</ele><time>2026-04-11T06:39:44.01Z</time></trkpt><trkpt lat="40.2358887" lon="17.9331585"><ele>24.0</ele><time>2026-04-11T06:39:45.011Z</time></trkpt><trkpt lat="40.2360737" lon="17.9331887"><ele>24.0</ele><time>2026-04-11T06:39:46.051Z</time></trkpt><trkpt lat="40.2362685" lon="17.9332188"><ele>24.0</ele><time>2026-04-11T06:39:47.053Z</time></trkpt><trkpt lat="40.2364623" lon="17.9332459"><ele>24.0</ele><time>2026-04-11T06:39:48.008Z</time></trkpt><trkpt lat="40.2366434" lon="17.9332648"><ele>24.0</ele><time>2026-04-11T06:39:49.025Z</time></trkpt><trkpt lat="40.2368408" lon="17.9332953"><ele>24.0</ele><time>2026-04-11T06:39:50.029Z</time></trkpt><trkpt lat="40.2370283" lon="17.9333118"><ele>24.0</ele><time>2026-04-11T06:39:51.026Z</time></trkpt><trkpt lat="40.2372257" lon="17.9333353"><ele>24.0</ele><time>2026-04-11T06:39:52.025Z</time></trkpt><trkpt lat="40.2374228" lon="17.9333579"><ele>24.0</ele><time>2026-04-11T06:39:53.028Z</time></trkpt><trkpt lat="40.2376201" lon="17.9333836"><ele>24.0</ele><time>2026-04-11T06:39:54.017Z</time></trkpt><trkpt lat="40.2378112" lon="17.9334256"><ele>24.0</ele><time>2026-04-11T06:39:55.014Z</time></trkpt><trkpt lat="40.2380105" lon="17.9334521"><ele>24.0</ele><time>2026-04-11T06:39:56.011Z</time></trkpt><trkpt lat="40.2382193" lon="17.9334788"><ele>24.666666666666664</ele><time>2026-04-11T06:39:57.021Z</time></trkpt><trkpt lat="40.238421" lon="17.9335031"><ele>25.333333333333332</ele><time>2026-04-11T06:39:58.029Z</time></trkpt><trkpt lat="40.2386226" lon="17.9335301"><ele>26.0</ele><time>2026-04-11T06:39:59.019Z</time></trkpt><trkpt lat="40.2388326" lon="17.9335604"><ele>26.333333333333332</ele><time>2026-04-11T06:40:00.023Z</time></trkpt><trkpt lat="40.2390393" lon="17.9335862"><ele>26.666666666666664</ele><time>2026-04-11T06:40:01.027Z</time></trkpt><trkpt lat="40.2392467" lon="17.9336189"><ele>27.0</ele><time>2026-04-11T06:40:02.027Z</time></trkpt><trkpt lat="40.2394515" lon="17.9336479"><ele>27.0</ele><time>2026-04-11T06:40:03.015Z</time></trkpt><trkpt lat="40.239653" lon="17.933667"><ele>27.0</ele><time>2026-04-11T06:40:04.046Z</time></trkpt><trkpt lat="40.2398416" lon="17.9336871"><ele>27.0</ele><time>2026-04-11T06:40:05.027Z</time></trkpt><trkpt lat="40.2400367" lon="17.9336931"><ele>27.333333333333336</ele><time>2026-04-11T06:40:06.05Z</time></trkpt><trkpt lat="40.2402278" lon="17.9336873"><ele>27.666666666666668</ele><time>2026-04-11T06:40:07.049Z</time></trkpt><trkpt lat="40.2404172" lon="17.9336501"><ele>28.0</ele><time>2026-04-11T06:40:08.047Z</time></trkpt><trkpt lat="40.240614" lon="17.9336017"><ele>28.333333333333336</ele><time>2026-04-11T06:40:09.022Z</time></trkpt><trkpt lat="40.2408154" lon="17.9335293"><ele>28.666666666666664</ele><time>2026-04-11T06:40:10.019Z</time></trkpt><trkpt lat="40.241016" lon="17.9334477"><ele>29.0</ele><time>2026-04-11T06:40:11.019Z</time></trkpt><trkpt lat="40.2412232" lon="17.933376"><ele>29.0</ele><time>2026-04-11T06:40:12.025Z</time></trkpt><trkpt lat="40.2414366" lon="17.9333028"><ele>29.0</ele><time>2026-04-11T06:40:13.021Z</time></trkpt><trkpt lat="40.241653" lon="17.9332244"><ele>29.0</ele><time>2026-04-11T06:40:14.044Z</time></trkpt><trkpt lat="40.2418802" lon="17.933143"><ele>28.5</ele><time>2026-04-11T06:40:15.026Z</time></trkpt><trkpt lat="40.2421113" lon="17.9330555"><ele>28.0</ele><time>2026-04-11T06:40:16.053Z</time></trkpt><trkpt lat="40.2423406" lon="17.9329679"><ele>27.0</ele><time>2026-04-11T06:40:17.057Z</time></trkpt><trkpt lat="40.2425784" lon="17.9328606"><ele>26.0</ele><time>2026-04-11T06:40:18.028Z</time></trkpt><trkpt lat="40.2428274" lon="17.9327852"><ele>26.0</ele><time>2026-04-11T06:40:19.05Z</time></trkpt><trkpt lat="40.2430724" lon="17.9327008"><ele>26.0</ele><time>2026-04-11T06:40:20.02Z</time></trkpt><trkpt lat="40.2433312" lon="17.9326021"><ele>27.5</ele><time>2026-04-11T06:40:21.022Z</time></trkpt><trkpt lat="40.2435828" lon="17.9325052"><ele>29.0</ele><time>2026-04-11T06:40:22.018Z</time></trkpt><trkpt lat="40.2438422" lon="17.9324023"><ele>28.0</ele><time>2026-04-11T06:40:23.021Z</time></trkpt><trkpt lat="40.2441052" lon="17.9323044"><ele>27.0</ele><time>2026-04-11T06:40:24.026Z</time></trkpt><trkpt lat="40.2443764" lon="17.9322208"><ele>27.0</ele><time>2026-04-11T06:40:25.053Z</time></trkpt><trkpt lat="40.2446347" lon="17.9321202"><ele>27.0</ele><time>2026-04-11T06:40:26.021Z</time></trkpt><trkpt lat="40.244906" lon="17.9320441"><ele>25.5</ele><time>2026-04-11T06:40:27.022Z</time></trkpt><trkpt lat="40.2451761" lon="17.9319418"><ele>24.0</ele><time>2026-04-11T06:40:28.025Z</time></trkpt><trkpt lat="40.2454481" lon="17.9318442"><ele>23.5</ele><time>2026-04-11T06:40:29.024Z</time></trkpt><trkpt lat="40.2457159" lon="17.9317546"><ele>23.0</ele><time>2026-04-11T06:40:30.023Z</time></trkpt><trkpt lat="40.2459773" lon="17.9316613"><ele>22.5</ele><time>2026-04-11T06:40:31.026Z</time></trkpt><trkpt lat="40.2462179" lon="17.9315715"><ele>22.0</ele><time>2026-04-11T06:40:32.03Z</time></trkpt><trkpt lat="40.2464596" lon="17.9314895"><ele>22.5</ele><time>2026-04-11T06:40:33.026Z</time></trkpt><trkpt lat="40.2466945" lon="17.9314365"><ele>23.0</ele><time>2026-04-11T06:40:34.03Z</time></trkpt><trkpt lat="40.2469313" lon="17.9314008"><ele>23.0</ele><time>2026-04-11T06:40:35.057Z</time></trkpt><trkpt lat="40.2471665" lon="17.9313789"><ele>23.0</ele><time>2026-04-11T06:40:36.015Z</time></trkpt><trkpt lat="40.2474081" lon="17.9313834"><ele>23.0</ele><time>2026-04-11T06:40:37.021Z</time></trkpt><trkpt lat="40.2476531" lon="17.9313907"><ele>23.0</ele><time>2026-04-11T06:40:38.015Z</time></trkpt><trkpt lat="40.2478907" lon="17.9314265"><ele>23.0</ele><time>2026-04-11T06:40:39.018Z</time></trkpt><trkpt lat="40.2481345" lon="17.9314622"><ele>23.0</ele><time>2026-04-11T06:40:40.019Z</time></trkpt><trkpt lat="40.2483835" lon="17.9315329"><ele>23.0</ele><time>2026-04-11T06:40:41.022Z</time></trkpt><trkpt lat="40.2486127" lon="17.9315965"><ele>23.0</ele><time>2026-04-11T06:40:42.052Z</time></trkpt><trkpt lat="40.2488589" lon="17.9316714"><ele>23.0</ele><time>2026-04-11T06:40:43.01Z</time></trkpt><trkpt lat="40.2491067" lon="17.9317498"><ele>23.0</ele><time>2026-04-11T06:40:44.015Z</time></trkpt><trkpt lat="40.2493515" lon="17.9318265"><ele>23.0</ele><time>2026-04-11T06:40:45.013Z</time></trkpt><trkpt lat="40.2495839" lon="17.9319088"><ele>23.0</ele><time>2026-04-11T06:40:46.027Z</time></trkpt><trkpt lat="40.2498173" lon="17.9319793"><ele>23.666666666666668</ele><time>2026-04-11T06:40:47.028Z</time></trkpt><trkpt lat="40.2500399" lon="17.9320491"><ele>24.333333333333336</ele><time>2026-04-11T06:40:48.012Z</time></trkpt><trkpt lat="40.2502327" lon="17.932128"><ele>25.0</ele><time>2026-04-11T06:40:49.021Z</time></trkpt><trkpt lat="40.2504186" lon="17.9322038"><ele>25.0</ele><time>2026-04-11T06:40:50.031Z</time></trkpt><trkpt lat="40.2506144" lon="17.932264"><ele>25.0</ele><time>2026-04-11T06:40:51.012Z</time></trkpt><trkpt lat="40.2507905" lon="17.9323241"><ele>25.0</ele><time>2026-04-11T06:40:52.026Z</time></trkpt><trkpt lat="40.2509594" lon="17.9323796"><ele>25.25</ele><time>2026-04-11T06:40:53.031Z</time></trkpt><trkpt lat="40.2511207" lon="17.9324263"><ele>25.5</ele><time>2026-04-11T06:40:54.023Z</time></trkpt><trkpt lat="40.2512632" lon="17.9324716"><ele>25.75</ele><time>2026-04-11T06:40:55.023Z</time></trkpt><trkpt lat="40.2513964" lon="17.9325115"><ele>26.0</ele><time>2026-04-11T06:40:56.025Z</time></trkpt><trkpt lat="40.2515264" lon="17.9325569"><ele>26.0</ele><time>2026-04-11T06:40:57.027Z</time></trkpt><trkpt lat="40.2516362" lon="17.9325947"><ele>26.0</ele><time>2026-04-11T06:40:58.025Z</time></trkpt><trkpt lat="40.2517396" lon="17.9326526"><ele>26.0</ele><time>2026-04-11T06:40:59.027Z</time></trkpt><trkpt lat="40.2518328" lon="17.9327195"><ele>26.0</ele><time>2026-04-11T06:41:00.026Z</time></trkpt><trkpt lat="40.2518897" lon="17.9327752"><ele>26.0</ele><time>2026-04-11T06:41:01.019Z</time></trkpt><trkpt lat="40.2519419" lon="17.9328271"><ele>26.0</ele><time>2026-04-11T06:41:02.012Z</time></trkpt><trkpt lat="40.2519894" lon="17.9328858"><ele>26.0</ele><time>2026-04-11T06:41:09.017Z</time></trkpt><trkpt lat="40.2521162" lon="17.9328474"><ele>26.0</ele><time>2026-04-11T06:41:12.021Z</time></trkpt><trkpt lat="40.2521752" lon="17.9327827"><ele>26.0</ele><time>2026-04-11T06:41:13.029Z</time></trkpt><trkpt lat="40.2522526" lon="17.9326954"><ele>26.0</ele><time>2026-04-11T06:41:14.059Z</time></trkpt><trkpt lat="40.2523439" lon="17.9325791"><ele>26.0</ele><time>2026-04-11T06:41:15.015Z</time></trkpt><trkpt lat="40.2524283" lon="17.932469"><ele>26.0</ele><time>2026-04-11T06:41:16.017Z</time></trkpt><trkpt lat="40.2525539" lon="17.9323064"><ele>26.0</ele><time>2026-04-11T06:41:17.03Z</time></trkpt><trkpt lat="40.2526534" lon="17.9321691"><ele>26.0</ele><time>2026-04-11T06:41:18.036Z</time></trkpt><trkpt lat="40.2527638" lon="17.9320132"><ele>26.0</ele><time>2026-04-11T06:41:19.024Z</time></trkpt><trkpt lat="40.2528846" lon="17.9318628"><ele>26.0</ele><time>2026-04-11T06:41:20.032Z</time></trkpt><trkpt lat="40.2530088" lon="17.9316942"><ele>26.0</ele><time>2026-04-11T06:41:21.026Z</time></trkpt><trkpt lat="40.253134" lon="17.9315236"><ele>25.333333333333332</ele><time>2026-04-11T06:41:22.024Z</time></trkpt><trkpt lat="40.2532603" lon="17.9313495"><ele>24.666666666666664</ele><time>2026-04-11T06:41:23.024Z</time></trkpt><trkpt lat="40.2533984" lon="17.9311543"><ele>24.0</ele><time>2026-04-11T06:41:24.032Z</time></trkpt><trkpt lat="40.2535419" lon="17.9309726"><ele>24.666666666666664</ele><time>2026-04-11T06:41:25.027Z</time></trkpt><trkpt lat="40.2536806" lon="17.930783"><ele>25.333333333333332</ele><time>2026-04-11T06:41:26.024Z</time></trkpt><trkpt lat="40.2538257" lon="17.930578"><ele>26.0</ele><time>2026-04-11T06:41:27.026Z</time></trkpt><trkpt lat="40.2539808" lon="17.9303728"><ele>26.0</ele><time>2026-04-11T06:41:28.05Z</time></trkpt><trkpt lat="40.2541447" lon="17.9301603"><ele>26.0</ele><time>2026-04-11T06:41:29.044Z</time></trkpt><trkpt lat="40.254308" lon="17.9299457"><ele>26.0</ele><time>2026-04-11T06:41:30.019Z</time></trkpt><trkpt lat="40.2544658" lon="17.9297225"><ele>26.0</ele><time>2026-04-11T06:41:31.049Z</time></trkpt><trkpt lat="40.2546291" lon="17.9295026"><ele>25.5</ele><time>2026-04-11T06:41:32.02Z</time></trkpt><trkpt lat="40.2547894" lon="17.9292733"><ele>25.0</ele><time>2026-04-11T06:41:33.05Z</time></trkpt><trkpt lat="40.2549539" lon="17.9290529"><ele>24.0</ele><time>2026-04-11T06:41:34.01Z</time></trkpt><trkpt lat="40.2551226" lon="17.9288542"><ele>23.0</ele><time>2026-04-11T06:41:35.025Z</time></trkpt><trkpt lat="40.2552763" lon="17.9286248"><ele>23.0</ele><time>2026-04-11T06:41:36.023Z</time></trkpt><trkpt lat="40.2554295" lon="17.928418"><ele>23.0</ele><time>2026-04-11T06:41:37.026Z</time></trkpt><trkpt lat="40.2555793" lon="17.9282194"><ele>23.0</ele><time>2026-04-11T06:41:38.054Z</time></trkpt><trkpt lat="40.2557244" lon="17.9280416"><ele>22.666666666666668</ele><time>2026-04-11T06:41:39.048Z</time></trkpt><trkpt lat="40.2558653" lon="17.927858"><ele>22.333333333333332</ele><time>2026-04-11T06:41:40.048Z</time></trkpt><trkpt lat="40.2559972" lon="17.9276807"><ele>22.0</ele><time>2026-04-11T06:41:41.023Z</time></trkpt><trkpt lat="40.2561313" lon="17.9275261"><ele>22.0</ele><time>2026-04-11T06:41:42.047Z</time></trkpt><trkpt lat="40.2562496" lon="17.9273666"><ele>22.0</ele><time>2026-04-11T06:41:43.049Z</time></trkpt><trkpt lat="40.2563683" lon="17.9272033"><ele>22.0</ele><time>2026-04-11T06:41:44.009Z</time></trkpt><trkpt lat="40.2564738" lon="17.9270558"><ele>22.0</ele><time>2026-04-11T06:41:45.048Z</time></trkpt><trkpt lat="40.2565788" lon="17.9269162"><ele>22.0</ele><time>2026-04-11T06:41:46.021Z</time></trkpt><trkpt lat="40.2566919" lon="17.9267803"><ele>22.0</ele><time>2026-04-11T06:41:47.022Z</time></trkpt><trkpt lat="40.2567961" lon="17.9266402"><ele>23.0</ele><time>2026-04-11T06:41:48.008Z</time></trkpt><trkpt lat="40.2569061" lon="17.9264891"><ele>24.0</ele><time>2026-04-11T06:41:49.02Z</time></trkpt><trkpt lat="40.2570077" lon="17.9263481"><ele>25.0</ele><time>2026-04-11T06:41:50.056Z</time></trkpt><trkpt lat="40.2571123" lon="17.9261942"><ele>25.0</ele><time>2026-04-11T06:41:51.02Z</time></trkpt><trkpt lat="40.2572121" lon="17.9260693"><ele>25.0</ele><time>2026-04-11T06:41:52.044Z</time></trkpt><trkpt lat="40.2573141" lon="17.9259306"><ele>25.0</ele><time>2026-04-11T06:41:53.01Z</time></trkpt><trkpt lat="40.2574256" lon="17.9257787"><ele>25.0</ele><time>2026-04-11T06:41:54.023Z</time></trkpt><trkpt lat="40.2575446" lon="17.9256234"><ele>24.666666666666668</ele><time>2026-04-11T06:41:55.032Z</time></trkpt><trkpt lat="40.2576728" lon="17.9254439"><ele>24.333333333333336</ele><time>2026-04-11T06:41:56.022Z</time></trkpt><trkpt lat="40.257812" lon="17.925272"><ele>24.0</ele><time>2026-04-11T06:41:57.021Z</time></trkpt><trkpt lat="40.2579565" lon="17.9250926"><ele>24.0</ele><time>2026-04-11T06:41:58.022Z</time></trkpt><trkpt lat="40.2581068" lon="17.9248991"><ele>24.0</ele><time>2026-04-11T06:41:59.024Z</time></trkpt><trkpt lat="40.2582625" lon="17.9246851"><ele>24.0</ele><time>2026-04-11T06:42:00.021Z</time></trkpt><trkpt lat="40.2584165" lon="17.9244892"><ele>24.0</ele><time>2026-04-11T06:42:01.023Z</time></trkpt><trkpt lat="40.2585704" lon="17.9242843"><ele>24.0</ele><time>2026-04-11T06:42:02.034Z</time></trkpt><trkpt lat="40.2587362" lon="17.9240828"><ele>24.0</ele><time>2026-04-11T06:42:03.038Z</time></trkpt><trkpt lat="40.2588927" lon="17.9238737"><ele>24.0</ele><time>2026-04-11T06:42:04.016Z</time></trkpt><trkpt lat="40.2590426" lon="17.9236546"><ele>24.0</ele><time>2026-04-11T06:42:05.044Z</time></trkpt><trkpt lat="40.2591999" lon="17.9234491"><ele>24.0</ele><time>2026-04-11T06:42:06.024Z</time></trkpt><trkpt lat="40.2593545" lon="17.9232288"><ele>24.0</ele><time>2026-04-11T06:42:07.025Z</time></trkpt><trkpt lat="40.2595144" lon="17.9230129"><ele>24.0</ele><time>2026-04-11T06:42:08.027Z</time></trkpt><trkpt lat="40.2596783" lon="17.9227902"><ele>24.0</ele><time>2026-04-11T06:42:09.029Z</time></trkpt><trkpt lat="40.2598401" lon="17.9225736"><ele>24.0</ele><time>2026-04-11T06:42:10.012Z</time></trkpt><trkpt lat="40.2600043" lon="17.9223615"><ele>24.0</ele><time>2026-04-11T06:42:11.014Z</time></trkpt><trkpt lat="40.2601581" lon="17.9221468"><ele>24.0</ele><time>2026-04-11T06:42:12.021Z</time></trkpt><trkpt lat="40.2603196" lon="17.9219379"><ele>24.5</ele><time>2026-04-11T06:42:13.021Z</time></trkpt><trkpt lat="40.2604812" lon="17.9217214"><ele>25.0</ele><time>2026-04-11T06:42:14.008Z</time></trkpt><trkpt lat="40.2606422" lon="17.9215026"><ele>25.5</ele><time>2026-04-11T06:42:15.024Z</time></trkpt><trkpt lat="40.2608011" lon="17.9212673"><ele>26.0</ele><time>2026-04-11T06:42:16.062Z</time></trkpt><trkpt lat="40.2609631" lon="17.9210381"><ele>26.0</ele><time>2026-04-11T06:42:17.058Z</time></trkpt><trkpt lat="40.2611317" lon="17.92084"><ele>26.0</ele><time>2026-04-11T06:42:18.022Z</time></trkpt><trkpt lat="40.2612925" lon="17.920621"><ele>26.0</ele><time>2026-04-11T06:42:19.042Z</time></trkpt><trkpt lat="40.2614528" lon="17.9204044"><ele>26.0</ele><time>2026-04-11T06:42:20.005Z</time></trkpt><trkpt lat="40.2616176" lon="17.9201879"><ele>26.5</ele><time>2026-04-11T06:42:21.018Z</time></trkpt><trkpt lat="40.2617747" lon="17.919974"><ele>27.0</ele><time>2026-04-11T06:42:22.012Z</time></trkpt><trkpt lat="40.2619374" lon="17.9197736"><ele>27.0</ele><time>2026-04-11T06:42:23.013Z</time></trkpt><trkpt lat="40.2620833" lon="17.9195593"><ele>27.0</ele><time>2026-04-11T06:42:24.023Z</time></trkpt><trkpt lat="40.262239" lon="17.9193395"><ele>27.0</ele><time>2026-04-11T06:42:25.032Z</time></trkpt><trkpt lat="40.2623953" lon="17.9191351"><ele>26.666666666666664</ele><time>2026-04-11T06:42:26.025Z</time></trkpt><trkpt lat="40.2625474" lon="17.9189264"><ele>26.333333333333332</ele><time>2026-04-11T06:42:27.024Z</time></trkpt><trkpt lat="40.2626964" lon="17.9187262"><ele>26.0</ele><time>2026-04-11T06:42:28.053Z</time></trkpt><trkpt lat="40.2628472" lon="17.9185258"><ele>26.333333333333332</ele><time>2026-04-11T06:42:29.016Z</time></trkpt><trkpt lat="40.2629905" lon="17.9183297"><ele>26.666666666666664</ele><time>2026-04-11T06:42:30.027Z</time></trkpt><trkpt lat="40.2631368" lon="17.9181286"><ele>27.0</ele><time>2026-04-11T06:42:31.027Z</time></trkpt><trkpt lat="40.2632772" lon="17.9179365"><ele>27.0</ele><time>2026-04-11T06:42:32.023Z</time></trkpt><trkpt lat="40.2634248" lon="17.9177435"><ele>27.0</ele><time>2026-04-11T06:42:33.02Z</time></trkpt><trkpt lat="40.2635748" lon="17.9175544"><ele>27.0</ele><time>2026-04-11T06:42:34.027Z</time></trkpt><trkpt lat="40.2637201" lon="17.9173588"><ele>26.333333333333336</ele><time>2026-04-11T06:42:35.011Z</time></trkpt><trkpt lat="40.2638552" lon="17.9171643"><ele>25.666666666666668</ele><time>2026-04-11T06:42:36.017Z</time></trkpt><trkpt lat="40.264" lon="17.916975"><ele>25.0</ele><time>2026-04-11T06:42:37.05Z</time></trkpt><trkpt lat="40.2641373" lon="17.916804"><ele>25.0</ele><time>2026-04-11T06:42:38.051Z</time></trkpt><trkpt lat="40.2642717" lon="17.9166242"><ele>25.0</ele><time>2026-04-11T06:42:39.009Z</time></trkpt><trkpt lat="40.264407" lon="17.9164403"><ele>25.0</ele><time>2026-04-11T06:42:40.044Z</time></trkpt><trkpt lat="40.2645314" lon="17.9162516"><ele>25.0</ele><time>2026-04-11T06:42:41.023Z</time></trkpt><trkpt lat="40.2646625" lon="17.9160745"><ele>25.0</ele><time>2026-04-11T06:42:42.046Z</time></trkpt><trkpt lat="40.2647889" lon="17.9158792"><ele>25.0</ele><time>2026-04-11T06:42:43.009Z</time></trkpt><trkpt lat="40.2649172" lon="17.9156717"><ele>24.666666666666668</ele><time>2026-04-11T06:42:44.01Z</time></trkpt><trkpt lat="40.2650439" lon="17.91547"><ele>24.333333333333336</ele><time>2026-04-11T06:42:45.015Z</time></trkpt><trkpt lat="40.2651614" lon="17.9152393"><ele>24.0</ele><time>2026-04-11T06:42:46.017Z</time></trkpt><trkpt lat="40.2652904" lon="17.9150424"><ele>24.0</ele><time>2026-04-11T06:42:47.033Z</time></trkpt><trkpt lat="40.2654122" lon="17.9148267"><ele>24.0</ele><time>2026-04-11T06:42:48.022Z</time></trkpt><trkpt lat="40.2655396" lon="17.9146026"><ele>24.0</ele><time>2026-04-11T06:42:49.028Z</time></trkpt><trkpt lat="40.2656691" lon="17.9143813"><ele>23.666666666666668</ele><time>2026-04-11T06:42:50.022Z</time></trkpt><trkpt lat="40.2657905" lon="17.9141648"><ele>23.333333333333336</ele><time>2026-04-11T06:42:51.023Z</time></trkpt><trkpt lat="40.2659177" lon="17.913962"><ele>23.0</ele><time>2026-04-11T06:42:52.025Z</time></trkpt><trkpt lat="40.266039" lon="17.9137648"><ele>23.0</ele><time>2026-04-11T06:42:53.024Z</time></trkpt><trkpt lat="40.2661508" lon="17.9135689"><ele>23.0</ele><time>2026-04-11T06:42:54.024Z</time></trkpt><trkpt lat="40.2662566" lon="17.9133802"><ele>23.0</ele><time>2026-04-11T06:42:55.029Z</time></trkpt><trkpt lat="40.2663652" lon="17.913199"><ele>22.25</ele><time>2026-04-11T06:42:56.013Z</time></trkpt><trkpt lat="40.2664541" lon="17.9130412"><ele>21.5</ele><time>2026-04-11T06:42:57.027Z</time></trkpt><trkpt lat="40.266545" lon="17.9128877"><ele>20.75</ele><time>2026-04-11T06:42:58.027Z</time></trkpt><trkpt lat="40.2666306" lon="17.9127652"><ele>20.0</ele><time>2026-04-11T06:42:59.026Z</time></trkpt><trkpt lat="40.2667214" lon="17.9126716"><ele>20.4</ele><time>2026-04-11T06:43:00.028Z</time></trkpt><trkpt lat="40.2667989" lon="17.9125692"><ele>20.8</ele><time>2026-04-11T06:43:01.027Z</time></trkpt><trkpt lat="40.2668866" lon="17.9125348"><ele>21.200000000000003</ele><time>2026-04-11T06:43:02.031Z</time></trkpt><trkpt lat="40.2669702" lon="17.9124877"><ele>21.6</ele><time>2026-04-11T06:43:03.013Z</time></trkpt><trkpt lat="40.267055" lon="17.9125092"><ele>22.0</ele><time>2026-04-11T06:43:04.019Z</time></trkpt><trkpt lat="40.2671392" lon="17.9125336"><ele>22.0</ele><time>2026-04-11T06:43:05.018Z</time></trkpt><trkpt lat="40.2672305" lon="17.9125695"><ele>22.0</ele><time>2026-04-11T06:43:06.019Z</time></trkpt><trkpt lat="40.2673285" lon="17.9126089"><ele>22.0</ele><time>2026-04-11T06:43:07.017Z</time></trkpt><trkpt lat="40.2674361" lon="17.9126002"><ele>22.0</ele><time>2026-04-11T06:43:08.023Z</time></trkpt><trkpt lat="40.2675341" lon="17.9126016"><ele>22.0</ele><time>2026-04-11T06:43:09.057Z</time></trkpt><trkpt lat="40.2676221" lon="17.9125983"><ele>22.0</ele><time>2026-04-11T06:43:10.056Z</time></trkpt><trkpt lat="40.2676863" lon="17.9125929"><ele>22.0</ele><time>2026-04-11T06:43:11.019Z</time></trkpt><trkpt lat="40.2677662" lon="17.9125809"><ele>22.0</ele><time>2026-04-11T06:43:13.024Z</time></trkpt><trkpt lat="40.2678456" lon="17.9125443"><ele>22.0</ele><time>2026-04-11T06:43:17.021Z</time></trkpt><trkpt lat="40.2679146" lon="17.912496"><ele>22.0</ele><time>2026-04-11T06:43:38.049Z</time></trkpt><trkpt lat="40.2679596" lon="17.9124297"><ele>22.0</ele><time>2026-04-11T06:43:46.053Z</time></trkpt><trkpt lat="40.2679976" lon="17.9123269"><ele>22.0</ele><time>2026-04-11T06:43:48.024Z</time></trkpt><trkpt lat="40.2679764" lon="17.9121491"><ele>22.0</ele><time>2026-04-11T06:43:50.052Z</time></trkpt><trkpt lat="40.2679517" lon="17.9120262"><ele>22.0</ele><time>2026-04-11T06:43:51.056Z</time></trkpt><trkpt lat="40.2679254" lon="17.9119034"><ele>22.0</ele><time>2026-04-11T06:43:52.04Z</time></trkpt><trkpt lat="40.2678112" lon="17.9116379"><ele>23.0</ele><time>2026-04-11T06:43:53.015Z</time></trkpt><trkpt lat="40.2677406" lon="17.9114426"><ele>24.0</ele><time>2026-04-11T06:43:54.022Z</time></trkpt><trkpt lat="40.2676697" lon="17.9112492"><ele>25.0</ele><time>2026-04-11T06:43:55.016Z</time></trkpt><trkpt lat="40.267595" lon="17.9110534"><ele>24.0</ele><time>2026-04-11T06:43:56.016Z</time></trkpt><trkpt lat="40.2675338" lon="17.9108258"><ele>23.0</ele><time>2026-04-11T06:43:57.018Z</time></trkpt><trkpt lat="40.2674656" lon="17.9105999"><ele>22.0</ele><time>2026-04-11T06:43:58.033Z</time></trkpt><trkpt lat="40.2673904" lon="17.9103642"><ele>22.0</ele><time>2026-04-11T06:43:59.021Z</time></trkpt><trkpt lat="40.2673116" lon="17.910136"><ele>22.0</ele><time>2026-04-11T06:44:00.02Z</time></trkpt><trkpt lat="40.2672297" lon="17.9099103"><ele>22.0</ele><time>2026-04-11T06:44:01.023Z</time></trkpt><trkpt lat="40.2671454" lon="17.9096913"><ele>22.666666666666664</ele><time>2026-04-11T06:44:02.014Z</time></trkpt><trkpt lat="40.2671026" lon="17.9094601"><ele>23.333333333333332</ele><time>2026-04-11T06:44:03.051Z</time></trkpt><trkpt lat="40.2670084" lon="17.9092507"><ele>24.0</ele><time>2026-04-11T06:44:04.024Z</time></trkpt><trkpt lat="40.2669059" lon="17.9090416"><ele>23.333333333333332</ele><time>2026-04-11T06:44:05.019Z</time></trkpt><trkpt lat="40.2667887" lon="17.9088272"><ele>22.666666666666664</ele><time>2026-04-11T06:44:06.027Z</time></trkpt><trkpt lat="40.2666798" lon="17.908611"><ele>22.0</ele><time>2026-04-11T06:44:07.021Z</time></trkpt><trkpt lat="40.266587" lon="17.9083912"><ele>22.0</ele><time>2026-04-11T06:44:08.016Z</time></trkpt><trkpt lat="40.2664873" lon="17.9081762"><ele>22.0</ele><time>2026-04-11T06:44:09.013Z</time></trkpt><trkpt lat="40.2663888" lon="17.907959"><ele>22.0</ele><time>2026-04-11T06:44:10.016Z</time></trkpt><trkpt lat="40.2662884" lon="17.9077448"><ele>21.333333333333332</ele><time>2026-04-11T06:44:11.019Z</time></trkpt><trkpt lat="40.2661859" lon="17.9075269"><ele>20.666666666666668</ele><time>2026-04-11T06:44:12.015Z</time></trkpt><trkpt lat="40.2660881" lon="17.9073147"><ele>20.0</ele><time>2026-04-11T06:44:13.021Z</time></trkpt><trkpt lat="40.2659961" lon="17.9071073"><ele>20.0</ele><time>2026-04-11T06:44:14.015Z</time></trkpt><trkpt lat="40.2659148" lon="17.9069104"><ele>20.0</ele><time>2026-04-11T06:44:15.04Z</time></trkpt><trkpt lat="40.2658305" lon="17.9067249"><ele>20.0</ele><time>2026-04-11T06:44:16.034Z</time></trkpt><trkpt lat="40.2657449" lon="17.9065446"><ele>19.5</ele><time>2026-04-11T06:44:17.022Z</time></trkpt><trkpt lat="40.2656693" lon="17.9063692"><ele>19.0</ele><time>2026-04-11T06:44:18.028Z</time></trkpt><trkpt lat="40.2655973" lon="17.9062035"><ele>18.5</ele><time>2026-04-11T06:44:19.026Z</time></trkpt><trkpt lat="40.2655256" lon="17.9060406"><ele>18.0</ele><time>2026-04-11T06:44:20.026Z</time></trkpt><trkpt lat="40.2654629" lon="17.9058932"><ele>17.25</ele><time>2026-04-11T06:44:21.079Z</time></trkpt><trkpt lat="40.2653954" lon="17.905754"><ele>16.5</ele><time>2026-04-11T06:44:22.024Z</time></trkpt><trkpt lat="40.2653303" lon="17.9056137"><ele>15.75</ele><time>2026-04-11T06:44:23.043Z</time></trkpt><trkpt lat="40.2652661" lon="17.9054823"><ele>15.0</ele><time>2026-04-11T06:44:24.053Z</time></trkpt><trkpt lat="40.2652134" lon="17.9053402"><ele>15.0</ele><time>2026-04-11T06:44:25.02Z</time></trkpt><trkpt lat="40.2651595" lon="17.905211"><ele>15.0</ele><time>2026-04-11T06:44:26.017Z</time></trkpt><trkpt lat="40.2651112" lon="17.9050884"><ele>15.0</ele><time>2026-04-11T06:44:27.02Z</time></trkpt><trkpt lat="40.2650577" lon="17.9049591"><ele>15.0</ele><time>2026-04-11T06:44:28.017Z</time></trkpt><trkpt lat="40.2650097" lon="17.9048487"><ele>15.0</ele><time>2026-04-11T06:44:29.016Z</time></trkpt><trkpt lat="40.2649563" lon="17.9047276"><ele>14.25</ele><time>2026-04-11T06:44:30.019Z</time></trkpt><trkpt lat="40.2648982" lon="17.9046181"><ele>13.5</ele><time>2026-04-11T06:44:31.024Z</time></trkpt><trkpt lat="40.2648336" lon="17.9045098"><ele>12.75</ele><time>2026-04-11T06:44:32.02Z</time></trkpt><trkpt lat="40.2647799" lon="17.9043673"><ele>12.0</ele><time>2026-04-11T06:44:33.023Z</time></trkpt><trkpt lat="40.2647066" lon="17.9042261"><ele>11.0</ele><time>2026-04-11T06:44:34.028Z</time></trkpt><trkpt lat="40.2646525" lon="17.9040852"><ele>10.0</ele><time>2026-04-11T06:44:35.023Z</time></trkpt><trkpt lat="40.2645927" lon="17.9039442"><ele>9.0</ele><time>2026-04-11T06:44:36.009Z</time></trkpt><trkpt lat="40.2645386" lon="17.903781"><ele>8.0</ele><time>2026-04-11T06:44:37.047Z</time></trkpt><trkpt lat="40.2644739" lon="17.9036413"><ele>8.0</ele><time>2026-04-11T06:44:38.018Z</time></trkpt><trkpt lat="40.2643999" lon="17.9035047"><ele>8.0</ele><time>2026-04-11T06:44:39.019Z</time></trkpt><trkpt lat="40.2643339" lon="17.9033461"><ele>8.0</ele><time>2026-04-11T06:44:40.015Z</time></trkpt><trkpt lat="40.2642729" lon="17.9032036"><ele>8.0</ele><time>2026-04-11T06:44:41.02Z</time></trkpt><trkpt lat="40.2642032" lon="17.9030737"><ele>7.5</ele><time>2026-04-11T06:44:42.02Z</time></trkpt><trkpt lat="40.2641381" lon="17.9029471"><ele>7.0</ele><time>2026-04-11T06:44:43.022Z</time></trkpt><trkpt lat="40.2640905" lon="17.9028005"><ele>6.5</ele><time>2026-04-11T06:44:44.02Z</time></trkpt><trkpt lat="40.2640382" lon="17.9026656"><ele>6.0</ele><time>2026-04-11T06:44:45.017Z</time></trkpt><trkpt lat="40.2639923" lon="17.9025336"><ele>5.6</ele><time>2026-04-11T06:44:46.014Z</time></trkpt><trkpt lat="40.2639355" lon="17.9024156"><ele>5.199999999999999</ele><time>2026-04-11T06:44:47.018Z</time></trkpt><trkpt lat="40.2638866" lon="17.9022923"><ele>4.800000000000001</ele><time>2026-04-11T06:44:48.018Z</time></trkpt><trkpt lat="40.2638383" lon="17.9021769"><ele>4.4</ele><time>2026-04-11T06:44:49.021Z</time></trkpt><trkpt lat="40.2637883" lon="17.9020702"><ele>4.0</ele><time>2026-04-11T06:44:50.022Z</time></trkpt><trkpt lat="40.2637438" lon="17.9019646"><ele>4.0</ele><time>2026-04-11T06:44:51.02Z</time></trkpt><trkpt lat="40.2636957" lon="17.9018737"><ele>3.9999999999999996</ele><time>2026-04-11T06:44:52.018Z</time></trkpt><trkpt lat="40.2636547" lon="17.9017825"><ele>4.0</ele><time>2026-04-11T06:44:53.019Z</time></trkpt><trkpt lat="40.2636239" lon="17.9016984"><ele>4.0</ele><time>2026-04-11T06:44:54.019Z</time></trkpt><trkpt lat="40.2635902" lon="17.9016226"><ele>3.9999999999999996</ele><time>2026-04-11T06:44:55.023Z</time></trkpt><trkpt lat="40.2635616" lon="17.9015388"><ele>4.0</ele><time>2026-04-11T06:44:56.016Z</time></trkpt><trkpt lat="40.263544" lon="17.901453"><ele>4.0</ele><time>2026-04-11T06:44:57.021Z</time></trkpt><trkpt lat="40.2635461" lon="17.9013578"><ele>3.8000000000000003</ele><time>2026-04-11T06:44:58.025Z</time></trkpt><trkpt lat="40.2635675" lon="17.9012539"><ele>3.6000000000000005</ele><time>2026-04-11T06:44:59.021Z</time></trkpt><trkpt lat="40.2636071" lon="17.901153"><ele>3.4</ele><time>2026-04-11T06:45:00.014Z</time></trkpt><trkpt lat="40.263669" lon="17.9010578"><ele>3.2</ele><time>2026-04-11T06:45:01.013Z</time></trkpt><trkpt lat="40.2637412" lon="17.9009741"><ele>3.0</ele><time>2026-04-11T06:45:02.017Z</time></trkpt><trkpt lat="40.2638266" lon="17.900897"><ele>3.0</ele><time>2026-04-11T06:45:03.019Z</time></trkpt><trkpt lat="40.2639181" lon="17.9008173"><ele>3.0</ele><time>2026-04-11T06:45:04.024Z</time></trkpt><trkpt lat="40.2640187" lon="17.9007641"><ele>3.0</ele><time>2026-04-11T06:45:05.029Z</time></trkpt><trkpt lat="40.2641008" lon="17.9007113"><ele>3.0</ele><time>2026-04-11T06:45:06.02Z</time></trkpt><trkpt lat="40.2641728" lon="17.9006573"><ele>3.0</ele><time>2026-04-11T06:45:07.015Z</time></trkpt><trkpt lat="40.2642799" lon="17.900591"><ele>3.0</ele><time>2026-04-11T06:45:09.015Z</time></trkpt><trkpt lat="40.264339" lon="17.9004876"><ele>3.0</ele><time>2026-04-11T06:45:11.016Z</time></trkpt><trkpt lat="40.2643187" lon="17.9003445"><ele>3.0</ele><time>2026-04-11T06:45:13.019Z</time></trkpt><trkpt lat="40.2642618" lon="17.9002192"><ele>3.0</ele><time>2026-04-11T06:45:15.027Z</time></trkpt><trkpt lat="40.2642118" lon="17.9001153"><ele>3.0</ele><time>2026-04-11T06:45:16.015Z</time></trkpt><trkpt lat="40.2641717" lon="17.9000223"><ele>3.0</ele><time>2026-04-11T06:45:17.021Z</time></trkpt><trkpt lat="40.2640924" lon="17.8999237"><ele>3.0</ele><time>2026-04-11T06:45:18.022Z</time></trkpt><trkpt lat="40.2640505" lon="17.8998151"><ele>3.0</ele><time>2026-04-11T06:45:19.032Z</time></trkpt><trkpt lat="40.2639965" lon="17.8997042"><ele>3.0</ele><time>2026-04-11T06:45:20.021Z</time></trkpt><trkpt lat="40.263964" lon="17.8995847"><ele>3.0</ele><time>2026-04-11T06:45:21.022Z</time></trkpt><trkpt lat="40.2639299" lon="17.8994678"><ele>3.0</ele><time>2026-04-11T06:45:22.017Z</time></trkpt><trkpt lat="40.2638869" lon="17.8993402"><ele>3.0</ele><time>2026-04-11T06:45:23.014Z</time></trkpt><trkpt lat="40.2638485" lon="17.8992175"><ele>3.0</ele><time>2026-04-11T06:45:24.015Z</time></trkpt><trkpt lat="40.2637762" lon="17.8991041"><ele>3.0</ele><time>2026-04-11T06:45:25.021Z</time></trkpt><trkpt lat="40.2637265" lon="17.8990034"><ele>3.0</ele><time>2026-04-11T06:45:26.019Z</time></trkpt><trkpt lat="40.2636856" lon="17.8989106"><ele>3.2</ele><time>2026-04-11T06:45:27.017Z</time></trkpt><trkpt lat="40.2636475" lon="17.8988142"><ele>3.4</ele><time>2026-04-11T06:45:28.025Z</time></trkpt><trkpt lat="40.2636046" lon="17.898709"><ele>3.6000000000000005</ele><time>2026-04-11T06:45:29.025Z</time></trkpt><trkpt lat="40.2635574" lon="17.898595"><ele>3.8000000000000003</ele><time>2026-04-11T06:45:30.018Z</time></trkpt><trkpt lat="40.2635181" lon="17.8984798"><ele>4.0</ele><time>2026-04-11T06:45:31.015Z</time></trkpt><trkpt lat="40.2634625" lon="17.8983782"><ele>4.0</ele><time>2026-04-11T06:45:32.022Z</time></trkpt><trkpt lat="40.263425" lon="17.8982642"><ele>4.0</ele><time>2026-04-11T06:45:33.019Z</time></trkpt><trkpt lat="40.2633775" lon="17.8981605"><ele>4.0</ele><time>2026-04-11T06:45:34.02Z</time></trkpt><trkpt lat="40.2633272" lon="17.8980609"><ele>4.0</ele><time>2026-04-11T06:45:35.022Z</time></trkpt><trkpt lat="40.2632606" lon="17.8979397"><ele>4.0</ele><time>2026-04-11T06:45:36.024Z</time></trkpt><trkpt lat="40.2632031" lon="17.8978237"><ele>4.0</ele><time>2026-04-11T06:45:37.017Z</time></trkpt><trkpt lat="40.2631529" lon="17.8977078"><ele>4.0</ele><time>2026-04-11T06:45:38.017Z</time></trkpt><trkpt lat="40.2631054" lon="17.8975774"><ele>4.0</ele><time>2026-04-11T06:45:39.025Z</time></trkpt><trkpt lat="40.2630467" lon="17.8974612"><ele>4.0</ele><time>2026-04-11T06:45:40.02Z</time></trkpt><trkpt lat="40.2629971" lon="17.8973514"><ele>4.0</ele><time>2026-04-11T06:45:41.024Z</time></trkpt><trkpt lat="40.2629508" lon="17.8972555"><ele>3.9999999999999996</ele><time>2026-04-11T06:45:42.05Z</time></trkpt><trkpt lat="40.2629038" lon="17.8971623"><ele>4.0</ele><time>2026-04-11T06:45:43.019Z</time></trkpt><trkpt lat="40.2628617" lon="17.8970678"><ele>4.0</ele><time>2026-04-11T06:45:44.027Z</time></trkpt><trkpt lat="40.2628177" lon="17.8969678"><ele>4.0</ele><time>2026-04-11T06:45:45.018Z</time></trkpt><trkpt lat="40.2627775" lon="17.8968587"><ele>3.9999999999999996</ele><time>2026-04-11T06:45:46.017Z</time></trkpt><trkpt lat="40.2627381" lon="17.896754"><ele>4.0</ele><time>2026-04-11T06:45:47.009Z</time></trkpt><trkpt lat="40.2626791" lon="17.8966686"><ele>4.166666666666666</ele><time>2026-04-11T06:45:48.02Z</time></trkpt><trkpt lat="40.2626399" lon="17.8965796"><ele>4.333333333333333</ele><time>2026-04-11T06:45:49.022Z</time></trkpt><trkpt lat="40.2626072" lon="17.8964835"><ele>4.5</ele><time>2026-04-11T06:45:50.019Z</time></trkpt><trkpt lat="40.2625628" lon="17.8963918"><ele>4.666666666666667</ele><time>2026-04-11T06:45:51.021Z</time></trkpt><trkpt lat="40.2625259" lon="17.8962976"><ele>4.833333333333334</ele><time>2026-04-11T06:45:52.018Z</time></trkpt><trkpt lat="40.2624837" lon="17.8962091"><ele>5.0</ele><time>2026-04-11T06:45:53.02Z</time></trkpt><trkpt lat="40.2624422" lon="17.8961254"><ele>5.0</ele><time>2026-04-11T06:45:54.02Z</time></trkpt><trkpt lat="40.2624022" lon="17.8960347"><ele>5.0</ele><time>2026-04-11T06:45:55.017Z</time></trkpt><trkpt lat="40.2623625" lon="17.8959445"><ele>5.0</ele><time>2026-04-11T06:45:56.02Z</time></trkpt><trkpt lat="40.2623211" lon="17.8958601"><ele>5.0</ele><time>2026-04-11T06:45:57.018Z</time></trkpt><trkpt lat="40.2622835" lon="17.8957837"><ele>5.0</ele><time>2026-04-11T06:45:58.018Z</time></trkpt><trkpt lat="40.2622102" lon="17.8956604"><ele>5.0</ele><time>2026-04-11T06:46:00.021Z</time></trkpt><trkpt lat="40.2621722" lon="17.895538"><ele>5.0</ele><time>2026-04-11T06:46:02.021Z</time></trkpt><trkpt lat="40.2621351" lon="17.8954699"><ele>5.0</ele><time>2026-04-11T06:46:03.027Z</time></trkpt><trkpt lat="40.262081" lon="17.8954082"><ele>5.0</ele><time>2026-04-11T06:46:04.023Z</time></trkpt><trkpt lat="40.2620555" lon="17.8953268"><ele>5.0</ele><time>2026-04-11T06:46:05.018Z</time></trkpt><trkpt lat="40.2620206" lon="17.8952533"><ele>5.0</ele><time>2026-04-11T06:46:06.026Z</time></trkpt><trkpt lat="40.2619817" lon="17.89518"><ele>5.0</ele><time>2026-04-11T06:46:07.021Z</time></trkpt><trkpt lat="40.2619456" lon="17.895098"><ele>5.0</ele><time>2026-04-11T06:46:08.064Z</time></trkpt><trkpt lat="40.2619134" lon="17.8950193"><ele>5.0</ele><time>2026-04-11T06:46:09.064Z</time></trkpt><trkpt lat="40.2618809" lon="17.8949387"><ele>5.0</ele><time>2026-04-11T06:46:10.016Z</time></trkpt><trkpt lat="40.2618553" lon="17.8948605"><ele>5.0</ele><time>2026-04-11T06:46:11.017Z</time></trkpt><trkpt lat="40.2618245" lon="17.894787"><ele>5.0</ele><time>2026-04-11T06:46:12.012Z</time></trkpt><trkpt lat="40.2617758" lon="17.8946493"><ele>5.0</ele><time>2026-04-11T06:46:14.063Z</time></trkpt><trkpt lat="40.2617208" lon="17.8945339"><ele>5.0</ele><time>2026-04-11T06:46:16.03Z</time></trkpt><trkpt lat="40.2616676" lon="17.8944023"><ele>5.0</ele><time>2026-04-11T06:46:18.024Z</time></trkpt><trkpt lat="40.2616244" lon="17.8942489"><ele>5.0</ele><time>2026-04-11T06:46:20.035Z</time></trkpt><trkpt lat="40.2615904" lon="17.8941767"><ele>5.0</ele><time>2026-04-11T06:46:21.012Z</time></trkpt><trkpt lat="40.2615569" lon="17.8940938"><ele>5.0</ele><time>2026-04-11T06:46:22.025Z</time></trkpt><trkpt lat="40.2614975" lon="17.8939653"><ele>5.0</ele><time>2026-04-11T06:46:24.018Z</time></trkpt><trkpt lat="40.2614545" lon="17.8938579"><ele>5.0</ele><time>2026-04-11T06:46:26.027Z</time></trkpt><trkpt lat="40.261408" lon="17.893757"><ele>5.0</ele><time>2026-04-11T06:46:28.026Z</time></trkpt><trkpt lat="40.2613741" lon="17.8936635"><ele>5.0</ele><time>2026-04-11T06:46:30.027Z</time></trkpt><trkpt lat="40.2613484" lon="17.8935872"><ele>5.0</ele><time>2026-04-11T06:46:33.02Z</time></trkpt><trkpt lat="40.2612755" lon="17.8934391"><ele>5.0</ele><time>2026-04-11T06:46:35.018Z</time></trkpt><trkpt lat="40.2612114" lon="17.8933097"><ele>5.166666666666667</ele><time>2026-04-11T06:46:36.019Z</time></trkpt><trkpt lat="40.2611557" lon="17.893209"><ele>5.333333333333334</ele><time>2026-04-11T06:46:38.008Z</time></trkpt><trkpt lat="40.2611126" lon="17.8931171"><ele>5.5</ele><time>2026-04-11T06:46:40.043Z</time></trkpt><trkpt lat="40.2610794" lon="17.8930414"><ele>5.666666666666667</ele><time>2026-04-11T06:46:42.023Z</time></trkpt><trkpt lat="40.26105" lon="17.8929654"><ele>5.833333333333333</ele><time>2026-04-11T06:46:45.022Z</time></trkpt><trkpt lat="40.2609919" lon="17.8928447"><ele>6.0</ele><time>2026-04-11T06:46:47.09Z</time></trkpt><trkpt lat="40.2609371" lon="17.8927244"><ele>6.0</ele><time>2026-04-11T06:46:48.019Z</time></trkpt><trkpt lat="40.2608583" lon="17.8926464"><ele>6.0</ele><time>2026-04-11T06:46:50.038Z</time></trkpt><trkpt lat="40.2607389" lon="17.8926003"><ele>6.0</ele><time>2026-04-11T06:46:52.026Z</time></trkpt><trkpt lat="40.2606773" lon="17.8925704"><ele>6.0</ele><time>2026-04-11T06:46:53.019Z</time></trkpt><trkpt lat="40.2605745" lon="17.8925236"><ele>6.0</ele><time>2026-04-11T06:46:55.017Z</time></trkpt><trkpt lat="40.2604999" lon="17.8924583"><ele>5.833333333333333</ele><time>2026-04-11T06:46:57.024Z</time></trkpt><trkpt lat="40.2604317" lon="17.8924102"><ele>5.666666666666667</ele><time>2026-04-11T06:46:59.021Z</time></trkpt><trkpt lat="40.2603556" lon="17.8923672"><ele>5.5</ele><time>2026-04-11T06:47:01.02Z</time></trkpt><trkpt lat="40.2602832" lon="17.8923375"><ele>5.333333333333334</ele><time>2026-04-11T06:47:03.015Z</time></trkpt><trkpt lat="40.2602054" lon="17.892317"><ele>5.166666666666667</ele><time>2026-04-11T06:47:06.017Z</time></trkpt><trkpt lat="40.2601342" lon="17.8922933"><ele>5.0</ele><time>2026-04-11T06:47:09.022Z</time></trkpt><trkpt lat="40.2600328" lon="17.8922326"><ele>5.0</ele><time>2026-04-11T06:47:11.017Z</time></trkpt><trkpt lat="40.2599315" lon="17.8921696"><ele>5.0</ele><time>2026-04-11T06:47:13.016Z</time></trkpt><trkpt lat="40.2598372" lon="17.8920913"><ele>5.0</ele><time>2026-04-11T06:47:15.015Z</time></trkpt><trkpt lat="40.2597768" lon="17.892059"><ele>5.0</ele><time>2026-04-11T06:47:16.021Z</time></trkpt><trkpt lat="40.2597329" lon="17.8919867"><ele>5.0</ele><time>2026-04-11T06:47:17.018Z</time></trkpt><trkpt lat="40.2596816" lon="17.8919121"><ele>5.0</ele><time>2026-04-11T06:47:18.026Z</time></trkpt><trkpt lat="40.2596306" lon="17.8918379"><ele>4.857142857142857</ele><time>2026-04-11T06:47:19.021Z</time></trkpt><trkpt lat="40.2595796" lon="17.8917718"><ele>4.714285714285714</ele><time>2026-04-11T06:47:20.018Z</time></trkpt><trkpt lat="40.2595307" lon="17.8917056"><ele>4.571428571428571</ele><time>2026-04-11T06:47:21.019Z</time></trkpt><trkpt lat="40.2594875" lon="17.8916287"><ele>4.428571428571429</ele><time>2026-04-11T06:47:22.02Z</time></trkpt><trkpt lat="40.2594408" lon="17.8915686"><ele>4.285714285714286</ele><time>2026-04-11T06:47:23.021Z</time></trkpt><trkpt lat="40.2593942" lon="17.8915074"><ele>4.142857142857142</ele><time>2026-04-11T06:47:24.016Z</time></trkpt><trkpt lat="40.2593485" lon="17.8914396"><ele>4.0</ele><time>2026-04-11T06:47:25.023Z</time></trkpt><trkpt lat="40.2592974" lon="17.8913882"><ele>3.6</ele><time>2026-04-11T06:47:26.025Z</time></trkpt><trkpt lat="40.2592427" lon="17.891338"><ele>3.2</ele><time>2026-04-11T06:47:27.029Z</time></trkpt><trkpt lat="40.2591492" lon="17.8912583"><ele>2.8000000000000003</ele><time>2026-04-11T06:47:29.047Z</time></trkpt><trkpt lat="40.2590376" lon="17.8911974"><ele>2.4000000000000004</ele><time>2026-04-11T06:47:31.021Z</time></trkpt><trkpt lat="40.2589755" lon="17.8911707"><ele>2.0</ele><time>2026-04-11T06:47:32.012Z</time></trkpt><trkpt lat="40.2588396" lon="17.8911417"><ele>2.0</ele><time>2026-04-11T06:47:34.021Z</time></trkpt><trkpt lat="40.2587707" lon="17.891147"><ele>1.9999999999999998</ele><time>2026-04-11T06:47:35.022Z</time></trkpt><trkpt lat="40.2587006" lon="17.8911516"><ele>2.0</ele><time>2026-04-11T06:47:36.018Z</time></trkpt><trkpt lat="40.2586227" lon="17.8911563"><ele>2.0</ele><time>2026-04-11T06:47:37.027Z</time></trkpt><trkpt lat="40.258551" lon="17.8911725"><ele>1.9999999999999998</ele><time>2026-04-11T06:47:38.052Z</time></trkpt><trkpt lat="40.2584784" lon="17.8911839"><ele>2.0</ele><time>2026-04-11T06:47:39.01Z</time></trkpt><trkpt lat="40.2584152" lon="17.891173"><ele>2.0</ele><time>2026-04-11T06:47:40.015Z</time></trkpt><trkpt lat="40.2583442" lon="17.8911786"><ele>2.0</ele><time>2026-04-11T06:47:41.011Z</time></trkpt><trkpt lat="40.2582634" lon="17.8911716"><ele>2.0</ele><time>2026-04-11T06:47:42.019Z</time></trkpt><trkpt lat="40.2581423" lon="17.8911798"><ele>2.0</ele><time>2026-04-11T06:47:44.023Z</time></trkpt><trkpt lat="40.2580164" lon="17.8911506"><ele>2.0</ele><time>2026-04-11T06:47:46.028Z</time></trkpt><trkpt lat="40.2579607" lon="17.8911009"><ele>2.0</ele><time>2026-04-11T06:47:47.023Z</time></trkpt><trkpt lat="40.2578991" lon="17.8910751"><ele>2.142857142857143</ele><time>2026-04-11T06:47:48.024Z</time></trkpt><trkpt lat="40.2578269" lon="17.8910439"><ele>2.2857142857142856</ele><time>2026-04-11T06:47:49.024Z</time></trkpt><trkpt lat="40.2577659" lon="17.8910105"><ele>2.4285714285714284</ele><time>2026-04-11T06:47:50.025Z</time></trkpt><trkpt lat="40.2577068" lon="17.8909784"><ele>2.571428571428571</ele><time>2026-04-11T06:47:51.028Z</time></trkpt><trkpt lat="40.2576492" lon="17.8909439"><ele>2.7142857142857144</ele><time>2026-04-11T06:47:52.024Z</time></trkpt><trkpt lat="40.2575735" lon="17.8909293"><ele>2.8571428571428568</ele><time>2026-04-11T06:47:54.028Z</time></trkpt><trkpt lat="40.2575327" lon="17.8910095"><ele>3.0</ele><time>2026-04-11T06:47:56.046Z</time></trkpt><trkpt lat="40.2575205" lon="17.8910942"><ele>3.0</ele><time>2026-04-11T06:47:58.101Z</time></trkpt><trkpt lat="40.2574646" lon="17.8911857"><ele>3.0</ele><time>2026-04-11T06:48:01.022Z</time></trkpt><trkpt lat="40.257389" lon="17.8912258"><ele>3.0</ele><time>2026-04-11T06:48:04.026Z</time></trkpt><trkpt lat="40.2573166" lon="17.8912307"><ele>3.0</ele><time>2026-04-11T06:48:09.008Z</time></trkpt><trkpt lat="40.2572542" lon="17.891208"><ele>3.0</ele><time>2026-04-11T06:48:14.012Z</time></trkpt><trkpt lat="40.2572346" lon="17.8913141"><ele>3.0</ele><time>2026-04-11T06:48:18.009Z</time></trkpt><trkpt lat="40.2571707" lon="17.8913533"><ele>0.0</ele><time>2026-04-11T06:48:23.045Z</time></trkpt></trkseg><trkseg><trkpt lat="40.2574115" lon="17.8912824"><ele>3.0</ele><time>2026-04-11T07:06:25.024Z</time></trkpt><trkpt lat="40.2574147" lon="17.8913652"><ele>3.0</ele><time>2026-04-11T07:06:27.018Z</time></trkpt><trkpt lat="40.2573817" lon="17.8914887"><ele>3.0</ele><time>2026-04-11T07:06:28.018Z</time></trkpt><trkpt lat="40.2573604" lon="17.891597"><ele>3.0</ele><time>2026-04-11T07:06:30.012Z</time></trkpt><trkpt lat="40.2573342" lon="17.8916929"><ele>3.0</ele><time>2026-04-11T07:06:32.021Z</time></trkpt><trkpt lat="40.2573002" lon="17.8917997"><ele>3.0</ele><time>2026-04-11T07:06:34.017Z</time></trkpt><trkpt lat="40.2572639" lon="17.8919072"><ele>3.0</ele><time>2026-04-11T07:06:36.017Z</time></trkpt><trkpt lat="40.2572093" lon="17.8920438"><ele>3.0</ele><time>2026-04-11T07:06:38.024Z</time></trkpt><trkpt lat="40.2571691" lon="17.8921587"><ele>3.0</ele><time>2026-04-11T07:06:40.015Z</time></trkpt><trkpt lat="40.2571424" lon="17.8922406"><ele>3.0</ele><time>2026-04-11T07:06:42.013Z</time></trkpt><trkpt lat="40.2571263" lon="17.8924026"><ele>3.0</ele><time>2026-04-11T07:06:44.012Z</time></trkpt><trkpt lat="40.2571008" lon="17.89255"><ele>2.5</ele><time>2026-04-11T07:06:46.035Z</time></trkpt><trkpt lat="40.2570591" lon="17.8926882"><ele>2.0</ele><time>2026-04-11T07:06:48.018Z</time></trkpt><trkpt lat="40.2570348" lon="17.8927648"><ele>1.5</ele><time>2026-04-11T07:06:49.051Z</time></trkpt><trkpt lat="40.2570161" lon="17.8928472"><ele>1.0</ele><time>2026-04-11T07:06:50.02Z</time></trkpt><trkpt lat="40.2570722" lon="17.892985"><ele>0.5</ele><time>2026-04-11T07:06:52.054Z</time></trkpt><trkpt lat="40.2571336" lon="17.8930363"><ele>0.0</ele><time>2026-04-11T07:06:53.049Z</time></trkpt><trkpt lat="40.2572013" lon="17.8930817"><ele>0.0</ele><time>2026-04-11T07:06:54.051Z</time></trkpt><trkpt lat="40.2572707" lon="17.8931214"><ele>0.0</ele><time>2026-04-11T07:06:55.017Z</time></trkpt><trkpt lat="40.257349" lon="17.8931388"><ele>0.0</ele><time>2026-04-11T07:06:56.055Z</time></trkpt><trkpt lat="40.2574286" lon="17.8931634"><ele>0.0</ele><time>2026-04-11T07:06:57.018Z</time></trkpt><trkpt lat="40.2574961" lon="17.8931745"><ele>0.0</ele><time>2026-04-11T07:06:58.046Z</time></trkpt><trkpt lat="40.2575766" lon="17.893201"><ele>0.0</ele><time>2026-04-11T07:06:59.045Z</time></trkpt><trkpt lat="40.2576649" lon="17.8932228"><ele>0.2</ele><time>2026-04-11T07:07:00.028Z</time></trkpt><trkpt lat="40.2577552" lon="17.8932564"><ele>0.4</ele><time>2026-04-11T07:07:01.025Z</time></trkpt><trkpt lat="40.2578417" lon="17.893299"><ele>0.6000000000000001</ele><time>2026-04-11T07:07:02.086Z</time></trkpt><trkpt lat="40.2579282" lon="17.8933561"><ele>0.8</ele><time>2026-04-11T07:07:03.059Z</time></trkpt><trkpt lat="40.2580076" lon="17.8934353"><ele>1.0</ele><time>2026-04-11T07:07:04.019Z</time></trkpt><trkpt lat="40.2580801" lon="17.8935193"><ele>1.8</ele><time>2026-04-11T07:07:05.016Z</time></trkpt><trkpt lat="40.258145" lon="17.8936123"><ele>2.6</ele><time>2026-04-11T07:07:06.022Z</time></trkpt><trkpt lat="40.2582025" lon="17.8937152"><ele>3.4</ele><time>2026-04-11T07:07:07.018Z</time></trkpt><trkpt lat="40.2582606" lon="17.8938166"><ele>4.2</ele><time>2026-04-11T07:07:08.015Z</time></trkpt><trkpt lat="40.2583133" lon="17.893924"><ele>5.0</ele><time>2026-04-11T07:07:09.009Z</time></trkpt><trkpt lat="40.2583642" lon="17.8940199"><ele>5.0</ele><time>2026-04-11T07:07:10.075Z</time></trkpt><trkpt lat="40.2584299" lon="17.8940988"><ele>5.0</ele><time>2026-04-11T07:07:11.023Z</time></trkpt><trkpt lat="40.2585001" lon="17.8941476"><ele>5.0</ele><time>2026-04-11T07:07:12.02Z</time></trkpt><trkpt lat="40.2585777" lon="17.8941688"><ele>5.0</ele><time>2026-04-11T07:07:13.014Z</time></trkpt><trkpt lat="40.2586532" lon="17.8941643"><ele>5.0</ele><time>2026-04-11T07:07:14.015Z</time></trkpt><trkpt lat="40.2587302" lon="17.8941367"><ele>5.0</ele><time>2026-04-11T07:07:15.059Z</time></trkpt><trkpt lat="40.2587996" lon="17.8940992"><ele>5.0</ele><time>2026-04-11T07:07:16.017Z</time></trkpt><trkpt lat="40.2588767" lon="17.8940565"><ele>5.0</ele><time>2026-04-11T07:07:17.008Z</time></trkpt><trkpt lat="40.2589439" lon="17.8939829"><ele>5.0</ele><time>2026-04-11T07:07:18.06Z</time></trkpt><trkpt lat="40.2590125" lon="17.8939267"><ele>5.0</ele><time>2026-04-11T07:07:19.027Z</time></trkpt><trkpt lat="40.2590788" lon="17.893874"><ele>5.0</ele><time>2026-04-11T07:07:20.017Z</time></trkpt><trkpt lat="40.2591483" lon="17.8938199"><ele>5.0</ele><time>2026-04-11T07:07:21.006Z</time></trkpt><trkpt lat="40.2592762" lon="17.8937909"><ele>5.333333333333334</ele><time>2026-04-11T07:07:23.025Z</time></trkpt><trkpt lat="40.2593393" lon="17.8938344"><ele>5.666666666666667</ele><time>2026-04-11T07:07:24.019Z</time></trkpt><trkpt lat="40.2594047" lon="17.8938721"><ele>6.0</ele><time>2026-04-11T07:07:25.019Z</time></trkpt><trkpt lat="40.259467" lon="17.8939116"><ele>6.333333333333334</ele><time>2026-04-11T07:07:26.017Z</time></trkpt><trkpt lat="40.2595307" lon="17.8939516"><ele>6.666666666666667</ele><time>2026-04-11T07:07:27.015Z</time></trkpt><trkpt lat="40.2596354" lon="17.8939865"><ele>7.0</ele><time>2026-04-11T07:07:29.055Z</time></trkpt><trkpt lat="40.2597571" lon="17.8939675"><ele>7.000000000000001</ele><time>2026-04-11T07:07:31.016Z</time></trkpt><trkpt lat="40.2597834" lon="17.8938533"><ele>7.0</ele><time>2026-04-11T07:07:32.022Z</time></trkpt><trkpt lat="40.2597995" lon="17.8937299"><ele>7.0</ele><time>2026-04-11T07:07:33.028Z</time></trkpt><trkpt lat="40.2598067" lon="17.893624"><ele>7.0</ele><time>2026-04-11T07:07:34.026Z</time></trkpt><trkpt lat="40.2598321" lon="17.8935262"><ele>7.000000000000001</ele><time>2026-04-11T07:07:35.012Z</time></trkpt><trkpt lat="40.2598559" lon="17.8934371"><ele>7.0</ele><time>2026-04-11T07:07:36.017Z</time></trkpt><trkpt lat="40.2598795" lon="17.8933149"><ele>7.199999999999999</ele><time>2026-04-11T07:07:38.012Z</time></trkpt><trkpt lat="40.2599217" lon="17.8931727"><ele>7.3999999999999995</ele><time>2026-04-11T07:07:40.013Z</time></trkpt><trkpt lat="40.2599567" lon="17.8930382"><ele>7.6000000000000005</ele><time>2026-04-11T07:07:42.025Z</time></trkpt><trkpt lat="40.2599931" lon="17.8929063"><ele>7.800000000000001</ele><time>2026-04-11T07:07:44.026Z</time></trkpt><trkpt lat="40.2600254" lon="17.8928003"><ele>8.0</ele><time>2026-04-11T07:07:46.016Z</time></trkpt><trkpt lat="40.2600846" lon="17.892678"><ele>7.4</ele><time>2026-04-11T07:07:48.036Z</time></trkpt><trkpt lat="40.2601165" lon="17.8925575"><ele>6.800000000000001</ele><time>2026-04-11T07:07:50.017Z</time></trkpt><trkpt lat="40.2601325" lon="17.8924654"><ele>6.2</ele><time>2026-04-11T07:07:52.01Z</time></trkpt><trkpt lat="40.2601741" lon="17.8923841"><ele>5.6</ele><time>2026-04-11T07:07:57.01Z</time></trkpt><trkpt lat="40.2602078" lon="17.8922691"><ele>5.0</ele><time>2026-04-11T07:07:59.013Z</time></trkpt><trkpt lat="40.2602688" lon="17.8921156"><ele>5.0</ele><time>2026-04-11T07:08:01.012Z</time></trkpt><trkpt lat="40.2602944" lon="17.8920261"><ele>5.0</ele><time>2026-04-11T07:08:02.026Z</time></trkpt><trkpt lat="40.2603255" lon="17.8919376"><ele>5.0</ele><time>2026-04-11T07:08:03.021Z</time></trkpt><trkpt lat="40.260354" lon="17.8918335"><ele>5.0</ele><time>2026-04-11T07:08:04.02Z</time></trkpt><trkpt lat="40.2603848" lon="17.8917509"><ele>5.0</ele><time>2026-04-11T07:08:05.014Z</time></trkpt><trkpt lat="40.2604209" lon="17.8916625"><ele>5.0</ele><time>2026-04-11T07:08:06.017Z</time></trkpt><trkpt lat="40.2604705" lon="17.8915859"><ele>5.0</ele><time>2026-04-11T07:08:07.014Z</time></trkpt><trkpt lat="40.2605206" lon="17.8915009"><ele>5.0</ele><time>2026-04-11T07:08:08.013Z</time></trkpt><trkpt lat="40.2605796" lon="17.8914222"><ele>5.0</ele><time>2026-04-11T07:08:09.016Z</time></trkpt><trkpt lat="40.260629" lon="17.8913413"><ele>5.0</ele><time>2026-04-11T07:08:10.024Z</time></trkpt><trkpt lat="40.2606893" lon="17.8912625"><ele>5.0</ele><time>2026-04-11T07:08:11.02Z</time></trkpt><trkpt lat="40.2607488" lon="17.8911907"><ele>5.0</ele><time>2026-04-11T07:08:12.022Z</time></trkpt><trkpt lat="40.2608043" lon="17.8911115"><ele>5.0</ele><time>2026-04-11T07:08:13.014Z</time></trkpt><trkpt lat="40.2608699" lon="17.8910378"><ele>5.0</ele><time>2026-04-11T07:08:14.013Z</time></trkpt><trkpt lat="40.2609358" lon="17.8909563"><ele>5.0</ele><time>2026-04-11T07:08:15.013Z</time></trkpt><trkpt lat="40.2609995" lon="17.8908757"><ele>5.0</ele><time>2026-04-11T07:08:16.013Z</time></trkpt><trkpt lat="40.2610664" lon="17.8908028"><ele>5.0</ele><time>2026-04-11T07:08:17.017Z</time></trkpt><trkpt lat="40.2611374" lon="17.8907239"><ele>5.0</ele><time>2026-04-11T07:08:18.012Z</time></trkpt><trkpt lat="40.2612012" lon="17.8906527"><ele>5.166666666666667</ele><time>2026-04-11T07:08:19.014Z</time></trkpt><trkpt lat="40.2612742" lon="17.8905809"><ele>5.333333333333334</ele><time>2026-04-11T07:08:20.019Z</time></trkpt><trkpt lat="40.2613428" lon="17.8905168"><ele>5.5</ele><time>2026-04-11T07:08:21.011Z</time></trkpt><trkpt lat="40.2614182" lon="17.8904732"><ele>5.666666666666667</ele><time>2026-04-11T07:08:22.023Z</time></trkpt><trkpt lat="40.2614833" lon="17.8904047"><ele>5.833333333333333</ele><time>2026-04-11T07:08:23.019Z</time></trkpt><trkpt lat="40.2615417" lon="17.8903347"><ele>6.0</ele><time>2026-04-11T07:08:24.021Z</time></trkpt><trkpt lat="40.2615979" lon="17.8902659"><ele>6.0</ele><time>2026-04-11T07:08:25.012Z</time></trkpt><trkpt lat="40.2616518" lon="17.890174"><ele>6.0</ele><time>2026-04-11T07:08:26.013Z</time></trkpt><trkpt lat="40.2617199" lon="17.8900977"><ele>6.0</ele><time>2026-04-11T07:08:27.014Z</time></trkpt><trkpt lat="40.2617756" lon="17.8900438"><ele>6.0</ele><time>2026-04-11T07:08:28.017Z</time></trkpt><trkpt lat="40.2618281" lon="17.8899754"><ele>6.0</ele><time>2026-04-11T07:08:29.018Z</time></trkpt><trkpt lat="40.2619073" lon="17.8898937"><ele>6.0</ele><time>2026-04-11T07:08:31.014Z</time></trkpt><trkpt lat="40.2619553" lon="17.8898192"><ele>5.833333333333333</ele><time>2026-04-11T07:08:33.021Z</time></trkpt><trkpt lat="40.2620308" lon="17.8897449"><ele>5.666666666666667</ele><time>2026-04-11T07:08:36.02Z</time></trkpt><trkpt lat="40.2620818" lon="17.8896922"><ele>5.5</ele><time>2026-04-11T07:08:37.021Z</time></trkpt><trkpt lat="40.2621312" lon="17.8896218"><ele>5.333333333333334</ele><time>2026-04-11T07:08:38.027Z</time></trkpt><trkpt lat="40.2622021" lon="17.8895541"><ele>5.166666666666667</ele><time>2026-04-11T07:08:39.026Z</time></trkpt><trkpt lat="40.2622857" lon="17.889483"><ele>5.0</ele><time>2026-04-11T07:08:40.014Z</time></trkpt><trkpt lat="40.2623612" lon="17.8894112"><ele>5.0</ele><time>2026-04-11T07:08:41.016Z</time></trkpt><trkpt lat="40.2624295" lon="17.8893493"><ele>5.0</ele><time>2026-04-11T07:08:42.019Z</time></trkpt><trkpt lat="40.2624873" lon="17.8892846"><ele>5.0</ele><time>2026-04-11T07:08:43.016Z</time></trkpt><trkpt lat="40.2625477" lon="17.8892139"><ele>5.0</ele><time>2026-04-11T07:08:44.022Z</time></trkpt><trkpt lat="40.2626003" lon="17.889155"><ele>5.0</ele><time>2026-04-11T07:08:45.058Z</time></trkpt><trkpt lat="40.2626604" lon="17.8890845"><ele>5.0</ele><time>2026-04-11T07:08:46.02Z</time></trkpt><trkpt lat="40.2627336" lon="17.8890122"><ele>4.666666666666667</ele><time>2026-04-11T07:08:47.016Z</time></trkpt><trkpt lat="40.2627986" lon="17.8889392"><ele>4.333333333333334</ele><time>2026-04-11T07:08:48.037Z</time></trkpt><trkpt lat="40.2628598" lon="17.8888861"><ele>4.0</ele><time>2026-04-11T07:08:49.043Z</time></trkpt><trkpt lat="40.2629161" lon="17.8888194"><ele>3.666666666666667</ele><time>2026-04-11T07:08:50.086Z</time></trkpt><trkpt lat="40.2629741" lon="17.888755"><ele>3.3333333333333335</ele><time>2026-04-11T07:08:51.016Z</time></trkpt><trkpt lat="40.2630213" lon="17.8886918"><ele>3.0</ele><time>2026-04-11T07:08:52.023Z</time></trkpt><trkpt lat="40.2630806" lon="17.8886233"><ele>3.1666666666666665</ele><time>2026-04-11T07:08:53.015Z</time></trkpt><trkpt lat="40.2631391" lon="17.8885414"><ele>3.333333333333333</ele><time>2026-04-11T07:08:54.014Z</time></trkpt><trkpt lat="40.2632023" lon="17.8884671"><ele>3.5</ele><time>2026-04-11T07:08:55.014Z</time></trkpt><trkpt lat="40.2632593" lon="17.8883883"><ele>3.6666666666666665</ele><time>2026-04-11T07:08:56.019Z</time></trkpt><trkpt lat="40.2633243" lon="17.8883011"><ele>3.833333333333333</ele><time>2026-04-11T07:08:57.024Z</time></trkpt><trkpt lat="40.2633913" lon="17.8882204"><ele>4.0</ele><time>2026-04-11T07:08:58.019Z</time></trkpt><trkpt lat="40.2634578" lon="17.8881392"><ele>4.166666666666666</ele><time>2026-04-11T07:08:59.019Z</time></trkpt><trkpt lat="40.2635258" lon="17.8880617"><ele>4.333333333333333</ele><time>2026-04-11T07:09:00.031Z</time></trkpt><trkpt lat="40.2635832" lon="17.8879924"><ele>4.5</ele><time>2026-04-11T07:09:01.062Z</time></trkpt><trkpt lat="40.2636379" lon="17.8879359"><ele>4.666666666666667</ele><time>2026-04-11T07:09:02.019Z</time></trkpt><trkpt lat="40.263696" lon="17.8878716"><ele>4.833333333333334</ele><time>2026-04-11T07:09:03.006Z</time></trkpt><trkpt lat="40.2637771" lon="17.8878133"><ele>5.0</ele><time>2026-04-11T07:09:04.067Z</time></trkpt><trkpt lat="40.2638369" lon="17.8877435"><ele>5.0</ele><time>2026-04-11T07:09:05.016Z</time></trkpt><trkpt lat="40.2638958" lon="17.887673"><ele>5.0</ele><time>2026-04-11T07:09:06.028Z</time></trkpt><trkpt lat="40.2639671" lon="17.8875991"><ele>5.0</ele><time>2026-04-11T07:09:07.016Z</time></trkpt><trkpt lat="40.2640409" lon="17.8875201"><ele>5.0</ele><time>2026-04-11T07:09:08.018Z</time></trkpt><trkpt lat="40.2641124" lon="17.8874485"><ele>5.0</ele><time>2026-04-11T07:09:09.04Z</time></trkpt><trkpt lat="40.2641854" lon="17.8873719"><ele>5.0</ele><time>2026-04-11T07:09:10.065Z</time></trkpt><trkpt lat="40.2642602" lon="17.8872947"><ele>4.6</ele><time>2026-04-11T07:09:11.057Z</time></trkpt><trkpt lat="40.2643365" lon="17.8872179"><ele>4.2</ele><time>2026-04-11T07:09:12.016Z</time></trkpt><trkpt lat="40.2644082" lon="17.8871571"><ele>3.8</ele><time>2026-04-11T07:09:13.015Z</time></trkpt><trkpt lat="40.2644853" lon="17.8870722"><ele>3.4</ele><time>2026-04-11T07:09:14.017Z</time></trkpt><trkpt lat="40.2645607" lon="17.8870073"><ele>3.0</ele><time>2026-04-11T07:09:15.051Z</time></trkpt><trkpt lat="40.2646328" lon="17.88693"><ele>3.0</ele><time>2026-04-11T07:09:16.007Z</time></trkpt><trkpt lat="40.2646987" lon="17.886846"><ele>3.0</ele><time>2026-04-11T07:09:17.078Z</time></trkpt><trkpt lat="40.2647619" lon="17.8867584"><ele>3.0</ele><time>2026-04-11T07:09:18.028Z</time></trkpt><trkpt lat="40.264831" lon="17.8866869"><ele>3.0</ele><time>2026-04-11T07:09:19.027Z</time></trkpt><trkpt lat="40.2648954" lon="17.8866087"><ele>3.0</ele><time>2026-04-11T07:09:20.009Z</time></trkpt><trkpt lat="40.2649461" lon="17.8865424"><ele>3.0</ele><time>2026-04-11T07:09:21.016Z</time></trkpt><trkpt lat="40.2650008" lon="17.8864762"><ele>3.0</ele><time>2026-04-11T07:09:22.019Z</time></trkpt><trkpt lat="40.2650868" lon="17.8863789"><ele>3.0</ele><time>2026-04-11T07:09:24.021Z</time></trkpt><trkpt lat="40.265158" lon="17.886292"><ele>3.0</ele><time>2026-04-11T07:09:26.027Z</time></trkpt><trkpt lat="40.2652246" lon="17.8862211"><ele>3.0</ele><time>2026-04-11T07:09:28.084Z</time></trkpt><trkpt lat="40.2653164" lon="17.8861066"><ele>3.0</ele><time>2026-04-11T07:09:30.037Z</time></trkpt><trkpt lat="40.2653697" lon="17.8860523"><ele>3.0</ele><time>2026-04-11T07:09:31.021Z</time></trkpt><trkpt lat="40.265421" lon="17.8859802"><ele>3.0</ele><time>2026-04-11T07:09:32.023Z</time></trkpt><trkpt lat="40.2654749" lon="17.8859053"><ele>3.0</ele><time>2026-04-11T07:09:33.005Z</time></trkpt><trkpt lat="40.2655354" lon="17.8858313"><ele>3.0</ele><time>2026-04-11T07:09:34.026Z</time></trkpt><trkpt lat="40.2655922" lon="17.885758"><ele>3.0</ele><time>2026-04-11T07:09:35.027Z</time></trkpt><trkpt lat="40.2656515" lon="17.8856743"><ele>3.0</ele><time>2026-04-11T07:09:36.022Z</time></trkpt><trkpt lat="40.2657049" lon="17.8855948"><ele>2.6666666666666665</ele><time>2026-04-11T07:09:37.012Z</time></trkpt><trkpt lat="40.2657679" lon="17.8855061"><ele>2.3333333333333335</ele><time>2026-04-11T07:09:38.042Z</time></trkpt><trkpt lat="40.2658111" lon="17.8854245"><ele>2.0</ele><time>2026-04-11T07:09:39.029Z</time></trkpt><trkpt lat="40.2658659" lon="17.8853451"><ele>1.6666666666666665</ele><time>2026-04-11T07:09:40.025Z</time></trkpt><trkpt lat="40.2659232" lon="17.8852656"><ele>1.3333333333333333</ele><time>2026-04-11T07:09:41.014Z</time></trkpt><trkpt lat="40.2659774" lon="17.885192"><ele>1.0</ele><time>2026-04-11T07:09:42.054Z</time></trkpt><trkpt lat="40.2660346" lon="17.885115"><ele>0.9999999999999999</ele><time>2026-04-11T07:09:43.018Z</time></trkpt><trkpt lat="40.2660943" lon="17.8850397"><ele>1.0</ele><time>2026-04-11T07:09:44.005Z</time></trkpt><trkpt lat="40.2661587" lon="17.8849673"><ele>1.0</ele><time>2026-04-11T07:09:45.042Z</time></trkpt><trkpt lat="40.2662227" lon="17.8849031"><ele>1.0</ele><time>2026-04-11T07:09:46.022Z</time></trkpt><trkpt lat="40.2662898" lon="17.8848686"><ele>0.9999999999999999</ele><time>2026-04-11T07:09:47.026Z</time></trkpt><trkpt lat="40.2663525" lon="17.8848467"><ele>1.0</ele><time>2026-04-11T07:09:48.028Z</time></trkpt><trkpt lat="40.2664305" lon="17.8848306"><ele>0.9999999999999999</ele><time>2026-04-11T07:09:49.053Z</time></trkpt><trkpt lat="40.2665059" lon="17.8848082"><ele>1.0</ele><time>2026-04-11T07:09:50.051Z</time></trkpt><trkpt lat="40.2665918" lon="17.8848394"><ele>1.0</ele><time>2026-04-11T07:09:51.024Z</time></trkpt><trkpt lat="40.266681" lon="17.8848533"><ele>1.0</ele><time>2026-04-11T07:09:52.024Z</time></trkpt><trkpt lat="40.2667703" lon="17.8848597"><ele>0.9999999999999999</ele><time>2026-04-11T07:09:53.097Z</time></trkpt><trkpt lat="40.2668599" lon="17.8848668"><ele>1.0</ele><time>2026-04-11T07:09:54.011Z</time></trkpt><trkpt lat="40.2669488" lon="17.8849012"><ele>1.0</ele><time>2026-04-11T07:09:55.02Z</time></trkpt><trkpt lat="40.2670448" lon="17.8849294"><ele>1.0</ele><time>2026-04-11T07:09:56.015Z</time></trkpt><trkpt lat="40.2671491" lon="17.8849609"><ele>1.0</ele><time>2026-04-11T07:09:57.025Z</time></trkpt><trkpt lat="40.2672403" lon="17.8849937"><ele>1.0</ele><time>2026-04-11T07:09:58.022Z</time></trkpt><trkpt lat="40.2673443" lon="17.8850135"><ele>1.0</ele><time>2026-04-11T07:09:59.022Z</time></trkpt><trkpt lat="40.267433" lon="17.8850226"><ele>0.8333333333333333</ele><time>2026-04-11T07:10:00.028Z</time></trkpt><trkpt lat="40.267504" lon="17.8850444"><ele>0.6666666666666666</ele><time>2026-04-11T07:10:01.025Z</time></trkpt><trkpt lat="40.2675931" lon="17.8850501"><ele>0.5</ele><time>2026-04-11T07:10:02.011Z</time></trkpt><trkpt lat="40.2676746" lon="17.8850366"><ele>0.3333333333333333</ele><time>2026-04-11T07:10:03.014Z</time></trkpt><trkpt lat="40.2677599" lon="17.8850291"><ele>0.16666666666666666</ele><time>2026-04-11T07:10:04.02Z</time></trkpt><trkpt lat="40.2678506" lon="17.8850129"><ele>0.0</ele><time>2026-04-11T07:10:05.016Z</time></trkpt><trkpt lat="40.2679419" lon="17.8849666"><ele>0.0</ele><time>2026-04-11T07:10:06.022Z</time></trkpt><trkpt lat="40.2680428" lon="17.8849279"><ele>0.0</ele><time>2026-04-11T07:10:07.02Z</time></trkpt><trkpt lat="40.2681381" lon="17.8848831"><ele>0.0</ele><time>2026-04-11T07:10:08.025Z</time></trkpt><trkpt lat="40.2682323" lon="17.8848358"><ele>0.0</ele><time>2026-04-11T07:10:09.02Z</time></trkpt><trkpt lat="40.2683346" lon="17.8847778"><ele>0.0</ele><time>2026-04-11T07:10:10.019Z</time></trkpt><trkpt lat="40.2684305" lon="17.884713"><ele>0.0</ele><time>2026-04-11T07:10:11.05Z</time></trkpt><trkpt lat="40.268525" lon="17.8846326"><ele>0.0</ele><time>2026-04-11T07:10:12.044Z</time></trkpt><trkpt lat="40.2686198" lon="17.8845699"><ele>0.0</ele><time>2026-04-11T07:10:13.019Z</time></trkpt><trkpt lat="40.2687092" lon="17.8844756"><ele>0.0</ele><time>2026-04-11T07:10:14.044Z</time></trkpt><trkpt lat="40.2687991" lon="17.8844243"><ele>0.0</ele><time>2026-04-11T07:10:15.048Z</time></trkpt><trkpt lat="40.2688903" lon="17.8843529"><ele>0.0</ele><time>2026-04-11T07:10:16.046Z</time></trkpt><trkpt lat="40.2689784" lon="17.8842693"><ele>0.0</ele><time>2026-04-11T07:10:17.042Z</time></trkpt><trkpt lat="40.2690542" lon="17.8841866"><ele>0.0</ele><time>2026-04-11T07:10:18.043Z</time></trkpt><trkpt lat="40.2691308" lon="17.8841113"><ele>0.0</ele><time>2026-04-11T07:10:19.008Z</time></trkpt><trkpt lat="40.2691911" lon="17.8840719"><ele>0.0</ele><time>2026-04-11T07:10:20.044Z</time></trkpt><trkpt lat="40.2692544" lon="17.8840192"><ele>0.0</ele><time>2026-04-11T07:10:21.02Z</time></trkpt><trkpt lat="40.2693203" lon="17.8839554"><ele>0.0</ele><time>2026-04-11T07:10:22.047Z</time></trkpt><trkpt lat="40.269381" lon="17.8838986"><ele>0.0</ele><time>2026-04-11T07:10:23.017Z</time></trkpt><trkpt lat="40.2694497" lon="17.883846"><ele>0.0</ele><time>2026-04-11T07:10:24.022Z</time></trkpt><trkpt lat="40.2695249" lon="17.883781"><ele>0.0</ele><time>2026-04-11T07:10:25.021Z</time></trkpt><trkpt lat="40.269599" lon="17.8837211"><ele>0.0</ele><time>2026-04-11T07:10:26.022Z</time></trkpt><trkpt lat="40.2696734" lon="17.8836554"><ele>0.0</ele><time>2026-04-11T07:10:27.057Z</time></trkpt><trkpt lat="40.2697629" lon="17.883594"><ele>0.0</ele><time>2026-04-11T07:10:28.015Z</time></trkpt><trkpt lat="40.2698442" lon="17.8835257"><ele>0.0</ele><time>2026-04-11T07:10:29.005Z</time></trkpt><trkpt lat="40.2699379" lon="17.8834474"><ele>0.0</ele><time>2026-04-11T07:10:30.013Z</time></trkpt><trkpt lat="40.2700228" lon="17.8833604"><ele>0.0</ele><time>2026-04-11T07:10:31.012Z</time></trkpt><trkpt lat="40.2701089" lon="17.883236"><ele>0.0</ele><time>2026-04-11T07:10:32.113Z</time></trkpt><trkpt lat="40.2702067" lon="17.8831497"><ele>0.5</ele><time>2026-04-11T07:10:33.016Z</time></trkpt><trkpt lat="40.2702964" lon="17.883063"><ele>1.0</ele><time>2026-04-11T07:10:34.007Z</time></trkpt><trkpt lat="40.2703826" lon="17.8829705"><ele>1.5</ele><time>2026-04-11T07:10:35.04Z</time></trkpt><trkpt lat="40.2704695" lon="17.8828696"><ele>2.0</ele><time>2026-04-11T07:10:36.046Z</time></trkpt><trkpt lat="40.2705476" lon="17.8827594"><ele>2.25</ele><time>2026-04-11T07:10:37.1Z</time></trkpt><trkpt lat="40.2706228" lon="17.8826265"><ele>2.5</ele><time>2026-04-11T07:10:38.047Z</time></trkpt><trkpt lat="40.2706978" lon="17.8824909"><ele>2.75</ele><time>2026-04-11T07:10:39.051Z</time></trkpt><trkpt lat="40.2707776" lon="17.8823756"><ele>3.0</ele><time>2026-04-11T07:10:40.009Z</time></trkpt><trkpt lat="40.27087" lon="17.8822507"><ele>3.0</ele><time>2026-04-11T07:10:41.047Z</time></trkpt><trkpt lat="40.2709504" lon="17.8821302"><ele>3.0</ele><time>2026-04-11T07:10:42.01Z</time></trkpt><trkpt lat="40.2710318" lon="17.8820252"><ele>3.0</ele><time>2026-04-11T07:10:43.008Z</time></trkpt><trkpt lat="40.2711052" lon="17.8818843"><ele>3.0</ele><time>2026-04-11T07:10:44.01Z</time></trkpt><trkpt lat="40.2711968" lon="17.8817538"><ele>3.0</ele><time>2026-04-11T07:10:45.019Z</time></trkpt><trkpt lat="40.2712776" lon="17.8816293"><ele>3.0</ele><time>2026-04-11T07:10:46.023Z</time></trkpt><trkpt lat="40.2713482" lon="17.881494"><ele>3.0</ele><time>2026-04-11T07:10:47.023Z</time></trkpt><trkpt lat="40.2714146" lon="17.8813662"><ele>3.0</ele><time>2026-04-11T07:10:48.02Z</time></trkpt><trkpt lat="40.2714945" lon="17.8812532"><ele>3.0</ele><time>2026-04-11T07:10:49.018Z</time></trkpt><trkpt lat="40.271568" lon="17.8811394"><ele>3.0</ele><time>2026-04-11T07:10:50.015Z</time></trkpt><trkpt lat="40.2716389" lon="17.8810237"><ele>3.0</ele><time>2026-04-11T07:10:51.007Z</time></trkpt><trkpt lat="40.2717266" lon="17.8809062"><ele>3.0</ele><time>2026-04-11T07:10:52.01Z</time></trkpt><trkpt lat="40.271806" lon="17.8807689"><ele>3.0</ele><time>2026-04-11T07:10:53.017Z</time></trkpt><trkpt lat="40.2718819" lon="17.8806428"><ele>3.0</ele><time>2026-04-11T07:10:54.015Z</time></trkpt><trkpt lat="40.2719627" lon="17.8805172"><ele>3.0</ele><time>2026-04-11T07:10:55.017Z</time></trkpt><trkpt lat="40.2720384" lon="17.8804009"><ele>3.0</ele><time>2026-04-11T07:10:56.013Z</time></trkpt><trkpt lat="40.2721154" lon="17.880278"><ele>3.0</ele><time>2026-04-11T07:10:57.013Z</time></trkpt><trkpt lat="40.2722056" lon="17.8801622"><ele>3.0</ele><time>2026-04-11T07:10:58.01Z</time></trkpt><trkpt lat="40.2722808" lon="17.8800413"><ele>3.0</ele><time>2026-04-11T07:10:59.012Z</time></trkpt><trkpt lat="40.2723628" lon="17.8799327"><ele>3.0</ele><time>2026-04-11T07:11:00.014Z</time></trkpt><trkpt lat="40.2724399" lon="17.8798221"><ele>3.0</ele><time>2026-04-11T07:11:01.027Z</time></trkpt><trkpt lat="40.2725098" lon="17.879708"><ele>3.0</ele><time>2026-04-11T07:11:02.019Z</time></trkpt><trkpt lat="40.2725811" lon="17.8796034"><ele>3.0</ele><time>2026-04-11T07:11:03.019Z</time></trkpt><trkpt lat="40.2726531" lon="17.8795009"><ele>3.0</ele><time>2026-04-11T07:11:04.015Z</time></trkpt><trkpt lat="40.2727252" lon="17.8793904"><ele>3.0</ele><time>2026-04-11T07:11:05.044Z</time></trkpt><trkpt lat="40.2728037" lon="17.8792724"><ele>2.75</ele><time>2026-04-11T07:11:06.014Z</time></trkpt><trkpt lat="40.2728796" lon="17.8791559"><ele>2.5</ele><time>2026-04-11T07:11:07.014Z</time></trkpt><trkpt lat="40.2729571" lon="17.8790254"><ele>2.25</ele><time>2026-04-11T07:11:08.016Z</time></trkpt><trkpt lat="40.273032" lon="17.8788928"><ele>2.0</ele><time>2026-04-11T07:11:09.019Z</time></trkpt><trkpt lat="40.2731093" lon="17.8787544"><ele>1.75</ele><time>2026-04-11T07:11:10.014Z</time></trkpt><trkpt lat="40.2731888" lon="17.8786265"><ele>1.5</ele><time>2026-04-11T07:11:11.022Z</time></trkpt><trkpt lat="40.2732449" lon="17.8784831"><ele>1.25</ele><time>2026-04-11T07:11:12.024Z</time></trkpt><trkpt lat="40.2732908" lon="17.8783521"><ele>1.0</ele><time>2026-04-11T07:11:13.024Z</time></trkpt><trkpt lat="40.2733485" lon="17.8782035"><ele>0.75</ele><time>2026-04-11T07:11:14.004Z</time></trkpt><trkpt lat="40.2734109" lon="17.8780609"><ele>0.5</ele><time>2026-04-11T07:11:15.047Z</time></trkpt><trkpt lat="40.2734675" lon="17.877907"><ele>0.25</ele><time>2026-04-11T07:11:16.022Z</time></trkpt><trkpt lat="40.2735075" lon="17.8777251"><ele>0.0</ele><time>2026-04-11T07:11:17.022Z</time></trkpt><trkpt lat="40.2735551" lon="17.8775614"><ele>0.0</ele><time>2026-04-11T07:11:18.012Z</time></trkpt><trkpt lat="40.2736009" lon="17.8773681"><ele>0.0</ele><time>2026-04-11T07:11:19.019Z</time></trkpt><trkpt lat="40.2736517" lon="17.877209"><ele>0.0</ele><time>2026-04-11T07:11:20.026Z</time></trkpt><trkpt lat="40.2737012" lon="17.8770326"><ele>0.0</ele><time>2026-04-11T07:11:21.029Z</time></trkpt><trkpt lat="40.2737494" lon="17.8768709"><ele>0.0</ele><time>2026-04-11T07:11:22.011Z</time></trkpt><trkpt lat="40.2737927" lon="17.8767332"><ele>0.0</ele><time>2026-04-11T07:11:23.014Z</time></trkpt><trkpt lat="40.2738362" lon="17.876599"><ele>0.0</ele><time>2026-04-11T07:11:24.022Z</time></trkpt><trkpt lat="40.2738756" lon="17.8764678"><ele>0.0</ele><time>2026-04-11T07:11:25.022Z</time></trkpt><trkpt lat="40.2739137" lon="17.8763457"><ele>0.0</ele><time>2026-04-11T07:11:26.032Z</time></trkpt><trkpt lat="40.2739471" lon="17.876235"><ele>0.0</ele><time>2026-04-11T07:11:27.018Z</time></trkpt><trkpt lat="40.2739799" lon="17.8761382"><ele>0.0</ele><time>2026-04-11T07:11:28.02Z</time></trkpt><trkpt lat="40.2740095" lon="17.8760346"><ele>0.0</ele><time>2026-04-11T07:11:29.014Z</time></trkpt><trkpt lat="40.2740574" lon="17.875905"><ele>0.0</ele><time>2026-04-11T07:11:31.022Z</time></trkpt><trkpt lat="40.2741156" lon="17.8758118"><ele>0.0</ele><time>2026-04-11T07:11:33.015Z</time></trkpt><trkpt lat="40.2741821" lon="17.8758027"><ele>0.0</ele><time>2026-04-11T07:11:35.012Z</time></trkpt><trkpt lat="40.2742434" lon="17.8758974"><ele>0.0</ele><time>2026-04-11T07:11:37.006Z</time></trkpt><trkpt lat="40.2742945" lon="17.875958"><ele>0.0</ele><time>2026-04-11T07:11:38.048Z</time></trkpt><trkpt lat="40.2743508" lon="17.8760282"><ele>0.0</ele><time>2026-04-11T07:11:39.01Z</time></trkpt><trkpt lat="40.2744302" lon="17.8761294"><ele>0.0</ele><time>2026-04-11T07:11:40.025Z</time></trkpt><trkpt lat="40.2745095" lon="17.8762272"><ele>0.0</ele><time>2026-04-11T07:11:41.021Z</time></trkpt><trkpt lat="40.274599" lon="17.876321"><ele>0.0</ele><time>2026-04-11T07:11:42.05Z</time></trkpt><trkpt lat="40.2746833" lon="17.8764168"><ele>0.0</ele><time>2026-04-11T07:11:43.012Z</time></trkpt><trkpt lat="40.2747635" lon="17.8765203"><ele>0.0</ele><time>2026-04-11T07:11:44.01Z</time></trkpt><trkpt lat="40.2748481" lon="17.8766238"><ele>0.0</ele><time>2026-04-11T07:11:45.023Z</time></trkpt><trkpt lat="40.274927" lon="17.8767217"><ele>0.0</ele><time>2026-04-11T07:11:46.023Z</time></trkpt><trkpt lat="40.2750029" lon="17.8768242"><ele>0.2</ele><time>2026-04-11T07:11:47.018Z</time></trkpt><trkpt lat="40.2750772" lon="17.8769151"><ele>0.4</ele><time>2026-04-11T07:11:48.009Z</time></trkpt><trkpt lat="40.2751357" lon="17.8769994"><ele>0.6000000000000001</ele><time>2026-04-11T07:11:49.101Z</time></trkpt><trkpt lat="40.275199" lon="17.8770816"><ele>0.8</ele><time>2026-04-11T07:11:50.084Z</time></trkpt><trkpt lat="40.2752546" lon="17.8771701"><ele>1.0</ele><time>2026-04-11T07:11:51.021Z</time></trkpt><trkpt lat="40.2753189" lon="17.8772509"><ele>0.9999999999999999</ele><time>2026-04-11T07:11:52.057Z</time></trkpt><trkpt lat="40.2753806" lon="17.8773415"><ele>1.0</ele><time>2026-04-11T07:11:53.018Z</time></trkpt><trkpt lat="40.2754395" lon="17.8774239"><ele>1.0</ele><time>2026-04-11T07:11:54.026Z</time></trkpt><trkpt lat="40.2754956" lon="17.8775101"><ele>1.0</ele><time>2026-04-11T07:11:55.013Z</time></trkpt><trkpt lat="40.2755101" lon="17.8775907"><ele>0.9999999999999999</ele><time>2026-04-11T07:11:56.014Z</time></trkpt><trkpt lat="40.2755393" lon="17.8776778"><ele>1.0</ele><time>2026-04-11T07:11:57.02Z</time></trkpt><trkpt lat="40.2755629" lon="17.87776"><ele>1.1666666666666665</ele><time>2026-04-11T07:11:58.02Z</time></trkpt><trkpt lat="40.2756055" lon="17.877828"><ele>1.3333333333333333</ele><time>2026-04-11T07:11:59.022Z</time></trkpt><trkpt lat="40.2756442" lon="17.8779021"><ele>1.5</ele><time>2026-04-11T07:12:00.01Z</time></trkpt><trkpt lat="40.2757542" lon="17.8779193"><ele>1.6666666666666665</ele><time>2026-04-11T07:12:02.02Z</time></trkpt><trkpt lat="40.2758348" lon="17.8778226"><ele>1.8333333333333333</ele><time>2026-04-11T07:12:04.059Z</time></trkpt><trkpt lat="40.275854" lon="17.8777285"><ele>2.0</ele><time>2026-04-11T07:12:05.02Z</time></trkpt><trkpt lat="40.2758882" lon="17.8776296"><ele>2.0</ele><time>2026-04-11T07:12:06.099Z</time></trkpt><trkpt lat="40.2759265" lon="17.8775404"><ele>2.0</ele><time>2026-04-11T07:12:07.023Z</time></trkpt><trkpt lat="40.2759722" lon="17.8774409"><ele>2.0</ele><time>2026-04-11T07:12:08.006Z</time></trkpt><trkpt lat="40.276051" lon="17.8773418"><ele>2.0</ele><time>2026-04-11T07:12:09.014Z</time></trkpt><trkpt lat="40.2761311" lon="17.8772605"><ele>2.0</ele><time>2026-04-11T07:12:10.021Z</time></trkpt><trkpt lat="40.2762151" lon="17.8771533"><ele>2.0</ele><time>2026-04-11T07:12:11.058Z</time></trkpt><trkpt lat="40.276295" lon="17.8770548"><ele>2.0</ele><time>2026-04-11T07:12:12.045Z</time></trkpt><trkpt lat="40.2763762" lon="17.8769418"><ele>2.0</ele><time>2026-04-11T07:12:13.012Z</time></trkpt><trkpt lat="40.2764583" lon="17.8768292"><ele>2.0</ele><time>2026-04-11T07:12:14.044Z</time></trkpt><trkpt lat="40.2765424" lon="17.8767156"><ele>2.0</ele><time>2026-04-11T07:12:15.014Z</time></trkpt><trkpt lat="40.2766255" lon="17.8766034"><ele>2.0</ele><time>2026-04-11T07:12:16.021Z</time></trkpt><trkpt lat="40.2767068" lon="17.8764912"><ele>2.0</ele><time>2026-04-11T07:12:17.01Z</time></trkpt><trkpt lat="40.276792" lon="17.8763934"><ele>2.0</ele><time>2026-04-11T07:12:18.039Z</time></trkpt><trkpt lat="40.2768708" lon="17.8762854"><ele>2.0</ele><time>2026-04-11T07:12:19.017Z</time></trkpt><trkpt lat="40.2769522" lon="17.8761766"><ele>2.0</ele><time>2026-04-11T07:12:20.007Z</time></trkpt><trkpt lat="40.2770345" lon="17.8760632"><ele>2.0</ele><time>2026-04-11T07:12:21.007Z</time></trkpt><trkpt lat="40.2771252" lon="17.8759428"><ele>2.0</ele><time>2026-04-11T07:12:22.017Z</time></trkpt><trkpt lat="40.2772127" lon="17.875818"><ele>2.0</ele><time>2026-04-11T07:12:23.051Z</time></trkpt><trkpt lat="40.2773064" lon="17.8756961"><ele>2.0</ele><time>2026-04-11T07:12:24.042Z</time></trkpt><trkpt lat="40.2773933" lon="17.8755788"><ele>2.0</ele><time>2026-04-11T07:12:25.023Z</time></trkpt><trkpt lat="40.2774901" lon="17.8754536"><ele>2.0</ele><time>2026-04-11T07:12:26.026Z</time></trkpt><trkpt lat="40.2775763" lon="17.8753372"><ele>2.0</ele><time>2026-04-11T07:12:27.056Z</time></trkpt><trkpt lat="40.2776696" lon="17.8752194"><ele>2.0</ele><time>2026-04-11T07:12:28.046Z</time></trkpt><trkpt lat="40.2777626" lon="17.8751108"><ele>2.0</ele><time>2026-04-11T07:12:29.055Z</time></trkpt><trkpt lat="40.2778563" lon="17.8749956"><ele>2.0</ele><time>2026-04-11T07:12:30.054Z</time></trkpt><trkpt lat="40.2779526" lon="17.8748767"><ele>2.0</ele><time>2026-04-11T07:12:31.045Z</time></trkpt><trkpt lat="40.2780435" lon="17.874756"><ele>2.0</ele><time>2026-04-11T07:12:32.007Z</time></trkpt><trkpt lat="40.2781411" lon="17.8746223"><ele>2.0</ele><time>2026-04-11T07:12:33.024Z</time></trkpt><trkpt lat="40.2782334" lon="17.8744924"><ele>2.0</ele><time>2026-04-11T07:12:34.022Z</time></trkpt><trkpt lat="40.2783266" lon="17.8743675"><ele>1.75</ele><time>2026-04-11T07:12:35.007Z</time></trkpt><trkpt lat="40.2784101" lon="17.8742513"><ele>1.5</ele><time>2026-04-11T07:12:36.019Z</time></trkpt><trkpt lat="40.2784951" lon="17.8741307"><ele>1.25</ele><time>2026-04-11T07:12:37.024Z</time></trkpt><trkpt lat="40.2785769" lon="17.8740205"><ele>1.0</ele><time>2026-04-11T07:12:38.012Z</time></trkpt><trkpt lat="40.2786426" lon="17.8739263"><ele>1.0</ele><time>2026-04-11T07:12:39.102Z</time></trkpt><trkpt lat="40.2787167" lon="17.87383"><ele>1.0</ele><time>2026-04-11T07:12:40.023Z</time></trkpt><trkpt lat="40.2787904" lon="17.8737377"><ele>1.0</ele><time>2026-04-11T07:12:41.096Z</time></trkpt><trkpt lat="40.2788598" lon="17.873637"><ele>1.0</ele><time>2026-04-11T07:12:42.05Z</time></trkpt><trkpt lat="40.2789298" lon="17.8735413"><ele>1.0</ele><time>2026-04-11T07:12:43.006Z</time></trkpt><trkpt lat="40.2790142" lon="17.8734239"><ele>0.75</ele><time>2026-04-11T07:12:44.021Z</time></trkpt><trkpt lat="40.2790979" lon="17.873315"><ele>0.5</ele><time>2026-04-11T07:12:45.02Z</time></trkpt><trkpt lat="40.2791808" lon="17.8731934"><ele>0.25</ele><time>2026-04-11T07:12:46.042Z</time></trkpt><trkpt lat="40.2792704" lon="17.8730781"><ele>0.0</ele><time>2026-04-11T07:12:47.05Z</time></trkpt><trkpt lat="40.2793534" lon="17.8729605"><ele>0.0</ele><time>2026-04-11T07:12:48.022Z</time></trkpt><trkpt lat="40.2794422" lon="17.8728367"><ele>0.0</ele><time>2026-04-11T07:12:49.023Z</time></trkpt><trkpt lat="40.2795381" lon="17.8727179"><ele>0.0</ele><time>2026-04-11T07:12:50.019Z</time></trkpt><trkpt lat="40.279637" lon="17.8725928"><ele>0.0</ele><time>2026-04-11T07:12:51.024Z</time></trkpt><trkpt lat="40.2797308" lon="17.8724598"><ele>0.75</ele><time>2026-04-11T07:12:52.02Z</time></trkpt><trkpt lat="40.2798258" lon="17.8723331"><ele>1.5</ele><time>2026-04-11T07:12:53.009Z</time></trkpt><trkpt lat="40.2799299" lon="17.8722055"><ele>2.25</ele><time>2026-04-11T07:12:54.046Z</time></trkpt><trkpt lat="40.2800244" lon="17.8720783"><ele>3.0</ele><time>2026-04-11T07:12:55.011Z</time></trkpt><trkpt lat="40.2801178" lon="17.8719653"><ele>3.0</ele><time>2026-04-11T07:12:56.012Z</time></trkpt><trkpt lat="40.2802165" lon="17.8718471"><ele>3.0</ele><time>2026-04-11T07:12:57.048Z</time></trkpt><trkpt lat="40.2803074" lon="17.8717216"><ele>3.0</ele><time>2026-04-11T07:12:58.024Z</time></trkpt><trkpt lat="40.2803998" lon="17.8716051"><ele>3.0</ele><time>2026-04-11T07:12:59.055Z</time></trkpt><trkpt lat="40.2804921" lon="17.8714772"><ele>3.0</ele><time>2026-04-11T07:13:00.047Z</time></trkpt><trkpt lat="40.2805978" lon="17.871351"><ele>3.0</ele><time>2026-04-11T07:13:01.047Z</time></trkpt><trkpt lat="40.2806978" lon="17.8712134"><ele>3.0</ele><time>2026-04-11T07:13:02.056Z</time></trkpt><trkpt lat="40.2807939" lon="17.8710923"><ele>3.0</ele><time>2026-04-11T07:13:03.057Z</time></trkpt><trkpt lat="40.2808905" lon="17.8709636"><ele>2.75</ele><time>2026-04-11T07:13:04.004Z</time></trkpt><trkpt lat="40.2809728" lon="17.8708466"><ele>2.5</ele><time>2026-04-11T07:13:05.049Z</time></trkpt><trkpt lat="40.281067" lon="17.8707212"><ele>2.25</ele><time>2026-04-11T07:13:06.023Z</time></trkpt><trkpt lat="40.281137" lon="17.8706024"><ele>2.0</ele><time>2026-04-11T07:13:07.015Z</time></trkpt><trkpt lat="40.281223" lon="17.8704809"><ele>2.0</ele><time>2026-04-11T07:13:08.012Z</time></trkpt><trkpt lat="40.2813105" lon="17.870371"><ele>2.0</ele><time>2026-04-11T07:13:09.018Z</time></trkpt><trkpt lat="40.2814059" lon="17.8702517"><ele>2.0</ele><time>2026-04-11T07:13:10.031Z</time></trkpt><trkpt lat="40.2814936" lon="17.8701313"><ele>2.0</ele><time>2026-04-11T07:13:11.008Z</time></trkpt><trkpt lat="40.281584" lon="17.8699987"><ele>1.25</ele><time>2026-04-11T07:13:12.047Z</time></trkpt><trkpt lat="40.2816738" lon="17.8698679"><ele>0.5</ele><time>2026-04-11T07:13:13.01Z</time></trkpt><trkpt lat="40.2817583" lon="17.8697024"><ele>-0.25</ele><time>2026-04-11T07:13:14.016Z</time></trkpt><trkpt lat="40.2818548" lon="17.8695541"><ele>-1.0</ele><time>2026-04-11T07:13:15.013Z</time></trkpt><trkpt lat="40.2819614" lon="17.869358"><ele>-1.0</ele><time>2026-04-11T07:13:16.018Z</time></trkpt><trkpt lat="40.2820692" lon="17.8691808"><ele>-1.0</ele><time>2026-04-11T07:13:17.018Z</time></trkpt><trkpt lat="40.2821742" lon="17.8689986"><ele>-1.0</ele><time>2026-04-11T07:13:18.05Z</time></trkpt><trkpt lat="40.2822807" lon="17.8688013"><ele>-0.3333333333333333</ele><time>2026-04-11T07:13:19.058Z</time></trkpt><trkpt lat="40.2823849" lon="17.8685904"><ele>0.3333333333333333</ele><time>2026-04-11T07:13:20.049Z</time></trkpt><trkpt lat="40.2824802" lon="17.8683978"><ele>1.0</ele><time>2026-04-11T07:13:21.02Z</time></trkpt><trkpt lat="40.2825839" lon="17.8682027"><ele>1.0</ele><time>2026-04-11T07:13:22.019Z</time></trkpt><trkpt lat="40.2826836" lon="17.8680091"><ele>1.0</ele><time>2026-04-11T07:13:23.007Z</time></trkpt><trkpt lat="40.2827775" lon="17.8678207"><ele>1.0</ele><time>2026-04-11T07:13:24.039Z</time></trkpt><trkpt lat="40.282874" lon="17.867639"><ele>0.6666666666666666</ele><time>2026-04-11T07:13:25.018Z</time></trkpt><trkpt lat="40.2829612" lon="17.8674532"><ele>0.3333333333333333</ele><time>2026-04-11T07:13:26.055Z</time></trkpt><trkpt lat="40.2830578" lon="17.8672702"><ele>0.0</ele><time>2026-04-11T07:13:27.025Z</time></trkpt><trkpt lat="40.2831532" lon="17.8670776"><ele>0.6666666666666666</ele><time>2026-04-11T07:13:28.015Z</time></trkpt><trkpt lat="40.2832467" lon="17.8668952"><ele>1.3333333333333333</ele><time>2026-04-11T07:13:29.004Z</time></trkpt><trkpt lat="40.2833426" lon="17.8667142"><ele>2.0</ele><time>2026-04-11T07:13:30.016Z</time></trkpt><trkpt lat="40.2834322" lon="17.8665476"><ele>2.5</ele><time>2026-04-11T07:13:31.054Z</time></trkpt><trkpt lat="40.2835186" lon="17.8663792"><ele>3.0</ele><time>2026-04-11T07:13:32.021Z</time></trkpt><trkpt lat="40.2836039" lon="17.8662408"><ele>3.5</ele><time>2026-04-11T07:13:33.03Z</time></trkpt><trkpt lat="40.2836837" lon="17.8660905"><ele>4.0</ele><time>2026-04-11T07:13:34.051Z</time></trkpt><trkpt lat="40.2837475" lon="17.8659478"><ele>4.25</ele><time>2026-04-11T07:13:35.022Z</time></trkpt><trkpt lat="40.2838119" lon="17.8658029"><ele>4.5</ele><time>2026-04-11T07:13:36.05Z</time></trkpt><trkpt lat="40.2838932" lon="17.8656553"><ele>4.75</ele><time>2026-04-11T07:13:37.02Z</time></trkpt><trkpt lat="40.2839718" lon="17.8655149"><ele>5.0</ele><time>2026-04-11T07:13:38.046Z</time></trkpt><trkpt lat="40.2840485" lon="17.8653673"><ele>5.0</ele><time>2026-04-11T07:13:39.004Z</time></trkpt><trkpt lat="40.2841062" lon="17.865215"><ele>5.0</ele><time>2026-04-11T07:13:40.042Z</time></trkpt><trkpt lat="40.284184" lon="17.8650671"><ele>5.0</ele><time>2026-04-11T07:13:41.052Z</time></trkpt><trkpt lat="40.284256" lon="17.864921"><ele>5.0</ele><time>2026-04-11T07:13:42.011Z</time></trkpt><trkpt lat="40.2843211" lon="17.8647966"><ele>5.0</ele><time>2026-04-11T07:13:43.04Z</time></trkpt><trkpt lat="40.2843924" lon="17.8646559"><ele>5.0</ele><time>2026-04-11T07:13:44.049Z</time></trkpt><trkpt lat="40.2844641" lon="17.8645196"><ele>5.0</ele><time>2026-04-11T07:13:45.009Z</time></trkpt><trkpt lat="40.284535" lon="17.8643699"><ele>5.0</ele><time>2026-04-11T07:13:46.022Z</time></trkpt><trkpt lat="40.2846135" lon="17.8642235"><ele>4.5</ele><time>2026-04-11T07:13:47.051Z</time></trkpt><trkpt lat="40.2846846" lon="17.8640698"><ele>4.0</ele><time>2026-04-11T07:13:48.013Z</time></trkpt><trkpt lat="40.2847596" lon="17.8639218"><ele>3.5</ele><time>2026-04-11T07:13:49.046Z</time></trkpt><trkpt lat="40.2848318" lon="17.8637715"><ele>3.0</ele><time>2026-04-11T07:13:50.018Z</time></trkpt><trkpt lat="40.2849021" lon="17.8636165"><ele>3.0</ele><time>2026-04-11T07:13:51.049Z</time></trkpt><trkpt lat="40.2849741" lon="17.8634527"><ele>3.0</ele><time>2026-04-11T07:13:52.024Z</time></trkpt><trkpt lat="40.2850521" lon="17.8632581"><ele>3.0</ele><time>2026-04-11T07:13:53.031Z</time></trkpt><trkpt lat="40.2851135" lon="17.863071"><ele>3.0</ele><time>2026-04-11T07:13:54.026Z</time></trkpt><trkpt lat="40.2851819" lon="17.862866"><ele>3.0</ele><time>2026-04-11T07:13:55.021Z</time></trkpt><trkpt lat="40.285253" lon="17.862677"><ele>3.0</ele><time>2026-04-11T07:13:56.017Z</time></trkpt><trkpt lat="40.285317" lon="17.8624726"><ele>2.6666666666666665</ele><time>2026-04-11T07:13:57.019Z</time></trkpt><trkpt lat="40.2853841" lon="17.862279"><ele>2.333333333333333</ele><time>2026-04-11T07:13:58.022Z</time></trkpt><trkpt lat="40.2854414" lon="17.862092"><ele>2.0</ele><time>2026-04-11T07:13:59.023Z</time></trkpt><trkpt lat="40.2855039" lon="17.8618962"><ele>2.333333333333333</ele><time>2026-04-11T07:14:00.021Z</time></trkpt><trkpt lat="40.285563" lon="17.8617089"><ele>2.6666666666666665</ele><time>2026-04-11T07:14:01.024Z</time></trkpt><trkpt lat="40.2856216" lon="17.8615207"><ele>3.0</ele><time>2026-04-11T07:14:02.021Z</time></trkpt><trkpt lat="40.2856823" lon="17.861341"><ele>3.25</ele><time>2026-04-11T07:14:03.014Z</time></trkpt><trkpt lat="40.285747" lon="17.8611597"><ele>3.5</ele><time>2026-04-11T07:14:04.049Z</time></trkpt><trkpt lat="40.2858043" lon="17.8609837"><ele>3.75</ele><time>2026-04-11T07:14:05.049Z</time></trkpt><trkpt lat="40.2858584" lon="17.8608249"><ele>4.0</ele><time>2026-04-11T07:14:06.043Z</time></trkpt><trkpt lat="40.2859146" lon="17.8606555"><ele>4.0</ele><time>2026-04-11T07:14:07.006Z</time></trkpt><trkpt lat="40.2859712" lon="17.8604804"><ele>4.0</ele><time>2026-04-11T07:14:08.046Z</time></trkpt><trkpt lat="40.2860305" lon="17.8603025"><ele>4.0</ele><time>2026-04-11T07:14:09.019Z</time></trkpt><trkpt lat="40.2861011" lon="17.8601243"><ele>4.0</ele><time>2026-04-11T07:14:10.035Z</time></trkpt><trkpt lat="40.2861625" lon="17.8599365"><ele>4.0</ele><time>2026-04-11T07:14:11.025Z</time></trkpt><trkpt lat="40.286219" lon="17.859769"><ele>4.0</ele><time>2026-04-11T07:14:12.026Z</time></trkpt><trkpt lat="40.2862784" lon="17.8595932"><ele>4.0</ele><time>2026-04-11T07:14:13.007Z</time></trkpt><trkpt lat="40.2863268" lon="17.8594185"><ele>4.0</ele><time>2026-04-11T07:14:14.018Z</time></trkpt><trkpt lat="40.2863778" lon="17.8592505"><ele>4.0</ele><time>2026-04-11T07:14:15.025Z</time></trkpt><trkpt lat="40.2864316" lon="17.8590904"><ele>4.0</ele><time>2026-04-11T07:14:16.009Z</time></trkpt><trkpt lat="40.2864853" lon="17.8589422"><ele>4.0</ele><time>2026-04-11T07:14:17.101Z</time></trkpt><trkpt lat="40.2865364" lon="17.85879"><ele>4.0</ele><time>2026-04-11T07:14:18.048Z</time></trkpt><trkpt lat="40.2865882" lon="17.8586303"><ele>4.0</ele><time>2026-04-11T07:14:19.041Z</time></trkpt><trkpt lat="40.2866332" lon="17.8585051"><ele>4.0</ele><time>2026-04-11T07:14:20.054Z</time></trkpt><trkpt lat="40.2866749" lon="17.8583883"><ele>4.0</ele><time>2026-04-11T07:14:21.047Z</time></trkpt><trkpt lat="40.2867123" lon="17.8582713"><ele>4.0</ele><time>2026-04-11T07:14:22.005Z</time></trkpt><trkpt lat="40.2867481" lon="17.8581699"><ele>4.0</ele><time>2026-04-11T07:14:23.038Z</time></trkpt><trkpt lat="40.2867851" lon="17.8580544"><ele>3.75</ele><time>2026-04-11T07:14:24.043Z</time></trkpt><trkpt lat="40.2868306" lon="17.8579202"><ele>3.5</ele><time>2026-04-11T07:14:25.018Z</time></trkpt><trkpt lat="40.2868835" lon="17.857776"><ele>3.25</ele><time>2026-04-11T07:14:26.015Z</time></trkpt><trkpt lat="40.286925" lon="17.8576295"><ele>3.0</ele><time>2026-04-11T07:14:27.048Z</time></trkpt><trkpt lat="40.286975" lon="17.8574893"><ele>2.75</ele><time>2026-04-11T07:14:28.009Z</time></trkpt><trkpt lat="40.2870075" lon="17.8573552"><ele>2.5</ele><time>2026-04-11T07:14:29.006Z</time></trkpt><trkpt lat="40.2870541" lon="17.857211"><ele>2.25</ele><time>2026-04-11T07:14:30.011Z</time></trkpt><trkpt lat="40.2871009" lon="17.8570701"><ele>2.0</ele><time>2026-04-11T07:14:31.007Z</time></trkpt><trkpt lat="40.2871492" lon="17.8569175"><ele>2.0</ele><time>2026-04-11T07:14:32.017Z</time></trkpt><trkpt lat="40.2871989" lon="17.8567705"><ele>2.0</ele><time>2026-04-11T07:14:33.009Z</time></trkpt><trkpt lat="40.2872565" lon="17.8566155"><ele>2.0</ele><time>2026-04-11T07:14:34.042Z</time></trkpt><trkpt lat="40.2873119" lon="17.8564592"><ele>2.0</ele><time>2026-04-11T07:14:35.015Z</time></trkpt><trkpt lat="40.287359" lon="17.8563085"><ele>2.5</ele><time>2026-04-11T07:14:36.016Z</time></trkpt><trkpt lat="40.287421" lon="17.8561453"><ele>3.0</ele><time>2026-04-11T07:14:37.021Z</time></trkpt><trkpt lat="40.2874693" lon="17.8559656"><ele>3.5</ele><time>2026-04-11T07:14:38.02Z</time></trkpt><trkpt lat="40.2875313" lon="17.8557962"><ele>4.0</ele><time>2026-04-11T07:14:39.046Z</time></trkpt><trkpt lat="40.2875908" lon="17.8556225"><ele>4.0</ele><time>2026-04-11T07:14:40.005Z</time></trkpt><trkpt lat="40.2876528" lon="17.8554482"><ele>4.0</ele><time>2026-04-11T07:14:41.015Z</time></trkpt><trkpt lat="40.2877121" lon="17.8552853"><ele>4.0</ele><time>2026-04-11T07:14:42.018Z</time></trkpt><trkpt lat="40.2877631" lon="17.855122"><ele>4.0</ele><time>2026-04-11T07:14:43.042Z</time></trkpt><trkpt lat="40.2878232" lon="17.8549528"><ele>4.0</ele><time>2026-04-11T07:14:44.041Z</time></trkpt><trkpt lat="40.2878738" lon="17.8547875"><ele>4.0</ele><time>2026-04-11T07:14:45.017Z</time></trkpt><trkpt lat="40.2879285" lon="17.8546225"><ele>4.0</ele><time>2026-04-11T07:14:46.009Z</time></trkpt><trkpt lat="40.2879914" lon="17.8544524"><ele>4.0</ele><time>2026-04-11T07:14:47.015Z</time></trkpt><trkpt lat="40.2880412" lon="17.854292"><ele>4.0</ele><time>2026-04-11T07:14:48.048Z</time></trkpt><trkpt lat="40.2880834" lon="17.8541468"><ele>4.0</ele><time>2026-04-11T07:14:49.018Z</time></trkpt><trkpt lat="40.2881291" lon="17.8540029"><ele>4.0</ele><time>2026-04-11T07:14:50.014Z</time></trkpt><trkpt lat="40.2881796" lon="17.8538602"><ele>4.0</ele><time>2026-04-11T07:14:51.003Z</time></trkpt><trkpt lat="40.2882285" lon="17.8537257"><ele>4.0</ele><time>2026-04-11T07:14:52.046Z</time></trkpt><trkpt lat="40.288282" lon="17.8535896"><ele>4.0</ele><time>2026-04-11T07:14:53.024Z</time></trkpt><trkpt lat="40.2883239" lon="17.8534673"><ele>4.0</ele><time>2026-04-11T07:14:54.046Z</time></trkpt><trkpt lat="40.2883594" lon="17.8533505"><ele>4.0</ele><time>2026-04-11T07:14:55.016Z</time></trkpt><trkpt lat="40.2883895" lon="17.8532453"><ele>4.0</ele><time>2026-04-11T07:14:56.046Z</time></trkpt><trkpt lat="40.2884269" lon="17.8531441"><ele>3.9999999999999996</ele><time>2026-04-11T07:14:57.015Z</time></trkpt><trkpt lat="40.2884622" lon="17.8530451"><ele>4.0</ele><time>2026-04-11T07:14:58.009Z</time></trkpt><trkpt lat="40.2885004" lon="17.852948"><ele>4.0</ele><time>2026-04-11T07:14:59.054Z</time></trkpt><trkpt lat="40.2885348" lon="17.8528574"><ele>4.0</ele><time>2026-04-11T07:15:00.013Z</time></trkpt><trkpt lat="40.2885597" lon="17.85277"><ele>3.9999999999999996</ele><time>2026-04-11T07:15:01.007Z</time></trkpt><trkpt lat="40.2886063" lon="17.852628"><ele>4.0</ele><time>2026-04-11T07:15:03.022Z</time></trkpt><trkpt lat="40.2886512" lon="17.8525345"><ele>3.9999999999999996</ele><time>2026-04-11T07:15:05.023Z</time></trkpt><trkpt lat="40.2887166" lon="17.8524644"><ele>4.0</ele><time>2026-04-11T07:15:07.063Z</time></trkpt><trkpt lat="40.288783" lon="17.8523911"><ele>4.0</ele><time>2026-04-11T07:15:09.046Z</time></trkpt><trkpt lat="40.288827" lon="17.8522881"><ele>4.0</ele><time>2026-04-11T07:15:11.02Z</time></trkpt><trkpt lat="40.2887511" lon="17.8521626"><ele>3.9999999999999996</ele><time>2026-04-11T07:15:13.018Z</time></trkpt><trkpt lat="40.2887091" lon="17.8520976"><ele>4.0</ele><time>2026-04-11T07:15:14.047Z</time></trkpt><trkpt lat="40.2886919" lon="17.8520179"><ele>4.0</ele><time>2026-04-11T07:15:15.092Z</time></trkpt><trkpt lat="40.2886668" lon="17.851907"><ele>4.0</ele><time>2026-04-11T07:15:17.014Z</time></trkpt><trkpt lat="40.2886677" lon="17.8517965"><ele>4.0</ele><time>2026-04-11T07:15:19.042Z</time></trkpt><trkpt lat="40.2886685" lon="17.8516589"><ele>4.0</ele><time>2026-04-11T07:15:21.014Z</time></trkpt><trkpt lat="40.2886934" lon="17.8514926"><ele>4.0</ele><time>2026-04-11T07:15:23.048Z</time></trkpt><trkpt lat="40.2887234" lon="17.8513816"><ele>3.9999999999999996</ele><time>2026-04-11T07:15:24.051Z</time></trkpt><trkpt lat="40.2887185" lon="17.8512642"><ele>4.0</ele><time>2026-04-11T07:15:25.041Z</time></trkpt><trkpt lat="40.288721" lon="17.8511495"><ele>4.0</ele><time>2026-04-11T07:15:26.004Z</time></trkpt><trkpt lat="40.2887143" lon="17.8510314"><ele>4.0</ele><time>2026-04-11T07:15:27.011Z</time></trkpt><trkpt lat="40.2887213" lon="17.8509235"><ele>3.9999999999999996</ele><time>2026-04-11T07:15:28.027Z</time></trkpt><trkpt lat="40.2887261" lon="17.8508139"><ele>4.0</ele><time>2026-04-11T07:15:29.025Z</time></trkpt><trkpt lat="40.2887247" lon="17.8507015"><ele>4.0</ele><time>2026-04-11T07:15:30.022Z</time></trkpt><trkpt lat="40.2887213" lon="17.8505824"><ele>4.0</ele><time>2026-04-11T07:15:31.064Z</time></trkpt><trkpt lat="40.28872" lon="17.8504613"><ele>4.0</ele><time>2026-04-11T07:15:32.006Z</time></trkpt><trkpt lat="40.2887163" lon="17.8503249"><ele>4.0</ele><time>2026-04-11T07:15:33.042Z</time></trkpt><trkpt lat="40.2887067" lon="17.8501831"><ele>4.0</ele><time>2026-04-11T07:15:34.015Z</time></trkpt><trkpt lat="40.2887044" lon="17.8500452"><ele>4.166666666666666</ele><time>2026-04-11T07:15:35.004Z</time></trkpt><trkpt lat="40.2887214" lon="17.849913"><ele>4.333333333333333</ele><time>2026-04-11T07:15:36.01Z</time></trkpt><trkpt lat="40.2887119" lon="17.8497881"><ele>4.5</ele><time>2026-04-11T07:15:37.043Z</time></trkpt><trkpt lat="40.2887107" lon="17.8496652"><ele>4.666666666666667</ele><time>2026-04-11T07:15:38.006Z</time></trkpt><trkpt lat="40.2887136" lon="17.8495671"><ele>4.833333333333334</ele><time>2026-04-11T07:15:39.044Z</time></trkpt><trkpt lat="40.2887104" lon="17.8494717"><ele>5.0</ele><time>2026-04-11T07:15:40.02Z</time></trkpt><trkpt lat="40.288703" lon="17.8493835"><ele>5.166666666666667</ele><time>2026-04-11T07:15:41.019Z</time></trkpt><trkpt lat="40.2887012" lon="17.8492897"><ele>5.333333333333334</ele><time>2026-04-11T07:15:42.052Z</time></trkpt><trkpt lat="40.288693" lon="17.8491873"><ele>5.5</ele><time>2026-04-11T07:15:43.047Z</time></trkpt><trkpt lat="40.2886977" lon="17.8490975"><ele>5.666666666666667</ele><time>2026-04-11T07:15:44.021Z</time></trkpt><trkpt lat="40.2886929" lon="17.8489989"><ele>5.833333333333333</ele><time>2026-04-11T07:15:45.021Z</time></trkpt><trkpt lat="40.2887081" lon="17.8488954"><ele>6.0</ele><time>2026-04-11T07:15:46.021Z</time></trkpt><trkpt lat="40.2887261" lon="17.848782"><ele>6.0</ele><time>2026-04-11T07:15:47.024Z</time></trkpt><trkpt lat="40.2887408" lon="17.8486373"><ele>6.0</ele><time>2026-04-11T07:15:48.025Z</time></trkpt><trkpt lat="40.2887576" lon="17.8484748"><ele>6.0</ele><time>2026-04-11T07:15:49.019Z</time></trkpt><trkpt lat="40.2887457" lon="17.8483161"><ele>6.0</ele><time>2026-04-11T07:15:50.022Z</time></trkpt><trkpt lat="40.2887266" lon="17.8481389"><ele>6.0</ele><time>2026-04-11T07:15:51.024Z</time></trkpt><trkpt lat="40.2887089" lon="17.8479728"><ele>6.0</ele><time>2026-04-11T07:15:52.017Z</time></trkpt><trkpt lat="40.2886946" lon="17.8477992"><ele>6.0</ele><time>2026-04-11T07:15:53.017Z</time></trkpt><trkpt lat="40.2886984" lon="17.8476201"><ele>6.0</ele><time>2026-04-11T07:15:54.008Z</time></trkpt><trkpt lat="40.2887015" lon="17.8474426"><ele>5.75</ele><time>2026-04-11T07:15:55.019Z</time></trkpt><trkpt lat="40.2886976" lon="17.8472839"><ele>5.5</ele><time>2026-04-11T07:15:56.059Z</time></trkpt><trkpt lat="40.2886992" lon="17.8471337"><ele>5.25</ele><time>2026-04-11T07:15:57.05Z</time></trkpt><trkpt lat="40.2887003" lon="17.8469812"><ele>5.0</ele><time>2026-04-11T07:15:58.01Z</time></trkpt><trkpt lat="40.2886904" lon="17.8468177"><ele>5.0</ele><time>2026-04-11T07:15:59.019Z</time></trkpt><trkpt lat="40.2886828" lon="17.8466625"><ele>5.0</ele><time>2026-04-11T07:16:00.016Z</time></trkpt><trkpt lat="40.2886841" lon="17.8465221"><ele>5.0</ele><time>2026-04-11T07:16:01.016Z</time></trkpt><trkpt lat="40.2886854" lon="17.8463654"><ele>5.0</ele><time>2026-04-11T07:16:02.02Z</time></trkpt><trkpt lat="40.2886895" lon="17.8462119"><ele>5.0</ele><time>2026-04-11T07:16:03.021Z</time></trkpt><trkpt lat="40.2886933" lon="17.8460612"><ele>5.0</ele><time>2026-04-11T07:16:04.02Z</time></trkpt><trkpt lat="40.2886926" lon="17.8459059"><ele>5.0</ele><time>2026-04-11T07:16:05.009Z</time></trkpt><trkpt lat="40.2886841" lon="17.8457512"><ele>5.0</ele><time>2026-04-11T07:16:06.022Z</time></trkpt><trkpt lat="40.2886786" lon="17.8455966"><ele>4.75</ele><time>2026-04-11T07:16:07.024Z</time></trkpt><trkpt lat="40.2886795" lon="17.845445"><ele>4.5</ele><time>2026-04-11T07:16:08.028Z</time></trkpt><trkpt lat="40.288671" lon="17.8452927"><ele>4.25</ele><time>2026-04-11T07:16:09.023Z</time></trkpt><trkpt lat="40.2886719" lon="17.8451389"><ele>4.0</ele><time>2026-04-11T07:16:10.02Z</time></trkpt><trkpt lat="40.2886878" lon="17.8449856"><ele>4.0</ele><time>2026-04-11T07:16:11.02Z</time></trkpt><trkpt lat="40.2886998" lon="17.8448454"><ele>4.0</ele><time>2026-04-11T07:16:12.021Z</time></trkpt><trkpt lat="40.2887005" lon="17.8447232"><ele>4.0</ele><time>2026-04-11T07:16:13.022Z</time></trkpt><trkpt lat="40.2887014" lon="17.8446014"><ele>4.0</ele><time>2026-04-11T07:16:14.023Z</time></trkpt><trkpt lat="40.2887095" lon="17.8444766"><ele>4.0</ele><time>2026-04-11T07:16:15.026Z</time></trkpt><trkpt lat="40.2887058" lon="17.8443451"><ele>3.8000000000000003</ele><time>2026-04-11T07:16:16.024Z</time></trkpt><trkpt lat="40.2887067" lon="17.844219"><ele>3.6000000000000005</ele><time>2026-04-11T07:16:17.007Z</time></trkpt><trkpt lat="40.2887152" lon="17.8440853"><ele>3.4</ele><time>2026-04-11T07:16:18.016Z</time></trkpt><trkpt lat="40.2887165" lon="17.8439367"><ele>3.2</ele><time>2026-04-11T07:16:19.019Z</time></trkpt><trkpt lat="40.2887065" lon="17.8437849"><ele>3.0</ele><time>2026-04-11T07:16:20.045Z</time></trkpt><trkpt lat="40.2887" lon="17.843646"><ele>3.0</ele><time>2026-04-11T07:16:21.016Z</time></trkpt><trkpt lat="40.2886958" lon="17.8434987"><ele>3.0</ele><time>2026-04-11T07:16:22.015Z</time></trkpt><trkpt lat="40.2886808" lon="17.8433489"><ele>3.0</ele><time>2026-04-11T07:16:23.016Z</time></trkpt><trkpt lat="40.2886667" lon="17.8432038"><ele>3.0</ele><time>2026-04-11T07:16:24.015Z</time></trkpt><trkpt lat="40.2886629" lon="17.8430398"><ele>3.0</ele><time>2026-04-11T07:16:25.063Z</time></trkpt><trkpt lat="40.2886561" lon="17.8428793"><ele>3.0</ele><time>2026-04-11T07:16:26.019Z</time></trkpt><trkpt lat="40.2886473" lon="17.8427181"><ele>3.0</ele><time>2026-04-11T07:16:27.019Z</time></trkpt><trkpt lat="40.2886463" lon="17.8425505"><ele>3.0</ele><time>2026-04-11T07:16:28.018Z</time></trkpt><trkpt lat="40.2886493" lon="17.842388"><ele>3.0</ele><time>2026-04-11T07:16:29.021Z</time></trkpt><trkpt lat="40.2886444" lon="17.8422244"><ele>3.0</ele><time>2026-04-11T07:16:30.016Z</time></trkpt><trkpt lat="40.288639" lon="17.8420549"><ele>3.0</ele><time>2026-04-11T07:16:31.016Z</time></trkpt><trkpt lat="40.2886408" lon="17.8418746"><ele>3.0</ele><time>2026-04-11T07:16:32.014Z</time></trkpt><trkpt lat="40.2886382" lon="17.8416925"><ele>3.0</ele><time>2026-04-11T07:16:33.011Z</time></trkpt><trkpt lat="40.2886357" lon="17.8415128"><ele>3.0</ele><time>2026-04-11T07:16:34.014Z</time></trkpt><trkpt lat="40.2886241" lon="17.8413272"><ele>3.0</ele><time>2026-04-11T07:16:35.011Z</time></trkpt><trkpt lat="40.2886195" lon="17.8411393"><ele>3.0</ele><time>2026-04-11T07:16:36.013Z</time></trkpt><trkpt lat="40.2886148" lon="17.8409479"><ele>3.0</ele><time>2026-04-11T07:16:37.004Z</time></trkpt><trkpt lat="40.2886156" lon="17.8407573"><ele>3.0</ele><time>2026-04-11T07:16:38.008Z</time></trkpt><trkpt lat="40.2886284" lon="17.8405418"><ele>3.0</ele><time>2026-04-11T07:16:39.051Z</time></trkpt><trkpt lat="40.288621" lon="17.8403415"><ele>3.0</ele><time>2026-04-11T07:16:40.02Z</time></trkpt><trkpt lat="40.288618" lon="17.840146"><ele>3.0</ele><time>2026-04-11T07:16:41.026Z</time></trkpt><trkpt lat="40.2886152" lon="17.8399485"><ele>3.0</ele><time>2026-04-11T07:16:42.012Z</time></trkpt><trkpt lat="40.2886239" lon="17.8397312"><ele>3.0</ele><time>2026-04-11T07:16:43.007Z</time></trkpt><trkpt lat="40.2886282" lon="17.8395258"><ele>3.0</ele><time>2026-04-11T07:16:44.044Z</time></trkpt><trkpt lat="40.2886203" lon="17.8393229"><ele>3.0</ele><time>2026-04-11T07:16:45.022Z</time></trkpt><trkpt lat="40.288618" lon="17.8391223"><ele>3.0</ele><time>2026-04-11T07:16:46.008Z</time></trkpt><trkpt lat="40.2886123" lon="17.8389331"><ele>3.0</ele><time>2026-04-11T07:16:47.039Z</time></trkpt><trkpt lat="40.2886048" lon="17.8387489"><ele>3.0</ele><time>2026-04-11T07:16:48.044Z</time></trkpt><trkpt lat="40.2886246" lon="17.838545"><ele>3.0</ele><time>2026-04-11T07:16:49.018Z</time></trkpt><trkpt lat="40.2886152" lon="17.8383421"><ele>3.333333333333333</ele><time>2026-04-11T07:16:50.027Z</time></trkpt><trkpt lat="40.2886323" lon="17.8381439"><ele>3.6666666666666665</ele><time>2026-04-11T07:16:51.018Z</time></trkpt><trkpt lat="40.2886331" lon="17.8379357"><ele>4.0</ele><time>2026-04-11T07:16:52.058Z</time></trkpt><trkpt lat="40.2886311" lon="17.8377337"><ele>3.6666666666666665</ele><time>2026-04-11T07:16:53.007Z</time></trkpt><trkpt lat="40.2886418" lon="17.8375295"><ele>3.333333333333333</ele><time>2026-04-11T07:16:54.016Z</time></trkpt><trkpt lat="40.2886385" lon="17.8373205"><ele>3.0</ele><time>2026-04-11T07:16:55.026Z</time></trkpt><trkpt lat="40.2886281" lon="17.8371005"><ele>3.0</ele><time>2026-04-11T07:16:56.049Z</time></trkpt><trkpt lat="40.2886171" lon="17.8369025"><ele>3.0</ele><time>2026-04-11T07:16:57.016Z</time></trkpt><trkpt lat="40.2886162" lon="17.8367"><ele>3.0</ele><time>2026-04-11T07:16:58.006Z</time></trkpt><trkpt lat="40.2886225" lon="17.8365002"><ele>3.0</ele><time>2026-04-11T07:16:59.047Z</time></trkpt><trkpt lat="40.2886202" lon="17.8363073"><ele>3.0</ele><time>2026-04-11T07:17:00.027Z</time></trkpt><trkpt lat="40.2886136" lon="17.836121"><ele>3.0</ele><time>2026-04-11T07:17:01.021Z</time></trkpt><trkpt lat="40.2886212" lon="17.835927"><ele>3.0</ele><time>2026-04-11T07:17:02.02Z</time></trkpt><trkpt lat="40.2886095" lon="17.8357361"><ele>3.333333333333333</ele><time>2026-04-11T07:17:03.023Z</time></trkpt><trkpt lat="40.2886147" lon="17.835531"><ele>3.6666666666666665</ele><time>2026-04-11T07:17:04.024Z</time></trkpt><trkpt lat="40.2886123" lon="17.835337"><ele>4.0</ele><time>2026-04-11T07:17:05.019Z</time></trkpt><trkpt lat="40.2886289" lon="17.8351201"><ele>4.0</ele><time>2026-04-11T07:17:06.023Z</time></trkpt><trkpt lat="40.2886263" lon="17.8349182"><ele>4.0</ele><time>2026-04-11T07:17:07.026Z</time></trkpt><trkpt lat="40.288643" lon="17.8347151"><ele>4.0</ele><time>2026-04-11T07:17:08.026Z</time></trkpt><trkpt lat="40.2886733" lon="17.8344941"><ele>3.6666666666666665</ele><time>2026-04-11T07:17:09.109Z</time></trkpt><trkpt lat="40.2887079" lon="17.8342686"><ele>3.333333333333333</ele><time>2026-04-11T07:17:10.045Z</time></trkpt><trkpt lat="40.2887588" lon="17.8340348"><ele>3.0</ele><time>2026-04-11T07:17:11.017Z</time></trkpt><trkpt lat="40.2888005" lon="17.8338032"><ele>3.0</ele><time>2026-04-11T07:17:12.039Z</time></trkpt><trkpt lat="40.2888445" lon="17.8335727"><ele>3.0</ele><time>2026-04-11T07:17:13.006Z</time></trkpt><trkpt lat="40.2888772" lon="17.8333318"><ele>3.0</ele><time>2026-04-11T07:17:14.042Z</time></trkpt><trkpt lat="40.2889187" lon="17.8331007"><ele>3.333333333333333</ele><time>2026-04-11T07:17:15.004Z</time></trkpt><trkpt lat="40.2889634" lon="17.8328585"><ele>3.6666666666666665</ele><time>2026-04-11T07:17:16.011Z</time></trkpt><trkpt lat="40.2890103" lon="17.8326238"><ele>4.0</ele><time>2026-04-11T07:17:17.051Z</time></trkpt><trkpt lat="40.2890555" lon="17.8323891"><ele>4.0</ele><time>2026-04-11T07:17:18.01Z</time></trkpt><trkpt lat="40.28911" lon="17.83214"><ele>4.0</ele><time>2026-04-11T07:17:19.021Z</time></trkpt><trkpt lat="40.2891588" lon="17.831896"><ele>4.0</ele><time>2026-04-11T07:17:20.027Z</time></trkpt><trkpt lat="40.2892044" lon="17.831652"><ele>4.0</ele><time>2026-04-11T07:17:21.008Z</time></trkpt><trkpt lat="40.2892555" lon="17.8314097"><ele>4.0</ele><time>2026-04-11T07:17:22.019Z</time></trkpt><trkpt lat="40.2893035" lon="17.8311542"><ele>4.0</ele><time>2026-04-11T07:17:23.019Z</time></trkpt><trkpt lat="40.2893503" lon="17.8309052"><ele>4.0</ele><time>2026-04-11T07:17:24.007Z</time></trkpt><trkpt lat="40.2893941" lon="17.8306675"><ele>4.0</ele><time>2026-04-11T07:17:25.026Z</time></trkpt><trkpt lat="40.2894378" lon="17.830419"><ele>4.0</ele><time>2026-04-11T07:17:26.026Z</time></trkpt><trkpt lat="40.2894859" lon="17.8301736"><ele>3.6666666666666665</ele><time>2026-04-11T07:17:27.006Z</time></trkpt><trkpt lat="40.289525" lon="17.8299351"><ele>3.333333333333333</ele><time>2026-04-11T07:17:28.011Z</time></trkpt><trkpt lat="40.2895673" lon="17.8296892"><ele>3.0</ele><time>2026-04-11T07:17:29.014Z</time></trkpt><trkpt lat="40.2896132" lon="17.8294419"><ele>3.0</ele><time>2026-04-11T07:17:30.048Z</time></trkpt><trkpt lat="40.2896601" lon="17.8291908"><ele>3.0</ele><time>2026-04-11T07:17:31.021Z</time></trkpt><trkpt lat="40.2897137" lon="17.8289458"><ele>3.0</ele><time>2026-04-11T07:17:32.047Z</time></trkpt><trkpt lat="40.2897596" lon="17.828693"><ele>3.666666666666667</ele><time>2026-04-11T07:17:33.024Z</time></trkpt><trkpt lat="40.2898111" lon="17.8284561"><ele>4.333333333333334</ele><time>2026-04-11T07:17:34.049Z</time></trkpt><trkpt lat="40.2898628" lon="17.8282044"><ele>5.0</ele><time>2026-04-11T07:17:35.007Z</time></trkpt><trkpt lat="40.2899039" lon="17.8279548"><ele>5.0</ele><time>2026-04-11T07:17:36.016Z</time></trkpt><trkpt lat="40.289946" lon="17.8277018"><ele>5.0</ele><time>2026-04-11T07:17:37.05Z</time></trkpt><trkpt lat="40.2899887" lon="17.8274526"><ele>5.0</ele><time>2026-04-11T07:17:38.015Z</time></trkpt><trkpt lat="40.2900358" lon="17.8272001"><ele>5.0</ele><time>2026-04-11T07:17:39.004Z</time></trkpt><trkpt lat="40.2900827" lon="17.8269516"><ele>5.0</ele><time>2026-04-11T07:17:40.026Z</time></trkpt><trkpt lat="40.2901303" lon="17.8267004"><ele>5.0</ele><time>2026-04-11T07:17:41.017Z</time></trkpt><trkpt lat="40.2901846" lon="17.8264614"><ele>5.0</ele><time>2026-04-11T07:17:42.016Z</time></trkpt><trkpt lat="40.2902298" lon="17.8262241"><ele>5.0</ele><time>2026-04-11T07:17:43.019Z</time></trkpt><trkpt lat="40.2902771" lon="17.8259869"><ele>5.0</ele><time>2026-04-11T07:17:44.013Z</time></trkpt><trkpt lat="40.2903194" lon="17.8257383"><ele>5.0</ele><time>2026-04-11T07:17:45.018Z</time></trkpt><trkpt lat="40.2903654" lon="17.8254981"><ele>5.0</ele><time>2026-04-11T07:17:46.008Z</time></trkpt><trkpt lat="40.2904155" lon="17.8252661"><ele>5.0</ele><time>2026-04-11T07:17:47.02Z</time></trkpt><trkpt lat="40.2904576" lon="17.8250178"><ele>5.0</ele><time>2026-04-11T07:17:48.026Z</time></trkpt><trkpt lat="40.2905062" lon="17.8247803"><ele>5.0</ele><time>2026-04-11T07:17:49.099Z</time></trkpt><trkpt lat="40.2905529" lon="17.8245374"><ele>5.0</ele><time>2026-04-11T07:17:50.006Z</time></trkpt><trkpt lat="40.2905933" lon="17.8242848"><ele>4.333333333333334</ele><time>2026-04-11T07:17:51.015Z</time></trkpt><trkpt lat="40.2906391" lon="17.8240403"><ele>3.666666666666667</ele><time>2026-04-11T07:17:52.007Z</time></trkpt><trkpt lat="40.290694" lon="17.8237864"><ele>3.0</ele><time>2026-04-11T07:17:53.041Z</time></trkpt><trkpt lat="40.2907466" lon="17.823543"><ele>3.0</ele><time>2026-04-11T07:17:54.015Z</time></trkpt><trkpt lat="40.29081" lon="17.8232998"><ele>3.0</ele><time>2026-04-11T07:17:55.055Z</time></trkpt><trkpt lat="40.2908806" lon="17.823049"><ele>3.0</ele><time>2026-04-11T07:17:56.021Z</time></trkpt><trkpt lat="40.2909452" lon="17.8228034"><ele>3.333333333333333</ele><time>2026-04-11T07:17:57.005Z</time></trkpt><trkpt lat="40.2910103" lon="17.8225653"><ele>3.6666666666666665</ele><time>2026-04-11T07:17:58.007Z</time></trkpt><trkpt lat="40.2910709" lon="17.8223192"><ele>4.0</ele><time>2026-04-11T07:17:59.026Z</time></trkpt><trkpt lat="40.2911429" lon="17.8220737"><ele>4.0</ele><time>2026-04-11T07:18:00.049Z</time></trkpt><trkpt lat="40.2912155" lon="17.8218327"><ele>4.0</ele><time>2026-04-11T07:18:01.041Z</time></trkpt><trkpt lat="40.2912828" lon="17.8215907"><ele>4.0</ele><time>2026-04-11T07:18:02.004Z</time></trkpt><trkpt lat="40.2913469" lon="17.8213441"><ele>4.333333333333333</ele><time>2026-04-11T07:18:03.013Z</time></trkpt><trkpt lat="40.2914206" lon="17.8211057"><ele>4.666666666666667</ele><time>2026-04-11T07:18:04.099Z</time></trkpt><trkpt lat="40.2914874" lon="17.820853"><ele>5.0</ele><time>2026-04-11T07:18:05.051Z</time></trkpt><trkpt lat="40.2915583" lon="17.8206052"><ele>5.0</ele><time>2026-04-11T07:18:06.042Z</time></trkpt><trkpt lat="40.2916235" lon="17.8203549"><ele>5.0</ele><time>2026-04-11T07:18:07.044Z</time></trkpt><trkpt lat="40.2916877" lon="17.8201117"><ele>5.0</ele><time>2026-04-11T07:18:08.084Z</time></trkpt><trkpt lat="40.2917461" lon="17.8198614"><ele>5.333333333333334</ele><time>2026-04-11T07:18:09.019Z</time></trkpt><trkpt lat="40.291794" lon="17.8196024"><ele>5.666666666666667</ele><time>2026-04-11T07:18:10.047Z</time></trkpt><trkpt lat="40.291838" lon="17.8193389"><ele>6.0</ele><time>2026-04-11T07:18:11.016Z</time></trkpt><trkpt lat="40.2918974" lon="17.8190643"><ele>6.0</ele><time>2026-04-11T07:18:12.046Z</time></trkpt><trkpt lat="40.2919469" lon="17.8187869"><ele>6.0</ele><time>2026-04-11T07:18:13.012Z</time></trkpt><trkpt lat="40.2919937" lon="17.8184898"><ele>6.0</ele><time>2026-04-11T07:18:14.021Z</time></trkpt><trkpt lat="40.2920356" lon="17.8181943"><ele>6.0</ele><time>2026-04-11T07:18:15.016Z</time></trkpt><trkpt lat="40.2920856" lon="17.8178935"><ele>6.0</ele><time>2026-04-11T07:18:16.017Z</time></trkpt><trkpt lat="40.2921352" lon="17.8175962"><ele>6.0</ele><time>2026-04-11T07:18:17.013Z</time></trkpt><trkpt lat="40.2921848" lon="17.8172917"><ele>6.0</ele><time>2026-04-11T07:18:18.011Z</time></trkpt><trkpt lat="40.2922357" lon="17.816991"><ele>6.5</ele><time>2026-04-11T07:18:19.019Z</time></trkpt><trkpt lat="40.2922931" lon="17.8166879"><ele>7.0</ele><time>2026-04-11T07:18:20.023Z</time></trkpt><trkpt lat="40.2923461" lon="17.8163817"><ele>7.0</ele><time>2026-04-11T07:18:21.057Z</time></trkpt><trkpt lat="40.2924062" lon="17.8160705"><ele>7.0</ele><time>2026-04-11T07:18:22.051Z</time></trkpt><trkpt lat="40.2924656" lon="17.815765"><ele>6.5</ele><time>2026-04-11T07:18:23.022Z</time></trkpt><trkpt lat="40.2925188" lon="17.8154583"><ele>6.0</ele><time>2026-04-11T07:18:24.021Z</time></trkpt><trkpt lat="40.292561" lon="17.8151616"><ele>6.5</ele><time>2026-04-11T07:18:25.02Z</time></trkpt><trkpt lat="40.292611" lon="17.8148592"><ele>7.0</ele><time>2026-04-11T07:18:26.008Z</time></trkpt><trkpt lat="40.2926814" lon="17.814529"><ele>6.0</ele><time>2026-04-11T07:18:27.042Z</time></trkpt><trkpt lat="40.2927288" lon="17.8142083"><ele>5.0</ele><time>2026-04-11T07:18:28.021Z</time></trkpt><trkpt lat="40.2927812" lon="17.8138672"><ele>5.0</ele><time>2026-04-11T07:18:29.052Z</time></trkpt><trkpt lat="40.2928301" lon="17.8135314"><ele>5.0</ele><time>2026-04-11T07:18:30.05Z</time></trkpt><trkpt lat="40.2928838" lon="17.8131839"><ele>3.5</ele><time>2026-04-11T07:18:31.017Z</time></trkpt><trkpt lat="40.2929524" lon="17.8128003"><ele>2.0</ele><time>2026-04-11T07:18:32.018Z</time></trkpt><trkpt lat="40.2930155" lon="17.8124266"><ele>2.0</ele><time>2026-04-11T07:18:33.009Z</time></trkpt><trkpt lat="40.2930934" lon="17.8120644"><ele>2.0</ele><time>2026-04-11T07:18:34.044Z</time></trkpt><trkpt lat="40.2931626" lon="17.8116937"><ele>2.0</ele><time>2026-04-11T07:18:35.021Z</time></trkpt><trkpt lat="40.2932257" lon="17.8113359"><ele>2.0</ele><time>2026-04-11T07:18:36.008Z</time></trkpt><trkpt lat="40.2932741" lon="17.8110017"><ele>2.5</ele><time>2026-04-11T07:18:37.013Z</time></trkpt><trkpt lat="40.2933327" lon="17.8106671"><ele>3.0</ele><time>2026-04-11T07:18:38.05Z</time></trkpt><trkpt lat="40.2933949" lon="17.8103426"><ele>3.5</ele><time>2026-04-11T07:18:39.043Z</time></trkpt><trkpt lat="40.2934451" lon="17.8100288"><ele>4.0</ele><time>2026-04-11T07:18:40.019Z</time></trkpt><trkpt lat="40.2934985" lon="17.8097082"><ele>4.0</ele><time>2026-04-11T07:18:41.014Z</time></trkpt><trkpt lat="40.2935392" lon="17.8093943"><ele>4.0</ele><time>2026-04-11T07:18:42.041Z</time></trkpt><trkpt lat="40.2935983" lon="17.8090885"><ele>2.5</ele><time>2026-04-11T07:18:43.019Z</time></trkpt><trkpt lat="40.2936546" lon="17.8087866"><ele>1.0</ele><time>2026-04-11T07:18:44.045Z</time></trkpt><trkpt lat="40.2937003" lon="17.8084898"><ele>1.0</ele><time>2026-04-11T07:18:45.052Z</time></trkpt><trkpt lat="40.2937541" lon="17.8081865"><ele>1.0</ele><time>2026-04-11T07:18:46.023Z</time></trkpt><trkpt lat="40.2938042" lon="17.8078803"><ele>1.0</ele><time>2026-04-11T07:18:47.024Z</time></trkpt><trkpt lat="40.293845" lon="17.8075803"><ele>1.0</ele><time>2026-04-11T07:18:48.024Z</time></trkpt><trkpt lat="40.2939114" lon="17.8072799"><ele>1.0</ele><time>2026-04-11T07:18:49.027Z</time></trkpt><trkpt lat="40.293966" lon="17.8069759"><ele>1.0</ele><time>2026-04-11T07:18:50.017Z</time></trkpt><trkpt lat="40.2940144" lon="17.8066521"><ele>1.0</ele><time>2026-04-11T07:18:51.019Z</time></trkpt><trkpt lat="40.2940676" lon="17.8063351"><ele>1.0</ele><time>2026-04-11T07:18:52.006Z</time></trkpt><trkpt lat="40.2941215" lon="17.8060146"><ele>0.5</ele><time>2026-04-11T07:18:53.015Z</time></trkpt><trkpt lat="40.2941804" lon="17.8056913"><ele>0.0</ele><time>2026-04-11T07:18:54.023Z</time></trkpt><trkpt lat="40.2942263" lon="17.8053685"><ele>0.5</ele><time>2026-04-11T07:18:55.024Z</time></trkpt><trkpt lat="40.2942814" lon="17.8050459"><ele>1.0</ele><time>2026-04-11T07:18:56.01Z</time></trkpt><trkpt lat="40.294339" lon="17.8047459"><ele>1.0</ele><time>2026-04-11T07:18:57.015Z</time></trkpt><trkpt lat="40.2943866" lon="17.8044534"><ele>1.0</ele><time>2026-04-11T07:18:58.02Z</time></trkpt><trkpt lat="40.2944267" lon="17.804168"><ele>1.0</ele><time>2026-04-11T07:18:59.022Z</time></trkpt><trkpt lat="40.2944749" lon="17.8038794"><ele>1.0</ele><time>2026-04-11T07:19:00.01Z</time></trkpt><trkpt lat="40.2945276" lon="17.803595"><ele>1.0</ele><time>2026-04-11T07:19:01.015Z</time></trkpt><trkpt lat="40.2945732" lon="17.8033213"><ele>1.0</ele><time>2026-04-11T07:19:02.022Z</time></trkpt><trkpt lat="40.2946183" lon="17.8030418"><ele>1.0</ele><time>2026-04-11T07:19:03.026Z</time></trkpt><trkpt lat="40.2946605" lon="17.8027758"><ele>1.0</ele><time>2026-04-11T07:19:04.025Z</time></trkpt><trkpt lat="40.2947082" lon="17.8025043"><ele>1.0</ele><time>2026-04-11T07:19:05.02Z</time></trkpt><trkpt lat="40.2947641" lon="17.8022285"><ele>1.3333333333333333</ele><time>2026-04-11T07:19:06.021Z</time></trkpt><trkpt lat="40.2948068" lon="17.8019532"><ele>1.6666666666666665</ele><time>2026-04-11T07:19:07.019Z</time></trkpt><trkpt lat="40.2948566" lon="17.8016787"><ele>2.0</ele><time>2026-04-11T07:19:08.008Z</time></trkpt><trkpt lat="40.2948989" lon="17.8014138"><ele>2.6666666666666665</ele><time>2026-04-11T07:19:09.104Z</time></trkpt><trkpt lat="40.2949475" lon="17.8011499"><ele>3.333333333333333</ele><time>2026-04-11T07:19:10.015Z</time></trkpt><trkpt lat="40.2949951" lon="17.8008792"><ele>4.0</ele><time>2026-04-11T07:19:11.003Z</time></trkpt><trkpt lat="40.2950407" lon="17.8006175"><ele>4.0</ele><time>2026-04-11T07:19:12.042Z</time></trkpt><trkpt lat="40.2950852" lon="17.8003567"><ele>4.0</ele><time>2026-04-11T07:19:13.023Z</time></trkpt><trkpt lat="40.2951243" lon="17.8001127"><ele>4.0</ele><time>2026-04-11T07:19:14.055Z</time></trkpt><trkpt lat="40.2951658" lon="17.7998802"><ele>4.0</ele><time>2026-04-11T07:19:15.018Z</time></trkpt><trkpt lat="40.2951975" lon="17.79966"><ele>4.0</ele><time>2026-04-11T07:19:16.017Z</time></trkpt><trkpt lat="40.2952332" lon="17.7994435"><ele>4.0</ele><time>2026-04-11T07:19:17.009Z</time></trkpt><trkpt lat="40.2952725" lon="17.7992442"><ele>4.0</ele><time>2026-04-11T07:19:18.018Z</time></trkpt><trkpt lat="40.2953076" lon="17.7990446"><ele>4.0</ele><time>2026-04-11T07:19:19.015Z</time></trkpt><trkpt lat="40.2953506" lon="17.7988505"><ele>4.0</ele><time>2026-04-11T07:19:20.021Z</time></trkpt><trkpt lat="40.2953784" lon="17.7986574"><ele>4.0</ele><time>2026-04-11T07:19:21.022Z</time></trkpt><trkpt lat="40.2954068" lon="17.7984644"><ele>4.0</ele><time>2026-04-11T07:19:22.021Z</time></trkpt><trkpt lat="40.2954399" lon="17.7982632"><ele>4.0</ele><time>2026-04-11T07:19:23.01Z</time></trkpt><trkpt lat="40.2954819" lon="17.7980596"><ele>4.0</ele><time>2026-04-11T07:19:24.015Z</time></trkpt><trkpt lat="40.2955162" lon="17.7978445"><ele>4.0</ele><time>2026-04-11T07:19:25.019Z</time></trkpt><trkpt lat="40.295562" lon="17.7976263"><ele>4.0</ele><time>2026-04-11T07:19:26.013Z</time></trkpt><trkpt lat="40.2955983" lon="17.7974152"><ele>4.0</ele><time>2026-04-11T07:19:27.006Z</time></trkpt><trkpt lat="40.2956277" lon="17.7971958"><ele>4.0</ele><time>2026-04-11T07:19:28.019Z</time></trkpt><trkpt lat="40.2956611" lon="17.7969764"><ele>4.0</ele><time>2026-04-11T07:19:29.028Z</time></trkpt><trkpt lat="40.2956982" lon="17.7967551"><ele>3.6666666666666665</ele><time>2026-04-11T07:19:30.015Z</time></trkpt><trkpt lat="40.2957372" lon="17.7965278"><ele>3.333333333333333</ele><time>2026-04-11T07:19:31.02Z</time></trkpt><trkpt lat="40.2957787" lon="17.7963075"><ele>3.0</ele><time>2026-04-11T07:19:32.022Z</time></trkpt><trkpt lat="40.2958251" lon="17.7960678"><ele>2.3333333333333335</ele><time>2026-04-11T07:19:33.023Z</time></trkpt><trkpt lat="40.2958644" lon="17.7958354"><ele>1.6666666666666665</ele><time>2026-04-11T07:19:34.019Z</time></trkpt><trkpt lat="40.2959107" lon="17.7956002"><ele>1.0</ele><time>2026-04-11T07:19:35.049Z</time></trkpt><trkpt lat="40.2959497" lon="17.7953639"><ele>1.0</ele><time>2026-04-11T07:19:36.048Z</time></trkpt><trkpt lat="40.295992" lon="17.7951188"><ele>1.0</ele><time>2026-04-11T07:19:37.019Z</time></trkpt><trkpt lat="40.2960299" lon="17.7948779"><ele>1.0</ele><time>2026-04-11T07:19:38.024Z</time></trkpt><trkpt lat="40.2960681" lon="17.7946385"><ele>1.0</ele><time>2026-04-11T07:19:39.046Z</time></trkpt><trkpt lat="40.296109" lon="17.7944013"><ele>1.0</ele><time>2026-04-11T07:19:40.04Z</time></trkpt><trkpt lat="40.2961496" lon="17.7941608"><ele>1.0</ele><time>2026-04-11T07:19:41.016Z</time></trkpt><trkpt lat="40.296216" lon="17.7939161"><ele>1.0</ele><time>2026-04-11T07:19:42.06Z</time></trkpt><trkpt lat="40.2962611" lon="17.7936708"><ele>1.0</ele><time>2026-04-11T07:19:43.017Z</time></trkpt><trkpt lat="40.2963021" lon="17.7934157"><ele>1.0</ele><time>2026-04-11T07:19:44.02Z</time></trkpt><trkpt lat="40.2963456" lon="17.7931577"><ele>0.6666666666666666</ele><time>2026-04-11T07:19:45.017Z</time></trkpt><trkpt lat="40.2964018" lon="17.7928963"><ele>0.3333333333333333</ele><time>2026-04-11T07:19:46.061Z</time></trkpt><trkpt lat="40.2964493" lon="17.7926367"><ele>0.0</ele><time>2026-04-11T07:19:47.022Z</time></trkpt><trkpt lat="40.2964958" lon="17.7923777"><ele>0.0</ele><time>2026-04-11T07:19:48.007Z</time></trkpt><trkpt lat="40.29655" lon="17.7921088"><ele>0.0</ele><time>2026-04-11T07:19:49.013Z</time></trkpt><trkpt lat="40.2965986" lon="17.7918565"><ele>0.0</ele><time>2026-04-11T07:19:50.05Z</time></trkpt><trkpt lat="40.2966513" lon="17.7915903"><ele>0.0</ele><time>2026-04-11T07:19:51.006Z</time></trkpt><trkpt lat="40.2967038" lon="17.7913329"><ele>0.0</ele><time>2026-04-11T07:19:52.012Z</time></trkpt><trkpt lat="40.2967623" lon="17.7910808"><ele>0.0</ele><time>2026-04-11T07:19:53.03Z</time></trkpt><trkpt lat="40.2968097" lon="17.7908401"><ele>-0.6666666666666666</ele><time>2026-04-11T07:19:54.085Z</time></trkpt><trkpt lat="40.2968692" lon="17.7906005"><ele>-1.3333333333333333</ele><time>2026-04-11T07:19:55.022Z</time></trkpt><trkpt lat="40.2969245" lon="17.7903587"><ele>-2.0</ele><time>2026-04-11T07:19:56.004Z</time></trkpt><trkpt lat="40.2969773" lon="17.7901179"><ele>-2.0</ele><time>2026-04-11T07:19:57.006Z</time></trkpt><trkpt lat="40.2970336" lon="17.7898636"><ele>-2.0</ele><time>2026-04-11T07:19:58.049Z</time></trkpt><trkpt lat="40.2970833" lon="17.7896251"><ele>-2.0</ele><time>2026-04-11T07:19:59.017Z</time></trkpt><trkpt lat="40.2971446" lon="17.7893812"><ele>-2.0</ele><time>2026-04-11T07:20:00.025Z</time></trkpt><trkpt lat="40.2971898" lon="17.7891349"><ele>-2.0</ele><time>2026-04-11T07:20:01.024Z</time></trkpt><trkpt lat="40.2972402" lon="17.7888783"><ele>-2.0</ele><time>2026-04-11T07:20:02.015Z</time></trkpt><trkpt lat="40.2972941" lon="17.788639"><ele>-1.3333333333333333</ele><time>2026-04-11T07:20:03.012Z</time></trkpt><trkpt lat="40.2973567" lon="17.7884034"><ele>-0.6666666666666666</ele><time>2026-04-11T07:20:04.024Z</time></trkpt><trkpt lat="40.2974155" lon="17.7881599"><ele>0.0</ele><time>2026-04-11T07:20:05.099Z</time></trkpt><trkpt lat="40.297469" lon="17.7879218"><ele>0.0</ele><time>2026-04-11T07:20:06.007Z</time></trkpt><trkpt lat="40.297525" lon="17.7876833"><ele>0.0</ele><time>2026-04-11T07:20:07.007Z</time></trkpt><trkpt lat="40.2975814" lon="17.7874404"><ele>0.0</ele><time>2026-04-11T07:20:08.043Z</time></trkpt><trkpt lat="40.29763" lon="17.7871818"><ele>0.0</ele><time>2026-04-11T07:20:09.016Z</time></trkpt><trkpt lat="40.2976862" lon="17.7869353"><ele>0.0</ele><time>2026-04-11T07:20:10.005Z</time></trkpt><trkpt lat="40.2977372" lon="17.7866944"><ele>0.0</ele><time>2026-04-11T07:20:11.006Z</time></trkpt><trkpt lat="40.2977996" lon="17.7864458"><ele>0.0</ele><time>2026-04-11T07:20:12.051Z</time></trkpt><trkpt lat="40.2978436" lon="17.7861894"><ele>0.0</ele><time>2026-04-11T07:20:13.024Z</time></trkpt><trkpt lat="40.2978997" lon="17.7859369"><ele>0.0</ele><time>2026-04-11T07:20:14.053Z</time></trkpt><trkpt lat="40.2979487" lon="17.7856908"><ele>0.0</ele><time>2026-04-11T07:20:15.053Z</time></trkpt><trkpt lat="40.2980057" lon="17.7854385"><ele>0.0</ele><time>2026-04-11T07:20:16.021Z</time></trkpt><trkpt lat="40.2980564" lon="17.7851781"><ele>0.0</ele><time>2026-04-11T07:20:17.023Z</time></trkpt><trkpt lat="40.2981189" lon="17.7849211"><ele>0.0</ele><time>2026-04-11T07:20:18.019Z</time></trkpt><trkpt lat="40.2981828" lon="17.7846639"><ele>0.0</ele><time>2026-04-11T07:20:19.02Z</time></trkpt><trkpt lat="40.2982391" lon="17.7844175"><ele>0.0</ele><time>2026-04-11T07:20:20.021Z</time></trkpt><trkpt lat="40.2982926" lon="17.7841635"><ele>-0.3333333333333333</ele><time>2026-04-11T07:20:21.021Z</time></trkpt><trkpt lat="40.2983563" lon="17.7839123"><ele>-0.6666666666666666</ele><time>2026-04-11T07:20:22.023Z</time></trkpt><trkpt lat="40.2984135" lon="17.7836568"><ele>-1.0</ele><time>2026-04-11T07:20:23.01Z</time></trkpt><trkpt lat="40.2984738" lon="17.7833961"><ele>-1.0</ele><time>2026-04-11T07:20:24.019Z</time></trkpt><trkpt lat="40.2985277" lon="17.783134"><ele>-1.0</ele><time>2026-04-11T07:20:25.022Z</time></trkpt><trkpt lat="40.2985892" lon="17.7828693"><ele>-1.0</ele><time>2026-04-11T07:20:26.013Z</time></trkpt><trkpt lat="40.2986488" lon="17.7826006"><ele>-1.0</ele><time>2026-04-11T07:20:27.022Z</time></trkpt><trkpt lat="40.2987049" lon="17.7823286"><ele>-1.0</ele><time>2026-04-11T07:20:28.025Z</time></trkpt><trkpt lat="40.2987611" lon="17.7820594"><ele>-1.0</ele><time>2026-04-11T07:20:29.017Z</time></trkpt><trkpt lat="40.2988215" lon="17.7817909"><ele>-1.0</ele><time>2026-04-11T07:20:30.005Z</time></trkpt><trkpt lat="40.2988909" lon="17.781518"><ele>-1.0</ele><time>2026-04-11T07:20:31.055Z</time></trkpt><trkpt lat="40.2989488" lon="17.7812565"><ele>-1.0</ele><time>2026-04-11T07:20:32.021Z</time></trkpt><trkpt lat="40.2990001" lon="17.7809956"><ele>-1.0</ele><time>2026-04-11T07:20:33.024Z</time></trkpt><trkpt lat="40.2990531" lon="17.7807392"><ele>-1.0</ele><time>2026-04-11T07:20:34.017Z</time></trkpt><trkpt lat="40.2991097" lon="17.7804896"><ele>-1.0</ele><time>2026-04-11T07:20:35.004Z</time></trkpt><trkpt lat="40.2991569" lon="17.780248"><ele>-0.3333333333333333</ele><time>2026-04-11T07:20:36.042Z</time></trkpt><trkpt lat="40.2992114" lon="17.7800086"><ele>0.3333333333333333</ele><time>2026-04-11T07:20:37.006Z</time></trkpt><trkpt lat="40.2992655" lon="17.7797708"><ele>1.0</ele><time>2026-04-11T07:20:38.012Z</time></trkpt><trkpt lat="40.2993184" lon="17.7795359"><ele>1.0</ele><time>2026-04-11T07:20:39.007Z</time></trkpt><trkpt lat="40.2993747" lon="17.7793258"><ele>1.0</ele><time>2026-04-11T07:20:40.016Z</time></trkpt><trkpt lat="40.2994341" lon="17.7791108"><ele>1.0</ele><time>2026-04-11T07:20:41.022Z</time></trkpt><trkpt lat="40.2994847" lon="17.7788879"><ele>1.0</ele><time>2026-04-11T07:20:42.001Z</time></trkpt><trkpt lat="40.2995303" lon="17.7786669"><ele>1.0</ele><time>2026-04-11T07:20:43.005Z</time></trkpt><trkpt lat="40.2995861" lon="17.7784467"><ele>1.0</ele><time>2026-04-11T07:20:44.015Z</time></trkpt><trkpt lat="40.2996346" lon="17.7782204"><ele>0.6666666666666666</ele><time>2026-04-11T07:20:45.005Z</time></trkpt><trkpt lat="40.299686" lon="17.7779772"><ele>0.3333333333333333</ele><time>2026-04-11T07:20:46.018Z</time></trkpt><trkpt lat="40.2997394" lon="17.7777338"><ele>0.0</ele><time>2026-04-11T07:20:47.044Z</time></trkpt><trkpt lat="40.2997679" lon="17.7774946"><ele>0.0</ele><time>2026-04-11T07:20:48.013Z</time></trkpt><trkpt lat="40.2997997" lon="17.7772516"><ele>0.0</ele><time>2026-04-11T07:20:49.007Z</time></trkpt><trkpt lat="40.2998356" lon="17.7770035"><ele>0.0</ele><time>2026-04-11T07:20:50.013Z</time></trkpt><trkpt lat="40.2998669" lon="17.7767538"><ele>-0.3333333333333333</ele><time>2026-04-11T07:20:51.01Z</time></trkpt><trkpt lat="40.2998859" lon="17.7765033"><ele>-0.6666666666666666</ele><time>2026-04-11T07:20:52.022Z</time></trkpt><trkpt lat="40.2999143" lon="17.7762514"><ele>-1.0</ele><time>2026-04-11T07:20:53.01Z</time></trkpt><trkpt lat="40.2999372" lon="17.7759856"><ele>-1.0</ele><time>2026-04-11T07:20:54.016Z</time></trkpt><trkpt lat="40.2999742" lon="17.7757215"><ele>-1.0</ele><time>2026-04-11T07:20:55.023Z</time></trkpt><trkpt lat="40.2999957" lon="17.7754666"><ele>-1.0</ele><time>2026-04-11T07:20:56.022Z</time></trkpt><trkpt lat="40.3000201" lon="17.7752108"><ele>-0.3333333333333333</ele><time>2026-04-11T07:20:57.02Z</time></trkpt><trkpt lat="40.3000486" lon="17.77495"><ele>0.3333333333333333</ele><time>2026-04-11T07:20:58.017Z</time></trkpt><trkpt lat="40.300069" lon="17.7747028"><ele>1.0</ele><time>2026-04-11T07:20:59.022Z</time></trkpt><trkpt lat="40.3001038" lon="17.7744416"><ele>0.6666666666666666</ele><time>2026-04-11T07:21:00.025Z</time></trkpt><trkpt lat="40.3001534" lon="17.7741812"><ele>0.3333333333333333</ele><time>2026-04-11T07:21:01.025Z</time></trkpt><trkpt lat="40.3001706" lon="17.773933"><ele>0.0</ele><time>2026-04-11T07:21:02.027Z</time></trkpt><trkpt lat="40.3002051" lon="17.7736784"><ele>0.3333333333333333</ele><time>2026-04-11T07:21:03.025Z</time></trkpt><trkpt lat="40.3002194" lon="17.7734301"><ele>0.6666666666666666</ele><time>2026-04-11T07:21:04.026Z</time></trkpt><trkpt lat="40.3002528" lon="17.7731792"><ele>1.0</ele><time>2026-04-11T07:21:05.022Z</time></trkpt><trkpt lat="40.3003012" lon="17.772915"><ele>1.3333333333333333</ele><time>2026-04-11T07:21:06.023Z</time></trkpt><trkpt lat="40.3003317" lon="17.772659"><ele>1.6666666666666665</ele><time>2026-04-11T07:21:07.023Z</time></trkpt><trkpt lat="40.3003688" lon="17.7723982"><ele>2.0</ele><time>2026-04-11T07:21:08.054Z</time></trkpt><trkpt lat="40.3004" lon="17.7721225"><ele>2.333333333333333</ele><time>2026-04-11T07:21:09.045Z</time></trkpt><trkpt lat="40.3004282" lon="17.7718567"><ele>2.6666666666666665</ele><time>2026-04-11T07:21:10.045Z</time></trkpt><trkpt lat="40.3004635" lon="17.771595"><ele>3.0</ele><time>2026-04-11T07:21:11.043Z</time></trkpt><trkpt lat="40.3005077" lon="17.7713282"><ele>3.0</ele><time>2026-04-11T07:21:12.052Z</time></trkpt><trkpt lat="40.3005427" lon="17.7710595"><ele>3.0</ele><time>2026-04-11T07:21:13.045Z</time></trkpt><trkpt lat="40.3005646" lon="17.7708023"><ele>3.0</ele><time>2026-04-11T07:21:14.042Z</time></trkpt><trkpt lat="40.3005905" lon="17.7705353"><ele>2.6666666666666665</ele><time>2026-04-11T07:21:15.015Z</time></trkpt><trkpt lat="40.3006227" lon="17.7702772"><ele>2.333333333333333</ele><time>2026-04-11T07:21:16.018Z</time></trkpt><trkpt lat="40.300657" lon="17.7700155"><ele>2.0</ele><time>2026-04-11T07:21:17.054Z</time></trkpt><trkpt lat="40.3007017" lon="17.7697597"><ele>1.6666666666666665</ele><time>2026-04-11T07:21:18.021Z</time></trkpt><trkpt lat="40.3007353" lon="17.7695123"><ele>1.3333333333333333</ele><time>2026-04-11T07:21:19.053Z</time></trkpt><trkpt lat="40.3007585" lon="17.7692624"><ele>1.0</ele><time>2026-04-11T07:21:20.016Z</time></trkpt><trkpt lat="40.3007875" lon="17.7690148"><ele>0.6666666666666666</ele><time>2026-04-11T07:21:21.005Z</time></trkpt><trkpt lat="40.3008173" lon="17.7687789"><ele>0.3333333333333333</ele><time>2026-04-11T07:21:22.018Z</time></trkpt><trkpt lat="40.3008448" lon="17.768532"><ele>0.0</ele><time>2026-04-11T07:21:23.011Z</time></trkpt><trkpt lat="40.3008385" lon="17.7682851"><ele>0.0</ele><time>2026-04-11T07:21:24.046Z</time></trkpt><trkpt lat="40.3008481" lon="17.7680404"><ele>0.0</ele><time>2026-04-11T07:21:25.053Z</time></trkpt><trkpt lat="40.3008597" lon="17.7678083"><ele>0.0</ele><time>2026-04-11T07:21:26.016Z</time></trkpt><trkpt lat="40.3008723" lon="17.7675666"><ele>0.3333333333333333</ele><time>2026-04-11T07:21:27.023Z</time></trkpt><trkpt lat="40.3008743" lon="17.767338"><ele>0.6666666666666666</ele><time>2026-04-11T07:21:28.02Z</time></trkpt><trkpt lat="40.3008709" lon="17.7671083"><ele>1.0</ele><time>2026-04-11T07:21:29.022Z</time></trkpt><trkpt lat="40.3008734" lon="17.7668735"><ele>1.0</ele><time>2026-04-11T07:21:30.009Z</time></trkpt><trkpt lat="40.300875" lon="17.7666357"><ele>1.0</ele><time>2026-04-11T07:21:31.016Z</time></trkpt><trkpt lat="40.3008676" lon="17.7664021"><ele>1.0</ele><time>2026-04-11T07:21:32.019Z</time></trkpt><trkpt lat="40.3008619" lon="17.766164"><ele>0.6666666666666666</ele><time>2026-04-11T07:21:33.012Z</time></trkpt><trkpt lat="40.300864" lon="17.7659252"><ele>0.3333333333333333</ele><time>2026-04-11T07:21:34.018Z</time></trkpt><trkpt lat="40.3008591" lon="17.765681"><ele>0.0</ele><time>2026-04-11T07:21:35.015Z</time></trkpt><trkpt lat="40.3008637" lon="17.7654246"><ele>0.0</ele><time>2026-04-11T07:21:36.05Z</time></trkpt><trkpt lat="40.3008667" lon="17.7651618"><ele>0.0</ele><time>2026-04-11T07:21:37.022Z</time></trkpt><trkpt lat="40.3008642" lon="17.7649011"><ele>0.0</ele><time>2026-04-11T07:21:38.05Z</time></trkpt><trkpt lat="40.3008659" lon="17.7646474"><ele>0.0</ele><time>2026-04-11T07:21:39.046Z</time></trkpt><trkpt lat="40.3008673" lon="17.7643923"><ele>0.0</ele><time>2026-04-11T07:21:40.005Z</time></trkpt><trkpt lat="40.3008833" lon="17.764136"><ele>0.0</ele><time>2026-04-11T07:21:41.013Z</time></trkpt><trkpt lat="40.3008978" lon="17.763899"><ele>0.3333333333333333</ele><time>2026-04-11T07:21:42.011Z</time></trkpt><trkpt lat="40.3009261" lon="17.7636586"><ele>0.6666666666666666</ele><time>2026-04-11T07:21:43.016Z</time></trkpt><trkpt lat="40.3009308" lon="17.7634276"><ele>1.0</ele><time>2026-04-11T07:21:44.018Z</time></trkpt><trkpt lat="40.300949" lon="17.7631986"><ele>1.0</ele><time>2026-04-11T07:21:45.02Z</time></trkpt><trkpt lat="40.3009682" lon="17.7629686"><ele>1.0</ele><time>2026-04-11T07:21:46.021Z</time></trkpt><trkpt lat="40.3009984" lon="17.7627397"><ele>1.0</ele><time>2026-04-11T07:21:47.023Z</time></trkpt><trkpt lat="40.3010435" lon="17.762515"><ele>1.0</ele><time>2026-04-11T07:21:48.086Z</time></trkpt><trkpt lat="40.3010892" lon="17.7622836"><ele>1.0</ele><time>2026-04-11T07:21:49.016Z</time></trkpt><trkpt lat="40.3011306" lon="17.7620522"><ele>1.0</ele><time>2026-04-11T07:21:50.005Z</time></trkpt><trkpt lat="40.3011745" lon="17.7618203"><ele>0.3333333333333333</ele><time>2026-04-11T07:21:51.012Z</time></trkpt><trkpt lat="40.3012149" lon="17.7615815"><ele>-0.3333333333333333</ele><time>2026-04-11T07:21:52.023Z</time></trkpt><trkpt lat="40.3012574" lon="17.7613441"><ele>-1.0</ele><time>2026-04-11T07:21:53.006Z</time></trkpt><trkpt lat="40.3013138" lon="17.7610916"><ele>-1.0</ele><time>2026-04-11T07:21:54.017Z</time></trkpt><trkpt lat="40.3013583" lon="17.7608495"><ele>-1.0</ele><time>2026-04-11T07:21:55.009Z</time></trkpt><trkpt lat="40.3014036" lon="17.7606011"><ele>-1.0</ele><time>2026-04-11T07:21:56.012Z</time></trkpt><trkpt lat="40.3014521" lon="17.7603562"><ele>-1.3333333333333333</ele><time>2026-04-11T07:21:57.019Z</time></trkpt><trkpt lat="40.3014959" lon="17.7601144"><ele>-1.6666666666666665</ele><time>2026-04-11T07:21:58.021Z</time></trkpt><trkpt lat="40.3015351" lon="17.7598616"><ele>-2.0</ele><time>2026-04-11T07:21:59.028Z</time></trkpt><trkpt lat="40.3015674" lon="17.7596091"><ele>-2.0</ele><time>2026-04-11T07:22:00.021Z</time></trkpt><trkpt lat="40.3016101" lon="17.7593728"><ele>-2.0</ele><time>2026-04-11T07:22:01.026Z</time></trkpt><trkpt lat="40.301652" lon="17.7591259"><ele>-2.0</ele><time>2026-04-11T07:22:02.02Z</time></trkpt><trkpt lat="40.3016854" lon="17.7588694"><ele>-1.3333333333333333</ele><time>2026-04-11T07:22:03.1Z</time></trkpt><trkpt lat="40.3017283" lon="17.758618"><ele>-0.6666666666666666</ele><time>2026-04-11T07:22:04.008Z</time></trkpt><trkpt lat="40.3017607" lon="17.7583659"><ele>0.0</ele><time>2026-04-11T07:22:05.051Z</time></trkpt><trkpt lat="40.3018075" lon="17.7581087"><ele>0.0</ele><time>2026-04-11T07:22:06.022Z</time></trkpt><trkpt lat="40.3018535" lon="17.7578548"><ele>0.0</ele><time>2026-04-11T07:22:07.006Z</time></trkpt><trkpt lat="40.3019167" lon="17.7575916"><ele>0.0</ele><time>2026-04-11T07:22:08.01Z</time></trkpt><trkpt lat="40.3019514" lon="17.7573285"><ele>0.0</ele><time>2026-04-11T07:22:09.024Z</time></trkpt><trkpt lat="40.3019891" lon="17.7570706"><ele>0.0</ele><time>2026-04-11T07:22:10.049Z</time></trkpt><trkpt lat="40.302034" lon="17.7568176"><ele>0.0</ele><time>2026-04-11T07:22:11.005Z</time></trkpt><trkpt lat="40.3020781" lon="17.7565608"><ele>0.0</ele><time>2026-04-11T07:22:12.006Z</time></trkpt><trkpt lat="40.3021266" lon="17.7562993"><ele>0.0</ele><time>2026-04-11T07:22:13.048Z</time></trkpt><trkpt lat="40.3021778" lon="17.7560367"><ele>0.0</ele><time>2026-04-11T07:22:14.023Z</time></trkpt><trkpt lat="40.3022316" lon="17.7557585"><ele>0.3333333333333333</ele><time>2026-04-11T07:22:15.015Z</time></trkpt><trkpt lat="40.30228" lon="17.7555067"><ele>0.6666666666666666</ele><time>2026-04-11T07:22:16.045Z</time></trkpt><trkpt lat="40.3023331" lon="17.7552577"><ele>1.0</ele><time>2026-04-11T07:22:17.031Z</time></trkpt><trkpt lat="40.30238" lon="17.7550023"><ele>0.3333333333333333</ele><time>2026-04-11T07:22:18.021Z</time></trkpt><trkpt lat="40.3024198" lon="17.7547436"><ele>-0.3333333333333333</ele><time>2026-04-11T07:22:19.019Z</time></trkpt><trkpt lat="40.3024683" lon="17.7544918"><ele>-1.0</ele><time>2026-04-11T07:22:20.02Z</time></trkpt><trkpt lat="40.3025104" lon="17.7542324"><ele>-1.0</ele><time>2026-04-11T07:22:21.013Z</time></trkpt><trkpt lat="40.3025578" lon="17.7539736"><ele>-1.0</ele><time>2026-04-11T07:22:22.004Z</time></trkpt><trkpt lat="40.3026014" lon="17.7537104"><ele>-1.0</ele><time>2026-04-11T07:22:23.014Z</time></trkpt><trkpt lat="40.3026396" lon="17.7534512"><ele>-0.6666666666666666</ele><time>2026-04-11T07:22:24.027Z</time></trkpt><trkpt lat="40.3026912" lon="17.753191"><ele>-0.3333333333333333</ele><time>2026-04-11T07:22:25.019Z</time></trkpt><trkpt lat="40.3027401" lon="17.7529269"><ele>0.0</ele><time>2026-04-11T07:22:26.022Z</time></trkpt><trkpt lat="40.3027852" lon="17.7526662"><ele>0.0</ele><time>2026-04-11T07:22:27.022Z</time></trkpt><trkpt lat="40.3028363" lon="17.7524071"><ele>0.0</ele><time>2026-04-11T07:22:28.013Z</time></trkpt><trkpt lat="40.3028657" lon="17.7521349"><ele>0.0</ele><time>2026-04-11T07:22:29.018Z</time></trkpt><trkpt lat="40.3029122" lon="17.7518703"><ele>-0.3333333333333333</ele><time>2026-04-11T07:22:30.007Z</time></trkpt><trkpt lat="40.3029607" lon="17.7516241"><ele>-0.6666666666666666</ele><time>2026-04-11T07:22:31.016Z</time></trkpt><trkpt lat="40.3030044" lon="17.751362"><ele>-1.0</ele><time>2026-04-11T07:22:32.057Z</time></trkpt><trkpt lat="40.3030582" lon="17.7511051"><ele>-0.6666666666666666</ele><time>2026-04-11T07:22:33.054Z</time></trkpt><trkpt lat="40.3031154" lon="17.7508414"><ele>-0.3333333333333333</ele><time>2026-04-11T07:22:34.052Z</time></trkpt><trkpt lat="40.3031458" lon="17.7505945"><ele>0.0</ele><time>2026-04-11T07:22:35.026Z</time></trkpt><trkpt lat="40.3031902" lon="17.7503511"><ele>0.0</ele><time>2026-04-11T07:22:36.025Z</time></trkpt><trkpt lat="40.3032357" lon="17.7501101"><ele>0.0</ele><time>2026-04-11T07:22:37.02Z</time></trkpt><trkpt lat="40.3032983" lon="17.7498743"><ele>0.0</ele><time>2026-04-11T07:22:38.024Z</time></trkpt><trkpt lat="40.3033438" lon="17.749635"><ele>0.0</ele><time>2026-04-11T07:22:39.02Z</time></trkpt><trkpt lat="40.3033875" lon="17.749399"><ele>0.0</ele><time>2026-04-11T07:22:40.015Z</time></trkpt><trkpt lat="40.3034491" lon="17.7491473"><ele>0.0</ele><time>2026-04-11T07:22:41.055Z</time></trkpt><trkpt lat="40.3034882" lon="17.7489059"><ele>0.0</ele><time>2026-04-11T07:22:42.031Z</time></trkpt><trkpt lat="40.3035336" lon="17.7486526"><ele>0.0</ele><time>2026-04-11T07:22:43.051Z</time></trkpt><trkpt lat="40.3035191" lon="17.7483946"><ele>0.0</ele><time>2026-04-11T07:22:44.021Z</time></trkpt><trkpt lat="40.3035337" lon="17.7481439"><ele>0.0</ele><time>2026-04-11T07:22:45.06Z</time></trkpt><trkpt lat="40.3035419" lon="17.747888"><ele>0.0</ele><time>2026-04-11T07:22:46.027Z</time></trkpt><trkpt lat="40.3035524" lon="17.7476308"><ele>0.0</ele><time>2026-04-11T07:22:47.024Z</time></trkpt><trkpt lat="40.3035828" lon="17.7473918"><ele>0.0</ele><time>2026-04-11T07:22:48.021Z</time></trkpt><trkpt lat="40.3035988" lon="17.7471429"><ele>0.0</ele><time>2026-04-11T07:22:49.021Z</time></trkpt><trkpt lat="40.303613" lon="17.746901"><ele>0.0</ele><time>2026-04-11T07:22:50.007Z</time></trkpt><trkpt lat="40.3036319" lon="17.7466689"><ele>0.0</ele><time>2026-04-11T07:22:51.017Z</time></trkpt><trkpt lat="40.303643" lon="17.7464514"><ele>0.0</ele><time>2026-04-11T07:22:52.021Z</time></trkpt><trkpt lat="40.3036619" lon="17.7462821"><ele>0.0</ele><time>2026-04-11T07:22:53.015Z</time></trkpt><trkpt lat="40.3036716" lon="17.7461009"><ele>0.0</ele><time>2026-04-11T07:22:54.02Z</time></trkpt><trkpt lat="40.3036882" lon="17.7459074"><ele>0.0</ele><time>2026-04-11T07:22:55.023Z</time></trkpt><trkpt lat="40.3037022" lon="17.7457285"><ele>0.0</ele><time>2026-04-11T07:22:56.024Z</time></trkpt><trkpt lat="40.3037275" lon="17.7455625"><ele>0.0</ele><time>2026-04-11T07:22:57.018Z</time></trkpt><trkpt lat="40.3037405" lon="17.7453981"><ele>0.0</ele><time>2026-04-11T07:22:58.019Z</time></trkpt><trkpt lat="40.3037519" lon="17.7452446"><ele>0.0</ele><time>2026-04-11T07:22:59.02Z</time></trkpt><trkpt lat="40.3037441" lon="17.7451081"><ele>0.0</ele><time>2026-04-11T07:23:00.045Z</time></trkpt><trkpt lat="40.3037556" lon="17.7449755"><ele>0.0</ele><time>2026-04-11T07:23:01.007Z</time></trkpt><trkpt lat="40.3037737" lon="17.7448792"><ele>0.0</ele><time>2026-04-11T07:23:02.047Z</time></trkpt><trkpt lat="40.3038076" lon="17.7447828"><ele>0.0</ele><time>2026-04-11T07:23:03.049Z</time></trkpt><trkpt lat="40.3038537" lon="17.7446948"><ele>0.0</ele><time>2026-04-11T07:23:04.041Z</time></trkpt><trkpt lat="40.3038992" lon="17.7446053"><ele>0.0</ele><time>2026-04-11T07:23:05.002Z</time></trkpt><trkpt lat="40.3039081" lon="17.7444907"><ele>0.0</ele><time>2026-04-11T07:23:06.039Z</time></trkpt><trkpt lat="40.3039147" lon="17.7443875"><ele>0.0</ele><time>2026-04-11T07:23:07.024Z</time></trkpt><trkpt lat="40.3038734" lon="17.7442811"><ele>0.0</ele><time>2026-04-11T07:23:08.024Z</time></trkpt><trkpt lat="40.303839" lon="17.744171"><ele>0.0</ele><time>2026-04-11T07:23:09.008Z</time></trkpt><trkpt lat="40.3038427" lon="17.7440058"><ele>0.25</ele><time>2026-04-11T07:23:10.048Z</time></trkpt><trkpt lat="40.3038411" lon="17.7438585"><ele>0.5</ele><time>2026-04-11T07:23:11.017Z</time></trkpt><trkpt lat="40.3038377" lon="17.7437034"><ele>0.75</ele><time>2026-04-11T07:23:12.004Z</time></trkpt><trkpt lat="40.3038607" lon="17.7434951"><ele>1.0</ele><time>2026-04-11T07:23:13.044Z</time></trkpt><trkpt lat="40.3038645" lon="17.743316"><ele>1.0</ele><time>2026-04-11T07:23:14.022Z</time></trkpt><trkpt lat="40.3038705" lon="17.7431163"><ele>1.0</ele><time>2026-04-11T07:23:15.054Z</time></trkpt><trkpt lat="40.3038816" lon="17.7429236"><ele>1.0</ele><time>2026-04-11T07:23:16.017Z</time></trkpt><trkpt lat="40.3039186" lon="17.7427004"><ele>2.0</ele><time>2026-04-11T07:23:17.056Z</time></trkpt><trkpt lat="40.3039199" lon="17.7424887"><ele>3.0</ele><time>2026-04-11T07:23:18.049Z</time></trkpt><trkpt lat="40.3039354" lon="17.7422768"><ele>4.0</ele><time>2026-04-11T07:23:19.003Z</time></trkpt><trkpt lat="40.3039598" lon="17.7420546"><ele>4.666666666666666</ele><time>2026-04-11T07:23:20.046Z</time></trkpt><trkpt lat="40.303975" lon="17.7418331"><ele>5.333333333333333</ele><time>2026-04-11T07:23:21.019Z</time></trkpt><trkpt lat="40.3040047" lon="17.7416123"><ele>6.0</ele><time>2026-04-11T07:23:22.02Z</time></trkpt><trkpt lat="40.3040112" lon="17.741394"><ele>6.0</ele><time>2026-04-11T07:23:23.046Z</time></trkpt><trkpt lat="40.3040412" lon="17.7411621"><ele>6.0</ele><time>2026-04-11T07:23:24.019Z</time></trkpt><trkpt lat="40.3040636" lon="17.740918"><ele>6.0</ele><time>2026-04-11T07:23:25.054Z</time></trkpt><trkpt lat="40.304081" lon="17.7406787"><ele>6.0</ele><time>2026-04-11T07:23:26.021Z</time></trkpt><trkpt lat="40.3041056" lon="17.7404366"><ele>6.0</ele><time>2026-04-11T07:23:27.041Z</time></trkpt><trkpt lat="40.3041234" lon="17.7402043"><ele>6.0</ele><time>2026-04-11T07:23:28.012Z</time></trkpt><trkpt lat="40.3041436" lon="17.7399679"><ele>6.0</ele><time>2026-04-11T07:23:29.002Z</time></trkpt><trkpt lat="40.3041767" lon="17.7397387"><ele>6.0</ele><time>2026-04-11T07:23:30.106Z</time></trkpt><trkpt lat="40.3041853" lon="17.7395348"><ele>6.0</ele><time>2026-04-11T07:23:31.017Z</time></trkpt><trkpt lat="40.3042036" lon="17.7393308"><ele>5.75</ele><time>2026-04-11T07:23:32.038Z</time></trkpt><trkpt lat="40.3042096" lon="17.7391426"><ele>5.5</ele><time>2026-04-11T07:23:33.018Z</time></trkpt><trkpt lat="40.3042264" lon="17.7389484"><ele>5.25</ele><time>2026-04-11T07:23:34.012Z</time></trkpt><trkpt lat="40.3042371" lon="17.7387564"><ele>5.0</ele><time>2026-04-11T07:23:35.045Z</time></trkpt><trkpt lat="40.3042509" lon="17.738572"><ele>4.666666666666667</ele><time>2026-04-11T07:23:36.015Z</time></trkpt><trkpt lat="40.304267" lon="17.7383773"><ele>4.333333333333333</ele><time>2026-04-11T07:23:37.004Z</time></trkpt><trkpt lat="40.3043024" lon="17.7381693"><ele>4.0</ele><time>2026-04-11T07:23:38.015Z</time></trkpt><trkpt lat="40.3043398" lon="17.7379615"><ele>4.0</ele><time>2026-04-11T07:23:39.021Z</time></trkpt><trkpt lat="40.3043483" lon="17.7377778"><ele>4.0</ele><time>2026-04-11T07:23:40.043Z</time></trkpt><trkpt lat="40.3043636" lon="17.7375959"><ele>4.0</ele><time>2026-04-11T07:23:41.042Z</time></trkpt><trkpt lat="40.3043711" lon="17.7374312"><ele>4.0</ele><time>2026-04-11T07:23:42.047Z</time></trkpt><trkpt lat="40.3043832" lon="17.7372578"><ele>3.6666666666666665</ele><time>2026-04-11T07:23:43.057Z</time></trkpt><trkpt lat="40.3044142" lon="17.7370601"><ele>3.333333333333333</ele><time>2026-04-11T07:23:44.013Z</time></trkpt><trkpt lat="40.3044145" lon="17.7368613"><ele>3.0</ele><time>2026-04-11T07:23:45.019Z</time></trkpt><trkpt lat="40.3044625" lon="17.7366171"><ele>2.0</ele><time>2026-04-11T07:23:46.022Z</time></trkpt><trkpt lat="40.3044492" lon="17.7364201"><ele>1.0</ele><time>2026-04-11T07:23:47.018Z</time></trkpt><trkpt lat="40.3044653" lon="17.7361994"><ele>0.0</ele><time>2026-04-11T07:23:48.018Z</time></trkpt><trkpt lat="40.3044993" lon="17.7359738"><ele>0.0</ele><time>2026-04-11T07:23:49.015Z</time></trkpt><trkpt lat="40.3045137" lon="17.7357499"><ele>0.0</ele><time>2026-04-11T07:23:50.021Z</time></trkpt><trkpt lat="40.3045047" lon="17.7355518"><ele>0.0</ele><time>2026-04-11T07:23:51.019Z</time></trkpt><trkpt lat="40.3045118" lon="17.735356"><ele>0.25</ele><time>2026-04-11T07:23:52.028Z</time></trkpt><trkpt lat="40.3045256" lon="17.7351703"><ele>0.5</ele><time>2026-04-11T07:23:53.022Z</time></trkpt><trkpt lat="40.3045584" lon="17.7349759"><ele>0.75</ele><time>2026-04-11T07:23:54.023Z</time></trkpt><trkpt lat="40.3045355" lon="17.7348448"><ele>1.0</ele><time>2026-04-11T07:23:55.027Z</time></trkpt><trkpt lat="40.3045437" lon="17.7346761"><ele>1.0</ele><time>2026-04-11T07:23:56.008Z</time></trkpt><trkpt lat="40.3045673" lon="17.734512"><ele>1.0</ele><time>2026-04-11T07:23:57.014Z</time></trkpt><trkpt lat="40.3046037" lon="17.7343313"><ele>1.0</ele><time>2026-04-11T07:23:58.088Z</time></trkpt><trkpt lat="40.3046124" lon="17.734157"><ele>1.0</ele><time>2026-04-11T07:23:59.053Z</time></trkpt><trkpt lat="40.3046256" lon="17.7339903"><ele>1.25</ele><time>2026-04-11T07:24:00.008Z</time></trkpt><trkpt lat="40.3046171" lon="17.7338213"><ele>1.5</ele><time>2026-04-11T07:24:01.044Z</time></trkpt><trkpt lat="40.3046297" lon="17.7336524"><ele>1.75</ele><time>2026-04-11T07:24:02.008Z</time></trkpt><trkpt lat="40.3046586" lon="17.7334614"><ele>2.0</ele><time>2026-04-11T07:24:03.044Z</time></trkpt><trkpt lat="40.3046751" lon="17.7332842"><ele>2.0</ele><time>2026-04-11T07:24:04.026Z</time></trkpt><trkpt lat="40.3046767" lon="17.7331042"><ele>2.0</ele><time>2026-04-11T07:24:05.022Z</time></trkpt><trkpt lat="40.3046802" lon="17.7329175"><ele>2.0</ele><time>2026-04-11T07:24:06.025Z</time></trkpt><trkpt lat="40.3046956" lon="17.7327457"><ele>2.0</ele><time>2026-04-11T07:24:07.106Z</time></trkpt><trkpt lat="40.3047096" lon="17.7325723"><ele>2.4000000000000004</ele><time>2026-04-11T07:24:08.008Z</time></trkpt><trkpt lat="40.3047483" lon="17.7324221"><ele>2.8000000000000003</ele><time>2026-04-11T07:24:09.049Z</time></trkpt><trkpt lat="40.3047638" lon="17.732275"><ele>3.2</ele><time>2026-04-11T07:24:10.051Z</time></trkpt><trkpt lat="40.304776" lon="17.7321395"><ele>3.6</ele><time>2026-04-11T07:24:11.012Z</time></trkpt><trkpt lat="40.3047908" lon="17.7320044"><ele>4.0</ele><time>2026-04-11T07:24:12.005Z</time></trkpt><trkpt lat="40.3048024" lon="17.7318758"><ele>4.0</ele><time>2026-04-11T07:24:13.043Z</time></trkpt><trkpt lat="40.304817" lon="17.7317445"><ele>4.0</ele><time>2026-04-11T07:24:14.013Z</time></trkpt><trkpt lat="40.3048297" lon="17.7316172"><ele>4.0</ele><time>2026-04-11T07:24:15.044Z</time></trkpt><trkpt lat="40.3048389" lon="17.7314796"><ele>4.0</ele><time>2026-04-11T07:24:16.011Z</time></trkpt><trkpt lat="40.3048423" lon="17.7313434"><ele>4.0</ele><time>2026-04-11T07:24:17.049Z</time></trkpt><trkpt lat="40.3048399" lon="17.7312027"><ele>4.25</ele><time>2026-04-11T07:24:18.017Z</time></trkpt><trkpt lat="40.3048435" lon="17.7310572"><ele>4.5</ele><time>2026-04-11T07:24:19.022Z</time></trkpt><trkpt lat="40.3048465" lon="17.7309155"><ele>4.75</ele><time>2026-04-11T07:24:20.005Z</time></trkpt><trkpt lat="40.3048321" lon="17.7307577"><ele>5.0</ele><time>2026-04-11T07:24:21.052Z</time></trkpt><trkpt lat="40.304822" lon="17.7306015"><ele>5.0</ele><time>2026-04-11T07:24:22.051Z</time></trkpt><trkpt lat="40.3048012" lon="17.7304445"><ele>5.0</ele><time>2026-04-11T07:24:23.046Z</time></trkpt><trkpt lat="40.3047851" lon="17.7302808"><ele>5.0</ele><time>2026-04-11T07:24:24.009Z</time></trkpt><trkpt lat="40.304756" lon="17.7301086"><ele>5.0</ele><time>2026-04-11T07:24:25.044Z</time></trkpt><trkpt lat="40.3047267" lon="17.7299016"><ele>5.0</ele><time>2026-04-11T07:24:26.048Z</time></trkpt><trkpt lat="40.3046965" lon="17.7297139"><ele>5.0</ele><time>2026-04-11T07:24:27.023Z</time></trkpt><trkpt lat="40.3046543" lon="17.7295241"><ele>5.0</ele><time>2026-04-11T07:24:28.053Z</time></trkpt><trkpt lat="40.3046117" lon="17.7293345"><ele>5.0</ele><time>2026-04-11T07:24:29.006Z</time></trkpt><trkpt lat="40.3045557" lon="17.7291478"><ele>5.0</ele><time>2026-04-11T07:24:30.01Z</time></trkpt><trkpt lat="40.3044889" lon="17.7289535"><ele>5.0</ele><time>2026-04-11T07:24:31.016Z</time></trkpt><trkpt lat="40.3044207" lon="17.7287463"><ele>5.0</ele><time>2026-04-11T07:24:32.052Z</time></trkpt><trkpt lat="40.3043398" lon="17.7285372"><ele>5.333333333333334</ele><time>2026-04-11T07:24:33.019Z</time></trkpt><trkpt lat="40.3042432" lon="17.7283386"><ele>5.666666666666667</ele><time>2026-04-11T07:24:34.024Z</time></trkpt><trkpt lat="40.3041546" lon="17.7281325"><ele>6.0</ele><time>2026-04-11T07:24:35.007Z</time></trkpt><trkpt lat="40.3040321" lon="17.7279362"><ele>5.333333333333333</ele><time>2026-04-11T07:24:36.011Z</time></trkpt><trkpt lat="40.3039152" lon="17.7277205"><ele>4.666666666666666</ele><time>2026-04-11T07:24:37.015Z</time></trkpt><trkpt lat="40.3037891" lon="17.7275155"><ele>4.0</ele><time>2026-04-11T07:24:38.038Z</time></trkpt><trkpt lat="40.3036546" lon="17.7272909"><ele>3.333333333333333</ele><time>2026-04-11T07:24:39.016Z</time></trkpt><trkpt lat="40.3035219" lon="17.7270825"><ele>2.6666666666666665</ele><time>2026-04-11T07:24:40.007Z</time></trkpt><trkpt lat="40.3033836" lon="17.7268764"><ele>2.0</ele><time>2026-04-11T07:24:41.006Z</time></trkpt><trkpt lat="40.3032455" lon="17.7266764"><ele>2.0</ele><time>2026-04-11T07:24:42.011Z</time></trkpt><trkpt lat="40.3031152" lon="17.7264829"><ele>2.0</ele><time>2026-04-11T07:24:43.05Z</time></trkpt><trkpt lat="40.3029792" lon="17.7262744"><ele>2.0</ele><time>2026-04-11T07:24:44.013Z</time></trkpt><trkpt lat="40.3028458" lon="17.7260752"><ele>2.6666666666666665</ele><time>2026-04-11T07:24:45.044Z</time></trkpt><trkpt lat="40.3027158" lon="17.7258739"><ele>3.333333333333333</ele><time>2026-04-11T07:24:46.009Z</time></trkpt><trkpt lat="40.3025952" lon="17.7256976"><ele>4.0</ele><time>2026-04-11T07:24:47.009Z</time></trkpt><trkpt lat="40.3024756" lon="17.7255093"><ele>4.0</ele><time>2026-04-11T07:24:48.005Z</time></trkpt><trkpt lat="40.3023516" lon="17.7253357"><ele>4.0</ele><time>2026-04-11T07:24:49.007Z</time></trkpt><trkpt lat="40.3022551" lon="17.7251607"><ele>4.0</ele><time>2026-04-11T07:24:50.012Z</time></trkpt><trkpt lat="40.3021596" lon="17.7250014"><ele>4.0</ele><time>2026-04-11T07:24:51.045Z</time></trkpt><trkpt lat="40.3020544" lon="17.7248597"><ele>4.0</ele><time>2026-04-11T07:24:52.02Z</time></trkpt><trkpt lat="40.3019587" lon="17.7247169"><ele>4.0</ele><time>2026-04-11T07:24:53.007Z</time></trkpt><trkpt lat="40.3018625" lon="17.7245637"><ele>4.0</ele><time>2026-04-11T07:24:54.009Z</time></trkpt><trkpt lat="40.3017711" lon="17.7244017"><ele>3.333333333333333</ele><time>2026-04-11T07:24:55.005Z</time></trkpt><trkpt lat="40.3016972" lon="17.7242266"><ele>2.6666666666666665</ele><time>2026-04-11T07:24:56.044Z</time></trkpt><trkpt lat="40.301619" lon="17.7240432"><ele>2.0</ele><time>2026-04-11T07:24:57.049Z</time></trkpt><trkpt lat="40.3015439" lon="17.723854"><ele>2.0</ele><time>2026-04-11T07:24:58.01Z</time></trkpt><trkpt lat="40.3015092" lon="17.7236691"><ele>2.0</ele><time>2026-04-11T07:24:59.012Z</time></trkpt><trkpt lat="40.3014631" lon="17.7234825"><ele>2.0</ele><time>2026-04-11T07:25:00.019Z</time></trkpt><trkpt lat="40.3014291" lon="17.7232816"><ele>1.3333333333333333</ele><time>2026-04-11T07:25:01.024Z</time></trkpt><trkpt lat="40.3013911" lon="17.72307"><ele>0.6666666666666666</ele><time>2026-04-11T07:25:02.019Z</time></trkpt><trkpt lat="40.3013622" lon="17.7228518"><ele>0.0</ele><time>2026-04-11T07:25:03.02Z</time></trkpt><trkpt lat="40.3013391" lon="17.7226357"><ele>0.0</ele><time>2026-04-11T07:25:04.006Z</time></trkpt><trkpt lat="40.3013492" lon="17.722389"><ele>0.0</ele><time>2026-04-11T07:25:05.017Z</time></trkpt><trkpt lat="40.3013399" lon="17.7221577"><ele>0.0</ele><time>2026-04-11T07:25:06.023Z</time></trkpt><trkpt lat="40.3013314" lon="17.7219202"><ele>0.3333333333333333</ele><time>2026-04-11T07:25:07.021Z</time></trkpt><trkpt lat="40.3013218" lon="17.7216959"><ele>0.6666666666666666</ele><time>2026-04-11T07:25:08.022Z</time></trkpt><trkpt lat="40.3013082" lon="17.7214679"><ele>1.0</ele><time>2026-04-11T07:25:09.041Z</time></trkpt><trkpt lat="40.3013009" lon="17.7212381"><ele>1.6666666666666665</ele><time>2026-04-11T07:25:10.018Z</time></trkpt><trkpt lat="40.3012811" lon="17.721006"><ele>2.3333333333333335</ele><time>2026-04-11T07:25:11.015Z</time></trkpt><trkpt lat="40.3012834" lon="17.7207594"><ele>3.0</ele><time>2026-04-11T07:25:12.052Z</time></trkpt><trkpt lat="40.3012826" lon="17.7205142"><ele>3.0</ele><time>2026-04-11T07:25:13.092Z</time></trkpt><trkpt lat="40.3012869" lon="17.7202859"><ele>3.0</ele><time>2026-04-11T07:25:14.046Z</time></trkpt><trkpt lat="40.3012816" lon="17.7200802"><ele>3.0</ele><time>2026-04-11T07:25:15.048Z</time></trkpt><trkpt lat="40.3012762" lon="17.7198788"><ele>2.6666666666666665</ele><time>2026-04-11T07:25:16.015Z</time></trkpt><trkpt lat="40.3012708" lon="17.7196739"><ele>2.333333333333333</ele><time>2026-04-11T07:25:17.004Z</time></trkpt><trkpt lat="40.3012615" lon="17.7194737"><ele>2.0</ele><time>2026-04-11T07:25:18.006Z</time></trkpt><trkpt lat="40.3012697" lon="17.7192689"><ele>2.0</ele><time>2026-04-11T07:25:19.053Z</time></trkpt><trkpt lat="40.3012864" lon="17.7190358"><ele>2.0</ele><time>2026-04-11T07:25:20.053Z</time></trkpt><trkpt lat="40.301308" lon="17.7188084"><ele>2.0</ele><time>2026-04-11T07:25:21.016Z</time></trkpt><trkpt lat="40.301305" lon="17.7185967"><ele>1.6666666666666665</ele><time>2026-04-11T07:25:22.004Z</time></trkpt><trkpt lat="40.3013079" lon="17.7184131"><ele>1.3333333333333333</ele><time>2026-04-11T07:25:23.045Z</time></trkpt><trkpt lat="40.301315" lon="17.7182017"><ele>1.0</ele><time>2026-04-11T07:25:24.025Z</time></trkpt><trkpt lat="40.3013261" lon="17.717984"><ele>1.0</ele><time>2026-04-11T07:25:25.01Z</time></trkpt><trkpt lat="40.3013488" lon="17.7177626"><ele>1.0</ele><time>2026-04-11T07:25:26.02Z</time></trkpt><trkpt lat="40.301368" lon="17.717546"><ele>1.0</ele><time>2026-04-11T07:25:27.028Z</time></trkpt><trkpt lat="40.3013969" lon="17.7173249"><ele>0.6666666666666666</ele><time>2026-04-11T07:25:28.006Z</time></trkpt><trkpt lat="40.3014099" lon="17.7170929"><ele>0.3333333333333333</ele><time>2026-04-11T07:25:29.039Z</time></trkpt><trkpt lat="40.3014436" lon="17.716869"><ele>0.0</ele><time>2026-04-11T07:25:30.008Z</time></trkpt><trkpt lat="40.3014895" lon="17.7166456"><ele>0.6666666666666666</ele><time>2026-04-11T07:25:31.008Z</time></trkpt><trkpt lat="40.301516" lon="17.7164232"><ele>1.3333333333333333</ele><time>2026-04-11T07:25:32.014Z</time></trkpt><trkpt lat="40.3015511" lon="17.7161913"><ele>2.0</ele><time>2026-04-11T07:25:33.014Z</time></trkpt><trkpt lat="40.3015862" lon="17.7159681"><ele>2.0</ele><time>2026-04-11T07:25:34.013Z</time></trkpt><trkpt lat="40.3016194" lon="17.7157615"><ele>2.0</ele><time>2026-04-11T07:25:35.021Z</time></trkpt><trkpt lat="40.3016493" lon="17.7155485"><ele>2.0</ele><time>2026-04-11T07:25:36.031Z</time></trkpt><trkpt lat="40.3016848" lon="17.7153345"><ele>1.3333333333333333</ele><time>2026-04-11T07:25:37.008Z</time></trkpt><trkpt lat="40.3017033" lon="17.7151107"><ele>0.6666666666666666</ele><time>2026-04-11T07:25:38.007Z</time></trkpt><trkpt lat="40.3017423" lon="17.7148889"><ele>0.0</ele><time>2026-04-11T07:25:39.006Z</time></trkpt><trkpt lat="40.3018063" lon="17.7146571"><ele>0.0</ele><time>2026-04-11T07:25:40.017Z</time></trkpt><trkpt lat="40.3018414" lon="17.7144317"><ele>0.0</ele><time>2026-04-11T07:25:41.006Z</time></trkpt><trkpt lat="40.3018714" lon="17.714208"><ele>0.0</ele><time>2026-04-11T07:25:42.011Z</time></trkpt><trkpt lat="40.301922" lon="17.7139875"><ele>0.0</ele><time>2026-04-11T07:25:43.044Z</time></trkpt><trkpt lat="40.3019677" lon="17.7137649"><ele>0.0</ele><time>2026-04-11T07:25:44.025Z</time></trkpt><trkpt lat="40.3020012" lon="17.7135502"><ele>0.0</ele><time>2026-04-11T07:25:45.022Z</time></trkpt><trkpt lat="40.3020359" lon="17.713333"><ele>0.3333333333333333</ele><time>2026-04-11T07:25:46.033Z</time></trkpt><trkpt lat="40.3020808" lon="17.7131325"><ele>0.6666666666666666</ele><time>2026-04-11T07:25:47.021Z</time></trkpt><trkpt lat="40.302112" lon="17.7129249"><ele>1.0</ele><time>2026-04-11T07:25:48.027Z</time></trkpt><trkpt lat="40.3021282" lon="17.7127186"><ele>1.3333333333333333</ele><time>2026-04-11T07:25:49.025Z</time></trkpt><trkpt lat="40.3021594" lon="17.712505"><ele>1.6666666666666665</ele><time>2026-04-11T07:25:50.005Z</time></trkpt><trkpt lat="40.3021936" lon="17.7122976"><ele>2.0</ele><time>2026-04-11T07:25:51.013Z</time></trkpt><trkpt lat="40.3022193" lon="17.7120619"><ele>2.0</ele><time>2026-04-11T07:25:52.023Z</time></trkpt><trkpt lat="40.3022411" lon="17.7118271"><ele>2.0</ele><time>2026-04-11T07:25:53.024Z</time></trkpt><trkpt lat="40.3022637" lon="17.7115813"><ele>2.0</ele><time>2026-04-11T07:25:54.027Z</time></trkpt><trkpt lat="40.3023027" lon="17.7113291"><ele>2.6666666666666665</ele><time>2026-04-11T07:25:55.021Z</time></trkpt><trkpt lat="40.3023328" lon="17.7110845"><ele>3.333333333333333</ele><time>2026-04-11T07:25:56.007Z</time></trkpt><trkpt lat="40.3023686" lon="17.7108229"><ele>4.0</ele><time>2026-04-11T07:25:57.011Z</time></trkpt><trkpt lat="40.3024038" lon="17.7105548"><ele>4.0</ele><time>2026-04-11T07:25:58.019Z</time></trkpt><trkpt lat="40.3024513" lon="17.7102782"><ele>4.0</ele><time>2026-04-11T07:25:59.026Z</time></trkpt><trkpt lat="40.3024975" lon="17.7099953"><ele>4.0</ele><time>2026-04-11T07:26:00.027Z</time></trkpt><trkpt lat="40.3025386" lon="17.7097098"><ele>4.0</ele><time>2026-04-11T07:26:01.027Z</time></trkpt><trkpt lat="40.3025757" lon="17.7094271"><ele>4.0</ele><time>2026-04-11T07:26:02.018Z</time></trkpt><trkpt lat="40.3026208" lon="17.709149"><ele>4.0</ele><time>2026-04-11T07:26:03.021Z</time></trkpt><trkpt lat="40.3026567" lon="17.7088702"><ele>4.0</ele><time>2026-04-11T07:26:04.017Z</time></trkpt><trkpt lat="40.3026893" lon="17.7085996"><ele>4.0</ele><time>2026-04-11T07:26:05.018Z</time></trkpt><trkpt lat="40.3027304" lon="17.7083304"><ele>4.0</ele><time>2026-04-11T07:26:06.022Z</time></trkpt><trkpt lat="40.3027706" lon="17.7080593"><ele>3.333333333333333</ele><time>2026-04-11T07:26:07.054Z</time></trkpt><trkpt lat="40.3028087" lon="17.707791"><ele>2.6666666666666665</ele><time>2026-04-11T07:26:08.01Z</time></trkpt><trkpt lat="40.3028485" lon="17.7075357"><ele>2.0</ele><time>2026-04-11T07:26:09.016Z</time></trkpt><trkpt lat="40.3028953" lon="17.7072629"><ele>2.0</ele><time>2026-04-11T07:26:10.024Z</time></trkpt><trkpt lat="40.3029401" lon="17.7069972"><ele>2.0</ele><time>2026-04-11T07:26:11.021Z</time></trkpt><trkpt lat="40.3029845" lon="17.706731"><ele>2.0</ele><time>2026-04-11T07:26:12.007Z</time></trkpt><trkpt lat="40.3030349" lon="17.7064695"><ele>1.3333333333333333</ele><time>2026-04-11T07:26:13.015Z</time></trkpt><trkpt lat="40.303076" lon="17.7062045"><ele>0.6666666666666666</ele><time>2026-04-11T07:26:14.046Z</time></trkpt><trkpt lat="40.303118" lon="17.7059355"><ele>0.0</ele><time>2026-04-11T07:26:15.005Z</time></trkpt><trkpt lat="40.3031599" lon="17.7056622"><ele>1.3333333333333333</ele><time>2026-04-11T07:26:16.01Z</time></trkpt><trkpt lat="40.303216" lon="17.7054131"><ele>2.6666666666666665</ele><time>2026-04-11T07:26:17.011Z</time></trkpt><trkpt lat="40.3032696" lon="17.7051557"><ele>4.0</ele><time>2026-04-11T07:26:18.021Z</time></trkpt><trkpt lat="40.3033158" lon="17.7049071"><ele>4.0</ele><time>2026-04-11T07:26:19.017Z</time></trkpt><trkpt lat="40.303348" lon="17.7046638"><ele>4.0</ele><time>2026-04-11T07:26:20.02Z</time></trkpt><trkpt lat="40.3033849" lon="17.704414"><ele>4.0</ele><time>2026-04-11T07:26:21.045Z</time></trkpt><trkpt lat="40.3034277" lon="17.7041662"><ele>3.333333333333333</ele><time>2026-04-11T07:26:22.043Z</time></trkpt><trkpt lat="40.3034703" lon="17.703927"><ele>2.6666666666666665</ele><time>2026-04-11T07:26:23.019Z</time></trkpt><trkpt lat="40.3035098" lon="17.7036806"><ele>2.0</ele><time>2026-04-11T07:26:24.046Z</time></trkpt><trkpt lat="40.3035406" lon="17.7034334"><ele>2.0</ele><time>2026-04-11T07:26:25.019Z</time></trkpt><trkpt lat="40.3035838" lon="17.7031952"><ele>2.0</ele><time>2026-04-11T07:26:26.018Z</time></trkpt><trkpt lat="40.303623" lon="17.7029618"><ele>2.0</ele><time>2026-04-11T07:26:27.02Z</time></trkpt><trkpt lat="40.3036673" lon="17.7027208"><ele>2.6666666666666665</ele><time>2026-04-11T07:26:28.006Z</time></trkpt><trkpt lat="40.303723" lon="17.7024841"><ele>3.333333333333333</ele><time>2026-04-11T07:26:29.013Z</time></trkpt><trkpt lat="40.3037683" lon="17.7022431"><ele>4.0</ele><time>2026-04-11T07:26:30.01Z</time></trkpt><trkpt lat="40.3038092" lon="17.7019922"><ele>3.6666666666666665</ele><time>2026-04-11T07:26:31.019Z</time></trkpt><trkpt lat="40.3038497" lon="17.7017389"><ele>3.333333333333333</ele><time>2026-04-11T07:26:32.023Z</time></trkpt><trkpt lat="40.3038872" lon="17.7014791"><ele>3.0</ele><time>2026-04-11T07:26:33.017Z</time></trkpt><trkpt lat="40.3039197" lon="17.701217"><ele>3.0</ele><time>2026-04-11T07:26:34.024Z</time></trkpt><trkpt lat="40.3039461" lon="17.7009498"><ele>3.0</ele><time>2026-04-11T07:26:35.021Z</time></trkpt><trkpt lat="40.3039714" lon="17.7006776"><ele>3.0</ele><time>2026-04-11T07:26:36.023Z</time></trkpt><trkpt lat="40.3039975" lon="17.7004099"><ele>2.6666666666666665</ele><time>2026-04-11T07:26:37.006Z</time></trkpt><trkpt lat="40.3040015" lon="17.7001325"><ele>2.333333333333333</ele><time>2026-04-11T07:26:38.015Z</time></trkpt><trkpt lat="40.3040172" lon="17.6998627"><ele>2.0</ele><time>2026-04-11T07:26:39.028Z</time></trkpt><trkpt lat="40.3040327" lon="17.6995936"><ele>2.333333333333333</ele><time>2026-04-11T07:26:40.019Z</time></trkpt><trkpt lat="40.3040421" lon="17.6993172"><ele>2.6666666666666665</ele><time>2026-04-11T07:26:41.006Z</time></trkpt><trkpt lat="40.3040468" lon="17.6990257"><ele>3.0</ele><time>2026-04-11T07:26:42.015Z</time></trkpt><trkpt lat="40.3040567" lon="17.6987408"><ele>2.0</ele><time>2026-04-11T07:26:43.009Z</time></trkpt><trkpt lat="40.3040555" lon="17.6984525"><ele>1.0</ele><time>2026-04-11T07:26:44.012Z</time></trkpt><trkpt lat="40.3040663" lon="17.6981556"><ele>0.0</ele><time>2026-04-11T07:26:45.017Z</time></trkpt><trkpt lat="40.3040777" lon="17.6978639"><ele>0.6666666666666666</ele><time>2026-04-11T07:26:46.037Z</time></trkpt><trkpt lat="40.3040872" lon="17.6975724"><ele>1.3333333333333333</ele><time>2026-04-11T07:26:47.004Z</time></trkpt><trkpt lat="40.3040998" lon="17.6972781"><ele>2.0</ele><time>2026-04-11T07:26:48.015Z</time></trkpt><trkpt lat="40.30411" lon="17.6969958"><ele>2.333333333333333</ele><time>2026-04-11T07:26:49.048Z</time></trkpt><trkpt lat="40.3041164" lon="17.6967107"><ele>2.6666666666666665</ele><time>2026-04-11T07:26:50.015Z</time></trkpt><trkpt lat="40.3041264" lon="17.696425"><ele>3.0</ele><time>2026-04-11T07:26:51.008Z</time></trkpt><trkpt lat="40.3041344" lon="17.6961488"><ele>2.6666666666666665</ele><time>2026-04-11T07:26:52.015Z</time></trkpt><trkpt lat="40.3041431" lon="17.6958713"><ele>2.333333333333333</ele><time>2026-04-11T07:26:53.046Z</time></trkpt><trkpt lat="40.3041521" lon="17.6955896"><ele>2.0</ele><time>2026-04-11T07:26:54.003Z</time></trkpt><trkpt lat="40.3041507" lon="17.6953229"><ele>1.6666666666666665</ele><time>2026-04-11T07:26:55.014Z</time></trkpt><trkpt lat="40.3041562" lon="17.6950509"><ele>1.3333333333333333</ele><time>2026-04-11T07:26:56.01Z</time></trkpt><trkpt lat="40.3041579" lon="17.6948027"><ele>1.0</ele><time>2026-04-11T07:26:57.041Z</time></trkpt><trkpt lat="40.3041613" lon="17.6945536"><ele>0.6666666666666666</ele><time>2026-04-11T07:26:58.02Z</time></trkpt><trkpt lat="40.3041499" lon="17.6943121"><ele>0.3333333333333333</ele><time>2026-04-11T07:26:59.02Z</time></trkpt><trkpt lat="40.3041529" lon="17.6940563"><ele>0.0</ele><time>2026-04-11T07:27:00.022Z</time></trkpt><trkpt lat="40.3041626" lon="17.6937967"><ele>0.3333333333333333</ele><time>2026-04-11T07:27:01.018Z</time></trkpt><trkpt lat="40.3041854" lon="17.6935301"><ele>0.6666666666666666</ele><time>2026-04-11T07:27:02.019Z</time></trkpt><trkpt lat="40.3041817" lon="17.6932709"><ele>1.0</ele><time>2026-04-11T07:27:03.024Z</time></trkpt><trkpt lat="40.3041879" lon="17.6930104"><ele>1.0</ele><time>2026-04-11T07:27:04.02Z</time></trkpt><trkpt lat="40.3041928" lon="17.6927492"><ele>1.0</ele><time>2026-04-11T07:27:05.02Z</time></trkpt><trkpt lat="40.3041993" lon="17.6924965"><ele>1.0</ele><time>2026-04-11T07:27:06.023Z</time></trkpt><trkpt lat="40.3042075" lon="17.6922352"><ele>1.0</ele><time>2026-04-11T07:27:07.02Z</time></trkpt><trkpt lat="40.3042197" lon="17.6919712"><ele>1.0</ele><time>2026-04-11T07:27:08.01Z</time></trkpt><trkpt lat="40.3042257" lon="17.6917135"><ele>1.0</ele><time>2026-04-11T07:27:09.018Z</time></trkpt><trkpt lat="40.3042358" lon="17.6914624"><ele>0.6666666666666666</ele><time>2026-04-11T07:27:10.022Z</time></trkpt><trkpt lat="40.3042403" lon="17.6912081"><ele>0.3333333333333333</ele><time>2026-04-11T07:27:11.013Z</time></trkpt><trkpt lat="40.3042457" lon="17.6909526"><ele>0.0</ele><time>2026-04-11T07:27:12.014Z</time></trkpt><trkpt lat="40.304247" lon="17.690697"><ele>0.3333333333333333</ele><time>2026-04-11T07:27:13.038Z</time></trkpt><trkpt lat="40.3042521" lon="17.6904423"><ele>0.6666666666666666</ele><time>2026-04-11T07:27:14.004Z</time></trkpt><trkpt lat="40.3042646" lon="17.6901886"><ele>1.0</ele><time>2026-04-11T07:27:15.013Z</time></trkpt><trkpt lat="40.3042745" lon="17.6899335"><ele>1.0</ele><time>2026-04-11T07:27:16.029Z</time></trkpt><trkpt lat="40.3042887" lon="17.6896819"><ele>1.0</ele><time>2026-04-11T07:27:17.087Z</time></trkpt><trkpt lat="40.3043088" lon="17.6894199"><ele>1.0</ele><time>2026-04-11T07:27:18.005Z</time></trkpt><trkpt lat="40.3043541" lon="17.6891562"><ele>1.0</ele><time>2026-04-11T07:27:19.015Z</time></trkpt><trkpt lat="40.3043814" lon="17.6888884"><ele>1.0</ele><time>2026-04-11T07:27:20.021Z</time></trkpt><trkpt lat="40.3043978" lon="17.6886224"><ele>1.0</ele><time>2026-04-11T07:27:21.026Z</time></trkpt><trkpt lat="40.3044302" lon="17.6883556"><ele>2.0</ele><time>2026-04-11T07:27:22.009Z</time></trkpt><trkpt lat="40.3044559" lon="17.6880827"><ele>3.0</ele><time>2026-04-11T07:27:23.012Z</time></trkpt><trkpt lat="40.3044882" lon="17.6878183"><ele>4.0</ele><time>2026-04-11T07:27:24.019Z</time></trkpt><trkpt lat="40.3045129" lon="17.6875534"><ele>4.666666666666666</ele><time>2026-04-11T07:27:25.02Z</time></trkpt><trkpt lat="40.3045382" lon="17.6872818"><ele>5.333333333333333</ele><time>2026-04-11T07:27:26.02Z</time></trkpt><trkpt lat="40.3045645" lon="17.6870142"><ele>6.0</ele><time>2026-04-11T07:27:27.009Z</time></trkpt><trkpt lat="40.3045713" lon="17.6867544"><ele>4.666666666666667</ele><time>2026-04-11T07:27:28.02Z</time></trkpt><trkpt lat="40.3045536" lon="17.6864893"><ele>3.333333333333333</ele><time>2026-04-11T07:27:29.026Z</time></trkpt><trkpt lat="40.3045588" lon="17.6862183"><ele>2.0</ele><time>2026-04-11T07:27:30.014Z</time></trkpt><trkpt lat="40.3045597" lon="17.6859505"><ele>1.6666666666666665</ele><time>2026-04-11T07:27:31.018Z</time></trkpt><trkpt lat="40.3045679" lon="17.6856833"><ele>1.3333333333333333</ele><time>2026-04-11T07:27:32.005Z</time></trkpt><trkpt lat="40.3045936" lon="17.6854136"><ele>1.0</ele><time>2026-04-11T07:27:33.02Z</time></trkpt><trkpt lat="40.3046074" lon="17.6851421"><ele>0.6666666666666666</ele><time>2026-04-11T07:27:34.055Z</time></trkpt><trkpt lat="40.3046248" lon="17.6848855"><ele>0.3333333333333333</ele><time>2026-04-11T07:27:35.048Z</time></trkpt><trkpt lat="40.3046362" lon="17.6846251"><ele>0.0</ele><time>2026-04-11T07:27:36.006Z</time></trkpt><trkpt lat="40.3046532" lon="17.684352"><ele>0.0</ele><time>2026-04-11T07:27:37.01Z</time></trkpt><trkpt lat="40.3046637" lon="17.6840961"><ele>0.0</ele><time>2026-04-11T07:27:38.019Z</time></trkpt><trkpt lat="40.3046792" lon="17.6838345"><ele>0.0</ele><time>2026-04-11T07:27:39.008Z</time></trkpt><trkpt lat="40.3046938" lon="17.683565"><ele>0.0</ele><time>2026-04-11T07:27:40.015Z</time></trkpt><trkpt lat="40.3047162" lon="17.6832949"><ele>0.0</ele><time>2026-04-11T07:27:41.02Z</time></trkpt><trkpt lat="40.3047525" lon="17.6830315"><ele>0.0</ele><time>2026-04-11T07:27:42.046Z</time></trkpt><trkpt lat="40.3047844" lon="17.68276"><ele>0.3333333333333333</ele><time>2026-04-11T07:27:43.005Z</time></trkpt><trkpt lat="40.3048309" lon="17.682489"><ele>0.6666666666666666</ele><time>2026-04-11T07:27:44.007Z</time></trkpt><trkpt lat="40.3048883" lon="17.682217"><ele>1.0</ele><time>2026-04-11T07:27:45.048Z</time></trkpt><trkpt lat="40.3049471" lon="17.6819455"><ele>1.3333333333333333</ele><time>2026-04-11T07:27:46.005Z</time></trkpt><trkpt lat="40.3050037" lon="17.6816788"><ele>1.6666666666666665</ele><time>2026-04-11T07:27:47.011Z</time></trkpt><trkpt lat="40.3050563" lon="17.6814247"><ele>2.0</ele><time>2026-04-11T07:27:48.019Z</time></trkpt><trkpt lat="40.3051183" lon="17.6811709"><ele>2.0</ele><time>2026-04-11T07:27:49.023Z</time></trkpt><trkpt lat="40.30518" lon="17.6809154"><ele>2.0</ele><time>2026-04-11T07:27:50.017Z</time></trkpt><trkpt lat="40.3052329" lon="17.6806618"><ele>2.0</ele><time>2026-04-11T07:27:51.023Z</time></trkpt><trkpt lat="40.3052775" lon="17.6804218"><ele>2.0</ele><time>2026-04-11T07:27:52.02Z</time></trkpt><trkpt lat="40.3053321" lon="17.680181"><ele>2.0</ele><time>2026-04-11T07:27:53.024Z</time></trkpt><trkpt lat="40.3053829" lon="17.6799515"><ele>2.0</ele><time>2026-04-11T07:27:54.004Z</time></trkpt><trkpt lat="40.3054316" lon="17.6797345"><ele>2.0</ele><time>2026-04-11T07:27:55.012Z</time></trkpt><trkpt lat="40.3054673" lon="17.6795078"><ele>2.0</ele><time>2026-04-11T07:27:56.018Z</time></trkpt><trkpt lat="40.3055012" lon="17.6792742"><ele>2.0</ele><time>2026-04-11T07:27:57.017Z</time></trkpt><trkpt lat="40.3055379" lon="17.6790439"><ele>2.333333333333333</ele><time>2026-04-11T07:27:58.016Z</time></trkpt><trkpt lat="40.3055676" lon="17.6788314"><ele>2.6666666666666665</ele><time>2026-04-11T07:27:59.023Z</time></trkpt><trkpt lat="40.3055971" lon="17.6786192"><ele>3.0</ele><time>2026-04-11T07:28:00.028Z</time></trkpt><trkpt lat="40.3056175" lon="17.6784112"><ele>3.0</ele><time>2026-04-11T07:28:01.005Z</time></trkpt><trkpt lat="40.3056266" lon="17.6782244"><ele>3.0</ele><time>2026-04-11T07:28:02.013Z</time></trkpt><trkpt lat="40.3056426" lon="17.6780425"><ele>3.0</ele><time>2026-04-11T07:28:03.012Z</time></trkpt><trkpt lat="40.3056562" lon="17.6778586"><ele>3.0</ele><time>2026-04-11T07:28:04.001Z</time></trkpt><trkpt lat="40.3056778" lon="17.6776726"><ele>3.25</ele><time>2026-04-11T07:28:05.016Z</time></trkpt><trkpt lat="40.3057033" lon="17.677486"><ele>3.5</ele><time>2026-04-11T07:28:06.024Z</time></trkpt><trkpt lat="40.305715" lon="17.6772946"><ele>3.75</ele><time>2026-04-11T07:28:07.052Z</time></trkpt><trkpt lat="40.3057307" lon="17.6771044"><ele>4.0</ele><time>2026-04-11T07:28:08.014Z</time></trkpt><trkpt lat="40.3057583" lon="17.6769184"><ele>4.25</ele><time>2026-04-11T07:28:09.041Z</time></trkpt><trkpt lat="40.3057879" lon="17.6767499"><ele>4.5</ele><time>2026-04-11T07:28:10.044Z</time></trkpt><trkpt lat="40.3058161" lon="17.6765907"><ele>4.75</ele><time>2026-04-11T07:28:11.018Z</time></trkpt><trkpt lat="40.3058444" lon="17.6764356"><ele>5.0</ele><time>2026-04-11T07:28:12.009Z</time></trkpt><trkpt lat="40.305882" lon="17.676302"><ele>5.0</ele><time>2026-04-11T07:28:13.052Z</time></trkpt><trkpt lat="40.305932" lon="17.6761826"><ele>5.0</ele><time>2026-04-11T07:28:14.058Z</time></trkpt><trkpt lat="40.3059922" lon="17.6760586"><ele>5.0</ele><time>2026-04-11T07:28:15.012Z</time></trkpt><trkpt lat="40.306046" lon="17.6759316"><ele>5.0</ele><time>2026-04-11T07:28:16.006Z</time></trkpt><trkpt lat="40.3061206" lon="17.6758174"><ele>5.0</ele><time>2026-04-11T07:28:17.043Z</time></trkpt><trkpt lat="40.3061924" lon="17.6756964"><ele>4.75</ele><time>2026-04-11T07:28:18.047Z</time></trkpt><trkpt lat="40.3062716" lon="17.6755725"><ele>4.5</ele><time>2026-04-11T07:28:19Z</time></trkpt><trkpt lat="40.3063559" lon="17.6754389"><ele>4.25</ele><time>2026-04-11T07:28:20.043Z</time></trkpt><trkpt lat="40.3064495" lon="17.6753165"><ele>4.0</ele><time>2026-04-11T07:28:21.015Z</time></trkpt><trkpt lat="40.3065278" lon="17.6751861"><ele>4.0</ele><time>2026-04-11T07:28:22.044Z</time></trkpt><trkpt lat="40.3066085" lon="17.6750545"><ele>4.0</ele><time>2026-04-11T07:28:23.068Z</time></trkpt><trkpt lat="40.3066734" lon="17.6749129"><ele>4.0</ele><time>2026-04-11T07:28:24.069Z</time></trkpt><trkpt lat="40.3067425" lon="17.6747796"><ele>4.0</ele><time>2026-04-11T07:28:25.025Z</time></trkpt><trkpt lat="40.3067988" lon="17.6746424"><ele>4.0</ele><time>2026-04-11T07:28:26.019Z</time></trkpt><trkpt lat="40.3068549" lon="17.6745118"><ele>4.0</ele><time>2026-04-11T07:28:27.022Z</time></trkpt><trkpt lat="40.3068855" lon="17.6743685"><ele>4.0</ele><time>2026-04-11T07:28:28.022Z</time></trkpt><trkpt lat="40.3069189" lon="17.6742154"><ele>4.0</ele><time>2026-04-11T07:28:29.025Z</time></trkpt><trkpt lat="40.306946" lon="17.6740751"><ele>4.0</ele><time>2026-04-11T07:28:30.016Z</time></trkpt><trkpt lat="40.3069527" lon="17.6739366"><ele>4.0</ele><time>2026-04-11T07:28:31.017Z</time></trkpt><trkpt lat="40.3069644" lon="17.6738037"><ele>4.0</ele><time>2026-04-11T07:28:32.009Z</time></trkpt><trkpt lat="40.3069576" lon="17.6736934"><ele>4.0</ele><time>2026-04-11T07:28:33.049Z</time></trkpt><trkpt lat="40.3069608" lon="17.6735745"><ele>4.0</ele><time>2026-04-11T07:28:34.005Z</time></trkpt><trkpt lat="40.3069695" lon="17.6734465"><ele>3.9999999999999996</ele><time>2026-04-11T07:28:35.008Z</time></trkpt><trkpt lat="40.3069821" lon="17.6733521"><ele>4.0</ele><time>2026-04-11T07:28:36.023Z</time></trkpt><trkpt lat="40.3069925" lon="17.6731936"><ele>4.0</ele><time>2026-04-11T07:28:38.045Z</time></trkpt><trkpt lat="40.3069874" lon="17.6730634"><ele>4.0</ele><time>2026-04-11T07:28:40.014Z</time></trkpt><trkpt lat="40.3069911" lon="17.6729594"><ele>3.9999999999999996</ele><time>2026-04-11T07:28:43.013Z</time></trkpt><trkpt lat="40.3069901" lon="17.672871"><ele>4.0</ele><time>2026-04-11T07:29:10.048Z</time></trkpt><trkpt lat="40.3070203" lon="17.6727455"><ele>3.9999999999999996</ele><time>2026-04-11T07:29:12.045Z</time></trkpt><trkpt lat="40.307014" lon="17.6726063"><ele>4.0</ele><time>2026-04-11T07:29:14.023Z</time></trkpt><trkpt lat="40.3070223" lon="17.6724754"><ele>4.0</ele><time>2026-04-11T07:29:16.015Z</time></trkpt><trkpt lat="40.3070195" lon="17.6723887"><ele>4.0</ele><time>2026-04-11T07:29:18.052Z</time></trkpt><trkpt lat="40.307024" lon="17.6722963"><ele>3.9999999999999996</ele><time>2026-04-11T07:29:22.042Z</time></trkpt><trkpt lat="40.3070257" lon="17.6721685"><ele>4.0</ele><time>2026-04-11T07:29:25.013Z</time></trkpt><trkpt lat="40.3070243" lon="17.6720834"><ele>3.9999999999999996</ele><time>2026-04-11T07:29:26.011Z</time></trkpt><trkpt lat="40.3070229" lon="17.6720001"><ele>4.0</ele><time>2026-04-11T07:29:27.035Z</time></trkpt><trkpt lat="40.3070285" lon="17.671889"><ele>4.0</ele><time>2026-04-11T07:29:28.022Z</time></trkpt><trkpt lat="40.3070237" lon="17.6717822"><ele>4.0</ele><time>2026-04-11T07:29:29.053Z</time></trkpt><trkpt lat="40.3070217" lon="17.6716756"><ele>3.9999999999999996</ele><time>2026-04-11T07:29:30.014Z</time></trkpt><trkpt lat="40.3070258" lon="17.6715543"><ele>4.0</ele><time>2026-04-11T07:29:31.012Z</time></trkpt><trkpt lat="40.3070358" lon="17.6714247"><ele>4.6</ele><time>2026-04-11T07:29:32.012Z</time></trkpt><trkpt lat="40.3070404" lon="17.6712922"><ele>5.2</ele><time>2026-04-11T07:29:33.02Z</time></trkpt><trkpt lat="40.3070399" lon="17.6711615"><ele>5.799999999999999</ele><time>2026-04-11T07:29:34.014Z</time></trkpt><trkpt lat="40.3070455" lon="17.6710455"><ele>6.3999999999999995</ele><time>2026-04-11T07:29:35.009Z</time></trkpt><trkpt lat="40.3070451" lon="17.6709214"><ele>7.0</ele><time>2026-04-11T07:29:36.01Z</time></trkpt><trkpt lat="40.3070419" lon="17.6707971"><ele>7.166666666666667</ele><time>2026-04-11T07:29:37.011Z</time></trkpt><trkpt lat="40.3070366" lon="17.6706816"><ele>7.333333333333334</ele><time>2026-04-11T07:29:38.014Z</time></trkpt><trkpt lat="40.307029" lon="17.6705592"><ele>7.5</ele><time>2026-04-11T07:29:39.015Z</time></trkpt><trkpt lat="40.3070191" lon="17.670444"><ele>7.666666666666666</ele><time>2026-04-11T07:29:40.016Z</time></trkpt><trkpt lat="40.3070092" lon="17.6703298"><ele>7.833333333333333</ele><time>2026-04-11T07:29:41.015Z</time></trkpt><trkpt lat="40.3070099" lon="17.6702301"><ele>8.0</ele><time>2026-04-11T07:29:42.017Z</time></trkpt><trkpt lat="40.3070262" lon="17.6700899"><ele>7.6000000000000005</ele><time>2026-04-11T07:29:43.012Z</time></trkpt><trkpt lat="40.3070326" lon="17.6699683"><ele>7.200000000000001</ele><time>2026-04-11T07:29:44.015Z</time></trkpt><trkpt lat="40.3070255" lon="17.6698462"><ele>6.8</ele><time>2026-04-11T07:29:45.014Z</time></trkpt><trkpt lat="40.307016" lon="17.6697119"><ele>6.4</ele><time>2026-04-11T07:29:46.019Z</time></trkpt><trkpt lat="40.3070044" lon="17.669579"><ele>6.0</ele><time>2026-04-11T07:29:47.031Z</time></trkpt><trkpt lat="40.306994" lon="17.6694546"><ele>6.0</ele><time>2026-04-11T07:29:48.02Z</time></trkpt><trkpt lat="40.3069846" lon="17.669343"><ele>6.0</ele><time>2026-04-11T07:29:49.016Z</time></trkpt><trkpt lat="40.3069867" lon="17.6692388"><ele>6.0</ele><time>2026-04-11T07:29:50.012Z</time></trkpt><trkpt lat="40.3069757" lon="17.6691349"><ele>6.0</ele><time>2026-04-11T07:29:51.015Z</time></trkpt><trkpt lat="40.3069621" lon="17.6690196"><ele>6.0</ele><time>2026-04-11T07:29:52.014Z</time></trkpt><trkpt lat="40.306959" lon="17.6688784"><ele>6.0</ele><time>2026-04-11T07:29:53.012Z</time></trkpt><trkpt lat="40.3069499" lon="17.6687366"><ele>6.25</ele><time>2026-04-11T07:29:54.01Z</time></trkpt><trkpt lat="40.3069414" lon="17.6685917"><ele>6.5</ele><time>2026-04-11T07:29:55.015Z</time></trkpt><trkpt lat="40.3069373" lon="17.6684373"><ele>6.75</ele><time>2026-04-11T07:29:56.011Z</time></trkpt><trkpt lat="40.3069353" lon="17.6682826"><ele>7.0</ele><time>2026-04-11T07:29:57.014Z</time></trkpt><trkpt lat="40.3069332" lon="17.6681169"><ele>7.0</ele><time>2026-04-11T07:29:58.015Z</time></trkpt><trkpt lat="40.306924" lon="17.6679595"><ele>7.0</ele><time>2026-04-11T07:29:59.015Z</time></trkpt><trkpt lat="40.3069174" lon="17.6678027"><ele>7.0</ele><time>2026-04-11T07:30:00.014Z</time></trkpt><trkpt lat="40.3069128" lon="17.6676515"><ele>7.0</ele><time>2026-04-11T07:30:01.012Z</time></trkpt><trkpt lat="40.306898" lon="17.6674961"><ele>6.8</ele><time>2026-04-11T07:30:02.017Z</time></trkpt><trkpt lat="40.3068865" lon="17.6673494"><ele>6.6</ele><time>2026-04-11T07:30:03.013Z</time></trkpt><trkpt lat="40.3068827" lon="17.6672025"><ele>6.3999999999999995</ele><time>2026-04-11T07:30:04.015Z</time></trkpt><trkpt lat="40.3068734" lon="17.6670704"><ele>6.199999999999999</ele><time>2026-04-11T07:30:05.013Z</time></trkpt><trkpt lat="40.306876" lon="17.6669439"><ele>6.0</ele><time>2026-04-11T07:30:06.016Z</time></trkpt><trkpt lat="40.3068749" lon="17.666824"><ele>5.833333333333333</ele><time>2026-04-11T07:30:07.014Z</time></trkpt><trkpt lat="40.3068674" lon="17.6667062"><ele>5.666666666666667</ele><time>2026-04-11T07:30:08.014Z</time></trkpt><trkpt lat="40.3068762" lon="17.6665971"><ele>5.5</ele><time>2026-04-11T07:30:09.081Z</time></trkpt><trkpt lat="40.3068645" lon="17.6665032"><ele>5.333333333333334</ele><time>2026-04-11T07:30:10.013Z</time></trkpt><trkpt lat="40.3068603" lon="17.6664101"><ele>5.166666666666667</ele><time>2026-04-11T07:30:11.004Z</time></trkpt><trkpt lat="40.3068466" lon="17.6662825"><ele>5.0</ele><time>2026-04-11T07:30:12.043Z</time></trkpt><trkpt lat="40.3068442" lon="17.6661721"><ele>5.2</ele><time>2026-04-11T07:30:13.015Z</time></trkpt><trkpt lat="40.3068438" lon="17.666055"><ele>5.4</ele><time>2026-04-11T07:30:14.041Z</time></trkpt><trkpt lat="40.3068219" lon="17.6659223"><ele>5.6</ele><time>2026-04-11T07:30:15.04Z</time></trkpt><trkpt lat="40.3068104" lon="17.6657819"><ele>5.8</ele><time>2026-04-11T07:30:16.015Z</time></trkpt><trkpt lat="40.3068091" lon="17.6656293"><ele>6.0</ele><time>2026-04-11T07:30:17.021Z</time></trkpt><trkpt lat="40.3068195" lon="17.665479"><ele>6.0</ele><time>2026-04-11T07:30:18.014Z</time></trkpt><trkpt lat="40.3068341" lon="17.665314"><ele>6.0</ele><time>2026-04-11T07:30:19.018Z</time></trkpt><trkpt lat="40.3068404" lon="17.6651487"><ele>6.0</ele><time>2026-04-11T07:30:20.021Z</time></trkpt><trkpt lat="40.3068387" lon="17.6649832"><ele>6.0</ele><time>2026-04-11T07:30:21.058Z</time></trkpt><trkpt lat="40.3068422" lon="17.6648181"><ele>6.0</ele><time>2026-04-11T07:30:22.006Z</time></trkpt><trkpt lat="40.3068458" lon="17.6646671"><ele>6.0</ele><time>2026-04-11T07:30:23.017Z</time></trkpt><trkpt lat="40.3068624" lon="17.6645119"><ele>6.0</ele><time>2026-04-11T07:30:24.011Z</time></trkpt><trkpt lat="40.3068769" lon="17.6643633"><ele>6.0</ele><time>2026-04-11T07:30:25.04Z</time></trkpt><trkpt lat="40.3068919" lon="17.6642172"><ele>6.0</ele><time>2026-04-11T07:30:26.013Z</time></trkpt><trkpt lat="40.3069019" lon="17.6640604"><ele>6.0</ele><time>2026-04-11T07:30:27.016Z</time></trkpt><trkpt lat="40.3069046" lon="17.6639038"><ele>6.0</ele><time>2026-04-11T07:30:28.011Z</time></trkpt><trkpt lat="40.306922" lon="17.6637537"><ele>6.0</ele><time>2026-04-11T07:30:29.011Z</time></trkpt><trkpt lat="40.3069261" lon="17.6635933"><ele>6.0</ele><time>2026-04-11T07:30:30.02Z</time></trkpt><trkpt lat="40.3069311" lon="17.6634379"><ele>6.0</ele><time>2026-04-11T07:30:31.014Z</time></trkpt><trkpt lat="40.3069405" lon="17.6632787"><ele>6.0</ele><time>2026-04-11T07:30:32.014Z</time></trkpt><trkpt lat="40.3069426" lon="17.6631264"><ele>6.0</ele><time>2026-04-11T07:30:33.018Z</time></trkpt><trkpt lat="40.3069417" lon="17.6629692"><ele>6.0</ele><time>2026-04-11T07:30:34.023Z</time></trkpt><trkpt lat="40.3069454" lon="17.6628125"><ele>6.0</ele><time>2026-04-11T07:30:35.005Z</time></trkpt><trkpt lat="40.3069625" lon="17.6626538"><ele>6.0</ele><time>2026-04-11T07:30:36.013Z</time></trkpt><trkpt lat="40.3069654" lon="17.6624807"><ele>6.0</ele><time>2026-04-11T07:30:37.017Z</time></trkpt><trkpt lat="40.3069453" lon="17.6623119"><ele>6.0</ele><time>2026-04-11T07:30:38.012Z</time></trkpt><trkpt lat="40.3069495" lon="17.6621355"><ele>6.0</ele><time>2026-04-11T07:30:39.069Z</time></trkpt><trkpt lat="40.3069479" lon="17.6619481"><ele>6.0</ele><time>2026-04-11T07:30:40.013Z</time></trkpt><trkpt lat="40.3069472" lon="17.6617719"><ele>6.0</ele><time>2026-04-11T07:30:41.043Z</time></trkpt><trkpt lat="40.3069441" lon="17.6615898"><ele>6.5</ele><time>2026-04-11T07:30:42.004Z</time></trkpt><trkpt lat="40.3069366" lon="17.6613973"><ele>7.0</ele><time>2026-04-11T07:30:43.008Z</time></trkpt><trkpt lat="40.3069164" lon="17.6612143"><ele>7.5</ele><time>2026-04-11T07:30:44.046Z</time></trkpt><trkpt lat="40.3069202" lon="17.6610435"><ele>8.0</ele><time>2026-04-11T07:30:45.016Z</time></trkpt><trkpt lat="40.3069054" lon="17.6608751"><ele>8.0</ele><time>2026-04-11T07:30:46.022Z</time></trkpt><trkpt lat="40.3068901" lon="17.6607283"><ele>8.0</ele><time>2026-04-11T07:30:47.021Z</time></trkpt><trkpt lat="40.3068545" lon="17.6605794"><ele>8.0</ele><time>2026-04-11T07:30:48.021Z</time></trkpt><trkpt lat="40.3068507" lon="17.660427"><ele>8.0</ele><time>2026-04-11T07:30:49.01Z</time></trkpt><trkpt lat="40.3068613" lon="17.6602605"><ele>8.0</ele><time>2026-04-11T07:30:50.082Z</time></trkpt><trkpt lat="40.3068575" lon="17.6601058"><ele>8.0</ele><time>2026-04-11T07:30:51.003Z</time></trkpt><trkpt lat="40.3068542" lon="17.6599478"><ele>8.0</ele><time>2026-04-11T07:30:52.044Z</time></trkpt><trkpt lat="40.3068658" lon="17.6597806"><ele>8.0</ele><time>2026-04-11T07:30:53.017Z</time></trkpt><trkpt lat="40.3068597" lon="17.6596193"><ele>8.0</ele><time>2026-04-11T07:30:54.046Z</time></trkpt><trkpt lat="40.3068563" lon="17.6594604"><ele>8.0</ele><time>2026-04-11T07:30:55.04Z</time></trkpt><trkpt lat="40.3068555" lon="17.6593207"><ele>8.0</ele><time>2026-04-11T07:30:56.022Z</time></trkpt><trkpt lat="40.306854" lon="17.6591734"><ele>8.0</ele><time>2026-04-11T07:30:57.016Z</time></trkpt><trkpt lat="40.3068341" lon="17.6590368"><ele>8.0</ele><time>2026-04-11T07:30:58.015Z</time></trkpt><trkpt lat="40.3068129" lon="17.6589031"><ele>7.800000000000001</ele><time>2026-04-11T07:30:59.017Z</time></trkpt><trkpt lat="40.3068077" lon="17.6587674"><ele>7.6000000000000005</ele><time>2026-04-11T07:31:00.037Z</time></trkpt><trkpt lat="40.3067973" lon="17.6586313"><ele>7.3999999999999995</ele><time>2026-04-11T07:31:01.015Z</time></trkpt><trkpt lat="40.3067921" lon="17.6584875"><ele>7.199999999999999</ele><time>2026-04-11T07:31:02.011Z</time></trkpt><trkpt lat="40.3067848" lon="17.6583568"><ele>7.0</ele><time>2026-04-11T07:31:03.047Z</time></trkpt><trkpt lat="40.3067795" lon="17.6582172"><ele>6.75</ele><time>2026-04-11T07:31:04.012Z</time></trkpt><trkpt lat="40.3067676" lon="17.6580731"><ele>6.5</ele><time>2026-04-11T07:31:05.052Z</time></trkpt><trkpt lat="40.3067578" lon="17.6579274"><ele>6.25</ele><time>2026-04-11T07:31:06.005Z</time></trkpt><trkpt lat="40.3067713" lon="17.6577495"><ele>6.0</ele><time>2026-04-11T07:31:07.037Z</time></trkpt><trkpt lat="40.3067653" lon="17.6575959"><ele>6.0</ele><time>2026-04-11T07:31:08.059Z</time></trkpt><trkpt lat="40.3067622" lon="17.6574598"><ele>6.0</ele><time>2026-04-11T07:31:09.043Z</time></trkpt><trkpt lat="40.3067534" lon="17.657324"><ele>6.0</ele><time>2026-04-11T07:31:10.018Z</time></trkpt><trkpt lat="40.3067571" lon="17.6571724"><ele>6.0</ele><time>2026-04-11T07:31:11.052Z</time></trkpt><trkpt lat="40.3067554" lon="17.6570244"><ele>6.0</ele><time>2026-04-11T07:31:12.015Z</time></trkpt><trkpt lat="40.3067573" lon="17.6568977"><ele>5.6</ele><time>2026-04-11T07:31:13.054Z</time></trkpt><trkpt lat="40.3067573" lon="17.6567707"><ele>5.199999999999999</ele><time>2026-04-11T07:31:14.021Z</time></trkpt><trkpt lat="40.3067498" lon="17.6566377"><ele>4.800000000000001</ele><time>2026-04-11T07:31:15.009Z</time></trkpt><trkpt lat="40.3067575" lon="17.6565199"><ele>4.4</ele><time>2026-04-11T07:31:16.049Z</time></trkpt><trkpt lat="40.306754" lon="17.656397"><ele>4.0</ele><time>2026-04-11T07:31:17.02Z</time></trkpt><trkpt lat="40.3067582" lon="17.6562751"><ele>4.0</ele><time>2026-04-11T07:31:18.022Z</time></trkpt><trkpt lat="40.3067517" lon="17.6561527"><ele>4.0</ele><time>2026-04-11T07:31:19.017Z</time></trkpt><trkpt lat="40.3067284" lon="17.6560304"><ele>4.0</ele><time>2026-04-11T07:31:20.016Z</time></trkpt><trkpt lat="40.3067213" lon="17.6559172"><ele>4.0</ele><time>2026-04-11T07:31:21.023Z</time></trkpt><trkpt lat="40.3067263" lon="17.6557932"><ele>4.0</ele><time>2026-04-11T07:31:22.012Z</time></trkpt><trkpt lat="40.3067198" lon="17.6556625"><ele>3.8000000000000003</ele><time>2026-04-11T07:31:23.063Z</time></trkpt><trkpt lat="40.3067166" lon="17.6555331"><ele>3.6000000000000005</ele><time>2026-04-11T07:31:24.017Z</time></trkpt><trkpt lat="40.3067175" lon="17.6553978"><ele>3.4</ele><time>2026-04-11T07:31:25.012Z</time></trkpt><trkpt lat="40.3067126" lon="17.6552604"><ele>3.2</ele><time>2026-04-11T07:31:26.013Z</time></trkpt><trkpt lat="40.3067085" lon="17.655118"><ele>3.0</ele><time>2026-04-11T07:31:27.002Z</time></trkpt><trkpt lat="40.3067125" lon="17.6549832"><ele>3.4</ele><time>2026-04-11T07:31:28.04Z</time></trkpt><trkpt lat="40.3067153" lon="17.6548493"><ele>3.8</ele><time>2026-04-11T07:31:29.023Z</time></trkpt><trkpt lat="40.3067167" lon="17.6547205"><ele>4.2</ele><time>2026-04-11T07:31:30.017Z</time></trkpt><trkpt lat="40.306706" lon="17.6546093"><ele>4.6</ele><time>2026-04-11T07:31:31.011Z</time></trkpt><trkpt lat="40.3067017" lon="17.6544917"><ele>5.0</ele><time>2026-04-11T07:31:32.003Z</time></trkpt><trkpt lat="40.3066914" lon="17.6543614"><ele>5.4</ele><time>2026-04-11T07:31:33.005Z</time></trkpt><trkpt lat="40.3066902" lon="17.6542347"><ele>5.8</ele><time>2026-04-11T07:31:34.039Z</time></trkpt><trkpt lat="40.3066861" lon="17.6540994"><ele>6.199999999999999</ele><time>2026-04-11T07:31:35.04Z</time></trkpt><trkpt lat="40.3066832" lon="17.6539626"><ele>6.6</ele><time>2026-04-11T07:31:36.021Z</time></trkpt><trkpt lat="40.3066757" lon="17.6538241"><ele>7.0</ele><time>2026-04-11T07:31:37.028Z</time></trkpt><trkpt lat="40.3066739" lon="17.6536973"><ele>7.199999999999999</ele><time>2026-04-11T07:31:38.049Z</time></trkpt><trkpt lat="40.3066802" lon="17.6535818"><ele>7.3999999999999995</ele><time>2026-04-11T07:31:39.046Z</time></trkpt><trkpt lat="40.3066711" lon="17.6534628"><ele>7.6000000000000005</ele><time>2026-04-11T07:31:40.017Z</time></trkpt><trkpt lat="40.3066682" lon="17.6533304"><ele>7.800000000000001</ele><time>2026-04-11T07:31:41.023Z</time></trkpt><trkpt lat="40.3066556" lon="17.6532075"><ele>8.0</ele><time>2026-04-11T07:31:42.044Z</time></trkpt><trkpt lat="40.306638" lon="17.6530624"><ele>8.0</ele><time>2026-04-11T07:31:43.015Z</time></trkpt><trkpt lat="40.3066023" lon="17.6529379"><ele>8.0</ele><time>2026-04-11T07:31:44.044Z</time></trkpt><trkpt lat="40.3065703" lon="17.6528068"><ele>8.0</ele><time>2026-04-11T07:31:45.038Z</time></trkpt><trkpt lat="40.3065326" lon="17.6526682"><ele>8.0</ele><time>2026-04-11T07:31:45.999Z</time></trkpt><trkpt lat="40.3064578" lon="17.6525327"><ele>8.0</ele><time>2026-04-11T07:31:47.016Z</time></trkpt><trkpt lat="40.3064033" lon="17.6523882"><ele>7.0</ele><time>2026-04-11T07:31:48.025Z</time></trkpt><trkpt lat="40.3063479" lon="17.6522419"><ele>6.0</ele><time>2026-04-11T07:31:49.006Z</time></trkpt><trkpt lat="40.3062521" lon="17.6520841"><ele>5.0</ele><time>2026-04-11T07:31:50.047Z</time></trkpt><trkpt lat="40.3061747" lon="17.6519387"><ele>4.0</ele><time>2026-04-11T07:31:51.019Z</time></trkpt><trkpt lat="40.30611" lon="17.6517801"><ele>4.0</ele><time>2026-04-11T07:31:52.011Z</time></trkpt><trkpt lat="40.3060383" lon="17.6516375"><ele>4.0</ele><time>2026-04-11T07:31:53.005Z</time></trkpt><trkpt lat="40.3059855" lon="17.6515036"><ele>4.0</ele><time>2026-04-11T07:31:54.017Z</time></trkpt><trkpt lat="40.3059175" lon="17.6513729"><ele>4.0</ele><time>2026-04-11T07:31:55.016Z</time></trkpt><trkpt lat="40.3058558" lon="17.6512561"><ele>4.0</ele><time>2026-04-11T07:31:56.01Z</time></trkpt><trkpt lat="40.3057917" lon="17.6511356"><ele>4.0</ele><time>2026-04-11T07:31:57.019Z</time></trkpt><trkpt lat="40.3057347" lon="17.651002"><ele>4.0</ele><time>2026-04-11T07:31:58.015Z</time></trkpt><trkpt lat="40.3056758" lon="17.6508659"><ele>4.0</ele><time>2026-04-11T07:31:59.017Z</time></trkpt><trkpt lat="40.3056103" lon="17.6507177"><ele>3.75</ele><time>2026-04-11T07:32:00.014Z</time></trkpt><trkpt lat="40.3055449" lon="17.650572"><ele>3.5</ele><time>2026-04-11T07:32:01.022Z</time></trkpt><trkpt lat="40.3054737" lon="17.6504344"><ele>3.25</ele><time>2026-04-11T07:32:02.005Z</time></trkpt><trkpt lat="40.3054078" lon="17.650283"><ele>3.0</ele><time>2026-04-11T07:32:03.012Z</time></trkpt><trkpt lat="40.3053399" lon="17.6501405"><ele>3.0</ele><time>2026-04-11T07:32:04.012Z</time></trkpt><trkpt lat="40.3052681" lon="17.6500012"><ele>3.0</ele><time>2026-04-11T07:32:05.015Z</time></trkpt><trkpt lat="40.305195" lon="17.6498421"><ele>3.0</ele><time>2026-04-11T07:32:06.021Z</time></trkpt><trkpt lat="40.3051144" lon="17.6496846"><ele>3.0</ele><time>2026-04-11T07:32:07.023Z</time></trkpt><trkpt lat="40.3050315" lon="17.6495229"><ele>3.0</ele><time>2026-04-11T07:32:08.019Z</time></trkpt><trkpt lat="40.3049544" lon="17.6493652"><ele>3.0</ele><time>2026-04-11T07:32:09.058Z</time></trkpt><trkpt lat="40.3048748" lon="17.6492069"><ele>3.0</ele><time>2026-04-11T07:32:10.006Z</time></trkpt><trkpt lat="40.3047888" lon="17.6490393"><ele>3.0</ele><time>2026-04-11T07:32:11.044Z</time></trkpt><trkpt lat="40.3046967" lon="17.6488711"><ele>3.0</ele><time>2026-04-11T07:32:12.015Z</time></trkpt><trkpt lat="40.3046144" lon="17.6487057"><ele>3.0</ele><time>2026-04-11T07:32:13.003Z</time></trkpt><trkpt lat="40.3045349" lon="17.648538"><ele>3.0</ele><time>2026-04-11T07:32:14.039Z</time></trkpt><trkpt lat="40.3044561" lon="17.6483659"><ele>2.75</ele><time>2026-04-11T07:32:15.042Z</time></trkpt><trkpt lat="40.3043771" lon="17.6481964"><ele>2.5</ele><time>2026-04-11T07:32:16.005Z</time></trkpt><trkpt lat="40.3043189" lon="17.6480418"><ele>2.25</ele><time>2026-04-11T07:32:17.014Z</time></trkpt><trkpt lat="40.3042435" lon="17.6478873"><ele>2.0</ele><time>2026-04-11T07:32:18.013Z</time></trkpt><trkpt lat="40.3041827" lon="17.6477402"><ele>2.0</ele><time>2026-04-11T07:32:19.011Z</time></trkpt><trkpt lat="40.3041058" lon="17.6476037"><ele>2.0</ele><time>2026-04-11T07:32:20.044Z</time></trkpt><trkpt lat="40.3040176" lon="17.6474704"><ele>2.0</ele><time>2026-04-11T07:32:21.013Z</time></trkpt><trkpt lat="40.3039382" lon="17.6473214"><ele>2.0</ele><time>2026-04-11T07:32:22.003Z</time></trkpt><trkpt lat="40.3038526" lon="17.6471639"><ele>2.0</ele><time>2026-04-11T07:32:23.012Z</time></trkpt><trkpt lat="40.3037723" lon="17.6470061"><ele>2.0</ele><time>2026-04-11T07:32:24.021Z</time></trkpt><trkpt lat="40.3037047" lon="17.6468526"><ele>2.0</ele><time>2026-04-11T07:32:25.018Z</time></trkpt><trkpt lat="40.3036302" lon="17.6467147"><ele>2.0</ele><time>2026-04-11T07:32:26.023Z</time></trkpt><trkpt lat="40.3035861" lon="17.6465885"><ele>2.25</ele><time>2026-04-11T07:32:27.021Z</time></trkpt><trkpt lat="40.3035515" lon="17.6464411"><ele>2.5</ele><time>2026-04-11T07:32:28.048Z</time></trkpt><trkpt lat="40.303559" lon="17.6462824"><ele>2.75</ele><time>2026-04-11T07:32:29.024Z</time></trkpt><trkpt lat="40.3035519" lon="17.6461361"><ele>3.0</ele><time>2026-04-11T07:32:30.018Z</time></trkpt><trkpt lat="40.3035443" lon="17.6459969"><ele>3.0</ele><time>2026-04-11T07:32:31.011Z</time></trkpt><trkpt lat="40.3035506" lon="17.6458669"><ele>3.0</ele><time>2026-04-11T07:32:32.014Z</time></trkpt><trkpt lat="40.3035567" lon="17.6457347"><ele>3.0</ele><time>2026-04-11T07:32:33.017Z</time></trkpt><trkpt lat="40.3035709" lon="17.6456015"><ele>3.0</ele><time>2026-04-11T07:32:34.066Z</time></trkpt><trkpt lat="40.3035953" lon="17.6454633"><ele>3.0</ele><time>2026-04-11T07:32:35.018Z</time></trkpt><trkpt lat="40.3036067" lon="17.6453116"><ele>2.75</ele><time>2026-04-11T07:32:36.019Z</time></trkpt><trkpt lat="40.303624" lon="17.6451655"><ele>2.5</ele><time>2026-04-11T07:32:37.022Z</time></trkpt><trkpt lat="40.3036516" lon="17.6450098"><ele>2.25</ele><time>2026-04-11T07:32:38.012Z</time></trkpt><trkpt lat="40.3036593" lon="17.6448535"><ele>2.0</ele><time>2026-04-11T07:32:39.043Z</time></trkpt><trkpt lat="40.3036766" lon="17.6446899"><ele>2.0</ele><time>2026-04-11T07:32:40.046Z</time></trkpt><trkpt lat="40.3036865" lon="17.6445201"><ele>2.0</ele><time>2026-04-11T07:32:41.051Z</time></trkpt><trkpt lat="40.3036945" lon="17.6443395"><ele>2.0</ele><time>2026-04-11T07:32:42.015Z</time></trkpt><trkpt lat="40.303709" lon="17.6441637"><ele>2.0</ele><time>2026-04-11T07:32:43.044Z</time></trkpt><trkpt lat="40.3037285" lon="17.6439709"><ele>2.0</ele><time>2026-04-11T07:32:44.045Z</time></trkpt><trkpt lat="40.3037448" lon="17.6437648"><ele>2.0</ele><time>2026-04-11T07:32:45.011Z</time></trkpt><trkpt lat="40.3037422" lon="17.6435659"><ele>2.0</ele><time>2026-04-11T07:32:46.045Z</time></trkpt><trkpt lat="40.3037501" lon="17.6433577"><ele>1.6666666666666665</ele><time>2026-04-11T07:32:47.024Z</time></trkpt><trkpt lat="40.3037335" lon="17.6431307"><ele>1.3333333333333333</ele><time>2026-04-11T07:32:48.052Z</time></trkpt><trkpt lat="40.3037282" lon="17.6429132"><ele>1.0</ele><time>2026-04-11T07:32:49.008Z</time></trkpt><trkpt lat="40.3037072" lon="17.642697"><ele>0.6666666666666666</ele><time>2026-04-11T07:32:50.016Z</time></trkpt><trkpt lat="40.3036964" lon="17.6424678"><ele>0.3333333333333333</ele><time>2026-04-11T07:32:51.05Z</time></trkpt><trkpt lat="40.3036739" lon="17.6422357"><ele>0.0</ele><time>2026-04-11T07:32:52.018Z</time></trkpt><trkpt lat="40.3036523" lon="17.6420059"><ele>-0.3333333333333333</ele><time>2026-04-11T07:32:53.007Z</time></trkpt><trkpt lat="40.3036419" lon="17.6417832"><ele>-0.6666666666666666</ele><time>2026-04-11T07:32:54.009Z</time></trkpt><trkpt lat="40.303619" lon="17.6415712"><ele>-1.0</ele><time>2026-04-11T07:32:55.052Z</time></trkpt><trkpt lat="40.3035987" lon="17.6413656"><ele>-1.0</ele><time>2026-04-11T07:32:56.002Z</time></trkpt><trkpt lat="40.3035794" lon="17.6411693"><ele>-1.0</ele><time>2026-04-11T07:32:57.011Z</time></trkpt><trkpt lat="40.30356" lon="17.6409605"><ele>-1.0</ele><time>2026-04-11T07:32:58.015Z</time></trkpt><trkpt lat="40.303534" lon="17.6407469"><ele>-0.3333333333333333</ele><time>2026-04-11T07:32:59.017Z</time></trkpt><trkpt lat="40.3035114" lon="17.6405384"><ele>0.3333333333333333</ele><time>2026-04-11T07:33:00.065Z</time></trkpt><trkpt lat="40.3034902" lon="17.6403366"><ele>1.0</ele><time>2026-04-11T07:33:01.021Z</time></trkpt><trkpt lat="40.3034717" lon="17.6401188"><ele>1.0</ele><time>2026-04-11T07:33:02.023Z</time></trkpt><trkpt lat="40.3034536" lon="17.6399061"><ele>1.0</ele><time>2026-04-11T07:33:03.02Z</time></trkpt><trkpt lat="40.303436" lon="17.6396945"><ele>1.0</ele><time>2026-04-11T07:33:04.019Z</time></trkpt><trkpt lat="40.3034133" lon="17.6394827"><ele>0.6666666666666666</ele><time>2026-04-11T07:33:05.023Z</time></trkpt><trkpt lat="40.303403" lon="17.6392688"><ele>0.3333333333333333</ele><time>2026-04-11T07:33:06.016Z</time></trkpt><trkpt lat="40.3033917" lon="17.6390553"><ele>0.0</ele><time>2026-04-11T07:33:07.001Z</time></trkpt><trkpt lat="40.3034297" lon="17.6388311"><ele>0.0</ele><time>2026-04-11T07:33:08.012Z</time></trkpt><trkpt lat="40.3034472" lon="17.6386156"><ele>0.0</ele><time>2026-04-11T07:33:09.02Z</time></trkpt><trkpt lat="40.3035034" lon="17.6383868"><ele>0.0</ele><time>2026-04-11T07:33:10.062Z</time></trkpt><trkpt lat="40.3035472" lon="17.6381695"><ele>0.0</ele><time>2026-04-11T07:33:11.013Z</time></trkpt><trkpt lat="40.3036228" lon="17.6379595"><ele>0.0</ele><time>2026-04-11T07:33:12.011Z</time></trkpt><trkpt lat="40.303693" lon="17.6377423"><ele>0.0</ele><time>2026-04-11T07:33:13.006Z</time></trkpt><trkpt lat="40.3037731" lon="17.6375338"><ele>0.3333333333333333</ele><time>2026-04-11T07:33:14.023Z</time></trkpt><trkpt lat="40.303848" lon="17.6373224"><ele>0.6666666666666666</ele><time>2026-04-11T07:33:15.02Z</time></trkpt><trkpt lat="40.3039223" lon="17.6371171"><ele>1.0</ele><time>2026-04-11T07:33:16.017Z</time></trkpt><trkpt lat="40.3040035" lon="17.6369046"><ele>1.3333333333333333</ele><time>2026-04-11T07:33:17.023Z</time></trkpt><trkpt lat="40.304071" lon="17.6366855"><ele>1.6666666666666665</ele><time>2026-04-11T07:33:18.05Z</time></trkpt><trkpt lat="40.304144" lon="17.6364777"><ele>2.0</ele><time>2026-04-11T07:33:19.011Z</time></trkpt><trkpt lat="40.3042069" lon="17.6362829"><ele>2.6666666666666665</ele><time>2026-04-11T07:33:20.014Z</time></trkpt><trkpt lat="40.3042776" lon="17.6360938"><ele>3.333333333333333</ele><time>2026-04-11T07:33:21.019Z</time></trkpt><trkpt lat="40.304334" lon="17.635915"><ele>4.0</ele><time>2026-04-11T07:33:22.014Z</time></trkpt><trkpt lat="40.3043931" lon="17.6357363"><ele>4.0</ele><time>2026-04-11T07:33:23.004Z</time></trkpt><trkpt lat="40.304428" lon="17.6355375"><ele>4.0</ele><time>2026-04-11T07:33:24.013Z</time></trkpt><trkpt lat="40.3044589" lon="17.6353368"><ele>4.0</ele><time>2026-04-11T07:33:25.019Z</time></trkpt><trkpt lat="40.3044711" lon="17.6351431"><ele>3.333333333333333</ele><time>2026-04-11T07:33:26.036Z</time></trkpt><trkpt lat="40.3044595" lon="17.6349351"><ele>2.6666666666666665</ele><time>2026-04-11T07:33:27.023Z</time></trkpt><trkpt lat="40.3044414" lon="17.6347222"><ele>2.0</ele><time>2026-04-11T07:33:28.021Z</time></trkpt><trkpt lat="40.3044034" lon="17.6345109"><ele>1.6666666666666665</ele><time>2026-04-11T07:33:29.028Z</time></trkpt><trkpt lat="40.3043533" lon="17.6343008"><ele>1.3333333333333333</ele><time>2026-04-11T07:33:30.047Z</time></trkpt><trkpt lat="40.3043006" lon="17.6340843"><ele>1.0</ele><time>2026-04-11T07:33:31.006Z</time></trkpt><trkpt lat="40.3042531" lon="17.6338589"><ele>1.0</ele><time>2026-04-11T07:33:32.009Z</time></trkpt><trkpt lat="40.3042027" lon="17.633621"><ele>1.0</ele><time>2026-04-11T07:33:33.043Z</time></trkpt><trkpt lat="40.3041481" lon="17.6333846"><ele>1.0</ele><time>2026-04-11T07:33:34.046Z</time></trkpt><trkpt lat="40.3040942" lon="17.6331477"><ele>1.0</ele><time>2026-04-11T07:33:35.044Z</time></trkpt><trkpt lat="40.3040347" lon="17.6329112"><ele>1.0</ele><time>2026-04-11T07:33:36.043Z</time></trkpt><trkpt lat="40.3039819" lon="17.6326802"><ele>1.0</ele><time>2026-04-11T07:33:37.013Z</time></trkpt><trkpt lat="40.3039292" lon="17.6324397"><ele>1.0</ele><time>2026-04-11T07:33:38.009Z</time></trkpt><trkpt lat="40.3038782" lon="17.6322079"><ele>1.0</ele><time>2026-04-11T07:33:39.013Z</time></trkpt><trkpt lat="40.3038297" lon="17.6319742"><ele>1.0</ele><time>2026-04-11T07:33:40.047Z</time></trkpt><trkpt lat="40.3037762" lon="17.6317359"><ele>1.0</ele><time>2026-04-11T07:33:41.006Z</time></trkpt><trkpt lat="40.3037187" lon="17.6314993"><ele>1.0</ele><time>2026-04-11T07:33:42.017Z</time></trkpt><trkpt lat="40.3036547" lon="17.6312593"><ele>1.0</ele><time>2026-04-11T07:33:43.02Z</time></trkpt><trkpt lat="40.3036" lon="17.6310139"><ele>1.0</ele><time>2026-04-11T07:33:44.048Z</time></trkpt><trkpt lat="40.3035453" lon="17.6307605"><ele>1.0</ele><time>2026-04-11T07:33:45.045Z</time></trkpt><trkpt lat="40.3034884" lon="17.6305084"><ele>1.0</ele><time>2026-04-11T07:33:46.009Z</time></trkpt><trkpt lat="40.3034328" lon="17.6302682"><ele>0.3333333333333333</ele><time>2026-04-11T07:33:47.018Z</time></trkpt><trkpt lat="40.3033731" lon="17.6300216"><ele>-0.3333333333333333</ele><time>2026-04-11T07:33:48.021Z</time></trkpt><trkpt lat="40.3033133" lon="17.629779"><ele>-1.0</ele><time>2026-04-11T07:33:49.028Z</time></trkpt><trkpt lat="40.3032638" lon="17.6295254"><ele>-1.3333333333333333</ele><time>2026-04-11T07:33:50.019Z</time></trkpt><trkpt lat="40.3032101" lon="17.6292857"><ele>-1.6666666666666665</ele><time>2026-04-11T07:33:51.026Z</time></trkpt><trkpt lat="40.3031541" lon="17.6290424"><ele>-2.0</ele><time>2026-04-11T07:33:52.02Z</time></trkpt><trkpt lat="40.3031045" lon="17.6287925"><ele>-1.0</ele><time>2026-04-11T07:33:53.018Z</time></trkpt><trkpt lat="40.303049" lon="17.6285422"><ele>0.0</ele><time>2026-04-11T07:33:54.013Z</time></trkpt><trkpt lat="40.3029972" lon="17.6282902"><ele>1.0</ele><time>2026-04-11T07:33:55.018Z</time></trkpt><trkpt lat="40.3029409" lon="17.6280343"><ele>1.0</ele><time>2026-04-11T07:33:56.019Z</time></trkpt><trkpt lat="40.302884" lon="17.6277778"><ele>1.0</ele><time>2026-04-11T07:33:57.052Z</time></trkpt><trkpt lat="40.3028323" lon="17.6275224"><ele>1.0</ele><time>2026-04-11T07:33:58.046Z</time></trkpt><trkpt lat="40.3027787" lon="17.6272685"><ele>1.0</ele><time>2026-04-11T07:33:59.01Z</time></trkpt><trkpt lat="40.3027198" lon="17.6270522"><ele>1.0</ele><time>2026-04-11T07:34:00.047Z</time></trkpt><trkpt lat="40.302668" lon="17.6268085"><ele>1.0</ele><time>2026-04-11T07:34:01.045Z</time></trkpt><trkpt lat="40.302625" lon="17.6265546"><ele>1.0</ele><time>2026-04-11T07:34:02.011Z</time></trkpt><trkpt lat="40.3025916" lon="17.6262745"><ele>1.0</ele><time>2026-04-11T07:34:03.017Z</time></trkpt><trkpt lat="40.3025543" lon="17.6260086"><ele>1.0</ele><time>2026-04-11T07:34:04.02Z</time></trkpt><trkpt lat="40.3025253" lon="17.6257467"><ele>1.0</ele><time>2026-04-11T07:34:05.017Z</time></trkpt><trkpt lat="40.3025053" lon="17.6254838"><ele>1.0</ele><time>2026-04-11T07:34:06.061Z</time></trkpt><trkpt lat="40.3024821" lon="17.6252144"><ele>1.0</ele><time>2026-04-11T07:34:07.023Z</time></trkpt><trkpt lat="40.3024473" lon="17.6249523"><ele>1.0</ele><time>2026-04-11T07:34:08.044Z</time></trkpt><trkpt lat="40.302426" lon="17.6246853"><ele>1.0</ele><time>2026-04-11T07:34:09.04Z</time></trkpt><trkpt lat="40.3024019" lon="17.624421"><ele>1.0</ele><time>2026-04-11T07:34:10.003Z</time></trkpt><trkpt lat="40.3023966" lon="17.6241525"><ele>1.0</ele><time>2026-04-11T07:34:11.014Z</time></trkpt><trkpt lat="40.3023744" lon="17.623886"><ele>1.0</ele><time>2026-04-11T07:34:12.01Z</time></trkpt><trkpt lat="40.3023448" lon="17.6236254"><ele>1.0</ele><time>2026-04-11T07:34:13.009Z</time></trkpt><trkpt lat="40.3023174" lon="17.6233593"><ele>1.0</ele><time>2026-04-11T07:34:14.021Z</time></trkpt><trkpt lat="40.3022923" lon="17.6230938"><ele>1.0</ele><time>2026-04-11T07:34:15.003Z</time></trkpt><trkpt lat="40.3022709" lon="17.6228333"><ele>1.0</ele><time>2026-04-11T07:34:16.022Z</time></trkpt><trkpt lat="40.3022571" lon="17.6225818"><ele>1.0</ele><time>2026-04-11T07:34:17.018Z</time></trkpt><trkpt lat="40.3022336" lon="17.6223252"><ele>1.0</ele><time>2026-04-11T07:34:18.015Z</time></trkpt><trkpt lat="40.302205" lon="17.6220767"><ele>1.0</ele><time>2026-04-11T07:34:19.09Z</time></trkpt><trkpt lat="40.3021819" lon="17.6218292"><ele>1.0</ele><time>2026-04-11T07:34:20.004Z</time></trkpt><trkpt lat="40.3021672" lon="17.6215691"><ele>1.0</ele><time>2026-04-11T07:34:21.003Z</time></trkpt><trkpt lat="40.3021416" lon="17.6213188"><ele>1.0</ele><time>2026-04-11T07:34:22.038Z</time></trkpt><trkpt lat="40.302116" lon="17.6210706"><ele>1.0</ele><time>2026-04-11T07:34:23.041Z</time></trkpt><trkpt lat="40.3020807" lon="17.6208175"><ele>1.0</ele><time>2026-04-11T07:34:24.047Z</time></trkpt><trkpt lat="40.3020481" lon="17.6205623"><ele>1.0</ele><time>2026-04-11T07:34:25.045Z</time></trkpt><trkpt lat="40.3020198" lon="17.6203136"><ele>1.0</ele><time>2026-04-11T07:34:26.047Z</time></trkpt><trkpt lat="40.3019944" lon="17.6200622"><ele>1.0</ele><time>2026-04-11T07:34:27.003Z</time></trkpt><trkpt lat="40.3019575" lon="17.6198134"><ele>1.0</ele><time>2026-04-11T07:34:28.008Z</time></trkpt><trkpt lat="40.3019297" lon="17.6195612"><ele>1.6666666666666665</ele><time>2026-04-11T07:34:29.012Z</time></trkpt><trkpt lat="40.3019006" lon="17.619308"><ele>2.3333333333333335</ele><time>2026-04-11T07:34:30.044Z</time></trkpt><trkpt lat="40.3018749" lon="17.6190469"><ele>3.0</ele><time>2026-04-11T07:34:31.017Z</time></trkpt><trkpt lat="40.3018601" lon="17.6187658"><ele>3.0</ele><time>2026-04-11T07:34:32.022Z</time></trkpt><trkpt lat="40.3018373" lon="17.6185021"><ele>3.0</ele><time>2026-04-11T07:34:33.052Z</time></trkpt><trkpt lat="40.3018162" lon="17.6182245"><ele>3.0</ele><time>2026-04-11T07:34:34.016Z</time></trkpt><trkpt lat="40.3017968" lon="17.6179527"><ele>3.333333333333333</ele><time>2026-04-11T07:34:35.003Z</time></trkpt><trkpt lat="40.3017846" lon="17.6176785"><ele>3.6666666666666665</ele><time>2026-04-11T07:34:36.045Z</time></trkpt><trkpt lat="40.3017649" lon="17.6174005"><ele>4.0</ele><time>2026-04-11T07:34:37.023Z</time></trkpt><trkpt lat="40.3017526" lon="17.6171248"><ele>4.333333333333333</ele><time>2026-04-11T07:34:38.016Z</time></trkpt><trkpt lat="40.301743" lon="17.6168512"><ele>4.666666666666667</ele><time>2026-04-11T07:34:39.013Z</time></trkpt><trkpt lat="40.3017222" lon="17.6165691"><ele>5.0</ele><time>2026-04-11T07:34:40.014Z</time></trkpt><trkpt lat="40.3017066" lon="17.6163049"><ele>4.666666666666667</ele><time>2026-04-11T07:34:41.01Z</time></trkpt><trkpt lat="40.301668" lon="17.6160806"><ele>4.333333333333333</ele><time>2026-04-11T07:34:42.021Z</time></trkpt><trkpt lat="40.3016523" lon="17.6158096"><ele>4.0</ele><time>2026-04-11T07:34:43.024Z</time></trkpt><trkpt lat="40.3016322" lon="17.6155488"><ele>4.333333333333333</ele><time>2026-04-11T07:34:44.025Z</time></trkpt><trkpt lat="40.3016215" lon="17.6152819"><ele>4.666666666666667</ele><time>2026-04-11T07:34:45.048Z</time></trkpt><trkpt lat="40.3015994" lon="17.6150106"><ele>5.0</ele><time>2026-04-11T07:34:46.002Z</time></trkpt><trkpt lat="40.3015699" lon="17.6147328"><ele>5.0</ele><time>2026-04-11T07:34:47.007Z</time></trkpt><trkpt lat="40.301541" lon="17.6144584"><ele>5.0</ele><time>2026-04-11T07:34:48.007Z</time></trkpt><trkpt lat="40.3015259" lon="17.6141753"><ele>5.0</ele><time>2026-04-11T07:34:49.009Z</time></trkpt><trkpt lat="40.3015158" lon="17.6138789"><ele>5.0</ele><time>2026-04-11T07:34:50.009Z</time></trkpt><trkpt lat="40.3014993" lon="17.6135808"><ele>5.0</ele><time>2026-04-11T07:34:51.012Z</time></trkpt><trkpt lat="40.3014723" lon="17.6132963"><ele>5.0</ele><time>2026-04-11T07:34:52.01Z</time></trkpt><trkpt lat="40.3014459" lon="17.6130046"><ele>6.0</ele><time>2026-04-11T07:34:53.013Z</time></trkpt><trkpt lat="40.3014238" lon="17.612715"><ele>7.0</ele><time>2026-04-11T07:34:54.09Z</time></trkpt><trkpt lat="40.3013995" lon="17.6124269"><ele>8.0</ele><time>2026-04-11T07:34:55.045Z</time></trkpt><trkpt lat="40.3013737" lon="17.6121407"><ele>6.666666666666666</ele><time>2026-04-11T07:34:56.004Z</time></trkpt><trkpt lat="40.3013502" lon="17.6118562"><ele>5.333333333333333</ele><time>2026-04-11T07:34:57.061Z</time></trkpt><trkpt lat="40.3013312" lon="17.6115626"><ele>4.0</ele><time>2026-04-11T07:34:58.027Z</time></trkpt><trkpt lat="40.3013061" lon="17.6112843"><ele>4.333333333333333</ele><time>2026-04-11T07:34:59.014Z</time></trkpt><trkpt lat="40.3012725" lon="17.6110008"><ele>4.666666666666667</ele><time>2026-04-11T07:35:00.043Z</time></trkpt><trkpt lat="40.3012473" lon="17.6107226"><ele>5.0</ele><time>2026-04-11T07:35:01.018Z</time></trkpt><trkpt lat="40.301217" lon="17.6104449"><ele>4.666666666666667</ele><time>2026-04-11T07:35:02.017Z</time></trkpt><trkpt lat="40.3011917" lon="17.6101654"><ele>4.333333333333333</ele><time>2026-04-11T07:35:03.002Z</time></trkpt><trkpt lat="40.3011674" lon="17.6098838"><ele>4.0</ele><time>2026-04-11T07:35:04.041Z</time></trkpt><trkpt lat="40.3011497" lon="17.6096024"><ele>3.333333333333333</ele><time>2026-04-11T07:35:05.004Z</time></trkpt><trkpt lat="40.3011385" lon="17.6093134"><ele>2.6666666666666665</ele><time>2026-04-11T07:35:06.014Z</time></trkpt><trkpt lat="40.3011369" lon="17.6090206"><ele>2.0</ele><time>2026-04-11T07:35:07.12Z</time></trkpt><trkpt lat="40.3011226" lon="17.6084544"><ele>3.333333333333333</ele><time>2026-04-11T07:35:09.007Z</time></trkpt><trkpt lat="40.3011092" lon="17.6081755"><ele>4.666666666666667</ele><time>2026-04-11T07:35:10.016Z</time></trkpt><trkpt lat="40.3011061" lon="17.6078951"><ele>6.0</ele><time>2026-04-11T07:35:11.047Z</time></trkpt><trkpt lat="40.3011031" lon="17.6076109"><ele>6.0</ele><time>2026-04-11T07:35:12.004Z</time></trkpt><trkpt lat="40.3010957" lon="17.6073358"><ele>6.0</ele><time>2026-04-11T07:35:13.008Z</time></trkpt><trkpt lat="40.3010997" lon="17.607062"><ele>6.0</ele><time>2026-04-11T07:35:14.045Z</time></trkpt><trkpt lat="40.3010969" lon="17.6067796"><ele>6.0</ele><time>2026-04-11T07:35:15.018Z</time></trkpt><trkpt lat="40.3010944" lon="17.6065146"><ele>6.0</ele><time>2026-04-11T07:35:16.026Z</time></trkpt><trkpt lat="40.3010829" lon="17.606234"><ele>6.0</ele><time>2026-04-11T07:35:17.025Z</time></trkpt><trkpt lat="40.3010717" lon="17.605954"><ele>6.333333333333334</ele><time>2026-04-11T07:35:18.011Z</time></trkpt><trkpt lat="40.3010382" lon="17.6056901"><ele>6.666666666666667</ele><time>2026-04-11T07:35:19.018Z</time></trkpt><trkpt lat="40.3010066" lon="17.6054115"><ele>7.0</ele><time>2026-04-11T07:35:20.022Z</time></trkpt><trkpt lat="40.3009649" lon="17.6051325"><ele>7.0</ele><time>2026-04-11T07:35:21.021Z</time></trkpt><trkpt lat="40.3009085" lon="17.6048511"><ele>7.0</ele><time>2026-04-11T07:35:22.023Z</time></trkpt><trkpt lat="40.3008484" lon="17.6045619"><ele>6.5</ele><time>2026-04-11T07:35:23.019Z</time></trkpt><trkpt lat="40.3007936" lon="17.6042714"><ele>6.0</ele><time>2026-04-11T07:35:24.021Z</time></trkpt><trkpt lat="40.3007281" lon="17.6039861"><ele>6.0</ele><time>2026-04-11T07:35:25.019Z</time></trkpt><trkpt lat="40.3006668" lon="17.6037058"><ele>6.0</ele><time>2026-04-11T07:35:26.026Z</time></trkpt><trkpt lat="40.3006087" lon="17.6034214"><ele>6.0</ele><time>2026-04-11T07:35:27.021Z</time></trkpt><trkpt lat="40.3005617" lon="17.6031463"><ele>5.0</ele><time>2026-04-11T07:35:28.02Z</time></trkpt><trkpt lat="40.3005301" lon="17.6028692"><ele>4.0</ele><time>2026-04-11T07:35:29.019Z</time></trkpt><trkpt lat="40.3005006" lon="17.6026001"><ele>3.0</ele><time>2026-04-11T07:35:30.015Z</time></trkpt><trkpt lat="40.3004883" lon="17.6023163"><ele>3.0</ele><time>2026-04-11T07:35:31.013Z</time></trkpt><trkpt lat="40.3004854" lon="17.6020404"><ele>3.0</ele><time>2026-04-11T07:35:32.005Z</time></trkpt><trkpt lat="40.3004956" lon="17.6017645"><ele>3.0</ele><time>2026-04-11T07:35:33.014Z</time></trkpt><trkpt lat="40.3004791" lon="17.6014867"><ele>3.0</ele><time>2026-04-11T07:35:34.023Z</time></trkpt><trkpt lat="40.3004626" lon="17.6012056"><ele>3.0</ele><time>2026-04-11T07:35:35.022Z</time></trkpt><trkpt lat="40.3004414" lon="17.6009264"><ele>3.0</ele><time>2026-04-11T07:35:36.02Z</time></trkpt><trkpt lat="40.3004006" lon="17.6006357"><ele>3.0</ele><time>2026-04-11T07:35:37.045Z</time></trkpt><trkpt lat="40.3003607" lon="17.600353"><ele>3.0</ele><time>2026-04-11T07:35:38.023Z</time></trkpt><trkpt lat="40.3003094" lon="17.6000758"><ele>3.0</ele><time>2026-04-11T07:35:39.024Z</time></trkpt><trkpt lat="40.3002679" lon="17.5997868"><ele>3.0</ele><time>2026-04-11T07:35:40.054Z</time></trkpt><trkpt lat="40.3002269" lon="17.5995106"><ele>3.0</ele><time>2026-04-11T07:35:41.049Z</time></trkpt><trkpt lat="40.3001793" lon="17.5992399"><ele>3.0</ele><time>2026-04-11T07:35:42.007Z</time></trkpt><trkpt lat="40.3001316" lon="17.5989647"><ele>3.0</ele><time>2026-04-11T07:35:43Z</time></trkpt><trkpt lat="40.3000847" lon="17.5986925"><ele>3.0</ele><time>2026-04-11T07:35:44.012Z</time></trkpt><trkpt lat="40.3000436" lon="17.5984174"><ele>3.0</ele><time>2026-04-11T07:35:45.052Z</time></trkpt><trkpt lat="40.3000015" lon="17.5981412"><ele>2.6666666666666665</ele><time>2026-04-11T07:35:46.009Z</time></trkpt><trkpt lat="40.299972" lon="17.597857"><ele>2.333333333333333</ele><time>2026-04-11T07:35:47.013Z</time></trkpt><trkpt lat="40.2999405" lon="17.5975862"><ele>2.0</ele><time>2026-04-11T07:35:48.047Z</time></trkpt><trkpt lat="40.2999066" lon="17.5973103"><ele>2.6666666666666665</ele><time>2026-04-11T07:35:49.01Z</time></trkpt><trkpt lat="40.2998888" lon="17.5970374"><ele>3.333333333333333</ele><time>2026-04-11T07:35:50.019Z</time></trkpt><trkpt lat="40.299864" lon="17.5967578"><ele>4.0</ele><time>2026-04-11T07:35:51.03Z</time></trkpt><trkpt lat="40.2998475" lon="17.5964823"><ele>4.666666666666666</ele><time>2026-04-11T07:35:52.007Z</time></trkpt><trkpt lat="40.2998344" lon="17.5962248"><ele>5.333333333333333</ele><time>2026-04-11T07:35:53.02Z</time></trkpt><trkpt lat="40.2998249" lon="17.5959589"><ele>6.0</ele><time>2026-04-11T07:35:54.021Z</time></trkpt><trkpt lat="40.2998179" lon="17.5956868"><ele>6.333333333333334</ele><time>2026-04-11T07:35:55.021Z</time></trkpt><trkpt lat="40.2998008" lon="17.5954151"><ele>6.666666666666667</ele><time>2026-04-11T07:35:56.015Z</time></trkpt><trkpt lat="40.2997834" lon="17.5951529"><ele>7.0</ele><time>2026-04-11T07:35:57.015Z</time></trkpt><trkpt lat="40.2997534" lon="17.5948859"><ele>5.0</ele><time>2026-04-11T07:35:58.019Z</time></trkpt><trkpt lat="40.2997217" lon="17.5946097"><ele>3.0</ele><time>2026-04-11T07:35:59.019Z</time></trkpt><trkpt lat="40.2996824" lon="17.5943332"><ele>1.0</ele><time>2026-04-11T07:36:00.017Z</time></trkpt><trkpt lat="40.2996361" lon="17.5940576"><ele>1.0</ele><time>2026-04-11T07:36:01.018Z</time></trkpt><trkpt lat="40.2995897" lon="17.5937848"><ele>1.0</ele><time>2026-04-11T07:36:02.05Z</time></trkpt><trkpt lat="40.299542" lon="17.5935072"><ele>1.0</ele><time>2026-04-11T07:36:03.018Z</time></trkpt><trkpt lat="40.2994985" lon="17.5932336"><ele>1.0</ele><time>2026-04-11T07:36:04.024Z</time></trkpt><trkpt lat="40.2994594" lon="17.5929719"><ele>1.0</ele><time>2026-04-11T07:36:05.027Z</time></trkpt><trkpt lat="40.2994082" lon="17.5927107"><ele>1.0</ele><time>2026-04-11T07:36:06.019Z</time></trkpt><trkpt lat="40.2993829" lon="17.5924301"><ele>1.0</ele><time>2026-04-11T07:36:07.02Z</time></trkpt><trkpt lat="40.2993477" lon="17.5921661"><ele>1.0</ele><time>2026-04-11T07:36:08.019Z</time></trkpt><trkpt lat="40.2993064" lon="17.591902"><ele>1.0</ele><time>2026-04-11T07:36:09.017Z</time></trkpt><trkpt lat="40.2992736" lon="17.5916374"><ele>1.6666666666666665</ele><time>2026-04-11T07:36:10.015Z</time></trkpt><trkpt lat="40.299239" lon="17.5913809"><ele>2.3333333333333335</ele><time>2026-04-11T07:36:11.01Z</time></trkpt><trkpt lat="40.299226" lon="17.5911213"><ele>3.0</ele><time>2026-04-11T07:36:12.012Z</time></trkpt><trkpt lat="40.2992039" lon="17.5908618"><ele>3.333333333333333</ele><time>2026-04-11T07:36:13.017Z</time></trkpt><trkpt lat="40.2991845" lon="17.5906038"><ele>3.6666666666666665</ele><time>2026-04-11T07:36:14.055Z</time></trkpt><trkpt lat="40.2991647" lon="17.5903198"><ele>4.0</ele><time>2026-04-11T07:36:15.027Z</time></trkpt><trkpt lat="40.2991461" lon="17.5900567"><ele>4.0</ele><time>2026-04-11T07:36:16.01Z</time></trkpt><trkpt lat="40.2991234" lon="17.5898063"><ele>4.0</ele><time>2026-04-11T07:36:17.046Z</time></trkpt><trkpt lat="40.2991046" lon="17.5895473"><ele>4.0</ele><time>2026-04-11T07:36:18.018Z</time></trkpt><trkpt lat="40.2990892" lon="17.5892955"><ele>4.0</ele><time>2026-04-11T07:36:19.061Z</time></trkpt><trkpt lat="40.2990655" lon="17.5890555"><ele>4.0</ele><time>2026-04-11T07:36:20.014Z</time></trkpt><trkpt lat="40.2990498" lon="17.588804"><ele>4.0</ele><time>2026-04-11T07:36:21.001Z</time></trkpt><trkpt lat="40.2990367" lon="17.5885553"><ele>4.333333333333333</ele><time>2026-04-11T07:36:22.009Z</time></trkpt><trkpt lat="40.2990403" lon="17.5883083"><ele>4.666666666666667</ele><time>2026-04-11T07:36:23.042Z</time></trkpt><trkpt lat="40.2990486" lon="17.5880489"><ele>5.0</ele><time>2026-04-11T07:36:24.024Z</time></trkpt><trkpt lat="40.299062" lon="17.5877974"><ele>5.0</ele><time>2026-04-11T07:36:25.019Z</time></trkpt><trkpt lat="40.2990739" lon="17.5875404"><ele>5.0</ele><time>2026-04-11T07:36:26.013Z</time></trkpt><trkpt lat="40.2990911" lon="17.5872667"><ele>5.0</ele><time>2026-04-11T07:36:27.015Z</time></trkpt><trkpt lat="40.2991088" lon="17.5870015"><ele>3.666666666666667</ele><time>2026-04-11T07:36:28.006Z</time></trkpt><trkpt lat="40.2991268" lon="17.5867343"><ele>2.3333333333333335</ele><time>2026-04-11T07:36:29.015Z</time></trkpt><trkpt lat="40.2991574" lon="17.5864677"><ele>1.0</ele><time>2026-04-11T07:36:30.023Z</time></trkpt><trkpt lat="40.2991716" lon="17.5861898"><ele>2.0</ele><time>2026-04-11T07:36:31.026Z</time></trkpt><trkpt lat="40.2991885" lon="17.5859269"><ele>3.0</ele><time>2026-04-11T07:36:32.02Z</time></trkpt><trkpt lat="40.2992056" lon="17.5856652"><ele>4.0</ele><time>2026-04-11T07:36:33.021Z</time></trkpt><trkpt lat="40.2992244" lon="17.5853996"><ele>4.0</ele><time>2026-04-11T07:36:34.006Z</time></trkpt><trkpt lat="40.2992398" lon="17.5851453"><ele>4.0</ele><time>2026-04-11T07:36:35.017Z</time></trkpt><trkpt lat="40.2992594" lon="17.5848786"><ele>4.0</ele><time>2026-04-11T07:36:36.014Z</time></trkpt><trkpt lat="40.2992689" lon="17.584616"><ele>3.6666666666666665</ele><time>2026-04-11T07:36:37.012Z</time></trkpt><trkpt lat="40.2992875" lon="17.5843493"><ele>3.333333333333333</ele><time>2026-04-11T07:36:38.047Z</time></trkpt><trkpt lat="40.2993051" lon="17.5840858"><ele>3.0</ele><time>2026-04-11T07:36:39.003Z</time></trkpt><trkpt lat="40.2993331" lon="17.5838214"><ele>2.3333333333333335</ele><time>2026-04-11T07:36:40.018Z</time></trkpt><trkpt lat="40.299359" lon="17.5835535"><ele>1.6666666666666665</ele><time>2026-04-11T07:36:41.019Z</time></trkpt><trkpt lat="40.2993793" lon="17.5832916"><ele>1.0</ele><time>2026-04-11T07:36:42.02Z</time></trkpt><trkpt lat="40.299403" lon="17.5830245"><ele>1.0</ele><time>2026-04-11T07:36:43.045Z</time></trkpt><trkpt lat="40.2994246" lon="17.5827617"><ele>1.0</ele><time>2026-04-11T07:36:44.004Z</time></trkpt><trkpt lat="40.2994545" lon="17.582509"><ele>1.0</ele><time>2026-04-11T07:36:45.041Z</time></trkpt><trkpt lat="40.299485" lon="17.5822578"><ele>1.0</ele><time>2026-04-11T07:36:46.018Z</time></trkpt><trkpt lat="40.2995234" lon="17.5820014"><ele>1.0</ele><time>2026-04-11T07:36:47.012Z</time></trkpt><trkpt lat="40.299566" lon="17.5817346"><ele>1.0</ele><time>2026-04-11T07:36:48.048Z</time></trkpt><trkpt lat="40.2996132" lon="17.5814802"><ele>1.0</ele><time>2026-04-11T07:36:49.009Z</time></trkpt><trkpt lat="40.2996618" lon="17.581227"><ele>1.0</ele><time>2026-04-11T07:36:50.017Z</time></trkpt><trkpt lat="40.2997098" lon="17.5809656"><ele>1.0</ele><time>2026-04-11T07:36:51.046Z</time></trkpt><trkpt lat="40.2997593" lon="17.5807264"><ele>1.3333333333333333</ele><time>2026-04-11T07:36:52.045Z</time></trkpt><trkpt lat="40.2998019" lon="17.5804871"><ele>1.6666666666666665</ele><time>2026-04-11T07:36:53.048Z</time></trkpt><trkpt lat="40.2998578" lon="17.5802484"><ele>2.0</ele><time>2026-04-11T07:36:54.044Z</time></trkpt><trkpt lat="40.2999045" lon="17.5799958"><ele>2.6666666666666665</ele><time>2026-04-11T07:36:55.022Z</time></trkpt><trkpt lat="40.2999541" lon="17.5797518"><ele>3.333333333333333</ele><time>2026-04-11T07:36:56.007Z</time></trkpt><trkpt lat="40.3000019" lon="17.5794976"><ele>4.0</ele><time>2026-04-11T07:36:57.014Z</time></trkpt><trkpt lat="40.3000511" lon="17.5792408"><ele>5.0</ele><time>2026-04-11T07:36:58.023Z</time></trkpt><trkpt lat="40.3000897" lon="17.5789919"><ele>6.0</ele><time>2026-04-11T07:36:59.011Z</time></trkpt><trkpt lat="40.3001183" lon="17.5787476"><ele>7.0</ele><time>2026-04-11T07:37:00.014Z</time></trkpt><trkpt lat="40.3001431" lon="17.5784919"><ele>7.666666666666667</ele><time>2026-04-11T07:37:01.02Z</time></trkpt><trkpt lat="40.3001622" lon="17.5782332"><ele>8.333333333333334</ele><time>2026-04-11T07:37:02.018Z</time></trkpt><trkpt lat="40.3001698" lon="17.5779755"><ele>9.0</ele><time>2026-04-11T07:37:03.026Z</time></trkpt><trkpt lat="40.3001805" lon="17.5777141"><ele>9.0</ele><time>2026-04-11T07:37:04.004Z</time></trkpt><trkpt lat="40.3001861" lon="17.5774585"><ele>9.0</ele><time>2026-04-11T07:37:05.014Z</time></trkpt><trkpt lat="40.3001924" lon="17.5771936"><ele>9.0</ele><time>2026-04-11T07:37:06.021Z</time></trkpt><trkpt lat="40.3001982" lon="17.5769321"><ele>8.666666666666666</ele><time>2026-04-11T07:37:07.017Z</time></trkpt><trkpt lat="40.3002" lon="17.5766785"><ele>8.333333333333332</ele><time>2026-04-11T07:37:08.019Z</time></trkpt><trkpt lat="40.300212" lon="17.5764289"><ele>8.0</ele><time>2026-04-11T07:37:09.023Z</time></trkpt><trkpt lat="40.3002182" lon="17.576185"><ele>8.0</ele><time>2026-04-11T07:37:10.018Z</time></trkpt><trkpt lat="40.3002257" lon="17.5759409"><ele>8.0</ele><time>2026-04-11T07:37:11.021Z</time></trkpt><trkpt lat="40.30023" lon="17.5756934"><ele>8.0</ele><time>2026-04-11T07:37:12.017Z</time></trkpt><trkpt lat="40.3002324" lon="17.5754581"><ele>9.0</ele><time>2026-04-11T07:37:13.018Z</time></trkpt><trkpt lat="40.3002207" lon="17.5752105"><ele>10.0</ele><time>2026-04-11T07:37:14.052Z</time></trkpt><trkpt lat="40.3002052" lon="17.5749598"><ele>11.0</ele><time>2026-04-11T07:37:15.005Z</time></trkpt><trkpt lat="40.300167" lon="17.5746958"><ele>10.666666666666666</ele><time>2026-04-11T07:37:16.009Z</time></trkpt><trkpt lat="40.3001148" lon="17.5744508"><ele>10.333333333333334</ele><time>2026-04-11T07:37:17.012Z</time></trkpt><trkpt lat="40.3000581" lon="17.5742047"><ele>10.0</ele><time>2026-04-11T07:37:18.005Z</time></trkpt><trkpt lat="40.2999873" lon="17.5739694"><ele>10.0</ele><time>2026-04-11T07:37:19.012Z</time></trkpt><trkpt lat="40.2998836" lon="17.5737509"><ele>10.0</ele><time>2026-04-11T07:37:20.045Z</time></trkpt><trkpt lat="40.2997927" lon="17.5735163"><ele>10.0</ele><time>2026-04-11T07:37:21.02Z</time></trkpt><trkpt lat="40.2997285" lon="17.5732848"><ele>6.666666666666667</ele><time>2026-04-11T07:37:22.022Z</time></trkpt><trkpt lat="40.2996483" lon="17.5730412"><ele>3.3333333333333335</ele><time>2026-04-11T07:37:23.048Z</time></trkpt><trkpt lat="40.2995983" lon="17.572796"><ele>0.0</ele><time>2026-04-11T07:37:24.046Z</time></trkpt><trkpt lat="40.2995572" lon="17.5725499"><ele>0.0</ele><time>2026-04-11T07:37:25.011Z</time></trkpt><trkpt lat="40.29956" lon="17.5722964"><ele>0.0</ele><time>2026-04-11T07:37:26.018Z</time></trkpt><trkpt lat="40.2995502" lon="17.5720466"><ele>0.0</ele><time>2026-04-11T07:37:27.008Z</time></trkpt><trkpt lat="40.2995692" lon="17.5717831"><ele>0.6666666666666666</ele><time>2026-04-11T07:37:28.017Z</time></trkpt><trkpt lat="40.2995902" lon="17.5715256"><ele>1.3333333333333333</ele><time>2026-04-11T07:37:29.021Z</time></trkpt><trkpt lat="40.2996169" lon="17.5712828"><ele>2.0</ele><time>2026-04-11T07:37:30.014Z</time></trkpt><trkpt lat="40.2996538" lon="17.5710466"><ele>2.333333333333333</ele><time>2026-04-11T07:37:31.015Z</time></trkpt><trkpt lat="40.2996945" lon="17.5708114"><ele>2.6666666666666665</ele><time>2026-04-11T07:37:32.011Z</time></trkpt><trkpt lat="40.2997294" lon="17.5705939"><ele>3.0</ele><time>2026-04-11T07:37:33.014Z</time></trkpt><trkpt lat="40.2997836" lon="17.5703821"><ele>4.333333333333334</ele><time>2026-04-11T07:37:34.051Z</time></trkpt><trkpt lat="40.2998122" lon="17.5701613"><ele>5.666666666666667</ele><time>2026-04-11T07:37:35.022Z</time></trkpt><trkpt lat="40.2998293" lon="17.569959"><ele>7.0</ele><time>2026-04-11T07:37:36.02Z</time></trkpt><trkpt lat="40.2998449" lon="17.5697545"><ele>7.0</ele><time>2026-04-11T07:37:37.017Z</time></trkpt><trkpt lat="40.2998513" lon="17.5695578"><ele>7.0</ele><time>2026-04-11T07:37:38.024Z</time></trkpt><trkpt lat="40.2998632" lon="17.5693621"><ele>7.0</ele><time>2026-04-11T07:37:39.006Z</time></trkpt><trkpt lat="40.299858" lon="17.569185"><ele>7.0</ele><time>2026-04-11T07:37:40.003Z</time></trkpt><trkpt lat="40.2998512" lon="17.5690304"><ele>6.3999999999999995</ele><time>2026-04-11T07:37:41.04Z</time></trkpt><trkpt lat="40.2998401" lon="17.5688693"><ele>5.799999999999999</ele><time>2026-04-11T07:37:42.017Z</time></trkpt><trkpt lat="40.2998136" lon="17.5687389"><ele>5.2</ele><time>2026-04-11T07:37:43.013Z</time></trkpt><trkpt lat="40.2997996" lon="17.5686178"><ele>4.6</ele><time>2026-04-11T07:37:44.014Z</time></trkpt><trkpt lat="40.2997826" lon="17.5685257"><ele>4.0</ele><time>2026-04-11T07:37:45.044Z</time></trkpt><trkpt lat="40.2997716" lon="17.5684402"><ele>3.8000000000000003</ele><time>2026-04-11T07:37:46.002Z</time></trkpt><trkpt lat="40.2998202" lon="17.5683228"><ele>3.6000000000000005</ele><time>2026-04-11T07:37:48.021Z</time></trkpt><trkpt lat="40.2999459" lon="17.5682642"><ele>3.4</ele><time>2026-04-11T07:37:50.046Z</time></trkpt><trkpt lat="40.3000229" lon="17.568267"><ele>3.2</ele><time>2026-04-11T07:37:51.022Z</time></trkpt><trkpt lat="40.3001123" lon="17.5682429"><ele>3.0</ele><time>2026-04-11T07:37:52.024Z</time></trkpt><trkpt lat="40.3002046" lon="17.5682077"><ele>3.0</ele><time>2026-04-11T07:37:53.056Z</time></trkpt><trkpt lat="40.3003185" lon="17.5681898"><ele>3.0</ele><time>2026-04-11T07:37:54.017Z</time></trkpt><trkpt lat="40.300436" lon="17.5681858"><ele>3.0</ele><time>2026-04-11T07:37:55.021Z</time></trkpt><trkpt lat="40.3005432" lon="17.5681608"><ele>3.0</ele><time>2026-04-11T07:37:56.019Z</time></trkpt><trkpt lat="40.3006591" lon="17.5681738"><ele>3.0</ele><time>2026-04-11T07:37:57.02Z</time></trkpt><trkpt lat="40.3007608" lon="17.5681667"><ele>3.0</ele><time>2026-04-11T07:37:58.019Z</time></trkpt><trkpt lat="40.3008459" lon="17.5681421"><ele>3.0</ele><time>2026-04-11T07:37:59.017Z</time></trkpt><trkpt lat="40.3009427" lon="17.5681365"><ele>3.0</ele><time>2026-04-11T07:38:00.02Z</time></trkpt><trkpt lat="40.3010245" lon="17.5681149"><ele>3.0</ele><time>2026-04-11T07:38:01.019Z</time></trkpt><trkpt lat="40.3011138" lon="17.568109"><ele>3.0</ele><time>2026-04-11T07:38:02.076Z</time></trkpt><trkpt lat="40.3011957" lon="17.5680837"><ele>3.0</ele><time>2026-04-11T07:38:03.041Z</time></trkpt><trkpt lat="40.3012867" lon="17.568088"><ele>3.0</ele><time>2026-04-11T07:38:04.044Z</time></trkpt><trkpt lat="40.3013663" lon="17.5680957"><ele>3.0</ele><time>2026-04-11T07:38:05.046Z</time></trkpt><trkpt lat="40.3014307" lon="17.5680884"><ele>3.0</ele><time>2026-04-11T07:38:06.048Z</time></trkpt><trkpt lat="40.3014969" lon="17.5681001"><ele>3.0</ele><time>2026-04-11T07:38:07.011Z</time></trkpt><trkpt lat="40.3015992" lon="17.5680785"><ele>3.1666666666666665</ele><time>2026-04-11T07:38:09.02Z</time></trkpt><trkpt lat="40.3016622" lon="17.5680243"><ele>3.333333333333333</ele><time>2026-04-11T07:38:11.042Z</time></trkpt><trkpt lat="40.3017087" lon="17.5679667"><ele>3.5</ele><time>2026-04-11T07:38:13.002Z</time></trkpt><trkpt lat="40.3016992" lon="17.5678456"><ele>3.6666666666666665</ele><time>2026-04-11T07:38:14.045Z</time></trkpt><trkpt lat="40.3016975" lon="17.5677234"><ele>3.833333333333333</ele><time>2026-04-11T07:38:16.042Z</time></trkpt><trkpt lat="40.3016881" lon="17.5676066"><ele>4.0</ele><time>2026-04-11T07:38:18.044Z</time></trkpt><trkpt lat="40.3016707" lon="17.5675085"><ele>4.0</ele><time>2026-04-11T07:38:22.014Z</time></trkpt><trkpt lat="40.3016707" lon="17.5673933"><ele>4.0</ele><time>2026-04-11T07:38:25.012Z</time></trkpt><trkpt lat="40.3016662" lon="17.5672532"><ele>4.0</ele><time>2026-04-11T07:38:27.014Z</time></trkpt><trkpt lat="40.3016494" lon="17.5670813"><ele>4.0</ele><time>2026-04-11T07:38:29.024Z</time></trkpt><trkpt lat="40.3016411" lon="17.5669905"><ele>4.0</ele><time>2026-04-11T07:38:30.023Z</time></trkpt><trkpt lat="40.3016306" lon="17.5668864"><ele>3.9999999999999996</ele><time>2026-04-11T07:38:32.017Z</time></trkpt><trkpt lat="40.3016245" lon="17.5667905"><ele>4.0</ele><time>2026-04-11T07:38:34.017Z</time></trkpt><trkpt lat="40.3016127" lon="17.5666428"><ele>4.0</ele><time>2026-04-11T07:38:36.009Z</time></trkpt><trkpt lat="40.3016058" lon="17.5665315"><ele>4.0</ele><time>2026-04-11T07:38:37.059Z</time></trkpt><trkpt lat="40.3016059" lon="17.5664377"><ele>3.9999999999999996</ele><time>2026-04-11T07:38:38.023Z</time></trkpt><trkpt lat="40.3016009" lon="17.5663521"><ele>4.0</ele><time>2026-04-11T07:38:39.001Z</time></trkpt><trkpt lat="40.3015736" lon="17.5662625"><ele>3.9999999999999996</ele><time>2026-04-11T07:38:41.012Z</time></trkpt><trkpt lat="40.301669" lon="17.5662166"><ele>4.0</ele><time>2026-04-11T07:38:43.044Z</time></trkpt><trkpt lat="40.3017446" lon="17.5661617"><ele>4.0</ele><time>2026-04-11T07:38:45.01Z</time></trkpt><trkpt lat="40.3018367" lon="17.5662001"><ele>4.0</ele><time>2026-04-11T07:38:46.045Z</time></trkpt><trkpt lat="40.3019164" lon="17.5661988"><ele>3.9999999999999996</ele><time>2026-04-11T07:38:47.032Z</time></trkpt><trkpt lat="40.3019882" lon="17.5662007"><ele>4.0</ele><time>2026-04-11T07:38:48.018Z</time></trkpt><trkpt lat="40.3020596" lon="17.5662083"><ele>4.0</ele><time>2026-04-11T07:38:49Z</time></trkpt><trkpt lat="40.3021363" lon="17.5662091"><ele>3.9999999999999996</ele><time>2026-04-11T07:38:51.017Z</time></trkpt><trkpt lat="40.3022053" lon="17.5661977"><ele>4.0</ele><time>2026-04-11T07:38:53.018Z</time></trkpt><trkpt lat="40.3022977" lon="17.5662019"><ele>4.0</ele><time>2026-04-11T07:38:55.01Z</time></trkpt><trkpt lat="40.3023699" lon="17.5662162"><ele>3.9999999999999996</ele><time>2026-04-11T07:38:56.021Z</time></trkpt><trkpt lat="40.3024429" lon="17.5662202"><ele>4.0</ele><time>2026-04-11T07:38:57.012Z</time></trkpt><trkpt lat="40.3025068" lon="17.5662228"><ele>4.0</ele><time>2026-04-11T07:38:58.013Z</time></trkpt><trkpt lat="40.302608" lon="17.5662396"><ele>4.5</ele><time>2026-04-11T07:39:00.018Z</time></trkpt><trkpt lat="40.3026854" lon="17.5662604"><ele>5.0</ele><time>2026-04-11T07:39:02.044Z</time></trkpt><trkpt lat="40.3027636" lon="17.5662703"><ele>5.5</ele><time>2026-04-11T07:39:04.012Z</time></trkpt><trkpt lat="40.3028524" lon="17.5662614"><ele>6.0</ele><time>2026-04-11T07:39:06.018Z</time></trkpt><trkpt lat="40.3029246" lon="17.5661736"><ele>6.500000000000001</ele><time>2026-04-11T07:39:08.015Z</time></trkpt><trkpt lat="40.3029559" lon="17.5660692"><ele>7.0</ele><time>2026-04-11T07:39:10.014Z</time></trkpt><trkpt lat="40.3029455" lon="17.5659661"><ele>7.333333333333334</ele><time>2026-04-11T07:39:12.051Z</time></trkpt><trkpt lat="40.3029251" lon="17.5658801"><ele>7.666666666666667</ele><time>2026-04-11T07:39:15.014Z</time></trkpt><trkpt lat="40.3029276" lon="17.5657921"><ele>8.0</ele><time>2026-04-11T07:39:25.015Z</time></trkpt><trkpt lat="40.3028711" lon="17.5657372"><ele>8.333333333333334</ele><time>2026-04-11T07:39:28.012Z</time></trkpt><trkpt lat="40.3028005" lon="17.5657222"><ele>8.666666666666666</ele><time>2026-04-11T07:39:29.013Z</time></trkpt><trkpt lat="40.3027064" lon="17.5657129"><ele>9.0</ele><time>2026-04-11T07:39:30.013Z</time></trkpt><trkpt lat="40.3026061" lon="17.5657096"><ele>9.0</ele><time>2026-04-11T07:39:31.013Z</time></trkpt><trkpt lat="40.3024973" lon="17.5657004"><ele>9.0</ele><time>2026-04-11T07:39:32.013Z</time></trkpt><trkpt lat="40.3023051" lon="17.5656941"><ele>9.0</ele><time>2026-04-11T07:39:33.013Z</time></trkpt><trkpt lat="40.3022049" lon="17.5656971"><ele>9.0</ele><time>2026-04-11T07:39:34.003Z</time></trkpt><trkpt lat="40.3021273" lon="17.5656828"><ele>9.166666666666666</ele><time>2026-04-11T07:39:35.008Z</time></trkpt><trkpt lat="40.3020587" lon="17.565669"><ele>9.333333333333334</ele><time>2026-04-11T07:39:36.016Z</time></trkpt><trkpt lat="40.3019702" lon="17.5656254"><ele>9.5</ele><time>2026-04-11T07:39:38.05Z</time></trkpt><trkpt lat="40.3019629" lon="17.5654982"><ele>9.666666666666668</ele><time>2026-04-11T07:39:40.014Z</time></trkpt><trkpt lat="40.3019756" lon="17.5654161"><ele>9.833333333333334</ele><time>2026-04-11T07:39:41.019Z</time></trkpt><trkpt lat="40.3019858" lon="17.5653318"><ele>10.0</ele><time>2026-04-11T07:39:42.045Z</time></trkpt><trkpt lat="40.3019924" lon="17.5651958"><ele>10.0</ele><time>2026-04-11T07:39:44.019Z</time></trkpt><trkpt lat="40.302013" lon="17.5650786"><ele>10.0</ele><time>2026-04-11T07:39:46.015Z</time></trkpt><trkpt lat="40.3020025" lon="17.5649968"><ele>10.0</ele><time>2026-04-11T07:39:48.013Z</time></trkpt><trkpt lat="40.3019383" lon="17.564935"><ele>10.0</ele><time>2026-04-11T07:39:50.008Z</time></trkpt><trkpt lat="40.3018442" lon="17.5649391"><ele>10.0</ele><time>2026-04-11T07:39:52.01Z</time></trkpt><trkpt lat="40.301761" lon="17.5648927"><ele>10.0</ele><time>2026-04-11T07:39:54.014Z</time></trkpt><trkpt lat="40.3017576" lon="17.5647589"><ele>10.0</ele><time>2026-04-11T07:39:56.016Z</time></trkpt><trkpt lat="40.3017585" lon="17.5646614"><ele>10.0</ele><time>2026-04-11T07:39:57.018Z</time></trkpt><trkpt lat="40.3017513" lon="17.5645548"><ele>10.0</ele><time>2026-04-11T07:39:58.015Z</time></trkpt><trkpt lat="40.3017425" lon="17.5644324"><ele>10.0</ele><time>2026-04-11T07:39:59.014Z</time></trkpt><trkpt lat="40.301749" lon="17.5643214"><ele>10.0</ele><time>2026-04-11T07:40:00.019Z</time></trkpt><trkpt lat="40.3017491" lon="17.5642121"><ele>10.0</ele><time>2026-04-11T07:40:01.003Z</time></trkpt><trkpt lat="40.3017378" lon="17.5640595"><ele>10.2</ele><time>2026-04-11T07:40:03.017Z</time></trkpt><trkpt lat="40.3016912" lon="17.563988"><ele>10.4</ele><time>2026-04-11T07:40:05.011Z</time></trkpt><trkpt lat="40.301624" lon="17.5639501"><ele>10.600000000000001</ele><time>2026-04-11T07:40:07.018Z</time></trkpt><trkpt lat="40.3014993" lon="17.5639821"><ele>10.8</ele><time>2026-04-11T07:40:11.008Z</time></trkpt><trkpt lat="40.3013403" lon="17.5640133"><ele>11.0</ele><time>2026-04-11T07:40:12.013Z</time></trkpt><trkpt lat="40.3011532" lon="17.5640116"><ele>11.285714285714286</ele><time>2026-04-11T07:40:13.01Z</time></trkpt><trkpt lat="40.3010808" lon="17.5640052"><ele>11.571428571428571</ele><time>2026-04-11T07:40:14.004Z</time></trkpt><trkpt lat="40.3010162" lon="17.5640198"><ele>11.857142857142858</ele><time>2026-04-11T07:40:15.005Z</time></trkpt><trkpt lat="40.3009375" lon="17.564016"><ele>12.142857142857142</ele><time>2026-04-11T07:40:16.016Z</time></trkpt><trkpt lat="40.3008628" lon="17.5640274"><ele>12.428571428571429</ele><time>2026-04-11T07:40:17.012Z</time></trkpt><trkpt lat="40.3007825" lon="17.5640469"><ele>12.714285714285714</ele><time>2026-04-11T07:40:18.013Z</time></trkpt><trkpt lat="40.3007148" lon="17.5640551"><ele>13.0</ele><time>2026-04-11T07:40:19.013Z</time></trkpt><trkpt lat="40.3006378" lon="17.5640682"><ele>12.499999999999998</ele><time>2026-04-11T07:40:20.05Z</time></trkpt><trkpt lat="40.3005605" lon="17.5640724"><ele>12.0</ele><time>2026-04-11T07:40:21.019Z</time></trkpt><trkpt lat="40.3004901" lon="17.5640966"><ele>11.5</ele><time>2026-04-11T07:40:22.017Z</time></trkpt><trkpt lat="40.3003844" lon="17.5641001"><ele>11.0</ele><time>2026-04-11T07:40:24.013Z</time></trkpt><trkpt lat="40.3003128" lon="17.564118"><ele>10.5</ele><time>2026-04-11T07:40:26.013Z</time></trkpt><trkpt lat="40.3002594" lon="17.5640527"><ele>10.0</ele><time>2026-04-11T07:40:28.015Z</time></trkpt><trkpt lat="40.3002822" lon="17.5639421"><ele>10.0</ele><time>2026-04-11T07:40:29.016Z</time></trkpt><trkpt lat="40.3002717" lon="17.5638481"><ele>10.0</ele><time>2026-04-11T07:40:30.022Z</time></trkpt><trkpt lat="40.3002777" lon="17.563747"><ele>10.0</ele><time>2026-04-11T07:40:31.018Z</time></trkpt><trkpt lat="40.3002764" lon="17.5636507"><ele>10.0</ele><time>2026-04-11T07:40:32.017Z</time></trkpt><trkpt lat="40.3002771" lon="17.5635483"><ele>10.0</ele><time>2026-04-11T07:40:33.041Z</time></trkpt><trkpt lat="40.3002698" lon="17.5634454"><ele>10.0</ele><time>2026-04-11T07:40:34.018Z</time></trkpt><trkpt lat="40.3002744" lon="17.5633428"><ele>10.4</ele><time>2026-04-11T07:40:35.014Z</time></trkpt><trkpt lat="40.3002552" lon="17.563187"><ele>10.8</ele><time>2026-04-11T07:40:37.011Z</time></trkpt><trkpt lat="40.3002456" lon="17.5630448"><ele>11.2</ele><time>2026-04-11T07:40:39.012Z</time></trkpt><trkpt lat="40.3002348" lon="17.5629119"><ele>11.6</ele><time>2026-04-11T07:40:41.014Z</time></trkpt><trkpt lat="40.3002236" lon="17.5627968"><ele>12.0</ele><time>2026-04-11T07:40:43.011Z</time></trkpt><trkpt lat="40.3001963" lon="17.562682"><ele>12.0</ele><time>2026-04-11T07:40:45.013Z</time></trkpt><trkpt lat="40.3001275" lon="17.5626101"><ele>12.0</ele><time>2026-04-11T07:40:47.05Z</time></trkpt><trkpt lat="40.3000312" lon="17.5626118"><ele>12.0</ele><time>2026-04-11T07:40:49.015Z</time></trkpt><trkpt lat="40.2999307" lon="17.562649"><ele>12.0</ele><time>2026-04-11T07:40:51.043Z</time></trkpt><trkpt lat="40.299839" lon="17.5626717"><ele>12.0</ele><time>2026-04-11T07:40:53.012Z</time></trkpt><trkpt lat="40.2997706" lon="17.5626174"><ele>12.0</ele><time>2026-04-11T07:40:55.067Z</time></trkpt><trkpt lat="40.2998044" lon="17.5623996"><ele>12.0</ele><time>2026-04-11T07:40:57.011Z</time></trkpt><trkpt lat="40.2998087" lon="17.5623056"><ele>12.0</ele><time>2026-04-11T07:40:58.001Z</time></trkpt><trkpt lat="40.2998076" lon="17.5621858"><ele>12.0</ele><time>2026-04-11T07:40:59.016Z</time></trkpt><trkpt lat="40.2998059" lon="17.5620685"><ele>12.0</ele><time>2026-04-11T07:41:00.016Z</time></trkpt><trkpt lat="40.2997972" lon="17.5619545"><ele>11.333333333333334</ele><time>2026-04-11T07:41:01.038Z</time></trkpt><trkpt lat="40.2997864" lon="17.5618382"><ele>10.666666666666666</ele><time>2026-04-11T07:41:02.052Z</time></trkpt><trkpt lat="40.2998105" lon="17.5617296"><ele>10.0</ele><time>2026-04-11T07:41:03.045Z</time></trkpt><trkpt lat="40.2997909" lon="17.5616253"><ele>9.333333333333332</ele><time>2026-04-11T07:41:04.045Z</time></trkpt><trkpt lat="40.2997669" lon="17.5615182"><ele>8.666666666666666</ele><time>2026-04-11T07:41:05.018Z</time></trkpt><trkpt lat="40.2997577" lon="17.5614033"><ele>8.0</ele><time>2026-04-11T07:41:06.016Z</time></trkpt><trkpt lat="40.2997477" lon="17.5612921"><ele>7.666666666666666</ele><time>2026-04-11T07:41:07.018Z</time></trkpt><trkpt lat="40.2997401" lon="17.5612009"><ele>7.333333333333333</ele><time>2026-04-11T07:41:08.02Z</time></trkpt><trkpt lat="40.2997191" lon="17.5611019"><ele>7.0</ele><time>2026-04-11T07:41:09.021Z</time></trkpt><trkpt lat="40.2997069" lon="17.5609982"><ele>6.666666666666666</ele><time>2026-04-11T07:41:10.02Z</time></trkpt><trkpt lat="40.2997036" lon="17.5608916"><ele>6.333333333333333</ele><time>2026-04-11T07:41:11.022Z</time></trkpt><trkpt lat="40.299695" lon="17.5607874"><ele>6.0</ele><time>2026-04-11T07:41:12.02Z</time></trkpt><trkpt lat="40.2996879" lon="17.5606866"><ele>6.0</ele><time>2026-04-11T07:41:13.017Z</time></trkpt><trkpt lat="40.2996869" lon="17.5605737"><ele>6.0</ele><time>2026-04-11T07:41:14.047Z</time></trkpt><trkpt lat="40.2996889" lon="17.5604726"><ele>6.0</ele><time>2026-04-11T07:41:15.021Z</time></trkpt><trkpt lat="40.299676" lon="17.5603618"><ele>6.0</ele><time>2026-04-11T07:41:16.021Z</time></trkpt><trkpt lat="40.2996718" lon="17.5602592"><ele>6.0</ele><time>2026-04-11T07:41:17.013Z</time></trkpt><trkpt lat="40.2996889" lon="17.5601498"><ele>6.0</ele><time>2026-04-11T07:41:18.045Z</time></trkpt><trkpt lat="40.2996856" lon="17.560044"><ele>6.0</ele><time>2026-04-11T07:41:19.046Z</time></trkpt><trkpt lat="40.2996779" lon="17.5599366"><ele>6.0</ele><time>2026-04-11T07:41:20.016Z</time></trkpt><trkpt lat="40.2996715" lon="17.5598235"><ele>6.0</ele><time>2026-04-11T07:41:21.005Z</time></trkpt><trkpt lat="40.2996684" lon="17.5596815"><ele>6.0</ele><time>2026-04-11T07:41:22.011Z</time></trkpt><trkpt lat="40.2996599" lon="17.5595545"><ele>6.0</ele><time>2026-04-11T07:41:23.014Z</time></trkpt><trkpt lat="40.2996474" lon="17.5594197"><ele>5.8</ele><time>2026-04-11T07:41:24.038Z</time></trkpt><trkpt lat="40.2996406" lon="17.5592897"><ele>5.6</ele><time>2026-04-11T07:41:25.015Z</time></trkpt><trkpt lat="40.299626" lon="17.5591587"><ele>5.4</ele><time>2026-04-11T07:41:26.017Z</time></trkpt><trkpt lat="40.2996085" lon="17.5590313"><ele>5.2</ele><time>2026-04-11T07:41:27.013Z</time></trkpt><trkpt lat="40.2996048" lon="17.558914"><ele>5.0</ele><time>2026-04-11T07:41:28.016Z</time></trkpt><trkpt lat="40.2995968" lon="17.5587954"><ele>5.0</ele><time>2026-04-11T07:41:29.016Z</time></trkpt><trkpt lat="40.2995809" lon="17.5586838"><ele>5.0</ele><time>2026-04-11T07:41:30.016Z</time></trkpt><trkpt lat="40.2995634" lon="17.5585666"><ele>5.0</ele><time>2026-04-11T07:41:31.01Z</time></trkpt><trkpt lat="40.2995509" lon="17.5584557"><ele>5.0</ele><time>2026-04-11T07:41:32.012Z</time></trkpt><trkpt lat="40.2995446" lon="17.5583233"><ele>5.0</ele><time>2026-04-11T07:41:33.012Z</time></trkpt><trkpt lat="40.2995437" lon="17.5581957"><ele>5.0</ele><time>2026-04-11T07:41:34.049Z</time></trkpt><trkpt lat="40.299546" lon="17.5580635"><ele>5.0</ele><time>2026-04-11T07:41:35.083Z</time></trkpt><trkpt lat="40.2995345" lon="17.557951"><ele>5.0</ele><time>2026-04-11T07:41:36.058Z</time></trkpt><trkpt lat="40.2995251" lon="17.5578236"><ele>5.0</ele><time>2026-04-11T07:41:37.01Z</time></trkpt><trkpt lat="40.299524" lon="17.5577046"><ele>5.0</ele><time>2026-04-11T07:41:38.012Z</time></trkpt><trkpt lat="40.2995157" lon="17.5575828"><ele>5.0</ele><time>2026-04-11T07:41:39.015Z</time></trkpt><trkpt lat="40.2995041" lon="17.5574565"><ele>5.0</ele><time>2026-04-11T07:41:40.066Z</time></trkpt><trkpt lat="40.2994939" lon="17.5573285"><ele>5.0</ele><time>2026-04-11T07:41:41.049Z</time></trkpt><trkpt lat="40.2994848" lon="17.5571879"><ele>5.0</ele><time>2026-04-11T07:41:42.058Z</time></trkpt><trkpt lat="40.2994724" lon="17.5570443"><ele>5.0</ele><time>2026-04-11T07:41:43.045Z</time></trkpt><trkpt lat="40.2994713" lon="17.5568893"><ele>4.8</ele><time>2026-04-11T07:41:44.01Z</time></trkpt><trkpt lat="40.2994588" lon="17.5567562"><ele>4.6</ele><time>2026-04-11T07:41:45.017Z</time></trkpt><trkpt lat="40.2994532" lon="17.556616"><ele>4.4</ele><time>2026-04-11T07:41:46.015Z</time></trkpt><trkpt lat="40.2994387" lon="17.5564788"><ele>4.2</ele><time>2026-04-11T07:41:47.149Z</time></trkpt><trkpt lat="40.2994365" lon="17.5563471"><ele>4.0</ele><time>2026-04-11T07:41:48.054Z</time></trkpt><trkpt lat="40.299432" lon="17.5562218"><ele>3.833333333333333</ele><time>2026-04-11T07:41:49.017Z</time></trkpt><trkpt lat="40.2994298" lon="17.5561066"><ele>3.6666666666666665</ele><time>2026-04-11T07:41:50.015Z</time></trkpt><trkpt lat="40.2994227" lon="17.5560009"><ele>3.5</ele><time>2026-04-11T07:41:51.01Z</time></trkpt><trkpt lat="40.299418" lon="17.5558853"><ele>3.333333333333333</ele><time>2026-04-11T07:41:52.009Z</time></trkpt><trkpt lat="40.2994088" lon="17.5557695"><ele>3.1666666666666665</ele><time>2026-04-11T07:41:53.017Z</time></trkpt><trkpt lat="40.2993985" lon="17.5556446"><ele>3.0</ele><time>2026-04-11T07:41:54.053Z</time></trkpt><trkpt lat="40.2993969" lon="17.5555189"><ele>3.0</ele><time>2026-04-11T07:41:55.013Z</time></trkpt><trkpt lat="40.2993786" lon="17.5553846"><ele>3.0</ele><time>2026-04-11T07:41:56.017Z</time></trkpt><trkpt lat="40.2993703" lon="17.5552666"><ele>3.0</ele><time>2026-04-11T07:41:57.047Z</time></trkpt><trkpt lat="40.2993621" lon="17.555146"><ele>3.0</ele><time>2026-04-11T07:41:58.001Z</time></trkpt><trkpt lat="40.2993618" lon="17.555024"><ele>3.0</ele><time>2026-04-11T07:41:59.015Z</time></trkpt><trkpt lat="40.2993596" lon="17.5549081"><ele>3.0</ele><time>2026-04-11T07:42:00.022Z</time></trkpt><trkpt lat="40.2993595" lon="17.5547837"><ele>3.0</ele><time>2026-04-11T07:42:01.018Z</time></trkpt><trkpt lat="40.299352" lon="17.5546621"><ele>3.0</ele><time>2026-04-11T07:42:02.017Z</time></trkpt><trkpt lat="40.2993444" lon="17.5545392"><ele>3.0</ele><time>2026-04-11T07:42:03.013Z</time></trkpt><trkpt lat="40.2993507" lon="17.554411"><ele>3.0</ele><time>2026-04-11T07:42:04.021Z</time></trkpt><trkpt lat="40.2993556" lon="17.5542787"><ele>3.0</ele><time>2026-04-11T07:42:05.016Z</time></trkpt><trkpt lat="40.2993527" lon="17.5541468"><ele>3.0</ele><time>2026-04-11T07:42:06.021Z</time></trkpt><trkpt lat="40.2993403" lon="17.5540342"><ele>3.0</ele><time>2026-04-11T07:42:07.015Z</time></trkpt><trkpt lat="40.2993525" lon="17.5539137"><ele>3.0</ele><time>2026-04-11T07:42:08.019Z</time></trkpt><trkpt lat="40.2993673" lon="17.5537918"><ele>3.0</ele><time>2026-04-11T07:42:09.018Z</time></trkpt><trkpt lat="40.299381" lon="17.5536854"><ele>3.1666666666666665</ele><time>2026-04-11T07:42:10.011Z</time></trkpt><trkpt lat="40.2993944" lon="17.553583"><ele>3.333333333333333</ele><time>2026-04-11T07:42:11.048Z</time></trkpt><trkpt lat="40.2994116" lon="17.5534693"><ele>3.5</ele><time>2026-04-11T07:42:12.042Z</time></trkpt><trkpt lat="40.2994274" lon="17.5533601"><ele>3.6666666666666665</ele><time>2026-04-11T07:42:13.001Z</time></trkpt><trkpt lat="40.2994484" lon="17.5532408"><ele>3.833333333333333</ele><time>2026-04-11T07:42:14.055Z</time></trkpt><trkpt lat="40.2994721" lon="17.553123"><ele>4.0</ele><time>2026-04-11T07:42:15.017Z</time></trkpt><trkpt lat="40.2994913" lon="17.5530025"><ele>4.0</ele><time>2026-04-11T07:42:16.007Z</time></trkpt><trkpt lat="40.2995144" lon="17.552889"><ele>4.0</ele><time>2026-04-11T07:42:17.015Z</time></trkpt><trkpt lat="40.2995223" lon="17.5527778"><ele>4.0</ele><time>2026-04-11T07:42:18.016Z</time></trkpt><trkpt lat="40.2995463" lon="17.5526676"><ele>4.0</ele><time>2026-04-11T07:42:19.001Z</time></trkpt><trkpt lat="40.2995621" lon="17.5525278"><ele>4.0</ele><time>2026-04-11T07:42:20.014Z</time></trkpt><trkpt lat="40.2995864" lon="17.5524057"><ele>5.0</ele><time>2026-04-11T07:42:21.02Z</time></trkpt><trkpt lat="40.2996059" lon="17.5522692"><ele>6.0</ele><time>2026-04-11T07:42:22.022Z</time></trkpt><trkpt lat="40.2996311" lon="17.5521348"><ele>7.0</ele><time>2026-04-11T07:42:23.004Z</time></trkpt><trkpt lat="40.2996588" lon="17.5519799"><ele>8.0</ele><time>2026-04-11T07:42:24.007Z</time></trkpt><trkpt lat="40.2996786" lon="17.5518178"><ele>7.75</ele><time>2026-04-11T07:42:25.009Z</time></trkpt><trkpt lat="40.2997131" lon="17.5516541"><ele>7.5</ele><time>2026-04-11T07:42:26.013Z</time></trkpt><trkpt lat="40.2997334" lon="17.5514906"><ele>7.25</ele><time>2026-04-11T07:42:27.01Z</time></trkpt><trkpt lat="40.2997687" lon="17.551332"><ele>7.0</ele><time>2026-04-11T07:42:28.009Z</time></trkpt><trkpt lat="40.2998163" lon="17.551172"><ele>7.0</ele><time>2026-04-11T07:42:29.015Z</time></trkpt><trkpt lat="40.2998448" lon="17.5510104"><ele>7.0</ele><time>2026-04-11T07:42:30.011Z</time></trkpt><trkpt lat="40.2998756" lon="17.5508588"><ele>7.0</ele><time>2026-04-11T07:42:31.012Z</time></trkpt><trkpt lat="40.2998957" lon="17.550708"><ele>7.0</ele><time>2026-04-11T07:42:32.013Z</time></trkpt><trkpt lat="40.2999217" lon="17.5505578"><ele>7.0</ele><time>2026-04-11T07:42:33.014Z</time></trkpt><trkpt lat="40.2999529" lon="17.5504079"><ele>7.0</ele><time>2026-04-11T07:42:34.017Z</time></trkpt><trkpt lat="40.2999723" lon="17.5502529"><ele>7.0</ele><time>2026-04-11T07:42:35.007Z</time></trkpt><trkpt lat="40.2999959" lon="17.5500926"><ele>7.0</ele><time>2026-04-11T07:42:36.013Z</time></trkpt><trkpt lat="40.3000065" lon="17.5499239"><ele>7.5</ele><time>2026-04-11T07:42:37.01Z</time></trkpt><trkpt lat="40.300019" lon="17.5497557"><ele>8.0</ele><time>2026-04-11T07:42:38.016Z</time></trkpt><trkpt lat="40.3000328" lon="17.5495895"><ele>8.5</ele><time>2026-04-11T07:42:39.048Z</time></trkpt><trkpt lat="40.3000216" lon="17.5494177"><ele>9.0</ele><time>2026-04-11T07:42:40.017Z</time></trkpt><trkpt lat="40.3000309" lon="17.5492523"><ele>9.25</ele><time>2026-04-11T07:42:41.017Z</time></trkpt><trkpt lat="40.3000263" lon="17.5490943"><ele>9.5</ele><time>2026-04-11T07:42:42.012Z</time></trkpt><trkpt lat="40.3000183" lon="17.5489373"><ele>9.75</ele><time>2026-04-11T07:42:43.01Z</time></trkpt><trkpt lat="40.3000255" lon="17.5487976"><ele>10.0</ele><time>2026-04-11T07:42:44.008Z</time></trkpt><trkpt lat="40.3000301" lon="17.5486581"><ele>10.2</ele><time>2026-04-11T07:42:45.01Z</time></trkpt><trkpt lat="40.3000316" lon="17.5485256"><ele>10.4</ele><time>2026-04-11T07:42:46.018Z</time></trkpt><trkpt lat="40.3000267" lon="17.5484044"><ele>10.600000000000001</ele><time>2026-04-11T07:42:47.016Z</time></trkpt><trkpt lat="40.3000258" lon="17.5482638"><ele>10.8</ele><time>2026-04-11T07:42:48.013Z</time></trkpt><trkpt lat="40.3000266" lon="17.5481024"><ele>11.0</ele><time>2026-04-11T07:42:49.018Z</time></trkpt><trkpt lat="40.300037" lon="17.5479022"><ele>11.0</ele><time>2026-04-11T07:42:50.018Z</time></trkpt><trkpt lat="40.3000435" lon="17.5476883"><ele>11.0</ele><time>2026-04-11T07:42:51.016Z</time></trkpt><trkpt lat="40.300043" lon="17.5474512"><ele>11.0</ele><time>2026-04-11T07:42:52.011Z</time></trkpt><trkpt lat="40.3000462" lon="17.5472154"><ele>10.666666666666666</ele><time>2026-04-11T07:42:53.008Z</time></trkpt><trkpt lat="40.3000521" lon="17.5469734"><ele>10.333333333333334</ele><time>2026-04-11T07:42:54.008Z</time></trkpt><trkpt lat="40.3000597" lon="17.5467298"><ele>10.0</ele><time>2026-04-11T07:42:55.014Z</time></trkpt><trkpt lat="40.3000674" lon="17.5464837"><ele>10.0</ele><time>2026-04-11T07:42:56.016Z</time></trkpt><trkpt lat="40.3000682" lon="17.5462419"><ele>10.0</ele><time>2026-04-11T07:42:57.012Z</time></trkpt><trkpt lat="40.3000749" lon="17.5460093"><ele>10.0</ele><time>2026-04-11T07:42:58.016Z</time></trkpt><trkpt lat="40.3000791" lon="17.5457843"><ele>9.333333333333334</ele><time>2026-04-11T07:42:59.011Z</time></trkpt><trkpt lat="40.3000792" lon="17.5455757"><ele>8.666666666666666</ele><time>2026-04-11T07:43:00.012Z</time></trkpt><trkpt lat="40.300075" lon="17.545378"><ele>8.0</ele><time>2026-04-11T07:43:01.015Z</time></trkpt><trkpt lat="40.3000642" lon="17.5451793"><ele>6.666666666666666</ele><time>2026-04-11T07:43:02.012Z</time></trkpt><trkpt lat="40.3000424" lon="17.5449794"><ele>5.333333333333333</ele><time>2026-04-11T07:43:03.016Z</time></trkpt><trkpt lat="40.2999942" lon="17.5447861"><ele>4.0</ele><time>2026-04-11T07:43:04.011Z</time></trkpt><trkpt lat="40.2999309" lon="17.5446"><ele>4.0</ele><time>2026-04-11T07:43:05.015Z</time></trkpt><trkpt lat="40.2998591" lon="17.5444191"><ele>4.0</ele><time>2026-04-11T07:43:06.012Z</time></trkpt><trkpt lat="40.2997554" lon="17.5442509"><ele>4.0</ele><time>2026-04-11T07:43:07.013Z</time></trkpt><trkpt lat="40.2996368" lon="17.5440954"><ele>4.666666666666666</ele><time>2026-04-11T07:43:08.021Z</time></trkpt><trkpt lat="40.2995158" lon="17.5439392"><ele>5.333333333333333</ele><time>2026-04-11T07:43:09.052Z</time></trkpt><trkpt lat="40.2993927" lon="17.5437783"><ele>6.0</ele><time>2026-04-11T07:43:10.057Z</time></trkpt><trkpt lat="40.299269" lon="17.5436109"><ele>6.333333333333334</ele><time>2026-04-11T07:43:11.044Z</time></trkpt><trkpt lat="40.2991425" lon="17.543449"><ele>6.666666666666667</ele><time>2026-04-11T07:43:12.052Z</time></trkpt><trkpt lat="40.2990116" lon="17.5432784"><ele>7.0</ele><time>2026-04-11T07:43:13.014Z</time></trkpt><trkpt lat="40.2988873" lon="17.5431078"><ele>7.333333333333334</ele><time>2026-04-11T07:43:14.015Z</time></trkpt><trkpt lat="40.2987635" lon="17.5429335"><ele>7.666666666666666</ele><time>2026-04-11T07:43:15.105Z</time></trkpt><trkpt lat="40.2986437" lon="17.5427608"><ele>8.0</ele><time>2026-04-11T07:43:16.015Z</time></trkpt><trkpt lat="40.2985336" lon="17.5425878"><ele>7.0</ele><time>2026-04-11T07:43:17.049Z</time></trkpt><trkpt lat="40.2984305" lon="17.5424115"><ele>6.0</ele><time>2026-04-11T07:43:18.007Z</time></trkpt><trkpt lat="40.2983483" lon="17.5422227"><ele>5.0</ele><time>2026-04-11T07:43:19.013Z</time></trkpt><trkpt lat="40.2982693" lon="17.5420311"><ele>5.0</ele><time>2026-04-11T07:43:20.013Z</time></trkpt><trkpt lat="40.2981933" lon="17.5418336"><ele>5.0</ele><time>2026-04-11T07:43:21.01Z</time></trkpt><trkpt lat="40.2981359" lon="17.5416201"><ele>5.0</ele><time>2026-04-11T07:43:22.046Z</time></trkpt><trkpt lat="40.2980823" lon="17.5414048"><ele>4.666666666666667</ele><time>2026-04-11T07:43:23.005Z</time></trkpt><trkpt lat="40.2980423" lon="17.5411773"><ele>4.333333333333333</ele><time>2026-04-11T07:43:24.07Z</time></trkpt><trkpt lat="40.2979979" lon="17.5409486"><ele>4.0</ele><time>2026-04-11T07:43:25.051Z</time></trkpt><trkpt lat="40.2979489" lon="17.5407331"><ele>4.0</ele><time>2026-04-11T07:43:26.051Z</time></trkpt><trkpt lat="40.2979125" lon="17.5405099"><ele>4.0</ele><time>2026-04-11T07:43:27.019Z</time></trkpt><trkpt lat="40.2978628" lon="17.5402823"><ele>4.0</ele><time>2026-04-11T07:43:28.019Z</time></trkpt><trkpt lat="40.2978333" lon="17.5400414"><ele>4.0</ele><time>2026-04-11T07:43:29.018Z</time></trkpt><trkpt lat="40.2977906" lon="17.5398076"><ele>4.0</ele><time>2026-04-11T07:43:30.015Z</time></trkpt><trkpt lat="40.2977592" lon="17.5395634"><ele>4.0</ele><time>2026-04-11T07:43:31.012Z</time></trkpt><trkpt lat="40.297712" lon="17.5393228"><ele>3.6666666666666665</ele><time>2026-04-11T07:43:32.01Z</time></trkpt><trkpt lat="40.2976661" lon="17.5390702"><ele>3.333333333333333</ele><time>2026-04-11T07:43:33.016Z</time></trkpt><trkpt lat="40.2976176" lon="17.5388216"><ele>3.0</ele><time>2026-04-11T07:43:34.06Z</time></trkpt><trkpt lat="40.2975681" lon="17.538567"><ele>3.0</ele><time>2026-04-11T07:43:35.015Z</time></trkpt><trkpt lat="40.297521" lon="17.5383089"><ele>3.0</ele><time>2026-04-11T07:43:36.006Z</time></trkpt><trkpt lat="40.297473" lon="17.538042"><ele>3.0</ele><time>2026-04-11T07:43:37.041Z</time></trkpt><trkpt lat="40.2974167" lon="17.5377853"><ele>3.0</ele><time>2026-04-11T07:43:38.004Z</time></trkpt><trkpt lat="40.297344" lon="17.5375108"><ele>3.0</ele><time>2026-04-11T07:43:39.011Z</time></trkpt><trkpt lat="40.2972738" lon="17.5372502"><ele>3.0</ele><time>2026-04-11T07:43:40.016Z</time></trkpt><trkpt lat="40.2972092" lon="17.5369891"><ele>2.3333333333333335</ele><time>2026-04-11T07:43:41.017Z</time></trkpt><trkpt lat="40.2971393" lon="17.5367311"><ele>1.6666666666666665</ele><time>2026-04-11T07:43:42.047Z</time></trkpt><trkpt lat="40.2970763" lon="17.536478"><ele>1.0</ele><time>2026-04-11T07:43:43.043Z</time></trkpt><trkpt lat="40.2970144" lon="17.5362375"><ele>1.3333333333333333</ele><time>2026-04-11T07:43:44.044Z</time></trkpt><trkpt lat="40.2969542" lon="17.5360018"><ele>1.6666666666666665</ele><time>2026-04-11T07:43:45.011Z</time></trkpt><trkpt lat="40.2968949" lon="17.535768"><ele>2.0</ele><time>2026-04-11T07:43:46.016Z</time></trkpt><trkpt lat="40.2968345" lon="17.5355292"><ele>2.6666666666666665</ele><time>2026-04-11T07:43:47.022Z</time></trkpt><trkpt lat="40.2967745" lon="17.5352913"><ele>3.333333333333333</ele><time>2026-04-11T07:43:48.053Z</time></trkpt><trkpt lat="40.2967042" lon="17.5350483"><ele>4.0</ele><time>2026-04-11T07:43:49.013Z</time></trkpt><trkpt lat="40.2966466" lon="17.5348049"><ele>4.0</ele><time>2026-04-11T07:43:50.011Z</time></trkpt><trkpt lat="40.2965852" lon="17.534564"><ele>4.0</ele><time>2026-04-11T07:43:51Z</time></trkpt><trkpt lat="40.2965389" lon="17.5343035"><ele>4.0</ele><time>2026-04-11T07:43:52.01Z</time></trkpt><trkpt lat="40.2964784" lon="17.5340641"><ele>3.0</ele><time>2026-04-11T07:43:53.047Z</time></trkpt><trkpt lat="40.2964195" lon="17.5338274"><ele>2.0</ele><time>2026-04-11T07:43:54.002Z</time></trkpt><trkpt lat="40.2963717" lon="17.5335777"><ele>1.0</ele><time>2026-04-11T07:43:55.008Z</time></trkpt><trkpt lat="40.296314" lon="17.5333676"><ele>1.0</ele><time>2026-04-11T07:43:56.015Z</time></trkpt><trkpt lat="40.2962555" lon="17.5331586"><ele>1.0</ele><time>2026-04-11T07:43:57.013Z</time></trkpt><trkpt lat="40.2962023" lon="17.5329484"><ele>1.0</ele><time>2026-04-11T07:43:58.02Z</time></trkpt><trkpt lat="40.2961425" lon="17.5327271"><ele>1.3333333333333333</ele><time>2026-04-11T07:43:59.017Z</time></trkpt><trkpt lat="40.296084" lon="17.5325101"><ele>1.6666666666666665</ele><time>2026-04-11T07:44:00.018Z</time></trkpt><trkpt lat="40.296037" lon="17.5322735"><ele>2.0</ele><time>2026-04-11T07:44:01.018Z</time></trkpt><trkpt lat="40.2959765" lon="17.5320449"><ele>2.6666666666666665</ele><time>2026-04-11T07:44:02.015Z</time></trkpt><trkpt lat="40.2959241" lon="17.5318089"><ele>3.333333333333333</ele><time>2026-04-11T07:44:03.013Z</time></trkpt><trkpt lat="40.2958849" lon="17.5315729"><ele>4.0</ele><time>2026-04-11T07:44:04.021Z</time></trkpt><trkpt lat="40.2958498" lon="17.5313346"><ele>3.6666666666666665</ele><time>2026-04-11T07:44:05.005Z</time></trkpt><trkpt lat="40.2958431" lon="17.531077"><ele>3.333333333333333</ele><time>2026-04-11T07:44:06.013Z</time></trkpt><trkpt lat="40.2958288" lon="17.5308418"><ele>3.0</ele><time>2026-04-11T07:44:07.022Z</time></trkpt><trkpt lat="40.2958194" lon="17.5305803"><ele>3.333333333333333</ele><time>2026-04-11T07:44:08.021Z</time></trkpt><trkpt lat="40.2958229" lon="17.5303194"><ele>3.6666666666666665</ele><time>2026-04-11T07:44:09.022Z</time></trkpt><trkpt lat="40.2958181" lon="17.5300604"><ele>4.0</ele><time>2026-04-11T07:44:10.015Z</time></trkpt><trkpt lat="40.2958129" lon="17.5298327"><ele>4.0</ele><time>2026-04-11T07:44:11.025Z</time></trkpt><trkpt lat="40.2958085" lon="17.5295933"><ele>4.0</ele><time>2026-04-11T07:44:12.008Z</time></trkpt><trkpt lat="40.2958031" lon="17.5293864"><ele>4.0</ele><time>2026-04-11T07:44:13.017Z</time></trkpt><trkpt lat="40.2957981" lon="17.5291832"><ele>4.0</ele><time>2026-04-11T07:44:14.028Z</time></trkpt><trkpt lat="40.2958024" lon="17.5289702"><ele>4.0</ele><time>2026-04-11T07:44:15.018Z</time></trkpt><trkpt lat="40.2958101" lon="17.5287524"><ele>4.0</ele><time>2026-04-11T07:44:16.02Z</time></trkpt><trkpt lat="40.2958081" lon="17.5285429"><ele>4.333333333333333</ele><time>2026-04-11T07:44:17.019Z</time></trkpt><trkpt lat="40.295809" lon="17.5283454"><ele>4.666666666666667</ele><time>2026-04-11T07:44:18.021Z</time></trkpt><trkpt lat="40.2958101" lon="17.5281431"><ele>5.0</ele><time>2026-04-11T07:44:19.045Z</time></trkpt><trkpt lat="40.2958091" lon="17.5279397"><ele>4.333333333333334</ele><time>2026-04-11T07:44:20.001Z</time></trkpt><trkpt lat="40.295807" lon="17.5277247"><ele>3.666666666666667</ele><time>2026-04-11T07:44:21.013Z</time></trkpt><trkpt lat="40.2958024" lon="17.5275138"><ele>3.0</ele><time>2026-04-11T07:44:22.005Z</time></trkpt><trkpt lat="40.2958102" lon="17.5273063"><ele>3.0</ele><time>2026-04-11T07:44:23.056Z</time></trkpt><trkpt lat="40.2958111" lon="17.5270932"><ele>3.0</ele><time>2026-04-11T07:44:24.023Z</time></trkpt><trkpt lat="40.2958076" lon="17.5268701"><ele>3.0</ele><time>2026-04-11T07:44:25.016Z</time></trkpt><trkpt lat="40.2958064" lon="17.5266399"><ele>3.0</ele><time>2026-04-11T07:44:26.05Z</time></trkpt><trkpt lat="40.2957866" lon="17.5263976"><ele>3.0</ele><time>2026-04-11T07:44:27.017Z</time></trkpt><trkpt lat="40.2957756" lon="17.5261717"><ele>3.0</ele><time>2026-04-11T07:44:28.047Z</time></trkpt><trkpt lat="40.2957683" lon="17.5259411"><ele>2.6666666666666665</ele><time>2026-04-11T07:44:29.016Z</time></trkpt><trkpt lat="40.2957653" lon="17.5257073"><ele>2.333333333333333</ele><time>2026-04-11T07:44:30.002Z</time></trkpt><trkpt lat="40.2957587" lon="17.5254842"><ele>2.0</ele><time>2026-04-11T07:44:31.012Z</time></trkpt><trkpt lat="40.2957572" lon="17.5252393"><ele>2.6666666666666665</ele><time>2026-04-11T07:44:32.023Z</time></trkpt><trkpt lat="40.2957535" lon="17.5250017"><ele>3.333333333333333</ele><time>2026-04-11T07:44:33.005Z</time></trkpt><trkpt lat="40.2957662" lon="17.5247665"><ele>4.0</ele><time>2026-04-11T07:44:34.013Z</time></trkpt><trkpt lat="40.2957621" lon="17.524528"><ele>4.666666666666666</ele><time>2026-04-11T07:44:35.018Z</time></trkpt><trkpt lat="40.295757" lon="17.5242956"><ele>5.333333333333333</ele><time>2026-04-11T07:44:36.019Z</time></trkpt><trkpt lat="40.2957641" lon="17.5240579"><ele>6.0</ele><time>2026-04-11T07:44:37.041Z</time></trkpt><trkpt lat="40.2957599" lon="17.5238367"><ele>5.666666666666667</ele><time>2026-04-11T07:44:38.047Z</time></trkpt><trkpt lat="40.2957554" lon="17.5236092"><ele>5.333333333333334</ele><time>2026-04-11T07:44:39.002Z</time></trkpt><trkpt lat="40.295741" lon="17.5233876"><ele>5.0</ele><time>2026-04-11T07:44:40.038Z</time></trkpt><trkpt lat="40.2957373" lon="17.5231555"><ele>5.0</ele><time>2026-04-11T07:44:41.049Z</time></trkpt><trkpt lat="40.2957422" lon="17.5229234"><ele>5.0</ele><time>2026-04-11T07:44:42.049Z</time></trkpt><trkpt lat="40.2957355" lon="17.5226962"><ele>5.0</ele><time>2026-04-11T07:44:43.046Z</time></trkpt><trkpt lat="40.2957321" lon="17.5224687"><ele>4.666666666666667</ele><time>2026-04-11T07:44:44.003Z</time></trkpt><trkpt lat="40.2957313" lon="17.5222229"><ele>4.333333333333333</ele><time>2026-04-11T07:44:45.009Z</time></trkpt><trkpt lat="40.2957335" lon="17.5219995"><ele>4.0</ele><time>2026-04-11T07:44:46.043Z</time></trkpt><trkpt lat="40.2957284" lon="17.5217606"><ele>4.0</ele><time>2026-04-11T07:44:47.014Z</time></trkpt><trkpt lat="40.2957225" lon="17.5215099"><ele>4.0</ele><time>2026-04-11T07:44:48.017Z</time></trkpt><trkpt lat="40.2957181" lon="17.5212621"><ele>4.0</ele><time>2026-04-11T07:44:49.04Z</time></trkpt><trkpt lat="40.2957147" lon="17.521016"><ele>4.333333333333333</ele><time>2026-04-11T07:44:50.005Z</time></trkpt><trkpt lat="40.2957092" lon="17.5207556"><ele>4.666666666666667</ele><time>2026-04-11T07:44:51.02Z</time></trkpt><trkpt lat="40.2957046" lon="17.5205083"><ele>5.0</ele><time>2026-04-11T07:44:52.012Z</time></trkpt><trkpt lat="40.2956958" lon="17.5202596"><ele>5.333333333333334</ele><time>2026-04-11T07:44:53.012Z</time></trkpt><trkpt lat="40.2956792" lon="17.5200084"><ele>5.666666666666667</ele><time>2026-04-11T07:44:54.015Z</time></trkpt><trkpt lat="40.2956688" lon="17.5197574"><ele>6.0</ele><time>2026-04-11T07:44:55.002Z</time></trkpt><trkpt lat="40.2956548" lon="17.5195124"><ele>6.333333333333334</ele><time>2026-04-11T07:44:56.044Z</time></trkpt><trkpt lat="40.2956375" lon="17.5192579"><ele>6.666666666666667</ele><time>2026-04-11T07:44:57.008Z</time></trkpt><trkpt lat="40.2956133" lon="17.5190019"><ele>7.0</ele><time>2026-04-11T07:44:58.011Z</time></trkpt><trkpt lat="40.2955914" lon="17.5187458"><ele>5.666666666666667</ele><time>2026-04-11T07:44:59.006Z</time></trkpt><trkpt lat="40.2955493" lon="17.5184755"><ele>4.333333333333334</ele><time>2026-04-11T07:45:00.013Z</time></trkpt><trkpt lat="40.2955253" lon="17.5182144"><ele>3.0</ele><time>2026-04-11T07:45:01.018Z</time></trkpt><trkpt lat="40.2955048" lon="17.5179532"><ele>2.6666666666666665</ele><time>2026-04-11T07:45:02.02Z</time></trkpt><trkpt lat="40.295482" lon="17.5176921"><ele>2.333333333333333</ele><time>2026-04-11T07:45:03.019Z</time></trkpt><trkpt lat="40.2954439" lon="17.5174381"><ele>2.0</ele><time>2026-04-11T07:45:04.024Z</time></trkpt><trkpt lat="40.2954147" lon="17.5171822"><ele>2.0</ele><time>2026-04-11T07:45:05.02Z</time></trkpt><trkpt lat="40.2954076" lon="17.516917"><ele>2.0</ele><time>2026-04-11T07:45:06.013Z</time></trkpt><trkpt lat="40.2953836" lon="17.5166741"><ele>2.0</ele><time>2026-04-11T07:45:07.001Z</time></trkpt><trkpt lat="40.2953582" lon="17.5164438"><ele>2.6666666666666665</ele><time>2026-04-11T07:45:08.016Z</time></trkpt><trkpt lat="40.2953384" lon="17.5162185"><ele>3.333333333333333</ele><time>2026-04-11T07:45:09.022Z</time></trkpt><trkpt lat="40.2953321" lon="17.5159774"><ele>4.0</ele><time>2026-04-11T07:45:10.099Z</time></trkpt><trkpt lat="40.2953127" lon="17.5157445"><ele>4.0</ele><time>2026-04-11T07:45:11.006Z</time></trkpt><trkpt lat="40.2952931" lon="17.515514"><ele>4.0</ele><time>2026-04-11T07:45:12.008Z</time></trkpt><trkpt lat="40.2952645" lon="17.5152821"><ele>4.0</ele><time>2026-04-11T07:45:13.043Z</time></trkpt><trkpt lat="40.2952417" lon="17.5150525"><ele>4.0</ele><time>2026-04-11T07:45:14.004Z</time></trkpt><trkpt lat="40.2952345" lon="17.5148131"><ele>4.0</ele><time>2026-04-11T07:45:15.01Z</time></trkpt><trkpt lat="40.2952201" lon="17.5145929"><ele>4.0</ele><time>2026-04-11T07:45:16.056Z</time></trkpt><trkpt lat="40.2951958" lon="17.5143685"><ele>4.0</ele><time>2026-04-11T07:45:17.02Z</time></trkpt><trkpt lat="40.2951773" lon="17.5141382"><ele>4.0</ele><time>2026-04-11T07:45:18.003Z</time></trkpt><trkpt lat="40.2951827" lon="17.5139089"><ele>4.0</ele><time>2026-04-11T07:45:19.013Z</time></trkpt><trkpt lat="40.2951725" lon="17.5136727"><ele>3.333333333333333</ele><time>2026-04-11T07:45:20.102Z</time></trkpt><trkpt lat="40.2951682" lon="17.513433"><ele>2.6666666666666665</ele><time>2026-04-11T07:45:21.003Z</time></trkpt><trkpt lat="40.2951698" lon="17.5131976"><ele>2.0</ele><time>2026-04-11T07:45:22.017Z</time></trkpt><trkpt lat="40.2951722" lon="17.5129505"><ele>2.333333333333333</ele><time>2026-04-11T07:45:23.015Z</time></trkpt><trkpt lat="40.2951832" lon="17.5126957"><ele>2.6666666666666665</ele><time>2026-04-11T07:45:24.016Z</time></trkpt><trkpt lat="40.2951972" lon="17.5124306"><ele>3.0</ele><time>2026-04-11T07:45:25.039Z</time></trkpt><trkpt lat="40.2952091" lon="17.5121748"><ele>2.3333333333333335</ele><time>2026-04-11T07:45:26.009Z</time></trkpt><trkpt lat="40.2952081" lon="17.5119247"><ele>1.6666666666666665</ele><time>2026-04-11T07:45:27.016Z</time></trkpt><trkpt lat="40.29522" lon="17.5116782"><ele>1.0</ele><time>2026-04-11T07:45:28.024Z</time></trkpt><trkpt lat="40.2952191" lon="17.5114422"><ele>0.6666666666666666</ele><time>2026-04-11T07:45:29.019Z</time></trkpt><trkpt lat="40.2952348" lon="17.511201"><ele>0.3333333333333333</ele><time>2026-04-11T07:45:30.015Z</time></trkpt><trkpt lat="40.2952321" lon="17.5109816"><ele>0.0</ele><time>2026-04-11T07:45:31.016Z</time></trkpt><trkpt lat="40.2952415" lon="17.5107556"><ele>0.0</ele><time>2026-04-11T07:45:32.015Z</time></trkpt><trkpt lat="40.2952617" lon="17.51053"><ele>0.0</ele><time>2026-04-11T07:45:33.013Z</time></trkpt><trkpt lat="40.2952755" lon="17.5103054"><ele>0.0</ele><time>2026-04-11T07:45:34.005Z</time></trkpt><trkpt lat="40.2953084" lon="17.5100889"><ele>0.3333333333333333</ele><time>2026-04-11T07:45:35.018Z</time></trkpt><trkpt lat="40.295349" lon="17.5098834"><ele>0.6666666666666666</ele><time>2026-04-11T07:45:36.022Z</time></trkpt><trkpt lat="40.2954166" lon="17.5096935"><ele>1.0</ele><time>2026-04-11T07:45:37.024Z</time></trkpt><trkpt lat="40.2954835" lon="17.5095013"><ele>1.3333333333333333</ele><time>2026-04-11T07:45:38.022Z</time></trkpt><trkpt lat="40.2955706" lon="17.509311"><ele>1.6666666666666665</ele><time>2026-04-11T07:45:39.043Z</time></trkpt><trkpt lat="40.2956613" lon="17.5091322"><ele>2.0</ele><time>2026-04-11T07:45:40.001Z</time></trkpt><trkpt lat="40.2957909" lon="17.5089797"><ele>2.0</ele><time>2026-04-11T07:45:41.007Z</time></trkpt><trkpt lat="40.2959062" lon="17.5088185"><ele>2.0</ele><time>2026-04-11T07:45:42.003Z</time></trkpt><trkpt lat="40.296027" lon="17.5086625"><ele>2.0</ele><time>2026-04-11T07:45:43.019Z</time></trkpt><trkpt lat="40.2961508" lon="17.5085031"><ele>2.0</ele><time>2026-04-11T07:45:44.05Z</time></trkpt><trkpt lat="40.296284" lon="17.5083611"><ele>2.0</ele><time>2026-04-11T07:45:45.014Z</time></trkpt><trkpt lat="40.2964174" lon="17.5082041"><ele>2.0</ele><time>2026-04-11T07:45:46.047Z</time></trkpt><trkpt lat="40.2965451" lon="17.5080513"><ele>2.0</ele><time>2026-04-11T07:45:47.081Z</time></trkpt><trkpt lat="40.2966721" lon="17.5079045"><ele>2.0</ele><time>2026-04-11T07:45:48.006Z</time></trkpt><trkpt lat="40.2968023" lon="17.5077694"><ele>2.0</ele><time>2026-04-11T07:45:49.007Z</time></trkpt><trkpt lat="40.2969138" lon="17.5076395"><ele>2.0</ele><time>2026-04-11T07:45:50.01Z</time></trkpt><trkpt lat="40.2970099" lon="17.5075198"><ele>2.0</ele><time>2026-04-11T07:45:51.011Z</time></trkpt><trkpt lat="40.2971157" lon="17.507391"><ele>2.0</ele><time>2026-04-11T07:45:52.011Z</time></trkpt><trkpt lat="40.2972209" lon="17.5072809"><ele>2.0</ele><time>2026-04-11T07:45:53.046Z</time></trkpt><trkpt lat="40.2973358" lon="17.5071628"><ele>3.0</ele><time>2026-04-11T07:45:54.005Z</time></trkpt><trkpt lat="40.2974509" lon="17.5070404"><ele>4.0</ele><time>2026-04-11T07:45:55.016Z</time></trkpt><trkpt lat="40.2975691" lon="17.5069087"><ele>5.0</ele><time>2026-04-11T07:45:56.049Z</time></trkpt><trkpt lat="40.2976827" lon="17.5067764"><ele>5.0</ele><time>2026-04-11T07:45:57.011Z</time></trkpt><trkpt lat="40.2977962" lon="17.5066472"><ele>5.0</ele><time>2026-04-11T07:45:58.04Z</time></trkpt><trkpt lat="40.2979175" lon="17.5065357"><ele>5.0</ele><time>2026-04-11T07:45:59.047Z</time></trkpt><trkpt lat="40.2980309" lon="17.506401"><ele>5.25</ele><time>2026-04-11T07:46:00.006Z</time></trkpt><trkpt lat="40.2981435" lon="17.5062753"><ele>5.5</ele><time>2026-04-11T07:46:01.013Z</time></trkpt><trkpt lat="40.2982526" lon="17.5061491"><ele>5.75</ele><time>2026-04-11T07:46:02.015Z</time></trkpt><trkpt lat="40.2983626" lon="17.5060137"><ele>6.0</ele><time>2026-04-11T07:46:03.015Z</time></trkpt><trkpt lat="40.2984732" lon="17.5059035"><ele>6.0</ele><time>2026-04-11T07:46:04.026Z</time></trkpt><trkpt lat="40.2985874" lon="17.5057762"><ele>6.0</ele><time>2026-04-11T07:46:05.018Z</time></trkpt><trkpt lat="40.2987127" lon="17.5056601"><ele>6.0</ele><time>2026-04-11T07:46:06.015Z</time></trkpt><trkpt lat="40.2988405" lon="17.5055463"><ele>5.666666666666667</ele><time>2026-04-11T07:46:07.017Z</time></trkpt><trkpt lat="40.2989837" lon="17.505473"><ele>5.333333333333334</ele><time>2026-04-11T07:46:08.018Z</time></trkpt><trkpt lat="40.2991241" lon="17.505383"><ele>5.0</ele><time>2026-04-11T07:46:09.005Z</time></trkpt><trkpt lat="40.2992787" lon="17.5052923"><ele>5.0</ele><time>2026-04-11T07:46:10.008Z</time></trkpt><trkpt lat="40.2994335" lon="17.5052208"><ele>5.0</ele><time>2026-04-11T07:46:11.013Z</time></trkpt><trkpt lat="40.2995868" lon="17.5051538"><ele>5.0</ele><time>2026-04-11T07:46:12.015Z</time></trkpt><trkpt lat="40.2997551" lon="17.5050992"><ele>6.333333333333334</ele><time>2026-04-11T07:46:13.052Z</time></trkpt><trkpt lat="40.2999194" lon="17.5050285"><ele>7.666666666666667</ele><time>2026-04-11T07:46:14.018Z</time></trkpt><trkpt lat="40.3000888" lon="17.5049597"><ele>9.0</ele><time>2026-04-11T07:46:15.043Z</time></trkpt><trkpt lat="40.3002549" lon="17.5049028"><ele>9.0</ele><time>2026-04-11T07:46:16.003Z</time></trkpt><trkpt lat="40.3004157" lon="17.5048574"><ele>9.0</ele><time>2026-04-11T07:46:17.004Z</time></trkpt><trkpt lat="40.3005872" lon="17.5047903"><ele>9.0</ele><time>2026-04-11T07:46:18.006Z</time></trkpt><trkpt lat="40.3007542" lon="17.5047335"><ele>9.333333333333334</ele><time>2026-04-11T07:46:19.026Z</time></trkpt><trkpt lat="40.300924" lon="17.5046901"><ele>9.666666666666668</ele><time>2026-04-11T07:46:20.024Z</time></trkpt><trkpt lat="40.3010912" lon="17.5046362"><ele>10.0</ele><time>2026-04-11T07:46:21.004Z</time></trkpt><trkpt lat="40.3012464" lon="17.5045962"><ele>7.666666666666667</ele><time>2026-04-11T07:46:22.014Z</time></trkpt><trkpt lat="40.3014035" lon="17.5045446"><ele>5.333333333333334</ele><time>2026-04-11T07:46:23.02Z</time></trkpt><trkpt lat="40.3015551" lon="17.5044855"><ele>3.0</ele><time>2026-04-11T07:46:24.015Z</time></trkpt><trkpt lat="40.3017088" lon="17.5044393"><ele>3.0</ele><time>2026-04-11T07:46:25.016Z</time></trkpt><trkpt lat="40.3018727" lon="17.5043946"><ele>3.0</ele><time>2026-04-11T07:46:26.014Z</time></trkpt><trkpt lat="40.3020243" lon="17.5043474"><ele>3.0</ele><time>2026-04-11T07:46:27.002Z</time></trkpt><trkpt lat="40.3021857" lon="17.5042949"><ele>3.333333333333333</ele><time>2026-04-11T07:46:28.01Z</time></trkpt><trkpt lat="40.3023375" lon="17.5042288"><ele>3.6666666666666665</ele><time>2026-04-11T07:46:29.021Z</time></trkpt><trkpt lat="40.3024798" lon="17.5041386"><ele>4.0</ele><time>2026-04-11T07:46:30.017Z</time></trkpt><trkpt lat="40.3026132" lon="17.5040339"><ele>4.0</ele><time>2026-04-11T07:46:31.022Z</time></trkpt><trkpt lat="40.3027477" lon="17.5039239"><ele>4.0</ele><time>2026-04-11T07:46:32.016Z</time></trkpt><trkpt lat="40.3028664" lon="17.5038066"><ele>4.0</ele><time>2026-04-11T07:46:33.019Z</time></trkpt><trkpt lat="40.3029957" lon="17.503677"><ele>2.6666666666666665</ele><time>2026-04-11T07:46:34.014Z</time></trkpt><trkpt lat="40.3031263" lon="17.5035418"><ele>1.3333333333333333</ele><time>2026-04-11T07:46:35.014Z</time></trkpt><trkpt lat="40.3032445" lon="17.5034041"><ele>0.0</ele><time>2026-04-11T07:46:36.02Z</time></trkpt><trkpt lat="40.3033609" lon="17.5032637"><ele>0.0</ele><time>2026-04-11T07:46:37.018Z</time></trkpt><trkpt lat="40.3034687" lon="17.5031355"><ele>0.0</ele><time>2026-04-11T07:46:38.019Z</time></trkpt><trkpt lat="40.3035719" lon="17.5029972"><ele>0.0</ele><time>2026-04-11T07:46:39.005Z</time></trkpt><trkpt lat="40.3036627" lon="17.5028587"><ele>0.0</ele><time>2026-04-11T07:46:40.002Z</time></trkpt><trkpt lat="40.3037649" lon="17.5027162"><ele>0.0</ele><time>2026-04-11T07:46:41.004Z</time></trkpt><trkpt lat="40.3038715" lon="17.5025355"><ele>0.0</ele><time>2026-04-11T07:46:42.016Z</time></trkpt><trkpt lat="40.3039794" lon="17.5023698"><ele>0.0</ele><time>2026-04-11T07:46:43.005Z</time></trkpt><trkpt lat="40.304084" lon="17.5021907"><ele>0.0</ele><time>2026-04-11T07:46:44.04Z</time></trkpt><trkpt lat="40.3041862" lon="17.5020083"><ele>0.0</ele><time>2026-04-11T07:46:45.051Z</time></trkpt><trkpt lat="40.304298" lon="17.5018196"><ele>0.0</ele><time>2026-04-11T07:46:46.018Z</time></trkpt><trkpt lat="40.3044078" lon="17.501647"><ele>0.0</ele><time>2026-04-11T07:46:47.019Z</time></trkpt><trkpt lat="40.3045269" lon="17.501469"><ele>0.0</ele><time>2026-04-11T07:46:48.006Z</time></trkpt><trkpt lat="40.3046668" lon="17.5013081"><ele>0.0</ele><time>2026-04-11T07:46:49.015Z</time></trkpt><trkpt lat="40.3047821" lon="17.5011589"><ele>0.0</ele><time>2026-04-11T07:46:50.025Z</time></trkpt><trkpt lat="40.3049062" lon="17.5010213"><ele>0.0</ele><time>2026-04-11T07:46:51.022Z</time></trkpt><trkpt lat="40.3050363" lon="17.5009089"><ele>0.0</ele><time>2026-04-11T07:46:52.023Z</time></trkpt><trkpt lat="40.3051635" lon="17.5008031"><ele>0.0</ele><time>2026-04-11T07:46:53.006Z</time></trkpt><trkpt lat="40.3052801" lon="17.5007207"><ele>0.0</ele><time>2026-04-11T07:46:54.012Z</time></trkpt><trkpt lat="40.3054118" lon="17.5006431"><ele>0.0</ele><time>2026-04-11T07:46:55.082Z</time></trkpt><trkpt lat="40.3055311" lon="17.5005766"><ele>0.0</ele><time>2026-04-11T07:46:56.048Z</time></trkpt><trkpt lat="40.30565" lon="17.5005073"><ele>0.0</ele><time>2026-04-11T07:46:57.002Z</time></trkpt><trkpt lat="40.3057607" lon="17.5004463"><ele>0.0</ele><time>2026-04-11T07:46:58.043Z</time></trkpt><trkpt lat="40.3058698" lon="17.5003704"><ele>0.0</ele><time>2026-04-11T07:46:59.007Z</time></trkpt><trkpt lat="40.305978" lon="17.5002772"><ele>0.0</ele><time>2026-04-11T07:47:00.048Z</time></trkpt><trkpt lat="40.3060853" lon="17.5001912"><ele>0.0</ele><time>2026-04-11T07:47:01.006Z</time></trkpt><trkpt lat="40.3061766" lon="17.5000793"><ele>0.0</ele><time>2026-04-11T07:47:02.035Z</time></trkpt><trkpt lat="40.3062825" lon="17.4999824"><ele>0.0</ele><time>2026-04-11T07:47:03.018Z</time></trkpt><trkpt lat="40.3063833" lon="17.4998839"><ele>0.0</ele><time>2026-04-11T07:47:04.042Z</time></trkpt><trkpt lat="40.3064867" lon="17.4997861"><ele>0.25</ele><time>2026-04-11T07:47:05.007Z</time></trkpt><trkpt lat="40.3065891" lon="17.4996828"><ele>0.5</ele><time>2026-04-11T07:47:06.014Z</time></trkpt><trkpt lat="40.3066904" lon="17.499585"><ele>0.75</ele><time>2026-04-11T07:47:07.023Z</time></trkpt><trkpt lat="40.3067888" lon="17.4995021"><ele>1.0</ele><time>2026-04-11T07:47:08.018Z</time></trkpt><trkpt lat="40.306883" lon="17.4994341"><ele>1.0</ele><time>2026-04-11T07:47:09.053Z</time></trkpt><trkpt lat="40.3069761" lon="17.4993428"><ele>1.0</ele><time>2026-04-11T07:47:10.04Z</time></trkpt><trkpt lat="40.3070639" lon="17.4992531"><ele>1.0</ele><time>2026-04-11T07:47:11.038Z</time></trkpt><trkpt lat="40.3071468" lon="17.499174"><ele>1.0</ele><time>2026-04-11T07:47:12.042Z</time></trkpt><trkpt lat="40.3072034" lon="17.4990867"><ele>1.0</ele><time>2026-04-11T07:47:13.041Z</time></trkpt><trkpt lat="40.3072688" lon="17.4989922"><ele>1.0</ele><time>2026-04-11T07:47:14.014Z</time></trkpt><trkpt lat="40.3073419" lon="17.4989321"><ele>1.0</ele><time>2026-04-11T07:47:15.011Z</time></trkpt><trkpt lat="40.3074142" lon="17.4988542"><ele>1.0</ele><time>2026-04-11T07:47:16.016Z</time></trkpt><trkpt lat="40.3074792" lon="17.4987685"><ele>1.0</ele><time>2026-04-11T07:47:17.048Z</time></trkpt><trkpt lat="40.3075568" lon="17.4986875"><ele>1.0</ele><time>2026-04-11T07:47:18.043Z</time></trkpt><trkpt lat="40.3076201" lon="17.4986139"><ele>0.8</ele><time>2026-04-11T07:47:19.027Z</time></trkpt><trkpt lat="40.3076799" lon="17.4985231"><ele>0.6000000000000001</ele><time>2026-04-11T07:47:20.024Z</time></trkpt><trkpt lat="40.3077507" lon="17.4984272"><ele>0.4</ele><time>2026-04-11T07:47:21.006Z</time></trkpt><trkpt lat="40.3078206" lon="17.4983401"><ele>0.2</ele><time>2026-04-11T07:47:22.005Z</time></trkpt><trkpt lat="40.3078758" lon="17.4982458"><ele>0.0</ele><time>2026-04-11T07:47:23.019Z</time></trkpt><trkpt lat="40.3079392" lon="17.4981502"><ele>0.0</ele><time>2026-04-11T07:47:24.014Z</time></trkpt><trkpt lat="40.3079985" lon="17.4980581"><ele>0.0</ele><time>2026-04-11T07:47:25.022Z</time></trkpt><trkpt lat="40.3080561" lon="17.4979647"><ele>0.0</ele><time>2026-04-11T07:47:26.005Z</time></trkpt><trkpt lat="40.3081351" lon="17.4978649"><ele>0.0</ele><time>2026-04-11T07:47:27.011Z</time></trkpt><trkpt lat="40.3082047" lon="17.4977791"><ele>0.0</ele><time>2026-04-11T07:47:28.01Z</time></trkpt><trkpt lat="40.3082849" lon="17.4976721"><ele>0.2</ele><time>2026-04-11T07:47:29.011Z</time></trkpt><trkpt lat="40.3083614" lon="17.4975772"><ele>0.4</ele><time>2026-04-11T07:47:30.007Z</time></trkpt><trkpt lat="40.3084349" lon="17.4974813"><ele>0.6000000000000001</ele><time>2026-04-11T07:47:31.014Z</time></trkpt><trkpt lat="40.3085129" lon="17.4973832"><ele>0.8</ele><time>2026-04-11T07:47:32.019Z</time></trkpt><trkpt lat="40.3085877" lon="17.497292"><ele>1.0</ele><time>2026-04-11T07:47:33.016Z</time></trkpt><trkpt lat="40.3086661" lon="17.497204"><ele>1.0</ele><time>2026-04-11T07:47:34.086Z</time></trkpt><trkpt lat="40.3087496" lon="17.4971102"><ele>1.0</ele><time>2026-04-11T07:47:35.014Z</time></trkpt><trkpt lat="40.3088404" lon="17.4970139"><ele>1.0</ele><time>2026-04-11T07:47:36.012Z</time></trkpt><trkpt lat="40.3089325" lon="17.4969134"><ele>1.0</ele><time>2026-04-11T07:47:37.016Z</time></trkpt><trkpt lat="40.3090154" lon="17.4967983"><ele>1.0</ele><time>2026-04-11T07:47:38.05Z</time></trkpt><trkpt lat="40.309106" lon="17.4966961"><ele>1.0</ele><time>2026-04-11T07:47:39.015Z</time></trkpt><trkpt lat="40.3091973" lon="17.4965944"><ele>1.0</ele><time>2026-04-11T07:47:40.015Z</time></trkpt><trkpt lat="40.3092801" lon="17.4965"><ele>1.0</ele><time>2026-04-11T07:47:41.014Z</time></trkpt><trkpt lat="40.3093588" lon="17.4964132"><ele>0.9999999999999999</ele><time>2026-04-11T07:47:42.024Z</time></trkpt><trkpt lat="40.3094274" lon="17.496333"><ele>1.0</ele><time>2026-04-11T07:47:43.046Z</time></trkpt><trkpt lat="40.3095007" lon="17.4962731"><ele>1.0</ele><time>2026-04-11T07:47:44.012Z</time></trkpt><trkpt lat="40.3095691" lon="17.49621"><ele>1.0</ele><time>2026-04-11T07:47:45.022Z</time></trkpt><trkpt lat="40.3096327" lon="17.4961535"><ele>0.9999999999999999</ele><time>2026-04-11T07:47:46.043Z</time></trkpt><trkpt lat="40.309691" lon="17.4961079"><ele>1.0</ele><time>2026-04-11T07:47:47.014Z</time></trkpt><trkpt lat="40.3097388" lon="17.4960334"><ele>1.1666666666666665</ele><time>2026-04-11T07:47:48.054Z</time></trkpt><trkpt lat="40.309781" lon="17.4959377"><ele>1.3333333333333333</ele><time>2026-04-11T07:47:49.013Z</time></trkpt><trkpt lat="40.3098251" lon="17.495833"><ele>1.5</ele><time>2026-04-11T07:47:50.042Z</time></trkpt><trkpt lat="40.3098636" lon="17.4957322"><ele>1.6666666666666665</ele><time>2026-04-11T07:47:51.015Z</time></trkpt><trkpt lat="40.3099064" lon="17.4956352"><ele>1.8333333333333333</ele><time>2026-04-11T07:47:52.001Z</time></trkpt><trkpt lat="40.3099618" lon="17.4955484"><ele>2.0</ele><time>2026-04-11T07:47:53.013Z</time></trkpt><trkpt lat="40.3100155" lon="17.495478"><ele>1.9999999999999998</ele><time>2026-04-11T07:47:54.015Z</time></trkpt><trkpt lat="40.3100482" lon="17.4953853"><ele>2.0</ele><time>2026-04-11T07:47:55.02Z</time></trkpt><trkpt lat="40.3101026" lon="17.4952872"><ele>2.0</ele><time>2026-04-11T07:47:56.021Z</time></trkpt><trkpt lat="40.3101484" lon="17.4951886"><ele>2.0</ele><time>2026-04-11T07:47:57.005Z</time></trkpt><trkpt lat="40.3102001" lon="17.4950914"><ele>1.9999999999999998</ele><time>2026-04-11T07:47:58.013Z</time></trkpt><trkpt lat="40.3102497" lon="17.4949925"><ele>2.0</ele><time>2026-04-11T07:47:59.019Z</time></trkpt><trkpt lat="40.3102942" lon="17.4948898"><ele>2.0</ele><time>2026-04-11T07:48:00.024Z</time></trkpt><trkpt lat="40.3103475" lon="17.4947794"><ele>2.0</ele><time>2026-04-11T07:48:01.022Z</time></trkpt><trkpt lat="40.3104013" lon="17.4946665"><ele>2.0</ele><time>2026-04-11T07:48:02.017Z</time></trkpt><trkpt lat="40.3104623" lon="17.4945411"><ele>2.0</ele><time>2026-04-11T07:48:03.015Z</time></trkpt><trkpt lat="40.3105306" lon="17.4944271"><ele>2.0</ele><time>2026-04-11T07:48:04.019Z</time></trkpt><trkpt lat="40.3105702" lon="17.4943039"><ele>2.0</ele><time>2026-04-11T07:48:05.023Z</time></trkpt><trkpt lat="40.3106383" lon="17.4941708"><ele>2.0</ele><time>2026-04-11T07:48:06.024Z</time></trkpt><trkpt lat="40.3106989" lon="17.4940277"><ele>2.0</ele><time>2026-04-11T07:48:07.018Z</time></trkpt><trkpt lat="40.3107588" lon="17.4938778"><ele>2.0</ele><time>2026-04-11T07:48:08.016Z</time></trkpt><trkpt lat="40.3108033" lon="17.4937124"><ele>1.75</ele><time>2026-04-11T07:48:09.02Z</time></trkpt><trkpt lat="40.3108454" lon="17.4935496"><ele>1.5</ele><time>2026-04-11T07:48:10.016Z</time></trkpt><trkpt lat="40.3108801" lon="17.4933894"><ele>1.25</ele><time>2026-04-11T07:48:11.012Z</time></trkpt><trkpt lat="40.3109207" lon="17.4932244"><ele>1.0</ele><time>2026-04-11T07:48:12.004Z</time></trkpt><trkpt lat="40.3109553" lon="17.4930638"><ele>1.0</ele><time>2026-04-11T07:48:13.098Z</time></trkpt><trkpt lat="40.31097" lon="17.4928944"><ele>1.0</ele><time>2026-04-11T07:48:14.043Z</time></trkpt><trkpt lat="40.3110006" lon="17.4927288"><ele>1.0</ele><time>2026-04-11T07:48:15.001Z</time></trkpt><trkpt lat="40.3110221" lon="17.4925471"><ele>1.0</ele><time>2026-04-11T07:48:16.004Z</time></trkpt><trkpt lat="40.3110502" lon="17.4923814"><ele>1.0</ele><time>2026-04-11T07:48:17.045Z</time></trkpt><trkpt lat="40.311081" lon="17.4922175"><ele>1.0</ele><time>2026-04-11T07:48:18.017Z</time></trkpt><trkpt lat="40.3111182" lon="17.492051"><ele>1.0</ele><time>2026-04-11T07:48:19.052Z</time></trkpt><trkpt lat="40.3111483" lon="17.4918965"><ele>1.0</ele><time>2026-04-11T07:48:20.008Z</time></trkpt><trkpt lat="40.3111689" lon="17.491747"><ele>1.0</ele><time>2026-04-11T07:48:21.011Z</time></trkpt><trkpt lat="40.3111971" lon="17.4915878"><ele>1.0</ele><time>2026-04-11T07:48:22.054Z</time></trkpt><trkpt lat="40.3112275" lon="17.4914361"><ele>1.0</ele><time>2026-04-11T07:48:23.043Z</time></trkpt><trkpt lat="40.3112601" lon="17.4912775"><ele>1.0</ele><time>2026-04-11T07:48:24.002Z</time></trkpt><trkpt lat="40.3112975" lon="17.4911215"><ele>1.25</ele><time>2026-04-11T07:48:25.003Z</time></trkpt><trkpt lat="40.3113238" lon="17.4909655"><ele>1.5</ele><time>2026-04-11T07:48:26.013Z</time></trkpt><trkpt lat="40.3113585" lon="17.4908083"><ele>1.75</ele><time>2026-04-11T07:48:27.008Z</time></trkpt><trkpt lat="40.3114016" lon="17.4906907"><ele>2.0</ele><time>2026-04-11T07:48:28.018Z</time></trkpt><trkpt lat="40.3114536" lon="17.4905578"><ele>3.0</ele><time>2026-04-11T07:48:29.052Z</time></trkpt><trkpt lat="40.3114995" lon="17.4904208"><ele>4.0</ele><time>2026-04-11T07:48:30.013Z</time></trkpt><trkpt lat="40.3115408" lon="17.4902864"><ele>5.0</ele><time>2026-04-11T07:48:31.017Z</time></trkpt><trkpt lat="40.3115932" lon="17.4901462"><ele>6.0</ele><time>2026-04-11T07:48:32.048Z</time></trkpt><trkpt lat="40.3116438" lon="17.4900012"><ele>6.0</ele><time>2026-04-11T07:48:33.044Z</time></trkpt><trkpt lat="40.3116937" lon="17.4898587"><ele>6.0</ele><time>2026-04-11T07:48:34.042Z</time></trkpt><trkpt lat="40.3117452" lon="17.4897162"><ele>6.0</ele><time>2026-04-11T07:48:35.009Z</time></trkpt><trkpt lat="40.3117992" lon="17.4895698"><ele>6.0</ele><time>2026-04-11T07:48:36.002Z</time></trkpt><trkpt lat="40.3118528" lon="17.4894359"><ele>5.6</ele><time>2026-04-11T07:48:37.037Z</time></trkpt><trkpt lat="40.3118785" lon="17.4893043"><ele>5.199999999999999</ele><time>2026-04-11T07:48:38.04Z</time></trkpt><trkpt lat="40.3119246" lon="17.4891787"><ele>4.800000000000001</ele><time>2026-04-11T07:48:39.043Z</time></trkpt><trkpt lat="40.3119697" lon="17.4890374"><ele>4.4</ele><time>2026-04-11T07:48:40.014Z</time></trkpt><trkpt lat="40.3120149" lon="17.4888897"><ele>4.0</ele><time>2026-04-11T07:48:41.016Z</time></trkpt><trkpt lat="40.3120626" lon="17.4887504"><ele>3.25</ele><time>2026-04-11T07:48:42.016Z</time></trkpt><trkpt lat="40.3121066" lon="17.4885954"><ele>2.5</ele><time>2026-04-11T07:48:43.018Z</time></trkpt><trkpt lat="40.3121624" lon="17.4884393"><ele>1.75</ele><time>2026-04-11T07:48:44.052Z</time></trkpt><trkpt lat="40.312218" lon="17.488273"><ele>1.0</ele><time>2026-04-11T07:48:45.006Z</time></trkpt><trkpt lat="40.3122734" lon="17.4881088"><ele>2.5</ele><time>2026-04-11T07:48:46.014Z</time></trkpt><trkpt lat="40.3123318" lon="17.4879536"><ele>4.0</ele><time>2026-04-11T07:48:47.015Z</time></trkpt><trkpt lat="40.3123826" lon="17.4878221"><ele>5.5</ele><time>2026-04-11T07:48:48.022Z</time></trkpt><trkpt lat="40.3124125" lon="17.4876635"><ele>7.0</ele><time>2026-04-11T07:48:49.02Z</time></trkpt><trkpt lat="40.312443" lon="17.4875334"><ele>7.0</ele><time>2026-04-11T07:48:50.016Z</time></trkpt><trkpt lat="40.3124669" lon="17.4873813"><ele>7.0</ele><time>2026-04-11T07:48:51.018Z</time></trkpt><trkpt lat="40.3124991" lon="17.4872318"><ele>7.0</ele><time>2026-04-11T07:48:52.004Z</time></trkpt><trkpt lat="40.3124788" lon="17.4870263"><ele>7.0</ele><time>2026-04-11T07:48:53.012Z</time></trkpt><trkpt lat="40.3125047" lon="17.486861"><ele>7.25</ele><time>2026-04-11T07:48:54.005Z</time></trkpt><trkpt lat="40.3125283" lon="17.4867019"><ele>7.5</ele><time>2026-04-11T07:48:55.042Z</time></trkpt><trkpt lat="40.3125475" lon="17.4865284"><ele>7.75</ele><time>2026-04-11T07:48:56.004Z</time></trkpt><trkpt lat="40.3125521" lon="17.4863315"><ele>8.0</ele><time>2026-04-11T07:48:57.012Z</time></trkpt><trkpt lat="40.3125872" lon="17.4861317"><ele>7.333333333333333</ele><time>2026-04-11T07:48:58.016Z</time></trkpt><trkpt lat="40.3126225" lon="17.4859223"><ele>6.666666666666666</ele><time>2026-04-11T07:48:59.016Z</time></trkpt><trkpt lat="40.3126647" lon="17.485703"><ele>6.0</ele><time>2026-04-11T07:49:00.02Z</time></trkpt><trkpt lat="40.3127103" lon="17.4854967"><ele>5.333333333333333</ele><time>2026-04-11T07:49:01.016Z</time></trkpt><trkpt lat="40.3127421" lon="17.4852796"><ele>4.666666666666666</ele><time>2026-04-11T07:49:02.004Z</time></trkpt><trkpt lat="40.31276" lon="17.4850817"><ele>4.0</ele><time>2026-04-11T07:49:03.019Z</time></trkpt><trkpt lat="40.3127781" lon="17.4848707"><ele>4.0</ele><time>2026-04-11T07:49:04.021Z</time></trkpt><trkpt lat="40.3127973" lon="17.4846843"><ele>4.0</ele><time>2026-04-11T07:49:05.022Z</time></trkpt><trkpt lat="40.3128137" lon="17.4845006"><ele>4.0</ele><time>2026-04-11T07:49:06.059Z</time></trkpt><trkpt lat="40.3128338" lon="17.4843163"><ele>4.0</ele><time>2026-04-11T07:49:07.01Z</time></trkpt><trkpt lat="40.3128498" lon="17.484126"><ele>3.333333333333333</ele><time>2026-04-11T07:49:08.009Z</time></trkpt><trkpt lat="40.3128758" lon="17.4839288"><ele>2.6666666666666665</ele><time>2026-04-11T07:49:09.095Z</time></trkpt><trkpt lat="40.3129101" lon="17.4837342"><ele>2.0</ele><time>2026-04-11T07:49:10.007Z</time></trkpt><trkpt lat="40.3129387" lon="17.4835373"><ele>1.3333333333333333</ele><time>2026-04-11T07:49:11.041Z</time></trkpt><trkpt lat="40.3129682" lon="17.4833295"><ele>0.6666666666666666</ele><time>2026-04-11T07:49:12.012Z</time></trkpt><trkpt lat="40.3129896" lon="17.4831277"><ele>0.0</ele><time>2026-04-11T07:49:13.003Z</time></trkpt><trkpt lat="40.313018" lon="17.4829191"><ele>0.0</ele><time>2026-04-11T07:49:14.009Z</time></trkpt><trkpt lat="40.3130395" lon="17.4827145"><ele>0.0</ele><time>2026-04-11T07:49:15.013Z</time></trkpt><trkpt lat="40.3130647" lon="17.4825025"><ele>0.0</ele><time>2026-04-11T07:49:16.01Z</time></trkpt><trkpt lat="40.3130756" lon="17.4822773"><ele>1.3333333333333333</ele><time>2026-04-11T07:49:17.017Z</time></trkpt><trkpt lat="40.3130915" lon="17.4820636"><ele>2.6666666666666665</ele><time>2026-04-11T07:49:18.021Z</time></trkpt><trkpt lat="40.3131043" lon="17.4818555"><ele>4.0</ele><time>2026-04-11T07:49:19.011Z</time></trkpt><trkpt lat="40.3131261" lon="17.481655"><ele>4.0</ele><time>2026-04-11T07:49:20.019Z</time></trkpt><trkpt lat="40.3131479" lon="17.4814434"><ele>4.0</ele><time>2026-04-11T07:49:21.005Z</time></trkpt><trkpt lat="40.313175" lon="17.481213"><ele>4.0</ele><time>2026-04-11T07:49:22.039Z</time></trkpt><trkpt lat="40.3132002" lon="17.4809907"><ele>4.0</ele><time>2026-04-11T07:49:23.003Z</time></trkpt><trkpt lat="40.3132259" lon="17.4807539"><ele>4.0</ele><time>2026-04-11T07:49:24.009Z</time></trkpt><trkpt lat="40.3132545" lon="17.4805248"><ele>4.0</ele><time>2026-04-11T07:49:25.005Z</time></trkpt><trkpt lat="40.3132813" lon="17.4802981"><ele>4.0</ele><time>2026-04-11T07:49:26.004Z</time></trkpt><trkpt lat="40.313313" lon="17.4800767"><ele>4.0</ele><time>2026-04-11T07:49:27.044Z</time></trkpt><trkpt lat="40.3133269" lon="17.4798523"><ele>4.0</ele><time>2026-04-11T07:49:28.015Z</time></trkpt><trkpt lat="40.313346" lon="17.4796109"><ele>3.6666666666666665</ele><time>2026-04-11T07:49:29.018Z</time></trkpt><trkpt lat="40.3133631" lon="17.4793966"><ele>3.333333333333333</ele><time>2026-04-11T07:49:30.013Z</time></trkpt><trkpt lat="40.313394" lon="17.4791829"><ele>3.0</ele><time>2026-04-11T07:49:31.013Z</time></trkpt><trkpt lat="40.3134188" lon="17.4789764"><ele>2.3333333333333335</ele><time>2026-04-11T07:49:32.006Z</time></trkpt><trkpt lat="40.3134554" lon="17.4787543"><ele>1.6666666666666665</ele><time>2026-04-11T07:49:33.012Z</time></trkpt><trkpt lat="40.3134802" lon="17.4785424"><ele>1.0</ele><time>2026-04-11T07:49:34.018Z</time></trkpt><trkpt lat="40.3135099" lon="17.4783396"><ele>1.0</ele><time>2026-04-11T07:49:35.021Z</time></trkpt><trkpt lat="40.313534" lon="17.4781246"><ele>1.0</ele><time>2026-04-11T07:49:36.011Z</time></trkpt><trkpt lat="40.3135436" lon="17.4778973"><ele>1.0</ele><time>2026-04-11T07:49:37.009Z</time></trkpt><trkpt lat="40.3135577" lon="17.4776584"><ele>1.0</ele><time>2026-04-11T07:49:38.017Z</time></trkpt><trkpt lat="40.3135807" lon="17.4774349"><ele>1.0</ele><time>2026-04-11T07:49:39.004Z</time></trkpt><trkpt lat="40.3136025" lon="17.4772109"><ele>1.0</ele><time>2026-04-11T07:49:40.005Z</time></trkpt><trkpt lat="40.3136493" lon="17.4769609"><ele>1.0</ele><time>2026-04-11T07:49:41.013Z</time></trkpt><trkpt lat="40.3136747" lon="17.4767368"><ele>1.0</ele><time>2026-04-11T07:49:42.005Z</time></trkpt><trkpt lat="40.3136971" lon="17.4765217"><ele>1.0</ele><time>2026-04-11T07:49:43.013Z</time></trkpt><trkpt lat="40.3137274" lon="17.4762974"><ele>1.3333333333333333</ele><time>2026-04-11T07:49:44.006Z</time></trkpt><trkpt lat="40.3137516" lon="17.4760795"><ele>1.6666666666666665</ele><time>2026-04-11T07:49:45.005Z</time></trkpt><trkpt lat="40.3137679" lon="17.4758606"><ele>2.0</ele><time>2026-04-11T07:49:46.042Z</time></trkpt><trkpt lat="40.313791" lon="17.4756533"><ele>2.0</ele><time>2026-04-11T07:49:47.014Z</time></trkpt><trkpt lat="40.3138054" lon="17.4754458"><ele>2.0</ele><time>2026-04-11T07:49:48.022Z</time></trkpt><trkpt lat="40.3138305" lon="17.4752457"><ele>2.0</ele><time>2026-04-11T07:49:49.017Z</time></trkpt><trkpt lat="40.3138458" lon="17.4750459"><ele>1.3333333333333333</ele><time>2026-04-11T07:49:50.012Z</time></trkpt><trkpt lat="40.3138592" lon="17.4748326"><ele>0.6666666666666666</ele><time>2026-04-11T07:49:51.011Z</time></trkpt><trkpt lat="40.3138672" lon="17.4746338"><ele>0.0</ele><time>2026-04-11T07:49:52.023Z</time></trkpt><trkpt lat="40.3138744" lon="17.474438"><ele>0.0</ele><time>2026-04-11T07:49:53.016Z</time></trkpt><trkpt lat="40.3138667" lon="17.4742369"><ele>0.0</ele><time>2026-04-11T07:49:54.014Z</time></trkpt><trkpt lat="40.3138452" lon="17.4740444"><ele>0.0</ele><time>2026-04-11T07:49:55.019Z</time></trkpt><trkpt lat="40.3138125" lon="17.4738624"><ele>0.0</ele><time>2026-04-11T07:49:56.019Z</time></trkpt><trkpt lat="40.3137908" lon="17.4736933"><ele>0.25</ele><time>2026-04-11T07:49:57.016Z</time></trkpt><trkpt lat="40.3137639" lon="17.4735144"><ele>0.5</ele><time>2026-04-11T07:49:58.02Z</time></trkpt><trkpt lat="40.313748" lon="17.4733349"><ele>0.75</ele><time>2026-04-11T07:49:59.021Z</time></trkpt><trkpt lat="40.3137228" lon="17.4731559"><ele>1.0</ele><time>2026-04-11T07:50:00.013Z</time></trkpt><trkpt lat="40.3137014" lon="17.4729621"><ele>0.6666666666666666</ele><time>2026-04-11T07:50:01.015Z</time></trkpt><trkpt lat="40.313685" lon="17.4727725"><ele>0.3333333333333333</ele><time>2026-04-11T07:50:02.005Z</time></trkpt><trkpt lat="40.3136934" lon="17.4725671"><ele>0.0</ele><time>2026-04-11T07:50:03.005Z</time></trkpt><trkpt lat="40.3137121" lon="17.4723671"><ele>0.0</ele><time>2026-04-11T07:50:04.018Z</time></trkpt><trkpt lat="40.3137281" lon="17.4721683"><ele>0.0</ele><time>2026-04-11T07:50:05.004Z</time></trkpt><trkpt lat="40.3137648" lon="17.4719698"><ele>0.0</ele><time>2026-04-11T07:50:06.02Z</time></trkpt><trkpt lat="40.313798" lon="17.4717737"><ele>0.0</ele><time>2026-04-11T07:50:07.024Z</time></trkpt><trkpt lat="40.3138278" lon="17.4715892"><ele>0.0</ele><time>2026-04-11T07:50:08.015Z</time></trkpt><trkpt lat="40.3138887" lon="17.4714041"><ele>0.0</ele><time>2026-04-11T07:50:09.017Z</time></trkpt><trkpt lat="40.3139425" lon="17.4712292"><ele>0.0</ele><time>2026-04-11T07:50:10.015Z</time></trkpt><trkpt lat="40.3140076" lon="17.4710656"><ele>0.25</ele><time>2026-04-11T07:50:11.014Z</time></trkpt><trkpt lat="40.314081" lon="17.4709153"><ele>0.5</ele><time>2026-04-11T07:50:12.018Z</time></trkpt><trkpt lat="40.3141617" lon="17.4707581"><ele>0.75</ele><time>2026-04-11T07:50:13.025Z</time></trkpt><trkpt lat="40.3142423" lon="17.4706065"><ele>1.0</ele><time>2026-04-11T07:50:14.091Z</time></trkpt><trkpt lat="40.3143228" lon="17.4704495"><ele>0.75</ele><time>2026-04-11T07:50:15.016Z</time></trkpt><trkpt lat="40.3144078" lon="17.4702979"><ele>0.5</ele><time>2026-04-11T07:50:16.002Z</time></trkpt><trkpt lat="40.3144981" lon="17.4701632"><ele>0.25</ele><time>2026-04-11T07:50:17.008Z</time></trkpt><trkpt lat="40.3145772" lon="17.4700241"><ele>0.0</ele><time>2026-04-11T07:50:18.003Z</time></trkpt><trkpt lat="40.3146481" lon="17.4698962"><ele>0.0</ele><time>2026-04-11T07:50:19.008Z</time></trkpt><trkpt lat="40.314715" lon="17.4697729"><ele>0.0</ele><time>2026-04-11T07:50:20.012Z</time></trkpt><trkpt lat="40.3147872" lon="17.4696463"><ele>0.0</ele><time>2026-04-11T07:50:21.002Z</time></trkpt><trkpt lat="40.3148653" lon="17.4695367"><ele>0.0</ele><time>2026-04-11T07:50:22.01Z</time></trkpt><trkpt lat="40.3149391" lon="17.4694098"><ele>0.25</ele><time>2026-04-11T07:50:23.006Z</time></trkpt><trkpt lat="40.3150055" lon="17.4692578"><ele>0.5</ele><time>2026-04-11T07:50:24.008Z</time></trkpt><trkpt lat="40.3150735" lon="17.4691195"><ele>0.75</ele><time>2026-04-11T07:50:25.006Z</time></trkpt><trkpt lat="40.3151403" lon="17.468985"><ele>1.0</ele><time>2026-04-11T07:50:26.008Z</time></trkpt><trkpt lat="40.3152099" lon="17.4688518"><ele>0.8</ele><time>2026-04-11T07:50:27.01Z</time></trkpt><trkpt lat="40.3152715" lon="17.468717"><ele>0.6000000000000001</ele><time>2026-04-11T07:50:28.009Z</time></trkpt><trkpt lat="40.3153243" lon="17.4685858"><ele>0.4</ele><time>2026-04-11T07:50:29.014Z</time></trkpt><trkpt lat="40.3153828" lon="17.4684713"><ele>0.2</ele><time>2026-04-11T07:50:30.021Z</time></trkpt><trkpt lat="40.3154422" lon="17.4683522"><ele>0.0</ele><time>2026-04-11T07:50:31.054Z</time></trkpt><trkpt lat="40.3154977" lon="17.4682322"><ele>0.0</ele><time>2026-04-11T07:50:32.046Z</time></trkpt><trkpt lat="40.315551" lon="17.4681107"><ele>0.0</ele><time>2026-04-11T07:50:33.004Z</time></trkpt><trkpt lat="40.3156033" lon="17.4680113"><ele>0.0</ele><time>2026-04-11T07:50:34.012Z</time></trkpt><trkpt lat="40.3156549" lon="17.4678779"><ele>0.0</ele><time>2026-04-11T07:50:35.05Z</time></trkpt><trkpt lat="40.3157172" lon="17.4677693"><ele>0.0</ele><time>2026-04-11T07:50:36.041Z</time></trkpt><trkpt lat="40.3157721" lon="17.467645"><ele>0.0</ele><time>2026-04-11T07:50:37.002Z</time></trkpt><trkpt lat="40.3158335" lon="17.4675257"><ele>0.0</ele><time>2026-04-11T07:50:38.004Z</time></trkpt><trkpt lat="40.3158924" lon="17.4673912"><ele>0.0</ele><time>2026-04-11T07:50:39.008Z</time></trkpt><trkpt lat="40.3159525" lon="17.4672397"><ele>0.0</ele><time>2026-04-11T07:50:40.013Z</time></trkpt><trkpt lat="40.3160112" lon="17.4670674"><ele>0.0</ele><time>2026-04-11T07:50:41.008Z</time></trkpt><trkpt lat="40.3160804" lon="17.4669096"><ele>0.0</ele><time>2026-04-11T07:50:42.011Z</time></trkpt><trkpt lat="40.3161453" lon="17.4667614"><ele>0.0</ele><time>2026-04-11T07:50:43.004Z</time></trkpt><trkpt lat="40.3162037" lon="17.4665852"><ele>0.0</ele><time>2026-04-11T07:50:44.042Z</time></trkpt><trkpt lat="40.3162497" lon="17.4664197"><ele>0.0</ele><time>2026-04-11T07:50:45.046Z</time></trkpt><trkpt lat="40.3162925" lon="17.4662436"><ele>0.0</ele><time>2026-04-11T07:50:46.014Z</time></trkpt><trkpt lat="40.3163016" lon="17.4660373"><ele>0.0</ele><time>2026-04-11T07:50:47.019Z</time></trkpt><trkpt lat="40.3163225" lon="17.4658471"><ele>0.0</ele><time>2026-04-11T07:50:48.005Z</time></trkpt><trkpt lat="40.3163103" lon="17.4656471"><ele>0.0</ele><time>2026-04-11T07:50:49.017Z</time></trkpt><trkpt lat="40.3163133" lon="17.4654496"><ele>0.0</ele><time>2026-04-11T07:50:50.005Z</time></trkpt><trkpt lat="40.316303" lon="17.4652352"><ele>0.0</ele><time>2026-04-11T07:50:51.037Z</time></trkpt><trkpt lat="40.3162971" lon="17.4650395"><ele>0.3333333333333333</ele><time>2026-04-11T07:50:52.013Z</time></trkpt><trkpt lat="40.3162885" lon="17.46482"><ele>0.6666666666666666</ele><time>2026-04-11T07:50:53.048Z</time></trkpt><trkpt lat="40.3162817" lon="17.4646079"><ele>1.0</ele><time>2026-04-11T07:50:54.008Z</time></trkpt><trkpt lat="40.3162728" lon="17.4643785"><ele>1.3333333333333333</ele><time>2026-04-11T07:50:55.013Z</time></trkpt><trkpt lat="40.3162656" lon="17.4641641"><ele>1.6666666666666665</ele><time>2026-04-11T07:50:56.008Z</time></trkpt><trkpt lat="40.3162498" lon="17.4639346"><ele>2.0</ele><time>2026-04-11T07:50:57.019Z</time></trkpt><trkpt lat="40.3162496" lon="17.4637165"><ele>1.3333333333333333</ele><time>2026-04-11T07:50:58.016Z</time></trkpt><trkpt lat="40.3162499" lon="17.4634904"><ele>0.6666666666666666</ele><time>2026-04-11T07:50:59.057Z</time></trkpt><trkpt lat="40.3162562" lon="17.4632725"><ele>0.0</ele><time>2026-04-11T07:51:00.005Z</time></trkpt><trkpt lat="40.3162924" lon="17.4630646"><ele>0.0</ele><time>2026-04-11T07:51:01.011Z</time></trkpt><trkpt lat="40.3163169" lon="17.462854"><ele>0.0</ele><time>2026-04-11T07:51:02.047Z</time></trkpt><trkpt lat="40.3163312" lon="17.4626478"><ele>0.0</ele><time>2026-04-11T07:51:03.018Z</time></trkpt><trkpt lat="40.3163453" lon="17.4624359"><ele>0.0</ele><time>2026-04-11T07:51:04.003Z</time></trkpt><trkpt lat="40.3163785" lon="17.462209"><ele>0.0</ele><time>2026-04-11T07:51:05.007Z</time></trkpt><trkpt lat="40.316397" lon="17.4619964"><ele>0.0</ele><time>2026-04-11T07:51:06.002Z</time></trkpt><trkpt lat="40.3164131" lon="17.4617929"><ele>0.3333333333333333</ele><time>2026-04-11T07:51:07.004Z</time></trkpt><trkpt lat="40.3164223" lon="17.4615596"><ele>0.6666666666666666</ele><time>2026-04-11T07:51:08.006Z</time></trkpt><trkpt lat="40.3164296" lon="17.4613509"><ele>1.0</ele><time>2026-04-11T07:51:09.03Z</time></trkpt><trkpt lat="40.3164456" lon="17.4611366"><ele>1.0</ele><time>2026-04-11T07:51:10.018Z</time></trkpt><trkpt lat="40.3164609" lon="17.4609128"><ele>1.0</ele><time>2026-04-11T07:51:11.016Z</time></trkpt><trkpt lat="40.3164766" lon="17.4606972"><ele>1.0</ele><time>2026-04-11T07:51:12.005Z</time></trkpt><trkpt lat="40.3165008" lon="17.4604887"><ele>1.0</ele><time>2026-04-11T07:51:13.011Z</time></trkpt><trkpt lat="40.3165157" lon="17.4602875"><ele>1.0</ele><time>2026-04-11T07:51:14.016Z</time></trkpt><trkpt lat="40.3165325" lon="17.460087"><ele>1.0</ele><time>2026-04-11T07:51:15Z</time></trkpt><trkpt lat="40.3165532" lon="17.4598814"><ele>1.0</ele><time>2026-04-11T07:51:16.017Z</time></trkpt><trkpt lat="40.3165744" lon="17.4596814"><ele>1.0</ele><time>2026-04-11T07:51:17.007Z</time></trkpt><trkpt lat="40.3166014" lon="17.4594892"><ele>1.0</ele><time>2026-04-11T07:51:18.01Z</time></trkpt><trkpt lat="40.316657" lon="17.4593083"><ele>0.75</ele><time>2026-04-11T07:51:19.028Z</time></trkpt><trkpt lat="40.3167127" lon="17.459151"><ele>0.5</ele><time>2026-04-11T07:51:20.017Z</time></trkpt><trkpt lat="40.316789" lon="17.458995"><ele>0.25</ele><time>2026-04-11T07:51:21.015Z</time></trkpt><trkpt lat="40.3168764" lon="17.4588607"><ele>0.0</ele><time>2026-04-11T07:51:22.014Z</time></trkpt><trkpt lat="40.3169783" lon="17.4587346"><ele>0.0</ele><time>2026-04-11T07:51:23.009Z</time></trkpt><trkpt lat="40.3170863" lon="17.4586308"><ele>0.0</ele><time>2026-04-11T07:51:24.094Z</time></trkpt><trkpt lat="40.3171983" lon="17.4585315"><ele>0.0</ele><time>2026-04-11T07:51:25.014Z</time></trkpt><trkpt lat="40.3173221" lon="17.4584486"><ele>0.0</ele><time>2026-04-11T07:51:26.014Z</time></trkpt><trkpt lat="40.3174508" lon="17.4583569"><ele>0.0</ele><time>2026-04-11T07:51:27.082Z</time></trkpt><trkpt lat="40.3175884" lon="17.4582734"><ele>0.0</ele><time>2026-04-11T07:51:28.048Z</time></trkpt><trkpt lat="40.3177225" lon="17.4581711"><ele>0.0</ele><time>2026-04-11T07:51:29.053Z</time></trkpt><trkpt lat="40.3178447" lon="17.4580512"><ele>0.0</ele><time>2026-04-11T07:51:30.037Z</time></trkpt><trkpt lat="40.3179749" lon="17.4579373"><ele>0.0</ele><time>2026-04-11T07:51:31.001Z</time></trkpt><trkpt lat="40.3180913" lon="17.4577949"><ele>0.0</ele><time>2026-04-11T07:51:32.005Z</time></trkpt><trkpt lat="40.3182084" lon="17.4576583"><ele>0.0</ele><time>2026-04-11T07:51:33.042Z</time></trkpt><trkpt lat="40.3183226" lon="17.457507"><ele>0.0</ele><time>2026-04-11T07:51:34.026Z</time></trkpt><trkpt lat="40.3184395" lon="17.4573494"><ele>0.0</ele><time>2026-04-11T07:51:35.017Z</time></trkpt><trkpt lat="40.3185573" lon="17.4572086"><ele>0.0</ele><time>2026-04-11T07:51:36.041Z</time></trkpt><trkpt lat="40.3186785" lon="17.4570637"><ele>0.0</ele><time>2026-04-11T07:51:37Z</time></trkpt><trkpt lat="40.3188037" lon="17.4569199"><ele>0.0</ele><time>2026-04-11T07:51:38.014Z</time></trkpt><trkpt lat="40.3189251" lon="17.4567874"><ele>0.3333333333333333</ele><time>2026-04-11T07:51:39.025Z</time></trkpt><trkpt lat="40.319052" lon="17.4566483"><ele>0.6666666666666666</ele><time>2026-04-11T07:51:40.014Z</time></trkpt><trkpt lat="40.3191794" lon="17.4565124"><ele>1.0</ele><time>2026-04-11T07:51:41.001Z</time></trkpt><trkpt lat="40.3193034" lon="17.4563718"><ele>0.6666666666666666</ele><time>2026-04-11T07:51:42.012Z</time></trkpt><trkpt lat="40.3194321" lon="17.4562329"><ele>0.3333333333333333</ele><time>2026-04-11T07:51:43.008Z</time></trkpt><trkpt lat="40.3195659" lon="17.45609"><ele>0.0</ele><time>2026-04-11T07:51:44.086Z</time></trkpt><trkpt lat="40.3197031" lon="17.4559502"><ele>0.3333333333333333</ele><time>2026-04-11T07:51:45.048Z</time></trkpt><trkpt lat="40.3198453" lon="17.4558069"><ele>0.6666666666666666</ele><time>2026-04-11T07:51:46.012Z</time></trkpt><trkpt lat="40.3199889" lon="17.4556663"><ele>1.0</ele><time>2026-04-11T07:51:47.003Z</time></trkpt><trkpt lat="40.3201444" lon="17.455524"><ele>0.6666666666666666</ele><time>2026-04-11T07:51:48.043Z</time></trkpt><trkpt lat="40.3203025" lon="17.4553805"><ele>0.3333333333333333</ele><time>2026-04-11T07:51:49.019Z</time></trkpt><trkpt lat="40.3204528" lon="17.455241"><ele>0.0</ele><time>2026-04-11T07:51:50.001Z</time></trkpt><trkpt lat="40.3206089" lon="17.4551162"><ele>-0.3333333333333333</ele><time>2026-04-11T07:51:51.038Z</time></trkpt><trkpt lat="40.3207716" lon="17.4549843"><ele>-0.6666666666666666</ele><time>2026-04-11T07:51:52.023Z</time></trkpt><trkpt lat="40.3209316" lon="17.4548455"><ele>-1.0</ele><time>2026-04-11T07:51:53.02Z</time></trkpt><trkpt lat="40.3210865" lon="17.4547"><ele>-0.6666666666666666</ele><time>2026-04-11T07:51:54.02Z</time></trkpt><trkpt lat="40.3212436" lon="17.4545561"><ele>-0.3333333333333333</ele><time>2026-04-11T07:51:55.018Z</time></trkpt><trkpt lat="40.3214046" lon="17.4544126"><ele>0.0</ele><time>2026-04-11T07:51:56.017Z</time></trkpt><trkpt lat="40.3215535" lon="17.4542656"><ele>0.0</ele><time>2026-04-11T07:51:57.016Z</time></trkpt><trkpt lat="40.321708" lon="17.4541318"><ele>0.0</ele><time>2026-04-11T07:51:58.043Z</time></trkpt><trkpt lat="40.3218642" lon="17.4540004"><ele>0.0</ele><time>2026-04-11T07:51:59.05Z</time></trkpt><trkpt lat="40.322001" lon="17.4538744"><ele>0.0</ele><time>2026-04-11T07:52:00.015Z</time></trkpt><trkpt lat="40.3221467" lon="17.4537544"><ele>0.0</ele><time>2026-04-11T07:52:01.047Z</time></trkpt><trkpt lat="40.3222864" lon="17.4536466"><ele>0.0</ele><time>2026-04-11T07:52:02.014Z</time></trkpt><trkpt lat="40.3224253" lon="17.4535451"><ele>0.0</ele><time>2026-04-11T07:52:03.019Z</time></trkpt><trkpt lat="40.3225713" lon="17.4534712"><ele>0.0</ele><time>2026-04-11T07:52:04.014Z</time></trkpt><trkpt lat="40.3227177" lon="17.4533968"><ele>0.0</ele><time>2026-04-11T07:52:05.001Z</time></trkpt><trkpt lat="40.322886" lon="17.4533782"><ele>0.0</ele><time>2026-04-11T07:52:06.043Z</time></trkpt><trkpt lat="40.3230461" lon="17.4533612"><ele>0.0</ele><time>2026-04-11T07:52:07.046Z</time></trkpt><trkpt lat="40.3232137" lon="17.4533541"><ele>0.0</ele><time>2026-04-11T07:52:08.013Z</time></trkpt><trkpt lat="40.3233771" lon="17.4533624"><ele>0.0</ele><time>2026-04-11T07:52:09.016Z</time></trkpt><trkpt lat="40.3235491" lon="17.4533716"><ele>0.0</ele><time>2026-04-11T07:52:10.024Z</time></trkpt><trkpt lat="40.3237188" lon="17.453367"><ele>0.0</ele><time>2026-04-11T07:52:11.004Z</time></trkpt><trkpt lat="40.3238825" lon="17.4533823"><ele>0.0</ele><time>2026-04-11T07:52:12.043Z</time></trkpt><trkpt lat="40.3240424" lon="17.453405"><ele>0.0</ele><time>2026-04-11T07:52:13.048Z</time></trkpt><trkpt lat="40.324185" lon="17.4533819"><ele>0.0</ele><time>2026-04-11T07:52:14.019Z</time></trkpt><trkpt lat="40.3243198" lon="17.4533551"><ele>0.0</ele><time>2026-04-11T07:52:15.013Z</time></trkpt><trkpt lat="40.3244494" lon="17.4533165"><ele>0.0</ele><time>2026-04-11T07:52:16.048Z</time></trkpt><trkpt lat="40.3245815" lon="17.4532679"><ele>0.0</ele><time>2026-04-11T07:52:17.008Z</time></trkpt><trkpt lat="40.3247166" lon="17.4532131"><ele>0.0</ele><time>2026-04-11T07:52:18.008Z</time></trkpt><trkpt lat="40.3248638" lon="17.4531062"><ele>0.0</ele><time>2026-04-11T07:52:19.016Z</time></trkpt><trkpt lat="40.3250033" lon="17.453013"><ele>0.3333333333333333</ele><time>2026-04-11T07:52:20.013Z</time></trkpt><trkpt lat="40.3251411" lon="17.4529106"><ele>0.6666666666666666</ele><time>2026-04-11T07:52:21.007Z</time></trkpt><trkpt lat="40.3252687" lon="17.4528071"><ele>1.0</ele><time>2026-04-11T07:52:22.009Z</time></trkpt><trkpt lat="40.3254049" lon="17.4527047"><ele>1.0</ele><time>2026-04-11T07:52:23.038Z</time></trkpt><trkpt lat="40.3255348" lon="17.4525967"><ele>1.0</ele><time>2026-04-11T07:52:24.017Z</time></trkpt><trkpt lat="40.3256684" lon="17.4524878"><ele>1.0</ele><time>2026-04-11T07:52:25.02Z</time></trkpt><trkpt lat="40.3258046" lon="17.4523833"><ele>1.0</ele><time>2026-04-11T07:52:26.013Z</time></trkpt><trkpt lat="40.3259248" lon="17.4522758"><ele>1.0</ele><time>2026-04-11T07:52:27.013Z</time></trkpt><trkpt lat="40.3260575" lon="17.4521779"><ele>1.0</ele><time>2026-04-11T07:52:28.016Z</time></trkpt><trkpt lat="40.3261906" lon="17.452074"><ele>1.0</ele><time>2026-04-11T07:52:29.042Z</time></trkpt><trkpt lat="40.3263266" lon="17.4519741"><ele>1.0</ele><time>2026-04-11T07:52:30.037Z</time></trkpt><trkpt lat="40.3264497" lon="17.4518748"><ele>1.0</ele><time>2026-04-11T07:52:31.02Z</time></trkpt><trkpt lat="40.3265768" lon="17.4517661"><ele>2.0</ele><time>2026-04-11T07:52:32.024Z</time></trkpt><trkpt lat="40.3267015" lon="17.4516591"><ele>3.0</ele><time>2026-04-11T07:52:33.021Z</time></trkpt><trkpt lat="40.3268353" lon="17.45155"><ele>4.0</ele><time>2026-04-11T07:52:34.013Z</time></trkpt><trkpt lat="40.3269643" lon="17.4514563"><ele>4.0</ele><time>2026-04-11T07:52:35.01Z</time></trkpt><trkpt lat="40.3270833" lon="17.451369"><ele>4.0</ele><time>2026-04-11T07:52:36.017Z</time></trkpt><trkpt lat="40.3271868" lon="17.4512741"><ele>4.0</ele><time>2026-04-11T07:52:37.017Z</time></trkpt><trkpt lat="40.3272803" lon="17.4511747"><ele>4.0</ele><time>2026-04-11T07:52:38.018Z</time></trkpt><trkpt lat="40.3273524" lon="17.45105"><ele>3.833333333333333</ele><time>2026-04-11T07:52:39.049Z</time></trkpt><trkpt lat="40.3274073" lon="17.4509522"><ele>3.6666666666666665</ele><time>2026-04-11T07:52:40.014Z</time></trkpt><trkpt lat="40.327463" lon="17.4508498"><ele>3.5</ele><time>2026-04-11T07:52:41.002Z</time></trkpt><trkpt lat="40.3274646" lon="17.4507634"><ele>3.333333333333333</ele><time>2026-04-11T07:52:42.012Z</time></trkpt><trkpt lat="40.3275098" lon="17.4506516"><ele>3.1666666666666665</ele><time>2026-04-11T07:52:44.046Z</time></trkpt><trkpt lat="40.327552" lon="17.4505625"><ele>3.0</ele><time>2026-04-11T07:52:46.039Z</time></trkpt><trkpt lat="40.3276128" lon="17.4505007"><ele>3.0</ele><time>2026-04-11T07:52:48.003Z</time></trkpt><trkpt lat="40.3277064" lon="17.4504946"><ele>3.0</ele><time>2026-04-11T07:52:50.017Z</time></trkpt><trkpt lat="40.3277608" lon="17.450387"><ele>3.0</ele><time>2026-04-11T07:52:52.024Z</time></trkpt><trkpt lat="40.327752" lon="17.4502214"><ele>3.0</ele><time>2026-04-11T07:52:54.009Z</time></trkpt><trkpt lat="40.3277796" lon="17.450072"><ele>3.0</ele><time>2026-04-11T07:52:55.018Z</time></trkpt><trkpt lat="40.32782" lon="17.4499478"><ele>2.75</ele><time>2026-04-11T07:52:56.016Z</time></trkpt><trkpt lat="40.3278535" lon="17.4498091"><ele>2.5</ele><time>2026-04-11T07:52:56.999Z</time></trkpt><trkpt lat="40.3278979" lon="17.4496855"><ele>2.25</ele><time>2026-04-11T07:52:58.009Z</time></trkpt><trkpt lat="40.327959" lon="17.4495467"><ele>2.0</ele><time>2026-04-11T07:52:59.013Z</time></trkpt><trkpt lat="40.3280104" lon="17.4494148"><ele>1.8</ele><time>2026-04-11T07:53:00.006Z</time></trkpt><trkpt lat="40.3280577" lon="17.4492764"><ele>1.6</ele><time>2026-04-11T07:53:01.018Z</time></trkpt><trkpt lat="40.328097" lon="17.4491443"><ele>1.4000000000000001</ele><time>2026-04-11T07:53:02.028Z</time></trkpt><trkpt lat="40.3281353" lon="17.4490087"><ele>1.2000000000000002</ele><time>2026-04-11T07:53:03.018Z</time></trkpt><trkpt lat="40.3281799" lon="17.4488701"><ele>1.0</ele><time>2026-04-11T07:53:04.004Z</time></trkpt><trkpt lat="40.3282412" lon="17.4487385"><ele>2.75</ele><time>2026-04-11T07:53:05.011Z</time></trkpt><trkpt lat="40.3282948" lon="17.4485983"><ele>4.5</ele><time>2026-04-11T07:53:06.015Z</time></trkpt><trkpt lat="40.3283517" lon="17.4484583"><ele>6.25</ele><time>2026-04-11T07:53:06.999Z</time></trkpt><trkpt lat="40.3284187" lon="17.4483341"><ele>8.0</ele><time>2026-04-11T07:53:08.01Z</time></trkpt><trkpt lat="40.3284845" lon="17.4482061"><ele>8.0</ele><time>2026-04-11T07:53:09.021Z</time></trkpt><trkpt lat="40.3285318" lon="17.4480817"><ele>8.0</ele><time>2026-04-11T07:53:10.02Z</time></trkpt><trkpt lat="40.3285837" lon="17.4479605"><ele>8.0</ele><time>2026-04-11T07:53:11.009Z</time></trkpt><trkpt lat="40.3286321" lon="17.4478329"><ele>8.0</ele><time>2026-04-11T07:53:12.003Z</time></trkpt><trkpt lat="40.328688" lon="17.4476945"><ele>8.0</ele><time>2026-04-11T07:53:13.009Z</time></trkpt><trkpt lat="40.3287487" lon="17.447554"><ele>8.25</ele><time>2026-04-11T07:53:14.016Z</time></trkpt><trkpt lat="40.3288067" lon="17.4474128"><ele>8.5</ele><time>2026-04-11T07:53:15.006Z</time></trkpt><trkpt lat="40.328878" lon="17.447249"><ele>8.75</ele><time>2026-04-11T07:53:16.015Z</time></trkpt><trkpt lat="40.3289313" lon="17.4470971"><ele>9.0</ele><time>2026-04-11T07:53:17.05Z</time></trkpt><trkpt lat="40.3289963" lon="17.4469403"><ele>9.0</ele><time>2026-04-11T07:53:18.043Z</time></trkpt><trkpt lat="40.3290594" lon="17.4467814"><ele>9.0</ele><time>2026-04-11T07:53:19.023Z</time></trkpt><trkpt lat="40.3291163" lon="17.446619"><ele>9.0</ele><time>2026-04-11T07:53:20.018Z</time></trkpt><trkpt lat="40.3291799" lon="17.4464564"><ele>9.0</ele><time>2026-04-11T07:53:21.006Z</time></trkpt><trkpt lat="40.3292465" lon="17.4462873"><ele>8.75</ele><time>2026-04-11T07:53:22.014Z</time></trkpt><trkpt lat="40.3293135" lon="17.4461217"><ele>8.5</ele><time>2026-04-11T07:53:23.005Z</time></trkpt><trkpt lat="40.329393" lon="17.4459589"><ele>8.25</ele><time>2026-04-11T07:53:24.012Z</time></trkpt><trkpt lat="40.3294622" lon="17.4457945"><ele>8.0</ele><time>2026-04-11T07:53:25.016Z</time></trkpt><trkpt lat="40.3295338" lon="17.4456195"><ele>8.0</ele><time>2026-04-11T07:53:26.044Z</time></trkpt><trkpt lat="40.3295916" lon="17.4454544"><ele>8.0</ele><time>2026-04-11T07:53:27.037Z</time></trkpt><trkpt lat="40.3296424" lon="17.4452782"><ele>8.0</ele><time>2026-04-11T07:53:28.037Z</time></trkpt><trkpt lat="40.3296887" lon="17.4451024"><ele>8.0</ele><time>2026-04-11T07:53:29.013Z</time></trkpt><trkpt lat="40.3297436" lon="17.4449178"><ele>7.666666666666666</ele><time>2026-04-11T07:53:30.041Z</time></trkpt><trkpt lat="40.3297918" lon="17.4447256"><ele>7.333333333333334</ele><time>2026-04-11T07:53:31.02Z</time></trkpt><trkpt lat="40.3298408" lon="17.4445312"><ele>7.0</ele><time>2026-04-11T07:53:32.042Z</time></trkpt><trkpt lat="40.3298794" lon="17.4443168"><ele>6.0</ele><time>2026-04-11T07:53:33.011Z</time></trkpt><trkpt lat="40.3299078" lon="17.4441226"><ele>5.0</ele><time>2026-04-11T07:53:34.045Z</time></trkpt><trkpt lat="40.329951" lon="17.4439215"><ele>4.0</ele><time>2026-04-11T07:53:35Z</time></trkpt><trkpt lat="40.3300025" lon="17.4437115"><ele>3.6666666666666665</ele><time>2026-04-11T07:53:36.014Z</time></trkpt><trkpt lat="40.3300435" lon="17.4435005"><ele>3.333333333333333</ele><time>2026-04-11T07:53:37.022Z</time></trkpt><trkpt lat="40.3301008" lon="17.4433141"><ele>3.0</ele><time>2026-04-11T07:53:38.018Z</time></trkpt><trkpt lat="40.3301416" lon="17.4431239"><ele>2.3333333333333335</ele><time>2026-04-11T07:53:39.013Z</time></trkpt><trkpt lat="40.3301853" lon="17.442929"><ele>1.6666666666666665</ele><time>2026-04-11T07:53:40.001Z</time></trkpt><trkpt lat="40.3302242" lon="17.4427349"><ele>1.0</ele><time>2026-04-11T07:53:41.039Z</time></trkpt><trkpt lat="40.3302674" lon="17.4425444"><ele>1.0</ele><time>2026-04-11T07:53:42.014Z</time></trkpt><trkpt lat="40.3303095" lon="17.4423563"><ele>1.0</ele><time>2026-04-11T07:53:43.002Z</time></trkpt><trkpt lat="40.3303593" lon="17.4421656"><ele>1.0</ele><time>2026-04-11T07:53:44.043Z</time></trkpt><trkpt lat="40.3304021" lon="17.4419835"><ele>1.0</ele><time>2026-04-11T07:53:45.003Z</time></trkpt><trkpt lat="40.3304457" lon="17.4417965"><ele>0.75</ele><time>2026-04-11T07:53:46Z</time></trkpt><trkpt lat="40.3304899" lon="17.4416074"><ele>0.5</ele><time>2026-04-11T07:53:47.012Z</time></trkpt><trkpt lat="40.3305311" lon="17.4414186"><ele>0.25</ele><time>2026-04-11T07:53:48.006Z</time></trkpt><trkpt lat="40.3305679" lon="17.4412409"><ele>0.0</ele><time>2026-04-11T07:53:49.003Z</time></trkpt><trkpt lat="40.3306146" lon="17.441057"><ele>0.0</ele><time>2026-04-11T07:53:50.044Z</time></trkpt><trkpt lat="40.3306592" lon="17.4408802"><ele>0.0</ele><time>2026-04-11T07:53:51.006Z</time></trkpt><trkpt lat="40.3307099" lon="17.4407004"><ele>0.0</ele><time>2026-04-11T07:53:52.019Z</time></trkpt><trkpt lat="40.3307589" lon="17.4405196"><ele>0.0</ele><time>2026-04-11T07:53:53.022Z</time></trkpt><trkpt lat="40.3308264" lon="17.4403453"><ele>0.0</ele><time>2026-04-11T07:53:54.014Z</time></trkpt><trkpt lat="40.3308787" lon="17.4401707"><ele>0.0</ele><time>2026-04-11T07:53:55.049Z</time></trkpt><trkpt lat="40.3309332" lon="17.4400206"><ele>0.0</ele><time>2026-04-11T07:53:56.014Z</time></trkpt><trkpt lat="40.3309852" lon="17.4398615"><ele>0.0</ele><time>2026-04-11T07:53:57.017Z</time></trkpt><trkpt lat="40.3310388" lon="17.4397033"><ele>0.25</ele><time>2026-04-11T07:53:58.002Z</time></trkpt><trkpt lat="40.3311026" lon="17.439526"><ele>0.5</ele><time>2026-04-11T07:53:59.005Z</time></trkpt><trkpt lat="40.3311553" lon="17.4393503"><ele>0.75</ele><time>2026-04-11T07:54:00.014Z</time></trkpt><trkpt lat="40.3312108" lon="17.439168"><ele>1.0</ele><time>2026-04-11T07:54:01.043Z</time></trkpt><trkpt lat="40.3312614" lon="17.4389932"><ele>1.0</ele><time>2026-04-11T07:54:02.036Z</time></trkpt><trkpt lat="40.3313042" lon="17.4388076"><ele>1.0</ele><time>2026-04-11T07:54:02.999Z</time></trkpt><trkpt lat="40.3313214" lon="17.43861"><ele>1.0</ele><time>2026-04-11T07:54:04.004Z</time></trkpt><trkpt lat="40.3313319" lon="17.4384119"><ele>1.3333333333333333</ele><time>2026-04-11T07:54:05.052Z</time></trkpt><trkpt lat="40.3313319" lon="17.4382123"><ele>1.6666666666666665</ele><time>2026-04-11T07:54:06.015Z</time></trkpt><trkpt lat="40.3313237" lon="17.4379963"><ele>2.0</ele><time>2026-04-11T07:54:07.025Z</time></trkpt><trkpt lat="40.331298" lon="17.4377933"><ele>2.0</ele><time>2026-04-11T07:54:08.047Z</time></trkpt><trkpt lat="40.3312802" lon="17.4375774"><ele>2.0</ele><time>2026-04-11T07:54:09.041Z</time></trkpt><trkpt lat="40.3312564" lon="17.4373612"><ele>2.0</ele><time>2026-04-11T07:54:10.042Z</time></trkpt><trkpt lat="40.3312265" lon="17.4371221"><ele>2.6666666666666665</ele><time>2026-04-11T07:54:11.02Z</time></trkpt><trkpt lat="40.3311948" lon="17.4368962"><ele>3.333333333333333</ele><time>2026-04-11T07:54:12.019Z</time></trkpt><trkpt lat="40.33117" lon="17.4366742"><ele>4.0</ele><time>2026-04-11T07:54:13.002Z</time></trkpt><trkpt lat="40.3311491" lon="17.436461"><ele>4.0</ele><time>2026-04-11T07:54:14.084Z</time></trkpt><trkpt lat="40.3311294" lon="17.436241"><ele>4.0</ele><time>2026-04-11T07:54:15.05Z</time></trkpt><trkpt lat="40.3311136" lon="17.436021"><ele>4.0</ele><time>2026-04-11T07:54:16.041Z</time></trkpt><trkpt lat="40.3310966" lon="17.435797"><ele>4.0</ele><time>2026-04-11T07:54:17.011Z</time></trkpt><trkpt lat="40.3310842" lon="17.4355794"><ele>4.0</ele><time>2026-04-11T07:54:18.019Z</time></trkpt><trkpt lat="40.3310908" lon="17.4353907"><ele>4.0</ele><time>2026-04-11T07:54:19.015Z</time></trkpt><trkpt lat="40.3310984" lon="17.4351824"><ele>3.333333333333333</ele><time>2026-04-11T07:54:20.019Z</time></trkpt><trkpt lat="40.3311178" lon="17.4349697"><ele>2.6666666666666665</ele><time>2026-04-11T07:54:21.017Z</time></trkpt><trkpt lat="40.3311381" lon="17.4347712"><ele>2.0</ele><time>2026-04-11T07:54:22.007Z</time></trkpt><trkpt lat="40.3311606" lon="17.4345661"><ele>1.6666666666666665</ele><time>2026-04-11T07:54:22.999Z</time></trkpt><trkpt lat="40.331202" lon="17.4343439"><ele>1.3333333333333333</ele><time>2026-04-11T07:54:24.008Z</time></trkpt><trkpt lat="40.331236" lon="17.4341337"><ele>1.0</ele><time>2026-04-11T07:54:25.002Z</time></trkpt><trkpt lat="40.3312704" lon="17.4339218"><ele>1.0</ele><time>2026-04-11T07:54:26.007Z</time></trkpt><trkpt lat="40.3313138" lon="17.4337123"><ele>1.0</ele><time>2026-04-11T07:54:27.001Z</time></trkpt><trkpt lat="40.3313722" lon="17.4335067"><ele>1.0</ele><time>2026-04-11T07:54:28.019Z</time></trkpt><trkpt lat="40.3314222" lon="17.4332994"><ele>1.0</ele><time>2026-04-11T07:54:29.016Z</time></trkpt><trkpt lat="40.3314771" lon="17.4330873"><ele>1.0</ele><time>2026-04-11T07:54:30Z</time></trkpt><trkpt lat="40.3315304" lon="17.4328713"><ele>1.0</ele><time>2026-04-11T07:54:31.005Z</time></trkpt><trkpt lat="40.3315844" lon="17.4326341"><ele>1.0</ele><time>2026-04-11T07:54:32.011Z</time></trkpt><trkpt lat="40.3316536" lon="17.4324187"><ele>1.0</ele><time>2026-04-11T07:54:33.025Z</time></trkpt><trkpt lat="40.3317162" lon="17.4321984"><ele>1.0</ele><time>2026-04-11T07:54:34.024Z</time></trkpt><trkpt lat="40.3317802" lon="17.4319779"><ele>1.0</ele><time>2026-04-11T07:54:35.026Z</time></trkpt><trkpt lat="40.331847" lon="17.4317546"><ele>1.0</ele><time>2026-04-11T07:54:36.007Z</time></trkpt><trkpt lat="40.331907" lon="17.4315277"><ele>1.0</ele><time>2026-04-11T07:54:37.019Z</time></trkpt><trkpt lat="40.3319786" lon="17.4312968"><ele>0.6666666666666666</ele><time>2026-04-11T07:54:38.021Z</time></trkpt><trkpt lat="40.3320455" lon="17.4310749"><ele>0.3333333333333333</ele><time>2026-04-11T07:54:39.024Z</time></trkpt><trkpt lat="40.3321147" lon="17.4308477"><ele>0.0</ele><time>2026-04-11T07:54:40.005Z</time></trkpt><trkpt lat="40.3321927" lon="17.4306165"><ele>1.3333333333333333</ele><time>2026-04-11T07:54:41.046Z</time></trkpt><trkpt lat="40.3322646" lon="17.4303925"><ele>2.6666666666666665</ele><time>2026-04-11T07:54:42.012Z</time></trkpt><trkpt lat="40.3323322" lon="17.4301815"><ele>4.0</ele><time>2026-04-11T07:54:43.015Z</time></trkpt><trkpt lat="40.3324012" lon="17.4299565"><ele>4.0</ele><time>2026-04-11T07:54:44.004Z</time></trkpt><trkpt lat="40.3324626" lon="17.4297337"><ele>4.0</ele><time>2026-04-11T07:54:45.004Z</time></trkpt><trkpt lat="40.33253" lon="17.4295071"><ele>4.0</ele><time>2026-04-11T07:54:46.005Z</time></trkpt><trkpt lat="40.332595" lon="17.4292771"><ele>4.0</ele><time>2026-04-11T07:54:47.019Z</time></trkpt><trkpt lat="40.3326676" lon="17.429058"><ele>4.0</ele><time>2026-04-11T07:54:48.023Z</time></trkpt><trkpt lat="40.3327343" lon="17.4288379"><ele>4.0</ele><time>2026-04-11T07:54:49.011Z</time></trkpt><trkpt lat="40.332801" lon="17.4286265"><ele>3.333333333333333</ele><time>2026-04-11T07:54:50.008Z</time></trkpt><trkpt lat="40.3328671" lon="17.4284095"><ele>2.6666666666666665</ele><time>2026-04-11T07:54:51.054Z</time></trkpt><trkpt lat="40.3329356" lon="17.4282"><ele>2.0</ele><time>2026-04-11T07:54:52.02Z</time></trkpt><trkpt lat="40.3330024" lon="17.4279833"><ele>1.6666666666666665</ele><time>2026-04-11T07:54:53.001Z</time></trkpt><trkpt lat="40.3330465" lon="17.4277553"><ele>1.3333333333333333</ele><time>2026-04-11T07:54:54.007Z</time></trkpt><trkpt lat="40.3330859" lon="17.4275265"><ele>1.0</ele><time>2026-04-11T07:54:55.045Z</time></trkpt><trkpt lat="40.3331206" lon="17.4272851"><ele>2.6666666666666665</ele><time>2026-04-11T07:54:56.02Z</time></trkpt><trkpt lat="40.3331451" lon="17.427048"><ele>4.333333333333333</ele><time>2026-04-11T07:54:57.062Z</time></trkpt><trkpt lat="40.3331626" lon="17.4268058"><ele>6.0</ele><time>2026-04-11T07:54:58.02Z</time></trkpt><trkpt lat="40.3331666" lon="17.4265541"><ele>5.0</ele><time>2026-04-11T07:54:59.017Z</time></trkpt><trkpt lat="40.3331703" lon="17.426302"><ele>4.0</ele><time>2026-04-11T07:55:00.02Z</time></trkpt><trkpt lat="40.3331709" lon="17.4260418"><ele>3.0</ele><time>2026-04-11T07:55:01.016Z</time></trkpt><trkpt lat="40.3331581" lon="17.4257812"><ele>3.0</ele><time>2026-04-11T07:55:02.015Z</time></trkpt><trkpt lat="40.3331583" lon="17.4255214"><ele>3.0</ele><time>2026-04-11T07:55:03.019Z</time></trkpt><trkpt lat="40.3331522" lon="17.4252558"><ele>3.0</ele><time>2026-04-11T07:55:04.02Z</time></trkpt><trkpt lat="40.3331379" lon="17.4250013"><ele>3.0</ele><time>2026-04-11T07:55:05.017Z</time></trkpt><trkpt lat="40.3331344" lon="17.4247282"><ele>3.0</ele><time>2026-04-11T07:55:06.002Z</time></trkpt><trkpt lat="40.3331339" lon="17.4244543"><ele>3.0</ele><time>2026-04-11T07:55:07.013Z</time></trkpt><trkpt lat="40.3331301" lon="17.4241815"><ele>3.666666666666667</ele><time>2026-04-11T07:55:08.003Z</time></trkpt><trkpt lat="40.3331257" lon="17.4239204"><ele>4.333333333333334</ele><time>2026-04-11T07:55:09.014Z</time></trkpt><trkpt lat="40.3331242" lon="17.4236573"><ele>5.0</ele><time>2026-04-11T07:55:10.026Z</time></trkpt><trkpt lat="40.3331267" lon="17.4233951"><ele>5.0</ele><time>2026-04-11T07:55:11.018Z</time></trkpt><trkpt lat="40.333126" lon="17.4231566"><ele>5.0</ele><time>2026-04-11T07:55:12.017Z</time></trkpt><trkpt lat="40.3331229" lon="17.4229217"><ele>5.0</ele><time>2026-04-11T07:55:13.02Z</time></trkpt><trkpt lat="40.3331241" lon="17.4226917"><ele>4.0</ele><time>2026-04-11T07:55:14.049Z</time></trkpt><trkpt lat="40.3331183" lon="17.4224598"><ele>3.0</ele><time>2026-04-11T07:55:15.017Z</time></trkpt><trkpt lat="40.3331163" lon="17.4222285"><ele>2.0</ele><time>2026-04-11T07:55:16.002Z</time></trkpt><trkpt lat="40.3331167" lon="17.4220023"><ele>2.0</ele><time>2026-04-11T07:55:17.045Z</time></trkpt><trkpt lat="40.3331138" lon="17.4217729"><ele>2.0</ele><time>2026-04-11T07:55:18.011Z</time></trkpt><trkpt lat="40.3331127" lon="17.4215492"><ele>2.0</ele><time>2026-04-11T07:55:19.001Z</time></trkpt><trkpt lat="40.33308" lon="17.4213668"><ele>3.0</ele><time>2026-04-11T07:55:20.012Z</time></trkpt><trkpt lat="40.3330788" lon="17.4211486"><ele>4.0</ele><time>2026-04-11T07:55:21.026Z</time></trkpt><trkpt lat="40.3330979" lon="17.4209145"><ele>5.0</ele><time>2026-04-11T07:55:22.015Z</time></trkpt><trkpt lat="40.3330941" lon="17.4206937"><ele>4.0</ele><time>2026-04-11T07:55:23.017Z</time></trkpt><trkpt lat="40.333093" lon="17.4204736"><ele>3.0</ele><time>2026-04-11T07:55:24.005Z</time></trkpt><trkpt lat="40.3330901" lon="17.4202526"><ele>2.0</ele><time>2026-04-11T07:55:25.038Z</time></trkpt><trkpt lat="40.3331059" lon="17.4200154"><ele>2.0</ele><time>2026-04-11T07:55:26.046Z</time></trkpt><trkpt lat="40.3331013" lon="17.4198001"><ele>2.0</ele><time>2026-04-11T07:55:27.046Z</time></trkpt><trkpt lat="40.3330962" lon="17.4195791"><ele>2.0</ele><time>2026-04-11T07:55:28.087Z</time></trkpt><trkpt lat="40.3330982" lon="17.4193636"><ele>1.0</ele><time>2026-04-11T07:55:29.021Z</time></trkpt><trkpt lat="40.3330965" lon="17.4191437"><ele>0.0</ele><time>2026-04-11T07:55:30.007Z</time></trkpt><trkpt lat="40.3330961" lon="17.4189204"><ele>-1.0</ele><time>2026-04-11T07:55:31.004Z</time></trkpt><trkpt lat="40.3330932" lon="17.4186932"><ele>-1.0</ele><time>2026-04-11T07:55:32.023Z</time></trkpt><trkpt lat="40.3330783" lon="17.4184697"><ele>-1.0</ele><time>2026-04-11T07:55:33.024Z</time></trkpt><trkpt lat="40.3330976" lon="17.4182123"><ele>-1.0</ele><time>2026-04-11T07:55:34.043Z</time></trkpt><trkpt lat="40.3330941" lon="17.4179724"><ele>0.0</ele><time>2026-04-11T07:55:35.015Z</time></trkpt><trkpt lat="40.3330892" lon="17.4177277"><ele>1.0</ele><time>2026-04-11T07:55:36.019Z</time></trkpt><trkpt lat="40.3330894" lon="17.4174906"><ele>2.0</ele><time>2026-04-11T07:55:37.019Z</time></trkpt><trkpt lat="40.3330875" lon="17.4172513"><ele>1.6666666666666665</ele><time>2026-04-11T07:55:38.004Z</time></trkpt><trkpt lat="40.3331003" lon="17.4170119"><ele>1.3333333333333333</ele><time>2026-04-11T07:55:39.019Z</time></trkpt><trkpt lat="40.3330977" lon="17.4167679"><ele>1.0</ele><time>2026-04-11T07:55:40.049Z</time></trkpt><trkpt lat="40.3330962" lon="17.4165214"><ele>1.3333333333333333</ele><time>2026-04-11T07:55:41.014Z</time></trkpt><trkpt lat="40.3331053" lon="17.4162591"><ele>1.6666666666666665</ele><time>2026-04-11T07:55:42.021Z</time></trkpt><trkpt lat="40.3331055" lon="17.4160149"><ele>2.0</ele><time>2026-04-11T07:55:43.018Z</time></trkpt><trkpt lat="40.3331068" lon="17.4157606"><ele>2.0</ele><time>2026-04-11T07:55:44.052Z</time></trkpt><trkpt lat="40.3331056" lon="17.415506"><ele>2.0</ele><time>2026-04-11T07:55:45.005Z</time></trkpt><trkpt lat="40.3330991" lon="17.4152464"><ele>2.0</ele><time>2026-04-11T07:55:46.005Z</time></trkpt><trkpt lat="40.333099" lon="17.4149917"><ele>2.333333333333333</ele><time>2026-04-11T07:55:47.024Z</time></trkpt><trkpt lat="40.3330967" lon="17.4147312"><ele>2.6666666666666665</ele><time>2026-04-11T07:55:48.059Z</time></trkpt><trkpt lat="40.3330991" lon="17.4144662"><ele>3.0</ele><time>2026-04-11T07:55:49.007Z</time></trkpt><trkpt lat="40.3330966" lon="17.4142085"><ele>3.0</ele><time>2026-04-11T07:55:50.045Z</time></trkpt><trkpt lat="40.3330884" lon="17.4139519"><ele>3.0</ele><time>2026-04-11T07:55:51.004Z</time></trkpt><trkpt lat="40.3330868" lon="17.4137056"><ele>3.0</ele><time>2026-04-11T07:55:52.017Z</time></trkpt><trkpt lat="40.3330644" lon="17.4134548"><ele>3.0</ele><time>2026-04-11T07:55:53.047Z</time></trkpt><trkpt lat="40.3330475" lon="17.4132014"><ele>3.0</ele><time>2026-04-11T07:55:54.045Z</time></trkpt><trkpt lat="40.3330357" lon="17.4129487"><ele>3.0</ele><time>2026-04-11T07:55:55.003Z</time></trkpt><trkpt lat="40.3330264" lon="17.412699"><ele>3.0</ele><time>2026-04-11T07:55:56.006Z</time></trkpt><trkpt lat="40.3330148" lon="17.4124461"><ele>3.0</ele><time>2026-04-11T07:55:57.01Z</time></trkpt><trkpt lat="40.3330006" lon="17.412212"><ele>3.0</ele><time>2026-04-11T07:55:58.04Z</time></trkpt><trkpt lat="40.3329885" lon="17.4119723"><ele>2.3333333333333335</ele><time>2026-04-11T07:55:59.005Z</time></trkpt><trkpt lat="40.3329842" lon="17.4117444"><ele>1.6666666666666665</ele><time>2026-04-11T07:56:00.017Z</time></trkpt><trkpt lat="40.3329805" lon="17.4115138"><ele>1.0</ele><time>2026-04-11T07:56:01.021Z</time></trkpt><trkpt lat="40.3329707" lon="17.4112878"><ele>1.0</ele><time>2026-04-11T07:56:02.005Z</time></trkpt><trkpt lat="40.3329589" lon="17.4110516"><ele>1.0</ele><time>2026-04-11T07:56:03.012Z</time></trkpt><trkpt lat="40.3329506" lon="17.4108324"><ele>1.0</ele><time>2026-04-11T07:56:04.019Z</time></trkpt><trkpt lat="40.3329387" lon="17.4106007"><ele>1.0</ele><time>2026-04-11T07:56:05.019Z</time></trkpt><trkpt lat="40.3329265" lon="17.4103626"><ele>1.0</ele><time>2026-04-11T07:56:06.022Z</time></trkpt><trkpt lat="40.3328975" lon="17.410137"><ele>1.0</ele><time>2026-04-11T07:56:07.022Z</time></trkpt><trkpt lat="40.3328789" lon="17.4099107"><ele>1.0</ele><time>2026-04-11T07:56:08.003Z</time></trkpt><trkpt lat="40.3328561" lon="17.4096861"><ele>1.0</ele><time>2026-04-11T07:56:09.009Z</time></trkpt><trkpt lat="40.3328469" lon="17.4094438"><ele>1.0</ele><time>2026-04-11T07:56:10.042Z</time></trkpt><trkpt lat="40.3328418" lon="17.40921"><ele>2.0</ele><time>2026-04-11T07:56:11.02Z</time></trkpt><trkpt lat="40.3328265" lon="17.4089874"><ele>3.0</ele><time>2026-04-11T07:56:12.084Z</time></trkpt><trkpt lat="40.332803" lon="17.4087634"><ele>4.0</ele><time>2026-04-11T07:56:13.012Z</time></trkpt><trkpt lat="40.3327932" lon="17.4085338"><ele>4.0</ele><time>2026-04-11T07:56:14.041Z</time></trkpt><trkpt lat="40.3327838" lon="17.4082954"><ele>4.0</ele><time>2026-04-11T07:56:15.048Z</time></trkpt><trkpt lat="40.3327723" lon="17.4080654"><ele>4.0</ele><time>2026-04-11T07:56:16.015Z</time></trkpt><trkpt lat="40.3327396" lon="17.4078436"><ele>4.0</ele><time>2026-04-11T07:56:17.023Z</time></trkpt><trkpt lat="40.3327266" lon="17.4076101"><ele>4.0</ele><time>2026-04-11T07:56:18.019Z</time></trkpt><trkpt lat="40.3327156" lon="17.4073796"><ele>4.0</ele><time>2026-04-11T07:56:19.004Z</time></trkpt><trkpt lat="40.3327015" lon="17.4071525"><ele>4.0</ele><time>2026-04-11T07:56:20.018Z</time></trkpt><trkpt lat="40.3326782" lon="17.4069321"><ele>4.0</ele><time>2026-04-11T07:56:21.014Z</time></trkpt><trkpt lat="40.3326638" lon="17.4067056"><ele>4.0</ele><time>2026-04-11T07:56:22.016Z</time></trkpt><trkpt lat="40.3326534" lon="17.4064731"><ele>3.6666666666666665</ele><time>2026-04-11T07:56:23.017Z</time></trkpt><trkpt lat="40.3326415" lon="17.4062414"><ele>3.333333333333333</ele><time>2026-04-11T07:56:24.005Z</time></trkpt><trkpt lat="40.3326246" lon="17.4060147"><ele>3.0</ele><time>2026-04-11T07:56:25.014Z</time></trkpt><trkpt lat="40.3326169" lon="17.4057778"><ele>3.0</ele><time>2026-04-11T07:56:26.029Z</time></trkpt><trkpt lat="40.3326108" lon="17.4055274"><ele>3.0</ele><time>2026-04-11T07:56:27.015Z</time></trkpt><trkpt lat="40.332603" lon="17.4052958"><ele>3.0</ele><time>2026-04-11T07:56:28.017Z</time></trkpt><trkpt lat="40.3325891" lon="17.4050525"><ele>3.0</ele><time>2026-04-11T07:56:29.019Z</time></trkpt><trkpt lat="40.3325752" lon="17.4048147"><ele>3.0</ele><time>2026-04-11T07:56:30.015Z</time></trkpt><trkpt lat="40.332558" lon="17.4045852"><ele>3.0</ele><time>2026-04-11T07:56:31.018Z</time></trkpt><trkpt lat="40.3325453" lon="17.4043599"><ele>3.0</ele><time>2026-04-11T07:56:32.018Z</time></trkpt><trkpt lat="40.3325326" lon="17.4041337"><ele>3.0</ele><time>2026-04-11T07:56:33.005Z</time></trkpt><trkpt lat="40.3325348" lon="17.4039206"><ele>3.0</ele><time>2026-04-11T07:56:34.006Z</time></trkpt><trkpt lat="40.3325374" lon="17.4037037"><ele>2.6666666666666665</ele><time>2026-04-11T07:56:35.014Z</time></trkpt><trkpt lat="40.3325518" lon="17.4034856"><ele>2.333333333333333</ele><time>2026-04-11T07:56:36.004Z</time></trkpt><trkpt lat="40.3325918" lon="17.4032654"><ele>2.0</ele><time>2026-04-11T07:56:37.044Z</time></trkpt><trkpt lat="40.3326343" lon="17.4030524"><ele>0.6666666666666666</ele><time>2026-04-11T07:56:38.057Z</time></trkpt><trkpt lat="40.3326885" lon="17.4028432"><ele>-0.6666666666666666</ele><time>2026-04-11T07:56:39.047Z</time></trkpt><trkpt lat="40.3327582" lon="17.4026394"><ele>-2.0</ele><time>2026-04-11T07:56:40.04Z</time></trkpt><trkpt lat="40.3328335" lon="17.4024444"><ele>-2.0</ele><time>2026-04-11T07:56:41.012Z</time></trkpt><trkpt lat="40.3329082" lon="17.402253"><ele>-2.0</ele><time>2026-04-11T07:56:42.001Z</time></trkpt><trkpt lat="40.3329933" lon="17.4020679"><ele>-2.0</ele><time>2026-04-11T07:56:43.008Z</time></trkpt><trkpt lat="40.3330727" lon="17.4018809"><ele>-1.0</ele><time>2026-04-11T07:56:44.019Z</time></trkpt><trkpt lat="40.3331289" lon="17.4016863"><ele>0.0</ele><time>2026-04-11T07:56:45.052Z</time></trkpt><trkpt lat="40.3332015" lon="17.4014927"><ele>1.0</ele><time>2026-04-11T07:56:46.017Z</time></trkpt><trkpt lat="40.3332766" lon="17.401299"><ele>1.0</ele><time>2026-04-11T07:56:47.015Z</time></trkpt><trkpt lat="40.333361" lon="17.4011131"><ele>1.0</ele><time>2026-04-11T07:56:48.013Z</time></trkpt><trkpt lat="40.3334362" lon="17.4009226"><ele>1.0</ele><time>2026-04-11T07:56:49.014Z</time></trkpt><trkpt lat="40.3335411" lon="17.4007354"><ele>1.0</ele><time>2026-04-11T07:56:50.019Z</time></trkpt><trkpt lat="40.3336283" lon="17.400542"><ele>1.0</ele><time>2026-04-11T07:56:51.004Z</time></trkpt><trkpt lat="40.3337167" lon="17.4003527"><ele>1.0</ele><time>2026-04-11T07:56:52.008Z</time></trkpt><trkpt lat="40.333795" lon="17.4001559"><ele>1.0</ele><time>2026-04-11T07:56:53.009Z</time></trkpt><trkpt lat="40.3338801" lon="17.3999698"><ele>1.0</ele><time>2026-04-11T07:56:54.011Z</time></trkpt><trkpt lat="40.3339608" lon="17.3997942"><ele>1.0</ele><time>2026-04-11T07:56:55.01Z</time></trkpt><trkpt lat="40.3340294" lon="17.3996041"><ele>1.3333333333333333</ele><time>2026-04-11T07:56:56.013Z</time></trkpt><trkpt lat="40.3341226" lon="17.3994301"><ele>1.6666666666666665</ele><time>2026-04-11T07:56:57.046Z</time></trkpt><trkpt lat="40.334192" lon="17.3992522"><ele>2.0</ele><time>2026-04-11T07:56:58.046Z</time></trkpt><trkpt lat="40.3342577" lon="17.3990829"><ele>2.0</ele><time>2026-04-11T07:56:59.043Z</time></trkpt><trkpt lat="40.3343298" lon="17.3989098"><ele>2.0</ele><time>2026-04-11T07:56:59.998Z</time></trkpt><trkpt lat="40.3344077" lon="17.3987313"><ele>2.0</ele><time>2026-04-11T07:57:01.006Z</time></trkpt><trkpt lat="40.3344902" lon="17.3985449"><ele>2.0</ele><time>2026-04-11T07:57:02.046Z</time></trkpt><trkpt lat="40.3345649" lon="17.3983658"><ele>2.0</ele><time>2026-04-11T07:57:03.02Z</time></trkpt><trkpt lat="40.3346497" lon="17.3981655"><ele>2.0</ele><time>2026-04-11T07:57:04.025Z</time></trkpt><trkpt lat="40.3347258" lon="17.397981"><ele>2.0</ele><time>2026-04-11T07:57:05.009Z</time></trkpt><trkpt lat="40.3348047" lon="17.3977832"><ele>2.0</ele><time>2026-04-11T07:57:06.006Z</time></trkpt><trkpt lat="40.3348865" lon="17.3975845"><ele>2.0</ele><time>2026-04-11T07:57:07.014Z</time></trkpt><trkpt lat="40.3349716" lon="17.3973906"><ele>2.0</ele><time>2026-04-11T07:57:08.01Z</time></trkpt><trkpt lat="40.3350533" lon="17.3971848"><ele>2.0</ele><time>2026-04-11T07:57:09.016Z</time></trkpt><trkpt lat="40.3351354" lon="17.3969844"><ele>2.0</ele><time>2026-04-11T07:57:10.014Z</time></trkpt><trkpt lat="40.335213" lon="17.3967911"><ele>2.6666666666666665</ele><time>2026-04-11T07:57:11.049Z</time></trkpt><trkpt lat="40.3352988" lon="17.396584"><ele>3.333333333333333</ele><time>2026-04-11T07:57:12.005Z</time></trkpt><trkpt lat="40.3353781" lon="17.3963785"><ele>4.0</ele><time>2026-04-11T07:57:13.006Z</time></trkpt><trkpt lat="40.335468" lon="17.3961723"><ele>4.0</ele><time>2026-04-11T07:57:14.04Z</time></trkpt><trkpt lat="40.3355573" lon="17.3959529"><ele>4.0</ele><time>2026-04-11T07:57:15.047Z</time></trkpt><trkpt lat="40.3356407" lon="17.3957272"><ele>4.0</ele><time>2026-04-11T07:57:16.069Z</time></trkpt><trkpt lat="40.335732" lon="17.3955088"><ele>4.0</ele><time>2026-04-11T07:57:17.03Z</time></trkpt><trkpt lat="40.3358291" lon="17.3952929"><ele>4.0</ele><time>2026-04-11T07:57:18.01Z</time></trkpt><trkpt lat="40.335929" lon="17.3950592"><ele>4.0</ele><time>2026-04-11T07:57:19.04Z</time></trkpt><trkpt lat="40.3360223" lon="17.3948301"><ele>4.0</ele><time>2026-04-11T07:57:20.041Z</time></trkpt><trkpt lat="40.3361274" lon="17.3946058"><ele>4.0</ele><time>2026-04-11T07:57:21.049Z</time></trkpt><trkpt lat="40.336237" lon="17.3943642"><ele>4.0</ele><time>2026-04-11T07:57:22.017Z</time></trkpt><trkpt lat="40.3363341" lon="17.3941362"><ele>4.0</ele><time>2026-04-11T07:57:23.011Z</time></trkpt><trkpt lat="40.3364229" lon="17.3939315"><ele>4.0</ele><time>2026-04-11T07:57:24.005Z</time></trkpt><trkpt lat="40.3365079" lon="17.3937223"><ele>4.0</ele><time>2026-04-11T07:57:25.073Z</time></trkpt><trkpt lat="40.3365922" lon="17.3935178"><ele>4.0</ele><time>2026-04-11T07:57:26.077Z</time></trkpt><trkpt lat="40.3366771" lon="17.3933143"><ele>4.0</ele><time>2026-04-11T07:57:27.019Z</time></trkpt><trkpt lat="40.3367671" lon="17.3931013"><ele>4.0</ele><time>2026-04-11T07:57:28.043Z</time></trkpt><trkpt lat="40.3368548" lon="17.3928913"><ele>4.0</ele><time>2026-04-11T07:57:29.002Z</time></trkpt><trkpt lat="40.3369428" lon="17.3926649"><ele>4.0</ele><time>2026-04-11T07:57:30.021Z</time></trkpt><trkpt lat="40.3370299" lon="17.3924593"><ele>4.0</ele><time>2026-04-11T07:57:31.083Z</time></trkpt><trkpt lat="40.3371232" lon="17.3922389"><ele>4.0</ele><time>2026-04-11T07:57:32.015Z</time></trkpt><trkpt lat="40.3372136" lon="17.3920229"><ele>4.0</ele><time>2026-04-11T07:57:33.045Z</time></trkpt><trkpt lat="40.3373056" lon="17.3918015"><ele>4.0</ele><time>2026-04-11T07:57:34.004Z</time></trkpt><trkpt lat="40.3373987" lon="17.3915752"><ele>3.333333333333333</ele><time>2026-04-11T07:57:35.013Z</time></trkpt><trkpt lat="40.3374988" lon="17.3913382"><ele>2.6666666666666665</ele><time>2026-04-11T07:57:36.01Z</time></trkpt><trkpt lat="40.3375949" lon="17.3911105"><ele>2.0</ele><time>2026-04-11T07:57:37.046Z</time></trkpt><trkpt lat="40.3376909" lon="17.3908805"><ele>2.0</ele><time>2026-04-11T07:57:38.001Z</time></trkpt><trkpt lat="40.3377977" lon="17.3906556"><ele>2.0</ele><time>2026-04-11T07:57:39.014Z</time></trkpt><trkpt lat="40.3378918" lon="17.3904257"><ele>2.0</ele><time>2026-04-11T07:57:40.008Z</time></trkpt><trkpt lat="40.3379637" lon="17.390193"><ele>2.0</ele><time>2026-04-11T07:57:41.012Z</time></trkpt><trkpt lat="40.338061" lon="17.3899632"><ele>2.0</ele><time>2026-04-11T07:57:42.02Z</time></trkpt><trkpt lat="40.3381658" lon="17.3897332"><ele>2.0</ele><time>2026-04-11T07:57:43.02Z</time></trkpt><trkpt lat="40.3382613" lon="17.3895189"><ele>2.0</ele><time>2026-04-11T07:57:44.022Z</time></trkpt><trkpt lat="40.3383576" lon="17.3892965"><ele>2.0</ele><time>2026-04-11T07:57:45.056Z</time></trkpt><trkpt lat="40.3384515" lon="17.3890707"><ele>2.0</ele><time>2026-04-11T07:57:46.021Z</time></trkpt><trkpt lat="40.3385444" lon="17.3888489"><ele>2.0</ele><time>2026-04-11T07:57:47.009Z</time></trkpt><trkpt lat="40.3386315" lon="17.3886332"><ele>2.0</ele><time>2026-04-11T07:57:48.012Z</time></trkpt><trkpt lat="40.3387233" lon="17.3884142"><ele>2.0</ele><time>2026-04-11T07:57:49.008Z</time></trkpt><trkpt lat="40.338812" lon="17.3882015"><ele>3.0</ele><time>2026-04-11T07:57:50.018Z</time></trkpt><trkpt lat="40.3389097" lon="17.3879789"><ele>4.0</ele><time>2026-04-11T07:57:51.099Z</time></trkpt><trkpt lat="40.3389972" lon="17.3877653"><ele>5.0</ele><time>2026-04-11T07:57:52.048Z</time></trkpt><trkpt lat="40.3390867" lon="17.3875539"><ele>5.0</ele><time>2026-04-11T07:57:53Z</time></trkpt><trkpt lat="40.3391829" lon="17.3873592"><ele>5.0</ele><time>2026-04-11T07:57:54.009Z</time></trkpt><trkpt lat="40.3392668" lon="17.3871469"><ele>5.0</ele><time>2026-04-11T07:57:55.01Z</time></trkpt><trkpt lat="40.3393559" lon="17.3869427"><ele>5.0</ele><time>2026-04-11T07:57:56.009Z</time></trkpt><trkpt lat="40.3394413" lon="17.3867351"><ele>5.0</ele><time>2026-04-11T07:57:57.016Z</time></trkpt><trkpt lat="40.3395178" lon="17.3865393"><ele>5.0</ele><time>2026-04-11T07:57:58.013Z</time></trkpt><trkpt lat="40.3395974" lon="17.3863415"><ele>5.0</ele><time>2026-04-11T07:57:59.026Z</time></trkpt><trkpt lat="40.3396699" lon="17.3861658"><ele>5.0</ele><time>2026-04-11T07:58:00.017Z</time></trkpt><trkpt lat="40.3397411" lon="17.3859984"><ele>5.0</ele><time>2026-04-11T07:58:01.015Z</time></trkpt><trkpt lat="40.3398083" lon="17.3858355"><ele>5.0</ele><time>2026-04-11T07:58:02.014Z</time></trkpt><trkpt lat="40.3398728" lon="17.3856842"><ele>5.0</ele><time>2026-04-11T07:58:03.014Z</time></trkpt><trkpt lat="40.3399411" lon="17.3855232"><ele>5.0</ele><time>2026-04-11T07:58:04.018Z</time></trkpt><trkpt lat="40.3400072" lon="17.3853629"><ele>5.0</ele><time>2026-04-11T07:58:05.099Z</time></trkpt><trkpt lat="40.3400772" lon="17.3852057"><ele>5.0</ele><time>2026-04-11T07:58:06.006Z</time></trkpt><trkpt lat="40.3401578" lon="17.3850612"><ele>5.0</ele><time>2026-04-11T07:58:07.016Z</time></trkpt><trkpt lat="40.3402513" lon="17.3849276"><ele>5.0</ele><time>2026-04-11T07:58:08.045Z</time></trkpt><trkpt lat="40.3403443" lon="17.3847984"><ele>5.0</ele><time>2026-04-11T07:58:08.999Z</time></trkpt><trkpt lat="40.3404493" lon="17.384693"><ele>5.0</ele><time>2026-04-11T07:58:10.042Z</time></trkpt><trkpt lat="40.3405589" lon="17.3845823"><ele>4.25</ele><time>2026-04-11T07:58:11.003Z</time></trkpt><trkpt lat="40.3406938" lon="17.3845077"><ele>3.5</ele><time>2026-04-11T07:58:12.055Z</time></trkpt><trkpt lat="40.3408305" lon="17.384432"><ele>2.75</ele><time>2026-04-11T07:58:13.011Z</time></trkpt><trkpt lat="40.3409722" lon="17.3843566"><ele>2.0</ele><time>2026-04-11T07:58:14.042Z</time></trkpt><trkpt lat="40.3411276" lon="17.3842794"><ele>2.0</ele><time>2026-04-11T07:58:15.012Z</time></trkpt><trkpt lat="40.341282" lon="17.3841824"><ele>2.0</ele><time>2026-04-11T07:58:16.039Z</time></trkpt><trkpt lat="40.3414358" lon="17.3840916"><ele>2.0</ele><time>2026-04-11T07:58:17Z</time></trkpt><trkpt lat="40.3415885" lon="17.3839911"><ele>3.333333333333333</ele><time>2026-04-11T07:58:18.001Z</time></trkpt><trkpt lat="40.3417407" lon="17.3839033"><ele>4.666666666666667</ele><time>2026-04-11T07:58:19.012Z</time></trkpt><trkpt lat="40.3418927" lon="17.3838259"><ele>6.0</ele><time>2026-04-11T07:58:20.045Z</time></trkpt><trkpt lat="40.3420344" lon="17.3837381"><ele>6.0</ele><time>2026-04-11T07:58:21.04Z</time></trkpt><trkpt lat="40.3421787" lon="17.3836552"><ele>6.0</ele><time>2026-04-11T07:58:22Z</time></trkpt><trkpt lat="40.3423226" lon="17.3835799"><ele>6.0</ele><time>2026-04-11T07:58:23.013Z</time></trkpt><trkpt lat="40.3424696" lon="17.3834921"><ele>7.25</ele><time>2026-04-11T07:58:24.018Z</time></trkpt><trkpt lat="40.3426127" lon="17.3834102"><ele>8.5</ele><time>2026-04-11T07:58:25.046Z</time></trkpt><trkpt lat="40.3427518" lon="17.3833394"><ele>9.75</ele><time>2026-04-11T07:58:26.013Z</time></trkpt><trkpt lat="40.3428807" lon="17.3832558"><ele>11.0</ele><time>2026-04-11T07:58:27.045Z</time></trkpt><trkpt lat="40.3430143" lon="17.3831759"><ele>12.666666666666666</ele><time>2026-04-11T07:58:28.003Z</time></trkpt><trkpt lat="40.3431437" lon="17.3830928"><ele>14.333333333333332</ele><time>2026-04-11T07:58:29.008Z</time></trkpt><trkpt lat="40.3432843" lon="17.3830081"><ele>16.0</ele><time>2026-04-11T07:58:30.016Z</time></trkpt><trkpt lat="40.3434273" lon="17.3829278"><ele>16.0</ele><time>2026-04-11T07:58:31.015Z</time></trkpt><trkpt lat="40.3435719" lon="17.3828412"><ele>16.0</ele><time>2026-04-11T07:58:32.014Z</time></trkpt><trkpt lat="40.3437174" lon="17.3827572"><ele>16.0</ele><time>2026-04-11T07:58:33.002Z</time></trkpt><trkpt lat="40.3438878" lon="17.3826685"><ele>15.666666666666666</ele><time>2026-04-11T07:58:34.005Z</time></trkpt><trkpt lat="40.3440349" lon="17.3825909"><ele>15.333333333333332</ele><time>2026-04-11T07:58:35.007Z</time></trkpt><trkpt lat="40.3441909" lon="17.3824809"><ele>15.0</ele><time>2026-04-11T07:58:36.025Z</time></trkpt><trkpt lat="40.3443719" lon="17.3824569"><ele>15.0</ele><time>2026-04-11T07:58:37.015Z</time></trkpt><trkpt lat="40.344528" lon="17.3823659"><ele>15.0</ele><time>2026-04-11T07:58:38.006Z</time></trkpt><trkpt lat="40.3446842" lon="17.382268"><ele>15.0</ele><time>2026-04-11T07:58:39.005Z</time></trkpt><trkpt lat="40.3448369" lon="17.3821716"><ele>12.0</ele><time>2026-04-11T07:58:40.015Z</time></trkpt><trkpt lat="40.344987" lon="17.3820843"><ele>9.0</ele><time>2026-04-11T07:58:41.009Z</time></trkpt><trkpt lat="40.3451433" lon="17.382006"><ele>6.0</ele><time>2026-04-11T07:58:42.012Z</time></trkpt><trkpt lat="40.3452975" lon="17.3819185"><ele>6.0</ele><time>2026-04-11T07:58:43.014Z</time></trkpt><trkpt lat="40.3454396" lon="17.3818166"><ele>6.0</ele><time>2026-04-11T07:58:44.011Z</time></trkpt><trkpt lat="40.3455879" lon="17.3817476"><ele>6.0</ele><time>2026-04-11T07:58:45.009Z</time></trkpt><trkpt lat="40.3457297" lon="17.3816886"><ele>7.5</ele><time>2026-04-11T07:58:46.014Z</time></trkpt><trkpt lat="40.3458644" lon="17.3816213"><ele>9.0</ele><time>2026-04-11T07:58:47.011Z</time></trkpt><trkpt lat="40.3459881" lon="17.3815464"><ele>10.5</ele><time>2026-04-11T07:58:48.015Z</time></trkpt><trkpt lat="40.346121" lon="17.3814596"><ele>12.0</ele><time>2026-04-11T07:58:49.01Z</time></trkpt><trkpt lat="40.3462502" lon="17.3813768"><ele>11.0</ele><time>2026-04-11T07:58:50.01Z</time></trkpt><trkpt lat="40.34638" lon="17.381298"><ele>10.0</ele><time>2026-04-11T07:58:51.009Z</time></trkpt><trkpt lat="40.3464923" lon="17.3812105"><ele>9.0</ele><time>2026-04-11T07:58:52.005Z</time></trkpt><trkpt lat="40.3465934" lon="17.3811192"><ele>8.0</ele><time>2026-04-11T07:58:53.014Z</time></trkpt><trkpt lat="40.3466884" lon="17.38102"><ele>8.0</ele><time>2026-04-11T07:58:54.005Z</time></trkpt><trkpt lat="40.3467852" lon="17.3809259"><ele>8.0</ele><time>2026-04-11T07:58:55.022Z</time></trkpt><trkpt lat="40.3468745" lon="17.3808045"><ele>8.0</ele><time>2026-04-11T07:58:56.011Z</time></trkpt><trkpt lat="40.3469568" lon="17.38066"><ele>8.0</ele><time>2026-04-11T07:58:57.007Z</time></trkpt><trkpt lat="40.3470354" lon="17.3805117"><ele>7.5</ele><time>2026-04-11T07:58:58.038Z</time></trkpt><trkpt lat="40.3471059" lon="17.3803505"><ele>7.0</ele><time>2026-04-11T07:58:59.007Z</time></trkpt><trkpt lat="40.3471736" lon="17.3801813"><ele>6.5</ele><time>2026-04-11T07:59:00.008Z</time></trkpt><trkpt lat="40.3472448" lon="17.3800132"><ele>6.0</ele><time>2026-04-11T07:59:01.011Z</time></trkpt><trkpt lat="40.3473144" lon="17.379851"><ele>7.0</ele><time>2026-04-11T07:59:02.014Z</time></trkpt><trkpt lat="40.347376" lon="17.379696"><ele>8.0</ele><time>2026-04-11T07:59:03.006Z</time></trkpt><trkpt lat="40.3474306" lon="17.3795377"><ele>9.0</ele><time>2026-04-11T07:59:04.012Z</time></trkpt><trkpt lat="40.3474906" lon="17.3793859"><ele>10.0</ele><time>2026-04-11T07:59:05.016Z</time></trkpt><trkpt lat="40.3475542" lon="17.3792301"><ele>10.0</ele><time>2026-04-11T07:59:06.004Z</time></trkpt><trkpt lat="40.3476213" lon="17.3790722"><ele>10.0</ele><time>2026-04-11T07:59:07.008Z</time></trkpt><trkpt lat="40.3476849" lon="17.378915"><ele>10.0</ele><time>2026-04-11T07:59:08.003Z</time></trkpt><trkpt lat="40.3477465" lon="17.37876"><ele>10.0</ele><time>2026-04-11T07:59:09.01Z</time></trkpt><trkpt lat="40.34781" lon="17.3785968"><ele>10.666666666666668</ele><time>2026-04-11T07:59:10.007Z</time></trkpt><trkpt lat="40.3478847" lon="17.3784326"><ele>11.333333333333334</ele><time>2026-04-11T07:59:11.012Z</time></trkpt><trkpt lat="40.3479492" lon="17.3782499"><ele>12.0</ele><time>2026-04-11T07:59:12.018Z</time></trkpt><trkpt lat="40.3480207" lon="17.3780662"><ele>12.25</ele><time>2026-04-11T07:59:13.014Z</time></trkpt><trkpt lat="40.3480866" lon="17.3778938"><ele>12.5</ele><time>2026-04-11T07:59:14Z</time></trkpt><trkpt lat="40.348148" lon="17.377719"><ele>12.75</ele><time>2026-04-11T07:59:15.006Z</time></trkpt><trkpt lat="40.3482156" lon="17.377542"><ele>13.0</ele><time>2026-04-11T07:59:16.019Z</time></trkpt><trkpt lat="40.3482848" lon="17.377365"><ele>12.0</ele><time>2026-04-11T07:59:17.05Z</time></trkpt><trkpt lat="40.3483529" lon="17.3771838"><ele>11.0</ele><time>2026-04-11T07:59:18.048Z</time></trkpt><trkpt lat="40.3484262" lon="17.3770112"><ele>10.0</ele><time>2026-04-11T07:59:19.036Z</time></trkpt><trkpt lat="40.3484998" lon="17.3768252"><ele>10.0</ele><time>2026-04-11T07:59:20.047Z</time></trkpt><trkpt lat="40.3485677" lon="17.3766391"><ele>10.0</ele><time>2026-04-11T07:59:21.066Z</time></trkpt><trkpt lat="40.3486379" lon="17.3764591"><ele>10.0</ele><time>2026-04-11T07:59:22Z</time></trkpt><trkpt lat="40.3487091" lon="17.3762775"><ele>11.0</ele><time>2026-04-11T07:59:23.047Z</time></trkpt><trkpt lat="40.3487783" lon="17.3760849"><ele>12.0</ele><time>2026-04-11T07:59:24.015Z</time></trkpt><trkpt lat="40.3488537" lon="17.3758959"><ele>13.0</ele><time>2026-04-11T07:59:25.047Z</time></trkpt><trkpt lat="40.3489125" lon="17.3757041"><ele>10.666666666666666</ele><time>2026-04-11T07:59:26.012Z</time></trkpt><trkpt lat="40.3489841" lon="17.375514"><ele>8.333333333333332</ele><time>2026-04-11T07:59:27.003Z</time></trkpt><trkpt lat="40.3490607" lon="17.3753331"><ele>6.0</ele><time>2026-04-11T07:59:28.013Z</time></trkpt><trkpt lat="40.3491322" lon="17.3751464"><ele>6.0</ele><time>2026-04-11T07:59:29.019Z</time></trkpt><trkpt lat="40.3492393" lon="17.3749619"><ele>6.0</ele><time>2026-04-11T07:59:30.015Z</time></trkpt><trkpt lat="40.3493072" lon="17.3747774"><ele>6.0</ele><time>2026-04-11T07:59:31.018Z</time></trkpt><trkpt lat="40.3493774" lon="17.3745961"><ele>5.0</ele><time>2026-04-11T07:59:32.02Z</time></trkpt><trkpt lat="40.3494482" lon="17.3744135"><ele>4.0</ele><time>2026-04-11T07:59:33.004Z</time></trkpt><trkpt lat="40.3495177" lon="17.3742466"><ele>3.0</ele><time>2026-04-11T07:59:34.089Z</time></trkpt><trkpt lat="40.3495877" lon="17.3740811"><ele>2.0</ele><time>2026-04-11T07:59:35.051Z</time></trkpt><trkpt lat="40.3496418" lon="17.373916"><ele>4.0</ele><time>2026-04-11T07:59:36.021Z</time></trkpt><trkpt lat="40.3497113" lon="17.3737459"><ele>6.0</ele><time>2026-04-11T07:59:37.018Z</time></trkpt><trkpt lat="40.3497596" lon="17.3735721"><ele>8.0</ele><time>2026-04-11T07:59:38.016Z</time></trkpt><trkpt lat="40.3498018" lon="17.3733913"><ele>10.0</ele><time>2026-04-11T07:59:39.02Z</time></trkpt><trkpt lat="40.3498379" lon="17.3731984"><ele>9.666666666666668</ele><time>2026-04-11T07:59:40.014Z</time></trkpt><trkpt lat="40.3498744" lon="17.3730154"><ele>9.333333333333334</ele><time>2026-04-11T07:59:41.001Z</time></trkpt><trkpt lat="40.3498684" lon="17.3728055"><ele>9.0</ele><time>2026-04-11T07:59:42.013Z</time></trkpt><trkpt lat="40.3498823" lon="17.3726133"><ele>9.0</ele><time>2026-04-11T07:59:43.008Z</time></trkpt><trkpt lat="40.3498833" lon="17.3724184"><ele>9.0</ele><time>2026-04-11T07:59:44.011Z</time></trkpt><trkpt lat="40.3498772" lon="17.372226"><ele>9.0</ele><time>2026-04-11T07:59:45.019Z</time></trkpt><trkpt lat="40.3498803" lon="17.3720458"><ele>9.0</ele><time>2026-04-11T07:59:46.051Z</time></trkpt><trkpt lat="40.3498827" lon="17.3718599"><ele>9.25</ele><time>2026-04-11T07:59:47.006Z</time></trkpt><trkpt lat="40.3498877" lon="17.3716797"><ele>9.5</ele><time>2026-04-11T07:59:48.043Z</time></trkpt><trkpt lat="40.3498777" lon="17.3715046"><ele>9.75</ele><time>2026-04-11T07:59:49.043Z</time></trkpt><trkpt lat="40.349872" lon="17.3713466"><ele>10.0</ele><time>2026-04-11T07:59:50.008Z</time></trkpt><trkpt lat="40.349873" lon="17.3711882"><ele>10.0</ele><time>2026-04-11T07:59:51.008Z</time></trkpt><trkpt lat="40.3498746" lon="17.3710537"><ele>10.0</ele><time>2026-04-11T07:59:52.049Z</time></trkpt><trkpt lat="40.3498752" lon="17.3709064"><ele>10.0</ele><time>2026-04-11T07:59:53.006Z</time></trkpt><trkpt lat="40.3498807" lon="17.3707581"><ele>10.0</ele><time>2026-04-11T07:59:54.016Z</time></trkpt><trkpt lat="40.3498918" lon="17.3705864"><ele>10.75</ele><time>2026-04-11T07:59:55.018Z</time></trkpt><trkpt lat="40.3498866" lon="17.3704211"><ele>11.5</ele><time>2026-04-11T07:59:56.009Z</time></trkpt><trkpt lat="40.3498858" lon="17.370246"><ele>12.25</ele><time>2026-04-11T07:59:57.014Z</time></trkpt><trkpt lat="40.3498819" lon="17.3700566"><ele>13.0</ele><time>2026-04-11T07:59:58.019Z</time></trkpt><trkpt lat="40.3498812" lon="17.3698724"><ele>13.5</ele><time>2026-04-11T07:59:59.02Z</time></trkpt><trkpt lat="40.349873" lon="17.3696802"><ele>14.0</ele><time>2026-04-11T08:00:00.015Z</time></trkpt><trkpt lat="40.3498838" lon="17.3695037"><ele>14.5</ele><time>2026-04-11T08:00:01.017Z</time></trkpt><trkpt lat="40.3498848" lon="17.3693402"><ele>15.0</ele><time>2026-04-11T08:00:02.01Z</time></trkpt><trkpt lat="40.3498803" lon="17.3691769"><ele>15.0</ele><time>2026-04-11T08:00:03.011Z</time></trkpt><trkpt lat="40.3498992" lon="17.3690393"><ele>15.0</ele><time>2026-04-11T08:00:04.018Z</time></trkpt><trkpt lat="40.3499086" lon="17.3689246"><ele>15.0</ele><time>2026-04-11T08:00:05.016Z</time></trkpt><trkpt lat="40.349929" lon="17.3687984"><ele>15.0</ele><time>2026-04-11T08:00:06.018Z</time></trkpt><trkpt lat="40.3499475" lon="17.3686772"><ele>15.0</ele><time>2026-04-11T08:00:07.016Z</time></trkpt><trkpt lat="40.3499794" lon="17.3685465"><ele>15.0</ele><time>2026-04-11T08:00:08.014Z</time></trkpt><trkpt lat="40.3500026" lon="17.3684102"><ele>15.0</ele><time>2026-04-11T08:00:09.007Z</time></trkpt><trkpt lat="40.3500434" lon="17.3682836"><ele>15.0</ele><time>2026-04-11T08:00:10.009Z</time></trkpt><trkpt lat="40.350091" lon="17.368158"><ele>15.0</ele><time>2026-04-11T08:00:11.002Z</time></trkpt><trkpt lat="40.3501703" lon="17.3680431"><ele>15.0</ele><time>2026-04-11T08:00:12.011Z</time></trkpt><trkpt lat="40.3502531" lon="17.3679194"><ele>14.25</ele><time>2026-04-11T08:00:13.056Z</time></trkpt><trkpt lat="40.3503358" lon="17.3677978"><ele>13.5</ele><time>2026-04-11T08:00:14.007Z</time></trkpt><trkpt lat="40.3504232" lon="17.3676836"><ele>12.75</ele><time>2026-04-11T08:00:15.015Z</time></trkpt><trkpt lat="40.3505066" lon="17.367574"><ele>12.0</ele><time>2026-04-11T08:00:16.013Z</time></trkpt><trkpt lat="40.3505844" lon="17.3674633"><ele>12.0</ele><time>2026-04-11T08:00:17.015Z</time></trkpt><trkpt lat="40.3506696" lon="17.3673418"><ele>12.0</ele><time>2026-04-11T08:00:18.008Z</time></trkpt><trkpt lat="40.3507483" lon="17.3672311"><ele>12.0</ele><time>2026-04-11T08:00:18.999Z</time></trkpt><trkpt lat="40.3508273" lon="17.3671208"><ele>12.0</ele><time>2026-04-11T08:00:20.001Z</time></trkpt><trkpt lat="40.3509071" lon="17.3670254"><ele>10.5</ele><time>2026-04-11T08:00:21.004Z</time></trkpt><trkpt lat="40.3510031" lon="17.3669412"><ele>9.0</ele><time>2026-04-11T08:00:22.007Z</time></trkpt><trkpt lat="40.3510954" lon="17.3668281"><ele>7.5</ele><time>2026-04-11T08:00:23.012Z</time></trkpt><trkpt lat="40.3511853" lon="17.366713"><ele>6.0</ele><time>2026-04-11T08:00:24.015Z</time></trkpt><trkpt lat="40.3512747" lon="17.3665971"><ele>6.0</ele><time>2026-04-11T08:00:25.038Z</time></trkpt><trkpt lat="40.351367" lon="17.3664771"><ele>6.0</ele><time>2026-04-11T08:00:26.027Z</time></trkpt><trkpt lat="40.3514573" lon="17.3663587"><ele>6.0</ele><time>2026-04-11T08:00:27.016Z</time></trkpt><trkpt lat="40.3515482" lon="17.3662342"><ele>6.0</ele><time>2026-04-11T08:00:28.015Z</time></trkpt><trkpt lat="40.3516442" lon="17.3661031"><ele>7.25</ele><time>2026-04-11T08:00:29.014Z</time></trkpt><trkpt lat="40.3517479" lon="17.3659755"><ele>8.5</ele><time>2026-04-11T08:00:30.013Z</time></trkpt><trkpt lat="40.3518464" lon="17.3658461"><ele>9.75</ele><time>2026-04-11T08:00:31.018Z</time></trkpt><trkpt lat="40.3519505" lon="17.365709"><ele>11.0</ele><time>2026-04-11T08:00:32.017Z</time></trkpt><trkpt lat="40.3520538" lon="17.3655739"><ele>10.25</ele><time>2026-04-11T08:00:33.018Z</time></trkpt><trkpt lat="40.3521505" lon="17.3654449"><ele>9.5</ele><time>2026-04-11T08:00:34.011Z</time></trkpt><trkpt lat="40.3522443" lon="17.3653208"><ele>8.75</ele><time>2026-04-11T08:00:35.002Z</time></trkpt><trkpt lat="40.3523411" lon="17.3651984"><ele>8.0</ele><time>2026-04-11T08:00:36.016Z</time></trkpt><trkpt lat="40.3524316" lon="17.3650773"><ele>8.0</ele><time>2026-04-11T08:00:37.018Z</time></trkpt><trkpt lat="40.3525258" lon="17.3649513"><ele>8.0</ele><time>2026-04-11T08:00:38.018Z</time></trkpt><trkpt lat="40.3526208" lon="17.3648201"><ele>8.0</ele><time>2026-04-11T08:00:39.018Z</time></trkpt><trkpt lat="40.3527197" lon="17.3646881"><ele>8.0</ele><time>2026-04-11T08:00:40.021Z</time></trkpt><trkpt lat="40.3528142" lon="17.3645512"><ele>8.0</ele><time>2026-04-11T08:00:41.016Z</time></trkpt><trkpt lat="40.3529119" lon="17.3644073"><ele>8.0</ele><time>2026-04-11T08:00:42.049Z</time></trkpt><trkpt lat="40.3529964" lon="17.3642803"><ele>8.0</ele><time>2026-04-11T08:00:43.013Z</time></trkpt><trkpt lat="40.3530733" lon="17.3641486"><ele>8.0</ele><time>2026-04-11T08:00:44.015Z</time></trkpt><trkpt lat="40.3531419" lon="17.3640187"><ele>8.0</ele><time>2026-04-11T08:00:45.017Z</time></trkpt><trkpt lat="40.3532066" lon="17.3638941"><ele>8.0</ele><time>2026-04-11T08:00:46.006Z</time></trkpt><trkpt lat="40.3532618" lon="17.3637758"><ele>8.0</ele><time>2026-04-11T08:00:47.042Z</time></trkpt><trkpt lat="40.3533115" lon="17.3636565"><ele>8.0</ele><time>2026-04-11T08:00:48.011Z</time></trkpt><trkpt lat="40.3533522" lon="17.3635514"><ele>8.0</ele><time>2026-04-11T08:00:49.016Z</time></trkpt><trkpt lat="40.3533928" lon="17.3634438"><ele>7.6000000000000005</ele><time>2026-04-11T08:00:50.018Z</time></trkpt><trkpt lat="40.3534362" lon="17.3633533"><ele>7.200000000000001</ele><time>2026-04-11T08:00:51.018Z</time></trkpt><trkpt lat="40.3534792" lon="17.3632589"><ele>6.8</ele><time>2026-04-11T08:00:52.002Z</time></trkpt><trkpt lat="40.3535294" lon="17.3631643"><ele>6.4</ele><time>2026-04-11T08:00:53.017Z</time></trkpt><trkpt lat="40.3535789" lon="17.3630523"><ele>6.0</ele><time>2026-04-11T08:00:54.092Z</time></trkpt><trkpt lat="40.3536261" lon="17.3629396"><ele>6.0</ele><time>2026-04-11T08:00:55.043Z</time></trkpt><trkpt lat="40.3536765" lon="17.3628203"><ele>6.0</ele><time>2026-04-11T08:00:56.035Z</time></trkpt><trkpt lat="40.3537274" lon="17.3626953"><ele>6.0</ele><time>2026-04-11T08:00:57.017Z</time></trkpt><trkpt lat="40.3537872" lon="17.3625804"><ele>6.0</ele><time>2026-04-11T08:00:58.041Z</time></trkpt><trkpt lat="40.3538437" lon="17.3624589"><ele>6.0</ele><time>2026-04-11T08:00:59.01Z</time></trkpt><trkpt lat="40.353891" lon="17.3623417"><ele>6.0</ele><time>2026-04-11T08:01:00.048Z</time></trkpt><trkpt lat="40.353947" lon="17.3622321"><ele>6.0</ele><time>2026-04-11T08:01:01.018Z</time></trkpt><trkpt lat="40.3540052" lon="17.3621226"><ele>6.0</ele><time>2026-04-11T08:01:02.014Z</time></trkpt><trkpt lat="40.3540642" lon="17.3620095"><ele>6.0</ele><time>2026-04-11T08:01:03.016Z</time></trkpt><trkpt lat="40.3541181" lon="17.3618872"><ele>6.0</ele><time>2026-04-11T08:01:04.049Z</time></trkpt><trkpt lat="40.3541808" lon="17.3617551"><ele>6.0</ele><time>2026-04-11T08:01:05.017Z</time></trkpt><trkpt lat="40.3542375" lon="17.36163"><ele>6.0</ele><time>2026-04-11T08:01:06.004Z</time></trkpt><trkpt lat="40.3542974" lon="17.3614985"><ele>6.0</ele><time>2026-04-11T08:01:07.014Z</time></trkpt><trkpt lat="40.3543518" lon="17.361363"><ele>6.0</ele><time>2026-04-11T08:01:08.013Z</time></trkpt><trkpt lat="40.3544244" lon="17.3612265"><ele>6.0</ele><time>2026-04-11T08:01:09.008Z</time></trkpt><trkpt lat="40.3544973" lon="17.3610748"><ele>6.0</ele><time>2026-04-11T08:01:10.047Z</time></trkpt><trkpt lat="40.3545629" lon="17.3609271"><ele>6.0</ele><time>2026-04-11T08:01:11.002Z</time></trkpt><trkpt lat="40.3546327" lon="17.3607636"><ele>6.0</ele><time>2026-04-11T08:01:12.017Z</time></trkpt><trkpt lat="40.3547094" lon="17.3606095"><ele>6.0</ele><time>2026-04-11T08:01:13.021Z</time></trkpt><trkpt lat="40.3547851" lon="17.36045"><ele>6.0</ele><time>2026-04-11T08:01:14.011Z</time></trkpt><trkpt lat="40.3548665" lon="17.3602885"><ele>6.0</ele><time>2026-04-11T08:01:15.046Z</time></trkpt><trkpt lat="40.3549542" lon="17.3601275"><ele>6.0</ele><time>2026-04-11T08:01:16.012Z</time></trkpt><trkpt lat="40.3550401" lon="17.3599617"><ele>6.0</ele><time>2026-04-11T08:01:17.042Z</time></trkpt><trkpt lat="40.3551281" lon="17.359804"><ele>6.0</ele><time>2026-04-11T08:01:18.037Z</time></trkpt><trkpt lat="40.3552168" lon="17.3596499"><ele>6.0</ele><time>2026-04-11T08:01:19.035Z</time></trkpt><trkpt lat="40.3553058" lon="17.3594996"><ele>6.0</ele><time>2026-04-11T08:01:19.998Z</time></trkpt><trkpt lat="40.3553889" lon="17.3593536"><ele>6.0</ele><time>2026-04-11T08:01:21.041Z</time></trkpt><trkpt lat="40.3554726" lon="17.3592059"><ele>6.0</ele><time>2026-04-11T08:01:22.002Z</time></trkpt><trkpt lat="40.3555638" lon="17.3590679"><ele>6.0</ele><time>2026-04-11T08:01:23.037Z</time></trkpt><trkpt lat="40.3556507" lon="17.3589228"><ele>6.0</ele><time>2026-04-11T08:01:24.004Z</time></trkpt><trkpt lat="40.3557312" lon="17.3587744"><ele>6.0</ele><time>2026-04-11T08:01:25.035Z</time></trkpt><trkpt lat="40.355808" lon="17.3586429"><ele>6.0</ele><time>2026-04-11T08:01:26.041Z</time></trkpt><trkpt lat="40.3558833" lon="17.3585181"><ele>6.0</ele><time>2026-04-11T08:01:27.043Z</time></trkpt><trkpt lat="40.3559572" lon="17.3584031"><ele>6.0</ele><time>2026-04-11T08:01:28.042Z</time></trkpt><trkpt lat="40.3560303" lon="17.3582813"><ele>6.0</ele><time>2026-04-11T08:01:28.998Z</time></trkpt><trkpt lat="40.3560908" lon="17.3581701"><ele>6.0</ele><time>2026-04-11T08:01:30.011Z</time></trkpt><trkpt lat="40.3561441" lon="17.3580745"><ele>6.0</ele><time>2026-04-11T08:01:31.016Z</time></trkpt><trkpt lat="40.356199" lon="17.357978"><ele>6.0</ele><time>2026-04-11T08:01:32.002Z</time></trkpt><trkpt lat="40.3562504" lon="17.357912"><ele>6.0</ele><time>2026-04-11T08:01:33.003Z</time></trkpt><trkpt lat="40.3563061" lon="17.3578539"><ele>6.0</ele><time>2026-04-11T08:01:34.045Z</time></trkpt><trkpt lat="40.356364" lon="17.35782"><ele>6.0</ele><time>2026-04-11T08:01:35.038Z</time></trkpt><trkpt lat="40.3564251" lon="17.3577811"><ele>6.0</ele><time>2026-04-11T08:01:36.037Z</time></trkpt><trkpt lat="40.356485" lon="17.3577438"><ele>6.0</ele><time>2026-04-11T08:01:36.997Z</time></trkpt><trkpt lat="40.3565362" lon="17.357681"><ele>6.0</ele><time>2026-04-11T08:01:38.037Z</time></trkpt><trkpt lat="40.3565799" lon="17.3576132"><ele>6.0</ele><time>2026-04-11T08:01:39.002Z</time></trkpt><trkpt lat="40.3565627" lon="17.3574809"><ele>6.0</ele><time>2026-04-11T08:01:40.003Z</time></trkpt><trkpt lat="40.3566114" lon="17.3573817"><ele>6.0</ele><time>2026-04-11T08:01:41.011Z</time></trkpt><trkpt lat="40.3566571" lon="17.3572831"><ele>6.0</ele><time>2026-04-11T08:01:42.005Z</time></trkpt><trkpt lat="40.3567304" lon="17.3571623"><ele>6.0</ele><time>2026-04-11T08:01:43.046Z</time></trkpt><trkpt lat="40.3568026" lon="17.357058"><ele>6.0</ele><time>2026-04-11T08:01:44.018Z</time></trkpt><trkpt lat="40.3568635" lon="17.3569304"><ele>6.0</ele><time>2026-04-11T08:01:45.035Z</time></trkpt><trkpt lat="40.3569274" lon="17.3568"><ele>5.5</ele><time>2026-04-11T08:01:46.014Z</time></trkpt><trkpt lat="40.3570053" lon="17.3566725"><ele>5.0</ele><time>2026-04-11T08:01:47.041Z</time></trkpt><trkpt lat="40.3570833" lon="17.3565356"><ele>4.5</ele><time>2026-04-11T08:01:48.011Z</time></trkpt><trkpt lat="40.3571469" lon="17.3564021"><ele>4.0</ele><time>2026-04-11T08:01:49.042Z</time></trkpt><trkpt lat="40.3572142" lon="17.3562679"><ele>5.0</ele><time>2026-04-11T08:01:49.999Z</time></trkpt><trkpt lat="40.3572508" lon="17.3560914"><ele>6.0</ele><time>2026-04-11T08:01:51.039Z</time></trkpt><trkpt lat="40.3572825" lon="17.3559219"><ele>7.0</ele><time>2026-04-11T08:01:52.051Z</time></trkpt><trkpt lat="40.3573126" lon="17.3557569"><ele>8.0</ele><time>2026-04-11T08:01:53Z</time></trkpt><trkpt lat="40.3573261" lon="17.3555821"><ele>8.25</ele><time>2026-04-11T08:01:54.016Z</time></trkpt><trkpt lat="40.3573323" lon="17.3554077"><ele>8.5</ele><time>2026-04-11T08:01:55.028Z</time></trkpt><trkpt lat="40.357338" lon="17.3552414"><ele>8.75</ele><time>2026-04-11T08:01:56.015Z</time></trkpt><trkpt lat="40.3573285" lon="17.3550627"><ele>9.0</ele><time>2026-04-11T08:01:57.014Z</time></trkpt><trkpt lat="40.3572883" lon="17.354885"><ele>9.0</ele><time>2026-04-11T08:01:58.018Z</time></trkpt><trkpt lat="40.3572422" lon="17.3547173"><ele>9.0</ele><time>2026-04-11T08:01:59.047Z</time></trkpt><trkpt lat="40.3571819" lon="17.3545568"><ele>9.0</ele><time>2026-04-11T08:02:00.04Z</time></trkpt><trkpt lat="40.3571221" lon="17.3544133"><ele>9.0</ele><time>2026-04-11T08:02:01.044Z</time></trkpt><trkpt lat="40.3570626" lon="17.3542843"><ele>7.75</ele><time>2026-04-11T08:02:02.012Z</time></trkpt><trkpt lat="40.3569957" lon="17.3541654"><ele>6.5</ele><time>2026-04-11T08:02:03.049Z</time></trkpt><trkpt lat="40.356929" lon="17.3540429"><ele>5.25</ele><time>2026-04-11T08:02:04.014Z</time></trkpt><trkpt lat="40.3568684" lon="17.3539158"><ele>4.0</ele><time>2026-04-11T08:02:05.013Z</time></trkpt><trkpt lat="40.3567973" lon="17.353782"><ele>3.5</ele><time>2026-04-11T08:02:06.037Z</time></trkpt><trkpt lat="40.3567266" lon="17.3536512"><ele>3.0</ele><time>2026-04-11T08:02:07.008Z</time></trkpt><trkpt lat="40.356655" lon="17.3535155"><ele>2.5</ele><time>2026-04-11T08:02:08.037Z</time></trkpt><trkpt lat="40.3565826" lon="17.3533811"><ele>2.0</ele><time>2026-04-11T08:02:09.015Z</time></trkpt><trkpt lat="40.3565092" lon="17.3532523"><ele>2.0</ele><time>2026-04-11T08:02:10.044Z</time></trkpt><trkpt lat="40.3564388" lon="17.3531127"><ele>2.0</ele><time>2026-04-11T08:02:11.005Z</time></trkpt><trkpt lat="40.3563784" lon="17.352993"><ele>2.0</ele><time>2026-04-11T08:02:11.999Z</time></trkpt><trkpt lat="40.3563114" lon="17.352903"><ele>2.0</ele><time>2026-04-11T08:02:13.003Z</time></trkpt><trkpt lat="40.3562547" lon="17.3527928"><ele>2.0</ele><time>2026-04-11T08:02:14.002Z</time></trkpt><trkpt lat="40.3561942" lon="17.3526833"><ele>2.2</ele><time>2026-04-11T08:02:15.013Z</time></trkpt><trkpt lat="40.3561359" lon="17.3525693"><ele>2.4000000000000004</ele><time>2026-04-11T08:02:16.008Z</time></trkpt><trkpt lat="40.3560721" lon="17.3524524"><ele>2.5999999999999996</ele><time>2026-04-11T08:02:17.012Z</time></trkpt><trkpt lat="40.3560144" lon="17.3523363"><ele>2.8</ele><time>2026-04-11T08:02:18.018Z</time></trkpt><trkpt lat="40.3559546" lon="17.3522171"><ele>3.0</ele><time>2026-04-11T08:02:19.016Z</time></trkpt><trkpt lat="40.3558888" lon="17.3520926"><ele>4.5</ele><time>2026-04-11T08:02:20.017Z</time></trkpt><trkpt lat="40.3558298" lon="17.351972"><ele>6.0</ele><time>2026-04-11T08:02:21.012Z</time></trkpt><trkpt lat="40.355776" lon="17.3518505"><ele>7.5</ele><time>2026-04-11T08:02:22.044Z</time></trkpt><trkpt lat="40.3557111" lon="17.3517266"><ele>9.0</ele><time>2026-04-11T08:02:23.004Z</time></trkpt><trkpt lat="40.3556394" lon="17.3515914"><ele>9.0</ele><time>2026-04-11T08:02:24.016Z</time></trkpt><trkpt lat="40.3555721" lon="17.3514446"><ele>9.0</ele><time>2026-04-11T08:02:25.02Z</time></trkpt><trkpt lat="40.3555251" lon="17.3512864"><ele>9.0</ele><time>2026-04-11T08:02:26.013Z</time></trkpt><trkpt lat="40.3554775" lon="17.3511458"><ele>9.0</ele><time>2026-04-11T08:02:27.013Z</time></trkpt><trkpt lat="40.3554334" lon="17.351003"><ele>8.0</ele><time>2026-04-11T08:02:28.004Z</time></trkpt><trkpt lat="40.3554206" lon="17.3508421"><ele>7.0</ele><time>2026-04-11T08:02:29.011Z</time></trkpt><trkpt lat="40.3554004" lon="17.3506852"><ele>6.0</ele><time>2026-04-11T08:02:30.007Z</time></trkpt><trkpt lat="40.3554208" lon="17.3505159"><ele>5.0</ele><time>2026-04-11T08:02:31.014Z</time></trkpt><trkpt lat="40.3554407" lon="17.3503718"><ele>4.6</ele><time>2026-04-11T08:02:32.018Z</time></trkpt><trkpt lat="40.3554499" lon="17.3502318"><ele>4.2</ele><time>2026-04-11T08:02:33.01Z</time></trkpt><trkpt lat="40.3554822" lon="17.3501075"><ele>3.8</ele><time>2026-04-11T08:02:34.039Z</time></trkpt><trkpt lat="40.3555226" lon="17.3499883"><ele>3.4</ele><time>2026-04-11T08:02:35.01Z</time></trkpt><trkpt lat="40.355565" lon="17.349864"><ele>3.0</ele><time>2026-04-11T08:02:36.004Z</time></trkpt><trkpt lat="40.3556322" lon="17.3497375"><ele>3.25</ele><time>2026-04-11T08:02:37.015Z</time></trkpt><trkpt lat="40.3557045" lon="17.349627"><ele>3.5</ele><time>2026-04-11T08:02:38.015Z</time></trkpt><trkpt lat="40.3557923" lon="17.3495133"><ele>3.75</ele><time>2026-04-11T08:02:39.044Z</time></trkpt><trkpt lat="40.3558805" lon="17.3494086"><ele>4.0</ele><time>2026-04-11T08:02:40.043Z</time></trkpt><trkpt lat="40.3559656" lon="17.3493111"><ele>4.0</ele><time>2026-04-11T08:02:41.041Z</time></trkpt><trkpt lat="40.3560565" lon="17.3492106"><ele>4.0</ele><time>2026-04-11T08:02:42.051Z</time></trkpt><trkpt lat="40.3561363" lon="17.3491238"><ele>4.0</ele><time>2026-04-11T08:02:43.089Z</time></trkpt><trkpt lat="40.3562142" lon="17.3490382"><ele>4.0</ele><time>2026-04-11T08:02:44.041Z</time></trkpt><trkpt lat="40.3562934" lon="17.3489433"><ele>4.0</ele><time>2026-04-11T08:02:45.011Z</time></trkpt><trkpt lat="40.3563739" lon="17.3488408"><ele>3.4000000000000004</ele><time>2026-04-11T08:02:46.002Z</time></trkpt><trkpt lat="40.3564563" lon="17.3487451"><ele>2.8000000000000003</ele><time>2026-04-11T08:02:46.997Z</time></trkpt><trkpt lat="40.3565371" lon="17.3486472"><ele>2.2</ele><time>2026-04-11T08:02:48.035Z</time></trkpt><trkpt lat="40.3566177" lon="17.3485523"><ele>1.6</ele><time>2026-04-11T08:02:49.012Z</time></trkpt><trkpt lat="40.3566907" lon="17.3484716"><ele>1.0</ele><time>2026-04-11T08:02:50.016Z</time></trkpt><trkpt lat="40.3567644" lon="17.3483873"><ele>0.9999999999999999</ele><time>2026-04-11T08:02:51.017Z</time></trkpt><trkpt lat="40.3568285" lon="17.3483153"><ele>1.0</ele><time>2026-04-11T08:02:52.018Z</time></trkpt><trkpt lat="40.3568874" lon="17.3482293"><ele>1.0</ele><time>2026-04-11T08:02:53.014Z</time></trkpt><trkpt lat="40.3569381" lon="17.3481412"><ele>1.0</ele><time>2026-04-11T08:02:54.012Z</time></trkpt><trkpt lat="40.3569908" lon="17.3480558"><ele>0.9999999999999999</ele><time>2026-04-11T08:02:55.004Z</time></trkpt><trkpt lat="40.3570482" lon="17.3479589"><ele>1.0</ele><time>2026-04-11T08:02:56.013Z</time></trkpt><trkpt lat="40.3571045" lon="17.3478634"><ele>0.6000000000000001</ele><time>2026-04-11T08:02:57.016Z</time></trkpt><trkpt lat="40.3571589" lon="17.3477576"><ele>0.20000000000000007</ele><time>2026-04-11T08:02:58.002Z</time></trkpt><trkpt lat="40.3572139" lon="17.3476257"><ele>-0.20000000000000007</ele><time>2026-04-11T08:02:59.007Z</time></trkpt><trkpt lat="40.3572665" lon="17.3474979"><ele>-0.6000000000000001</ele><time>2026-04-11T08:03:00.026Z</time></trkpt><trkpt lat="40.3573251" lon="17.3473639"><ele>-1.0</ele><time>2026-04-11T08:03:01.013Z</time></trkpt><trkpt lat="40.3573895" lon="17.3472246"><ele>0.0</ele><time>2026-04-11T08:03:02.013Z</time></trkpt><trkpt lat="40.357456" lon="17.3470808"><ele>1.0</ele><time>2026-04-11T08:03:03.016Z</time></trkpt><trkpt lat="40.3575214" lon="17.3469316"><ele>2.0</ele><time>2026-04-11T08:03:04.016Z</time></trkpt><trkpt lat="40.357583" lon="17.3467837"><ele>3.0</ele><time>2026-04-11T08:03:05.019Z</time></trkpt><trkpt lat="40.3576497" lon="17.34664"><ele>3.0</ele><time>2026-04-11T08:03:06.008Z</time></trkpt><trkpt lat="40.3577018" lon="17.3465054"><ele>3.0</ele><time>2026-04-11T08:03:07.019Z</time></trkpt><trkpt lat="40.3577608" lon="17.3463794"><ele>3.0</ele><time>2026-04-11T08:03:08.019Z</time></trkpt><trkpt lat="40.3578154" lon="17.3462606"><ele>3.0</ele><time>2026-04-11T08:03:09.011Z</time></trkpt><trkpt lat="40.3578617" lon="17.3461506"><ele>3.0</ele><time>2026-04-11T08:03:10.012Z</time></trkpt><trkpt lat="40.3579051" lon="17.3460497"><ele>3.1666666666666665</ele><time>2026-04-11T08:03:11.002Z</time></trkpt><trkpt lat="40.3579506" lon="17.3459811"><ele>3.333333333333333</ele><time>2026-04-11T08:03:12.01Z</time></trkpt><trkpt lat="40.3579971" lon="17.3459012"><ele>3.5</ele><time>2026-04-11T08:03:13.019Z</time></trkpt><trkpt lat="40.3580389" lon="17.3458118"><ele>3.6666666666666665</ele><time>2026-04-11T08:03:14.048Z</time></trkpt><trkpt lat="40.3580845" lon="17.3457254"><ele>3.833333333333333</ele><time>2026-04-11T08:03:15.005Z</time></trkpt><trkpt lat="40.3581519" lon="17.345625"><ele>4.0</ele><time>2026-04-11T08:03:16.034Z</time></trkpt><trkpt lat="40.3582107" lon="17.3455306"><ele>4.0</ele><time>2026-04-11T08:03:17.003Z</time></trkpt><trkpt lat="40.3582841" lon="17.3454261"><ele>4.0</ele><time>2026-04-11T08:03:18.017Z</time></trkpt><trkpt lat="40.358379" lon="17.3453239"><ele>4.0</ele><time>2026-04-11T08:03:19.02Z</time></trkpt><trkpt lat="40.358465" lon="17.3452121"><ele>4.0</ele><time>2026-04-11T08:03:20.016Z</time></trkpt><trkpt lat="40.3585473" lon="17.3451003"><ele>4.0</ele><time>2026-04-11T08:03:21.01Z</time></trkpt><trkpt lat="40.3586464" lon="17.3449982"><ele>4.0</ele><time>2026-04-11T08:03:22.02Z</time></trkpt><trkpt lat="40.358733" lon="17.3448922"><ele>4.0</ele><time>2026-04-11T08:03:23.001Z</time></trkpt><trkpt lat="40.358819" lon="17.3448113"><ele>4.0</ele><time>2026-04-11T08:03:24.015Z</time></trkpt><trkpt lat="40.3588942" lon="17.3447185"><ele>4.333333333333333</ele><time>2026-04-11T08:03:25.02Z</time></trkpt><trkpt lat="40.3589681" lon="17.3446276"><ele>4.666666666666666</ele><time>2026-04-11T08:03:26.002Z</time></trkpt><trkpt lat="40.3590271" lon="17.344545"><ele>5.0</ele><time>2026-04-11T08:03:27.012Z</time></trkpt><trkpt lat="40.3590938" lon="17.3444663"><ele>5.333333333333333</ele><time>2026-04-11T08:03:28.013Z</time></trkpt><trkpt lat="40.3591485" lon="17.3444025"><ele>5.666666666666667</ele><time>2026-04-11T08:03:29.013Z</time></trkpt><trkpt lat="40.3591961" lon="17.3443347"><ele>6.0</ele><time>2026-04-11T08:03:30.016Z</time></trkpt><trkpt lat="40.3592477" lon="17.3442694"><ele>6.0</ele><time>2026-04-11T08:03:31.016Z</time></trkpt><trkpt lat="40.3593014" lon="17.3442067"><ele>6.0</ele><time>2026-04-11T08:03:32.009Z</time></trkpt><trkpt lat="40.3593575" lon="17.3441377"><ele>6.0</ele><time>2026-04-11T08:03:33.009Z</time></trkpt><trkpt lat="40.3594167" lon="17.3440598"><ele>6.0</ele><time>2026-04-11T08:03:34.047Z</time></trkpt><trkpt lat="40.3594849" lon="17.3439797"><ele>6.0</ele><time>2026-04-11T08:03:35.041Z</time></trkpt><trkpt lat="40.3595524" lon="17.3438916"><ele>6.0</ele><time>2026-04-11T08:03:36.013Z</time></trkpt><trkpt lat="40.3596259" lon="17.3437978"><ele>5.75</ele><time>2026-04-11T08:03:37.006Z</time></trkpt><trkpt lat="40.3597084" lon="17.3436995"><ele>5.5</ele><time>2026-04-11T08:03:38.009Z</time></trkpt><trkpt lat="40.3597988" lon="17.3435823"><ele>5.25</ele><time>2026-04-11T08:03:39.043Z</time></trkpt><trkpt lat="40.3599022" lon="17.3434603"><ele>5.0</ele><time>2026-04-11T08:03:40.01Z</time></trkpt><trkpt lat="40.3600053" lon="17.3433365"><ele>5.0</ele><time>2026-04-11T08:03:41.016Z</time></trkpt><trkpt lat="40.3601066" lon="17.3432011"><ele>5.0</ele><time>2026-04-11T08:03:42.015Z</time></trkpt><trkpt lat="40.360209" lon="17.3430783"><ele>5.0</ele><time>2026-04-11T08:03:43.012Z</time></trkpt><trkpt lat="40.3603009" lon="17.3429481"><ele>5.0</ele><time>2026-04-11T08:03:44.044Z</time></trkpt><trkpt lat="40.3603954" lon="17.3428247"><ele>5.0</ele><time>2026-04-11T08:03:45.041Z</time></trkpt><trkpt lat="40.3604983" lon="17.3426992"><ele>5.0</ele><time>2026-04-11T08:03:46.047Z</time></trkpt><trkpt lat="40.3606028" lon="17.3425664"><ele>5.0</ele><time>2026-04-11T08:03:47.012Z</time></trkpt><trkpt lat="40.3607212" lon="17.3424397"><ele>5.0</ele><time>2026-04-11T08:03:48.012Z</time></trkpt><trkpt lat="40.3608469" lon="17.3423229"><ele>5.0</ele><time>2026-04-11T08:03:49.045Z</time></trkpt><trkpt lat="40.3609716" lon="17.3422187"><ele>5.0</ele><time>2026-04-11T08:03:50.025Z</time></trkpt><trkpt lat="40.3611048" lon="17.3421205"><ele>5.0</ele><time>2026-04-11T08:03:51.001Z</time></trkpt><trkpt lat="40.3612567" lon="17.3420539"><ele>5.333333333333334</ele><time>2026-04-11T08:03:52.004Z</time></trkpt><trkpt lat="40.3614162" lon="17.3419878"><ele>5.666666666666667</ele><time>2026-04-11T08:03:53.012Z</time></trkpt><trkpt lat="40.3615757" lon="17.3419336"><ele>6.0</ele><time>2026-04-11T08:03:54.02Z</time></trkpt><trkpt lat="40.3617279" lon="17.3418842"><ele>6.0</ele><time>2026-04-11T08:03:55.011Z</time></trkpt><trkpt lat="40.361874" lon="17.3418611"><ele>6.0</ele><time>2026-04-11T08:03:56.035Z</time></trkpt><trkpt lat="40.3620136" lon="17.3418002"><ele>6.0</ele><time>2026-04-11T08:03:57.012Z</time></trkpt><trkpt lat="40.3621425" lon="17.3417223"><ele>6.0</ele><time>2026-04-11T08:03:58.017Z</time></trkpt><trkpt lat="40.3622585" lon="17.3416355"><ele>5.75</ele><time>2026-04-11T08:03:59.019Z</time></trkpt><trkpt lat="40.3623703" lon="17.3415637"><ele>5.5</ele><time>2026-04-11T08:04:00.016Z</time></trkpt><trkpt lat="40.3624714" lon="17.3414922"><ele>5.25</ele><time>2026-04-11T08:04:01.086Z</time></trkpt><trkpt lat="40.3625595" lon="17.3413966"><ele>5.0</ele><time>2026-04-11T08:04:02.01Z</time></trkpt><trkpt lat="40.3626343" lon="17.3413105"><ele>4.6</ele><time>2026-04-11T08:04:03.035Z</time></trkpt><trkpt lat="40.3627114" lon="17.3412257"><ele>4.2</ele><time>2026-04-11T08:04:04.033Z</time></trkpt><trkpt lat="40.3627777" lon="17.3411411"><ele>3.8</ele><time>2026-04-11T08:04:04.998Z</time></trkpt><trkpt lat="40.3628136" lon="17.3410541"><ele>3.4</ele><time>2026-04-11T08:04:06.002Z</time></trkpt><trkpt lat="40.3628608" lon="17.3409512"><ele>3.0</ele><time>2026-04-11T08:04:07.001Z</time></trkpt><trkpt lat="40.3628806" lon="17.3408193"><ele>3.0</ele><time>2026-04-11T08:04:08.012Z</time></trkpt><trkpt lat="40.3628971" lon="17.3406891"><ele>3.0</ele><time>2026-04-11T08:04:09.045Z</time></trkpt><trkpt lat="40.3629142" lon="17.3405544"><ele>3.0</ele><time>2026-04-11T08:04:10.016Z</time></trkpt><trkpt lat="40.3629151" lon="17.3404074"><ele>3.0</ele><time>2026-04-11T08:04:11.014Z</time></trkpt><trkpt lat="40.3629053" lon="17.34029"><ele>3.0</ele><time>2026-04-11T08:04:12.054Z</time></trkpt><trkpt lat="40.3628943" lon="17.3401622"><ele>2.8</ele><time>2026-04-11T08:04:13.001Z</time></trkpt><trkpt lat="40.3628847" lon="17.3400423"><ele>2.5999999999999996</ele><time>2026-04-11T08:04:14.012Z</time></trkpt><trkpt lat="40.3628824" lon="17.3399257"><ele>2.4000000000000004</ele><time>2026-04-11T08:04:15.013Z</time></trkpt><trkpt lat="40.36287" lon="17.3397923"><ele>2.2</ele><time>2026-04-11T08:04:16.012Z</time></trkpt><trkpt lat="40.3628562" lon="17.3396524"><ele>2.0</ele><time>2026-04-11T08:04:17.018Z</time></trkpt><trkpt lat="40.3628452" lon="17.339517"><ele>3.0</ele><time>2026-04-11T08:04:18.018Z</time></trkpt><trkpt lat="40.3628374" lon="17.3393878"><ele>4.0</ele><time>2026-04-11T08:04:19.008Z</time></trkpt><trkpt lat="40.3628248" lon="17.3392369"><ele>4.999999999999999</ele><time>2026-04-11T08:04:20.04Z</time></trkpt><trkpt lat="40.3628164" lon="17.3390934"><ele>6.0</ele><time>2026-04-11T08:04:21.009Z</time></trkpt><trkpt lat="40.3627976" lon="17.3389325"><ele>7.0</ele><time>2026-04-11T08:04:22.043Z</time></trkpt><trkpt lat="40.3627793" lon="17.3387684"><ele>7.0</ele><time>2026-04-11T08:04:23.04Z</time></trkpt><trkpt lat="40.3627675" lon="17.3386101"><ele>7.0</ele><time>2026-04-11T08:04:23.999Z</time></trkpt><trkpt lat="40.3627577" lon="17.3384358"><ele>7.0</ele><time>2026-04-11T08:04:25.014Z</time></trkpt><trkpt lat="40.3627457" lon="17.3382749"><ele>7.0</ele><time>2026-04-11T08:04:26.008Z</time></trkpt><trkpt lat="40.3627344" lon="17.3381143"><ele>7.5</ele><time>2026-04-11T08:04:27.021Z</time></trkpt><trkpt lat="40.3627271" lon="17.3379427"><ele>8.0</ele><time>2026-04-11T08:04:28.026Z</time></trkpt><trkpt lat="40.3627122" lon="17.3377703"><ele>8.5</ele><time>2026-04-11T08:04:29.002Z</time></trkpt><trkpt lat="40.3627091" lon="17.3375846"><ele>9.0</ele><time>2026-04-11T08:04:30.012Z</time></trkpt><trkpt lat="40.3626937" lon="17.3373985"><ele>8.5</ele><time>2026-04-11T08:04:31.018Z</time></trkpt><trkpt lat="40.362669" lon="17.3372069"><ele>8.0</ele><time>2026-04-11T08:04:32.019Z</time></trkpt><trkpt lat="40.3626541" lon="17.3370248"><ele>7.5</ele><time>2026-04-11T08:04:33.085Z</time></trkpt><trkpt lat="40.3626369" lon="17.3368359"><ele>7.0</ele><time>2026-04-11T08:04:34.005Z</time></trkpt><trkpt lat="40.3626184" lon="17.3366419"><ele>7.0</ele><time>2026-04-11T08:04:35.016Z</time></trkpt><trkpt lat="40.3626006" lon="17.3364471"><ele>7.0</ele><time>2026-04-11T08:04:36.004Z</time></trkpt><trkpt lat="40.3625882" lon="17.3362643"><ele>7.0</ele><time>2026-04-11T08:04:37.004Z</time></trkpt><trkpt lat="40.3625784" lon="17.3360611"><ele>7.0</ele><time>2026-04-11T08:04:38.04Z</time></trkpt><trkpt lat="40.362571" lon="17.33587"><ele>7.333333333333334</ele><time>2026-04-11T08:04:39.034Z</time></trkpt><trkpt lat="40.362552" lon="17.3356749"><ele>7.666666666666666</ele><time>2026-04-11T08:04:40.014Z</time></trkpt><trkpt lat="40.362544" lon="17.3354668"><ele>8.0</ele><time>2026-04-11T08:04:41.017Z</time></trkpt><trkpt lat="40.3625235" lon="17.3352524"><ele>7.0</ele><time>2026-04-11T08:04:42.048Z</time></trkpt><trkpt lat="40.3625067" lon="17.3350494"><ele>6.0</ele><time>2026-04-11T08:04:43.03Z</time></trkpt><trkpt lat="40.3624857" lon="17.3348537"><ele>5.0</ele><time>2026-04-11T08:04:44.009Z</time></trkpt><trkpt lat="40.3624644" lon="17.3346495"><ele>4.333333333333334</ele><time>2026-04-11T08:04:45.01Z</time></trkpt><trkpt lat="40.3624409" lon="17.334441"><ele>3.666666666666667</ele><time>2026-04-11T08:04:46.008Z</time></trkpt><trkpt lat="40.3624294" lon="17.3342329"><ele>3.0</ele><time>2026-04-11T08:04:47.008Z</time></trkpt><trkpt lat="40.3624416" lon="17.3340368"><ele>2.75</ele><time>2026-04-11T08:04:48.041Z</time></trkpt><trkpt lat="40.3624683" lon="17.3338486"><ele>2.5</ele><time>2026-04-11T08:04:49.02Z</time></trkpt><trkpt lat="40.3625059" lon="17.3336557"><ele>2.25</ele><time>2026-04-11T08:04:50.01Z</time></trkpt><trkpt lat="40.3625499" lon="17.3334677"><ele>2.0</ele><time>2026-04-11T08:04:51.013Z</time></trkpt><trkpt lat="40.3626041" lon="17.3332847"><ele>2.0</ele><time>2026-04-11T08:04:52.015Z</time></trkpt><trkpt lat="40.3626801" lon="17.3330955"><ele>2.0</ele><time>2026-04-11T08:04:53.017Z</time></trkpt><trkpt lat="40.3627586" lon="17.3329095"><ele>2.0</ele><time>2026-04-11T08:04:54.04Z</time></trkpt><trkpt lat="40.362841" lon="17.3327258"><ele>2.6666666666666665</ele><time>2026-04-11T08:04:54.998Z</time></trkpt><trkpt lat="40.3629361" lon="17.3325396"><ele>3.333333333333333</ele><time>2026-04-11T08:04:56.013Z</time></trkpt><trkpt lat="40.3630281" lon="17.3323452"><ele>4.0</ele><time>2026-04-11T08:04:57.023Z</time></trkpt><trkpt lat="40.3631161" lon="17.3321585"><ele>6.333333333333333</ele><time>2026-04-11T08:04:58.037Z</time></trkpt><trkpt lat="40.3632055" lon="17.3319671"><ele>8.666666666666666</ele><time>2026-04-11T08:04:58.999Z</time></trkpt><trkpt lat="40.3632775" lon="17.3317937"><ele>11.0</ele><time>2026-04-11T08:05:00.017Z</time></trkpt><trkpt lat="40.3633474" lon="17.3316241"><ele>11.0</ele><time>2026-04-11T08:05:01.044Z</time></trkpt><trkpt lat="40.3634232" lon="17.3314708"><ele>11.0</ele><time>2026-04-11T08:05:02.013Z</time></trkpt><trkpt lat="40.3634894" lon="17.3313235"><ele>11.0</ele><time>2026-04-11T08:05:03.013Z</time></trkpt><trkpt lat="40.3635597" lon="17.3311803"><ele>11.0</ele><time>2026-04-11T08:05:03.999Z</time></trkpt><trkpt lat="40.3636213" lon="17.3310589"><ele>10.8</ele><time>2026-04-11T08:05:05.083Z</time></trkpt><trkpt lat="40.3636819" lon="17.3309264"><ele>10.600000000000001</ele><time>2026-04-11T08:05:06.004Z</time></trkpt><trkpt lat="40.3637511" lon="17.3308137"><ele>10.4</ele><time>2026-04-11T08:05:07.006Z</time></trkpt><trkpt lat="40.3638054" lon="17.3306932"><ele>10.2</ele><time>2026-04-11T08:05:08.011Z</time></trkpt><trkpt lat="40.3638637" lon="17.3305751"><ele>10.0</ele><time>2026-04-11T08:05:08.998Z</time></trkpt><trkpt lat="40.3639292" lon="17.3304615"><ele>9.0</ele><time>2026-04-11T08:05:10.042Z</time></trkpt><trkpt lat="40.3639739" lon="17.3303409"><ele>8.0</ele><time>2026-04-11T08:05:11.04Z</time></trkpt><trkpt lat="40.3640178" lon="17.33022"><ele>7.0</ele><time>2026-04-11T08:05:11.998Z</time></trkpt><trkpt lat="40.3640212" lon="17.3300745"><ele>6.0</ele><time>2026-04-11T08:05:13.01Z</time></trkpt><trkpt lat="40.364029" lon="17.3299211"><ele>5.0</ele><time>2026-04-11T08:05:14.025Z</time></trkpt><trkpt lat="40.3640091" lon="17.3297554"><ele>5.25</ele><time>2026-04-11T08:05:15.02Z</time></trkpt><trkpt lat="40.3639462" lon="17.3295905"><ele>5.5</ele><time>2026-04-11T08:05:16.039Z</time></trkpt><trkpt lat="40.3639" lon="17.3294374"><ele>5.75</ele><time>2026-04-11T08:05:16.998Z</time></trkpt><trkpt lat="40.363846" lon="17.3292799"><ele>6.0</ele><time>2026-04-11T08:05:18.051Z</time></trkpt><trkpt lat="40.3637475" lon="17.3291579"><ele>4.75</ele><time>2026-04-11T08:05:19.023Z</time></trkpt><trkpt lat="40.3636423" lon="17.3290518"><ele>3.5</ele><time>2026-04-11T08:05:20.011Z</time></trkpt><trkpt lat="40.3635251" lon="17.328966"><ele>2.25</ele><time>2026-04-11T08:05:21.011Z</time></trkpt><trkpt lat="40.3633952" lon="17.3288781"><ele>1.0</ele><time>2026-04-11T08:05:22.01Z</time></trkpt><trkpt lat="40.3632721" lon="17.3287944"><ele>1.5</ele><time>2026-04-11T08:05:22.999Z</time></trkpt><trkpt lat="40.3631579" lon="17.3287183"><ele>2.0</ele><time>2026-04-11T08:05:23.998Z</time></trkpt><trkpt lat="40.3630417" lon="17.3286337"><ele>2.5</ele><time>2026-04-11T08:05:25.008Z</time></trkpt><trkpt lat="40.3629251" lon="17.3285525"><ele>3.0</ele><time>2026-04-11T08:05:26.039Z</time></trkpt><trkpt lat="40.3628078" lon="17.3284734"><ele>3.0</ele><time>2026-04-11T08:05:27.038Z</time></trkpt><trkpt lat="40.3626978" lon="17.3283819"><ele>3.0</ele><time>2026-04-11T08:05:27.999Z</time></trkpt><trkpt lat="40.362596" lon="17.3282677"><ele>3.0</ele><time>2026-04-11T08:05:29.001Z</time></trkpt><trkpt lat="40.3624895" lon="17.3281587"><ele>3.0</ele><time>2026-04-11T08:05:30.037Z</time></trkpt><trkpt lat="40.3623796" lon="17.3280397"><ele>3.5</ele><time>2026-04-11T08:05:31.015Z</time></trkpt><trkpt lat="40.362268" lon="17.3279253"><ele>4.0</ele><time>2026-04-11T08:05:32.018Z</time></trkpt><trkpt lat="40.3621765" lon="17.3277984"><ele>4.5</ele><time>2026-04-11T08:05:33.01Z</time></trkpt><trkpt lat="40.3620958" lon="17.3276542"><ele>5.0</ele><time>2026-04-11T08:05:34.008Z</time></trkpt><trkpt lat="40.3620358" lon="17.3274832"><ele>4.0</ele><time>2026-04-11T08:05:35.009Z</time></trkpt><trkpt lat="40.3619826" lon="17.3273136"><ele>3.0</ele><time>2026-04-11T08:05:36.04Z</time></trkpt><trkpt lat="40.3619328" lon="17.3271372"><ele>2.0</ele><time>2026-04-11T08:05:36.999Z</time></trkpt><trkpt lat="40.3619021" lon="17.3269334"><ele>1.0</ele><time>2026-04-11T08:05:38.013Z</time></trkpt><trkpt lat="40.3619122" lon="17.3267359"><ele>1.0</ele><time>2026-04-11T08:05:39.049Z</time></trkpt><trkpt lat="40.361911" lon="17.3265478"><ele>1.0</ele><time>2026-04-11T08:05:39.999Z</time></trkpt><trkpt lat="40.361934" lon="17.326344"><ele>1.0</ele><time>2026-04-11T08:05:41.005Z</time></trkpt><trkpt lat="40.3619617" lon="17.3261555"><ele>1.0</ele><time>2026-04-11T08:05:42.011Z</time></trkpt><trkpt lat="40.3619957" lon="17.3259777"><ele>1.25</ele><time>2026-04-11T08:05:42.998Z</time></trkpt><trkpt lat="40.3620671" lon="17.3258089"><ele>1.5</ele><time>2026-04-11T08:05:44.041Z</time></trkpt><trkpt lat="40.3621435" lon="17.325643"><ele>1.75</ele><time>2026-04-11T08:05:45.011Z</time></trkpt><trkpt lat="40.3622163" lon="17.3254769"><ele>2.0</ele><time>2026-04-11T08:05:46.04Z</time></trkpt><trkpt lat="40.3622941" lon="17.3253175"><ele>2.0</ele><time>2026-04-11T08:05:47.002Z</time></trkpt><trkpt lat="40.362362" lon="17.3251663"><ele>2.0</ele><time>2026-04-11T08:05:48.004Z</time></trkpt><trkpt lat="40.362438" lon="17.3249966"><ele>2.0</ele><time>2026-04-11T08:05:49.042Z</time></trkpt><trkpt lat="40.3625154" lon="17.3248213"><ele>2.0</ele><time>2026-04-11T08:05:50.045Z</time></trkpt><trkpt lat="40.3625989" lon="17.3246417"><ele>2.0</ele><time>2026-04-11T08:05:51.047Z</time></trkpt><trkpt lat="40.3626765" lon="17.3244632"><ele>2.0</ele><time>2026-04-11T08:05:52.019Z</time></trkpt><trkpt lat="40.3627551" lon="17.3242944"><ele>2.0</ele><time>2026-04-11T08:05:53.01Z</time></trkpt><trkpt lat="40.3628242" lon="17.3241267"><ele>2.0</ele><time>2026-04-11T08:05:54.072Z</time></trkpt><trkpt lat="40.3628879" lon="17.3239623"><ele>2.0</ele><time>2026-04-11T08:05:55.039Z</time></trkpt><trkpt lat="40.3629516" lon="17.3237982"><ele>2.0</ele><time>2026-04-11T08:05:56Z</time></trkpt><trkpt lat="40.3630112" lon="17.3236425"><ele>2.0</ele><time>2026-04-11T08:05:57.013Z</time></trkpt><trkpt lat="40.3630836" lon="17.3235025"><ele>1.5</ele><time>2026-04-11T08:05:58.018Z</time></trkpt><trkpt lat="40.3631474" lon="17.3233646"><ele>1.0</ele><time>2026-04-11T08:05:59.018Z</time></trkpt><trkpt lat="40.3632116" lon="17.3232246"><ele>0.5</ele><time>2026-04-11T08:06:00.012Z</time></trkpt><trkpt lat="40.3632788" lon="17.3230738"><ele>0.0</ele><time>2026-04-11T08:06:01.013Z</time></trkpt><trkpt lat="40.363345" lon="17.3229208"><ele>0.0</ele><time>2026-04-11T08:06:02.007Z</time></trkpt><trkpt lat="40.3634245" lon="17.3227669"><ele>0.0</ele><time>2026-04-11T08:06:03.043Z</time></trkpt><trkpt lat="40.3634959" lon="17.3226031"><ele>0.0</ele><time>2026-04-11T08:06:04Z</time></trkpt><trkpt lat="40.363573" lon="17.3224342"><ele>0.0</ele><time>2026-04-11T08:06:05.001Z</time></trkpt><trkpt lat="40.3636535" lon="17.3222657"><ele>-0.6666666666666666</ele><time>2026-04-11T08:06:06.003Z</time></trkpt><trkpt lat="40.3637378" lon="17.3220851"><ele>-1.3333333333333333</ele><time>2026-04-11T08:06:07.013Z</time></trkpt><trkpt lat="40.3638161" lon="17.3219054"><ele>-2.0</ele><time>2026-04-11T08:06:08.019Z</time></trkpt><trkpt lat="40.3638957" lon="17.3217443"><ele>-0.5</ele><time>2026-04-11T08:06:09.014Z</time></trkpt><trkpt lat="40.3639743" lon="17.3215971"><ele>1.0</ele><time>2026-04-11T08:06:10.012Z</time></trkpt><trkpt lat="40.3640488" lon="17.3214581"><ele>2.5</ele><time>2026-04-11T08:06:11.042Z</time></trkpt><trkpt lat="40.3641234" lon="17.3213072"><ele>4.0</ele><time>2026-04-11T08:06:12.016Z</time></trkpt><trkpt lat="40.3641944" lon="17.3211515"><ele>4.0</ele><time>2026-04-11T08:06:13.021Z</time></trkpt><trkpt lat="40.3642603" lon="17.3209893"><ele>4.0</ele><time>2026-04-11T08:06:14.004Z</time></trkpt><trkpt lat="40.3643249" lon="17.3208176"><ele>4.0</ele><time>2026-04-11T08:06:15.006Z</time></trkpt><trkpt lat="40.3643942" lon="17.3206448"><ele>4.0</ele><time>2026-04-11T08:06:16.006Z</time></trkpt><trkpt lat="40.3644719" lon="17.3204662"><ele>5.0</ele><time>2026-04-11T08:06:17.002Z</time></trkpt><trkpt lat="40.3645449" lon="17.32028"><ele>6.0</ele><time>2026-04-11T08:06:18.015Z</time></trkpt><trkpt lat="40.3646278" lon="17.3200864"><ele>7.0</ele><time>2026-04-11T08:06:19.042Z</time></trkpt><trkpt lat="40.3647083" lon="17.3198999"><ele>4.666666666666667</ele><time>2026-04-11T08:06:20Z</time></trkpt><trkpt lat="40.3647882" lon="17.3197188"><ele>2.3333333333333335</ele><time>2026-04-11T08:06:21.017Z</time></trkpt><trkpt lat="40.3648661" lon="17.3195399"><ele>0.0</ele><time>2026-04-11T08:06:22.005Z</time></trkpt><trkpt lat="40.3649466" lon="17.3193731"><ele>0.0</ele><time>2026-04-11T08:06:23.012Z</time></trkpt><trkpt lat="40.3650261" lon="17.3191904"><ele>0.0</ele><time>2026-04-11T08:06:24.016Z</time></trkpt><trkpt lat="40.3651062" lon="17.3190125"><ele>0.0</ele><time>2026-04-11T08:06:25.015Z</time></trkpt><trkpt lat="40.3651852" lon="17.3188316"><ele>-1.0</ele><time>2026-04-11T08:06:26.015Z</time></trkpt><trkpt lat="40.3652613" lon="17.3186549"><ele>-2.0</ele><time>2026-04-11T08:06:27.042Z</time></trkpt><trkpt lat="40.3653464" lon="17.3184813"><ele>-3.0</ele><time>2026-04-11T08:06:28.005Z</time></trkpt><trkpt lat="40.3654331" lon="17.3183139"><ele>-1.3333333333333335</ele><time>2026-04-11T08:06:29.004Z</time></trkpt><trkpt lat="40.3655361" lon="17.3181677"><ele>0.33333333333333326</ele><time>2026-04-11T08:06:30.012Z</time></trkpt><trkpt lat="40.3656349" lon="17.3180159"><ele>2.0</ele><time>2026-04-11T08:06:31.016Z</time></trkpt><trkpt lat="40.3657487" lon="17.3178785"><ele>2.0</ele><time>2026-04-11T08:06:32.092Z</time></trkpt><trkpt lat="40.3658557" lon="17.3177386"><ele>2.0</ele><time>2026-04-11T08:06:33.015Z</time></trkpt><trkpt lat="40.3659592" lon="17.3176011"><ele>2.0</ele><time>2026-04-11T08:06:34.058Z</time></trkpt><trkpt lat="40.3660635" lon="17.3174669"><ele>2.0</ele><time>2026-04-11T08:06:35.019Z</time></trkpt><trkpt lat="40.3661706" lon="17.3173359"><ele>1.3333333333333333</ele><time>2026-04-11T08:06:36.005Z</time></trkpt><trkpt lat="40.3662921" lon="17.3172038"><ele>0.6666666666666666</ele><time>2026-04-11T08:06:37.047Z</time></trkpt><trkpt lat="40.366403" lon="17.3170709"><ele>0.0</ele><time>2026-04-11T08:06:38.007Z</time></trkpt><trkpt lat="40.3665123" lon="17.3169374"><ele>3.0</ele><time>2026-04-11T08:06:39.044Z</time></trkpt><trkpt lat="40.3666315" lon="17.3167914"><ele>6.0</ele><time>2026-04-11T08:06:40.021Z</time></trkpt><trkpt lat="40.3667475" lon="17.316652"><ele>9.0</ele><time>2026-04-11T08:06:40.999Z</time></trkpt><trkpt lat="40.3668802" lon="17.3165152"><ele>8.333333333333334</ele><time>2026-04-11T08:06:42.008Z</time></trkpt><trkpt lat="40.366999" lon="17.3163635"><ele>7.666666666666667</ele><time>2026-04-11T08:06:43.043Z</time></trkpt><trkpt lat="40.3671191" lon="17.3162177"><ele>7.0</ele><time>2026-04-11T08:06:44.012Z</time></trkpt><trkpt lat="40.3672425" lon="17.3160703"><ele>8.333333333333334</ele><time>2026-04-11T08:06:45.017Z</time></trkpt><trkpt lat="40.3673773" lon="17.3159311"><ele>9.666666666666666</ele><time>2026-04-11T08:06:46.1Z</time></trkpt><trkpt lat="40.3675124" lon="17.3157898"><ele>11.0</ele><time>2026-04-11T08:06:47.021Z</time></trkpt><trkpt lat="40.3676354" lon="17.3156433"><ele>10.333333333333332</ele><time>2026-04-11T08:06:48.005Z</time></trkpt><trkpt lat="40.3677629" lon="17.3154979"><ele>9.666666666666666</ele><time>2026-04-11T08:06:49.023Z</time></trkpt><trkpt lat="40.367881" lon="17.3153383"><ele>9.0</ele><time>2026-04-11T08:06:50.029Z</time></trkpt><trkpt lat="40.3680032" lon="17.3151878"><ele>10.333333333333332</ele><time>2026-04-11T08:06:51.027Z</time></trkpt><trkpt lat="40.3681265" lon="17.3150322"><ele>11.666666666666666</ele><time>2026-04-11T08:06:52.027Z</time></trkpt><trkpt lat="40.3682517" lon="17.314888"><ele>13.0</ele><time>2026-04-11T08:06:53.02Z</time></trkpt><trkpt lat="40.3683754" lon="17.3147374"><ele>13.0</ele><time>2026-04-11T08:06:54.003Z</time></trkpt><trkpt lat="40.3685015" lon="17.3145958"><ele>13.0</ele><time>2026-04-11T08:06:55.038Z</time></trkpt><trkpt lat="40.3686248" lon="17.3144428"><ele>13.0</ele><time>2026-04-11T08:06:56.044Z</time></trkpt><trkpt lat="40.3687457" lon="17.3142925"><ele>13.333333333333332</ele><time>2026-04-11T08:06:57.045Z</time></trkpt><trkpt lat="40.3688706" lon="17.3141408"><ele>13.666666666666668</ele><time>2026-04-11T08:06:58.002Z</time></trkpt><trkpt lat="40.3689975" lon="17.3139842"><ele>14.0</ele><time>2026-04-11T08:06:59.003Z</time></trkpt><trkpt lat="40.3691241" lon="17.3138212"><ele>14.0</ele><time>2026-04-11T08:07:00.008Z</time></trkpt><trkpt lat="40.3692519" lon="17.3136702"><ele>14.0</ele><time>2026-04-11T08:07:01.007Z</time></trkpt><trkpt lat="40.3693818" lon="17.313506"><ele>14.0</ele><time>2026-04-11T08:07:02.048Z</time></trkpt><trkpt lat="40.3695104" lon="17.3133441"><ele>14.0</ele><time>2026-04-11T08:07:03.014Z</time></trkpt><trkpt lat="40.3696398" lon="17.3131859"><ele>14.0</ele><time>2026-04-11T08:07:04.003Z</time></trkpt><trkpt lat="40.3697885" lon="17.3130385"><ele>14.0</ele><time>2026-04-11T08:07:05.032Z</time></trkpt><trkpt lat="40.3699142" lon="17.3128876"><ele>15.333333333333334</ele><time>2026-04-11T08:07:06.038Z</time></trkpt><trkpt lat="40.3700442" lon="17.3127337"><ele>16.666666666666668</ele><time>2026-04-11T08:07:06.999Z</time></trkpt><trkpt lat="40.3701593" lon="17.3125794"><ele>18.0</ele><time>2026-04-11T08:07:08.008Z</time></trkpt><trkpt lat="40.3702848" lon="17.3124265"><ele>18.0</ele><time>2026-04-11T08:07:09.013Z</time></trkpt><trkpt lat="40.3704103" lon="17.312278"><ele>18.0</ele><time>2026-04-11T08:07:10.017Z</time></trkpt><trkpt lat="40.3705323" lon="17.3121335"><ele>18.0</ele><time>2026-04-11T08:07:11.019Z</time></trkpt><trkpt lat="40.3706524" lon="17.3119803"><ele>19.666666666666668</ele><time>2026-04-11T08:07:12.017Z</time></trkpt><trkpt lat="40.3707789" lon="17.3118362"><ele>21.333333333333336</ele><time>2026-04-11T08:07:13.014Z</time></trkpt><trkpt lat="40.3709059" lon="17.3116933"><ele>23.0</ele><time>2026-04-11T08:07:14.014Z</time></trkpt><trkpt lat="40.371022" lon="17.311542"><ele>23.666666666666668</ele><time>2026-04-11T08:07:15.012Z</time></trkpt><trkpt lat="40.3711373" lon="17.3113976"><ele>24.333333333333336</ele><time>2026-04-11T08:07:16.014Z</time></trkpt><trkpt lat="40.3712562" lon="17.3112567"><ele>25.0</ele><time>2026-04-11T08:07:17.014Z</time></trkpt><trkpt lat="40.3713762" lon="17.3111144"><ele>25.333333333333336</ele><time>2026-04-11T08:07:18.002Z</time></trkpt><trkpt lat="40.3715081" lon="17.3109843"><ele>25.666666666666664</ele><time>2026-04-11T08:07:19.014Z</time></trkpt><trkpt lat="40.3716352" lon="17.310868"><ele>26.0</ele><time>2026-04-11T08:07:20.019Z</time></trkpt><trkpt lat="40.3717832" lon="17.3107777"><ele>26.0</ele><time>2026-04-11T08:07:21.018Z</time></trkpt><trkpt lat="40.371932" lon="17.3107065"><ele>26.0</ele><time>2026-04-11T08:07:22.01Z</time></trkpt><trkpt lat="40.3720884" lon="17.3106509"><ele>26.0</ele><time>2026-04-11T08:07:23.012Z</time></trkpt><trkpt lat="40.3722487" lon="17.3106144"><ele>26.333333333333332</ele><time>2026-04-11T08:07:24.096Z</time></trkpt><trkpt lat="40.3724102" lon="17.3105932"><ele>26.666666666666664</ele><time>2026-04-11T08:07:25.048Z</time></trkpt><trkpt lat="40.3725734" lon="17.3105723"><ele>27.0</ele><time>2026-04-11T08:07:26Z</time></trkpt><trkpt lat="40.3727371" lon="17.3105743"><ele>27.0</ele><time>2026-04-11T08:07:27.04Z</time></trkpt><trkpt lat="40.3729144" lon="17.31055"><ele>27.0</ele><time>2026-04-11T08:07:28.012Z</time></trkpt><trkpt lat="40.3730847" lon="17.3105238"><ele>27.0</ele><time>2026-04-11T08:07:29.01Z</time></trkpt><trkpt lat="40.3732507" lon="17.3105097"><ele>27.0</ele><time>2026-04-11T08:07:30.009Z</time></trkpt><trkpt lat="40.3734201" lon="17.3104911"><ele>27.0</ele><time>2026-04-11T08:07:31.012Z</time></trkpt><trkpt lat="40.3735766" lon="17.3104663"><ele>27.0</ele><time>2026-04-11T08:07:32.017Z</time></trkpt><trkpt lat="40.3737527" lon="17.3104663"><ele>26.666666666666664</ele><time>2026-04-11T08:07:33.016Z</time></trkpt><trkpt lat="40.3739146" lon="17.3104235"><ele>26.333333333333332</ele><time>2026-04-11T08:07:34.045Z</time></trkpt><trkpt lat="40.3740841" lon="17.310404"><ele>26.0</ele><time>2026-04-11T08:07:35.013Z</time></trkpt><trkpt lat="40.374245" lon="17.310392"><ele>26.0</ele><time>2026-04-11T08:07:36.013Z</time></trkpt><trkpt lat="40.3743974" lon="17.3103713"><ele>26.0</ele><time>2026-04-11T08:07:37.019Z</time></trkpt><trkpt lat="40.3745682" lon="17.3103549"><ele>26.0</ele><time>2026-04-11T08:07:38.041Z</time></trkpt><trkpt lat="40.3747208" lon="17.3103339"><ele>25.333333333333332</ele><time>2026-04-11T08:07:38.998Z</time></trkpt><trkpt lat="40.3748793" lon="17.3103123"><ele>24.666666666666664</ele><time>2026-04-11T08:07:40.011Z</time></trkpt><trkpt lat="40.3750416" lon="17.3102937"><ele>24.0</ele><time>2026-04-11T08:07:41.021Z</time></trkpt><trkpt lat="40.3752006" lon="17.310274"><ele>24.0</ele><time>2026-04-11T08:07:42.013Z</time></trkpt><trkpt lat="40.3753671" lon="17.3102496"><ele>24.0</ele><time>2026-04-11T08:07:43.011Z</time></trkpt><trkpt lat="40.3755239" lon="17.310234"><ele>24.0</ele><time>2026-04-11T08:07:44.041Z</time></trkpt><trkpt lat="40.3756867" lon="17.31021"><ele>24.333333333333336</ele><time>2026-04-11T08:07:45.001Z</time></trkpt><trkpt lat="40.3758375" lon="17.3101847"><ele>24.666666666666668</ele><time>2026-04-11T08:07:45.998Z</time></trkpt><trkpt lat="40.3760017" lon="17.3101504"><ele>25.0</ele><time>2026-04-11T08:07:47.01Z</time></trkpt><trkpt lat="40.3761618" lon="17.3101273"><ele>25.0</ele><time>2026-04-11T08:07:48.024Z</time></trkpt><trkpt lat="40.3763186" lon="17.310101"><ele>25.0</ele><time>2026-04-11T08:07:49.042Z</time></trkpt><trkpt lat="40.3764759" lon="17.3100906"><ele>25.0</ele><time>2026-04-11T08:07:50.016Z</time></trkpt><trkpt lat="40.376619" lon="17.3100739"><ele>25.75</ele><time>2026-04-11T08:07:51.05Z</time></trkpt><trkpt lat="40.3767707" lon="17.3100454"><ele>26.5</ele><time>2026-04-11T08:07:52.012Z</time></trkpt><trkpt lat="40.3769168" lon="17.3100222"><ele>27.25</ele><time>2026-04-11T08:07:53.004Z</time></trkpt><trkpt lat="40.3770646" lon="17.3100067"><ele>28.0</ele><time>2026-04-11T08:07:54.038Z</time></trkpt><trkpt lat="40.3772055" lon="17.3099874"><ele>28.75</ele><time>2026-04-11T08:07:55.01Z</time></trkpt><trkpt lat="40.3773415" lon="17.3099578"><ele>29.5</ele><time>2026-04-11T08:07:56.044Z</time></trkpt><trkpt lat="40.3774879" lon="17.3099566"><ele>30.25</ele><time>2026-04-11T08:07:57.04Z</time></trkpt><trkpt lat="40.3776274" lon="17.3099401"><ele>31.0</ele><time>2026-04-11T08:07:57.998Z</time></trkpt><trkpt lat="40.3777504" lon="17.309907"><ele>31.0</ele><time>2026-04-11T08:07:59.037Z</time></trkpt><trkpt lat="40.377883" lon="17.3098912"><ele>31.0</ele><time>2026-04-11T08:08:00.004Z</time></trkpt><trkpt lat="40.3780144" lon="17.3098841"><ele>31.0</ele><time>2026-04-11T08:08:01.007Z</time></trkpt><trkpt lat="40.3781293" lon="17.3098573"><ele>31.0</ele><time>2026-04-11T08:08:02.039Z</time></trkpt><trkpt lat="40.3782432" lon="17.3098412"><ele>30.8</ele><time>2026-04-11T08:08:03Z</time></trkpt><trkpt lat="40.3783249" lon="17.3098373"><ele>30.6</ele><time>2026-04-11T08:08:04.037Z</time></trkpt><trkpt lat="40.3784269" lon="17.3098262"><ele>30.4</ele><time>2026-04-11T08:08:05.016Z</time></trkpt><trkpt lat="40.3785243" lon="17.3098167"><ele>30.2</ele><time>2026-04-11T08:08:06.019Z</time></trkpt><trkpt lat="40.378624" lon="17.3098222"><ele>30.0</ele><time>2026-04-11T08:08:07.014Z</time></trkpt><trkpt lat="40.3787177" lon="17.3098414"><ele>30.0</ele><time>2026-04-11T08:08:08.008Z</time></trkpt><trkpt lat="40.3788144" lon="17.3098623"><ele>30.0</ele><time>2026-04-11T08:08:08.994Z</time></trkpt><trkpt lat="40.3788829" lon="17.3098767"><ele>30.0</ele><time>2026-04-11T08:08:10.039Z</time></trkpt><trkpt lat="40.3789693" lon="17.3099035"><ele>30.0</ele><time>2026-04-11T08:08:11.004Z</time></trkpt><trkpt lat="40.379054" lon="17.3099219"><ele>30.0</ele><time>2026-04-11T08:08:11.998Z</time></trkpt><trkpt lat="40.3791525" lon="17.3099339"><ele>30.0</ele><time>2026-04-11T08:08:13.004Z</time></trkpt><trkpt lat="40.3792092" lon="17.3098444"><ele>29.5</ele><time>2026-04-11T08:08:14.011Z</time></trkpt><trkpt lat="40.3792895" lon="17.3097878"><ele>29.0</ele><time>2026-04-11T08:08:15.008Z</time></trkpt><trkpt lat="40.3793366" lon="17.3096808"><ele>28.5</ele><time>2026-04-11T08:08:16.008Z</time></trkpt><trkpt lat="40.3793961" lon="17.3096022"><ele>28.0</ele><time>2026-04-11T08:08:16.999Z</time></trkpt><trkpt lat="40.3793708" lon="17.3093659"><ele>27.75</ele><time>2026-04-11T08:08:18.009Z</time></trkpt><trkpt lat="40.3793993" lon="17.3092354"><ele>27.5</ele><time>2026-04-11T08:08:19.01Z</time></trkpt><trkpt lat="40.3793843" lon="17.3090473"><ele>27.25</ele><time>2026-04-11T08:08:20.003Z</time></trkpt><trkpt lat="40.3793847" lon="17.3088737"><ele>27.0</ele><time>2026-04-11T08:08:21.011Z</time></trkpt><trkpt lat="40.3793926" lon="17.3087069"><ele>26.5</ele><time>2026-04-11T08:08:22.009Z</time></trkpt><trkpt lat="40.3794318" lon="17.3085239"><ele>26.0</ele><time>2026-04-11T08:08:23.005Z</time></trkpt><trkpt lat="40.3794727" lon="17.308346"><ele>25.5</ele><time>2026-04-11T08:08:24.002Z</time></trkpt><trkpt lat="40.3795352" lon="17.3081713"><ele>25.0</ele><time>2026-04-11T08:08:24.999Z</time></trkpt><trkpt lat="40.3795879" lon="17.3079962"><ele>25.25</ele><time>2026-04-11T08:08:26.023Z</time></trkpt><trkpt lat="40.3796295" lon="17.307832"><ele>25.5</ele><time>2026-04-11T08:08:27.051Z</time></trkpt><trkpt lat="40.3796841" lon="17.3076708"><ele>25.75</ele><time>2026-04-11T08:08:28.004Z</time></trkpt><trkpt lat="40.3797362" lon="17.3075463"><ele>26.0</ele><time>2026-04-11T08:08:29.041Z</time></trkpt><trkpt lat="40.3797861" lon="17.3074098"><ele>26.0</ele><time>2026-04-11T08:08:29.999Z</time></trkpt><trkpt lat="40.3798227" lon="17.3072854"><ele>26.0</ele><time>2026-04-11T08:08:30.999Z</time></trkpt><trkpt lat="40.3798782" lon="17.3071482"><ele>26.0</ele><time>2026-04-11T08:08:32.037Z</time></trkpt><trkpt lat="40.3799351" lon="17.3070149"><ele>26.0</ele><time>2026-04-11T08:08:33.011Z</time></trkpt><trkpt lat="40.3800191" lon="17.3068956"><ele>26.0</ele><time>2026-04-11T08:08:34.014Z</time></trkpt><trkpt lat="40.380105" lon="17.3067795"><ele>26.0</ele><time>2026-04-11T08:08:35.083Z</time></trkpt><trkpt lat="40.3801911" lon="17.3066513"><ele>26.0</ele><time>2026-04-11T08:08:36.002Z</time></trkpt><trkpt lat="40.3802869" lon="17.3065202"><ele>26.0</ele><time>2026-04-11T08:08:37.001Z</time></trkpt><trkpt lat="40.3803965" lon="17.3064049"><ele>26.0</ele><time>2026-04-11T08:08:38.043Z</time></trkpt><trkpt lat="40.3804883" lon="17.3062896"><ele>26.0</ele><time>2026-04-11T08:08:39.036Z</time></trkpt><trkpt lat="40.3805894" lon="17.3061701"><ele>26.0</ele><time>2026-04-11T08:08:40.01Z</time></trkpt><trkpt lat="40.3806872" lon="17.3060539"><ele>26.0</ele><time>2026-04-11T08:08:41.003Z</time></trkpt><trkpt lat="40.3807859" lon="17.3059371"><ele>26.0</ele><time>2026-04-11T08:08:41.998Z</time></trkpt><trkpt lat="40.3808815" lon="17.3058205"><ele>26.0</ele><time>2026-04-11T08:08:43.047Z</time></trkpt><trkpt lat="40.3809743" lon="17.3057024"><ele>26.0</ele><time>2026-04-11T08:08:44.046Z</time></trkpt><trkpt lat="40.3810781" lon="17.3055881"><ele>26.0</ele><time>2026-04-11T08:08:45.006Z</time></trkpt><trkpt lat="40.3811749" lon="17.3054752"><ele>26.0</ele><time>2026-04-11T08:08:45.999Z</time></trkpt><trkpt lat="40.3812745" lon="17.305386"><ele>26.0</ele><time>2026-04-11T08:08:47.005Z</time></trkpt><trkpt lat="40.3813645" lon="17.305294"><ele>26.0</ele><time>2026-04-11T08:08:48.012Z</time></trkpt><trkpt lat="40.3814508" lon="17.3051959"><ele>26.0</ele><time>2026-04-11T08:08:48.999Z</time></trkpt><trkpt lat="40.3815317" lon="17.3051007"><ele>26.0</ele><time>2026-04-11T08:08:50.01Z</time></trkpt><trkpt lat="40.3816217" lon="17.3050005"><ele>26.0</ele><time>2026-04-11T08:08:51.01Z</time></trkpt><trkpt lat="40.3817154" lon="17.3048957"><ele>26.0</ele><time>2026-04-11T08:08:52.011Z</time></trkpt><trkpt lat="40.3818137" lon="17.3047926"><ele>26.0</ele><time>2026-04-11T08:08:53.016Z</time></trkpt><trkpt lat="40.381918" lon="17.3046827"><ele>26.0</ele><time>2026-04-11T08:08:54.015Z</time></trkpt><trkpt lat="40.3820335" lon="17.3045734"><ele>26.0</ele><time>2026-04-11T08:08:55.011Z</time></trkpt><trkpt lat="40.3821411" lon="17.3044645"><ele>26.0</ele><time>2026-04-11T08:08:56.012Z</time></trkpt><trkpt lat="40.3822308" lon="17.3043739"><ele>26.0</ele><time>2026-04-11T08:08:57.042Z</time></trkpt><trkpt lat="40.3823278" lon="17.3042821"><ele>26.0</ele><time>2026-04-11T08:08:58.005Z</time></trkpt><trkpt lat="40.38242" lon="17.3041941"><ele>26.0</ele><time>2026-04-11T08:08:59.037Z</time></trkpt><trkpt lat="40.3825073" lon="17.3040986"><ele>26.0</ele><time>2026-04-11T08:09:00.006Z</time></trkpt><trkpt lat="40.382591" lon="17.3040128"><ele>26.0</ele><time>2026-04-11T08:09:01.037Z</time></trkpt><trkpt lat="40.3826763" lon="17.3039263"><ele>26.0</ele><time>2026-04-11T08:09:02.038Z</time></trkpt><trkpt lat="40.3827591" lon="17.30385"><ele>26.0</ele><time>2026-04-11T08:09:03.008Z</time></trkpt><trkpt lat="40.3828287" lon="17.3037679"><ele>26.0</ele><time>2026-04-11T08:09:04.008Z</time></trkpt><trkpt lat="40.3828942" lon="17.3036925"><ele>26.0</ele><time>2026-04-11T08:09:05.013Z</time></trkpt><trkpt lat="40.3829601" lon="17.3036138"><ele>26.0</ele><time>2026-04-11T08:09:06.018Z</time></trkpt><trkpt lat="40.3830299" lon="17.3035351"><ele>26.0</ele><time>2026-04-11T08:09:07.012Z</time></trkpt><trkpt lat="40.3831017" lon="17.3034597"><ele>26.200000000000003</ele><time>2026-04-11T08:09:08.014Z</time></trkpt><trkpt lat="40.3831732" lon="17.3033791"><ele>26.400000000000002</ele><time>2026-04-11T08:09:09.011Z</time></trkpt><trkpt lat="40.383239" lon="17.3032864"><ele>26.6</ele><time>2026-04-11T08:09:10.013Z</time></trkpt><trkpt lat="40.3833022" lon="17.3032009"><ele>26.8</ele><time>2026-04-11T08:09:11.012Z</time></trkpt><trkpt lat="40.3833635" lon="17.3031191"><ele>27.0</ele><time>2026-04-11T08:09:12.013Z</time></trkpt><trkpt lat="40.3834277" lon="17.3030379"><ele>26.166666666666668</ele><time>2026-04-11T08:09:13.001Z</time></trkpt><trkpt lat="40.3834752" lon="17.302969"><ele>25.333333333333332</ele><time>2026-04-11T08:09:14.009Z</time></trkpt><trkpt lat="40.3835256" lon="17.3028989"><ele>24.5</ele><time>2026-04-11T08:09:15.011Z</time></trkpt><trkpt lat="40.3835807" lon="17.3028329"><ele>23.666666666666664</ele><time>2026-04-11T08:09:16.013Z</time></trkpt><trkpt lat="40.3836335" lon="17.3027587"><ele>22.833333333333332</ele><time>2026-04-11T08:09:17.054Z</time></trkpt><trkpt lat="40.3836867" lon="17.3026911"><ele>22.0</ele><time>2026-04-11T08:09:18.006Z</time></trkpt><trkpt lat="40.3837707" lon="17.3025621"><ele>22.0</ele><time>2026-04-11T08:09:20.04Z</time></trkpt><trkpt lat="40.3838076" lon="17.302495"><ele>22.0</ele><time>2026-04-11T08:09:21.008Z</time></trkpt><trkpt lat="40.3838747" lon="17.3023854"><ele>22.0</ele><time>2026-04-11T08:09:23.01Z</time></trkpt><trkpt lat="40.3839374" lon="17.3022879"><ele>22.0</ele><time>2026-04-11T08:09:25.011Z</time></trkpt><trkpt lat="40.3839455" lon="17.3021248"><ele>22.0</ele><time>2026-04-11T08:09:27.045Z</time></trkpt><trkpt lat="40.3839418" lon="17.3020095"><ele>22.8</ele><time>2026-04-11T08:09:28.011Z</time></trkpt><trkpt lat="40.3839439" lon="17.301883"><ele>23.6</ele><time>2026-04-11T08:09:29.014Z</time></trkpt><trkpt lat="40.3839545" lon="17.3017662"><ele>24.400000000000002</ele><time>2026-04-11T08:09:30.039Z</time></trkpt><trkpt lat="40.3839649" lon="17.3016449"><ele>25.200000000000003</ele><time>2026-04-11T08:09:30.996Z</time></trkpt><trkpt lat="40.383974" lon="17.3015197"><ele>26.0</ele><time>2026-04-11T08:09:32.036Z</time></trkpt><trkpt lat="40.3839816" lon="17.3013896"><ele>26.0</ele><time>2026-04-11T08:09:33.009Z</time></trkpt><trkpt lat="40.3839935" lon="17.3012529"><ele>26.0</ele><time>2026-04-11T08:09:34.037Z</time></trkpt><trkpt lat="40.384004" lon="17.3011154"><ele>26.0</ele><time>2026-04-11T08:09:34.996Z</time></trkpt><trkpt lat="40.3840177" lon="17.3009734"><ele>26.0</ele><time>2026-04-11T08:09:35.997Z</time></trkpt><trkpt lat="40.384027" lon="17.3008301"><ele>26.0</ele><time>2026-04-11T08:09:37.005Z</time></trkpt><trkpt lat="40.3840435" lon="17.3006788"><ele>26.0</ele><time>2026-04-11T08:09:38.006Z</time></trkpt><trkpt lat="40.3840545" lon="17.3005324"><ele>26.0</ele><time>2026-04-11T08:09:39Z</time></trkpt><trkpt lat="40.3840628" lon="17.3004028"><ele>26.0</ele><time>2026-04-11T08:09:40.007Z</time></trkpt><trkpt lat="40.3840784" lon="17.300275"><ele>26.0</ele><time>2026-04-11T08:09:41.019Z</time></trkpt><trkpt lat="40.3840928" lon="17.3001616"><ele>26.0</ele><time>2026-04-11T08:09:42.012Z</time></trkpt><trkpt lat="40.3841077" lon="17.3000369"><ele>26.0</ele><time>2026-04-11T08:09:43.012Z</time></trkpt><trkpt lat="40.3841214" lon="17.2999081"><ele>26.0</ele><time>2026-04-11T08:09:44.01Z</time></trkpt><trkpt lat="40.3841264" lon="17.2997881"><ele>26.0</ele><time>2026-04-11T08:09:45.013Z</time></trkpt><trkpt lat="40.3841316" lon="17.2996662"><ele>26.0</ele><time>2026-04-11T08:09:46.02Z</time></trkpt><trkpt lat="40.3841346" lon="17.2995371"><ele>26.0</ele><time>2026-04-11T08:09:46.997Z</time></trkpt><trkpt lat="40.3841252" lon="17.2993916"><ele>25.999999999999996</ele><time>2026-04-11T08:09:48.037Z</time></trkpt><trkpt lat="40.3841232" lon="17.2992474"><ele>26.0</ele><time>2026-04-11T08:09:49.043Z</time></trkpt><trkpt lat="40.3841223" lon="17.2991059"><ele>26.0</ele><time>2026-04-11T08:09:49.997Z</time></trkpt><trkpt lat="40.3841093" lon="17.2989982"><ele>26.0</ele><time>2026-04-11T08:09:51.031Z</time></trkpt><trkpt lat="40.3840987" lon="17.2988958"><ele>25.999999999999996</ele><time>2026-04-11T08:09:52.039Z</time></trkpt><trkpt lat="40.384083" lon="17.2988108"><ele>26.0</ele><time>2026-04-11T08:09:53.011Z</time></trkpt><trkpt lat="40.38407" lon="17.2987153"><ele>28.0</ele><time>2026-04-11T08:09:55.01Z</time></trkpt><trkpt lat="40.3840842" lon="17.298606"><ele>28.0</ele><time>2026-04-11T08:09:58.015Z</time></trkpt><trkpt lat="40.3840874" lon="17.2985016"><ele>28.0</ele><time>2026-04-11T08:10:02.013Z</time></trkpt></trkseg><trkseg><trkpt lat="40.3840662" lon="17.2983441"><ele>28.0</ele><time>2026-04-11T08:54:06.03Z</time></trkpt><trkpt lat="40.3840469" lon="17.2982412"><ele>27.999999999999996</ele><time>2026-04-11T08:54:08.052Z</time></trkpt><trkpt lat="40.3840283" lon="17.2980675"><ele>27.999999999999996</ele><time>2026-04-11T08:54:09.999Z</time></trkpt><trkpt lat="40.3840064" lon="17.2979228"><ele>28.0</ele><time>2026-04-11T08:54:12.033Z</time></trkpt><trkpt lat="40.3839884" lon="17.2978406"><ele>28.0</ele><time>2026-04-11T08:54:13.002Z</time></trkpt><trkpt lat="40.3839944" lon="17.2977363"><ele>28.000000000000004</ele><time>2026-04-11T08:54:14.035Z</time></trkpt><trkpt lat="40.3839884" lon="17.2976457"><ele>28.0</ele><time>2026-04-11T08:54:14.999Z</time></trkpt><trkpt lat="40.3839794" lon="17.2975392"><ele>28.0</ele><time>2026-04-11T08:54:16.007Z</time></trkpt><trkpt lat="40.383975" lon="17.2974393"><ele>28.0</ele><time>2026-04-11T08:54:17.039Z</time></trkpt><trkpt lat="40.3839789" lon="17.2973317"><ele>28.000000000000004</ele><time>2026-04-11T08:54:18.032Z</time></trkpt><trkpt lat="40.3839669" lon="17.2972202"><ele>28.0</ele><time>2026-04-11T08:54:18.994Z</time></trkpt><trkpt lat="40.3839294" lon="17.2971004"><ele>28.2</ele><time>2026-04-11T08:54:20.003Z</time></trkpt><trkpt lat="40.3838978" lon="17.2969637"><ele>28.4</ele><time>2026-04-11T08:54:21.039Z</time></trkpt><trkpt lat="40.3838702" lon="17.296837"><ele>28.599999999999998</ele><time>2026-04-11T08:54:21.992Z</time></trkpt><trkpt lat="40.3838302" lon="17.2966953"><ele>28.799999999999997</ele><time>2026-04-11T08:54:23.031Z</time></trkpt><trkpt lat="40.383793" lon="17.2965465"><ele>29.0</ele><time>2026-04-11T08:54:24.008Z</time></trkpt><trkpt lat="40.3837615" lon="17.2964202"><ele>27.799999999999997</ele><time>2026-04-11T08:54:25.013Z</time></trkpt><trkpt lat="40.3837339" lon="17.2962935"><ele>26.599999999999998</ele><time>2026-04-11T08:54:26.006Z</time></trkpt><trkpt lat="40.383709" lon="17.2961581"><ele>25.4</ele><time>2026-04-11T08:54:27.006Z</time></trkpt><trkpt lat="40.3836842" lon="17.2960315"><ele>24.2</ele><time>2026-04-11T08:54:28.015Z</time></trkpt><trkpt lat="40.3836744" lon="17.2958805"><ele>23.0</ele><time>2026-04-11T08:54:29.016Z</time></trkpt><trkpt lat="40.3836706" lon="17.2957348"><ele>23.0</ele><time>2026-04-11T08:54:30.005Z</time></trkpt><trkpt lat="40.383672" lon="17.2955988"><ele>23.0</ele><time>2026-04-11T08:54:31.01Z</time></trkpt><trkpt lat="40.3836815" lon="17.2954529"><ele>23.0</ele><time>2026-04-11T08:54:32.007Z</time></trkpt><trkpt lat="40.3836956" lon="17.2953129"><ele>23.0</ele><time>2026-04-11T08:54:33.004Z</time></trkpt><trkpt lat="40.3837061" lon="17.2951848"><ele>23.0</ele><time>2026-04-11T08:54:33.999Z</time></trkpt><trkpt lat="40.3837224" lon="17.2950536"><ele>22.0</ele><time>2026-04-11T08:54:34.999Z</time></trkpt><trkpt lat="40.3837261" lon="17.2949108"><ele>21.0</ele><time>2026-04-11T08:54:36.008Z</time></trkpt><trkpt lat="40.3837523" lon="17.2947499"><ele>20.0</ele><time>2026-04-11T08:54:37.012Z</time></trkpt><trkpt lat="40.3837768" lon="17.294585"><ele>19.0</ele><time>2026-04-11T08:54:38.008Z</time></trkpt><trkpt lat="40.3837897" lon="17.2944192"><ele>19.0</ele><time>2026-04-11T08:54:39.012Z</time></trkpt><trkpt lat="40.3838015" lon="17.294242"><ele>19.0</ele><time>2026-04-11T08:54:40.011Z</time></trkpt><trkpt lat="40.3838069" lon="17.2940802"><ele>19.0</ele><time>2026-04-11T08:54:41.002Z</time></trkpt><trkpt lat="40.3838047" lon="17.2939306"><ele>19.0</ele><time>2026-04-11T08:54:42.004Z</time></trkpt><trkpt lat="40.3838109" lon="17.2937843"><ele>20.0</ele><time>2026-04-11T08:54:43.006Z</time></trkpt><trkpt lat="40.3838319" lon="17.293664"><ele>21.0</ele><time>2026-04-11T08:54:44.008Z</time></trkpt><trkpt lat="40.383846" lon="17.2935359"><ele>22.0</ele><time>2026-04-11T08:54:45.038Z</time></trkpt><trkpt lat="40.3838651" lon="17.2934127"><ele>23.0</ele><time>2026-04-11T08:54:46.03Z</time></trkpt><trkpt lat="40.3838882" lon="17.2932825"><ele>24.0</ele><time>2026-04-11T08:54:46.991Z</time></trkpt><trkpt lat="40.3839265" lon="17.2931511"><ele>24.4</ele><time>2026-04-11T08:54:48.003Z</time></trkpt><trkpt lat="40.3839576" lon="17.2930356"><ele>24.799999999999997</ele><time>2026-04-11T08:54:49.039Z</time></trkpt><trkpt lat="40.3839948" lon="17.2929139"><ele>25.200000000000003</ele><time>2026-04-11T08:54:50.006Z</time></trkpt><trkpt lat="40.3840318" lon="17.2928012"><ele>25.6</ele><time>2026-04-11T08:54:51.036Z</time></trkpt><trkpt lat="40.3840687" lon="17.2926923"><ele>26.0</ele><time>2026-04-11T08:54:52.028Z</time></trkpt><trkpt lat="40.3841104" lon="17.2925834"><ele>25.999999999999996</ele><time>2026-04-11T08:54:53.039Z</time></trkpt><trkpt lat="40.3841462" lon="17.2924689"><ele>26.0</ele><time>2026-04-11T08:54:54.034Z</time></trkpt><trkpt lat="40.3841828" lon="17.2923736"><ele>26.0</ele><time>2026-04-11T08:54:55.006Z</time></trkpt><trkpt lat="40.3842234" lon="17.2922862"><ele>26.0</ele><time>2026-04-11T08:54:56.006Z</time></trkpt><trkpt lat="40.3842585" lon="17.2922052"><ele>25.999999999999996</ele><time>2026-04-11T08:54:56.99Z</time></trkpt><trkpt lat="40.3842971" lon="17.2921151"><ele>26.0</ele><time>2026-04-11T08:54:58Z</time></trkpt><trkpt lat="40.3843366" lon="17.2920219"><ele>26.200000000000003</ele><time>2026-04-11T08:54:59.011Z</time></trkpt><trkpt lat="40.3843942" lon="17.2919259"><ele>26.400000000000002</ele><time>2026-04-11T08:55:00.011Z</time></trkpt><trkpt lat="40.3844517" lon="17.2918188"><ele>26.6</ele><time>2026-04-11T08:55:01.012Z</time></trkpt><trkpt lat="40.3845196" lon="17.2917074"><ele>26.8</ele><time>2026-04-11T08:55:02.008Z</time></trkpt><trkpt lat="40.3845713" lon="17.2915902"><ele>27.0</ele><time>2026-04-11T08:55:03.011Z</time></trkpt><trkpt lat="40.3846161" lon="17.2914712"><ele>27.200000000000003</ele><time>2026-04-11T08:55:04.008Z</time></trkpt><trkpt lat="40.3846633" lon="17.2913634"><ele>27.400000000000002</ele><time>2026-04-11T08:55:05.042Z</time></trkpt><trkpt lat="40.384709" lon="17.2912517"><ele>27.599999999999998</ele><time>2026-04-11T08:55:05.994Z</time></trkpt><trkpt lat="40.3847499" lon="17.2911223"><ele>27.799999999999997</ele><time>2026-04-11T08:55:07.031Z</time></trkpt><trkpt lat="40.3847898" lon="17.291005"><ele>28.0</ele><time>2026-04-11T08:55:08Z</time></trkpt><trkpt lat="40.3848391" lon="17.2908909"><ele>28.2</ele><time>2026-04-11T08:55:09.028Z</time></trkpt><trkpt lat="40.3848816" lon="17.2907737"><ele>28.4</ele><time>2026-04-11T08:55:10.001Z</time></trkpt><trkpt lat="40.3849299" lon="17.290664"><ele>28.599999999999998</ele><time>2026-04-11T08:55:11.005Z</time></trkpt><trkpt lat="40.3849702" lon="17.2905587"><ele>28.799999999999997</ele><time>2026-04-11T08:55:12.086Z</time></trkpt><trkpt lat="40.3850139" lon="17.2904448"><ele>29.0</ele><time>2026-04-11T08:55:13.003Z</time></trkpt><trkpt lat="40.3850688" lon="17.2903389"><ele>28.6</ele><time>2026-04-11T08:55:14.001Z</time></trkpt><trkpt lat="40.3850909" lon="17.2902197"><ele>28.2</ele><time>2026-04-11T08:55:15.001Z</time></trkpt><trkpt lat="40.3851517" lon="17.2901264"><ele>27.800000000000004</ele><time>2026-04-11T08:55:16.001Z</time></trkpt><trkpt lat="40.3851914" lon="17.2900214"><ele>27.400000000000002</ele><time>2026-04-11T08:55:17.008Z</time></trkpt><trkpt lat="40.3852393" lon="17.2898957"><ele>27.0</ele><time>2026-04-11T08:55:18.007Z</time></trkpt><trkpt lat="40.3853037" lon="17.2897723"><ele>27.0</ele><time>2026-04-11T08:55:19.011Z</time></trkpt><trkpt lat="40.3853556" lon="17.2896538"><ele>27.000000000000004</ele><time>2026-04-11T08:55:20.002Z</time></trkpt><trkpt lat="40.3854221" lon="17.2895423"><ele>27.000000000000004</ele><time>2026-04-11T08:55:21.001Z</time></trkpt><trkpt lat="40.3854771" lon="17.2894205"><ele>27.0</ele><time>2026-04-11T08:55:22.004Z</time></trkpt><trkpt lat="40.3855006" lon="17.2893037"><ele>27.0</ele><time>2026-04-11T08:55:23.009Z</time></trkpt><trkpt lat="40.3855507" lon="17.2891798"><ele>27.200000000000003</ele><time>2026-04-11T08:55:24.006Z</time></trkpt><trkpt lat="40.3856062" lon="17.2890524"><ele>27.400000000000002</ele><time>2026-04-11T08:55:25.009Z</time></trkpt><trkpt lat="40.3856609" lon="17.2889353"><ele>27.599999999999998</ele><time>2026-04-11T08:55:25.997Z</time></trkpt><trkpt lat="40.3856973" lon="17.2888139"><ele>27.799999999999997</ele><time>2026-04-11T08:55:27Z</time></trkpt><trkpt lat="40.3857346" lon="17.2887069"><ele>28.0</ele><time>2026-04-11T08:55:28.005Z</time></trkpt><trkpt lat="40.3857739" lon="17.2885914"><ele>28.000000000000004</ele><time>2026-04-11T08:55:29.002Z</time></trkpt><trkpt lat="40.3858147" lon="17.2884823"><ele>28.0</ele><time>2026-04-11T08:55:30.006Z</time></trkpt><trkpt lat="40.385864" lon="17.2883795"><ele>28.0</ele><time>2026-04-11T08:55:31Z</time></trkpt><trkpt lat="40.3859098" lon="17.2882873"><ele>28.0</ele><time>2026-04-11T08:55:32.001Z</time></trkpt><trkpt lat="40.3859333" lon="17.2881994"><ele>28.000000000000004</ele><time>2026-04-11T08:55:32.999Z</time></trkpt><trkpt lat="40.3859585" lon="17.2881214"><ele>28.0</ele><time>2026-04-11T08:55:34Z</time></trkpt><trkpt lat="40.3859882" lon="17.2880293"><ele>28.2</ele><time>2026-04-11T08:55:35.022Z</time></trkpt><trkpt lat="40.3860295" lon="17.2879445"><ele>28.4</ele><time>2026-04-11T08:55:36.02Z</time></trkpt><trkpt lat="40.3860347" lon="17.287832"><ele>28.599999999999998</ele><time>2026-04-11T08:55:37.007Z</time></trkpt><trkpt lat="40.3861" lon="17.2877154"><ele>28.799999999999997</ele><time>2026-04-11T08:55:38Z</time></trkpt><trkpt lat="40.3861562" lon="17.2875619"><ele>29.0</ele><time>2026-04-11T08:55:39Z</time></trkpt><trkpt lat="40.3862106" lon="17.2874076"><ele>28.75</ele><time>2026-04-11T08:55:40.001Z</time></trkpt><trkpt lat="40.3862803" lon="17.2872361"><ele>28.5</ele><time>2026-04-11T08:55:41Z</time></trkpt><trkpt lat="40.3863438" lon="17.2870644"><ele>28.25</ele><time>2026-04-11T08:55:42.004Z</time></trkpt><trkpt lat="40.3864036" lon="17.2868886"><ele>28.0</ele><time>2026-04-11T08:55:42.998Z</time></trkpt><trkpt lat="40.3864727" lon="17.2867238"><ele>27.75</ele><time>2026-04-11T08:55:44.008Z</time></trkpt><trkpt lat="40.3865386" lon="17.2865459"><ele>27.5</ele><time>2026-04-11T08:55:45.01Z</time></trkpt><trkpt lat="40.3866058" lon="17.2863838"><ele>27.25</ele><time>2026-04-11T08:55:46.009Z</time></trkpt><trkpt lat="40.3866664" lon="17.2862422"><ele>27.0</ele><time>2026-04-11T08:55:47.003Z</time></trkpt><trkpt lat="40.3867252" lon="17.28611"><ele>27.0</ele><time>2026-04-11T08:55:48.006Z</time></trkpt><trkpt lat="40.386786" lon="17.2859763"><ele>27.000000000000004</ele><time>2026-04-11T08:55:48.998Z</time></trkpt><trkpt lat="40.3868368" lon="17.2858426"><ele>27.000000000000004</ele><time>2026-04-11T08:55:49.999Z</time></trkpt><trkpt lat="40.3868961" lon="17.2857276"><ele>27.0</ele><time>2026-04-11T08:55:51.003Z</time></trkpt><trkpt lat="40.3869441" lon="17.285617"><ele>27.0</ele><time>2026-04-11T08:55:51.999Z</time></trkpt><trkpt lat="40.3869859" lon="17.2855133"><ele>27.200000000000003</ele><time>2026-04-11T08:55:52.999Z</time></trkpt><trkpt lat="40.3870296" lon="17.285408"><ele>27.400000000000002</ele><time>2026-04-11T08:55:53.998Z</time></trkpt><trkpt lat="40.3870824" lon="17.2853013"><ele>27.599999999999998</ele><time>2026-04-11T08:55:55.004Z</time></trkpt><trkpt lat="40.3871259" lon="17.2851778"><ele>27.799999999999997</ele><time>2026-04-11T08:55:56.004Z</time></trkpt><trkpt lat="40.3871866" lon="17.2850658"><ele>28.0</ele><time>2026-04-11T08:55:57.006Z</time></trkpt><trkpt lat="40.3872417" lon="17.2849441"><ele>28.0</ele><time>2026-04-11T08:55:58.009Z</time></trkpt><trkpt lat="40.3873001" lon="17.2848325"><ele>27.999999999999996</ele><time>2026-04-11T08:55:59Z</time></trkpt><trkpt lat="40.3873594" lon="17.2847156"><ele>27.999999999999996</ele><time>2026-04-11T08:55:59.998Z</time></trkpt><trkpt lat="40.3874191" lon="17.2846082"><ele>28.0</ele><time>2026-04-11T08:56:01.007Z</time></trkpt><trkpt lat="40.3874822" lon="17.2844991"><ele>28.0</ele><time>2026-04-11T08:56:02.005Z</time></trkpt><trkpt lat="40.3875443" lon="17.2843933"><ele>28.0</ele><time>2026-04-11T08:56:03.004Z</time></trkpt><trkpt lat="40.3876082" lon="17.2842872"><ele>27.999999999999996</ele><time>2026-04-11T08:56:03.998Z</time></trkpt><trkpt lat="40.3876639" lon="17.2841835"><ele>27.999999999999996</ele><time>2026-04-11T08:56:04.999Z</time></trkpt><trkpt lat="40.3877383" lon="17.284095"><ele>28.0</ele><time>2026-04-11T08:56:06.002Z</time></trkpt><trkpt lat="40.3877797" lon="17.2839907"><ele>28.0</ele><time>2026-04-11T08:56:06.999Z</time></trkpt><trkpt lat="40.3878444" lon="17.2838857"><ele>28.0</ele><time>2026-04-11T08:56:07.998Z</time></trkpt><trkpt lat="40.3878864" lon="17.2837744"><ele>27.999999999999996</ele><time>2026-04-11T08:56:09.001Z</time></trkpt><trkpt lat="40.3879429" lon="17.283686"><ele>27.999999999999996</ele><time>2026-04-11T08:56:10.001Z</time></trkpt><trkpt lat="40.3879816" lon="17.2835771"><ele>28.0</ele><time>2026-04-11T08:56:10.997Z</time></trkpt><trkpt lat="40.388031" lon="17.2834785"><ele>28.0</ele><time>2026-04-11T08:56:12.007Z</time></trkpt><trkpt lat="40.3881052" lon="17.2833884"><ele>28.0</ele><time>2026-04-11T08:56:13.002Z</time></trkpt><trkpt lat="40.3881953" lon="17.2833204"><ele>27.999999999999996</ele><time>2026-04-11T08:56:13.999Z</time></trkpt><trkpt lat="40.3882282" lon="17.2831839"><ele>27.999999999999996</ele><time>2026-04-11T08:56:15.072Z</time></trkpt><trkpt lat="40.3882533" lon="17.2830336"><ele>28.0</ele><time>2026-04-11T08:56:16.002Z</time></trkpt><trkpt lat="40.3883301" lon="17.2829394"><ele>28.0</ele><time>2026-04-11T08:56:17.006Z</time></trkpt><trkpt lat="40.3884101" lon="17.2828518"><ele>28.0</ele><time>2026-04-11T08:56:18.007Z</time></trkpt><trkpt lat="40.3884886" lon="17.2827583"><ele>27.999999999999996</ele><time>2026-04-11T08:56:19.001Z</time></trkpt><trkpt lat="40.3885523" lon="17.2826427"><ele>27.999999999999996</ele><time>2026-04-11T08:56:20.008Z</time></trkpt><trkpt lat="40.3886325" lon="17.2825368"><ele>28.0</ele><time>2026-04-11T08:56:21Z</time></trkpt><trkpt lat="40.3886924" lon="17.2824279"><ele>28.0</ele><time>2026-04-11T08:56:22Z</time></trkpt><trkpt lat="40.3887592" lon="17.2823219"><ele>28.0</ele><time>2026-04-11T08:56:23.001Z</time></trkpt><trkpt lat="40.3888171" lon="17.282204"><ele>27.999999999999996</ele><time>2026-04-11T08:56:23.999Z</time></trkpt><trkpt lat="40.3888806" lon="17.2820898"><ele>27.999999999999996</ele><time>2026-04-11T08:56:25.012Z</time></trkpt><trkpt lat="40.3889395" lon="17.2819657"><ele>28.0</ele><time>2026-04-11T08:56:26.001Z</time></trkpt><trkpt lat="40.3889921" lon="17.2818371"><ele>28.0</ele><time>2026-04-11T08:56:26.999Z</time></trkpt><trkpt lat="40.3890431" lon="17.2817097"><ele>27.799999999999997</ele><time>2026-04-11T08:56:28.008Z</time></trkpt><trkpt lat="40.3890867" lon="17.2815708"><ele>27.599999999999998</ele><time>2026-04-11T08:56:29.004Z</time></trkpt><trkpt lat="40.3891188" lon="17.2814328"><ele>27.400000000000002</ele><time>2026-04-11T08:56:30.003Z</time></trkpt><trkpt lat="40.3891513" lon="17.2812942"><ele>27.200000000000003</ele><time>2026-04-11T08:56:31.009Z</time></trkpt><trkpt lat="40.3891786" lon="17.2811558"><ele>27.0</ele><time>2026-04-11T08:56:32.011Z</time></trkpt><trkpt lat="40.3891972" lon="17.2810181"><ele>27.0</ele><time>2026-04-11T08:56:33.031Z</time></trkpt><trkpt lat="40.38922" lon="17.2808774"><ele>27.000000000000004</ele><time>2026-04-11T08:56:34.023Z</time></trkpt><trkpt lat="40.389242" lon="17.2807349"><ele>27.000000000000004</ele><time>2026-04-11T08:56:35.004Z</time></trkpt><trkpt lat="40.3892578" lon="17.2805912"><ele>27.0</ele><time>2026-04-11T08:56:36.002Z</time></trkpt><trkpt lat="40.3892711" lon="17.2804546"><ele>27.0</ele><time>2026-04-11T08:56:37.007Z</time></trkpt><trkpt lat="40.3892897" lon="17.2803187"><ele>27.0</ele><time>2026-04-11T08:56:38.008Z</time></trkpt><trkpt lat="40.3893145" lon="17.2801834"><ele>27.000000000000004</ele><time>2026-04-11T08:56:39.003Z</time></trkpt><trkpt lat="40.3893373" lon="17.2800414"><ele>27.000000000000004</ele><time>2026-04-11T08:56:40.001Z</time></trkpt><trkpt lat="40.3893586" lon="17.2799045"><ele>27.0</ele><time>2026-04-11T08:56:40.999Z</time></trkpt><trkpt lat="40.3893786" lon="17.2797886"><ele>27.0</ele><time>2026-04-11T08:56:42.008Z</time></trkpt><trkpt lat="40.3893927" lon="17.279692"><ele>26.8</ele><time>2026-04-11T08:56:43.006Z</time></trkpt><trkpt lat="40.3894188" lon="17.2795563"><ele>26.6</ele><time>2026-04-11T08:56:45.003Z</time></trkpt><trkpt lat="40.3894318" lon="17.2794423"><ele>26.400000000000002</ele><time>2026-04-11T08:56:47.007Z</time></trkpt><trkpt lat="40.3894553" lon="17.279319"><ele>26.200000000000003</ele><time>2026-04-11T08:56:49.004Z</time></trkpt><trkpt lat="40.3894763" lon="17.2791712"><ele>26.0</ele><time>2026-04-11T08:56:51.049Z</time></trkpt><trkpt lat="40.389486" lon="17.2790795"><ele>25.999999999999996</ele><time>2026-04-11T08:56:52.05Z</time></trkpt><trkpt lat="40.3894995" lon="17.2789858"><ele>26.0</ele><time>2026-04-11T08:56:52.999Z</time></trkpt><trkpt lat="40.389522" lon="17.2788858"><ele>26.0</ele><time>2026-04-11T08:56:54.031Z</time></trkpt><trkpt lat="40.3895436" lon="17.278792"><ele>26.0</ele><time>2026-04-11T08:56:55.071Z</time></trkpt><trkpt lat="40.3895563" lon="17.2786899"><ele>25.999999999999996</ele><time>2026-04-11T08:56:56.033Z</time></trkpt><trkpt lat="40.389582" lon="17.2785954"><ele>26.0</ele><time>2026-04-11T08:56:57.003Z</time></trkpt><trkpt lat="40.3895952" lon="17.2785006"><ele>25.999999999999996</ele><time>2026-04-11T08:56:58.004Z</time></trkpt><trkpt lat="40.389611" lon="17.2784059"><ele>26.0</ele><time>2026-04-11T08:56:59.002Z</time></trkpt><trkpt lat="40.389627" lon="17.2783067"><ele>26.0</ele><time>2026-04-11T08:57:00.025Z</time></trkpt><trkpt lat="40.3896482" lon="17.2782046"><ele>26.0</ele><time>2026-04-11T08:57:00.998Z</time></trkpt><trkpt lat="40.389672" lon="17.2781087"><ele>25.999999999999996</ele><time>2026-04-11T08:57:02.011Z</time></trkpt><trkpt lat="40.3896996" lon="17.2780088"><ele>26.0</ele><time>2026-04-11T08:57:03.005Z</time></trkpt><trkpt lat="40.3897268" lon="17.2779057"><ele>26.0</ele><time>2026-04-11T08:57:04.006Z</time></trkpt><trkpt lat="40.3897502" lon="17.277811"><ele>26.0</ele><time>2026-04-11T08:57:04.996Z</time></trkpt><trkpt lat="40.3897786" lon="17.2777341"><ele>26.0</ele><time>2026-04-11T08:57:06.005Z</time></trkpt><trkpt lat="40.3898002" lon="17.2776459"><ele>26.0</ele><time>2026-04-11T08:57:07.003Z</time></trkpt><trkpt lat="40.3898285" lon="17.2775645"><ele>26.0</ele><time>2026-04-11T08:57:08.001Z</time></trkpt><trkpt lat="40.3898515" lon="17.2774806"><ele>26.0</ele><time>2026-04-11T08:57:09.002Z</time></trkpt><trkpt lat="40.389889" lon="17.2773897"><ele>26.0</ele><time>2026-04-11T08:57:10.003Z</time></trkpt><trkpt lat="40.3899217" lon="17.2772982"><ele>25.666666666666664</ele><time>2026-04-11T08:57:11.003Z</time></trkpt><trkpt lat="40.389961" lon="17.277207"><ele>25.333333333333332</ele><time>2026-04-11T08:57:12.003Z</time></trkpt><trkpt lat="40.3900053" lon="17.2771127"><ele>25.0</ele><time>2026-04-11T08:57:13.002Z</time></trkpt><trkpt lat="40.3900453" lon="17.2770111"><ele>24.666666666666664</ele><time>2026-04-11T08:57:13.999Z</time></trkpt><trkpt lat="40.3900903" lon="17.2769103"><ele>24.333333333333332</ele><time>2026-04-11T08:57:15.007Z</time></trkpt><trkpt lat="40.3901326" lon="17.276812"><ele>24.0</ele><time>2026-04-11T08:57:16.003Z</time></trkpt><trkpt lat="40.3901787" lon="17.2767094"><ele>24.0</ele><time>2026-04-11T08:57:17.007Z</time></trkpt><trkpt lat="40.3902312" lon="17.2765956"><ele>24.0</ele><time>2026-04-11T08:57:18.054Z</time></trkpt><trkpt lat="40.3902747" lon="17.27649"><ele>24.0</ele><time>2026-04-11T08:57:19.041Z</time></trkpt><trkpt lat="40.3903179" lon="17.2763799"><ele>24.0</ele><time>2026-04-11T08:57:20.01Z</time></trkpt><trkpt lat="40.3903614" lon="17.2762663"><ele>24.0</ele><time>2026-04-11T08:57:21.002Z</time></trkpt><trkpt lat="40.3904114" lon="17.2761536"><ele>24.0</ele><time>2026-04-11T08:57:22.006Z</time></trkpt><trkpt lat="40.3904572" lon="17.2760259"><ele>24.0</ele><time>2026-04-11T08:57:23.007Z</time></trkpt><trkpt lat="40.3904884" lon="17.2758985"><ele>24.0</ele><time>2026-04-11T08:57:24.008Z</time></trkpt><trkpt lat="40.3905245" lon="17.2757795"><ele>24.0</ele><time>2026-04-11T08:57:25.005Z</time></trkpt><trkpt lat="40.3905488" lon="17.2756363"><ele>24.0</ele><time>2026-04-11T08:57:26.006Z</time></trkpt><trkpt lat="40.390579" lon="17.2755027"><ele>24.0</ele><time>2026-04-11T08:57:27.005Z</time></trkpt><trkpt lat="40.3906135" lon="17.2753654"><ele>24.0</ele><time>2026-04-11T08:57:28.011Z</time></trkpt><trkpt lat="40.3906432" lon="17.2752132"><ele>24.0</ele><time>2026-04-11T08:57:29.002Z</time></trkpt><trkpt lat="40.3906646" lon="17.2750627"><ele>24.0</ele><time>2026-04-11T08:57:30.004Z</time></trkpt><trkpt lat="40.3906777" lon="17.2749112"><ele>23.75</ele><time>2026-04-11T08:57:31.006Z</time></trkpt><trkpt lat="40.3907025" lon="17.2747646"><ele>23.5</ele><time>2026-04-11T08:57:32.003Z</time></trkpt><trkpt lat="40.3907202" lon="17.2746149"><ele>23.25</ele><time>2026-04-11T08:57:33.008Z</time></trkpt><trkpt lat="40.3907359" lon="17.2744636"><ele>23.0</ele><time>2026-04-11T08:57:34Z</time></trkpt><trkpt lat="40.3907585" lon="17.2743131"><ele>23.0</ele><time>2026-04-11T08:57:35Z</time></trkpt><trkpt lat="40.3907823" lon="17.2741522"><ele>23.0</ele><time>2026-04-11T08:57:36.003Z</time></trkpt><trkpt lat="40.3908028" lon="17.2740073"><ele>23.0</ele><time>2026-04-11T08:57:37.007Z</time></trkpt><trkpt lat="40.3908241" lon="17.2738705"><ele>23.0</ele><time>2026-04-11T08:57:38.007Z</time></trkpt><trkpt lat="40.3908376" lon="17.2737497"><ele>23.0</ele><time>2026-04-11T08:57:39.008Z</time></trkpt><trkpt lat="40.3908592" lon="17.2736328"><ele>23.0</ele><time>2026-04-11T08:57:40.011Z</time></trkpt><trkpt lat="40.3908865" lon="17.2735114"><ele>23.0</ele><time>2026-04-11T08:57:41.037Z</time></trkpt><trkpt lat="40.3909116" lon="17.2733935"><ele>23.0</ele><time>2026-04-11T08:57:41.998Z</time></trkpt><trkpt lat="40.3909468" lon="17.2732705"><ele>23.0</ele><time>2026-04-11T08:57:43.044Z</time></trkpt><trkpt lat="40.3909818" lon="17.2731474"><ele>23.0</ele><time>2026-04-11T08:57:43.996Z</time></trkpt><trkpt lat="40.3910331" lon="17.273024"><ele>23.2</ele><time>2026-04-11T08:57:44.994Z</time></trkpt><trkpt lat="40.391093" lon="17.2729136"><ele>23.4</ele><time>2026-04-11T08:57:45.999Z</time></trkpt><trkpt lat="40.3911883" lon="17.2728257"><ele>23.599999999999998</ele><time>2026-04-11T08:57:46.999Z</time></trkpt><trkpt lat="40.3912913" lon="17.2727494"><ele>23.799999999999997</ele><time>2026-04-11T08:57:48.034Z</time></trkpt><trkpt lat="40.3913767" lon="17.2726561"><ele>24.0</ele><time>2026-04-11T08:57:48.994Z</time></trkpt><trkpt lat="40.3914715" lon="17.2725626"><ele>24.0</ele><time>2026-04-11T08:57:49.996Z</time></trkpt><trkpt lat="40.3915821" lon="17.2724875"><ele>24.0</ele><time>2026-04-11T08:57:51.002Z</time></trkpt><trkpt lat="40.3916911" lon="17.2724071"><ele>24.0</ele><time>2026-04-11T08:57:51.996Z</time></trkpt><trkpt lat="40.3917862" lon="17.2723265"><ele>24.0</ele><time>2026-04-11T08:57:53.034Z</time></trkpt><trkpt lat="40.3918822" lon="17.2722481"><ele>24.0</ele><time>2026-04-11T08:57:54.011Z</time></trkpt><trkpt lat="40.3919845" lon="17.2721726"><ele>24.0</ele><time>2026-04-11T08:57:55.01Z</time></trkpt><trkpt lat="40.3920866" lon="17.2720995"><ele>24.0</ele><time>2026-04-11T08:57:56.005Z</time></trkpt><trkpt lat="40.392173" lon="17.272031"><ele>24.0</ele><time>2026-04-11T08:57:57.014Z</time></trkpt><trkpt lat="40.3922543" lon="17.271965"><ele>24.0</ele><time>2026-04-11T08:57:58.008Z</time></trkpt><trkpt lat="40.3923342" lon="17.2719012"><ele>24.0</ele><time>2026-04-11T08:57:59.008Z</time></trkpt><trkpt lat="40.3924139" lon="17.2718436"><ele>24.0</ele><time>2026-04-11T08:58:00.011Z</time></trkpt><trkpt lat="40.392488" lon="17.271781"><ele>24.0</ele><time>2026-04-11T08:58:01.036Z</time></trkpt><trkpt lat="40.392559" lon="17.2717224"><ele>24.0</ele><time>2026-04-11T08:58:01.999Z</time></trkpt><trkpt lat="40.3926262" lon="17.2716698"><ele>24.0</ele><time>2026-04-11T08:58:02.991Z</time></trkpt><trkpt lat="40.3926914" lon="17.2716231"><ele>24.0</ele><time>2026-04-11T08:58:04.023Z</time></trkpt><trkpt lat="40.3927651" lon="17.2715651"><ele>24.0</ele><time>2026-04-11T08:58:05.006Z</time></trkpt><trkpt lat="40.3928378" lon="17.2715102"><ele>24.0</ele><time>2026-04-11T08:58:06.007Z</time></trkpt><trkpt lat="40.3929149" lon="17.2714434"><ele>24.0</ele><time>2026-04-11T08:58:07.006Z</time></trkpt><trkpt lat="40.3929904" lon="17.2713817"><ele>24.0</ele><time>2026-04-11T08:58:08Z</time></trkpt><trkpt lat="40.3930748" lon="17.2713125"><ele>24.0</ele><time>2026-04-11T08:58:09.005Z</time></trkpt><trkpt lat="40.3931619" lon="17.2712466"><ele>23.799999999999997</ele><time>2026-04-11T08:58:10.004Z</time></trkpt><trkpt lat="40.393248" lon="17.2711808"><ele>23.599999999999998</ele><time>2026-04-11T08:58:11Z</time></trkpt><trkpt lat="40.3933349" lon="17.2711117"><ele>23.4</ele><time>2026-04-11T08:58:12.024Z</time></trkpt><trkpt lat="40.3934227" lon="17.2710378"><ele>23.2</ele><time>2026-04-11T08:58:13.022Z</time></trkpt><trkpt lat="40.3935132" lon="17.2709672"><ele>23.0</ele><time>2026-04-11T08:58:14.004Z</time></trkpt><trkpt lat="40.3936049" lon="17.2708952"><ele>23.0</ele><time>2026-04-11T08:58:15Z</time></trkpt><trkpt lat="40.3936966" lon="17.2708126"><ele>23.0</ele><time>2026-04-11T08:58:15.993Z</time></trkpt><trkpt lat="40.3937914" lon="17.2707383"><ele>23.0</ele><time>2026-04-11T08:58:17.006Z</time></trkpt><trkpt lat="40.3938921" lon="17.2706666"><ele>23.0</ele><time>2026-04-11T08:58:18.005Z</time></trkpt><trkpt lat="40.3939948" lon="17.2706012"><ele>22.799999999999997</ele><time>2026-04-11T08:58:19.029Z</time></trkpt><trkpt lat="40.3940887" lon="17.2705248"><ele>22.6</ele><time>2026-04-11T08:58:19.993Z</time></trkpt><trkpt lat="40.39417" lon="17.2704499"><ele>22.4</ele><time>2026-04-11T08:58:21.002Z</time></trkpt><trkpt lat="40.3942469" lon="17.2703848"><ele>22.200000000000003</ele><time>2026-04-11T08:58:22.016Z</time></trkpt><trkpt lat="40.3943184" lon="17.2703263"><ele>22.0</ele><time>2026-04-11T08:58:23.005Z</time></trkpt><trkpt lat="40.3943947" lon="17.2702641"><ele>22.0</ele><time>2026-04-11T08:58:24.008Z</time></trkpt><trkpt lat="40.3944722" lon="17.2702052"><ele>22.0</ele><time>2026-04-11T08:58:24.997Z</time></trkpt><trkpt lat="40.394562" lon="17.2701497"><ele>22.0</ele><time>2026-04-11T08:58:25.998Z</time></trkpt><trkpt lat="40.3946393" lon="17.2701021"><ele>22.0</ele><time>2026-04-11T08:58:27.007Z</time></trkpt><trkpt lat="40.3947283" lon="17.270057"><ele>22.0</ele><time>2026-04-11T08:58:28.012Z</time></trkpt><trkpt lat="40.3948133" lon="17.270019"><ele>22.166666666666664</ele><time>2026-04-11T08:58:29.007Z</time></trkpt><trkpt lat="40.3948964" lon="17.2700015"><ele>22.333333333333332</ele><time>2026-04-11T08:58:30.004Z</time></trkpt><trkpt lat="40.3949725" lon="17.2699752"><ele>22.5</ele><time>2026-04-11T08:58:31.006Z</time></trkpt><trkpt lat="40.3950504" lon="17.2699523"><ele>22.666666666666668</ele><time>2026-04-11T08:58:32.01Z</time></trkpt><trkpt lat="40.3951223" lon="17.269937"><ele>22.833333333333336</ele><time>2026-04-11T08:58:32.998Z</time></trkpt><trkpt lat="40.3951907" lon="17.2699306"><ele>23.0</ele><time>2026-04-11T08:58:33.999Z</time></trkpt><trkpt lat="40.3952565" lon="17.2699104"><ele>23.0</ele><time>2026-04-11T08:58:34.999Z</time></trkpt><trkpt lat="40.3953216" lon="17.2699033"><ele>23.0</ele><time>2026-04-11T08:58:36.007Z</time></trkpt><trkpt lat="40.3953887" lon="17.2698889"><ele>23.0</ele><time>2026-04-11T08:58:37.005Z</time></trkpt><trkpt lat="40.3954666" lon="17.2698746"><ele>23.0</ele><time>2026-04-11T08:58:38.006Z</time></trkpt><trkpt lat="40.3955355" lon="17.2698562"><ele>23.0</ele><time>2026-04-11T08:58:39.006Z</time></trkpt><trkpt lat="40.3956107" lon="17.2698409"><ele>23.0</ele><time>2026-04-11T08:58:39.999Z</time></trkpt><trkpt lat="40.3956839" lon="17.2698328"><ele>23.0</ele><time>2026-04-11T08:58:41.009Z</time></trkpt><trkpt lat="40.395768" lon="17.2698171"><ele>23.0</ele><time>2026-04-11T08:58:42.002Z</time></trkpt><trkpt lat="40.3958608" lon="17.2698121"><ele>23.0</ele><time>2026-04-11T08:58:43.032Z</time></trkpt><trkpt lat="40.395961" lon="17.2697936"><ele>23.0</ele><time>2026-04-11T08:58:44.033Z</time></trkpt><trkpt lat="40.3960628" lon="17.2697725"><ele>23.0</ele><time>2026-04-11T08:58:44.991Z</time></trkpt><trkpt lat="40.3961839" lon="17.269746"><ele>23.0</ele><time>2026-04-11T08:58:45.997Z</time></trkpt><trkpt lat="40.3963201" lon="17.2697272"><ele>23.0</ele><time>2026-04-11T08:58:47.029Z</time></trkpt><trkpt lat="40.3964531" lon="17.2697078"><ele>23.0</ele><time>2026-04-11T08:58:48.003Z</time></trkpt><trkpt lat="40.3965989" lon="17.2696841"><ele>23.0</ele><time>2026-04-11T08:58:49.038Z</time></trkpt><trkpt lat="40.3967352" lon="17.2696533"><ele>23.0</ele><time>2026-04-11T08:58:50.006Z</time></trkpt><trkpt lat="40.3968732" lon="17.2696271"><ele>23.0</ele><time>2026-04-11T08:58:51.007Z</time></trkpt><trkpt lat="40.3970055" lon="17.2696064"><ele>23.0</ele><time>2026-04-11T08:58:52.033Z</time></trkpt><trkpt lat="40.397139" lon="17.2695887"><ele>23.0</ele><time>2026-04-11T08:58:52.993Z</time></trkpt><trkpt lat="40.3972741" lon="17.269584"><ele>23.0</ele><time>2026-04-11T08:58:54.006Z</time></trkpt><trkpt lat="40.3973985" lon="17.2696005"><ele>23.0</ele><time>2026-04-11T08:58:55.014Z</time></trkpt><trkpt lat="40.3975319" lon="17.269621"><ele>23.0</ele><time>2026-04-11T08:58:56.005Z</time></trkpt><trkpt lat="40.3976691" lon="17.2696496"><ele>23.0</ele><time>2026-04-11T08:58:57.006Z</time></trkpt><trkpt lat="40.3978032" lon="17.2696668"><ele>23.0</ele><time>2026-04-11T08:58:58.012Z</time></trkpt><trkpt lat="40.3979338" lon="17.269689"><ele>23.25</ele><time>2026-04-11T08:58:59.009Z</time></trkpt><trkpt lat="40.3980644" lon="17.2697084"><ele>23.5</ele><time>2026-04-11T08:59:00.005Z</time></trkpt><trkpt lat="40.3982015" lon="17.2697291"><ele>23.75</ele><time>2026-04-11T08:59:01.003Z</time></trkpt><trkpt lat="40.3983259" lon="17.269736"><ele>24.0</ele><time>2026-04-11T08:59:02.003Z</time></trkpt><trkpt lat="40.3984486" lon="17.2697566"><ele>23.75</ele><time>2026-04-11T08:59:03.001Z</time></trkpt><trkpt lat="40.3985708" lon="17.2697792"><ele>23.5</ele><time>2026-04-11T08:59:04.007Z</time></trkpt><trkpt lat="40.3986855" lon="17.2698061"><ele>23.25</ele><time>2026-04-11T08:59:05.002Z</time></trkpt><trkpt lat="40.3988019" lon="17.2698258"><ele>23.0</ele><time>2026-04-11T08:59:06.009Z</time></trkpt><trkpt lat="40.3989049" lon="17.2698412"><ele>23.333333333333336</ele><time>2026-04-11T08:59:07.001Z</time></trkpt><trkpt lat="40.3990027" lon="17.2698599"><ele>23.666666666666668</ele><time>2026-04-11T08:59:08.032Z</time></trkpt><trkpt lat="40.3990922" lon="17.2698762"><ele>24.0</ele><time>2026-04-11T08:59:09.057Z</time></trkpt><trkpt lat="40.3991826" lon="17.2698834"><ele>24.333333333333336</ele><time>2026-04-11T08:59:10.003Z</time></trkpt><trkpt lat="40.3992689" lon="17.2698967"><ele>24.666666666666668</ele><time>2026-04-11T08:59:11.005Z</time></trkpt><trkpt lat="40.3993422" lon="17.269904"><ele>25.0</ele><time>2026-04-11T08:59:12.028Z</time></trkpt><trkpt lat="40.399411" lon="17.2699334"><ele>25.0</ele><time>2026-04-11T08:59:13.029Z</time></trkpt><trkpt lat="40.3995063" lon="17.2699493"><ele>25.0</ele><time>2026-04-11T08:59:15.005Z</time></trkpt><trkpt lat="40.399575" lon="17.2699833"><ele>25.0</ele><time>2026-04-11T08:59:17.008Z</time></trkpt><trkpt lat="40.3996308" lon="17.2700292"><ele>25.0</ele><time>2026-04-11T08:59:21.001Z</time></trkpt><trkpt lat="40.3997598" lon="17.2701046"><ele>25.0</ele><time>2026-04-11T08:59:27.999Z</time></trkpt><trkpt lat="40.399873" lon="17.2701235"><ele>24.2</ele><time>2026-04-11T08:59:30.001Z</time></trkpt><trkpt lat="40.4000011" lon="17.2701076"><ele>23.4</ele><time>2026-04-11T08:59:32.006Z</time></trkpt><trkpt lat="40.4000715" lon="17.2701119"><ele>22.6</ele><time>2026-04-11T08:59:32.999Z</time></trkpt><trkpt lat="40.4001817" lon="17.2701317"><ele>21.8</ele><time>2026-04-11T08:59:35Z</time></trkpt><trkpt lat="40.4002543" lon="17.2701404"><ele>21.0</ele><time>2026-04-11T08:59:36.003Z</time></trkpt><trkpt lat="40.4003292" lon="17.2701558"><ele>21.0</ele><time>2026-04-11T08:59:37.011Z</time></trkpt><trkpt lat="40.4004085" lon="17.270168"><ele>21.0</ele><time>2026-04-11T08:59:38.01Z</time></trkpt><trkpt lat="40.4004994" lon="17.2701753"><ele>21.0</ele><time>2026-04-11T08:59:39.036Z</time></trkpt><trkpt lat="40.4006299" lon="17.2701987"><ele>21.0</ele><time>2026-04-11T08:59:40Z</time></trkpt><trkpt lat="40.4007899" lon="17.2702352"><ele>21.333333333333332</ele><time>2026-04-11T08:59:40.999Z</time></trkpt><trkpt lat="40.4009574" lon="17.2702927"><ele>21.666666666666664</ele><time>2026-04-11T08:59:41.999Z</time></trkpt><trkpt lat="40.4011094" lon="17.2703404"><ele>22.0</ele><time>2026-04-11T08:59:43.002Z</time></trkpt><trkpt lat="40.4012344" lon="17.2703765"><ele>22.400000000000002</ele><time>2026-04-11T08:59:44.004Z</time></trkpt><trkpt lat="40.4013473" lon="17.2703993"><ele>22.8</ele><time>2026-04-11T08:59:45.004Z</time></trkpt><trkpt lat="40.4014409" lon="17.2704132"><ele>23.2</ele><time>2026-04-11T08:59:46.086Z</time></trkpt><trkpt lat="40.4015406" lon="17.2704564"><ele>23.6</ele><time>2026-04-11T08:59:48.001Z</time></trkpt><trkpt lat="40.4016053" lon="17.2704657"><ele>24.0</ele><time>2026-04-11T08:59:50.002Z</time></trkpt><trkpt lat="40.4016952" lon="17.2704656"><ele>24.0</ele><time>2026-04-11T08:59:52.004Z</time></trkpt><trkpt lat="40.4017642" lon="17.2705097"><ele>24.0</ele><time>2026-04-11T08:59:54.032Z</time></trkpt><trkpt lat="40.4018217" lon="17.2705561"><ele>24.0</ele><time>2026-04-11T08:59:57.026Z</time></trkpt><trkpt lat="40.4018676" lon="17.2706173"><ele>24.0</ele><time>2026-04-11T09:00:00.033Z</time></trkpt><trkpt lat="40.4019225" lon="17.2706955"><ele>24.0</ele><time>2026-04-11T09:00:02.001Z</time></trkpt><trkpt lat="40.4020063" lon="17.2707849"><ele>24.0</ele><time>2026-04-11T09:00:04Z</time></trkpt><trkpt lat="40.4020784" lon="17.2707762"><ele>23.799999999999997</ele><time>2026-04-11T09:00:05.003Z</time></trkpt><trkpt lat="40.4021695" lon="17.2706648"><ele>23.599999999999998</ele><time>2026-04-11T09:00:05.994Z</time></trkpt><trkpt lat="40.4022428" lon="17.2706161"><ele>23.4</ele><time>2026-04-11T09:00:06.987Z</time></trkpt><trkpt lat="40.402338" lon="17.2705251"><ele>23.2</ele><time>2026-04-11T09:00:07.997Z</time></trkpt><trkpt lat="40.402447" lon="17.2704744"><ele>23.0</ele><time>2026-04-11T09:00:09.002Z</time></trkpt><trkpt lat="40.4025729" lon="17.2704539"><ele>23.0</ele><time>2026-04-11T09:00:10.033Z</time></trkpt><trkpt lat="40.4027001" lon="17.2704213"><ele>23.0</ele><time>2026-04-11T09:00:11.006Z</time></trkpt><trkpt lat="40.4028164" lon="17.2703783"><ele>23.0</ele><time>2026-04-11T09:00:12.007Z</time></trkpt><trkpt lat="40.4029285" lon="17.2703431"><ele>23.0</ele><time>2026-04-11T09:00:13.006Z</time></trkpt><trkpt lat="40.4030361" lon="17.2703156"><ele>22.599999999999998</ele><time>2026-04-11T09:00:14.004Z</time></trkpt><trkpt lat="40.4031384" lon="17.2702924"><ele>22.2</ele><time>2026-04-11T09:00:15.036Z</time></trkpt><trkpt lat="40.4032226" lon="17.2702618"><ele>21.8</ele><time>2026-04-11T09:00:16.036Z</time></trkpt><trkpt lat="40.4033132" lon="17.27023"><ele>21.4</ele><time>2026-04-11T09:00:17.005Z</time></trkpt><trkpt lat="40.4034027" lon="17.2701749"><ele>21.0</ele><time>2026-04-11T09:00:18.005Z</time></trkpt><trkpt lat="40.4035002" lon="17.270121"><ele>21.0</ele><time>2026-04-11T09:00:19.006Z</time></trkpt><trkpt lat="40.4035896" lon="17.270073"><ele>21.0</ele><time>2026-04-11T09:00:20.007Z</time></trkpt><trkpt lat="40.4036722" lon="17.2700195"><ele>21.0</ele><time>2026-04-11T09:00:21.004Z</time></trkpt><trkpt lat="40.4037505" lon="17.2699714"><ele>21.0</ele><time>2026-04-11T09:00:22.005Z</time></trkpt><trkpt lat="40.4038241" lon="17.2699263"><ele>21.0</ele><time>2026-04-11T09:00:23.006Z</time></trkpt><trkpt lat="40.403901" lon="17.2698894"><ele>21.0</ele><time>2026-04-11T09:00:24.004Z</time></trkpt><trkpt lat="40.4039758" lon="17.2698526"><ele>20.833333333333332</ele><time>2026-04-11T09:00:25.003Z</time></trkpt><trkpt lat="40.404055" lon="17.2698146"><ele>20.666666666666668</ele><time>2026-04-11T09:00:25.996Z</time></trkpt><trkpt lat="40.4041424" lon="17.2697907"><ele>20.5</ele><time>2026-04-11T09:00:26.998Z</time></trkpt><trkpt lat="40.4042271" lon="17.269761"><ele>20.333333333333336</ele><time>2026-04-11T09:00:28.002Z</time></trkpt><trkpt lat="40.4043116" lon="17.2697285"><ele>20.166666666666668</ele><time>2026-04-11T09:00:29.006Z</time></trkpt><trkpt lat="40.4043985" lon="17.2696817"><ele>20.0</ele><time>2026-04-11T09:00:30.005Z</time></trkpt><trkpt lat="40.4044908" lon="17.2696235"><ele>20.0</ele><time>2026-04-11T09:00:31.007Z</time></trkpt><trkpt lat="40.4045988" lon="17.2695529"><ele>20.0</ele><time>2026-04-11T09:00:32Z</time></trkpt><trkpt lat="40.4047082" lon="17.2694812"><ele>20.0</ele><time>2026-04-11T09:00:33.015Z</time></trkpt><trkpt lat="40.4048175" lon="17.2694098"><ele>20.0</ele><time>2026-04-11T09:00:34.035Z</time></trkpt><trkpt lat="40.4049414" lon="17.2693388"><ele>20.0</ele><time>2026-04-11T09:00:35.036Z</time></trkpt><trkpt lat="40.4050491" lon="17.2692593"><ele>20.0</ele><time>2026-04-11T09:00:36.029Z</time></trkpt><trkpt lat="40.405154" lon="17.2691823"><ele>20.0</ele><time>2026-04-11T09:00:37.035Z</time></trkpt><trkpt lat="40.40525" lon="17.2691113"><ele>20.0</ele><time>2026-04-11T09:00:38.033Z</time></trkpt><trkpt lat="40.4053492" lon="17.2690245"><ele>19.75</ele><time>2026-04-11T09:00:38.999Z</time></trkpt><trkpt lat="40.4054497" lon="17.2689377"><ele>19.5</ele><time>2026-04-11T09:00:39.994Z</time></trkpt><trkpt lat="40.4055479" lon="17.2688577"><ele>19.25</ele><time>2026-04-11T09:00:41.009Z</time></trkpt><trkpt lat="40.4056423" lon="17.2687696"><ele>19.0</ele><time>2026-04-11T09:00:42.036Z</time></trkpt><trkpt lat="40.4057265" lon="17.2686854"><ele>19.0</ele><time>2026-04-11T09:00:43.034Z</time></trkpt><trkpt lat="40.4058047" lon="17.2686157"><ele>19.0</ele><time>2026-04-11T09:00:44.004Z</time></trkpt><trkpt lat="40.4058718" lon="17.2685435"><ele>19.0</ele><time>2026-04-11T09:00:45.03Z</time></trkpt><trkpt lat="40.4059365" lon="17.2684754"><ele>19.0</ele><time>2026-04-11T09:00:46.028Z</time></trkpt><trkpt lat="40.4060016" lon="17.2684056"><ele>19.0</ele><time>2026-04-11T09:00:46.996Z</time></trkpt><trkpt lat="40.4060989" lon="17.2683087"><ele>19.0</ele><time>2026-04-11T09:00:49.036Z</time></trkpt><trkpt lat="40.4061975" lon="17.2682062"><ele>19.0</ele><time>2026-04-11T09:00:51.006Z</time></trkpt><trkpt lat="40.4062934" lon="17.2680919"><ele>19.0</ele><time>2026-04-11T09:00:53.003Z</time></trkpt><trkpt lat="40.4063431" lon="17.268037"><ele>19.0</ele><time>2026-04-11T09:00:54Z</time></trkpt><trkpt lat="40.4063999" lon="17.2679893"><ele>19.0</ele><time>2026-04-11T09:00:55.005Z</time></trkpt><trkpt lat="40.4064532" lon="17.2679347"><ele>19.0</ele><time>2026-04-11T09:00:56.002Z</time></trkpt><trkpt lat="40.4065066" lon="17.2678806"><ele>19.0</ele><time>2026-04-11T09:00:57.003Z</time></trkpt><trkpt lat="40.4065661" lon="17.267828"><ele>19.0</ele><time>2026-04-11T09:00:58.002Z</time></trkpt><trkpt lat="40.406631" lon="17.2677713"><ele>19.0</ele><time>2026-04-11T09:00:59.005Z</time></trkpt><trkpt lat="40.4067003" lon="17.2677103"><ele>19.0</ele><time>2026-04-11T09:00:59.997Z</time></trkpt><trkpt lat="40.4067772" lon="17.2676484"><ele>19.0</ele><time>2026-04-11T09:01:01.001Z</time></trkpt><trkpt lat="40.4068601" lon="17.2675896"><ele>19.0</ele><time>2026-04-11T09:01:02.001Z</time></trkpt><trkpt lat="40.4069441" lon="17.2675345"><ele>19.0</ele><time>2026-04-11T09:01:03.002Z</time></trkpt><trkpt lat="40.4070245" lon="17.2674777"><ele>19.0</ele><time>2026-04-11T09:01:04.003Z</time></trkpt><trkpt lat="40.4071074" lon="17.2674202"><ele>19.0</ele><time>2026-04-11T09:01:04.999Z</time></trkpt><trkpt lat="40.4071972" lon="17.26738"><ele>19.0</ele><time>2026-04-11T09:01:06.005Z</time></trkpt><trkpt lat="40.4072816" lon="17.2673229"><ele>18.833333333333332</ele><time>2026-04-11T09:01:07.037Z</time></trkpt><trkpt lat="40.4073619" lon="17.2672718"><ele>18.666666666666664</ele><time>2026-04-11T09:01:07.995Z</time></trkpt><trkpt lat="40.407438" lon="17.2672239"><ele>18.5</ele><time>2026-04-11T09:01:08.995Z</time></trkpt><trkpt lat="40.4075117" lon="17.2671804"><ele>18.333333333333332</ele><time>2026-04-11T09:01:10.038Z</time></trkpt><trkpt lat="40.407588" lon="17.2671317"><ele>18.166666666666668</ele><time>2026-04-11T09:01:11.003Z</time></trkpt><trkpt lat="40.4076581" lon="17.2670816"><ele>18.0</ele><time>2026-04-11T09:01:12.04Z</time></trkpt><trkpt lat="40.407733" lon="17.2670404"><ele>18.0</ele><time>2026-04-11T09:01:13.005Z</time></trkpt><trkpt lat="40.407806" lon="17.2669982"><ele>18.0</ele><time>2026-04-11T09:01:13.993Z</time></trkpt><trkpt lat="40.4078811" lon="17.2669505"><ele>18.0</ele><time>2026-04-11T09:01:14.995Z</time></trkpt><trkpt lat="40.4079573" lon="17.2669049"><ele>18.0</ele><time>2026-04-11T09:01:16.034Z</time></trkpt><trkpt lat="40.4080356" lon="17.2668587"><ele>18.0</ele><time>2026-04-11T09:01:16.993Z</time></trkpt><trkpt lat="40.4081035" lon="17.2668111"><ele>18.0</ele><time>2026-04-11T09:01:18.006Z</time></trkpt><trkpt lat="40.4081654" lon="17.2667778"><ele>18.0</ele><time>2026-04-11T09:01:19.009Z</time></trkpt><trkpt lat="40.4082241" lon="17.2667414"><ele>18.0</ele><time>2026-04-11T09:01:19.99Z</time></trkpt><trkpt lat="40.4083288" lon="17.2666924"><ele>18.0</ele><time>2026-04-11T09:01:22.011Z</time></trkpt><trkpt lat="40.4083875" lon="17.2666584"><ele>18.0</ele><time>2026-04-11T09:01:23.035Z</time></trkpt><trkpt lat="40.4084486" lon="17.2666226"><ele>18.0</ele><time>2026-04-11T09:01:23.995Z</time></trkpt><trkpt lat="40.4085074" lon="17.2665874"><ele>18.0</ele><time>2026-04-11T09:01:24.998Z</time></trkpt><trkpt lat="40.4086035" lon="17.2665116"><ele>18.0</ele><time>2026-04-11T09:01:27.028Z</time></trkpt><trkpt lat="40.4086917" lon="17.2664517"><ele>18.0</ele><time>2026-04-11T09:01:29.033Z</time></trkpt><trkpt lat="40.408783" lon="17.2663914"><ele>18.0</ele><time>2026-04-11T09:01:30.996Z</time></trkpt><trkpt lat="40.4088839" lon="17.2663263"><ele>18.0</ele><time>2026-04-11T09:01:33.003Z</time></trkpt><trkpt lat="40.4089825" lon="17.2662753"><ele>18.0</ele><time>2026-04-11T09:01:35.008Z</time></trkpt><trkpt lat="40.4090847" lon="17.2662051"><ele>18.142857142857146</ele><time>2026-04-11T09:01:37.007Z</time></trkpt><trkpt lat="40.4091406" lon="17.2661664"><ele>18.285714285714285</ele><time>2026-04-11T09:01:38.038Z</time></trkpt><trkpt lat="40.4092001" lon="17.2661292"><ele>18.42857142857143</ele><time>2026-04-11T09:01:39.012Z</time></trkpt><trkpt lat="40.4092597" lon="17.2660852"><ele>18.571428571428573</ele><time>2026-04-11T09:01:40.011Z</time></trkpt><trkpt lat="40.409323" lon="17.266054"><ele>18.714285714285715</ele><time>2026-04-11T09:01:41.005Z</time></trkpt><trkpt lat="40.4093852" lon="17.2660149"><ele>18.857142857142858</ele><time>2026-04-11T09:01:42Z</time></trkpt><trkpt lat="40.4094522" lon="17.2659809"><ele>19.0</ele><time>2026-04-11T09:01:43.035Z</time></trkpt><trkpt lat="40.4095131" lon="17.2659474"><ele>19.0</ele><time>2026-04-11T09:01:44.006Z</time></trkpt><trkpt lat="40.409574" lon="17.2659058"><ele>19.0</ele><time>2026-04-11T09:01:45.009Z</time></trkpt><trkpt lat="40.409636" lon="17.265875"><ele>19.0</ele><time>2026-04-11T09:01:46.004Z</time></trkpt><trkpt lat="40.4096971" lon="17.2658411"><ele>19.0</ele><time>2026-04-11T09:01:47.005Z</time></trkpt><trkpt lat="40.4097757" lon="17.2657973"><ele>19.0</ele><time>2026-04-11T09:01:48.039Z</time></trkpt><trkpt lat="40.4098438" lon="17.2657612"><ele>19.0</ele><time>2026-04-11T09:01:49.002Z</time></trkpt><trkpt lat="40.4099096" lon="17.2657291"><ele>19.0</ele><time>2026-04-11T09:01:50.035Z</time></trkpt><trkpt lat="40.409974" lon="17.2656934"><ele>19.0</ele><time>2026-04-11T09:01:50.996Z</time></trkpt><trkpt lat="40.4100356" lon="17.2656591"><ele>19.0</ele><time>2026-04-11T09:01:51.997Z</time></trkpt><trkpt lat="40.4101383" lon="17.2656113"><ele>19.0</ele><time>2026-04-11T09:01:54.001Z</time></trkpt><trkpt lat="40.4102066" lon="17.2655678"><ele>19.0</ele><time>2026-04-11T09:01:56.007Z</time></trkpt><trkpt lat="40.4102758" lon="17.2655333"><ele>19.0</ele><time>2026-04-11T09:01:58.039Z</time></trkpt><trkpt lat="40.4103453" lon="17.265499"><ele>19.0</ele><time>2026-04-11T09:01:59.996Z</time></trkpt><trkpt lat="40.4104373" lon="17.2654573"><ele>19.0</ele><time>2026-04-11T09:02:02.031Z</time></trkpt><trkpt lat="40.410524" lon="17.2654125"><ele>19.0</ele><time>2026-04-11T09:02:03.99Z</time></trkpt><trkpt lat="40.4105824" lon="17.265379"><ele>19.0</ele><time>2026-04-11T09:02:05.024Z</time></trkpt><trkpt lat="40.410693" lon="17.2653442"><ele>19.0</ele><time>2026-04-11T09:02:07.028Z</time></trkpt><trkpt lat="40.410787" lon="17.2652799"><ele>19.0</ele><time>2026-04-11T09:02:09.014Z</time></trkpt><trkpt lat="40.4108974" lon="17.2652238"><ele>19.0</ele><time>2026-04-11T09:02:11.031Z</time></trkpt><trkpt lat="40.4109599" lon="17.2651877"><ele>19.0</ele><time>2026-04-11T09:02:12.029Z</time></trkpt><trkpt lat="40.4110228" lon="17.2651518"><ele>19.0</ele><time>2026-04-11T09:02:12.999Z</time></trkpt><trkpt lat="40.4110915" lon="17.2651149"><ele>19.0</ele><time>2026-04-11T09:02:14.035Z</time></trkpt><trkpt lat="40.4111627" lon="17.265077"><ele>19.0</ele><time>2026-04-11T09:02:15.018Z</time></trkpt><trkpt lat="40.4112404" lon="17.2650308"><ele>19.0</ele><time>2026-04-11T09:02:16.032Z</time></trkpt><trkpt lat="40.411317" lon="17.2649913"><ele>19.0</ele><time>2026-04-11T09:02:16.99Z</time></trkpt><trkpt lat="40.4113924" lon="17.2649439"><ele>19.0</ele><time>2026-04-11T09:02:18.005Z</time></trkpt><trkpt lat="40.4114813" lon="17.2649061"><ele>19.0</ele><time>2026-04-11T09:02:19.015Z</time></trkpt><trkpt lat="40.4115703" lon="17.26486"><ele>19.0</ele><time>2026-04-11T09:02:20.007Z</time></trkpt><trkpt lat="40.4116494" lon="17.2648197"><ele>19.0</ele><time>2026-04-11T09:02:21.004Z</time></trkpt><trkpt lat="40.4117268" lon="17.2647791"><ele>19.0</ele><time>2026-04-11T09:02:22Z</time></trkpt><trkpt lat="40.4117911" lon="17.2647369"><ele>18.8</ele><time>2026-04-11T09:02:23.033Z</time></trkpt><trkpt lat="40.4118598" lon="17.2647006"><ele>18.599999999999998</ele><time>2026-04-11T09:02:24.001Z</time></trkpt><trkpt lat="40.411971" lon="17.2646475"><ele>18.4</ele><time>2026-04-11T09:02:26.009Z</time></trkpt><trkpt lat="40.4120759" lon="17.2645832"><ele>18.2</ele><time>2026-04-11T09:02:28.032Z</time></trkpt><trkpt lat="40.4121758" lon="17.2645333"><ele>18.0</ele><time>2026-04-11T09:02:30.033Z</time></trkpt><trkpt lat="40.412256" lon="17.2644877"><ele>18.333333333333332</ele><time>2026-04-11T09:02:31.992Z</time></trkpt><trkpt lat="40.4123425" lon="17.2644913"><ele>18.666666666666668</ele><time>2026-04-11T09:02:34.002Z</time></trkpt><trkpt lat="40.4124333" lon="17.2644691"><ele>19.0</ele><time>2026-04-11T09:02:36.004Z</time></trkpt><trkpt lat="40.4125414" lon="17.264466"><ele>19.333333333333336</ele><time>2026-04-11T09:02:38.008Z</time></trkpt><trkpt lat="40.4126075" lon="17.2644089"><ele>19.666666666666668</ele><time>2026-04-11T09:02:40.033Z</time></trkpt><trkpt lat="40.4125967" lon="17.264313"><ele>20.0</ele><time>2026-04-11T09:02:42.006Z</time></trkpt><trkpt lat="40.4125364" lon="17.2641455"><ele>20.0</ele><time>2026-04-11T09:02:44.006Z</time></trkpt><trkpt lat="40.4125085" lon="17.2640536"><ele>20.0</ele><time>2026-04-11T09:02:44.995Z</time></trkpt><trkpt lat="40.412496" lon="17.2639297"><ele>20.0</ele><time>2026-04-11T09:02:46.024Z</time></trkpt><trkpt lat="40.4124803" lon="17.2637926"><ele>20.0</ele><time>2026-04-11T09:02:47.034Z</time></trkpt><trkpt lat="40.4124657" lon="17.263638"><ele>20.0</ele><time>2026-04-11T09:02:48.001Z</time></trkpt><trkpt lat="40.412451" lon="17.2634827"><ele>20.25</ele><time>2026-04-11T09:02:49.034Z</time></trkpt><trkpt lat="40.412441" lon="17.2633298"><ele>20.5</ele><time>2026-04-11T09:02:50.003Z</time></trkpt><trkpt lat="40.4124294" lon="17.2631624"><ele>20.75</ele><time>2026-04-11T09:02:51.002Z</time></trkpt><trkpt lat="40.4124136" lon="17.2630055"><ele>21.0</ele><time>2026-04-11T09:02:52.008Z</time></trkpt><trkpt lat="40.4124074" lon="17.2628358"><ele>21.0</ele><time>2026-04-11T09:02:53.008Z</time></trkpt><trkpt lat="40.4123889" lon="17.2626817"><ele>21.0</ele><time>2026-04-11T09:02:54.005Z</time></trkpt><trkpt lat="40.412367" lon="17.2625249"><ele>21.0</ele><time>2026-04-11T09:02:55.007Z</time></trkpt><trkpt lat="40.4123499" lon="17.2623767"><ele>21.0</ele><time>2026-04-11T09:02:56.006Z</time></trkpt><trkpt lat="40.4123423" lon="17.2622368"><ele>21.0</ele><time>2026-04-11T09:02:57.009Z</time></trkpt><trkpt lat="40.4123425" lon="17.2620903"><ele>21.0</ele><time>2026-04-11T09:02:58.004Z</time></trkpt><trkpt lat="40.4123458" lon="17.2619453"><ele>21.0</ele><time>2026-04-11T09:02:59.006Z</time></trkpt><trkpt lat="40.4123542" lon="17.261792"><ele>21.0</ele><time>2026-04-11T09:03:00.004Z</time></trkpt><trkpt lat="40.4123631" lon="17.2616358"><ele>21.0</ele><time>2026-04-11T09:03:01.004Z</time></trkpt><trkpt lat="40.4123745" lon="17.2614773"><ele>21.0</ele><time>2026-04-11T09:03:02.004Z</time></trkpt><trkpt lat="40.4123835" lon="17.2613192"><ele>21.0</ele><time>2026-04-11T09:03:03.009Z</time></trkpt><trkpt lat="40.4123893" lon="17.2611591"><ele>21.0</ele><time>2026-04-11T09:03:04.002Z</time></trkpt><trkpt lat="40.4123887" lon="17.2609966"><ele>21.0</ele><time>2026-04-11T09:03:04.994Z</time></trkpt><trkpt lat="40.41238" lon="17.2608385"><ele>21.0</ele><time>2026-04-11T09:03:06Z</time></trkpt><trkpt lat="40.412374" lon="17.2606887"><ele>21.0</ele><time>2026-04-11T09:03:07.003Z</time></trkpt><trkpt lat="40.4123596" lon="17.2605216"><ele>21.0</ele><time>2026-04-11T09:03:08.037Z</time></trkpt><trkpt lat="40.4123528" lon="17.2603449"><ele>21.25</ele><time>2026-04-11T09:03:08.999Z</time></trkpt><trkpt lat="40.4123431" lon="17.2601794"><ele>21.5</ele><time>2026-04-11T09:03:09.989Z</time></trkpt><trkpt lat="40.4123268" lon="17.2600106"><ele>21.75</ele><time>2026-04-11T09:03:11.003Z</time></trkpt><trkpt lat="40.4123108" lon="17.2598548"><ele>22.0</ele><time>2026-04-11T09:03:12.038Z</time></trkpt><trkpt lat="40.4122884" lon="17.2596834"><ele>22.0</ele><time>2026-04-11T09:03:13.001Z</time></trkpt><trkpt lat="40.4122626" lon="17.2595225"><ele>22.0</ele><time>2026-04-11T09:03:14.012Z</time></trkpt><trkpt lat="40.4122425" lon="17.2593603"><ele>22.0</ele><time>2026-04-11T09:03:15.003Z</time></trkpt><trkpt lat="40.4122201" lon="17.2591958"><ele>22.0</ele><time>2026-04-11T09:03:16.009Z</time></trkpt><trkpt lat="40.4121942" lon="17.259025"><ele>21.75</ele><time>2026-04-11T09:03:17.005Z</time></trkpt><trkpt lat="40.4121649" lon="17.2588468"><ele>21.5</ele><time>2026-04-11T09:03:18.036Z</time></trkpt><trkpt lat="40.4121364" lon="17.2586743"><ele>21.25</ele><time>2026-04-11T09:03:18.992Z</time></trkpt><trkpt lat="40.4121042" lon="17.2584946"><ele>21.0</ele><time>2026-04-11T09:03:20.028Z</time></trkpt><trkpt lat="40.4120796" lon="17.2583277"><ele>20.75</ele><time>2026-04-11T09:03:21.006Z</time></trkpt><trkpt lat="40.4120529" lon="17.2581583"><ele>20.5</ele><time>2026-04-11T09:03:22.031Z</time></trkpt><trkpt lat="40.4120278" lon="17.2579822"><ele>20.25</ele><time>2026-04-11T09:03:22.991Z</time></trkpt><trkpt lat="40.4119888" lon="17.2578089"><ele>20.0</ele><time>2026-04-11T09:03:23.991Z</time></trkpt><trkpt lat="40.4119545" lon="17.2576379"><ele>20.0</ele><time>2026-04-11T09:03:24.992Z</time></trkpt><trkpt lat="40.4119312" lon="17.2574638"><ele>20.0</ele><time>2026-04-11T09:03:25.992Z</time></trkpt><trkpt lat="40.4119121" lon="17.2573155"><ele>20.0</ele><time>2026-04-11T09:03:27.009Z</time></trkpt><trkpt lat="40.4118873" lon="17.2571776"><ele>20.0</ele><time>2026-04-11T09:03:28.033Z</time></trkpt><trkpt lat="40.4118641" lon="17.2570411"><ele>20.25</ele><time>2026-04-11T09:03:29.001Z</time></trkpt><trkpt lat="40.4118365" lon="17.2568946"><ele>20.5</ele><time>2026-04-11T09:03:30.034Z</time></trkpt><trkpt lat="40.4118087" lon="17.2567473"><ele>20.75</ele><time>2026-04-11T09:03:31.001Z</time></trkpt><trkpt lat="40.4117796" lon="17.2565869"><ele>21.0</ele><time>2026-04-11T09:03:32.004Z</time></trkpt><trkpt lat="40.4117567" lon="17.2564279"><ele>21.0</ele><time>2026-04-11T09:03:33.005Z</time></trkpt><trkpt lat="40.4117371" lon="17.2562671"><ele>21.0</ele><time>2026-04-11T09:03:34.008Z</time></trkpt><trkpt lat="40.4117154" lon="17.2561087"><ele>21.0</ele><time>2026-04-11T09:03:35.005Z</time></trkpt><trkpt lat="40.4116851" lon="17.2559572"><ele>21.0</ele><time>2026-04-11T09:03:36.007Z</time></trkpt><trkpt lat="40.4116646" lon="17.2558006"><ele>21.0</ele><time>2026-04-11T09:03:37.008Z</time></trkpt><trkpt lat="40.4116491" lon="17.2556627"><ele>21.0</ele><time>2026-04-11T09:03:38.007Z</time></trkpt><trkpt lat="40.4116444" lon="17.2555379"><ele>21.0</ele><time>2026-04-11T09:03:38.995Z</time></trkpt><trkpt lat="40.4116461" lon="17.2554241"><ele>21.0</ele><time>2026-04-11T09:03:40.031Z</time></trkpt><trkpt lat="40.4116591" lon="17.255306"><ele>21.0</ele><time>2026-04-11T09:03:41.034Z</time></trkpt><trkpt lat="40.4116806" lon="17.2551973"><ele>21.0</ele><time>2026-04-11T09:03:42.033Z</time></trkpt><trkpt lat="40.4117148" lon="17.2550695"><ele>21.0</ele><time>2026-04-11T09:03:43.036Z</time></trkpt><trkpt lat="40.4117539" lon="17.2549424"><ele>21.0</ele><time>2026-04-11T09:03:43.993Z</time></trkpt><trkpt lat="40.4118007" lon="17.2547973"><ele>21.0</ele><time>2026-04-11T09:03:44.99Z</time></trkpt><trkpt lat="40.4118566" lon="17.2546576"><ele>21.0</ele><time>2026-04-11T09:03:46.028Z</time></trkpt><trkpt lat="40.4119043" lon="17.2545033"><ele>21.25</ele><time>2026-04-11T09:03:47.01Z</time></trkpt><trkpt lat="40.4119476" lon="17.2543378"><ele>21.5</ele><time>2026-04-11T09:03:48.037Z</time></trkpt><trkpt lat="40.4119777" lon="17.2541679"><ele>21.75</ele><time>2026-04-11T09:03:49.032Z</time></trkpt><trkpt lat="40.4120072" lon="17.2539845"><ele>22.0</ele><time>2026-04-11T09:03:50.039Z</time></trkpt><trkpt lat="40.4120561" lon="17.2538202"><ele>22.0</ele><time>2026-04-11T09:03:51.033Z</time></trkpt><trkpt lat="40.4121084" lon="17.2536554"><ele>22.0</ele><time>2026-04-11T09:03:52.029Z</time></trkpt><trkpt lat="40.4121659" lon="17.2534951"><ele>22.0</ele><time>2026-04-11T09:03:53.038Z</time></trkpt><trkpt lat="40.4122232" lon="17.2533363"><ele>22.0</ele><time>2026-04-11T09:03:53.994Z</time></trkpt><trkpt lat="40.4122999" lon="17.2531704"><ele>21.0</ele><time>2026-04-11T09:03:55.033Z</time></trkpt><trkpt lat="40.4123472" lon="17.2530272"><ele>20.0</ele><time>2026-04-11T09:03:56.033Z</time></trkpt><trkpt lat="40.4124208" lon="17.2528918"><ele>19.0</ele><time>2026-04-11T09:03:57.031Z</time></trkpt><trkpt lat="40.4124835" lon="17.2527436"><ele>18.0</ele><time>2026-04-11T09:03:58.039Z</time></trkpt><trkpt lat="40.4125494" lon="17.2525971"><ele>18.0</ele><time>2026-04-11T09:03:59.006Z</time></trkpt><trkpt lat="40.4126252" lon="17.2524276"><ele>18.0</ele><time>2026-04-11T09:04:00.006Z</time></trkpt><trkpt lat="40.4127036" lon="17.2522668"><ele>18.0</ele><time>2026-04-11T09:04:01.003Z</time></trkpt><trkpt lat="40.4127667" lon="17.2521051"><ele>18.0</ele><time>2026-04-11T09:04:02.001Z</time></trkpt><trkpt lat="40.4127984" lon="17.2519383"><ele>17.5</ele><time>2026-04-11T09:04:03.006Z</time></trkpt><trkpt lat="40.4128214" lon="17.2517509"><ele>17.0</ele><time>2026-04-11T09:04:04.004Z</time></trkpt><trkpt lat="40.4128266" lon="17.2515706"><ele>16.5</ele><time>2026-04-11T09:04:05.02Z</time></trkpt><trkpt lat="40.412825" lon="17.2513855"><ele>16.0</ele><time>2026-04-11T09:04:06.035Z</time></trkpt><trkpt lat="40.4128183" lon="17.2511976"><ele>15.333333333333332</ele><time>2026-04-11T09:04:07.005Z</time></trkpt><trkpt lat="40.4128122" lon="17.2509967"><ele>14.666666666666668</ele><time>2026-04-11T09:04:08.049Z</time></trkpt><trkpt lat="40.4128002" lon="17.2508006"><ele>14.0</ele><time>2026-04-11T09:04:09.001Z</time></trkpt><trkpt lat="40.4127869" lon="17.2506057"><ele>14.0</ele><time>2026-04-11T09:04:10.01Z</time></trkpt><trkpt lat="40.4127777" lon="17.2504006"><ele>14.0</ele><time>2026-04-11T09:04:11.002Z</time></trkpt><trkpt lat="40.412764" lon="17.2502006"><ele>14.0</ele><time>2026-04-11T09:04:12.006Z</time></trkpt><trkpt lat="40.4127545" lon="17.2499933"><ele>14.333333333333334</ele><time>2026-04-11T09:04:13.007Z</time></trkpt><trkpt lat="40.412742" lon="17.2497913"><ele>14.666666666666668</ele><time>2026-04-11T09:04:14.04Z</time></trkpt><trkpt lat="40.4127273" lon="17.2495896"><ele>15.0</ele><time>2026-04-11T09:04:15.049Z</time></trkpt><trkpt lat="40.4127111" lon="17.2493864"><ele>15.0</ele><time>2026-04-11T09:04:16.001Z</time></trkpt><trkpt lat="40.4127019" lon="17.2491927"><ele>15.0</ele><time>2026-04-11T09:04:17.002Z</time></trkpt><trkpt lat="40.4126899" lon="17.2489883"><ele>15.0</ele><time>2026-04-11T09:04:18.004Z</time></trkpt><trkpt lat="40.4126838" lon="17.2487856"><ele>14.666666666666668</ele><time>2026-04-11T09:04:19.01Z</time></trkpt><trkpt lat="40.4126844" lon="17.2485649"><ele>14.333333333333334</ele><time>2026-04-11T09:04:20.002Z</time></trkpt><trkpt lat="40.412698" lon="17.248361"><ele>14.0</ele><time>2026-04-11T09:04:21.032Z</time></trkpt><trkpt lat="40.4127212" lon="17.2481341"><ele>13.666666666666668</ele><time>2026-04-11T09:04:22.035Z</time></trkpt><trkpt lat="40.4127465" lon="17.2479326"><ele>13.333333333333332</ele><time>2026-04-11T09:04:23.002Z</time></trkpt><trkpt lat="40.4127668" lon="17.2477224"><ele>13.0</ele><time>2026-04-11T09:04:23.989Z</time></trkpt><trkpt lat="40.41278" lon="17.2475064"><ele>13.0</ele><time>2026-04-11T09:04:25.003Z</time></trkpt><trkpt lat="40.4128025" lon="17.2472954"><ele>13.0</ele><time>2026-04-11T09:04:26.012Z</time></trkpt><trkpt lat="40.4128261" lon="17.2470978"><ele>13.0</ele><time>2026-04-11T09:04:27.006Z</time></trkpt><trkpt lat="40.4128441" lon="17.2469105"><ele>12.75</ele><time>2026-04-11T09:04:28.008Z</time></trkpt><trkpt lat="40.4128535" lon="17.2467359"><ele>12.5</ele><time>2026-04-11T09:04:28.997Z</time></trkpt><trkpt lat="40.4128672" lon="17.2465652"><ele>12.25</ele><time>2026-04-11T09:04:30.033Z</time></trkpt><trkpt lat="40.4128867" lon="17.2464079"><ele>12.0</ele><time>2026-04-11T09:04:31.008Z</time></trkpt><trkpt lat="40.4129169" lon="17.246266"><ele>12.0</ele><time>2026-04-11T09:04:32.035Z</time></trkpt><trkpt lat="40.4129298" lon="17.2461383"><ele>12.0</ele><time>2026-04-11T09:04:33.027Z</time></trkpt><trkpt lat="40.4129448" lon="17.2460268"><ele>12.0</ele><time>2026-04-11T09:04:34.03Z</time></trkpt><trkpt lat="40.4129506" lon="17.2459272"><ele>12.0</ele><time>2026-04-11T09:04:35.005Z</time></trkpt><trkpt lat="40.4129621" lon="17.2458309"><ele>12.0</ele><time>2026-04-11T09:04:36.001Z</time></trkpt><trkpt lat="40.4129787" lon="17.2457186"><ele>12.0</ele><time>2026-04-11T09:04:37.993Z</time></trkpt><trkpt lat="40.4130134" lon="17.2456423"><ele>12.399999999999999</ele><time>2026-04-11T09:04:42Z</time></trkpt><trkpt lat="40.4131587" lon="17.2455989"><ele>12.799999999999999</ele><time>2026-04-11T09:04:50.003Z</time></trkpt><trkpt lat="40.4132366" lon="17.2456004"><ele>13.2</ele><time>2026-04-11T09:04:51.007Z</time></trkpt><trkpt lat="40.4133203" lon="17.245599"><ele>13.6</ele><time>2026-04-11T09:04:52.007Z</time></trkpt><trkpt lat="40.4133996" lon="17.2456035"><ele>14.0</ele><time>2026-04-11T09:04:53.015Z</time></trkpt><trkpt lat="40.4134686" lon="17.2456069"><ele>14.000000000000002</ele><time>2026-04-11T09:04:54.011Z</time></trkpt><trkpt lat="40.4135345" lon="17.2456085"><ele>14.0</ele><time>2026-04-11T09:04:55.036Z</time></trkpt><trkpt lat="40.4135995" lon="17.2456209"><ele>14.0</ele><time>2026-04-11T09:04:56.031Z</time></trkpt><trkpt lat="40.413674" lon="17.2456238"><ele>14.0</ele><time>2026-04-11T09:04:57.001Z</time></trkpt><trkpt lat="40.413756" lon="17.2456433"><ele>14.000000000000002</ele><time>2026-04-11T09:04:58.003Z</time></trkpt><trkpt lat="40.4138523" lon="17.2456773"><ele>14.0</ele><time>2026-04-11T09:04:59Z</time></trkpt><trkpt lat="40.413937" lon="17.2456923"><ele>13.6</ele><time>2026-04-11T09:04:59.999Z</time></trkpt><trkpt lat="40.4140315" lon="17.2457128"><ele>13.2</ele><time>2026-04-11T09:05:01.004Z</time></trkpt><trkpt lat="40.41412" lon="17.2457156"><ele>12.799999999999999</ele><time>2026-04-11T09:05:01.997Z</time></trkpt><trkpt lat="40.4142062" lon="17.2457297"><ele>12.399999999999999</ele><time>2026-04-11T09:05:03.001Z</time></trkpt><trkpt lat="40.4143033" lon="17.2457512"><ele>12.0</ele><time>2026-04-11T09:05:04.001Z</time></trkpt><trkpt lat="40.4143954" lon="17.2457684"><ele>12.0</ele><time>2026-04-11T09:05:05Z</time></trkpt><trkpt lat="40.4144886" lon="17.2457865"><ele>12.0</ele><time>2026-04-11T09:05:05.994Z</time></trkpt><trkpt lat="40.4145816" lon="17.2458078"><ele>12.0</ele><time>2026-04-11T09:05:07.003Z</time></trkpt><trkpt lat="40.4146768" lon="17.245822"><ele>12.0</ele><time>2026-04-11T09:05:08.001Z</time></trkpt><trkpt lat="40.4147782" lon="17.2458395"><ele>12.0</ele><time>2026-04-11T09:05:09.004Z</time></trkpt><trkpt lat="40.4149049" lon="17.2458613"><ele>11.5</ele><time>2026-04-11T09:05:10Z</time></trkpt><trkpt lat="40.4150402" lon="17.2458905"><ele>11.0</ele><time>2026-04-11T09:05:11.001Z</time></trkpt><trkpt lat="40.415188" lon="17.2459291"><ele>10.5</ele><time>2026-04-11T09:05:11.997Z</time></trkpt><trkpt lat="40.4153207" lon="17.2459644"><ele>10.0</ele><time>2026-04-11T09:05:13.007Z</time></trkpt><trkpt lat="40.4154397" lon="17.2459822"><ele>10.0</ele><time>2026-04-11T09:05:13.997Z</time></trkpt><trkpt lat="40.415557" lon="17.2460098"><ele>10.0</ele><time>2026-04-11T09:05:15Z</time></trkpt><trkpt lat="40.4156806" lon="17.2460212"><ele>10.0</ele><time>2026-04-11T09:05:16.004Z</time></trkpt><trkpt lat="40.4158133" lon="17.2460466"><ele>10.0</ele><time>2026-04-11T09:05:17.003Z</time></trkpt><trkpt lat="40.4159211" lon="17.2460697"><ele>10.0</ele><time>2026-04-11T09:05:18.008Z</time></trkpt><trkpt lat="40.4160095" lon="17.2460854"><ele>10.0</ele><time>2026-04-11T09:05:19.012Z</time></trkpt><trkpt lat="40.4160792" lon="17.2460977"><ele>10.0</ele><time>2026-04-11T09:05:20.041Z</time></trkpt><trkpt lat="40.4161858" lon="17.2461227"><ele>10.0</ele><time>2026-04-11T09:05:22.004Z</time></trkpt><trkpt lat="40.4162782" lon="17.2461466"><ele>10.0</ele><time>2026-04-11T09:05:23.991Z</time></trkpt><trkpt lat="40.4163469" lon="17.2461552"><ele>10.0</ele><time>2026-04-11T09:05:25.024Z</time></trkpt><trkpt lat="40.4164914" lon="17.2461851"><ele>10.333333333333334</ele><time>2026-04-11T09:05:27.011Z</time></trkpt><trkpt lat="40.4165755" lon="17.2462084"><ele>10.666666666666668</ele><time>2026-04-11T09:05:28.998Z</time></trkpt><trkpt lat="40.4166585" lon="17.2462358"><ele>11.0</ele><time>2026-04-11T09:05:31.999Z</time></trkpt><trkpt lat="40.4167299" lon="17.2462362"><ele>11.333333333333334</ele><time>2026-04-11T09:05:35.999Z</time></trkpt><trkpt lat="40.4168136" lon="17.2462492"><ele>11.666666666666666</ele><time>2026-04-11T09:05:38.997Z</time></trkpt><trkpt lat="40.416935" lon="17.2462676"><ele>12.0</ele><time>2026-04-11T09:05:41.006Z</time></trkpt><trkpt lat="40.4170059" lon="17.2462756"><ele>12.0</ele><time>2026-04-11T09:05:42.003Z</time></trkpt><trkpt lat="40.4170994" lon="17.2462969"><ele>12.0</ele><time>2026-04-11T09:05:43.002Z</time></trkpt><trkpt lat="40.4171997" lon="17.2463151"><ele>12.0</ele><time>2026-04-11T09:05:44.007Z</time></trkpt><trkpt lat="40.4173074" lon="17.2463272"><ele>12.0</ele><time>2026-04-11T09:05:45.006Z</time></trkpt><trkpt lat="40.4174299" lon="17.2463682"><ele>12.0</ele><time>2026-04-11T09:05:46.01Z</time></trkpt><trkpt lat="40.4175587" lon="17.2464023"><ele>12.0</ele><time>2026-04-11T09:05:47Z</time></trkpt><trkpt lat="40.4176992" lon="17.2464402"><ele>12.0</ele><time>2026-04-11T09:05:48.003Z</time></trkpt><trkpt lat="40.4178285" lon="17.2464667"><ele>12.0</ele><time>2026-04-11T09:05:49.009Z</time></trkpt><trkpt lat="40.4179692" lon="17.2464929"><ele>12.0</ele><time>2026-04-11T09:05:50.005Z</time></trkpt><trkpt lat="40.418119" lon="17.2465143"><ele>11.75</ele><time>2026-04-11T09:05:51.005Z</time></trkpt><trkpt lat="40.4182667" lon="17.2465391"><ele>11.5</ele><time>2026-04-11T09:05:51.998Z</time></trkpt><trkpt lat="40.4183997" lon="17.2465673"><ele>11.25</ele><time>2026-04-11T09:05:53Z</time></trkpt><trkpt lat="40.4185189" lon="17.2465888"><ele>11.0</ele><time>2026-04-11T09:05:54.001Z</time></trkpt><trkpt lat="40.418635" lon="17.2466033"><ele>11.0</ele><time>2026-04-11T09:05:55.001Z</time></trkpt><trkpt lat="40.418749" lon="17.2466223"><ele>11.0</ele><time>2026-04-11T09:05:56.002Z</time></trkpt><trkpt lat="40.4188667" lon="17.2466412"><ele>11.0</ele><time>2026-04-11T09:05:57.004Z</time></trkpt><trkpt lat="40.4189904" lon="17.2466547"><ele>11.0</ele><time>2026-04-11T09:05:58.005Z</time></trkpt><trkpt lat="40.4191215" lon="17.2466723"><ele>10.75</ele><time>2026-04-11T09:05:59.008Z</time></trkpt><trkpt lat="40.4192617" lon="17.2466902"><ele>10.5</ele><time>2026-04-11T09:06:00.008Z</time></trkpt><trkpt lat="40.4193999" lon="17.2467155"><ele>10.25</ele><time>2026-04-11T09:06:01.007Z</time></trkpt><trkpt lat="40.4195496" lon="17.2467465"><ele>10.0</ele><time>2026-04-11T09:06:02.002Z</time></trkpt><trkpt lat="40.4196991" lon="17.2467775"><ele>10.0</ele><time>2026-04-11T09:06:03.001Z</time></trkpt><trkpt lat="40.4198503" lon="17.24682"><ele>10.0</ele><time>2026-04-11T09:06:04.005Z</time></trkpt><trkpt lat="40.4199929" lon="17.2468778"><ele>10.0</ele><time>2026-04-11T09:06:05.039Z</time></trkpt><trkpt lat="40.4201397" lon="17.2469426"><ele>10.0</ele><time>2026-04-11T09:06:06.036Z</time></trkpt><trkpt lat="40.4202828" lon="17.2470166"><ele>10.0</ele><time>2026-04-11T09:06:07.039Z</time></trkpt><trkpt lat="40.4204241" lon="17.2471035"><ele>10.0</ele><time>2026-04-11T09:06:08.038Z</time></trkpt><trkpt lat="40.4205703" lon="17.2471864"><ele>10.0</ele><time>2026-04-11T09:06:08.997Z</time></trkpt><trkpt lat="40.4207046" lon="17.2472847"><ele>10.0</ele><time>2026-04-11T09:06:10.036Z</time></trkpt><trkpt lat="40.4208387" lon="17.2473752"><ele>10.0</ele><time>2026-04-11T09:06:11.013Z</time></trkpt><trkpt lat="40.42098" lon="17.2474706"><ele>10.0</ele><time>2026-04-11T09:06:12.033Z</time></trkpt><trkpt lat="40.4211176" lon="17.2475721"><ele>10.0</ele><time>2026-04-11T09:06:13.027Z</time></trkpt><trkpt lat="40.421253" lon="17.2476627"><ele>10.0</ele><time>2026-04-11T09:06:14.011Z</time></trkpt><trkpt lat="40.4213904" lon="17.2477425"><ele>10.333333333333334</ele><time>2026-04-11T09:06:15.037Z</time></trkpt><trkpt lat="40.421523" lon="17.247827"><ele>10.666666666666666</ele><time>2026-04-11T09:06:16.002Z</time></trkpt><trkpt lat="40.4216585" lon="17.2479234"><ele>11.0</ele><time>2026-04-11T09:06:17.003Z</time></trkpt><trkpt lat="40.4217947" lon="17.248013"><ele>11.0</ele><time>2026-04-11T09:06:17.99Z</time></trkpt><trkpt lat="40.4219359" lon="17.2481041"><ele>11.0</ele><time>2026-04-11T09:06:18.993Z</time></trkpt><trkpt lat="40.4220829" lon="17.2481938"><ele>11.0</ele><time>2026-04-11T09:06:20.029Z</time></trkpt><trkpt lat="40.4222253" lon="17.2482846"><ele>10.666666666666666</ele><time>2026-04-11T09:06:20.993Z</time></trkpt><trkpt lat="40.4223554" lon="17.2483877"><ele>10.333333333333334</ele><time>2026-04-11T09:06:21.996Z</time></trkpt><trkpt lat="40.4225073" lon="17.2484828"><ele>10.0</ele><time>2026-04-11T09:06:23.009Z</time></trkpt><trkpt lat="40.4226479" lon="17.24858"><ele>10.0</ele><time>2026-04-11T09:06:24.003Z</time></trkpt><trkpt lat="40.4227952" lon="17.2486767"><ele>10.0</ele><time>2026-04-11T09:06:24.993Z</time></trkpt><trkpt lat="40.4229521" lon="17.2487738"><ele>10.0</ele><time>2026-04-11T09:06:26.001Z</time></trkpt><trkpt lat="40.4231086" lon="17.2488578"><ele>10.0</ele><time>2026-04-11T09:06:27.008Z</time></trkpt><trkpt lat="40.4232722" lon="17.2489476"><ele>10.0</ele><time>2026-04-11T09:06:28.009Z</time></trkpt><trkpt lat="40.4234268" lon="17.2490328"><ele>10.0</ele><time>2026-04-11T09:06:28.996Z</time></trkpt><trkpt lat="40.423594" lon="17.2490928"><ele>10.0</ele><time>2026-04-11T09:06:30.002Z</time></trkpt><trkpt lat="40.4237599" lon="17.2491451"><ele>10.0</ele><time>2026-04-11T09:06:31.006Z</time></trkpt><trkpt lat="40.4239277" lon="17.2491915"><ele>10.0</ele><time>2026-04-11T09:06:32.004Z</time></trkpt><trkpt lat="40.4240902" lon="17.2492368"><ele>10.0</ele><time>2026-04-11T09:06:33.009Z</time></trkpt><trkpt lat="40.4242563" lon="17.2492807"><ele>10.0</ele><time>2026-04-11T09:06:34.012Z</time></trkpt><trkpt lat="40.4244266" lon="17.2493195"><ele>10.0</ele><time>2026-04-11T09:06:35.012Z</time></trkpt><trkpt lat="40.4245947" lon="17.2493556"><ele>10.0</ele><time>2026-04-11T09:06:36.014Z</time></trkpt><trkpt lat="40.4247593" lon="17.2494028"><ele>10.0</ele><time>2026-04-11T09:06:37.006Z</time></trkpt><trkpt lat="40.4249167" lon="17.2494418"><ele>10.0</ele><time>2026-04-11T09:06:37.993Z</time></trkpt><trkpt lat="40.4250608" lon="17.2494723"><ele>10.0</ele><time>2026-04-11T09:06:38.993Z</time></trkpt><trkpt lat="40.4252007" lon="17.2495069"><ele>10.0</ele><time>2026-04-11T09:06:40.005Z</time></trkpt><trkpt lat="40.4253358" lon="17.2495385"><ele>10.0</ele><time>2026-04-11T09:06:41.007Z</time></trkpt><trkpt lat="40.4254701" lon="17.2495695"><ele>10.0</ele><time>2026-04-11T09:06:42.015Z</time></trkpt><trkpt lat="40.4255922" lon="17.2496017"><ele>10.2</ele><time>2026-04-11T09:06:43.008Z</time></trkpt><trkpt lat="40.4257144" lon="17.2496356"><ele>10.4</ele><time>2026-04-11T09:06:44.038Z</time></trkpt><trkpt lat="40.4258279" lon="17.2496549"><ele>10.600000000000001</ele><time>2026-04-11T09:06:45.006Z</time></trkpt><trkpt lat="40.4259293" lon="17.2496724"><ele>10.8</ele><time>2026-04-11T09:06:46.031Z</time></trkpt><trkpt lat="40.426029" lon="17.2496901"><ele>11.0</ele><time>2026-04-11T09:06:46.991Z</time></trkpt><trkpt lat="40.4261609" lon="17.2497166"><ele>11.0</ele><time>2026-04-11T09:06:48.998Z</time></trkpt><trkpt lat="40.4262374" lon="17.2497399"><ele>11.0</ele><time>2026-04-11T09:06:51.005Z</time></trkpt><trkpt lat="40.4262977" lon="17.2497764"><ele>11.0</ele><time>2026-04-11T09:06:53.01Z</time></trkpt><trkpt lat="40.4263766" lon="17.2498486"><ele>11.0</ele><time>2026-04-11T09:06:54.997Z</time></trkpt><trkpt lat="40.4264192" lon="17.2499119"><ele>11.0</ele><time>2026-04-11T09:06:55.998Z</time></trkpt><trkpt lat="40.4264639" lon="17.250011"><ele>11.0</ele><time>2026-04-11T09:06:57.035Z</time></trkpt><trkpt lat="40.4264951" lon="17.2501218"><ele>10.8</ele><time>2026-04-11T09:06:58.029Z</time></trkpt><trkpt lat="40.4265098" lon="17.2502418"><ele>10.600000000000001</ele><time>2026-04-11T09:06:59.002Z</time></trkpt><trkpt lat="40.4265072" lon="17.2503725"><ele>10.4</ele><time>2026-04-11T09:07:00.006Z</time></trkpt><trkpt lat="40.4264852" lon="17.2505252"><ele>10.2</ele><time>2026-04-11T09:07:01.012Z</time></trkpt><trkpt lat="40.4264824" lon="17.2506861"><ele>10.0</ele><time>2026-04-11T09:07:02.006Z</time></trkpt><trkpt lat="40.4264592" lon="17.2508606"><ele>10.0</ele><time>2026-04-11T09:07:03.005Z</time></trkpt><trkpt lat="40.4264409" lon="17.2510408"><ele>10.0</ele><time>2026-04-11T09:07:04.005Z</time></trkpt><trkpt lat="40.4264213" lon="17.2512285"><ele>10.0</ele><time>2026-04-11T09:07:05.006Z</time></trkpt><trkpt lat="40.4264001" lon="17.2514177"><ele>10.0</ele><time>2026-04-11T09:07:06.006Z</time></trkpt><trkpt lat="40.4263847" lon="17.2516214"><ele>10.666666666666668</ele><time>2026-04-11T09:07:07.005Z</time></trkpt><trkpt lat="40.4263647" lon="17.2518172"><ele>11.333333333333334</ele><time>2026-04-11T09:07:08.013Z</time></trkpt><trkpt lat="40.4263541" lon="17.252028"><ele>12.0</ele><time>2026-04-11T09:07:09.004Z</time></trkpt><trkpt lat="40.42633" lon="17.2522151"><ele>12.0</ele><time>2026-04-11T09:07:10.041Z</time></trkpt><trkpt lat="40.4263108" lon="17.2524022"><ele>12.0</ele><time>2026-04-11T09:07:10.996Z</time></trkpt><trkpt lat="40.4262873" lon="17.2525761"><ele>12.0</ele><time>2026-04-11T09:07:12.031Z</time></trkpt><trkpt lat="40.426273" lon="17.2527658"><ele>12.0</ele><time>2026-04-11T09:07:12.998Z</time></trkpt><trkpt lat="40.426256" lon="17.2529556"><ele>12.25</ele><time>2026-04-11T09:07:14.028Z</time></trkpt><trkpt lat="40.4262533" lon="17.2531447"><ele>12.5</ele><time>2026-04-11T09:07:15.034Z</time></trkpt><trkpt lat="40.4262461" lon="17.2533344"><ele>12.75</ele><time>2026-04-11T09:07:15.996Z</time></trkpt><trkpt lat="40.426238" lon="17.2535157"><ele>13.0</ele><time>2026-04-11T09:07:17.006Z</time></trkpt><trkpt lat="40.4262338" lon="17.2537049"><ele>13.0</ele><time>2026-04-11T09:07:18.012Z</time></trkpt><trkpt lat="40.426234" lon="17.2538991"><ele>13.0</ele><time>2026-04-11T09:07:18.991Z</time></trkpt><trkpt lat="40.4262435" lon="17.2540773"><ele>13.0</ele><time>2026-04-11T09:07:20Z</time></trkpt><trkpt lat="40.42629" lon="17.2542645"><ele>13.0</ele><time>2026-04-11T09:07:20.999Z</time></trkpt><trkpt lat="40.4263062" lon="17.2544393"><ele>13.0</ele><time>2026-04-11T09:07:22.036Z</time></trkpt><trkpt lat="40.4263178" lon="17.254605"><ele>13.0</ele><time>2026-04-11T09:07:22.992Z</time></trkpt><trkpt lat="40.4263491" lon="17.2547552"><ele>13.0</ele><time>2026-04-11T09:07:24.01Z</time></trkpt><trkpt lat="40.4263534" lon="17.2549071"><ele>13.0</ele><time>2026-04-11T09:07:25.004Z</time></trkpt><trkpt lat="40.4263655" lon="17.2550545"><ele>13.0</ele><time>2026-04-11T09:07:25.989Z</time></trkpt><trkpt lat="40.4263714" lon="17.2552312"><ele>13.0</ele><time>2026-04-11T09:07:27.028Z</time></trkpt><trkpt lat="40.4263845" lon="17.2553642"><ele>13.0</ele><time>2026-04-11T09:07:28.001Z</time></trkpt><trkpt lat="40.4263948" lon="17.2555022"><ele>13.0</ele><time>2026-04-11T09:07:28.988Z</time></trkpt><trkpt lat="40.4263841" lon="17.2556352"><ele>13.0</ele><time>2026-04-11T09:07:30.001Z</time></trkpt><trkpt lat="40.4263946" lon="17.2557499"><ele>13.0</ele><time>2026-04-11T09:07:31.009Z</time></trkpt><trkpt lat="40.4264081" lon="17.2558707"><ele>13.0</ele><time>2026-04-11T09:07:32.006Z</time></trkpt><trkpt lat="40.4264163" lon="17.2559925"><ele>13.0</ele><time>2026-04-11T09:07:33.009Z</time></trkpt><trkpt lat="40.4264312" lon="17.2561202"><ele>13.0</ele><time>2026-04-11T09:07:34.006Z</time></trkpt><trkpt lat="40.4264437" lon="17.256254"><ele>13.0</ele><time>2026-04-11T09:07:35.002Z</time></trkpt><trkpt lat="40.4264514" lon="17.2563692"><ele>13.0</ele><time>2026-04-11T09:07:36.002Z</time></trkpt><trkpt lat="40.4264654" lon="17.2564928"><ele>13.0</ele><time>2026-04-11T09:07:37.003Z</time></trkpt><trkpt lat="40.4264712" lon="17.2566067"><ele>13.0</ele><time>2026-04-11T09:07:38.005Z</time></trkpt><trkpt lat="40.4264808" lon="17.256697"><ele>13.0</ele><time>2026-04-11T09:07:39.01Z</time></trkpt><trkpt lat="40.426475" lon="17.2568502"><ele>13.0</ele><time>2026-04-11T09:07:41.077Z</time></trkpt><trkpt lat="40.4264704" lon="17.2569619"><ele>13.0</ele><time>2026-04-11T09:07:43.003Z</time></trkpt><trkpt lat="40.4264604" lon="17.2570542"><ele>13.0</ele><time>2026-04-11T09:07:45Z</time></trkpt><trkpt lat="40.4264517" lon="17.2571428"><ele>13.0</ele><time>2026-04-11T09:07:48.994Z</time></trkpt><trkpt lat="40.4264276" lon="17.2572433"><ele>13.0</ele><time>2026-04-11T09:07:54.005Z</time></trkpt><trkpt lat="40.4264205" lon="17.2573471"><ele>13.0</ele><time>2026-04-11T09:07:58Z</time></trkpt><trkpt lat="40.4263975" lon="17.2574334"><ele>13.0</ele><time>2026-04-11T09:08:02.007Z</time></trkpt><trkpt lat="40.4263782" lon="17.2575196"><ele>13.0</ele><time>2026-04-11T09:08:05.01Z</time></trkpt><trkpt lat="40.4263549" lon="17.2576"><ele>13.333333333333332</ele><time>2026-04-11T09:08:08.034Z</time></trkpt><trkpt lat="40.4263048" lon="17.2576863"><ele>13.666666666666666</ele><time>2026-04-11T09:08:15.031Z</time></trkpt><trkpt lat="40.4262516" lon="17.2578203"><ele>14.0</ele><time>2026-04-11T09:08:17Z</time></trkpt><trkpt lat="40.4262237" lon="17.2579172"><ele>14.333333333333332</ele><time>2026-04-11T09:08:18.027Z</time></trkpt><trkpt lat="40.4262105" lon="17.2580258"><ele>14.666666666666666</ele><time>2026-04-11T09:08:19Z</time></trkpt><trkpt lat="40.4262052" lon="17.2581398"><ele>15.0</ele><time>2026-04-11T09:08:19.997Z</time></trkpt><trkpt lat="40.4262607" lon="17.25827"><ele>15.0</ele><time>2026-04-11T09:08:21.033Z</time></trkpt><trkpt lat="40.4263037" lon="17.2583944"><ele>15.0</ele><time>2026-04-11T09:08:21.996Z</time></trkpt><trkpt lat="40.4263297" lon="17.2585692"><ele>15.0</ele><time>2026-04-11T09:08:23.029Z</time></trkpt><trkpt lat="40.4263474" lon="17.2587381"><ele>15.0</ele><time>2026-04-11T09:08:23.995Z</time></trkpt><trkpt lat="40.4263152" lon="17.2589311"><ele>15.4</ele><time>2026-04-11T09:08:25.026Z</time></trkpt><trkpt lat="40.4262907" lon="17.2591008"><ele>15.8</ele><time>2026-04-11T09:08:25.992Z</time></trkpt><trkpt lat="40.4262342" lon="17.2592283"><ele>16.2</ele><time>2026-04-11T09:08:27.002Z</time></trkpt><trkpt lat="40.4261862" lon="17.259355"><ele>16.6</ele><time>2026-04-11T09:08:28.031Z</time></trkpt><trkpt lat="40.4261696" lon="17.2594792"><ele>17.0</ele><time>2026-04-11T09:08:29.031Z</time></trkpt><trkpt lat="40.4261594" lon="17.2596"><ele>17.0</ele><time>2026-04-11T09:08:29.988Z</time></trkpt><trkpt lat="40.426211" lon="17.2597172"><ele>17.0</ele><time>2026-04-11T09:08:31.025Z</time></trkpt><trkpt lat="40.4262578" lon="17.2598507"><ele>17.0</ele><time>2026-04-11T09:08:32.029Z</time></trkpt><trkpt lat="40.426305" lon="17.2599833"><ele>17.0</ele><time>2026-04-11T09:08:32.989Z</time></trkpt><trkpt lat="40.4263388" lon="17.2601533"><ele>16.75</ele><time>2026-04-11T09:08:34.029Z</time></trkpt><trkpt lat="40.4263634" lon="17.2603412"><ele>16.5</ele><time>2026-04-11T09:08:34.999Z</time></trkpt><trkpt lat="40.426379" lon="17.2605279"><ele>16.25</ele><time>2026-04-11T09:08:35.999Z</time></trkpt><trkpt lat="40.4263638" lon="17.2607327"><ele>16.0</ele><time>2026-04-11T09:08:37.005Z</time></trkpt><trkpt lat="40.4263629" lon="17.2609438"><ele>16.666666666666664</ele><time>2026-04-11T09:08:38.034Z</time></trkpt><trkpt lat="40.4263505" lon="17.2611695"><ele>17.333333333333332</ele><time>2026-04-11T09:08:39.007Z</time></trkpt><trkpt lat="40.4263278" lon="17.2613956"><ele>18.0</ele><time>2026-04-11T09:08:40Z</time></trkpt><trkpt lat="40.4263179" lon="17.2616272"><ele>18.333333333333332</ele><time>2026-04-11T09:08:41.027Z</time></trkpt><trkpt lat="40.4263127" lon="17.2618577"><ele>18.666666666666664</ele><time>2026-04-11T09:08:41.988Z</time></trkpt><trkpt lat="40.426314" lon="17.2621059"><ele>19.0</ele><time>2026-04-11T09:08:43.021Z</time></trkpt><trkpt lat="40.426318" lon="17.2623391"><ele>19.0</ele><time>2026-04-11T09:08:44.002Z</time></trkpt><trkpt lat="40.426319" lon="17.2625793"><ele>19.0</ele><time>2026-04-11T09:08:45.002Z</time></trkpt><trkpt lat="40.4263138" lon="17.2628154"><ele>19.0</ele><time>2026-04-11T09:08:45.989Z</time></trkpt><trkpt lat="40.4263109" lon="17.2630296"><ele>19.666666666666664</ele><time>2026-04-11T09:08:46.999Z</time></trkpt><trkpt lat="40.4263041" lon="17.2632371"><ele>20.333333333333332</ele><time>2026-04-11T09:08:48.007Z</time></trkpt><trkpt lat="40.4263006" lon="17.263451"><ele>21.0</ele><time>2026-04-11T09:08:48.997Z</time></trkpt><trkpt lat="40.4263189" lon="17.2636549"><ele>21.0</ele><time>2026-04-11T09:08:50.001Z</time></trkpt><trkpt lat="40.4263219" lon="17.2638391"><ele>21.0</ele><time>2026-04-11T09:08:51.005Z</time></trkpt><trkpt lat="40.4263369" lon="17.2640269"><ele>21.0</ele><time>2026-04-11T09:08:52.005Z</time></trkpt><trkpt lat="40.426352" lon="17.2642181"><ele>21.0</ele><time>2026-04-11T09:08:53.002Z</time></trkpt><trkpt lat="40.4263798" lon="17.2644013"><ele>21.0</ele><time>2026-04-11T09:08:54.006Z</time></trkpt><trkpt lat="40.4264149" lon="17.2645829"><ele>21.0</ele><time>2026-04-11T09:08:55.031Z</time></trkpt><trkpt lat="40.4264453" lon="17.2647631"><ele>21.0</ele><time>2026-04-11T09:08:55.988Z</time></trkpt><trkpt lat="40.4264692" lon="17.2649313"><ele>21.0</ele><time>2026-04-11T09:08:57.029Z</time></trkpt><trkpt lat="40.4265053" lon="17.2650943"><ele>20.8</ele><time>2026-04-11T09:08:57.991Z</time></trkpt><trkpt lat="40.4265464" lon="17.2652415"><ele>20.6</ele><time>2026-04-11T09:08:58.989Z</time></trkpt><trkpt lat="40.4265911" lon="17.2653705"><ele>20.4</ele><time>2026-04-11T09:09:00.005Z</time></trkpt><trkpt lat="40.4266239" lon="17.2654954"><ele>20.2</ele><time>2026-04-11T09:09:01.006Z</time></trkpt><trkpt lat="40.4266614" lon="17.2656269"><ele>20.0</ele><time>2026-04-11T09:09:02.067Z</time></trkpt><trkpt lat="40.4266935" lon="17.2657399"><ele>20.0</ele><time>2026-04-11T09:09:03.032Z</time></trkpt><trkpt lat="40.4267169" lon="17.2658459"><ele>20.0</ele><time>2026-04-11T09:09:04.068Z</time></trkpt><trkpt lat="40.426733" lon="17.2659404"><ele>20.0</ele><time>2026-04-11T09:09:05.026Z</time></trkpt><trkpt lat="40.4267413" lon="17.2660342"><ele>20.0</ele><time>2026-04-11T09:09:06.027Z</time></trkpt><trkpt lat="40.426753" lon="17.2661164"><ele>20.0</ele><time>2026-04-11T09:09:06.991Z</time></trkpt><trkpt lat="40.4267478" lon="17.266269"><ele>20.0</ele><time>2026-04-11T09:09:09.032Z</time></trkpt><trkpt lat="40.4267337" lon="17.2664172"><ele>20.166666666666668</ele><time>2026-04-11T09:09:10.991Z</time></trkpt><trkpt lat="40.4267411" lon="17.26658"><ele>20.333333333333336</ele><time>2026-04-11T09:09:13.008Z</time></trkpt><trkpt lat="40.4267828" lon="17.2666621"><ele>20.5</ele><time>2026-04-11T09:09:14.039Z</time></trkpt><trkpt lat="40.4268257" lon="17.2667324"><ele>20.666666666666668</ele><time>2026-04-11T09:09:15.037Z</time></trkpt><trkpt lat="40.4268801" lon="17.2668053"><ele>20.833333333333332</ele><time>2026-04-11T09:09:16.03Z</time></trkpt><trkpt lat="40.4269536" lon="17.2668693"><ele>21.0</ele><time>2026-04-11T09:09:17.033Z</time></trkpt><trkpt lat="40.4270196" lon="17.2669455"><ele>21.0</ele><time>2026-04-11T09:09:18.002Z</time></trkpt><trkpt lat="40.4270748" lon="17.2670508"><ele>21.0</ele><time>2026-04-11T09:09:19.006Z</time></trkpt><trkpt lat="40.427117" lon="17.2671518"><ele>21.0</ele><time>2026-04-11T09:09:20.011Z</time></trkpt><trkpt lat="40.4271625" lon="17.2672546"><ele>21.0</ele><time>2026-04-11T09:09:21.011Z</time></trkpt><trkpt lat="40.4272026" lon="17.2673557"><ele>21.0</ele><time>2026-04-11T09:09:22.032Z</time></trkpt><trkpt lat="40.4272319" lon="17.2674632"><ele>21.0</ele><time>2026-04-11T09:09:23Z</time></trkpt><trkpt lat="40.427269" lon="17.2675674"><ele>21.0</ele><time>2026-04-11T09:09:24.005Z</time></trkpt><trkpt lat="40.4273133" lon="17.2676896"><ele>21.0</ele><time>2026-04-11T09:09:25.003Z</time></trkpt><trkpt lat="40.4273585" lon="17.2678236"><ele>21.0</ele><time>2026-04-11T09:09:26.003Z</time></trkpt><trkpt lat="40.4273956" lon="17.2679594"><ele>21.0</ele><time>2026-04-11T09:09:27.008Z</time></trkpt><trkpt lat="40.4274373" lon="17.2680906"><ele>21.0</ele><time>2026-04-11T09:09:28.011Z</time></trkpt><trkpt lat="40.4274729" lon="17.2682234"><ele>20.8</ele><time>2026-04-11T09:09:29.007Z</time></trkpt><trkpt lat="40.4275152" lon="17.2683443"><ele>20.6</ele><time>2026-04-11T09:09:30.001Z</time></trkpt><trkpt lat="40.4275494" lon="17.2684685"><ele>20.4</ele><time>2026-04-11T09:09:31.002Z</time></trkpt><trkpt lat="40.4275824" lon="17.2685937"><ele>20.2</ele><time>2026-04-11T09:09:32.005Z</time></trkpt><trkpt lat="40.4276191" lon="17.2687214"><ele>20.0</ele><time>2026-04-11T09:09:33.037Z</time></trkpt><trkpt lat="40.4276541" lon="17.2688477"><ele>20.2</ele><time>2026-04-11T09:09:33.995Z</time></trkpt><trkpt lat="40.4276835" lon="17.2689912"><ele>20.4</ele><time>2026-04-11T09:09:35.028Z</time></trkpt><trkpt lat="40.4277133" lon="17.2691331"><ele>20.6</ele><time>2026-04-11T09:09:36.004Z</time></trkpt><trkpt lat="40.4277413" lon="17.269266"><ele>20.8</ele><time>2026-04-11T09:09:37.001Z</time></trkpt><trkpt lat="40.4277633" lon="17.2694009"><ele>21.0</ele><time>2026-04-11T09:09:38.029Z</time></trkpt><trkpt lat="40.4277918" lon="17.2695481"><ele>21.0</ele><time>2026-04-11T09:09:39.028Z</time></trkpt><trkpt lat="40.4278101" lon="17.2696804"><ele>21.0</ele><time>2026-04-11T09:09:40.003Z</time></trkpt><trkpt lat="40.4278259" lon="17.2698261"><ele>21.0</ele><time>2026-04-11T09:09:40.994Z</time></trkpt><trkpt lat="40.4278273" lon="17.2699783"><ele>21.0</ele><time>2026-04-11T09:09:41.996Z</time></trkpt><trkpt lat="40.4278324" lon="17.2701289"><ele>21.0</ele><time>2026-04-11T09:09:43.001Z</time></trkpt><trkpt lat="40.4278263" lon="17.2702808"><ele>21.0</ele><time>2026-04-11T09:09:44.031Z</time></trkpt><trkpt lat="40.4278202" lon="17.2704431"><ele>21.0</ele><time>2026-04-11T09:09:45.001Z</time></trkpt><trkpt lat="40.4278058" lon="17.270605"><ele>21.0</ele><time>2026-04-11T09:09:46.033Z</time></trkpt><trkpt lat="40.4277905" lon="17.2707675"><ele>21.0</ele><time>2026-04-11T09:09:46.989Z</time></trkpt><trkpt lat="40.4277521" lon="17.2709255"><ele>21.0</ele><time>2026-04-11T09:09:47.992Z</time></trkpt><trkpt lat="40.4277218" lon="17.2710869"><ele>21.0</ele><time>2026-04-11T09:09:48.996Z</time></trkpt><trkpt lat="40.4276728" lon="17.2712573"><ele>21.0</ele><time>2026-04-11T09:09:49.997Z</time></trkpt><trkpt lat="40.4276271" lon="17.2714621"><ele>21.0</ele><time>2026-04-11T09:09:50.993Z</time></trkpt><trkpt lat="40.4275549" lon="17.2716798"><ele>21.0</ele><time>2026-04-11T09:09:52.006Z</time></trkpt><trkpt lat="40.4274437" lon="17.2719138"><ele>21.0</ele><time>2026-04-11T09:09:53.038Z</time></trkpt><trkpt lat="40.4273508" lon="17.2721329"><ele>21.0</ele><time>2026-04-11T09:09:54.029Z</time></trkpt><trkpt lat="40.4272501" lon="17.2723556"><ele>21.0</ele><time>2026-04-11T09:09:54.999Z</time></trkpt><trkpt lat="40.4271492" lon="17.2725699"><ele>21.0</ele><time>2026-04-11T09:09:56.003Z</time></trkpt><trkpt lat="40.4270462" lon="17.2727948"><ele>21.0</ele><time>2026-04-11T09:09:57.029Z</time></trkpt><trkpt lat="40.4269411" lon="17.27302"><ele>20.333333333333332</ele><time>2026-04-11T09:09:57.99Z</time></trkpt><trkpt lat="40.4268305" lon="17.2732442"><ele>19.666666666666664</ele><time>2026-04-11T09:09:59.036Z</time></trkpt><trkpt lat="40.4267153" lon="17.2734728"><ele>19.0</ele><time>2026-04-11T09:10:00.005Z</time></trkpt><trkpt lat="40.4266139" lon="17.2737046"><ele>19.0</ele><time>2026-04-11T09:10:01.002Z</time></trkpt><trkpt lat="40.4265196" lon="17.2739354"><ele>19.0</ele><time>2026-04-11T09:10:02.077Z</time></trkpt><trkpt lat="40.4264154" lon="17.2741469"><ele>19.0</ele><time>2026-04-11T09:10:03.036Z</time></trkpt><trkpt lat="40.426313" lon="17.2743619"><ele>18.0</ele><time>2026-04-11T09:10:04.001Z</time></trkpt><trkpt lat="40.4262135" lon="17.2745738"><ele>17.0</ele><time>2026-04-11T09:10:04.994Z</time></trkpt><trkpt lat="40.4261399" lon="17.2747484"><ele>16.0</ele><time>2026-04-11T09:10:06.005Z</time></trkpt><trkpt lat="40.4260762" lon="17.2749033"><ele>15.75</ele><time>2026-04-11T09:10:07.007Z</time></trkpt><trkpt lat="40.426015" lon="17.2750595"><ele>15.5</ele><time>2026-04-11T09:10:08Z</time></trkpt><trkpt lat="40.4259634" lon="17.2752069"><ele>15.25</ele><time>2026-04-11T09:10:09.003Z</time></trkpt><trkpt lat="40.4259298" lon="17.2753387"><ele>15.0</ele><time>2026-04-11T09:10:09.999Z</time></trkpt><trkpt lat="40.4259037" lon="17.2754863"><ele>14.8</ele><time>2026-04-11T09:10:10.989Z</time></trkpt><trkpt lat="40.4259295" lon="17.2756167"><ele>14.6</ele><time>2026-04-11T09:10:11.99Z</time></trkpt><trkpt lat="40.4259814" lon="17.2757414"><ele>14.399999999999999</ele><time>2026-04-11T09:10:13.029Z</time></trkpt><trkpt lat="40.4260374" lon="17.2758498"><ele>14.2</ele><time>2026-04-11T09:10:13.997Z</time></trkpt><trkpt lat="40.4260991" lon="17.2759489"><ele>14.0</ele><time>2026-04-11T09:10:14.99Z</time></trkpt><trkpt lat="40.4261902" lon="17.2759936"><ele>14.0</ele><time>2026-04-11T09:10:15.998Z</time></trkpt><trkpt lat="40.4262776" lon="17.2760439"><ele>13.999999999999998</ele><time>2026-04-11T09:10:16.992Z</time></trkpt><trkpt lat="40.4263834" lon="17.2760149"><ele>13.999999999999998</ele><time>2026-04-11T09:10:18.026Z</time></trkpt><trkpt lat="40.4264838" lon="17.2759814"><ele>14.0</ele><time>2026-04-11T09:10:19.036Z</time></trkpt><trkpt lat="40.4265807" lon="17.2759241"><ele>14.0</ele><time>2026-04-11T09:10:20.006Z</time></trkpt><trkpt lat="40.4266842" lon="17.2758605"><ele>14.5</ele><time>2026-04-11T09:10:20.994Z</time></trkpt><trkpt lat="40.4267994" lon="17.2757789"><ele>15.0</ele><time>2026-04-11T09:10:22.026Z</time></trkpt><trkpt lat="40.4269151" lon="17.2757095"><ele>15.5</ele><time>2026-04-11T09:10:23.001Z</time></trkpt><trkpt lat="40.4270316" lon="17.2756477"><ele>16.0</ele><time>2026-04-11T09:10:24.002Z</time></trkpt><trkpt lat="40.4271508" lon="17.2756023"><ele>16.5</ele><time>2026-04-11T09:10:24.993Z</time></trkpt><trkpt lat="40.4272834" lon="17.275622"><ele>17.0</ele><time>2026-04-11T09:10:26.006Z</time></trkpt><trkpt lat="40.4274094" lon="17.2756471"><ele>17.5</ele><time>2026-04-11T09:10:27.009Z</time></trkpt><trkpt lat="40.4275341" lon="17.2757021"><ele>18.0</ele><time>2026-04-11T09:10:28.037Z</time></trkpt><trkpt lat="40.427668" lon="17.2757644"><ele>18.0</ele><time>2026-04-11T09:10:29.127Z</time></trkpt><trkpt lat="40.4279704" lon="17.2759849"><ele>18.0</ele><time>2026-04-11T09:10:31.029Z</time></trkpt><trkpt lat="40.428123" lon="17.2760966"><ele>18.0</ele><time>2026-04-11T09:10:32.033Z</time></trkpt><trkpt lat="40.4282829" lon="17.2762074"><ele>18.0</ele><time>2026-04-11T09:10:33.001Z</time></trkpt><trkpt lat="40.428444" lon="17.2763497"><ele>18.0</ele><time>2026-04-11T09:10:34.029Z</time></trkpt><trkpt lat="40.4286168" lon="17.2764834"><ele>18.0</ele><time>2026-04-11T09:10:35.004Z</time></trkpt><trkpt lat="40.4287986" lon="17.2766293"><ele>18.0</ele><time>2026-04-11T09:10:36Z</time></trkpt><trkpt lat="40.4289813" lon="17.2767793"><ele>18.0</ele><time>2026-04-11T09:10:37.029Z</time></trkpt><trkpt lat="40.4291624" lon="17.2769289"><ele>18.333333333333332</ele><time>2026-04-11T09:10:38.005Z</time></trkpt><trkpt lat="40.4293362" lon="17.2770715"><ele>18.666666666666664</ele><time>2026-04-11T09:10:39.024Z</time></trkpt><trkpt lat="40.4295356" lon="17.2772246"><ele>19.0</ele><time>2026-04-11T09:10:40.027Z</time></trkpt><trkpt lat="40.4297199" lon="17.2773703"><ele>20.0</ele><time>2026-04-11T09:10:40.999Z</time></trkpt><trkpt lat="40.4299079" lon="17.2775188"><ele>21.0</ele><time>2026-04-11T09:10:41.993Z</time></trkpt><trkpt lat="40.4300975" lon="17.2776746"><ele>22.0</ele><time>2026-04-11T09:10:43.006Z</time></trkpt><trkpt lat="40.4302936" lon="17.277836"><ele>22.5</ele><time>2026-04-11T09:10:44.016Z</time></trkpt><trkpt lat="40.4304854" lon="17.2779922"><ele>23.0</ele><time>2026-04-11T09:10:45.003Z</time></trkpt><trkpt lat="40.4306789" lon="17.278148"><ele>23.0</ele><time>2026-04-11T09:10:46.005Z</time></trkpt><trkpt lat="40.4308743" lon="17.2783014"><ele>23.0</ele><time>2026-04-11T09:10:46.999Z</time></trkpt><trkpt lat="40.431068" lon="17.2784568"><ele>23.0</ele><time>2026-04-11T09:10:47.991Z</time></trkpt><trkpt lat="40.4312664" lon="17.2786092"><ele>23.0</ele><time>2026-04-11T09:10:48.993Z</time></trkpt><trkpt lat="40.4314634" lon="17.2787635"><ele>23.0</ele><time>2026-04-11T09:10:49.997Z</time></trkpt><trkpt lat="40.4316532" lon="17.2789265"><ele>23.0</ele><time>2026-04-11T09:10:51.002Z</time></trkpt><trkpt lat="40.4318447" lon="17.2790817"><ele>22.5</ele><time>2026-04-11T09:10:52.005Z</time></trkpt><trkpt lat="40.4320374" lon="17.2792368"><ele>22.0</ele><time>2026-04-11T09:10:52.991Z</time></trkpt><trkpt lat="40.4322297" lon="17.2793946"><ele>23.0</ele><time>2026-04-11T09:10:53.994Z</time></trkpt><trkpt lat="40.4324329" lon="17.2795506"><ele>24.0</ele><time>2026-04-11T09:10:55.008Z</time></trkpt><trkpt lat="40.4326246" lon="17.2797057"><ele>24.0</ele><time>2026-04-11T09:10:56.007Z</time></trkpt><trkpt lat="40.4328273" lon="17.2798334"><ele>24.0</ele><time>2026-04-11T09:10:57.002Z</time></trkpt><trkpt lat="40.4330323" lon="17.2799783"><ele>25.0</ele><time>2026-04-11T09:10:57.992Z</time></trkpt><trkpt lat="40.4332491" lon="17.2800975"><ele>26.0</ele><time>2026-04-11T09:10:58.992Z</time></trkpt><trkpt lat="40.4334651" lon="17.2802342"><ele>26.0</ele><time>2026-04-11T09:10:59.989Z</time></trkpt><trkpt lat="40.4337094" lon="17.2803597"><ele>26.0</ele><time>2026-04-11T09:11:01.002Z</time></trkpt><trkpt lat="40.4339419" lon="17.2804852"><ele>26.0</ele><time>2026-04-11T09:11:02.007Z</time></trkpt><trkpt lat="40.4341836" lon="17.2806007"><ele>26.0</ele><time>2026-04-11T09:11:03.009Z</time></trkpt><trkpt lat="40.4344331" lon="17.2807127"><ele>25.5</ele><time>2026-04-11T09:11:04.011Z</time></trkpt><trkpt lat="40.4346841" lon="17.2808206"><ele>25.0</ele><time>2026-04-11T09:11:04.993Z</time></trkpt><trkpt lat="40.4349414" lon="17.2809032"><ele>25.0</ele><time>2026-04-11T09:11:05.993Z</time></trkpt><trkpt lat="40.4352022" lon="17.2809909"><ele>25.0</ele><time>2026-04-11T09:11:07.003Z</time></trkpt><trkpt lat="40.4354732" lon="17.2810689"><ele>25.0</ele><time>2026-04-11T09:11:08.003Z</time></trkpt><trkpt lat="40.4357432" lon="17.2811407"><ele>25.0</ele><time>2026-04-11T09:11:09.003Z</time></trkpt><trkpt lat="40.4360153" lon="17.2812039"><ele>25.0</ele><time>2026-04-11T09:11:10.013Z</time></trkpt><trkpt lat="40.4362933" lon="17.2812528"><ele>25.0</ele><time>2026-04-11T09:11:11.01Z</time></trkpt><trkpt lat="40.4365785" lon="17.2812907"><ele>26.0</ele><time>2026-04-11T09:11:12.007Z</time></trkpt><trkpt lat="40.4368582" lon="17.2813281"><ele>27.0</ele><time>2026-04-11T09:11:13.073Z</time></trkpt><trkpt lat="40.4371391" lon="17.2813632"><ele>27.0</ele><time>2026-04-11T09:11:13.992Z</time></trkpt><trkpt lat="40.4374183" lon="17.2813967"><ele>27.0</ele><time>2026-04-11T09:11:14.998Z</time></trkpt><trkpt lat="40.4376929" lon="17.2814338"><ele>25.5</ele><time>2026-04-11T09:11:16.004Z</time></trkpt><trkpt lat="40.4379723" lon="17.2814681"><ele>24.0</ele><time>2026-04-11T09:11:16.99Z</time></trkpt><trkpt lat="40.4382625" lon="17.2814995"><ele>24.0</ele><time>2026-04-11T09:11:18.028Z</time></trkpt><trkpt lat="40.4385387" lon="17.2815361"><ele>24.0</ele><time>2026-04-11T09:11:19.003Z</time></trkpt><trkpt lat="40.4388257" lon="17.2815791"><ele>25.0</ele><time>2026-04-11T09:11:20.006Z</time></trkpt><trkpt lat="40.4391078" lon="17.2816151"><ele>26.0</ele><time>2026-04-11T09:11:20.994Z</time></trkpt><trkpt lat="40.4393964" lon="17.2816476"><ele>26.5</ele><time>2026-04-11T09:11:22.005Z</time></trkpt><trkpt lat="40.4396832" lon="17.2816813"><ele>27.0</ele><time>2026-04-11T09:11:23.013Z</time></trkpt><trkpt lat="40.4399657" lon="17.2817222"><ele>27.0</ele><time>2026-04-11T09:11:24.009Z</time></trkpt><trkpt lat="40.4402543" lon="17.2817578"><ele>27.0</ele><time>2026-04-11T09:11:25.003Z</time></trkpt><trkpt lat="40.440549" lon="17.281797"><ele>27.0</ele><time>2026-04-11T09:11:26.003Z</time></trkpt><trkpt lat="40.4408387" lon="17.2818362"><ele>27.0</ele><time>2026-04-11T09:11:26.992Z</time></trkpt><trkpt lat="40.4411232" lon="17.2818781"><ele>26.0</ele><time>2026-04-11T09:11:28.007Z</time></trkpt><trkpt lat="40.4414113" lon="17.2819297"><ele>25.0</ele><time>2026-04-11T09:11:29.014Z</time></trkpt><trkpt lat="40.4417" lon="17.2819758"><ele>25.0</ele><time>2026-04-11T09:11:29.993Z</time></trkpt><trkpt lat="40.4419574" lon="17.2820072"><ele>25.0</ele><time>2026-04-11T09:11:31.002Z</time></trkpt><trkpt lat="40.4422246" lon="17.2820428"><ele>25.0</ele><time>2026-04-11T09:11:31.996Z</time></trkpt><trkpt lat="40.4424629" lon="17.2820721"><ele>25.0</ele><time>2026-04-11T09:11:32.996Z</time></trkpt><trkpt lat="40.4427104" lon="17.2821065"><ele>25.0</ele><time>2026-04-11T09:11:34.004Z</time></trkpt><trkpt lat="40.4429505" lon="17.2821435"><ele>25.0</ele><time>2026-04-11T09:11:35.038Z</time></trkpt><trkpt lat="40.4431879" lon="17.2821777"><ele>25.5</ele><time>2026-04-11T09:11:35.996Z</time></trkpt><trkpt lat="40.4434221" lon="17.282215"><ele>26.0</ele><time>2026-04-11T09:11:37.003Z</time></trkpt><trkpt lat="40.4436564" lon="17.282257"><ele>25.5</ele><time>2026-04-11T09:11:37.995Z</time></trkpt><trkpt lat="40.443889" lon="17.2823058"><ele>25.0</ele><time>2026-04-11T09:11:39.031Z</time></trkpt><trkpt lat="40.4441206" lon="17.282362"><ele>25.0</ele><time>2026-04-11T09:11:40.032Z</time></trkpt><trkpt lat="40.4443578" lon="17.2824218"><ele>25.0</ele><time>2026-04-11T09:11:41.027Z</time></trkpt><trkpt lat="40.4445989" lon="17.2824919"><ele>25.0</ele><time>2026-04-11T09:11:42Z</time></trkpt><trkpt lat="40.4448337" lon="17.2825768"><ele>25.0</ele><time>2026-04-11T09:11:43.026Z</time></trkpt><trkpt lat="40.4450957" lon="17.2826697"><ele>25.0</ele><time>2026-04-11T09:11:44.003Z</time></trkpt><trkpt lat="40.4453458" lon="17.2827538"><ele>25.0</ele><time>2026-04-11T09:11:45.001Z</time></trkpt><trkpt lat="40.4456083" lon="17.2828517"><ele>25.0</ele><time>2026-04-11T09:11:46.03Z</time></trkpt><trkpt lat="40.4458725" lon="17.2829499"><ele>25.0</ele><time>2026-04-11T09:11:47.001Z</time></trkpt><trkpt lat="40.4461301" lon="17.2830549"><ele>24.5</ele><time>2026-04-11T09:11:47.998Z</time></trkpt><trkpt lat="40.4463843" lon="17.2831759"><ele>24.0</ele><time>2026-04-11T09:11:48.997Z</time></trkpt><trkpt lat="40.4466443" lon="17.2832757"><ele>24.0</ele><time>2026-04-11T09:11:50.031Z</time></trkpt><trkpt lat="40.4469021" lon="17.2833876"><ele>24.0</ele><time>2026-04-11T09:11:50.991Z</time></trkpt><trkpt lat="40.4471596" lon="17.2834955"><ele>23.0</ele><time>2026-04-11T09:11:51.996Z</time></trkpt><trkpt lat="40.4474213" lon="17.2836207"><ele>22.0</ele><time>2026-04-11T09:11:53.004Z</time></trkpt><trkpt lat="40.4476704" lon="17.2837352"><ele>22.0</ele><time>2026-04-11T09:11:54.032Z</time></trkpt><trkpt lat="40.4479233" lon="17.2838508"><ele>22.0</ele><time>2026-04-11T09:11:55.032Z</time></trkpt><trkpt lat="40.448171" lon="17.283962"><ele>22.0</ele><time>2026-04-11T09:11:55.993Z</time></trkpt><trkpt lat="40.4484073" lon="17.2840651"><ele>22.0</ele><time>2026-04-11T09:11:56.998Z</time></trkpt><trkpt lat="40.4486509" lon="17.2841637"><ele>22.5</ele><time>2026-04-11T09:11:58.036Z</time></trkpt><trkpt lat="40.4488817" lon="17.2842658"><ele>23.0</ele><time>2026-04-11T09:11:59.005Z</time></trkpt><trkpt lat="40.4491051" lon="17.2843538"><ele>23.0</ele><time>2026-04-11T09:12:00.037Z</time></trkpt><trkpt lat="40.4493226" lon="17.2844423"><ele>23.0</ele><time>2026-04-11T09:12:01.003Z</time></trkpt><trkpt lat="40.4495362" lon="17.284537"><ele>22.5</ele><time>2026-04-11T09:12:02.029Z</time></trkpt><trkpt lat="40.4497547" lon="17.284628"><ele>22.0</ele><time>2026-04-11T09:12:02.996Z</time></trkpt><trkpt lat="40.4499766" lon="17.2847023"><ele>22.0</ele><time>2026-04-11T09:12:04.007Z</time></trkpt><trkpt lat="40.4502036" lon="17.2847578"><ele>22.0</ele><time>2026-04-11T09:12:05.008Z</time></trkpt><trkpt lat="40.450431" lon="17.2848038"><ele>21.5</ele><time>2026-04-11T09:12:06.007Z</time></trkpt><trkpt lat="40.4506714" lon="17.2848351"><ele>21.0</ele><time>2026-04-11T09:12:07.006Z</time></trkpt><trkpt lat="40.450898" lon="17.2848619"><ele>21.0</ele><time>2026-04-11T09:12:08.036Z</time></trkpt><trkpt lat="40.4511391" lon="17.2848669"><ele>21.0</ele><time>2026-04-11T09:12:09.029Z</time></trkpt><trkpt lat="40.4513824" lon="17.2848542"><ele>20.5</ele><time>2026-04-11T09:12:10.001Z</time></trkpt><trkpt lat="40.451643" lon="17.284846"><ele>20.0</ele><time>2026-04-11T09:12:11.032Z</time></trkpt><trkpt lat="40.4518899" lon="17.2848219"><ele>20.0</ele><time>2026-04-11T09:12:11.991Z</time></trkpt><trkpt lat="40.452121" lon="17.2848098"><ele>20.0</ele><time>2026-04-11T09:12:13.005Z</time></trkpt><trkpt lat="40.4523634" lon="17.2847871"><ele>20.0</ele><time>2026-04-11T09:12:14.03Z</time></trkpt><trkpt lat="40.4526225" lon="17.2847592"><ele>20.0</ele><time>2026-04-11T09:12:15.03Z</time></trkpt><trkpt lat="40.452873" lon="17.2847406"><ele>20.0</ele><time>2026-04-11T09:12:16.027Z</time></trkpt><trkpt lat="40.4531262" lon="17.2847143"><ele>20.0</ele><time>2026-04-11T09:12:16.988Z</time></trkpt><trkpt lat="40.4533849" lon="17.2846849"><ele>20.0</ele><time>2026-04-11T09:12:17.99Z</time></trkpt><trkpt lat="40.4536421" lon="17.2846644"><ele>20.0</ele><time>2026-04-11T09:12:19.003Z</time></trkpt><trkpt lat="40.4538961" lon="17.2846355"><ele>19.0</ele><time>2026-04-11T09:12:20.005Z</time></trkpt><trkpt lat="40.4541524" lon="17.2846111"><ele>18.0</ele><time>2026-04-11T09:12:20.992Z</time></trkpt><trkpt lat="40.4544248" lon="17.2845772"><ele>17.0</ele><time>2026-04-11T09:12:22.029Z</time></trkpt><trkpt lat="40.4546912" lon="17.2845489"><ele>16.0</ele><time>2026-04-11T09:12:22.996Z</time></trkpt><trkpt lat="40.4549595" lon="17.2845223"><ele>16.0</ele><time>2026-04-11T09:12:24.028Z</time></trkpt><trkpt lat="40.4552307" lon="17.2844929"><ele>16.0</ele><time>2026-04-11T09:12:25.003Z</time></trkpt><trkpt lat="40.4554984" lon="17.2844629"><ele>17.0</ele><time>2026-04-11T09:12:26.005Z</time></trkpt><trkpt lat="40.4557635" lon="17.2844318"><ele>18.0</ele><time>2026-04-11T09:12:27.006Z</time></trkpt><trkpt lat="40.4560381" lon="17.2844249"><ele>18.0</ele><time>2026-04-11T09:12:28.005Z</time></trkpt><trkpt lat="40.4563014" lon="17.2844149"><ele>18.0</ele><time>2026-04-11T09:12:28.99Z</time></trkpt><trkpt lat="40.4565679" lon="17.2844312"><ele>18.0</ele><time>2026-04-11T09:12:30Z</time></trkpt><trkpt lat="40.4568138" lon="17.2844524"><ele>18.0</ele><time>2026-04-11T09:12:31.049Z</time></trkpt><trkpt lat="40.4570431" lon="17.2845125"><ele>18.0</ele><time>2026-04-11T09:12:32.043Z</time></trkpt><trkpt lat="40.4572763" lon="17.2845742"><ele>18.0</ele><time>2026-04-11T09:12:32.99Z</time></trkpt><trkpt lat="40.4575092" lon="17.2846755"><ele>17.5</ele><time>2026-04-11T09:12:34.032Z</time></trkpt><trkpt lat="40.457736" lon="17.2847709"><ele>17.0</ele><time>2026-04-11T09:12:35.023Z</time></trkpt><trkpt lat="40.4579459" lon="17.2849096"><ele>17.5</ele><time>2026-04-11T09:12:36.003Z</time></trkpt><trkpt lat="40.4581587" lon="17.2850611"><ele>18.0</ele><time>2026-04-11T09:12:37.038Z</time></trkpt><trkpt lat="40.458356" lon="17.285228"><ele>18.0</ele><time>2026-04-11T09:12:38.031Z</time></trkpt><trkpt lat="40.4585532" lon="17.2854182"><ele>18.0</ele><time>2026-04-11T09:12:38.995Z</time></trkpt><trkpt lat="40.4587412" lon="17.2856161"><ele>18.0</ele><time>2026-04-11T09:12:40.029Z</time></trkpt><trkpt lat="40.4589353" lon="17.2858261"><ele>18.0</ele><time>2026-04-11T09:12:40.989Z</time></trkpt><trkpt lat="40.4591268" lon="17.2860535"><ele>18.0</ele><time>2026-04-11T09:12:41.999Z</time></trkpt><trkpt lat="40.4593191" lon="17.2862781"><ele>18.0</ele><time>2026-04-11T09:12:42.997Z</time></trkpt><trkpt lat="40.4595108" lon="17.2865071"><ele>18.0</ele><time>2026-04-11T09:12:44.027Z</time></trkpt><trkpt lat="40.4597053" lon="17.2867381"><ele>18.0</ele><time>2026-04-11T09:12:44.993Z</time></trkpt><trkpt lat="40.4599068" lon="17.2870104"><ele>18.5</ele><time>2026-04-11T09:12:46.002Z</time></trkpt><trkpt lat="40.4600925" lon="17.2872618"><ele>19.0</ele><time>2026-04-11T09:12:46.995Z</time></trkpt><trkpt lat="40.4603035" lon="17.2875075"><ele>18.5</ele><time>2026-04-11T09:12:48Z</time></trkpt><trkpt lat="40.4605046" lon="17.2877679"><ele>18.0</ele><time>2026-04-11T09:12:49.002Z</time></trkpt><trkpt lat="40.4607087" lon="17.288009"><ele>18.5</ele><time>2026-04-11T09:12:50.005Z</time></trkpt><trkpt lat="40.4609077" lon="17.2882575"><ele>19.0</ele><time>2026-04-11T09:12:50.992Z</time></trkpt><trkpt lat="40.4610835" lon="17.2884914"><ele>19.0</ele><time>2026-04-11T09:12:51.997Z</time></trkpt><trkpt lat="40.4612705" lon="17.2887278"><ele>19.0</ele><time>2026-04-11T09:12:52.993Z</time></trkpt><trkpt lat="40.4619833" lon="17.2894212"><ele>18.666666666666664</ele><time>2026-04-11T09:12:56.995Z</time></trkpt><trkpt lat="40.4621702" lon="17.2895283"><ele>18.333333333333332</ele><time>2026-04-11T09:12:57.999Z</time></trkpt><trkpt lat="40.4623382" lon="17.2895872"><ele>18.0</ele><time>2026-04-11T09:12:58.998Z</time></trkpt><trkpt lat="40.4625213" lon="17.2896804"><ele>18.0</ele><time>2026-04-11T09:13:00Z</time></trkpt><trkpt lat="40.4627107" lon="17.2897136"><ele>18.0</ele><time>2026-04-11T09:13:01.026Z</time></trkpt><trkpt lat="40.4629153" lon="17.2897439"><ele>18.0</ele><time>2026-04-11T09:13:02.041Z</time></trkpt><trkpt lat="40.4631113" lon="17.2897441"><ele>17.666666666666668</ele><time>2026-04-11T09:13:03.008Z</time></trkpt><trkpt lat="40.4633172" lon="17.289733"><ele>17.333333333333336</ele><time>2026-04-11T09:13:04.001Z</time></trkpt><trkpt lat="40.4635202" lon="17.2897205"><ele>17.0</ele><time>2026-04-11T09:13:05.001Z</time></trkpt><trkpt lat="40.4637343" lon="17.2896865"><ele>17.333333333333336</ele><time>2026-04-11T09:13:06.007Z</time></trkpt><trkpt lat="40.4639384" lon="17.289618"><ele>17.666666666666668</ele><time>2026-04-11T09:13:07.009Z</time></trkpt><trkpt lat="40.4641485" lon="17.2895372"><ele>18.0</ele><time>2026-04-11T09:13:08.003Z</time></trkpt><trkpt lat="40.4643537" lon="17.2894372"><ele>18.0</ele><time>2026-04-11T09:13:09.001Z</time></trkpt><trkpt lat="40.4645572" lon="17.2893245"><ele>18.0</ele><time>2026-04-11T09:13:10Z</time></trkpt><trkpt lat="40.4647371" lon="17.289193"><ele>18.0</ele><time>2026-04-11T09:13:11Z</time></trkpt><trkpt lat="40.4649252" lon="17.2890411"><ele>18.0</ele><time>2026-04-11T09:13:12.005Z</time></trkpt><trkpt lat="40.4651041" lon="17.2888805"><ele>18.0</ele><time>2026-04-11T09:13:13.002Z</time></trkpt><trkpt lat="40.4652673" lon="17.2887022"><ele>18.0</ele><time>2026-04-11T09:13:14.005Z</time></trkpt><trkpt lat="40.4654419" lon="17.2885317"><ele>17.0</ele><time>2026-04-11T09:13:15Z</time></trkpt><trkpt lat="40.4655713" lon="17.2883424"><ele>16.0</ele><time>2026-04-11T09:13:16.002Z</time></trkpt><trkpt lat="40.4657065" lon="17.2881586"><ele>15.0</ele><time>2026-04-11T09:13:17.001Z</time></trkpt><trkpt lat="40.4658164" lon="17.2879113"><ele>13.5</ele><time>2026-04-11T09:13:18.001Z</time></trkpt><trkpt lat="40.4659151" lon="17.2876959"><ele>12.0</ele><time>2026-04-11T09:13:18.999Z</time></trkpt><trkpt lat="40.4659472" lon="17.2873524"><ele>12.0</ele><time>2026-04-11T09:13:19.994Z</time></trkpt><trkpt lat="40.4659964" lon="17.2870803"><ele>12.0</ele><time>2026-04-11T09:13:20.995Z</time></trkpt><trkpt lat="40.4660457" lon="17.2868201"><ele>12.0</ele><time>2026-04-11T09:13:21.995Z</time></trkpt><trkpt lat="40.4660693" lon="17.286535"><ele>13.333333333333332</ele><time>2026-04-11T09:13:22.996Z</time></trkpt><trkpt lat="40.4661118" lon="17.2862636"><ele>14.666666666666666</ele><time>2026-04-11T09:13:24.002Z</time></trkpt><trkpt lat="40.4661516" lon="17.2860085"><ele>16.0</ele><time>2026-04-11T09:13:25.007Z</time></trkpt><trkpt lat="40.4661931" lon="17.2857318"><ele>16.333333333333332</ele><time>2026-04-11T09:13:26.003Z</time></trkpt><trkpt lat="40.4662309" lon="17.2854675"><ele>16.666666666666668</ele><time>2026-04-11T09:13:26.997Z</time></trkpt><trkpt lat="40.4662718" lon="17.2851992"><ele>17.0</ele><time>2026-04-11T09:13:27.999Z</time></trkpt><trkpt lat="40.4663117" lon="17.2849333"><ele>17.0</ele><time>2026-04-11T09:13:29.002Z</time></trkpt><trkpt lat="40.4663559" lon="17.2846648"><ele>17.0</ele><time>2026-04-11T09:13:30.001Z</time></trkpt><trkpt lat="40.4664053" lon="17.2843932"><ele>17.0</ele><time>2026-04-11T09:13:31Z</time></trkpt><trkpt lat="40.4664529" lon="17.2841296"><ele>17.0</ele><time>2026-04-11T09:13:32.003Z</time></trkpt><trkpt lat="40.4664984" lon="17.2838567"><ele>17.0</ele><time>2026-04-11T09:13:33Z</time></trkpt><trkpt lat="40.4665341" lon="17.2835836"><ele>17.0</ele><time>2026-04-11T09:13:34.004Z</time></trkpt><trkpt lat="40.4665762" lon="17.2833072"><ele>17.333333333333336</ele><time>2026-04-11T09:13:34.999Z</time></trkpt><trkpt lat="40.4666214" lon="17.2830212"><ele>17.666666666666668</ele><time>2026-04-11T09:13:35.999Z</time></trkpt><trkpt lat="40.4666682" lon="17.2827309"><ele>18.0</ele><time>2026-04-11T09:13:37.001Z</time></trkpt><trkpt lat="40.4667078" lon="17.2824382"><ele>17.5</ele><time>2026-04-11T09:13:38.003Z</time></trkpt><trkpt lat="40.4667529" lon="17.282138"><ele>17.0</ele><time>2026-04-11T09:13:39.006Z</time></trkpt><trkpt lat="40.4667984" lon="17.28184"><ele>17.0</ele><time>2026-04-11T09:13:40.006Z</time></trkpt><trkpt lat="40.4668415" lon="17.2815393"><ele>17.0</ele><time>2026-04-11T09:13:41.008Z</time></trkpt><trkpt lat="40.4668867" lon="17.2812404"><ele>17.5</ele><time>2026-04-11T09:13:41.988Z</time></trkpt><trkpt lat="40.4669395" lon="17.2809506"><ele>18.0</ele><time>2026-04-11T09:13:42.996Z</time></trkpt><trkpt lat="40.4669815" lon="17.2806608"><ele>18.5</ele><time>2026-04-11T09:13:43.996Z</time></trkpt><trkpt lat="40.4670294" lon="17.2803654"><ele>19.0</ele><time>2026-04-11T09:13:45.001Z</time></trkpt><trkpt lat="40.4671003" lon="17.2800675"><ele>19.0</ele><time>2026-04-11T09:13:46.006Z</time></trkpt><trkpt lat="40.4671667" lon="17.279768"><ele>19.0</ele><time>2026-04-11T09:13:47.009Z</time></trkpt><trkpt lat="40.467241" lon="17.2794779"><ele>19.0</ele><time>2026-04-11T09:13:48.009Z</time></trkpt><trkpt lat="40.4673263" lon="17.2791911"><ele>19.0</ele><time>2026-04-11T09:13:49.008Z</time></trkpt><trkpt lat="40.4674157" lon="17.278914"><ele>19.0</ele><time>2026-04-11T09:13:50.005Z</time></trkpt><trkpt lat="40.4675045" lon="17.2786311"><ele>19.0</ele><time>2026-04-11T09:13:50.992Z</time></trkpt><trkpt lat="40.4676177" lon="17.2783834"><ele>19.0</ele><time>2026-04-11T09:13:52.005Z</time></trkpt><trkpt lat="40.4677288" lon="17.2781188"><ele>19.0</ele><time>2026-04-11T09:13:53.043Z</time></trkpt><trkpt lat="40.4678651" lon="17.2778771"><ele>19.5</ele><time>2026-04-11T09:13:54.008Z</time></trkpt><trkpt lat="40.4679924" lon="17.2776201"><ele>20.0</ele><time>2026-04-11T09:13:54.993Z</time></trkpt><trkpt lat="40.4681318" lon="17.2773719"><ele>19.5</ele><time>2026-04-11T09:13:56Z</time></trkpt><trkpt lat="40.4682878" lon="17.2771307"><ele>19.0</ele><time>2026-04-11T09:13:57.004Z</time></trkpt><trkpt lat="40.4684457" lon="17.2769085"><ele>19.0</ele><time>2026-04-11T09:13:58.033Z</time></trkpt><trkpt lat="40.4686087" lon="17.2766702"><ele>19.0</ele><time>2026-04-11T09:13:59.031Z</time></trkpt><trkpt lat="40.4687757" lon="17.2764453"><ele>20.0</ele><time>2026-04-11T09:13:59.987Z</time></trkpt><trkpt lat="40.4689593" lon="17.2762297"><ele>21.0</ele><time>2026-04-11T09:14:00.99Z</time></trkpt><trkpt lat="40.46914" lon="17.276016"><ele>21.0</ele><time>2026-04-11T09:14:01.992Z</time></trkpt><trkpt lat="40.4693298" lon="17.2758055"><ele>21.0</ele><time>2026-04-11T09:14:03.001Z</time></trkpt><trkpt lat="40.46952" lon="17.2756034"><ele>20.5</ele><time>2026-04-11T09:14:04.031Z</time></trkpt><trkpt lat="40.4696962" lon="17.2753917"><ele>20.0</ele><time>2026-04-11T09:14:05.033Z</time></trkpt><trkpt lat="40.4698793" lon="17.2751942"><ele>20.0</ele><time>2026-04-11T09:14:06.026Z</time></trkpt><trkpt lat="40.4700606" lon="17.2749885"><ele>20.0</ele><time>2026-04-11T09:14:07.002Z</time></trkpt><trkpt lat="40.4702275" lon="17.2747889"><ele>20.0</ele><time>2026-04-11T09:14:08.026Z</time></trkpt><trkpt lat="40.4704017" lon="17.2745872"><ele>20.0</ele><time>2026-04-11T09:14:08.992Z</time></trkpt><trkpt lat="40.4705608" lon="17.2743907"><ele>19.5</ele><time>2026-04-11T09:14:10.001Z</time></trkpt><trkpt lat="40.470728" lon="17.2741892"><ele>19.0</ele><time>2026-04-11T09:14:11.034Z</time></trkpt><trkpt lat="40.4709053" lon="17.2739957"><ele>19.5</ele><time>2026-04-11T09:14:12.004Z</time></trkpt><trkpt lat="40.4710752" lon="17.2737936"><ele>20.0</ele><time>2026-04-11T09:14:13.004Z</time></trkpt><trkpt lat="40.4712418" lon="17.2735919"><ele>18.0</ele><time>2026-04-11T09:14:14.008Z</time></trkpt><trkpt lat="40.4714093" lon="17.2733917"><ele>16.0</ele><time>2026-04-11T09:14:15.002Z</time></trkpt><trkpt lat="40.4715791" lon="17.273198"><ele>18.5</ele><time>2026-04-11T09:14:16.036Z</time></trkpt><trkpt lat="40.4717509" lon="17.2730041"><ele>21.0</ele><time>2026-04-11T09:14:17.004Z</time></trkpt><trkpt lat="40.4719227" lon="17.2728036"><ele>21.0</ele><time>2026-04-11T09:14:17.993Z</time></trkpt><trkpt lat="40.4721017" lon="17.2726015"><ele>21.0</ele><time>2026-04-11T09:14:19Z</time></trkpt><trkpt lat="40.4722668" lon="17.2724034"><ele>16.0</ele><time>2026-04-11T09:14:20.034Z</time></trkpt><trkpt lat="40.4724459" lon="17.2721931"><ele>11.0</ele><time>2026-04-11T09:14:21.07Z</time></trkpt><trkpt lat="40.4726239" lon="17.271984"><ele>11.0</ele><time>2026-04-11T09:14:22.008Z</time></trkpt><trkpt lat="40.4728115" lon="17.2717726"><ele>11.0</ele><time>2026-04-11T09:14:23.092Z</time></trkpt><trkpt lat="40.4729922" lon="17.2715801"><ele>14.5</ele><time>2026-04-11T09:14:24.031Z</time></trkpt><trkpt lat="40.4731711" lon="17.2713825"><ele>18.0</ele><time>2026-04-11T09:14:24.998Z</time></trkpt><trkpt lat="40.4733557" lon="17.2711913"><ele>18.0</ele><time>2026-04-11T09:14:25.986Z</time></trkpt><trkpt lat="40.4735493" lon="17.2710133"><ele>18.0</ele><time>2026-04-11T09:14:27.001Z</time></trkpt><trkpt lat="40.4737553" lon="17.2708378"><ele>13.5</ele><time>2026-04-11T09:14:27.999Z</time></trkpt><trkpt lat="40.4739695" lon="17.2706732"><ele>9.0</ele><time>2026-04-11T09:14:28.996Z</time></trkpt><trkpt lat="40.474183" lon="17.2705171"><ele>8.0</ele><time>2026-04-11T09:14:29.993Z</time></trkpt><trkpt lat="40.4744095" lon="17.2704002"><ele>7.0</ele><time>2026-04-11T09:14:30.994Z</time></trkpt><trkpt lat="40.4746358" lon="17.2703106"><ele>3.5</ele><time>2026-04-11T09:14:32.002Z</time></trkpt><trkpt lat="40.4748545" lon="17.2702116"><ele>0.0</ele><time>2026-04-11T09:14:33.036Z</time></trkpt><trkpt lat="40.475072" lon="17.2701192"><ele>0.0</ele><time>2026-04-11T09:14:33.99Z</time></trkpt><trkpt lat="40.4752989" lon="17.2700623"><ele>0.0</ele><time>2026-04-11T09:14:35.009Z</time></trkpt><trkpt lat="40.4755254" lon="17.2700051"><ele>0.0</ele><time>2026-04-11T09:14:36.011Z</time></trkpt><trkpt lat="40.4757559" lon="17.2699571"><ele>0.0</ele><time>2026-04-11T09:14:37.004Z</time></trkpt><trkpt lat="40.4759814" lon="17.2699511"><ele>0.0</ele><time>2026-04-11T09:14:38.001Z</time></trkpt><trkpt lat="40.4762088" lon="17.2699313"><ele>0.0</ele><time>2026-04-11T09:14:39.002Z</time></trkpt><trkpt lat="40.4764378" lon="17.26992"><ele>0.0</ele><time>2026-04-11T09:14:40.004Z</time></trkpt><trkpt lat="40.4766784" lon="17.2699222"><ele>0.0</ele><time>2026-04-11T09:14:41.011Z</time></trkpt><trkpt lat="40.4769056" lon="17.2699199"><ele>0.0</ele><time>2026-04-11T09:14:42.007Z</time></trkpt><trkpt lat="40.477132" lon="17.2699182"><ele>0.0</ele><time>2026-04-11T09:14:43.012Z</time></trkpt><trkpt lat="40.4773607" lon="17.2699129"><ele>0.0</ele><time>2026-04-11T09:14:44.014Z</time></trkpt><trkpt lat="40.4775893" lon="17.2699182"><ele>0.0</ele><time>2026-04-11T09:14:45.001Z</time></trkpt><trkpt lat="40.4778176" lon="17.2699091"><ele>0.0</ele><time>2026-04-11T09:14:46.032Z</time></trkpt><trkpt lat="40.4780492" lon="17.2699109"><ele>0.0</ele><time>2026-04-11T09:14:46.992Z</time></trkpt><trkpt lat="40.4782836" lon="17.2699146"><ele>0.0</ele><time>2026-04-11T09:14:47.995Z</time></trkpt><trkpt lat="40.478519" lon="17.2699195"><ele>0.0</ele><time>2026-04-11T09:14:49.03Z</time></trkpt><trkpt lat="40.4787577" lon="17.2699226"><ele>2.0</ele><time>2026-04-11T09:14:49.994Z</time></trkpt><trkpt lat="40.4790008" lon="17.2699252"><ele>4.0</ele><time>2026-04-11T09:14:50.99Z</time></trkpt><trkpt lat="40.4792461" lon="17.2699236"><ele>4.0</ele><time>2026-04-11T09:14:51.996Z</time></trkpt><trkpt lat="40.4794934" lon="17.2699349"><ele>4.0</ele><time>2026-04-11T09:14:53Z</time></trkpt><trkpt lat="40.4797425" lon="17.2699363"><ele>7.5</ele><time>2026-04-11T09:14:53.996Z</time></trkpt><trkpt lat="40.4799941" lon="17.2699234"><ele>11.0</ele><time>2026-04-11T09:14:55.004Z</time></trkpt><trkpt lat="40.4802449" lon="17.2699118"><ele>11.0</ele><time>2026-04-11T09:14:56.01Z</time></trkpt><trkpt lat="40.4805043" lon="17.269893"><ele>11.0</ele><time>2026-04-11T09:14:56.999Z</time></trkpt><trkpt lat="40.4807601" lon="17.2698711"><ele>11.0</ele><time>2026-04-11T09:14:57.994Z</time></trkpt><trkpt lat="40.4810023" lon="17.2698165"><ele>11.0</ele><time>2026-04-11T09:14:58.999Z</time></trkpt><trkpt lat="40.4812568" lon="17.269761"><ele>12.0</ele><time>2026-04-11T09:15:00.003Z</time></trkpt><trkpt lat="40.4815043" lon="17.2696754"><ele>13.0</ele><time>2026-04-11T09:15:01.004Z</time></trkpt><trkpt lat="40.4817482" lon="17.26958"><ele>13.0</ele><time>2026-04-11T09:15:02.005Z</time></trkpt><trkpt lat="40.4819992" lon="17.2694802"><ele>13.0</ele><time>2026-04-11T09:15:03.01Z</time></trkpt><trkpt lat="40.4822359" lon="17.2693716"><ele>15.0</ele><time>2026-04-11T09:15:04.001Z</time></trkpt><trkpt lat="40.4824801" lon="17.2692563"><ele>17.0</ele><time>2026-04-11T09:15:04.99Z</time></trkpt><trkpt lat="40.4827035" lon="17.2691416"><ele>17.0</ele><time>2026-04-11T09:15:05.999Z</time></trkpt><trkpt lat="40.4829251" lon="17.2690325"><ele>17.0</ele><time>2026-04-11T09:15:07.002Z</time></trkpt><trkpt lat="40.4831448" lon="17.2689214"><ele>14.0</ele><time>2026-04-11T09:15:07.999Z</time></trkpt><trkpt lat="40.4833651" lon="17.2688134"><ele>11.0</ele><time>2026-04-11T09:15:09.005Z</time></trkpt><trkpt lat="40.4835837" lon="17.2687083"><ele>11.0</ele><time>2026-04-11T09:15:09.993Z</time></trkpt><trkpt lat="40.483813" lon="17.2686147"><ele>11.0</ele><time>2026-04-11T09:15:10.998Z</time></trkpt><trkpt lat="40.4840429" lon="17.2685304"><ele>11.0</ele><time>2026-04-11T09:15:12.009Z</time></trkpt><trkpt lat="40.4842734" lon="17.2684501"><ele>11.0</ele><time>2026-04-11T09:15:13.006Z</time></trkpt><trkpt lat="40.4845079" lon="17.2683859"><ele>11.0</ele><time>2026-04-11T09:15:14.003Z</time></trkpt><trkpt lat="40.4847433" lon="17.2683331"><ele>11.0</ele><time>2026-04-11T09:15:15.003Z</time></trkpt><trkpt lat="40.4849662" lon="17.2682846"><ele>11.0</ele><time>2026-04-11T09:15:16.006Z</time></trkpt><trkpt lat="40.4851797" lon="17.2682334"><ele>11.0</ele><time>2026-04-11T09:15:17.009Z</time></trkpt><trkpt lat="40.4853842" lon="17.2681929"><ele>11.0</ele><time>2026-04-11T09:15:18.006Z</time></trkpt><trkpt lat="40.4855831" lon="17.2681524"><ele>11.666666666666666</ele><time>2026-04-11T09:15:18.992Z</time></trkpt><trkpt lat="40.4857631" lon="17.2681183"><ele>12.333333333333332</ele><time>2026-04-11T09:15:19.999Z</time></trkpt><trkpt lat="40.4859411" lon="17.2680854"><ele>13.0</ele><time>2026-04-11T09:15:21.006Z</time></trkpt><trkpt lat="40.4861111" lon="17.2680546"><ele>11.0</ele><time>2026-04-11T09:15:22.006Z</time></trkpt><trkpt lat="40.4862794" lon="17.2680241"><ele>9.0</ele><time>2026-04-11T09:15:22.996Z</time></trkpt><trkpt lat="40.4864524" lon="17.2679927"><ele>7.0</ele><time>2026-04-11T09:15:24.002Z</time></trkpt><trkpt lat="40.4866215" lon="17.2679534"><ele>7.0</ele><time>2026-04-11T09:15:25.006Z</time></trkpt><trkpt lat="40.4868069" lon="17.2679165"><ele>7.0</ele><time>2026-04-11T09:15:26.006Z</time></trkpt><trkpt lat="40.4870082" lon="17.2678764"><ele>7.0</ele><time>2026-04-11T09:15:27.003Z</time></trkpt><trkpt lat="40.4872246" lon="17.2678311"><ele>8.0</ele><time>2026-04-11T09:15:28.008Z</time></trkpt><trkpt lat="40.4874513" lon="17.2677852"><ele>9.0</ele><time>2026-04-11T09:15:29.033Z</time></trkpt><trkpt lat="40.4876796" lon="17.267732"><ele>9.0</ele><time>2026-04-11T09:15:29.989Z</time></trkpt><trkpt lat="40.487909" lon="17.2676807"><ele>9.0</ele><time>2026-04-11T09:15:31.036Z</time></trkpt><trkpt lat="40.4881395" lon="17.2676336"><ele>9.666666666666666</ele><time>2026-04-11T09:15:31.992Z</time></trkpt><trkpt lat="40.4883567" lon="17.26759"><ele>10.333333333333332</ele><time>2026-04-11T09:15:32.992Z</time></trkpt><trkpt lat="40.4885745" lon="17.2675575"><ele>11.0</ele><time>2026-04-11T09:15:33.993Z</time></trkpt><trkpt lat="40.4887803" lon="17.2675563"><ele>11.333333333333332</ele><time>2026-04-11T09:15:35.024Z</time></trkpt><trkpt lat="40.4889877" lon="17.2675288"><ele>11.666666666666666</ele><time>2026-04-11T09:15:35.99Z</time></trkpt><trkpt lat="40.4891931" lon="17.2675086"><ele>12.0</ele><time>2026-04-11T09:15:37.03Z</time></trkpt><trkpt lat="40.4894041" lon="17.2675088"><ele>12.333333333333332</ele><time>2026-04-11T09:15:38.032Z</time></trkpt><trkpt lat="40.4896046" lon="17.2674979"><ele>12.666666666666666</ele><time>2026-04-11T09:15:38.995Z</time></trkpt><trkpt lat="40.489803" lon="17.2674932"><ele>13.0</ele><time>2026-04-11T09:15:39.987Z</time></trkpt><trkpt lat="40.4900014" lon="17.2675048"><ele>13.0</ele><time>2026-04-11T09:15:40.992Z</time></trkpt><trkpt lat="40.4901936" lon="17.2675211"><ele>13.0</ele><time>2026-04-11T09:15:42.026Z</time></trkpt><trkpt lat="40.4903851" lon="17.2675365"><ele>13.0</ele><time>2026-04-11T09:15:42.988Z</time></trkpt><trkpt lat="40.4906021" lon="17.2675659"><ele>12.666666666666666</ele><time>2026-04-11T09:15:44.026Z</time></trkpt><trkpt lat="40.4907925" lon="17.2675921"><ele>12.333333333333332</ele><time>2026-04-11T09:15:44.997Z</time></trkpt><trkpt lat="40.4909957" lon="17.2676263"><ele>12.0</ele><time>2026-04-11T09:15:46.002Z</time></trkpt><trkpt lat="40.4912017" lon="17.2676907"><ele>12.0</ele><time>2026-04-11T09:15:46.997Z</time></trkpt><trkpt lat="40.4913903" lon="17.2677307"><ele>12.0</ele><time>2026-04-11T09:15:48.002Z</time></trkpt><trkpt lat="40.4915865" lon="17.2677786"><ele>12.0</ele><time>2026-04-11T09:15:49.028Z</time></trkpt><trkpt lat="40.4917805" lon="17.2678198"><ele>12.0</ele><time>2026-04-11T09:15:50.082Z</time></trkpt><trkpt lat="40.4919788" lon="17.2678662"><ele>12.0</ele><time>2026-04-11T09:15:50.991Z</time></trkpt><trkpt lat="40.4921709" lon="17.2679111"><ele>12.0</ele><time>2026-04-11T09:15:51.99Z</time></trkpt><trkpt lat="40.4923675" lon="17.2679527"><ele>12.333333333333332</ele><time>2026-04-11T09:15:53.005Z</time></trkpt><trkpt lat="40.4925645" lon="17.2679961"><ele>12.666666666666666</ele><time>2026-04-11T09:15:54.001Z</time></trkpt><trkpt lat="40.4927661" lon="17.2680462"><ele>13.0</ele><time>2026-04-11T09:15:55.023Z</time></trkpt><trkpt lat="40.4929683" lon="17.2680913"><ele>12.0</ele><time>2026-04-11T09:15:55.997Z</time></trkpt><trkpt lat="40.4931712" lon="17.2681361"><ele>11.0</ele><time>2026-04-11T09:15:57Z</time></trkpt><trkpt lat="40.4933807" lon="17.2681884"><ele>10.0</ele><time>2026-04-11T09:15:58.029Z</time></trkpt><trkpt lat="40.4936047" lon="17.2682784"><ele>9.666666666666668</ele><time>2026-04-11T09:15:59.005Z</time></trkpt><trkpt lat="40.4937953" lon="17.2683285"><ele>9.333333333333334</ele><time>2026-04-11T09:16:00.005Z</time></trkpt><trkpt lat="40.4939847" lon="17.2683699"><ele>9.0</ele><time>2026-04-11T09:16:01.005Z</time></trkpt><trkpt lat="40.4941694" lon="17.2684119"><ele>9.0</ele><time>2026-04-11T09:16:01.999Z</time></trkpt><trkpt lat="40.4943376" lon="17.2684513"><ele>9.0</ele><time>2026-04-11T09:16:03.034Z</time></trkpt><trkpt lat="40.494494" lon="17.2684928"><ele>9.0</ele><time>2026-04-11T09:16:03.995Z</time></trkpt><trkpt lat="40.4946629" lon="17.2685263"><ele>8.333333333333334</ele><time>2026-04-11T09:16:05.023Z</time></trkpt><trkpt lat="40.4948326" lon="17.2685582"><ele>7.666666666666667</ele><time>2026-04-11T09:16:06.024Z</time></trkpt><trkpt lat="40.495002" lon="17.2686006"><ele>7.0</ele><time>2026-04-11T09:16:06.993Z</time></trkpt><trkpt lat="40.4951767" lon="17.2686415"><ele>7.0</ele><time>2026-04-11T09:16:07.986Z</time></trkpt><trkpt lat="40.4953543" lon="17.2686785"><ele>7.0</ele><time>2026-04-11T09:16:08.998Z</time></trkpt><trkpt lat="40.4955324" lon="17.2687185"><ele>7.0</ele><time>2026-04-11T09:16:09.996Z</time></trkpt><trkpt lat="40.4957149" lon="17.268748"><ele>6.666666666666667</ele><time>2026-04-11T09:16:11.029Z</time></trkpt><trkpt lat="40.4959012" lon="17.2687856"><ele>6.333333333333334</ele><time>2026-04-11T09:16:11.994Z</time></trkpt><trkpt lat="40.4960826" lon="17.2688133"><ele>6.0</ele><time>2026-04-11T09:16:12.989Z</time></trkpt><trkpt lat="40.496272" lon="17.2688358"><ele>6.0</ele><time>2026-04-11T09:16:14.001Z</time></trkpt><trkpt lat="40.4964661" lon="17.2688613"><ele>6.0</ele><time>2026-04-11T09:16:15.011Z</time></trkpt><trkpt lat="40.4966627" lon="17.268878"><ele>6.0</ele><time>2026-04-11T09:16:15.993Z</time></trkpt><trkpt lat="40.496855" lon="17.2688861"><ele>6.0</ele><time>2026-04-11T09:16:16.998Z</time></trkpt><trkpt lat="40.4970462" lon="17.2688835"><ele>6.0</ele><time>2026-04-11T09:16:18.006Z</time></trkpt><trkpt lat="40.4972367" lon="17.2688763"><ele>6.0</ele><time>2026-04-11T09:16:19.036Z</time></trkpt><trkpt lat="40.4974297" lon="17.2688726"><ele>5.666666666666667</ele><time>2026-04-11T09:16:20.001Z</time></trkpt><trkpt lat="40.4976215" lon="17.2688572"><ele>5.333333333333334</ele><time>2026-04-11T09:16:21.026Z</time></trkpt><trkpt lat="40.4978142" lon="17.2688329"><ele>5.0</ele><time>2026-04-11T09:16:22.036Z</time></trkpt><trkpt lat="40.4980065" lon="17.2688118"><ele>4.666666666666667</ele><time>2026-04-11T09:16:22.995Z</time></trkpt><trkpt lat="40.498184" lon="17.2687699"><ele>4.333333333333333</ele><time>2026-04-11T09:16:24.025Z</time></trkpt><trkpt lat="40.498356" lon="17.2687347"><ele>4.0</ele><time>2026-04-11T09:16:25.034Z</time></trkpt><trkpt lat="40.4985264" lon="17.2687016"><ele>4.0</ele><time>2026-04-11T09:16:26.006Z</time></trkpt><trkpt lat="40.498697" lon="17.2686609"><ele>4.0</ele><time>2026-04-11T09:16:27.041Z</time></trkpt><trkpt lat="40.4988633" lon="17.2686158"><ele>4.0</ele><time>2026-04-11T09:16:28.031Z</time></trkpt><trkpt lat="40.4990281" lon="17.2685727"><ele>4.666666666666666</ele><time>2026-04-11T09:16:28.991Z</time></trkpt><trkpt lat="40.4991829" lon="17.2685151"><ele>5.333333333333333</ele><time>2026-04-11T09:16:30.028Z</time></trkpt><trkpt lat="40.4993419" lon="17.2684643"><ele>6.0</ele><time>2026-04-11T09:16:30.992Z</time></trkpt><trkpt lat="40.4994937" lon="17.2683836"><ele>6.333333333333334</ele><time>2026-04-11T09:16:32.002Z</time></trkpt><trkpt lat="40.4996509" lon="17.2683114"><ele>6.666666666666667</ele><time>2026-04-11T09:16:33.006Z</time></trkpt><trkpt lat="40.4998089" lon="17.2682325"><ele>7.0</ele><time>2026-04-11T09:16:34.013Z</time></trkpt><trkpt lat="40.4999691" lon="17.2681698"><ele>5.666666666666667</ele><time>2026-04-11T09:16:35.008Z</time></trkpt><trkpt lat="40.5001232" lon="17.2680995"><ele>4.333333333333334</ele><time>2026-04-11T09:16:35.998Z</time></trkpt><trkpt lat="40.5002802" lon="17.26803"><ele>3.0</ele><time>2026-04-11T09:16:37.003Z</time></trkpt><trkpt lat="40.5004327" lon="17.2679434"><ele>3.0</ele><time>2026-04-11T09:16:38.01Z</time></trkpt><trkpt lat="40.5005872" lon="17.2678609"><ele>3.0</ele><time>2026-04-11T09:16:38.992Z</time></trkpt><trkpt lat="40.5007408" lon="17.2677532"><ele>3.0</ele><time>2026-04-11T09:16:39.997Z</time></trkpt><trkpt lat="40.5009016" lon="17.2676584"><ele>3.0</ele><time>2026-04-11T09:16:40.992Z</time></trkpt><trkpt lat="40.5010885" lon="17.2675388"><ele>3.0</ele><time>2026-04-11T09:16:42.001Z</time></trkpt><trkpt lat="40.5012751" lon="17.267401"><ele>3.0</ele><time>2026-04-11T09:16:43.075Z</time></trkpt><trkpt lat="40.5014618" lon="17.267267"><ele>3.333333333333333</ele><time>2026-04-11T09:16:43.997Z</time></trkpt><trkpt lat="40.5016643" lon="17.2671373"><ele>3.6666666666666665</ele><time>2026-04-11T09:16:45.035Z</time></trkpt><trkpt lat="40.5018623" lon="17.2670088"><ele>4.0</ele><time>2026-04-11T09:16:46.004Z</time></trkpt><trkpt lat="40.5020377" lon="17.2668953"><ele>3.333333333333333</ele><time>2026-04-11T09:16:47.027Z</time></trkpt><trkpt lat="40.5022084" lon="17.266781"><ele>2.6666666666666665</ele><time>2026-04-11T09:16:48.001Z</time></trkpt><trkpt lat="40.5023695" lon="17.2666743"><ele>2.0</ele><time>2026-04-11T09:16:48.993Z</time></trkpt><trkpt lat="40.5025136" lon="17.2665725"><ele>2.0</ele><time>2026-04-11T09:16:49.99Z</time></trkpt><trkpt lat="40.5026566" lon="17.2664776"><ele>2.0</ele><time>2026-04-11T09:16:50.991Z</time></trkpt><trkpt lat="40.5027819" lon="17.2664013"><ele>2.0</ele><time>2026-04-11T09:16:52.027Z</time></trkpt><trkpt lat="40.5029109" lon="17.2663172"><ele>2.0</ele><time>2026-04-11T09:16:52.99Z</time></trkpt><trkpt lat="40.5030229" lon="17.2662411"><ele>3.0</ele><time>2026-04-11T09:16:54.023Z</time></trkpt><trkpt lat="40.5031436" lon="17.2661642"><ele>4.0</ele><time>2026-04-11T09:16:55.003Z</time></trkpt><trkpt lat="40.5032616" lon="17.2660802"><ele>5.0</ele><time>2026-04-11T09:16:56.031Z</time></trkpt><trkpt lat="40.5033873" lon="17.2659987"><ele>6.0</ele><time>2026-04-11T09:16:56.994Z</time></trkpt><trkpt lat="40.5035312" lon="17.2658941"><ele>6.0</ele><time>2026-04-11T09:16:58.024Z</time></trkpt><trkpt lat="40.5036695" lon="17.265799"><ele>6.0</ele><time>2026-04-11T09:16:58.99Z</time></trkpt><trkpt lat="40.5038398" lon="17.2656812"><ele>6.0</ele><time>2026-04-11T09:17:00.024Z</time></trkpt><trkpt lat="40.5040058" lon="17.2655699"><ele>5.666666666666667</ele><time>2026-04-11T09:17:00.99Z</time></trkpt><trkpt lat="40.5042117" lon="17.2654425"><ele>5.333333333333334</ele><time>2026-04-11T09:17:02.028Z</time></trkpt><trkpt lat="40.504403" lon="17.2653165"><ele>5.0</ele><time>2026-04-11T09:17:02.996Z</time></trkpt><trkpt lat="40.5046045" lon="17.2651717"><ele>5.666666666666667</ele><time>2026-04-11T09:17:03.999Z</time></trkpt><trkpt lat="40.5048051" lon="17.265038"><ele>6.333333333333334</ele><time>2026-04-11T09:17:04.997Z</time></trkpt><trkpt lat="40.505006" lon="17.2649195"><ele>7.0</ele><time>2026-04-11T09:17:05.99Z</time></trkpt><trkpt lat="40.5052065" lon="17.2647836"><ele>6.666666666666667</ele><time>2026-04-11T09:17:06.999Z</time></trkpt><trkpt lat="40.5053962" lon="17.2646669"><ele>6.333333333333334</ele><time>2026-04-11T09:17:07.991Z</time></trkpt><trkpt lat="40.5055708" lon="17.264569"><ele>6.0</ele><time>2026-04-11T09:17:08.994Z</time></trkpt><trkpt lat="40.5056962" lon="17.2644883"><ele>5.75</ele><time>2026-04-11T09:17:09.994Z</time></trkpt><trkpt lat="40.5058398" lon="17.2644071"><ele>5.5</ele><time>2026-04-11T09:17:10.998Z</time></trkpt><trkpt lat="40.5059293" lon="17.2643522"><ele>5.25</ele><time>2026-04-11T09:17:11.994Z</time></trkpt><trkpt lat="40.5060401" lon="17.26428"><ele>5.0</ele><time>2026-04-11T09:17:12.987Z</time></trkpt><trkpt lat="40.5061368" lon="17.2642431"><ele>5.0</ele><time>2026-04-11T09:17:14.021Z</time></trkpt><trkpt lat="40.5062219" lon="17.2642242"><ele>5.0</ele><time>2026-04-11T09:17:15.001Z</time></trkpt><trkpt lat="40.5063098" lon="17.2642232"><ele>5.0</ele><time>2026-04-11T09:17:16.003Z</time></trkpt><trkpt lat="40.5064" lon="17.2642507"><ele>5.0</ele><time>2026-04-11T09:17:16.999Z</time></trkpt><trkpt lat="40.5064858" lon="17.2642731"><ele>5.0</ele><time>2026-04-11T09:17:17.988Z</time></trkpt><trkpt lat="40.506567" lon="17.2643329"><ele>5.0</ele><time>2026-04-11T09:17:18.988Z</time></trkpt><trkpt lat="40.5066516" lon="17.2643949"><ele>5.0</ele><time>2026-04-11T09:17:19.991Z</time></trkpt><trkpt lat="40.5066878" lon="17.2645012"><ele>5.0</ele><time>2026-04-11T09:17:20.993Z</time></trkpt><trkpt lat="40.5067408" lon="17.2646104"><ele>5.0</ele><time>2026-04-11T09:17:21.992Z</time></trkpt><trkpt lat="40.5067637" lon="17.2647321"><ele>5.0</ele><time>2026-04-11T09:17:22.993Z</time></trkpt><trkpt lat="40.506759" lon="17.2648839"><ele>5.0</ele><time>2026-04-11T09:17:23.999Z</time></trkpt><trkpt lat="40.5067625" lon="17.2650233"><ele>5.2</ele><time>2026-04-11T09:17:25.033Z</time></trkpt><trkpt lat="40.5067577" lon="17.2651569"><ele>5.4</ele><time>2026-04-11T09:17:25.987Z</time></trkpt><trkpt lat="40.5067289" lon="17.2652788"><ele>5.6</ele><time>2026-04-11T09:17:26.992Z</time></trkpt><trkpt lat="40.5066831" lon="17.2654107"><ele>5.8</ele><time>2026-04-11T09:17:27.996Z</time></trkpt><trkpt lat="40.5066115" lon="17.2655353"><ele>6.0</ele><time>2026-04-11T09:17:29.024Z</time></trkpt><trkpt lat="40.5065433" lon="17.2656434"><ele>6.4</ele><time>2026-04-11T09:17:29.998Z</time></trkpt><trkpt lat="40.5064681" lon="17.2657541"><ele>6.8</ele><time>2026-04-11T09:17:30.991Z</time></trkpt><trkpt lat="40.5063715" lon="17.2658197"><ele>7.200000000000001</ele><time>2026-04-11T09:17:31.999Z</time></trkpt><trkpt lat="40.5062784" lon="17.2658737"><ele>7.6000000000000005</ele><time>2026-04-11T09:17:33.007Z</time></trkpt><trkpt lat="40.5061917" lon="17.2658975"><ele>8.0</ele><time>2026-04-11T09:17:34.026Z</time></trkpt><trkpt lat="40.5061046" lon="17.2659126"><ele>8.166666666666666</ele><time>2026-04-11T09:17:34.989Z</time></trkpt><trkpt lat="40.5060137" lon="17.265883"><ele>8.333333333333332</ele><time>2026-04-11T09:17:36Z</time></trkpt><trkpt lat="40.5059354" lon="17.265856"><ele>8.5</ele><time>2026-04-11T09:17:36.996Z</time></trkpt><trkpt lat="40.5058716" lon="17.2657868"><ele>8.666666666666666</ele><time>2026-04-11T09:17:38.002Z</time></trkpt><trkpt lat="40.5058076" lon="17.265704"><ele>8.833333333333334</ele><time>2026-04-11T09:17:39.039Z</time></trkpt><trkpt lat="40.5057562" lon="17.2656166"><ele>9.0</ele><time>2026-04-11T09:17:40.027Z</time></trkpt><trkpt lat="40.5057068" lon="17.2655164"><ele>8.25</ele><time>2026-04-11T09:17:40.988Z</time></trkpt><trkpt lat="40.5056739" lon="17.2653886"><ele>7.5</ele><time>2026-04-11T09:17:42.029Z</time></trkpt><trkpt lat="40.5056282" lon="17.2652492"><ele>6.75</ele><time>2026-04-11T09:17:43.005Z</time></trkpt><trkpt lat="40.5055924" lon="17.2650964"><ele>6.0</ele><time>2026-04-11T09:17:44.011Z</time></trkpt><trkpt lat="40.5055528" lon="17.2649353"><ele>6.0</ele><time>2026-04-11T09:17:45.004Z</time></trkpt><trkpt lat="40.505511" lon="17.2647685"><ele>6.0</ele><time>2026-04-11T09:17:46.005Z</time></trkpt><trkpt lat="40.5054532" lon="17.2645958"><ele>6.0</ele><time>2026-04-11T09:17:47.028Z</time></trkpt><trkpt lat="40.5054022" lon="17.2643988"><ele>6.0</ele><time>2026-04-11T09:17:48.003Z</time></trkpt><trkpt lat="40.5053544" lon="17.2641992"><ele>6.0</ele><time>2026-04-11T09:17:49.002Z</time></trkpt><trkpt lat="40.5053027" lon="17.2639982"><ele>6.0</ele><time>2026-04-11T09:17:49.988Z</time></trkpt><trkpt lat="40.5052544" lon="17.263762"><ele>6.0</ele><time>2026-04-11T09:17:51.023Z</time></trkpt><trkpt lat="40.5052029" lon="17.2635508"><ele>7.333333333333334</ele><time>2026-04-11T09:17:52.029Z</time></trkpt><trkpt lat="40.5051504" lon="17.2633289"><ele>8.666666666666668</ele><time>2026-04-11T09:17:53.002Z</time></trkpt><trkpt lat="40.5050945" lon="17.26311"><ele>10.0</ele><time>2026-04-11T09:17:54.003Z</time></trkpt><trkpt lat="40.5050386" lon="17.2628922"><ele>10.0</ele><time>2026-04-11T09:17:55.007Z</time></trkpt><trkpt lat="40.5049859" lon="17.2626583"><ele>10.0</ele><time>2026-04-11T09:17:56.023Z</time></trkpt><trkpt lat="40.5049269" lon="17.2624263"><ele>10.0</ele><time>2026-04-11T09:17:57.036Z</time></trkpt><trkpt lat="40.504869" lon="17.2621964"><ele>10.666666666666668</ele><time>2026-04-11T09:17:57.988Z</time></trkpt><trkpt lat="40.5048184" lon="17.2619699"><ele>11.333333333333334</ele><time>2026-04-11T09:17:59.029Z</time></trkpt><trkpt lat="40.5047614" lon="17.2617408"><ele>12.0</ele><time>2026-04-11T09:18:00.035Z</time></trkpt><trkpt lat="40.5047051" lon="17.2615123"><ele>12.0</ele><time>2026-04-11T09:18:00.988Z</time></trkpt><trkpt lat="40.5046422" lon="17.2612879"><ele>12.0</ele><time>2026-04-11T09:18:02.026Z</time></trkpt><trkpt lat="40.5045862" lon="17.2610646"><ele>12.0</ele><time>2026-04-11T09:18:03.009Z</time></trkpt><trkpt lat="40.5045349" lon="17.2608443"><ele>11.333333333333334</ele><time>2026-04-11T09:18:04.031Z</time></trkpt><trkpt lat="40.5044795" lon="17.260623"><ele>10.666666666666668</ele><time>2026-04-11T09:18:04.988Z</time></trkpt><trkpt lat="40.5044298" lon="17.2603949"><ele>10.0</ele><time>2026-04-11T09:18:05.995Z</time></trkpt><trkpt lat="40.5043765" lon="17.2601745"><ele>10.0</ele><time>2026-04-11T09:18:06.991Z</time></trkpt><trkpt lat="40.5043191" lon="17.2599529"><ele>10.0</ele><time>2026-04-11T09:18:07.991Z</time></trkpt><trkpt lat="40.5042589" lon="17.259735"><ele>10.0</ele><time>2026-04-11T09:18:09.028Z</time></trkpt><trkpt lat="40.504193" lon="17.2595123"><ele>10.0</ele><time>2026-04-11T09:18:10.032Z</time></trkpt><trkpt lat="40.5041335" lon="17.2592713"><ele>10.0</ele><time>2026-04-11T09:18:11.03Z</time></trkpt><trkpt lat="40.504076" lon="17.2590362"><ele>10.0</ele><time>2026-04-11T09:18:12.028Z</time></trkpt><trkpt lat="40.5040155" lon="17.2587962"><ele>9.0</ele><time>2026-04-11T09:18:12.99Z</time></trkpt><trkpt lat="40.5039575" lon="17.2585556"><ele>8.0</ele><time>2026-04-11T09:18:13.991Z</time></trkpt><trkpt lat="40.5038958" lon="17.2583095"><ele>7.0</ele><time>2026-04-11T09:18:14.99Z</time></trkpt><trkpt lat="40.5038264" lon="17.2580589"><ele>6.0</ele><time>2026-04-11T09:18:15.996Z</time></trkpt><trkpt lat="40.5037607" lon="17.2578072"><ele>5.0</ele><time>2026-04-11T09:18:16.99Z</time></trkpt><trkpt lat="40.5037146" lon="17.2575357"><ele>4.0</ele><time>2026-04-11T09:18:18.007Z</time></trkpt><trkpt lat="40.5036375" lon="17.2572868"><ele>3.333333333333333</ele><time>2026-04-11T09:18:19.004Z</time></trkpt><trkpt lat="40.5035676" lon="17.2570295"><ele>2.6666666666666665</ele><time>2026-04-11T09:18:20.006Z</time></trkpt><trkpt lat="40.5035016" lon="17.2567688"><ele>2.0</ele><time>2026-04-11T09:18:20.991Z</time></trkpt><trkpt lat="40.5034418" lon="17.2564977"><ele>2.6666666666666665</ele><time>2026-04-11T09:18:21.998Z</time></trkpt><trkpt lat="40.5033755" lon="17.2562332"><ele>3.333333333333333</ele><time>2026-04-11T09:18:23.008Z</time></trkpt><trkpt lat="40.5033085" lon="17.255967"><ele>4.0</ele><time>2026-04-11T09:18:24.002Z</time></trkpt><trkpt lat="40.503241" lon="17.2556984"><ele>4.666666666666666</ele><time>2026-04-11T09:18:24.993Z</time></trkpt><trkpt lat="40.5031824" lon="17.2554167"><ele>5.333333333333333</ele><time>2026-04-11T09:18:25.992Z</time></trkpt><trkpt lat="40.5031065" lon="17.2551442"><ele>6.0</ele><time>2026-04-11T09:18:27.004Z</time></trkpt><trkpt lat="40.5030375" lon="17.2548695"><ele>6.0</ele><time>2026-04-11T09:18:27.991Z</time></trkpt><trkpt lat="40.5029533" lon="17.2545705"><ele>6.0</ele><time>2026-04-11T09:18:28.997Z</time></trkpt><trkpt lat="40.5028812" lon="17.2542908"><ele>6.0</ele><time>2026-04-11T09:18:30.005Z</time></trkpt><trkpt lat="40.5028132" lon="17.2540137"><ele>6.0</ele><time>2026-04-11T09:18:31.005Z</time></trkpt><trkpt lat="40.5027478" lon="17.2537374"><ele>6.0</ele><time>2026-04-11T09:18:32.002Z</time></trkpt><trkpt lat="40.502672" lon="17.2534535"><ele>6.0</ele><time>2026-04-11T09:18:33.002Z</time></trkpt><trkpt lat="40.5026015" lon="17.2531686"><ele>6.0</ele><time>2026-04-11T09:18:34.006Z</time></trkpt><trkpt lat="40.5025315" lon="17.2528803"><ele>6.0</ele><time>2026-04-11T09:18:35.001Z</time></trkpt><trkpt lat="40.5024596" lon="17.2525966"><ele>6.0</ele><time>2026-04-11T09:18:35.991Z</time></trkpt><trkpt lat="40.5023878" lon="17.2523098"><ele>5.333333333333333</ele><time>2026-04-11T09:18:37.025Z</time></trkpt><trkpt lat="40.5023123" lon="17.2520314"><ele>4.666666666666666</ele><time>2026-04-11T09:18:38.03Z</time></trkpt><trkpt lat="40.5022425" lon="17.25176"><ele>4.0</ele><time>2026-04-11T09:18:39.004Z</time></trkpt><trkpt lat="40.5021738" lon="17.2514864"><ele>3.333333333333333</ele><time>2026-04-11T09:18:40.007Z</time></trkpt><trkpt lat="40.5021083" lon="17.251215"><ele>2.6666666666666665</ele><time>2026-04-11T09:18:41.006Z</time></trkpt><trkpt lat="40.5020361" lon="17.2509464"><ele>2.0</ele><time>2026-04-11T09:18:41.998Z</time></trkpt><trkpt lat="40.5019843" lon="17.2506853"><ele>2.0</ele><time>2026-04-11T09:18:42.999Z</time></trkpt><trkpt lat="40.5019196" lon="17.2504194"><ele>2.0</ele><time>2026-04-11T09:18:44.005Z</time></trkpt><trkpt lat="40.5018552" lon="17.2501486"><ele>2.0</ele><time>2026-04-11T09:18:45.002Z</time></trkpt><trkpt lat="40.501777" lon="17.2498821"><ele>2.333333333333333</ele><time>2026-04-11T09:18:46.005Z</time></trkpt><trkpt lat="40.5017084" lon="17.2496096"><ele>2.6666666666666665</ele><time>2026-04-11T09:18:47Z</time></trkpt><trkpt lat="40.5016333" lon="17.2493275"><ele>3.0</ele><time>2026-04-11T09:18:48.033Z</time></trkpt><trkpt lat="40.5015578" lon="17.2490454"><ele>3.0</ele><time>2026-04-11T09:18:48.999Z</time></trkpt><trkpt lat="40.5014775" lon="17.2487709"><ele>3.0</ele><time>2026-04-11T09:18:50.008Z</time></trkpt><trkpt lat="40.5014045" lon="17.248484"><ele>3.0</ele><time>2026-04-11T09:18:50.998Z</time></trkpt><trkpt lat="40.5013289" lon="17.2481984"><ele>3.0</ele><time>2026-04-11T09:18:51.995Z</time></trkpt><trkpt lat="40.5012578" lon="17.2479121"><ele>3.0</ele><time>2026-04-11T09:18:52.992Z</time></trkpt><trkpt lat="40.5011974" lon="17.2476245"><ele>3.0</ele><time>2026-04-11T09:18:54.026Z</time></trkpt><trkpt lat="40.5011426" lon="17.2473365"><ele>4.5</ele><time>2026-04-11T09:18:55.001Z</time></trkpt><trkpt lat="40.5010975" lon="17.2470324"><ele>6.0</ele><time>2026-04-11T09:18:56.025Z</time></trkpt><trkpt lat="40.5010502" lon="17.2467385"><ele>8.0</ele><time>2026-04-11T09:18:56.989Z</time></trkpt><trkpt lat="40.5010151" lon="17.2464478"><ele>10.0</ele><time>2026-04-11T09:18:58.033Z</time></trkpt><trkpt lat="40.5009886" lon="17.2461489"><ele>10.0</ele><time>2026-04-11T09:18:59.046Z</time></trkpt><trkpt lat="40.500973" lon="17.2458507"><ele>10.0</ele><time>2026-04-11T09:19:00.044Z</time></trkpt><trkpt lat="40.5009482" lon="17.2455534"><ele>12.0</ele><time>2026-04-11T09:19:00.989Z</time></trkpt><trkpt lat="40.5009308" lon="17.2452513"><ele>14.0</ele><time>2026-04-11T09:19:01.997Z</time></trkpt><trkpt lat="40.5009119" lon="17.2449527"><ele>14.0</ele><time>2026-04-11T09:19:02.99Z</time></trkpt><trkpt lat="40.5008954" lon="17.2446624"><ele>14.0</ele><time>2026-04-11T09:19:03.993Z</time></trkpt><trkpt lat="40.5008862" lon="17.2443749"><ele>14.0</ele><time>2026-04-11T09:19:05.003Z</time></trkpt><trkpt lat="40.5008664" lon="17.2440826"><ele>15.0</ele><time>2026-04-11T09:19:06.012Z</time></trkpt><trkpt lat="40.5008425" lon="17.2437925"><ele>16.0</ele><time>2026-04-11T09:19:07.006Z</time></trkpt><trkpt lat="40.5008182" lon="17.2434891"><ele>16.0</ele><time>2026-04-11T09:19:08.007Z</time></trkpt><trkpt lat="40.5007899" lon="17.2431888"><ele>16.0</ele><time>2026-04-11T09:19:09.005Z</time></trkpt><trkpt lat="40.5007566" lon="17.2428987"><ele>16.5</ele><time>2026-04-11T09:19:10.011Z</time></trkpt><trkpt lat="40.5007273" lon="17.2425909"><ele>17.0</ele><time>2026-04-11T09:19:11.005Z</time></trkpt><trkpt lat="40.5007012" lon="17.2422872"><ele>17.5</ele><time>2026-04-11T09:19:12.004Z</time></trkpt><trkpt lat="40.500663" lon="17.2419879"><ele>18.0</ele><time>2026-04-11T09:19:13.01Z</time></trkpt><trkpt lat="40.5006303" lon="17.2416908"><ele>17.5</ele><time>2026-04-11T09:19:14.003Z</time></trkpt><trkpt lat="40.5005975" lon="17.2413944"><ele>17.0</ele><time>2026-04-11T09:19:15.004Z</time></trkpt><trkpt lat="40.5005665" lon="17.2410922"><ele>17.0</ele><time>2026-04-11T09:19:16.006Z</time></trkpt><trkpt lat="40.5005345" lon="17.2407917"><ele>17.0</ele><time>2026-04-11T09:19:17.003Z</time></trkpt><trkpt lat="40.5005128" lon="17.2404889"><ele>17.0</ele><time>2026-04-11T09:19:18.029Z</time></trkpt><trkpt lat="40.5004817" lon="17.2401892"><ele>17.0</ele><time>2026-04-11T09:19:18.99Z</time></trkpt><trkpt lat="40.5004574" lon="17.2398905"><ele>18.0</ele><time>2026-04-11T09:19:20.028Z</time></trkpt><trkpt lat="40.5004261" lon="17.2395959"><ele>19.0</ele><time>2026-04-11T09:19:21.007Z</time></trkpt><trkpt lat="40.5003984" lon="17.2393009"><ele>19.0</ele><time>2026-04-11T09:19:22.029Z</time></trkpt><trkpt lat="40.5003676" lon="17.2389978"><ele>19.0</ele><time>2026-04-11T09:19:22.988Z</time></trkpt><trkpt lat="40.5003373" lon="17.2386965"><ele>19.5</ele><time>2026-04-11T09:19:23.989Z</time></trkpt><trkpt lat="40.5002985" lon="17.2383898"><ele>20.0</ele><time>2026-04-11T09:19:24.998Z</time></trkpt><trkpt lat="40.5002665" lon="17.2380837"><ele>21.0</ele><time>2026-04-11T09:19:25.993Z</time></trkpt><trkpt lat="40.5002329" lon="17.2377728"><ele>22.0</ele><time>2026-04-11T09:19:26.992Z</time></trkpt><trkpt lat="40.5001967" lon="17.2374666"><ele>21.0</ele><time>2026-04-11T09:19:28.005Z</time></trkpt><trkpt lat="40.5001662" lon="17.2371636"><ele>20.0</ele><time>2026-04-11T09:19:29.009Z</time></trkpt><trkpt lat="40.5001385" lon="17.2368643"><ele>20.0</ele><time>2026-04-11T09:19:30.006Z</time></trkpt><trkpt lat="40.5001171" lon="17.2365524"><ele>20.0</ele><time>2026-04-11T09:19:31Z</time></trkpt><trkpt lat="40.5000905" lon="17.2362534"><ele>19.0</ele><time>2026-04-11T09:19:32Z</time></trkpt><trkpt lat="40.5000605" lon="17.2359612"><ele>18.0</ele><time>2026-04-11T09:19:32.992Z</time></trkpt><trkpt lat="40.5000348" lon="17.2356853"><ele>17.0</ele><time>2026-04-11T09:19:34.002Z</time></trkpt><trkpt lat="40.5000091" lon="17.2353988"><ele>16.666666666666668</ele><time>2026-04-11T09:19:35.011Z</time></trkpt><trkpt lat="40.499978" lon="17.2351221"><ele>16.333333333333332</ele><time>2026-04-11T09:19:36.008Z</time></trkpt><trkpt lat="40.499939" lon="17.2348478"><ele>16.0</ele><time>2026-04-11T09:19:37.009Z</time></trkpt><trkpt lat="40.4999091" lon="17.2345691"><ele>15.666666666666666</ele><time>2026-04-11T09:19:38.002Z</time></trkpt><trkpt lat="40.4998789" lon="17.2342861"><ele>15.333333333333332</ele><time>2026-04-11T09:19:39.001Z</time></trkpt><trkpt lat="40.4998488" lon="17.2340038"><ele>15.0</ele><time>2026-04-11T09:19:39.993Z</time></trkpt><trkpt lat="40.499828" lon="17.2337215"><ele>14.0</ele><time>2026-04-11T09:19:40.994Z</time></trkpt><trkpt lat="40.4997959" lon="17.2334352"><ele>13.0</ele><time>2026-04-11T09:19:41.997Z</time></trkpt><trkpt lat="40.4997642" lon="17.2331423"><ele>12.0</ele><time>2026-04-11T09:19:42.993Z</time></trkpt><trkpt lat="40.4997354" lon="17.2328519"><ele>12.0</ele><time>2026-04-11T09:19:43.996Z</time></trkpt><trkpt lat="40.4997107" lon="17.232578"><ele>12.0</ele><time>2026-04-11T09:19:45Z</time></trkpt><trkpt lat="40.4996814" lon="17.2323185"><ele>12.0</ele><time>2026-04-11T09:19:46.007Z</time></trkpt><trkpt lat="40.4996463" lon="17.2320493"><ele>12.333333333333332</ele><time>2026-04-11T09:19:47.005Z</time></trkpt><trkpt lat="40.4996102" lon="17.231788"><ele>12.666666666666666</ele><time>2026-04-11T09:19:48.036Z</time></trkpt><trkpt lat="40.4995749" lon="17.2315259"><ele>13.0</ele><time>2026-04-11T09:19:48.99Z</time></trkpt><trkpt lat="40.499539" lon="17.2312724"><ele>13.333333333333332</ele><time>2026-04-11T09:19:49.993Z</time></trkpt><trkpt lat="40.4994898" lon="17.2310013"><ele>13.666666666666668</ele><time>2026-04-11T09:19:50.992Z</time></trkpt><trkpt lat="40.499438" lon="17.2307283"><ele>14.0</ele><time>2026-04-11T09:19:51.995Z</time></trkpt><trkpt lat="40.4993822" lon="17.2304529"><ele>14.333333333333334</ele><time>2026-04-11T09:19:53.027Z</time></trkpt><trkpt lat="40.4993153" lon="17.2301866"><ele>14.666666666666668</ele><time>2026-04-11T09:19:53.999Z</time></trkpt><trkpt lat="40.4992484" lon="17.2299193"><ele>15.0</ele><time>2026-04-11T09:19:54.986Z</time></trkpt><trkpt lat="40.4991675" lon="17.2296587"><ele>15.0</ele><time>2026-04-11T09:19:55.986Z</time></trkpt><trkpt lat="40.4990773" lon="17.229389"><ele>15.0</ele><time>2026-04-11T09:19:57.002Z</time></trkpt><trkpt lat="40.4989929" lon="17.2291231"><ele>15.0</ele><time>2026-04-11T09:19:57.989Z</time></trkpt><trkpt lat="40.4989001" lon="17.228864"><ele>15.333333333333332</ele><time>2026-04-11T09:19:58.996Z</time></trkpt><trkpt lat="40.4988048" lon="17.2286054"><ele>15.666666666666666</ele><time>2026-04-11T09:20:00.003Z</time></trkpt><trkpt lat="40.4987036" lon="17.2283443"><ele>16.0</ele><time>2026-04-11T09:20:01.008Z</time></trkpt><trkpt lat="40.4985972" lon="17.2280805"><ele>17.5</ele><time>2026-04-11T09:20:02Z</time></trkpt><trkpt lat="40.4984909" lon="17.2278212"><ele>19.0</ele><time>2026-04-11T09:20:02.99Z</time></trkpt><trkpt lat="40.4983773" lon="17.2275578"><ele>19.0</ele><time>2026-04-11T09:20:04.024Z</time></trkpt><trkpt lat="40.4982661" lon="17.2272861"><ele>19.0</ele><time>2026-04-11T09:20:05.006Z</time></trkpt><trkpt lat="40.4981581" lon="17.2270253"><ele>19.0</ele><time>2026-04-11T09:20:05.989Z</time></trkpt><trkpt lat="40.4980586" lon="17.2267821"><ele>19.0</ele><time>2026-04-11T09:20:06.998Z</time></trkpt><trkpt lat="40.4979575" lon="17.2265309"><ele>19.0</ele><time>2026-04-11T09:20:08.038Z</time></trkpt><trkpt lat="40.4978629" lon="17.2262938"><ele>18.333333333333332</ele><time>2026-04-11T09:20:09.007Z</time></trkpt><trkpt lat="40.497758" lon="17.2260461"><ele>17.666666666666668</ele><time>2026-04-11T09:20:10.005Z</time></trkpt><trkpt lat="40.4976537" lon="17.2258013"><ele>17.0</ele><time>2026-04-11T09:20:11.004Z</time></trkpt><trkpt lat="40.4975562" lon="17.2255557"><ele>17.0</ele><time>2026-04-11T09:20:12.035Z</time></trkpt><trkpt lat="40.4974538" lon="17.2253076"><ele>17.0</ele><time>2026-04-11T09:20:13.004Z</time></trkpt><trkpt lat="40.4973356" lon="17.2250677"><ele>17.0</ele><time>2026-04-11T09:20:14.006Z</time></trkpt><trkpt lat="40.4972308" lon="17.2248158"><ele>16.333333333333336</ele><time>2026-04-11T09:20:14.996Z</time></trkpt><trkpt lat="40.4971249" lon="17.2245559"><ele>15.666666666666668</ele><time>2026-04-11T09:20:15.993Z</time></trkpt><trkpt lat="40.4970159" lon="17.2243054"><ele>15.0</ele><time>2026-04-11T09:20:17.063Z</time></trkpt><trkpt lat="40.4969125" lon="17.2240487"><ele>17.333333333333332</ele><time>2026-04-11T09:20:18.041Z</time></trkpt><trkpt lat="40.496812" lon="17.2237901"><ele>19.666666666666664</ele><time>2026-04-11T09:20:18.997Z</time></trkpt><trkpt lat="40.4967054" lon="17.2235354"><ele>22.0</ele><time>2026-04-11T09:20:19.985Z</time></trkpt><trkpt lat="40.496603" lon="17.2232757"><ele>19.0</ele><time>2026-04-11T09:20:20.99Z</time></trkpt><trkpt lat="40.4964895" lon="17.2230187"><ele>16.0</ele><time>2026-04-11T09:20:21.996Z</time></trkpt><trkpt lat="40.4963778" lon="17.2227598"><ele>16.0</ele><time>2026-04-11T09:20:23.03Z</time></trkpt><trkpt lat="40.4962675" lon="17.2225068"><ele>16.0</ele><time>2026-04-11T09:20:24.029Z</time></trkpt><trkpt lat="40.4961534" lon="17.2222512"><ele>16.0</ele><time>2026-04-11T09:20:24.995Z</time></trkpt><trkpt lat="40.4960394" lon="17.2219894"><ele>16.666666666666664</ele><time>2026-04-11T09:20:26.033Z</time></trkpt><trkpt lat="40.4959195" lon="17.2217441"><ele>17.333333333333332</ele><time>2026-04-11T09:20:27.031Z</time></trkpt><trkpt lat="40.4957986" lon="17.2214994"><ele>18.0</ele><time>2026-04-11T09:20:28.029Z</time></trkpt><trkpt lat="40.4956814" lon="17.2212678"><ele>18.0</ele><time>2026-04-11T09:20:28.994Z</time></trkpt><trkpt lat="40.4955643" lon="17.2210347"><ele>18.0</ele><time>2026-04-11T09:20:29.987Z</time></trkpt><trkpt lat="40.4954496" lon="17.2208017"><ele>18.0</ele><time>2026-04-11T09:20:31.022Z</time></trkpt><trkpt lat="40.4953328" lon="17.2205654"><ele>19.333333333333332</ele><time>2026-04-11T09:20:32.005Z</time></trkpt><trkpt lat="40.4952117" lon="17.2203368"><ele>20.666666666666664</ele><time>2026-04-11T09:20:32.988Z</time></trkpt><trkpt lat="40.4950799" lon="17.2201017"><ele>22.0</ele><time>2026-04-11T09:20:34.003Z</time></trkpt><trkpt lat="40.4949553" lon="17.2198733"><ele>20.0</ele><time>2026-04-11T09:20:34.994Z</time></trkpt><trkpt lat="40.494831" lon="17.2196787"><ele>18.0</ele><time>2026-04-11T09:20:36.004Z</time></trkpt><trkpt lat="40.4947147" lon="17.2194673"><ele>16.0</ele><time>2026-04-11T09:20:37.034Z</time></trkpt><trkpt lat="40.4945964" lon="17.2192575"><ele>17.0</ele><time>2026-04-11T09:20:38.031Z</time></trkpt><trkpt lat="40.4944793" lon="17.2190528"><ele>18.0</ele><time>2026-04-11T09:20:39.035Z</time></trkpt><trkpt lat="40.4943677" lon="17.2188421"><ele>19.0</ele><time>2026-04-11T09:20:40.006Z</time></trkpt><trkpt lat="40.4942613" lon="17.2186307"><ele>19.0</ele><time>2026-04-11T09:20:41.035Z</time></trkpt><trkpt lat="40.4941367" lon="17.2184343"><ele>19.0</ele><time>2026-04-11T09:20:42.007Z</time></trkpt><trkpt lat="40.4940215" lon="17.2182212"><ele>19.0</ele><time>2026-04-11T09:20:43.034Z</time></trkpt><trkpt lat="40.4939088" lon="17.2180029"><ele>19.0</ele><time>2026-04-11T09:20:43.997Z</time></trkpt><trkpt lat="40.4937943" lon="17.2177983"><ele>19.0</ele><time>2026-04-11T09:20:44.995Z</time></trkpt><trkpt lat="40.4936781" lon="17.2175937"><ele>19.0</ele><time>2026-04-11T09:20:46.005Z</time></trkpt><trkpt lat="40.4935659" lon="17.2173896"><ele>17.666666666666664</ele><time>2026-04-11T09:20:46.99Z</time></trkpt><trkpt lat="40.493453" lon="17.2171947"><ele>16.333333333333332</ele><time>2026-04-11T09:20:48Z</time></trkpt><trkpt lat="40.4933421" lon="17.2169914"><ele>15.0</ele><time>2026-04-11T09:20:48.991Z</time></trkpt><trkpt lat="40.4932332" lon="17.2167844"><ele>15.0</ele><time>2026-04-11T09:20:50.009Z</time></trkpt><trkpt lat="40.4931229" lon="17.2165792"><ele>15.0</ele><time>2026-04-11T09:20:51.01Z</time></trkpt><trkpt lat="40.4930061" lon="17.2163854"><ele>15.0</ele><time>2026-04-11T09:20:52.001Z</time></trkpt><trkpt lat="40.492881" lon="17.2161817"><ele>16.333333333333332</ele><time>2026-04-11T09:20:53.01Z</time></trkpt><trkpt lat="40.4927663" lon="17.2159727"><ele>17.666666666666664</ele><time>2026-04-11T09:20:53.99Z</time></trkpt><trkpt lat="40.4926506" lon="17.2157632"><ele>19.0</ele><time>2026-04-11T09:20:54.992Z</time></trkpt><trkpt lat="40.4925325" lon="17.2155439"><ele>19.0</ele><time>2026-04-11T09:20:56.008Z</time></trkpt><trkpt lat="40.492415" lon="17.2153275"><ele>19.0</ele><time>2026-04-11T09:20:57.077Z</time></trkpt><trkpt lat="40.4922954" lon="17.2151063"><ele>19.0</ele><time>2026-04-11T09:20:57.992Z</time></trkpt><trkpt lat="40.4921816" lon="17.2148959"><ele>19.333333333333332</ele><time>2026-04-11T09:20:58.998Z</time></trkpt><trkpt lat="40.4920707" lon="17.2146919"><ele>19.666666666666668</ele><time>2026-04-11T09:20:59.991Z</time></trkpt><trkpt lat="40.4919783" lon="17.2145002"><ele>20.0</ele><time>2026-04-11T09:21:00.991Z</time></trkpt><trkpt lat="40.4918701" lon="17.2142986"><ele>20.0</ele><time>2026-04-11T09:21:02.028Z</time></trkpt><trkpt lat="40.4917871" lon="17.2141096"><ele>20.0</ele><time>2026-04-11T09:21:03.004Z</time></trkpt><trkpt lat="40.4916884" lon="17.2139217"><ele>20.0</ele><time>2026-04-11T09:21:04.001Z</time></trkpt><trkpt lat="40.4916052" lon="17.2137482"><ele>20.0</ele><time>2026-04-11T09:21:05.028Z</time></trkpt><trkpt lat="40.4915281" lon="17.2135849"><ele>20.0</ele><time>2026-04-11T09:21:06.026Z</time></trkpt><trkpt lat="40.4914443" lon="17.2134352"><ele>20.0</ele><time>2026-04-11T09:21:07.002Z</time></trkpt><trkpt lat="40.4913791" lon="17.2132874"><ele>20.0</ele><time>2026-04-11T09:21:08.008Z</time></trkpt><trkpt lat="40.491311" lon="17.2131443"><ele>18.4</ele><time>2026-04-11T09:21:08.991Z</time></trkpt><trkpt lat="40.4912521" lon="17.2130098"><ele>16.8</ele><time>2026-04-11T09:21:09.999Z</time></trkpt><trkpt lat="40.4912024" lon="17.2128848"><ele>15.2</ele><time>2026-04-11T09:21:11.01Z</time></trkpt><trkpt lat="40.4911554" lon="17.2127536"><ele>13.6</ele><time>2026-04-11T09:21:12.026Z</time></trkpt><trkpt lat="40.4911216" lon="17.2126221"><ele>12.0</ele><time>2026-04-11T09:21:13.022Z</time></trkpt><trkpt lat="40.4910909" lon="17.2124863"><ele>12.0</ele><time>2026-04-11T09:21:13.993Z</time></trkpt><trkpt lat="40.4910724" lon="17.2123605"><ele>12.0</ele><time>2026-04-11T09:21:14.997Z</time></trkpt><trkpt lat="40.4910561" lon="17.2122313"><ele>12.0</ele><time>2026-04-11T09:21:15.991Z</time></trkpt><trkpt lat="40.491143" lon="17.2120859"><ele>12.0</ele><time>2026-04-11T09:21:17.03Z</time></trkpt><trkpt lat="40.4911766" lon="17.211945"><ele>12.6</ele><time>2026-04-11T09:21:17.993Z</time></trkpt><trkpt lat="40.4911967" lon="17.2118137"><ele>13.2</ele><time>2026-04-11T09:21:18.998Z</time></trkpt><trkpt lat="40.4912039" lon="17.211669"><ele>13.8</ele><time>2026-04-11T09:21:20.031Z</time></trkpt><trkpt lat="40.4912174" lon="17.2115324"><ele>14.4</ele><time>2026-04-11T09:21:21.003Z</time></trkpt><trkpt lat="40.4911761" lon="17.2114033"><ele>15.0</ele><time>2026-04-11T09:21:22.03Z</time></trkpt><trkpt lat="40.4911351" lon="17.2112796"><ele>15.8</ele><time>2026-04-11T09:21:22.99Z</time></trkpt><trkpt lat="40.4910572" lon="17.2111826"><ele>16.6</ele><time>2026-04-11T09:21:24.001Z</time></trkpt><trkpt lat="40.4909704" lon="17.2110923"><ele>17.4</ele><time>2026-04-11T09:21:25.008Z</time></trkpt><trkpt lat="40.4908678" lon="17.2110088"><ele>18.2</ele><time>2026-04-11T09:21:26.001Z</time></trkpt><trkpt lat="40.490781" lon="17.2109237"><ele>19.0</ele><time>2026-04-11T09:21:27.035Z</time></trkpt><trkpt lat="40.4906997" lon="17.2108302"><ele>19.0</ele><time>2026-04-11T09:21:27.988Z</time></trkpt><trkpt lat="40.4906547" lon="17.2107183"><ele>19.0</ele><time>2026-04-11T09:21:28.992Z</time></trkpt><trkpt lat="40.4906016" lon="17.2106133"><ele>19.0</ele><time>2026-04-11T09:21:29.99Z</time></trkpt><trkpt lat="40.4906018" lon="17.2105013"><ele>19.0</ele><time>2026-04-11T09:21:30.998Z</time></trkpt><trkpt lat="40.4906232" lon="17.2103749"><ele>19.0</ele><time>2026-04-11T09:21:32.032Z</time></trkpt><trkpt lat="40.4906446" lon="17.210265"><ele>19.25</ele><time>2026-04-11T09:21:32.988Z</time></trkpt><trkpt lat="40.4907265" lon="17.2101718"><ele>19.5</ele><time>2026-04-11T09:21:34.004Z</time></trkpt><trkpt lat="40.4907899" lon="17.2100852"><ele>19.75</ele><time>2026-04-11T09:21:34.994Z</time></trkpt><trkpt lat="40.4908757" lon="17.2099918"><ele>20.0</ele><time>2026-04-11T09:21:35.99Z</time></trkpt><trkpt lat="40.4909922" lon="17.2098787"><ele>19.333333333333336</ele><time>2026-04-11T09:21:37Z</time></trkpt><trkpt lat="40.4911035" lon="17.2097824"><ele>18.666666666666668</ele><time>2026-04-11T09:21:38.03Z</time></trkpt><trkpt lat="40.4912275" lon="17.209667"><ele>18.0</ele><time>2026-04-11T09:21:38.988Z</time></trkpt><trkpt lat="40.4913669" lon="17.2095374"><ele>18.0</ele><time>2026-04-11T09:21:40.025Z</time></trkpt><trkpt lat="40.4915095" lon="17.2094051"><ele>18.0</ele><time>2026-04-11T09:21:41.027Z</time></trkpt><trkpt lat="40.4916604" lon="17.2092729"><ele>18.0</ele><time>2026-04-11T09:21:42.025Z</time></trkpt><trkpt lat="40.4918077" lon="17.2091321"><ele>17.333333333333332</ele><time>2026-04-11T09:21:43.03Z</time></trkpt><trkpt lat="40.4919616" lon="17.2089905"><ele>16.666666666666664</ele><time>2026-04-11T09:21:44Z</time></trkpt><trkpt lat="40.4921158" lon="17.2088451"><ele>16.0</ele><time>2026-04-11T09:21:45.003Z</time></trkpt><trkpt lat="40.4922747" lon="17.2086939"><ele>16.0</ele><time>2026-04-11T09:21:46.029Z</time></trkpt><trkpt lat="40.4924303" lon="17.2085527"><ele>16.0</ele><time>2026-04-11T09:21:47.029Z</time></trkpt><trkpt lat="40.4925855" lon="17.2084086"><ele>16.0</ele><time>2026-04-11T09:21:47.988Z</time></trkpt><trkpt lat="40.4927363" lon="17.2082684"><ele>16.0</ele><time>2026-04-11T09:21:48.989Z</time></trkpt><trkpt lat="40.4928893" lon="17.2081418"><ele>16.0</ele><time>2026-04-11T09:21:50.027Z</time></trkpt><trkpt lat="40.4930355" lon="17.2080072"><ele>16.0</ele><time>2026-04-11T09:21:50.992Z</time></trkpt><trkpt lat="40.4931716" lon="17.2078888"><ele>15.666666666666666</ele><time>2026-04-11T09:21:52.029Z</time></trkpt><trkpt lat="40.4932987" lon="17.2077771"><ele>15.333333333333332</ele><time>2026-04-11T09:21:53.036Z</time></trkpt><trkpt lat="40.4934218" lon="17.2076578"><ele>15.0</ele><time>2026-04-11T09:21:53.996Z</time></trkpt><trkpt lat="40.4935457" lon="17.207545"><ele>15.0</ele><time>2026-04-11T09:21:54.999Z</time></trkpt><trkpt lat="40.4936634" lon="17.207437"><ele>15.0</ele><time>2026-04-11T09:21:56.001Z</time></trkpt><trkpt lat="40.4937798" lon="17.2073309"><ele>15.0</ele><time>2026-04-11T09:21:57.032Z</time></trkpt><trkpt lat="40.4938902" lon="17.2072268"><ele>15.0</ele><time>2026-04-11T09:21:58.033Z</time></trkpt><trkpt lat="40.4940022" lon="17.2071375"><ele>15.4</ele><time>2026-04-11T09:21:59.027Z</time></trkpt><trkpt lat="40.4940976" lon="17.2070387"><ele>15.8</ele><time>2026-04-11T09:21:59.997Z</time></trkpt><trkpt lat="40.4941935" lon="17.2069536"><ele>16.2</ele><time>2026-04-11T09:22:01.021Z</time></trkpt><trkpt lat="40.4942754" lon="17.2068666"><ele>16.6</ele><time>2026-04-11T09:22:02.024Z</time></trkpt><trkpt lat="40.4943531" lon="17.2067775"><ele>17.0</ele><time>2026-04-11T09:22:03.027Z</time></trkpt><trkpt lat="40.4944276" lon="17.2067"><ele>17.0</ele><time>2026-04-11T09:22:03.999Z</time></trkpt><trkpt lat="40.4945037" lon="17.2066345"><ele>17.0</ele><time>2026-04-11T09:22:05.028Z</time></trkpt><trkpt lat="40.4945826" lon="17.206561"><ele>17.0</ele><time>2026-04-11T09:22:06.024Z</time></trkpt><trkpt lat="40.4946652" lon="17.2064876"><ele>17.0</ele><time>2026-04-11T09:22:07.001Z</time></trkpt><trkpt lat="40.4947504" lon="17.2063656"><ele>17.0</ele><time>2026-04-11T09:22:08.006Z</time></trkpt><trkpt lat="40.4948515" lon="17.2062634"><ele>17.666666666666668</ele><time>2026-04-11T09:22:09.039Z</time></trkpt><trkpt lat="40.4949544" lon="17.2061614"><ele>18.333333333333332</ele><time>2026-04-11T09:22:09.99Z</time></trkpt><trkpt lat="40.4951036" lon="17.2060569"><ele>19.0</ele><time>2026-04-11T09:22:11.039Z</time></trkpt><trkpt lat="40.4952476" lon="17.2059524"><ele>19.0</ele><time>2026-04-11T09:22:12.033Z</time></trkpt><trkpt lat="40.4953872" lon="17.2058365"><ele>19.0</ele><time>2026-04-11T09:22:13.026Z</time></trkpt><trkpt lat="40.4955312" lon="17.2057197"><ele>19.0</ele><time>2026-04-11T09:22:13.987Z</time></trkpt><trkpt lat="40.4956649" lon="17.2055894"><ele>18.666666666666664</ele><time>2026-04-11T09:22:15.023Z</time></trkpt><trkpt lat="40.4958113" lon="17.2054544"><ele>18.333333333333332</ele><time>2026-04-11T09:22:16.024Z</time></trkpt><trkpt lat="40.4959581" lon="17.205322"><ele>18.0</ele><time>2026-04-11T09:22:17.028Z</time></trkpt><trkpt lat="40.4961064" lon="17.2051956"><ele>18.0</ele><time>2026-04-11T09:22:18.033Z</time></trkpt><trkpt lat="40.4962501" lon="17.2050588"><ele>18.0</ele><time>2026-04-11T09:22:19.065Z</time></trkpt><trkpt lat="40.4963972" lon="17.2049239"><ele>18.0</ele><time>2026-04-11T09:22:19.99Z</time></trkpt><trkpt lat="40.4965512" lon="17.2047895"><ele>18.666666666666668</ele><time>2026-04-11T09:22:21.028Z</time></trkpt><trkpt lat="40.4967022" lon="17.2046525"><ele>19.333333333333336</ele><time>2026-04-11T09:22:21.99Z</time></trkpt><trkpt lat="40.4968502" lon="17.2045112"><ele>20.0</ele><time>2026-04-11T09:22:23.027Z</time></trkpt><trkpt lat="40.4970008" lon="17.2043754"><ele>19.666666666666668</ele><time>2026-04-11T09:22:24.032Z</time></trkpt><trkpt lat="40.4971528" lon="17.2042351"><ele>19.333333333333332</ele><time>2026-04-11T09:22:24.986Z</time></trkpt><trkpt lat="40.4973109" lon="17.2041012"><ele>19.0</ele><time>2026-04-11T09:22:25.988Z</time></trkpt><trkpt lat="40.4974621" lon="17.2039542"><ele>19.0</ele><time>2026-04-11T09:22:27.001Z</time></trkpt><trkpt lat="40.4976092" lon="17.2038217"><ele>19.0</ele><time>2026-04-11T09:22:28.007Z</time></trkpt><trkpt lat="40.497757" lon="17.2036854"><ele>19.0</ele><time>2026-04-11T09:22:28.992Z</time></trkpt><trkpt lat="40.4978961" lon="17.2035528"><ele>20.0</ele><time>2026-04-11T09:22:29.998Z</time></trkpt><trkpt lat="40.4980506" lon="17.2034036"><ele>21.0</ele><time>2026-04-11T09:22:30.999Z</time></trkpt><trkpt lat="40.4982019" lon="17.20326"><ele>22.0</ele><time>2026-04-11T09:22:32.003Z</time></trkpt><trkpt lat="40.4983545" lon="17.2031212"><ele>22.333333333333332</ele><time>2026-04-11T09:22:33.002Z</time></trkpt><trkpt lat="40.4985111" lon="17.20298"><ele>22.666666666666668</ele><time>2026-04-11T09:22:34.003Z</time></trkpt><trkpt lat="40.4986569" lon="17.2028247"><ele>23.0</ele><time>2026-04-11T09:22:35.032Z</time></trkpt><trkpt lat="40.4988072" lon="17.202685"><ele>22.0</ele><time>2026-04-11T09:22:36.005Z</time></trkpt><trkpt lat="40.4989634" lon="17.2025339"><ele>21.0</ele><time>2026-04-11T09:22:36.997Z</time></trkpt><trkpt lat="40.4991205" lon="17.202389"><ele>20.0</ele><time>2026-04-11T09:22:38.003Z</time></trkpt><trkpt lat="40.4992786" lon="17.2022358"><ele>19.666666666666668</ele><time>2026-04-11T09:22:39.003Z</time></trkpt><trkpt lat="40.499444" lon="17.2020944"><ele>19.333333333333332</ele><time>2026-04-11T09:22:40.034Z</time></trkpt><trkpt lat="40.4996075" lon="17.2019443"><ele>19.0</ele><time>2026-04-11T09:22:40.99Z</time></trkpt><trkpt lat="40.4997835" lon="17.2018036"><ele>18.666666666666664</ele><time>2026-04-11T09:22:42.025Z</time></trkpt><trkpt lat="40.4999562" lon="17.2016553"><ele>18.333333333333332</ele><time>2026-04-11T09:22:43Z</time></trkpt><trkpt lat="40.5001224" lon="17.201508"><ele>18.0</ele><time>2026-04-11T09:22:44.029Z</time></trkpt><trkpt lat="40.50029" lon="17.2013541"><ele>18.333333333333332</ele><time>2026-04-11T09:22:44.996Z</time></trkpt><trkpt lat="40.5004595" lon="17.2012123"><ele>18.666666666666664</ele><time>2026-04-11T09:22:46.002Z</time></trkpt><trkpt lat="40.5006219" lon="17.2010709"><ele>19.0</ele><time>2026-04-11T09:22:47.002Z</time></trkpt><trkpt lat="40.5007805" lon="17.2009251"><ele>19.0</ele><time>2026-04-11T09:22:48.035Z</time></trkpt><trkpt lat="40.5009421" lon="17.2007776"><ele>19.0</ele><time>2026-04-11T09:22:49.028Z</time></trkpt><trkpt lat="40.5010952" lon="17.2006312"><ele>19.0</ele><time>2026-04-11T09:22:50.03Z</time></trkpt><trkpt lat="40.501252" lon="17.2004877"><ele>19.0</ele><time>2026-04-11T09:22:50.992Z</time></trkpt><trkpt lat="40.5014122" lon="17.2003422"><ele>19.0</ele><time>2026-04-11T09:22:51.999Z</time></trkpt><trkpt lat="40.5015669" lon="17.2001944"><ele>19.0</ele><time>2026-04-11T09:22:52.999Z</time></trkpt><trkpt lat="40.5017252" lon="17.2000472"><ele>19.0</ele><time>2026-04-11T09:22:54.006Z</time></trkpt><trkpt lat="40.5018915" lon="17.1999053"><ele>19.0</ele><time>2026-04-11T09:22:55.004Z</time></trkpt><trkpt lat="40.5020583" lon="17.1997555"><ele>19.0</ele><time>2026-04-11T09:22:55.995Z</time></trkpt><trkpt lat="40.502217" lon="17.1996073"><ele>19.666666666666664</ele><time>2026-04-11T09:22:57.031Z</time></trkpt><trkpt lat="40.502378" lon="17.1994601"><ele>20.333333333333332</ele><time>2026-04-11T09:22:58.03Z</time></trkpt><trkpt lat="40.5025435" lon="17.1993084"><ele>21.0</ele><time>2026-04-11T09:22:58.988Z</time></trkpt><trkpt lat="40.5027124" lon="17.199154"><ele>21.0</ele><time>2026-04-11T09:23:00.026Z</time></trkpt><trkpt lat="40.5028835" lon="17.1990005"><ele>21.0</ele><time>2026-04-11T09:23:00.991Z</time></trkpt><trkpt lat="40.503056" lon="17.198843"><ele>21.0</ele><time>2026-04-11T09:23:01.992Z</time></trkpt><trkpt lat="40.5032322" lon="17.1986798"><ele>21.0</ele><time>2026-04-11T09:23:02.993Z</time></trkpt><trkpt lat="40.5034106" lon="17.1985231"><ele>21.0</ele><time>2026-04-11T09:23:03.995Z</time></trkpt><trkpt lat="40.5035847" lon="17.1983625"><ele>21.0</ele><time>2026-04-11T09:23:05.004Z</time></trkpt><trkpt lat="40.5037577" lon="17.1982001"><ele>19.666666666666668</ele><time>2026-04-11T09:23:05.999Z</time></trkpt><trkpt lat="40.5039384" lon="17.1980378"><ele>18.333333333333336</ele><time>2026-04-11T09:23:07.077Z</time></trkpt><trkpt lat="40.5041192" lon="17.1978703"><ele>17.0</ele><time>2026-04-11T09:23:08.026Z</time></trkpt><trkpt lat="40.5042944" lon="17.1977022"><ele>17.0</ele><time>2026-04-11T09:23:08.993Z</time></trkpt><trkpt lat="40.5044709" lon="17.1975409"><ele>17.0</ele><time>2026-04-11T09:23:10.023Z</time></trkpt><trkpt lat="40.5046528" lon="17.1973775"><ele>17.0</ele><time>2026-04-11T09:23:11.025Z</time></trkpt><trkpt lat="40.5048341" lon="17.1972119"><ele>17.333333333333336</ele><time>2026-04-11T09:23:11.985Z</time></trkpt><trkpt lat="40.5050162" lon="17.1970497"><ele>17.666666666666668</ele><time>2026-04-11T09:23:12.989Z</time></trkpt><trkpt lat="40.5052017" lon="17.1968832"><ele>18.0</ele><time>2026-04-11T09:23:14.031Z</time></trkpt><trkpt lat="40.505383" lon="17.1967131"><ele>18.0</ele><time>2026-04-11T09:23:15.035Z</time></trkpt><trkpt lat="40.5055759" lon="17.1965451"><ele>18.0</ele><time>2026-04-11T09:23:16.023Z</time></trkpt><trkpt lat="40.5057572" lon="17.1963719"><ele>19.0</ele><time>2026-04-11T09:23:17.03Z</time></trkpt><trkpt lat="40.5059426" lon="17.1962033"><ele>20.0</ele><time>2026-04-11T09:23:17.99Z</time></trkpt><trkpt lat="40.5061346" lon="17.1960333"><ele>18.5</ele><time>2026-04-11T09:23:19.001Z</time></trkpt><trkpt lat="40.50632" lon="17.1958569"><ele>17.0</ele><time>2026-04-11T09:23:20.036Z</time></trkpt><trkpt lat="40.506506" lon="17.1956855"><ele>18.5</ele><time>2026-04-11T09:23:20.986Z</time></trkpt><trkpt lat="40.5067095" lon="17.1955121"><ele>20.0</ele><time>2026-04-11T09:23:22.029Z</time></trkpt><trkpt lat="40.5068919" lon="17.1953346"><ele>20.0</ele><time>2026-04-11T09:23:22.998Z</time></trkpt><trkpt lat="40.5070814" lon="17.1951626"><ele>20.0</ele><time>2026-04-11T09:23:24.024Z</time></trkpt><trkpt lat="40.5072673" lon="17.1949944"><ele>20.0</ele><time>2026-04-11T09:23:25.03Z</time></trkpt><trkpt lat="40.5074481" lon="17.1948208"><ele>20.0</ele><time>2026-04-11T09:23:26.032Z</time></trkpt><trkpt lat="40.5076333" lon="17.1946448"><ele>20.0</ele><time>2026-04-11T09:23:26.998Z</time></trkpt><trkpt lat="40.5078224" lon="17.1944669"><ele>20.0</ele><time>2026-04-11T09:23:28.002Z</time></trkpt><trkpt lat="40.50801" lon="17.1942893"><ele>20.0</ele><time>2026-04-11T09:23:28.994Z</time></trkpt><trkpt lat="40.5082021" lon="17.19411"><ele>20.0</ele><time>2026-04-11T09:23:29.995Z</time></trkpt><trkpt lat="40.5083966" lon="17.1939336"><ele>20.0</ele><time>2026-04-11T09:23:30.999Z</time></trkpt><trkpt lat="40.5085891" lon="17.1937543"><ele>20.0</ele><time>2026-04-11T09:23:32Z</time></trkpt><trkpt lat="40.5087892" lon="17.193566"><ele>20.5</ele><time>2026-04-11T09:23:32.998Z</time></trkpt><trkpt lat="40.5089804" lon="17.1933813"><ele>21.0</ele><time>2026-04-11T09:23:34.004Z</time></trkpt><trkpt lat="40.5091706" lon="17.1932007"><ele>19.0</ele><time>2026-04-11T09:23:35.007Z</time></trkpt><trkpt lat="40.5093666" lon="17.1930244"><ele>17.0</ele><time>2026-04-11T09:23:36.002Z</time></trkpt><trkpt lat="40.5095672" lon="17.1928362"><ele>17.5</ele><time>2026-04-11T09:23:37.031Z</time></trkpt><trkpt lat="40.5097594" lon="17.1926504"><ele>18.0</ele><time>2026-04-11T09:23:38.031Z</time></trkpt><trkpt lat="40.5099563" lon="17.1924711"><ele>16.5</ele><time>2026-04-11T09:23:39.032Z</time></trkpt><trkpt lat="40.5101475" lon="17.1922926"><ele>15.0</ele><time>2026-04-11T09:23:40.032Z</time></trkpt><trkpt lat="40.5103382" lon="17.1921132"><ele>16.0</ele><time>2026-04-11T09:23:41.034Z</time></trkpt><trkpt lat="40.5105328" lon="17.1919282"><ele>17.0</ele><time>2026-04-11T09:23:42.026Z</time></trkpt><trkpt lat="40.5107339" lon="17.1917569"><ele>17.0</ele><time>2026-04-11T09:23:43.029Z</time></trkpt><trkpt lat="40.5109479" lon="17.1915921"><ele>17.0</ele><time>2026-04-11T09:23:44.029Z</time></trkpt><trkpt lat="40.5111498" lon="17.1914135"><ele>17.0</ele><time>2026-04-11T09:23:45.027Z</time></trkpt><trkpt lat="40.511352" lon="17.191233"><ele>17.0</ele><time>2026-04-11T09:23:46.033Z</time></trkpt><trkpt lat="40.5115471" lon="17.1910505"><ele>17.0</ele><time>2026-04-11T09:23:47.026Z</time></trkpt><trkpt lat="40.5117412" lon="17.1908672"><ele>17.0</ele><time>2026-04-11T09:23:48.027Z</time></trkpt><trkpt lat="40.5119277" lon="17.1906834"><ele>17.333333333333336</ele><time>2026-04-11T09:23:48.987Z</time></trkpt><trkpt lat="40.512093" lon="17.1904989"><ele>17.666666666666668</ele><time>2026-04-11T09:23:50.046Z</time></trkpt><trkpt lat="40.5122597" lon="17.1903215"><ele>18.0</ele><time>2026-04-11T09:23:51.034Z</time></trkpt><trkpt lat="40.5124271" lon="17.1901464"><ele>18.0</ele><time>2026-04-11T09:23:51.986Z</time></trkpt><trkpt lat="40.5125679" lon="17.1899843"><ele>18.0</ele><time>2026-04-11T09:23:53.019Z</time></trkpt><trkpt lat="40.5127094" lon="17.1898241"><ele>18.0</ele><time>2026-04-11T09:23:54.002Z</time></trkpt><trkpt lat="40.5128372" lon="17.189661"><ele>18.25</ele><time>2026-04-11T09:23:55.002Z</time></trkpt><trkpt lat="40.5129654" lon="17.1895066"><ele>18.5</ele><time>2026-04-11T09:23:55.984Z</time></trkpt><trkpt lat="40.5130535" lon="17.1893977"><ele>18.75</ele><time>2026-04-11T09:23:57.023Z</time></trkpt><trkpt lat="40.513151" lon="17.1892719"><ele>19.0</ele><time>2026-04-11T09:23:57.988Z</time></trkpt><trkpt lat="40.5132076" lon="17.189187"><ele>19.0</ele><time>2026-04-11T09:23:59Z</time></trkpt><trkpt lat="40.5132635" lon="17.1891098"><ele>19.0</ele><time>2026-04-11T09:24:00.007Z</time></trkpt><trkpt lat="40.5133111" lon="17.189039"><ele>19.0</ele><time>2026-04-11T09:24:01.037Z</time></trkpt><trkpt lat="40.513363" lon="17.1889747"><ele>19.0</ele><time>2026-04-11T09:24:02.006Z</time></trkpt><trkpt lat="40.5134448" lon="17.1888497"><ele>19.0</ele><time>2026-04-11T09:24:03.987Z</time></trkpt><trkpt lat="40.5135062" lon="17.1887232"><ele>19.0</ele><time>2026-04-11T09:24:06.028Z</time></trkpt><trkpt lat="40.5135765" lon="17.1886088"><ele>19.0</ele><time>2026-04-11T09:24:07.992Z</time></trkpt><trkpt lat="40.5136339" lon="17.1884821"><ele>19.0</ele><time>2026-04-11T09:24:09.998Z</time></trkpt><trkpt lat="40.5137122" lon="17.1883485"><ele>19.0</ele><time>2026-04-11T09:24:11.992Z</time></trkpt><trkpt lat="40.5137581" lon="17.1882529"><ele>19.0</ele><time>2026-04-11T09:24:12.991Z</time></trkpt><trkpt lat="40.5138179" lon="17.188146"><ele>18.0</ele><time>2026-04-11T09:24:13.992Z</time></trkpt><trkpt lat="40.5138962" lon="17.1879996"><ele>17.0</ele><time>2026-04-11T09:24:15.004Z</time></trkpt><trkpt lat="40.5139648" lon="17.187867"><ele>16.0</ele><time>2026-04-11T09:24:16.005Z</time></trkpt><trkpt lat="40.5140332" lon="17.1877592"><ele>15.0</ele><time>2026-04-11T09:24:17.009Z</time></trkpt><trkpt lat="40.5140832" lon="17.1876618"><ele>15.0</ele><time>2026-04-11T09:24:18.008Z</time></trkpt><trkpt lat="40.5141296" lon="17.187583"><ele>15.0</ele><time>2026-04-11T09:24:19.004Z</time></trkpt><trkpt lat="40.5141734" lon="17.1875049"><ele>15.0</ele><time>2026-04-11T09:24:19.986Z</time></trkpt><trkpt lat="40.5142598" lon="17.1873603"><ele>15.0</ele><time>2026-04-11T09:24:22.003Z</time></trkpt><trkpt lat="40.514306" lon="17.1872749"><ele>15.0</ele><time>2026-04-11T09:24:22.99Z</time></trkpt><trkpt lat="40.5143602" lon="17.1871577"><ele>15.0</ele><time>2026-04-11T09:24:24.033Z</time></trkpt><trkpt lat="40.5144157" lon="17.1870581"><ele>15.0</ele><time>2026-04-11T09:24:24.995Z</time></trkpt><trkpt lat="40.5144644" lon="17.186965"><ele>15.0</ele><time>2026-04-11T09:24:26.022Z</time></trkpt><trkpt lat="40.51451" lon="17.18688"><ele>15.0</ele><time>2026-04-11T09:24:27.005Z</time></trkpt><trkpt lat="40.5145542" lon="17.1867968"><ele>15.0</ele><time>2026-04-11T09:24:28.006Z</time></trkpt><trkpt lat="40.514604" lon="17.1867152"><ele>15.0</ele><time>2026-04-11T09:24:28.988Z</time></trkpt><trkpt lat="40.5146672" lon="17.1866162"><ele>15.0</ele><time>2026-04-11T09:24:30.029Z</time></trkpt><trkpt lat="40.5147323" lon="17.1865244"><ele>15.0</ele><time>2026-04-11T09:24:31.012Z</time></trkpt><trkpt lat="40.5148017" lon="17.1864223"><ele>15.0</ele><time>2026-04-11T09:24:32.029Z</time></trkpt><trkpt lat="40.5148693" lon="17.1863257"><ele>15.0</ele><time>2026-04-11T09:24:33.022Z</time></trkpt><trkpt lat="40.5149352" lon="17.1862214"><ele>15.0</ele><time>2026-04-11T09:24:34.005Z</time></trkpt><trkpt lat="40.5150052" lon="17.1861113"><ele>14.25</ele><time>2026-04-11T09:24:35.003Z</time></trkpt><trkpt lat="40.5150765" lon="17.185992"><ele>13.5</ele><time>2026-04-11T09:24:36.029Z</time></trkpt><trkpt lat="40.5151495" lon="17.1858684"><ele>12.75</ele><time>2026-04-11T09:24:36.987Z</time></trkpt><trkpt lat="40.515234" lon="17.1857368"><ele>12.0</ele><time>2026-04-11T09:24:37.992Z</time></trkpt><trkpt lat="40.5153157" lon="17.1855992"><ele>12.25</ele><time>2026-04-11T09:24:38.99Z</time></trkpt><trkpt lat="40.5154034" lon="17.1854621"><ele>12.5</ele><time>2026-04-11T09:24:39.995Z</time></trkpt><trkpt lat="40.5154841" lon="17.185337"><ele>12.75</ele><time>2026-04-11T09:24:40.987Z</time></trkpt><trkpt lat="40.5155584" lon="17.1852175"><ele>13.0</ele><time>2026-04-11T09:24:41.99Z</time></trkpt><trkpt lat="40.5156388" lon="17.185093"><ele>13.0</ele><time>2026-04-11T09:24:43.026Z</time></trkpt><trkpt lat="40.5157261" lon="17.1849659"><ele>13.0</ele><time>2026-04-11T09:24:43.989Z</time></trkpt><trkpt lat="40.5158288" lon="17.1848413"><ele>13.0</ele><time>2026-04-11T09:24:44.991Z</time></trkpt><trkpt lat="40.5159384" lon="17.184693"><ele>13.0</ele><time>2026-04-11T09:24:45.997Z</time></trkpt><trkpt lat="40.5160441" lon="17.1845596"><ele>12.666666666666666</ele><time>2026-04-11T09:24:46.993Z</time></trkpt><trkpt lat="40.5161643" lon="17.1844202"><ele>12.333333333333332</ele><time>2026-04-11T09:24:47.991Z</time></trkpt><trkpt lat="40.5162884" lon="17.1842705"><ele>12.0</ele><time>2026-04-11T09:24:49.024Z</time></trkpt><trkpt lat="40.5164087" lon="17.1841331"><ele>12.666666666666668</ele><time>2026-04-11T09:24:50.007Z</time></trkpt><trkpt lat="40.5165349" lon="17.1839871"><ele>13.333333333333334</ele><time>2026-04-11T09:24:51.008Z</time></trkpt><trkpt lat="40.5166728" lon="17.1838531"><ele>14.0</ele><time>2026-04-11T09:24:52.002Z</time></trkpt><trkpt lat="40.5168167" lon="17.1837071"><ele>14.0</ele><time>2026-04-11T09:24:53.032Z</time></trkpt><trkpt lat="40.5169531" lon="17.1835536"><ele>14.0</ele><time>2026-04-11T09:24:54.026Z</time></trkpt><trkpt lat="40.5170912" lon="17.1834031"><ele>14.0</ele><time>2026-04-11T09:24:54.987Z</time></trkpt><trkpt lat="40.5172279" lon="17.1832541"><ele>16.0</ele><time>2026-04-11T09:24:55.993Z</time></trkpt><trkpt lat="40.5173747" lon="17.1831007"><ele>18.0</ele><time>2026-04-11T09:24:57.027Z</time></trkpt><trkpt lat="40.5175162" lon="17.1829424"><ele>20.0</ele><time>2026-04-11T09:24:57.991Z</time></trkpt><trkpt lat="40.5176611" lon="17.1827808"><ele>20.0</ele><time>2026-04-11T09:24:59.004Z</time></trkpt><trkpt lat="40.5178124" lon="17.182613"><ele>20.0</ele><time>2026-04-11T09:25:00.034Z</time></trkpt><trkpt lat="40.5179606" lon="17.1824462"><ele>20.0</ele><time>2026-04-11T09:25:01.003Z</time></trkpt><trkpt lat="40.5180999" lon="17.1822745"><ele>20.333333333333336</ele><time>2026-04-11T09:25:02.007Z</time></trkpt><trkpt lat="40.5182433" lon="17.1820999"><ele>20.666666666666668</ele><time>2026-04-11T09:25:03.008Z</time></trkpt><trkpt lat="40.5183836" lon="17.1819264"><ele>21.0</ele><time>2026-04-11T09:25:03.998Z</time></trkpt><trkpt lat="40.5185257" lon="17.1817523"><ele>21.0</ele><time>2026-04-11T09:25:05.006Z</time></trkpt><trkpt lat="40.5186757" lon="17.1815806"><ele>21.0</ele><time>2026-04-11T09:25:05.997Z</time></trkpt><trkpt lat="40.5188238" lon="17.1814063"><ele>21.0</ele><time>2026-04-11T09:25:07Z</time></trkpt><trkpt lat="40.5189715" lon="17.1812322"><ele>20.666666666666668</ele><time>2026-04-11T09:25:08.004Z</time></trkpt><trkpt lat="40.5191216" lon="17.1810552"><ele>20.333333333333336</ele><time>2026-04-11T09:25:09.011Z</time></trkpt><trkpt lat="40.5192684" lon="17.1808833"><ele>20.0</ele><time>2026-04-11T09:25:10.006Z</time></trkpt><trkpt lat="40.5194173" lon="17.1807103"><ele>19.666666666666668</ele><time>2026-04-11T09:25:11.012Z</time></trkpt><trkpt lat="40.5195618" lon="17.1805346"><ele>19.333333333333332</ele><time>2026-04-11T09:25:12.003Z</time></trkpt><trkpt lat="40.5197086" lon="17.1803581"><ele>19.0</ele><time>2026-04-11T09:25:13Z</time></trkpt><trkpt lat="40.519851" lon="17.1801892"><ele>19.0</ele><time>2026-04-11T09:25:14.001Z</time></trkpt><trkpt lat="40.5200009" lon="17.1800168"><ele>19.0</ele><time>2026-04-11T09:25:14.998Z</time></trkpt><trkpt lat="40.5201472" lon="17.1798422"><ele>19.0</ele><time>2026-04-11T09:25:16.002Z</time></trkpt><trkpt lat="40.5202937" lon="17.1796636"><ele>20.0</ele><time>2026-04-11T09:25:17.004Z</time></trkpt><trkpt lat="40.5204426" lon="17.1794854"><ele>21.0</ele><time>2026-04-11T09:25:18.001Z</time></trkpt><trkpt lat="40.5205883" lon="17.1793006"><ele>22.0</ele><time>2026-04-11T09:25:19.027Z</time></trkpt><trkpt lat="40.5207347" lon="17.1791206"><ele>22.0</ele><time>2026-04-11T09:25:19.998Z</time></trkpt><trkpt lat="40.5208751" lon="17.1789377"><ele>22.0</ele><time>2026-04-11T09:25:21.028Z</time></trkpt><trkpt lat="40.5210263" lon="17.1787642"><ele>22.0</ele><time>2026-04-11T09:25:22.026Z</time></trkpt><trkpt lat="40.5211683" lon="17.1785907"><ele>22.0</ele><time>2026-04-11T09:25:23.022Z</time></trkpt><trkpt lat="40.5213171" lon="17.1784074"><ele>22.0</ele><time>2026-04-11T09:25:23.994Z</time></trkpt><trkpt lat="40.5214635" lon="17.1782336"><ele>22.0</ele><time>2026-04-11T09:25:25.034Z</time></trkpt><trkpt lat="40.5216082" lon="17.1780518"><ele>22.0</ele><time>2026-04-11T09:25:26.076Z</time></trkpt><trkpt lat="40.5217545" lon="17.1778794"><ele>22.0</ele><time>2026-04-11T09:25:27.03Z</time></trkpt><trkpt lat="40.521899" lon="17.1777013"><ele>22.0</ele><time>2026-04-11T09:25:27.99Z</time></trkpt><trkpt lat="40.5220408" lon="17.1775258"><ele>21.333333333333332</ele><time>2026-04-11T09:25:29.024Z</time></trkpt><trkpt lat="40.5221847" lon="17.1773471"><ele>20.666666666666668</ele><time>2026-04-11T09:25:29.99Z</time></trkpt><trkpt lat="40.5223356" lon="17.1771751"><ele>20.0</ele><time>2026-04-11T09:25:30.991Z</time></trkpt><trkpt lat="40.5224941" lon="17.177008"><ele>20.0</ele><time>2026-04-11T09:25:31.995Z</time></trkpt><trkpt lat="40.5226331" lon="17.1768286"><ele>20.0</ele><time>2026-04-11T09:25:33.004Z</time></trkpt><trkpt lat="40.5227758" lon="17.1766521"><ele>20.0</ele><time>2026-04-11T09:25:34.004Z</time></trkpt><trkpt lat="40.522912" lon="17.1764673"><ele>20.0</ele><time>2026-04-11T09:25:35.002Z</time></trkpt><trkpt lat="40.5230521" lon="17.1762927"><ele>20.0</ele><time>2026-04-11T09:25:36.009Z</time></trkpt><trkpt lat="40.5231819" lon="17.1761135"><ele>20.0</ele><time>2026-04-11T09:25:37.031Z</time></trkpt><trkpt lat="40.5233183" lon="17.1759462"><ele>20.0</ele><time>2026-04-11T09:25:37.988Z</time></trkpt><trkpt lat="40.5234476" lon="17.1757847"><ele>20.0</ele><time>2026-04-11T09:25:38.991Z</time></trkpt><trkpt lat="40.5235745" lon="17.175615"><ele>20.0</ele><time>2026-04-11T09:25:39.996Z</time></trkpt><trkpt lat="40.5237045" lon="17.1754521"><ele>21.0</ele><time>2026-04-11T09:25:41.025Z</time></trkpt><trkpt lat="40.5238323" lon="17.1752928"><ele>22.0</ele><time>2026-04-11T09:25:41.992Z</time></trkpt><trkpt lat="40.5239405" lon="17.1751562"><ele>23.0</ele><time>2026-04-11T09:25:43.089Z</time></trkpt><trkpt lat="40.5240564" lon="17.1750143"><ele>23.0</ele><time>2026-04-11T09:25:44.029Z</time></trkpt><trkpt lat="40.5241764" lon="17.1748667"><ele>23.0</ele><time>2026-04-11T09:25:45Z</time></trkpt><trkpt lat="40.5243024" lon="17.1747187"><ele>23.0</ele><time>2026-04-11T09:25:46.031Z</time></trkpt><trkpt lat="40.5244372" lon="17.1745704"><ele>23.0</ele><time>2026-04-11T09:25:47.035Z</time></trkpt><trkpt lat="40.5245648" lon="17.1744131"><ele>23.0</ele><time>2026-04-11T09:25:47.987Z</time></trkpt><trkpt lat="40.5247082" lon="17.1742429"><ele>23.0</ele><time>2026-04-11T09:25:49.002Z</time></trkpt><trkpt lat="40.5248417" lon="17.1740776"><ele>22.666666666666668</ele><time>2026-04-11T09:25:49.991Z</time></trkpt><trkpt lat="40.5249817" lon="17.1738983"><ele>22.333333333333332</ele><time>2026-04-11T09:25:50.997Z</time></trkpt><trkpt lat="40.5251299" lon="17.1737147"><ele>22.0</ele><time>2026-04-11T09:25:52.034Z</time></trkpt><trkpt lat="40.5252691" lon="17.173532"><ele>22.333333333333332</ele><time>2026-04-11T09:25:53.001Z</time></trkpt><trkpt lat="40.5254229" lon="17.1733507"><ele>22.666666666666668</ele><time>2026-04-11T09:25:54.03Z</time></trkpt><trkpt lat="40.5255749" lon="17.1731689"><ele>23.0</ele><time>2026-04-11T09:25:55Z</time></trkpt><trkpt lat="40.5257346" lon="17.1729812"><ele>23.0</ele><time>2026-04-11T09:25:55.996Z</time></trkpt><trkpt lat="40.5258995" lon="17.1727951"><ele>23.0</ele><time>2026-04-11T09:25:56.993Z</time></trkpt><trkpt lat="40.5260504" lon="17.1726095"><ele>23.0</ele><time>2026-04-11T09:25:57.995Z</time></trkpt><trkpt lat="40.5261946" lon="17.1724198"><ele>22.333333333333336</ele><time>2026-04-11T09:25:58.998Z</time></trkpt><trkpt lat="40.5263381" lon="17.1722412"><ele>21.666666666666668</ele><time>2026-04-11T09:26:00.018Z</time></trkpt><trkpt lat="40.5264666" lon="17.172082"><ele>21.0</ele><time>2026-04-11T09:26:01.006Z</time></trkpt><trkpt lat="40.5265819" lon="17.1719357"><ele>21.0</ele><time>2026-04-11T09:26:01.996Z</time></trkpt><trkpt lat="40.526701" lon="17.1717854"><ele>21.0</ele><time>2026-04-11T09:26:02.986Z</time></trkpt><trkpt lat="40.5268067" lon="17.1716545"><ele>21.0</ele><time>2026-04-11T09:26:03.997Z</time></trkpt><trkpt lat="40.5269123" lon="17.1715203"><ele>20.0</ele><time>2026-04-11T09:26:05.002Z</time></trkpt><trkpt lat="40.5270229" lon="17.1713989"><ele>19.0</ele><time>2026-04-11T09:26:06Z</time></trkpt><trkpt lat="40.5271201" lon="17.1712738"><ele>18.0</ele><time>2026-04-11T09:26:07.003Z</time></trkpt><trkpt lat="40.5272205" lon="17.1711485"><ele>17.0</ele><time>2026-04-11T09:26:07.99Z</time></trkpt><trkpt lat="40.5273133" lon="17.1710122"><ele>17.0</ele><time>2026-04-11T09:26:08.989Z</time></trkpt><trkpt lat="40.5274208" lon="17.1708876"><ele>17.0</ele><time>2026-04-11T09:26:10.028Z</time></trkpt><trkpt lat="40.5275318" lon="17.1707529"><ele>17.0</ele><time>2026-04-11T09:26:11.028Z</time></trkpt><trkpt lat="40.5276444" lon="17.1706211"><ele>17.0</ele><time>2026-04-11T09:26:12.032Z</time></trkpt><trkpt lat="40.5277458" lon="17.1704715"><ele>16.0</ele><time>2026-04-11T09:26:13.028Z</time></trkpt><trkpt lat="40.5278574" lon="17.1703325"><ele>15.0</ele><time>2026-04-11T09:26:14Z</time></trkpt><trkpt lat="40.5279668" lon="17.1701983"><ele>14.0</ele><time>2026-04-11T09:26:15.005Z</time></trkpt><trkpt lat="40.5280795" lon="17.1700547"><ele>16.0</ele><time>2026-04-11T09:26:16.031Z</time></trkpt><trkpt lat="40.5281922" lon="17.1699234"><ele>18.0</ele><time>2026-04-11T09:26:17.027Z</time></trkpt><trkpt lat="40.528305" lon="17.1697863"><ele>20.0</ele><time>2026-04-11T09:26:17.989Z</time></trkpt><trkpt lat="40.5284304" lon="17.1696487"><ele>20.0</ele><time>2026-04-11T09:26:19.029Z</time></trkpt><trkpt lat="40.5285519" lon="17.1694992"><ele>20.0</ele><time>2026-04-11T09:26:20.001Z</time></trkpt><trkpt lat="40.5286656" lon="17.1693545"><ele>20.0</ele><time>2026-04-11T09:26:21.027Z</time></trkpt><trkpt lat="40.5287831" lon="17.1692099"><ele>20.666666666666668</ele><time>2026-04-11T09:26:21.987Z</time></trkpt><trkpt lat="40.5288993" lon="17.1690586"><ele>21.333333333333332</ele><time>2026-04-11T09:26:22.996Z</time></trkpt><trkpt lat="40.5290164" lon="17.1689142"><ele>22.0</ele><time>2026-04-11T09:26:24.005Z</time></trkpt><trkpt lat="40.5291381" lon="17.1687663"><ele>22.0</ele><time>2026-04-11T09:26:24.997Z</time></trkpt><trkpt lat="40.5292597" lon="17.1686184"><ele>22.0</ele><time>2026-04-11T09:26:25.996Z</time></trkpt><trkpt lat="40.5293727" lon="17.1684719"><ele>22.0</ele><time>2026-04-11T09:26:27.032Z</time></trkpt><trkpt lat="40.529497" lon="17.1683198"><ele>21.666666666666664</ele><time>2026-04-11T09:26:27.988Z</time></trkpt><trkpt lat="40.529623" lon="17.1681699"><ele>21.333333333333332</ele><time>2026-04-11T09:26:28.994Z</time></trkpt><trkpt lat="40.5297506" lon="17.1680077"><ele>21.0</ele><time>2026-04-11T09:26:30.005Z</time></trkpt><trkpt lat="40.5298724" lon="17.167849"><ele>21.0</ele><time>2026-04-11T09:26:31.009Z</time></trkpt><trkpt lat="40.5300026" lon="17.1676891"><ele>21.0</ele><time>2026-04-11T09:26:31.999Z</time></trkpt><trkpt lat="40.5301342" lon="17.1675198"><ele>21.0</ele><time>2026-04-11T09:26:33.001Z</time></trkpt><trkpt lat="40.5302668" lon="17.1673542"><ele>21.0</ele><time>2026-04-11T09:26:33.999Z</time></trkpt><trkpt lat="40.530402" lon="17.1671911"><ele>21.0</ele><time>2026-04-11T09:26:35.007Z</time></trkpt><trkpt lat="40.5305379" lon="17.1670306"><ele>21.0</ele><time>2026-04-11T09:26:36.008Z</time></trkpt><trkpt lat="40.5306735" lon="17.1668606"><ele>21.0</ele><time>2026-04-11T09:26:37.005Z</time></trkpt><trkpt lat="40.5308136" lon="17.1666892"><ele>21.0</ele><time>2026-04-11T09:26:38.003Z</time></trkpt><trkpt lat="40.5309537" lon="17.1665056"><ele>21.0</ele><time>2026-04-11T09:26:39.073Z</time></trkpt><trkpt lat="40.5310968" lon="17.1663196"><ele>21.0</ele><time>2026-04-11T09:26:39.999Z</time></trkpt><trkpt lat="40.5312416" lon="17.1661295"><ele>21.0</ele><time>2026-04-11T09:26:41Z</time></trkpt><trkpt lat="40.5313913" lon="17.1659412"><ele>21.0</ele><time>2026-04-11T09:26:41.998Z</time></trkpt><trkpt lat="40.5315409" lon="17.1657632"><ele>21.0</ele><time>2026-04-11T09:26:43.022Z</time></trkpt><trkpt lat="40.5316914" lon="17.1655751"><ele>21.0</ele><time>2026-04-11T09:26:43.989Z</time></trkpt><trkpt lat="40.5318494" lon="17.1653919"><ele>21.0</ele><time>2026-04-11T09:26:45.001Z</time></trkpt><trkpt lat="40.5320049" lon="17.1651932"><ele>21.666666666666668</ele><time>2026-04-11T09:26:46.003Z</time></trkpt><trkpt lat="40.532166" lon="17.1650063"><ele>22.333333333333336</ele><time>2026-04-11T09:26:47.003Z</time></trkpt><trkpt lat="40.5323174" lon="17.1648184"><ele>23.0</ele><time>2026-04-11T09:26:48.007Z</time></trkpt><trkpt lat="40.5324675" lon="17.164625"><ele>23.0</ele><time>2026-04-11T09:26:49.006Z</time></trkpt><trkpt lat="40.5326159" lon="17.1644406"><ele>23.0</ele><time>2026-04-11T09:26:49.989Z</time></trkpt><trkpt lat="40.5327379" lon="17.1642789"><ele>23.0</ele><time>2026-04-11T09:26:51.03Z</time></trkpt><trkpt lat="40.5328757" lon="17.1641199"><ele>23.0</ele><time>2026-04-11T09:26:51.999Z</time></trkpt><trkpt lat="40.5330022" lon="17.1639604"><ele>23.0</ele><time>2026-04-11T09:26:53.024Z</time></trkpt><trkpt lat="40.5331331" lon="17.1637995"><ele>23.0</ele><time>2026-04-11T09:26:53.985Z</time></trkpt><trkpt lat="40.5332458" lon="17.1636595"><ele>23.0</ele><time>2026-04-11T09:26:55.022Z</time></trkpt><trkpt lat="40.5333582" lon="17.163515"><ele>23.0</ele><time>2026-04-11T09:26:55.989Z</time></trkpt><trkpt lat="40.5334686" lon="17.1633704"><ele>23.0</ele><time>2026-04-11T09:26:57.024Z</time></trkpt><trkpt lat="40.5335769" lon="17.163234"><ele>23.0</ele><time>2026-04-11T09:26:57.988Z</time></trkpt><trkpt lat="40.5336821" lon="17.1631245"><ele>23.0</ele><time>2026-04-11T09:26:58.996Z</time></trkpt><trkpt lat="40.53378" lon="17.1630235"><ele>23.0</ele><time>2026-04-11T09:27:00.025Z</time></trkpt><trkpt lat="40.5338725" lon="17.1629082"><ele>23.0</ele><time>2026-04-11T09:27:00.986Z</time></trkpt><trkpt lat="40.5339545" lon="17.1628029"><ele>23.0</ele><time>2026-04-11T09:27:01.989Z</time></trkpt><trkpt lat="40.5340389" lon="17.1626785"><ele>23.0</ele><time>2026-04-11T09:27:03.003Z</time></trkpt><trkpt lat="40.5341301" lon="17.1625634"><ele>23.0</ele><time>2026-04-11T09:27:03.992Z</time></trkpt><trkpt lat="40.5342172" lon="17.1624407"><ele>23.0</ele><time>2026-04-11T09:27:04.997Z</time></trkpt><trkpt lat="40.5343071" lon="17.1623293"><ele>23.0</ele><time>2026-04-11T09:27:06.005Z</time></trkpt><trkpt lat="40.5344015" lon="17.1622167"><ele>23.0</ele><time>2026-04-11T09:27:07.003Z</time></trkpt><trkpt lat="40.5344787" lon="17.1621104"><ele>23.0</ele><time>2026-04-11T09:27:08.002Z</time></trkpt><trkpt lat="40.5345621" lon="17.1620028"><ele>23.0</ele><time>2026-04-11T09:27:08.988Z</time></trkpt><trkpt lat="40.5346393" lon="17.1619067"><ele>22.833333333333336</ele><time>2026-04-11T09:27:09.996Z</time></trkpt><trkpt lat="40.5347156" lon="17.1618078"><ele>22.666666666666668</ele><time>2026-04-11T09:27:11.01Z</time></trkpt><trkpt lat="40.534791" lon="17.1617185"><ele>22.5</ele><time>2026-04-11T09:27:12.032Z</time></trkpt><trkpt lat="40.534857" lon="17.1616424"><ele>22.333333333333332</ele><time>2026-04-11T09:27:13.003Z</time></trkpt><trkpt lat="40.5349148" lon="17.1615799"><ele>22.166666666666664</ele><time>2026-04-11T09:27:14.004Z</time></trkpt><trkpt lat="40.5349668" lon="17.1615169"><ele>22.0</ele><time>2026-04-11T09:27:15.033Z</time></trkpt><trkpt lat="40.5350191" lon="17.1614621"><ele>22.0</ele><time>2026-04-11T09:27:15.999Z</time></trkpt><trkpt lat="40.5350663" lon="17.1613996"><ele>22.0</ele><time>2026-04-11T09:27:17.029Z</time></trkpt><trkpt lat="40.5351161" lon="17.1613463"><ele>22.0</ele><time>2026-04-11T09:27:18.029Z</time></trkpt><trkpt lat="40.5351773" lon="17.1613069"><ele>22.0</ele><time>2026-04-11T09:27:18.994Z</time></trkpt><trkpt lat="40.5352433" lon="17.1612564"><ele>22.0</ele><time>2026-04-11T09:27:20Z</time></trkpt><trkpt lat="40.5353064" lon="17.161229"><ele>22.0</ele><time>2026-04-11T09:27:21.03Z</time></trkpt><trkpt lat="40.5353687" lon="17.1612036"><ele>22.0</ele><time>2026-04-11T09:27:22.023Z</time></trkpt><trkpt lat="40.535433" lon="17.1611734"><ele>21.833333333333332</ele><time>2026-04-11T09:27:23.026Z</time></trkpt><trkpt lat="40.5355278" lon="17.1610732"><ele>21.666666666666664</ele><time>2026-04-11T09:27:24.985Z</time></trkpt><trkpt lat="40.5355357" lon="17.1609761"><ele>21.5</ele><time>2026-04-11T09:27:25.997Z</time></trkpt><trkpt lat="40.5355547" lon="17.1608798"><ele>21.333333333333332</ele><time>2026-04-11T09:27:27.034Z</time></trkpt><trkpt lat="40.5355891" lon="17.1607843"><ele>21.166666666666668</ele><time>2026-04-11T09:27:27.999Z</time></trkpt><trkpt lat="40.5356286" lon="17.1606853"><ele>21.0</ele><time>2026-04-11T09:27:28.989Z</time></trkpt><trkpt lat="40.5357208" lon="17.1605786"><ele>21.0</ele><time>2026-04-11T09:27:29.997Z</time></trkpt><trkpt lat="40.5358096" lon="17.160469"><ele>21.0</ele><time>2026-04-11T09:27:31.001Z</time></trkpt><trkpt lat="40.535905" lon="17.1603568"><ele>21.0</ele><time>2026-04-11T09:27:32.021Z</time></trkpt><trkpt lat="40.5359993" lon="17.1602307"><ele>21.0</ele><time>2026-04-11T09:27:33.022Z</time></trkpt><trkpt lat="40.5360965" lon="17.1601042"><ele>21.0</ele><time>2026-04-11T09:27:33.998Z</time></trkpt><trkpt lat="40.5362006" lon="17.1599672"><ele>21.0</ele><time>2026-04-11T09:27:35.001Z</time></trkpt><trkpt lat="40.5363088" lon="17.1598259"><ele>21.0</ele><time>2026-04-11T09:27:36.01Z</time></trkpt><trkpt lat="40.5364279" lon="17.1596848"><ele>21.333333333333332</ele><time>2026-04-11T09:27:36.998Z</time></trkpt><trkpt lat="40.5365472" lon="17.1595382"><ele>21.666666666666664</ele><time>2026-04-11T09:27:37.991Z</time></trkpt><trkpt lat="40.5366651" lon="17.1593841"><ele>22.0</ele><time>2026-04-11T09:27:38.998Z</time></trkpt><trkpt lat="40.5367864" lon="17.1592294"><ele>22.0</ele><time>2026-04-11T09:27:39.988Z</time></trkpt><trkpt lat="40.5369181" lon="17.1590642"><ele>22.0</ele><time>2026-04-11T09:27:41.001Z</time></trkpt><trkpt lat="40.5370469" lon="17.1588995"><ele>22.0</ele><time>2026-04-11T09:27:42.04Z</time></trkpt><trkpt lat="40.5371786" lon="17.1587315"><ele>21.666666666666664</ele><time>2026-04-11T09:27:43.033Z</time></trkpt><trkpt lat="40.5373121" lon="17.158556"><ele>21.333333333333332</ele><time>2026-04-11T09:27:43.995Z</time></trkpt><trkpt lat="40.5374484" lon="17.1583832"><ele>21.0</ele><time>2026-04-11T09:27:44.984Z</time></trkpt><trkpt lat="40.5375906" lon="17.1582046"><ele>21.0</ele><time>2026-04-11T09:27:45.995Z</time></trkpt><trkpt lat="40.5377246" lon="17.158034"><ele>21.0</ele><time>2026-04-11T09:27:46.987Z</time></trkpt><trkpt lat="40.5378457" lon="17.1578885"><ele>21.0</ele><time>2026-04-11T09:27:48.019Z</time></trkpt><trkpt lat="40.5379642" lon="17.157734"><ele>21.0</ele><time>2026-04-11T09:27:49.025Z</time></trkpt><trkpt lat="40.5380837" lon="17.1575785"><ele>21.0</ele><time>2026-04-11T09:27:50.005Z</time></trkpt><trkpt lat="40.5382048" lon="17.1574263"><ele>21.0</ele><time>2026-04-11T09:27:50.992Z</time></trkpt><trkpt lat="40.5383385" lon="17.1572595"><ele>21.0</ele><time>2026-04-11T09:27:51.998Z</time></trkpt><trkpt lat="40.5384669" lon="17.1570993"><ele>21.0</ele><time>2026-04-11T09:27:53.007Z</time></trkpt><trkpt lat="40.5385969" lon="17.1569362"><ele>21.0</ele><time>2026-04-11T09:27:53.989Z</time></trkpt><trkpt lat="40.5387327" lon="17.1567637"><ele>21.333333333333332</ele><time>2026-04-11T09:27:54.998Z</time></trkpt><trkpt lat="40.5388732" lon="17.1565898"><ele>21.666666666666664</ele><time>2026-04-11T09:27:56.001Z</time></trkpt><trkpt lat="40.539005" lon="17.1564151"><ele>22.0</ele><time>2026-04-11T09:27:57.023Z</time></trkpt><trkpt lat="40.5391506" lon="17.1562349"><ele>22.0</ele><time>2026-04-11T09:27:58.026Z</time></trkpt><trkpt lat="40.5392977" lon="17.1560603"><ele>22.0</ele><time>2026-04-11T09:27:59.026Z</time></trkpt><trkpt lat="40.5394406" lon="17.1558825"><ele>22.0</ele><time>2026-04-11T09:27:59.983Z</time></trkpt><trkpt lat="40.5395874" lon="17.1557036"><ele>22.0</ele><time>2026-04-11T09:28:01.02Z</time></trkpt><trkpt lat="40.5397316" lon="17.155521"><ele>22.0</ele><time>2026-04-11T09:28:01.999Z</time></trkpt><trkpt lat="40.5398742" lon="17.1553344"><ele>22.0</ele><time>2026-04-11T09:28:03.004Z</time></trkpt><trkpt lat="40.5400214" lon="17.1551578"><ele>22.0</ele><time>2026-04-11T09:28:04.029Z</time></trkpt><trkpt lat="40.5401656" lon="17.1549757"><ele>22.0</ele><time>2026-04-11T09:28:04.997Z</time></trkpt><trkpt lat="40.5403105" lon="17.1548019"><ele>22.0</ele><time>2026-04-11T09:28:05.999Z</time></trkpt><trkpt lat="40.5404538" lon="17.1546184"><ele>22.333333333333332</ele><time>2026-04-11T09:28:06.996Z</time></trkpt><trkpt lat="40.5405957" lon="17.1544339"><ele>22.666666666666668</ele><time>2026-04-11T09:28:07.99Z</time></trkpt><trkpt lat="40.5407396" lon="17.1542503"><ele>23.0</ele><time>2026-04-11T09:28:08.989Z</time></trkpt><trkpt lat="40.5408856" lon="17.1540652"><ele>23.0</ele><time>2026-04-11T09:28:10.002Z</time></trkpt><trkpt lat="40.541026" lon="17.153888"><ele>23.0</ele><time>2026-04-11T09:28:10.998Z</time></trkpt><trkpt lat="40.5411735" lon="17.1537008"><ele>23.0</ele><time>2026-04-11T09:28:12.027Z</time></trkpt><trkpt lat="40.5413187" lon="17.1535191"><ele>23.0</ele><time>2026-04-11T09:28:12.984Z</time></trkpt><trkpt lat="40.5414671" lon="17.1533318"><ele>23.0</ele><time>2026-04-11T09:28:13.988Z</time></trkpt><trkpt lat="40.5416102" lon="17.1531513"><ele>23.0</ele><time>2026-04-11T09:28:14.989Z</time></trkpt><trkpt lat="40.5417566" lon="17.1529644"><ele>22.666666666666668</ele><time>2026-04-11T09:28:16.026Z</time></trkpt><trkpt lat="40.5419122" lon="17.1527716"><ele>22.333333333333332</ele><time>2026-04-11T09:28:17.034Z</time></trkpt><trkpt lat="40.542074" lon="17.1525865"><ele>22.0</ele><time>2026-04-11T09:28:18.002Z</time></trkpt><trkpt lat="40.5422228" lon="17.1523905"><ele>22.0</ele><time>2026-04-11T09:28:18.994Z</time></trkpt><trkpt lat="40.5423765" lon="17.1521961"><ele>22.0</ele><time>2026-04-11T09:28:19.983Z</time></trkpt><trkpt lat="40.5425297" lon="17.1520032"><ele>22.0</ele><time>2026-04-11T09:28:20.983Z</time></trkpt><trkpt lat="40.5426893" lon="17.1518307"><ele>22.0</ele><time>2026-04-11T09:28:21.996Z</time></trkpt><trkpt lat="40.5428385" lon="17.1516438"><ele>22.0</ele><time>2026-04-11T09:28:22.988Z</time></trkpt><trkpt lat="40.5429855" lon="17.1514641"><ele>22.0</ele><time>2026-04-11T09:28:23.993Z</time></trkpt><trkpt lat="40.5431278" lon="17.151294"><ele>23.0</ele><time>2026-04-11T09:28:24.99Z</time></trkpt><trkpt lat="40.5432682" lon="17.1511049"><ele>24.0</ele><time>2026-04-11T09:28:25.988Z</time></trkpt><trkpt lat="40.5434156" lon="17.150921"><ele>25.0</ele><time>2026-04-11T09:28:26.989Z</time></trkpt><trkpt lat="40.5435623" lon="17.15075"><ele>24.666666666666668</ele><time>2026-04-11T09:28:27.999Z</time></trkpt><trkpt lat="40.5437093" lon="17.1505663"><ele>24.333333333333336</ele><time>2026-04-11T09:28:28.991Z</time></trkpt><trkpt lat="40.5438506" lon="17.1503755"><ele>24.0</ele><time>2026-04-11T09:28:29.996Z</time></trkpt><trkpt lat="40.5439958" lon="17.1501696"><ele>24.0</ele><time>2026-04-11T09:28:31.008Z</time></trkpt><trkpt lat="40.5441508" lon="17.1499821"><ele>24.0</ele><time>2026-04-11T09:28:32.002Z</time></trkpt><trkpt lat="40.5443134" lon="17.1497923"><ele>24.0</ele><time>2026-04-11T09:28:33.003Z</time></trkpt><trkpt lat="40.5444718" lon="17.1496006"><ele>23.333333333333332</ele><time>2026-04-11T09:28:33.998Z</time></trkpt><trkpt lat="40.5446191" lon="17.1494141"><ele>22.666666666666664</ele><time>2026-04-11T09:28:35.005Z</time></trkpt><trkpt lat="40.5447742" lon="17.1492139"><ele>22.0</ele><time>2026-04-11T09:28:36.006Z</time></trkpt><trkpt lat="40.5449258" lon="17.1490205"><ele>22.0</ele><time>2026-04-11T09:28:36.99Z</time></trkpt><trkpt lat="40.5450771" lon="17.1488276"><ele>22.0</ele><time>2026-04-11T09:28:37.995Z</time></trkpt><trkpt lat="40.5452317" lon="17.1486337"><ele>22.0</ele><time>2026-04-11T09:28:39.006Z</time></trkpt><trkpt lat="40.5453923" lon="17.1484367"><ele>22.0</ele><time>2026-04-11T09:28:40.003Z</time></trkpt><trkpt lat="40.5455458" lon="17.1482409"><ele>22.0</ele><time>2026-04-11T09:28:40.99Z</time></trkpt><trkpt lat="40.5456956" lon="17.1480479"><ele>22.0</ele><time>2026-04-11T09:28:41.994Z</time></trkpt><trkpt lat="40.5458453" lon="17.1478581"><ele>22.333333333333332</ele><time>2026-04-11T09:28:43.006Z</time></trkpt><trkpt lat="40.5460031" lon="17.1476669"><ele>22.666666666666668</ele><time>2026-04-11T09:28:44.009Z</time></trkpt><trkpt lat="40.5461617" lon="17.1474879"><ele>23.0</ele><time>2026-04-11T09:28:45.004Z</time></trkpt><trkpt lat="40.5463286" lon="17.1473159"><ele>23.0</ele><time>2026-04-11T09:28:46Z</time></trkpt><trkpt lat="40.5465012" lon="17.1471512"><ele>23.0</ele><time>2026-04-11T09:28:47.005Z</time></trkpt><trkpt lat="40.5466695" lon="17.1469837"><ele>23.0</ele><time>2026-04-11T09:28:48.001Z</time></trkpt><trkpt lat="40.5468368" lon="17.1468189"><ele>23.0</ele><time>2026-04-11T09:28:48.99Z</time></trkpt><trkpt lat="40.5469985" lon="17.1466625"><ele>23.0</ele><time>2026-04-11T09:28:49.993Z</time></trkpt><trkpt lat="40.5471607" lon="17.1465013"><ele>23.0</ele><time>2026-04-11T09:28:51.008Z</time></trkpt><trkpt lat="40.5473197" lon="17.1463422"><ele>23.333333333333336</ele><time>2026-04-11T09:28:51.997Z</time></trkpt><trkpt lat="40.5474794" lon="17.1461872"><ele>23.666666666666668</ele><time>2026-04-11T09:28:53.003Z</time></trkpt><trkpt lat="40.5476402" lon="17.1460283"><ele>24.0</ele><time>2026-04-11T09:28:54Z</time></trkpt><trkpt lat="40.547814" lon="17.1458754"><ele>24.333333333333336</ele><time>2026-04-11T09:28:54.999Z</time></trkpt><trkpt lat="40.5479699" lon="17.1457205"><ele>24.666666666666668</ele><time>2026-04-11T09:28:56.004Z</time></trkpt><trkpt lat="40.5481178" lon="17.1455734"><ele>25.0</ele><time>2026-04-11T09:28:57.009Z</time></trkpt><trkpt lat="40.54827" lon="17.1454275"><ele>25.0</ele><time>2026-04-11T09:28:58.028Z</time></trkpt><trkpt lat="40.5484259" lon="17.1452694"><ele>25.0</ele><time>2026-04-11T09:28:59.002Z</time></trkpt><trkpt lat="40.5485914" lon="17.1451359"><ele>25.0</ele><time>2026-04-11T09:28:59.995Z</time></trkpt><trkpt lat="40.5487453" lon="17.1449937"><ele>24.666666666666668</ele><time>2026-04-11T09:29:01.027Z</time></trkpt><trkpt lat="40.5488968" lon="17.1448455"><ele>24.333333333333336</ele><time>2026-04-11T09:29:01.989Z</time></trkpt><trkpt lat="40.5490561" lon="17.1446995"><ele>24.0</ele><time>2026-04-11T09:29:02.992Z</time></trkpt><trkpt lat="40.5492107" lon="17.144547"><ele>24.0</ele><time>2026-04-11T09:29:03.999Z</time></trkpt><trkpt lat="40.5493694" lon="17.1443924"><ele>24.0</ele><time>2026-04-11T09:29:04.994Z</time></trkpt><trkpt lat="40.5495261" lon="17.1442267"><ele>24.0</ele><time>2026-04-11T09:29:05.998Z</time></trkpt><trkpt lat="40.5496944" lon="17.1440724"><ele>24.333333333333336</ele><time>2026-04-11T09:29:07.002Z</time></trkpt><trkpt lat="40.5498586" lon="17.1439125"><ele>24.666666666666668</ele><time>2026-04-11T09:29:07.988Z</time></trkpt><trkpt lat="40.5500261" lon="17.1437428"><ele>25.0</ele><time>2026-04-11T09:29:09.002Z</time></trkpt><trkpt lat="40.5501946" lon="17.1435794"><ele>25.0</ele><time>2026-04-11T09:29:09.993Z</time></trkpt><trkpt lat="40.5503531" lon="17.1434019"><ele>25.0</ele><time>2026-04-11T09:29:11.017Z</time></trkpt><trkpt lat="40.5505235" lon="17.1432432"><ele>25.0</ele><time>2026-04-11T09:29:12.005Z</time></trkpt><trkpt lat="40.5506907" lon="17.1430827"><ele>25.0</ele><time>2026-04-11T09:29:13.001Z</time></trkpt><trkpt lat="40.5508565" lon="17.1429131"><ele>25.0</ele><time>2026-04-11T09:29:13.997Z</time></trkpt><trkpt lat="40.5510155" lon="17.1427581"><ele>25.0</ele><time>2026-04-11T09:29:15.002Z</time></trkpt><trkpt lat="40.5511783" lon="17.1425954"><ele>25.333333333333336</ele><time>2026-04-11T09:29:16.037Z</time></trkpt><trkpt lat="40.5513476" lon="17.1424288"><ele>25.666666666666664</ele><time>2026-04-11T09:29:16.99Z</time></trkpt><trkpt lat="40.551531" lon="17.1422631"><ele>26.0</ele><time>2026-04-11T09:29:18.025Z</time></trkpt><trkpt lat="40.5517103" lon="17.1420939"><ele>25.333333333333332</ele><time>2026-04-11T09:29:19.026Z</time></trkpt><trkpt lat="40.5518878" lon="17.1419249"><ele>24.666666666666664</ele><time>2026-04-11T09:29:19.998Z</time></trkpt><trkpt lat="40.5520629" lon="17.1417523"><ele>24.0</ele><time>2026-04-11T09:29:21.029Z</time></trkpt><trkpt lat="40.5522348" lon="17.1415866"><ele>25.0</ele><time>2026-04-11T09:29:21.987Z</time></trkpt><trkpt lat="40.5524022" lon="17.1414184"><ele>26.0</ele><time>2026-04-11T09:29:22.987Z</time></trkpt><trkpt lat="40.5525663" lon="17.1412548"><ele>27.0</ele><time>2026-04-11T09:29:23.999Z</time></trkpt><trkpt lat="40.5527356" lon="17.1410903"><ele>27.666666666666664</ele><time>2026-04-11T09:29:25.004Z</time></trkpt><trkpt lat="40.5529042" lon="17.140926"><ele>28.333333333333332</ele><time>2026-04-11T09:29:26.002Z</time></trkpt><trkpt lat="40.5530712" lon="17.1407636"><ele>29.0</ele><time>2026-04-11T09:29:26.989Z</time></trkpt><trkpt lat="40.5532349" lon="17.1405951"><ele>29.0</ele><time>2026-04-11T09:29:28.027Z</time></trkpt><trkpt lat="40.553401" lon="17.1404399"><ele>29.0</ele><time>2026-04-11T09:29:29.032Z</time></trkpt><trkpt lat="40.5535673" lon="17.1402775"><ele>29.0</ele><time>2026-04-11T09:29:29.99Z</time></trkpt><trkpt lat="40.553732" lon="17.1401232"><ele>29.0</ele><time>2026-04-11T09:29:30.99Z</time></trkpt><trkpt lat="40.5538953" lon="17.1399643"><ele>29.0</ele><time>2026-04-11T09:29:31.99Z</time></trkpt><trkpt lat="40.5540319" lon="17.1398235"><ele>29.0</ele><time>2026-04-11T09:29:32.994Z</time></trkpt><trkpt lat="40.5541911" lon="17.1396877"><ele>29.0</ele><time>2026-04-11T09:29:34Z</time></trkpt><trkpt lat="40.554334" lon="17.1395409"><ele>29.0</ele><time>2026-04-11T09:29:34.999Z</time></trkpt><trkpt lat="40.5544918" lon="17.1394034"><ele>29.0</ele><time>2026-04-11T09:29:36.002Z</time></trkpt><trkpt lat="40.5546361" lon="17.1392592"><ele>29.333333333333332</ele><time>2026-04-11T09:29:37Z</time></trkpt><trkpt lat="40.554773" lon="17.1391261"><ele>29.666666666666664</ele><time>2026-04-11T09:29:37.997Z</time></trkpt><trkpt lat="40.554912" lon="17.1389868"><ele>30.0</ele><time>2026-04-11T09:29:38.994Z</time></trkpt><trkpt lat="40.5550493" lon="17.1388451"><ele>30.333333333333336</ele><time>2026-04-11T09:29:40.029Z</time></trkpt><trkpt lat="40.5551915" lon="17.1387087"><ele>30.666666666666668</ele><time>2026-04-11T09:29:41.002Z</time></trkpt><trkpt lat="40.5553202" lon="17.1385859"><ele>31.0</ele><time>2026-04-11T09:29:42.029Z</time></trkpt><trkpt lat="40.5554371" lon="17.1384726"><ele>31.0</ele><time>2026-04-11T09:29:43.036Z</time></trkpt><trkpt lat="40.5555414" lon="17.1383635"><ele>31.0</ele><time>2026-04-11T09:29:43.993Z</time></trkpt><trkpt lat="40.5556534" lon="17.1382626"><ele>31.0</ele><time>2026-04-11T09:29:44.996Z</time></trkpt><trkpt lat="40.5557517" lon="17.1381729"><ele>31.0</ele><time>2026-04-11T09:29:45.987Z</time></trkpt><trkpt lat="40.5558279" lon="17.1381134"><ele>31.000000000000004</ele><time>2026-04-11T09:29:46.998Z</time></trkpt><trkpt lat="40.5559043" lon="17.1380537"><ele>31.0</ele><time>2026-04-11T09:29:48.001Z</time></trkpt><trkpt lat="40.5559851" lon="17.1380038"><ele>31.0</ele><time>2026-04-11T09:29:48.991Z</time></trkpt><trkpt lat="40.5560576" lon="17.1379515"><ele>31.0</ele><time>2026-04-11T09:29:50.029Z</time></trkpt><trkpt lat="40.5561271" lon="17.1379027"><ele>31.000000000000004</ele><time>2026-04-11T09:29:50.991Z</time></trkpt><trkpt lat="40.5561869" lon="17.1378635"><ele>31.0</ele><time>2026-04-11T09:29:51.998Z</time></trkpt><trkpt lat="40.5562472" lon="17.1378194"><ele>31.0</ele><time>2026-04-11T09:29:52.999Z</time></trkpt><trkpt lat="40.5563095" lon="17.1377785"><ele>31.000000000000004</ele><time>2026-04-11T09:29:54.005Z</time></trkpt><trkpt lat="40.5563729" lon="17.1377418"><ele>31.0</ele><time>2026-04-11T09:29:55.009Z</time></trkpt><trkpt lat="40.556437" lon="17.1377089"><ele>31.0</ele><time>2026-04-11T09:29:56Z</time></trkpt><trkpt lat="40.5565069" lon="17.1376793"><ele>31.000000000000004</ele><time>2026-04-11T09:29:56.991Z</time></trkpt><trkpt lat="40.5565793" lon="17.1376964"><ele>31.0</ele><time>2026-04-11T09:29:57.994Z</time></trkpt><trkpt lat="40.556656" lon="17.1376934"><ele>31.0</ele><time>2026-04-11T09:29:59.002Z</time></trkpt><trkpt lat="40.5567347" lon="17.1376912"><ele>31.000000000000004</ele><time>2026-04-11T09:29:59.99Z</time></trkpt><trkpt lat="40.5567856" lon="17.1376251"><ele>31.0</ele><time>2026-04-11T09:30:00.992Z</time></trkpt><trkpt lat="40.5568283" lon="17.1375495"><ele>31.0</ele><time>2026-04-11T09:30:01.998Z</time></trkpt><trkpt lat="40.5568507" lon="17.1374531"><ele>31.0</ele><time>2026-04-11T09:30:03.003Z</time></trkpt><trkpt lat="40.5568691" lon="17.1373305"><ele>31.000000000000004</ele><time>2026-04-11T09:30:04.005Z</time></trkpt><trkpt lat="40.5569009" lon="17.1372039"><ele>31.0</ele><time>2026-04-11T09:30:04.996Z</time></trkpt><trkpt lat="40.5569515" lon="17.1370745"><ele>31.0</ele><time>2026-04-11T09:30:06.027Z</time></trkpt><trkpt lat="40.5570063" lon="17.1369466"><ele>31.0</ele><time>2026-04-11T09:30:06.985Z</time></trkpt><trkpt lat="40.5571254" lon="17.13686"><ele>31.0</ele><time>2026-04-11T09:30:08.029Z</time></trkpt><trkpt lat="40.5572225" lon="17.1367464"><ele>31.0</ele><time>2026-04-11T09:30:09.034Z</time></trkpt><trkpt lat="40.5573303" lon="17.136618"><ele>30.666666666666668</ele><time>2026-04-11T09:30:10.023Z</time></trkpt><trkpt lat="40.557442" lon="17.1364953"><ele>30.333333333333336</ele><time>2026-04-11T09:30:10.997Z</time></trkpt><trkpt lat="40.5575679" lon="17.1363793"><ele>30.0</ele><time>2026-04-11T09:30:12.028Z</time></trkpt><trkpt lat="40.5576962" lon="17.1362568"><ele>30.0</ele><time>2026-04-11T09:30:13.028Z</time></trkpt><trkpt lat="40.5578261" lon="17.1361328"><ele>30.0</ele><time>2026-04-11T09:30:13.987Z</time></trkpt><trkpt lat="40.5579632" lon="17.1360007"><ele>30.0</ele><time>2026-04-11T09:30:14.988Z</time></trkpt><trkpt lat="40.5580982" lon="17.135871"><ele>30.333333333333336</ele><time>2026-04-11T09:30:15.989Z</time></trkpt><trkpt lat="40.5582421" lon="17.1357399"><ele>30.666666666666668</ele><time>2026-04-11T09:30:17.005Z</time></trkpt><trkpt lat="40.5583777" lon="17.1356089"><ele>31.0</ele><time>2026-04-11T09:30:17.991Z</time></trkpt><trkpt lat="40.5585093" lon="17.1354696"><ele>31.0</ele><time>2026-04-11T09:30:18.994Z</time></trkpt><trkpt lat="40.558642" lon="17.1353405"><ele>31.0</ele><time>2026-04-11T09:30:19.986Z</time></trkpt><trkpt lat="40.5587676" lon="17.1352177"><ele>31.0</ele><time>2026-04-11T09:30:20.998Z</time></trkpt><trkpt lat="40.5588945" lon="17.1350906"><ele>31.333333333333336</ele><time>2026-04-11T09:30:22.003Z</time></trkpt><trkpt lat="40.5590217" lon="17.1349659"><ele>31.666666666666664</ele><time>2026-04-11T09:30:22.995Z</time></trkpt><trkpt lat="40.5591469" lon="17.1348387"><ele>32.0</ele><time>2026-04-11T09:30:24.002Z</time></trkpt><trkpt lat="40.5592721" lon="17.134715"><ele>32.666666666666664</ele><time>2026-04-11T09:30:24.989Z</time></trkpt><trkpt lat="40.5594051" lon="17.1346091"><ele>33.333333333333336</ele><time>2026-04-11T09:30:26.029Z</time></trkpt><trkpt lat="40.559528" lon="17.1344899"><ele>34.0</ele><time>2026-04-11T09:30:26.991Z</time></trkpt><trkpt lat="40.5596454" lon="17.1343738"><ele>34.25</ele><time>2026-04-11T09:30:27.994Z</time></trkpt><trkpt lat="40.5597697" lon="17.1342537"><ele>34.5</ele><time>2026-04-11T09:30:28.993Z</time></trkpt><trkpt lat="40.5598719" lon="17.1341421"><ele>34.75</ele><time>2026-04-11T09:30:30.029Z</time></trkpt><trkpt lat="40.5599882" lon="17.134029"><ele>35.0</ele><time>2026-04-11T09:30:30.994Z</time></trkpt><trkpt lat="40.5601052" lon="17.1339266"><ele>34.75</ele><time>2026-04-11T09:30:31.997Z</time></trkpt><trkpt lat="40.5602114" lon="17.1338236"><ele>34.5</ele><time>2026-04-11T09:30:33.002Z</time></trkpt><trkpt lat="40.5603226" lon="17.133716"><ele>34.25</ele><time>2026-04-11T09:30:33.989Z</time></trkpt><trkpt lat="40.5604328" lon="17.1336211"><ele>34.0</ele><time>2026-04-11T09:30:34.989Z</time></trkpt><trkpt lat="40.5605426" lon="17.1335176"><ele>34.0</ele><time>2026-04-11T09:30:35.987Z</time></trkpt><trkpt lat="40.5606544" lon="17.1334161"><ele>34.0</ele><time>2026-04-11T09:30:36.996Z</time></trkpt><trkpt lat="40.5607634" lon="17.1333175"><ele>34.0</ele><time>2026-04-11T09:30:38.007Z</time></trkpt><trkpt lat="40.5608605" lon="17.1332256"><ele>34.0</ele><time>2026-04-11T09:30:38.996Z</time></trkpt><trkpt lat="40.560934" lon="17.1331543"><ele>34.16666666666667</ele><time>2026-04-11T09:30:40.027Z</time></trkpt><trkpt lat="40.5610207" lon="17.1330773"><ele>34.333333333333336</ele><time>2026-04-11T09:30:40.99Z</time></trkpt><trkpt lat="40.5610917" lon="17.1330173"><ele>34.5</ele><time>2026-04-11T09:30:42.001Z</time></trkpt><trkpt lat="40.5611716" lon="17.1329592"><ele>34.666666666666664</ele><time>2026-04-11T09:30:43.006Z</time></trkpt><trkpt lat="40.5612515" lon="17.1329114"><ele>34.83333333333333</ele><time>2026-04-11T09:30:43.998Z</time></trkpt><trkpt lat="40.5613243" lon="17.1328745"><ele>35.0</ele><time>2026-04-11T09:30:44.999Z</time></trkpt><trkpt lat="40.5613976" lon="17.132848"><ele>35.0</ele><time>2026-04-11T09:30:45.999Z</time></trkpt><trkpt lat="40.5614632" lon="17.1328216"><ele>35.0</ele><time>2026-04-11T09:30:47.002Z</time></trkpt><trkpt lat="40.561528" lon="17.1328017"><ele>35.0</ele><time>2026-04-11T09:30:48.004Z</time></trkpt><trkpt lat="40.5615966" lon="17.132806"><ele>35.0</ele><time>2026-04-11T09:30:49.001Z</time></trkpt><trkpt lat="40.5616708" lon="17.1328095"><ele>35.0</ele><time>2026-04-11T09:30:49.996Z</time></trkpt><trkpt lat="40.5617432" lon="17.1328112"><ele>35.0</ele><time>2026-04-11T09:30:51.007Z</time></trkpt><trkpt lat="40.5618138" lon="17.1327837"><ele>35.0</ele><time>2026-04-11T09:30:52.046Z</time></trkpt><trkpt lat="40.5618606" lon="17.132717"><ele>35.0</ele><time>2026-04-11T09:30:53.003Z</time></trkpt><trkpt lat="40.5619049" lon="17.1326496"><ele>35.0</ele><time>2026-04-11T09:30:53.988Z</time></trkpt><trkpt lat="40.5619209" lon="17.1325137"><ele>35.0</ele><time>2026-04-11T09:30:54.987Z</time></trkpt><trkpt lat="40.5619383" lon="17.1324045"><ele>35.0</ele><time>2026-04-11T09:30:55.998Z</time></trkpt><trkpt lat="40.5619605" lon="17.1322915"><ele>35.0</ele><time>2026-04-11T09:30:56.989Z</time></trkpt><trkpt lat="40.56203" lon="17.1321727"><ele>34.75</ele><time>2026-04-11T09:30:57.994Z</time></trkpt><trkpt lat="40.5620885" lon="17.1320531"><ele>34.5</ele><time>2026-04-11T09:30:58.994Z</time></trkpt><trkpt lat="40.5621774" lon="17.1319485"><ele>34.25</ele><time>2026-04-11T09:30:59.999Z</time></trkpt><trkpt lat="40.5622751" lon="17.1318422"><ele>34.0</ele><time>2026-04-11T09:31:00.998Z</time></trkpt><trkpt lat="40.5623624" lon="17.131733"><ele>34.0</ele><time>2026-04-11T09:31:02.024Z</time></trkpt><trkpt lat="40.5624565" lon="17.1316279"><ele>34.0</ele><time>2026-04-11T09:31:02.99Z</time></trkpt><trkpt lat="40.5625494" lon="17.1315215"><ele>34.0</ele><time>2026-04-11T09:31:04.002Z</time></trkpt><trkpt lat="40.5626568" lon="17.1314167"><ele>34.0</ele><time>2026-04-11T09:31:05.008Z</time></trkpt><trkpt lat="40.56277" lon="17.1313135"><ele>34.5</ele><time>2026-04-11T09:31:05.996Z</time></trkpt><trkpt lat="40.5628902" lon="17.1312134"><ele>35.0</ele><time>2026-04-11T09:31:06.998Z</time></trkpt><trkpt lat="40.5630198" lon="17.1310955"><ele>35.5</ele><time>2026-04-11T09:31:07.993Z</time></trkpt><trkpt lat="40.5631386" lon="17.1309809"><ele>36.0</ele><time>2026-04-11T09:31:08.994Z</time></trkpt><trkpt lat="40.5632746" lon="17.1308726"><ele>36.0</ele><time>2026-04-11T09:31:10.027Z</time></trkpt><trkpt lat="40.5633947" lon="17.1307538"><ele>36.0</ele><time>2026-04-11T09:31:11.001Z</time></trkpt><trkpt lat="40.5635242" lon="17.1306245"><ele>36.0</ele><time>2026-04-11T09:31:11.999Z</time></trkpt><trkpt lat="40.5636575" lon="17.1305009"><ele>35.666666666666664</ele><time>2026-04-11T09:31:13.001Z</time></trkpt><trkpt lat="40.5638001" lon="17.1303713"><ele>35.33333333333333</ele><time>2026-04-11T09:31:13.998Z</time></trkpt><trkpt lat="40.5639338" lon="17.1302427"><ele>35.0</ele><time>2026-04-11T09:31:14.986Z</time></trkpt><trkpt lat="40.5640724" lon="17.1301059"><ele>35.0</ele><time>2026-04-11T09:31:15.99Z</time></trkpt><trkpt lat="40.5642066" lon="17.1299753"><ele>35.0</ele><time>2026-04-11T09:31:16.987Z</time></trkpt><trkpt lat="40.5643311" lon="17.1298382"><ele>35.0</ele><time>2026-04-11T09:31:18.029Z</time></trkpt><trkpt lat="40.5644617" lon="17.1297102"><ele>35.0</ele><time>2026-04-11T09:31:19.013Z</time></trkpt><trkpt lat="40.5645918" lon="17.1295854"><ele>35.0</ele><time>2026-04-11T09:31:19.999Z</time></trkpt><trkpt lat="40.5647246" lon="17.1294517"><ele>35.0</ele><time>2026-04-11T09:31:21.004Z</time></trkpt><trkpt lat="40.5648586" lon="17.1293215"><ele>35.0</ele><time>2026-04-11T09:31:21.99Z</time></trkpt><trkpt lat="40.5650023" lon="17.1291858"><ele>35.0</ele><time>2026-04-11T09:31:22.989Z</time></trkpt><trkpt lat="40.5651497" lon="17.129057"><ele>35.0</ele><time>2026-04-11T09:31:23.999Z</time></trkpt><trkpt lat="40.5652862" lon="17.1289291"><ele>35.666666666666664</ele><time>2026-04-11T09:31:25.002Z</time></trkpt><trkpt lat="40.5654281" lon="17.1287998"><ele>36.333333333333336</ele><time>2026-04-11T09:31:26.002Z</time></trkpt><trkpt lat="40.5655698" lon="17.1286621"><ele>37.0</ele><time>2026-04-11T09:31:26.988Z</time></trkpt><trkpt lat="40.5657192" lon="17.1285074"><ele>37.0</ele><time>2026-04-11T09:31:27.996Z</time></trkpt><trkpt lat="40.5658617" lon="17.1283626"><ele>37.0</ele><time>2026-04-11T09:31:29.01Z</time></trkpt><trkpt lat="40.5660066" lon="17.1282161"><ele>37.0</ele><time>2026-04-11T09:31:29.997Z</time></trkpt><trkpt lat="40.566157" lon="17.1280661"><ele>37.0</ele><time>2026-04-11T09:31:31.007Z</time></trkpt><trkpt lat="40.5663078" lon="17.1279186"><ele>37.0</ele><time>2026-04-11T09:31:31.991Z</time></trkpt><trkpt lat="40.5664643" lon="17.1277865"><ele>37.0</ele><time>2026-04-11T09:31:32.998Z</time></trkpt><trkpt lat="40.566619" lon="17.1276369"><ele>37.0</ele><time>2026-04-11T09:31:34.005Z</time></trkpt><trkpt lat="40.5667725" lon="17.1274876"><ele>37.0</ele><time>2026-04-11T09:31:34.99Z</time></trkpt><trkpt lat="40.5669306" lon="17.1273381"><ele>37.0</ele><time>2026-04-11T09:31:36.001Z</time></trkpt><trkpt lat="40.5670861" lon="17.1271835"><ele>37.333333333333336</ele><time>2026-04-11T09:31:37.006Z</time></trkpt><trkpt lat="40.5672378" lon="17.1270375"><ele>37.666666666666664</ele><time>2026-04-11T09:31:37.997Z</time></trkpt><trkpt lat="40.5673904" lon="17.1268933"><ele>38.0</ele><time>2026-04-11T09:31:39.004Z</time></trkpt><trkpt lat="40.5675537" lon="17.1267475"><ele>38.0</ele><time>2026-04-11T09:31:39.998Z</time></trkpt><trkpt lat="40.5676979" lon="17.1266179"><ele>38.0</ele><time>2026-04-11T09:31:41Z</time></trkpt><trkpt lat="40.5678246" lon="17.1264881"><ele>38.0</ele><time>2026-04-11T09:31:41.999Z</time></trkpt><trkpt lat="40.5679558" lon="17.1263605"><ele>37.0</ele><time>2026-04-11T09:31:43.009Z</time></trkpt><trkpt lat="40.5680862" lon="17.1262425"><ele>36.0</ele><time>2026-04-11T09:31:44.006Z</time></trkpt><trkpt lat="40.5682299" lon="17.1261148"><ele>35.0</ele><time>2026-04-11T09:31:45.001Z</time></trkpt><trkpt lat="40.5683553" lon="17.1259925"><ele>35.0</ele><time>2026-04-11T09:31:45.999Z</time></trkpt><trkpt lat="40.5684834" lon="17.1258678"><ele>35.0</ele><time>2026-04-11T09:31:46.986Z</time></trkpt><trkpt lat="40.568608" lon="17.1257522"><ele>35.0</ele><time>2026-04-11T09:31:48.023Z</time></trkpt><trkpt lat="40.5687246" lon="17.1256304"><ele>35.5</ele><time>2026-04-11T09:31:49.029Z</time></trkpt><trkpt lat="40.5688358" lon="17.1255106"><ele>36.0</ele><time>2026-04-11T09:31:50.026Z</time></trkpt><trkpt lat="40.568954" lon="17.1253949"><ele>36.5</ele><time>2026-04-11T09:31:50.986Z</time></trkpt><trkpt lat="40.5690778" lon="17.1252679"><ele>37.0</ele><time>2026-04-11T09:31:51.993Z</time></trkpt><trkpt lat="40.5691964" lon="17.1251458"><ele>37.0</ele><time>2026-04-11T09:31:53.001Z</time></trkpt><trkpt lat="40.5693259" lon="17.1250308"><ele>37.0</ele><time>2026-04-11T09:31:54.074Z</time></trkpt><trkpt lat="40.5694519" lon="17.1249098"><ele>37.0</ele><time>2026-04-11T09:31:54.991Z</time></trkpt><trkpt lat="40.5695802" lon="17.1247762"><ele>37.0</ele><time>2026-04-11T09:31:55.993Z</time></trkpt><trkpt lat="40.5697061" lon="17.12465"><ele>37.0</ele><time>2026-04-11T09:31:57.026Z</time></trkpt><trkpt lat="40.5698343" lon="17.1245164"><ele>37.0</ele><time>2026-04-11T09:31:58.023Z</time></trkpt><trkpt lat="40.5699693" lon="17.1243868"><ele>37.0</ele><time>2026-04-11T09:31:59.027Z</time></trkpt><trkpt lat="40.5701003" lon="17.1242592"><ele>37.0</ele><time>2026-04-11T09:31:59.998Z</time></trkpt><trkpt lat="40.5702356" lon="17.1241283"><ele>37.0</ele><time>2026-04-11T09:32:00.988Z</time></trkpt><trkpt lat="40.570371" lon="17.1239844"><ele>37.333333333333336</ele><time>2026-04-11T09:32:01.99Z</time></trkpt><trkpt lat="40.5705111" lon="17.1238495"><ele>37.666666666666664</ele><time>2026-04-11T09:32:02.99Z</time></trkpt><trkpt lat="40.570657" lon="17.1237096"><ele>38.0</ele><time>2026-04-11T09:32:03.993Z</time></trkpt><trkpt lat="40.5708008" lon="17.123571"><ele>38.0</ele><time>2026-04-11T09:32:04.991Z</time></trkpt><trkpt lat="40.570955" lon="17.1234538"><ele>38.0</ele><time>2026-04-11T09:32:06.014Z</time></trkpt><trkpt lat="40.5710842" lon="17.1233232"><ele>38.0</ele><time>2026-04-11T09:32:07.031Z</time></trkpt><trkpt lat="40.5712093" lon="17.1232011"><ele>38.33333333333333</ele><time>2026-04-11T09:32:08.001Z</time></trkpt><trkpt lat="40.5713372" lon="17.1230782"><ele>38.666666666666664</ele><time>2026-04-11T09:32:09.006Z</time></trkpt><trkpt lat="40.5714644" lon="17.1229498"><ele>39.0</ele><time>2026-04-11T09:32:09.998Z</time></trkpt><trkpt lat="40.57161" lon="17.1228445"><ele>39.0</ele><time>2026-04-11T09:32:11.082Z</time></trkpt><trkpt lat="40.5717397" lon="17.1227064"><ele>39.0</ele><time>2026-04-11T09:32:12.029Z</time></trkpt><trkpt lat="40.5718735" lon="17.1225793"><ele>39.0</ele><time>2026-04-11T09:32:12.995Z</time></trkpt><trkpt lat="40.5720065" lon="17.1224507"><ele>39.666666666666664</ele><time>2026-04-11T09:32:13.997Z</time></trkpt><trkpt lat="40.5721411" lon="17.1223272"><ele>40.33333333333333</ele><time>2026-04-11T09:32:15.001Z</time></trkpt><trkpt lat="40.5722737" lon="17.1221888"><ele>41.0</ele><time>2026-04-11T09:32:16.027Z</time></trkpt><trkpt lat="40.5724103" lon="17.1220577"><ele>41.0</ele><time>2026-04-11T09:32:17.006Z</time></trkpt><trkpt lat="40.5725526" lon="17.121921"><ele>41.0</ele><time>2026-04-11T09:32:18.027Z</time></trkpt><trkpt lat="40.5726969" lon="17.1217826"><ele>41.0</ele><time>2026-04-11T09:32:18.984Z</time></trkpt><trkpt lat="40.5728415" lon="17.1216504"><ele>40.666666666666664</ele><time>2026-04-11T09:32:20.023Z</time></trkpt><trkpt lat="40.5729832" lon="17.1215164"><ele>40.333333333333336</ele><time>2026-04-11T09:32:21.001Z</time></trkpt><trkpt lat="40.5730936" lon="17.1213819"><ele>40.0</ele><time>2026-04-11T09:32:22.003Z</time></trkpt><trkpt lat="40.5732103" lon="17.1212798"><ele>40.0</ele><time>2026-04-11T09:32:23.01Z</time></trkpt><trkpt lat="40.5733271" lon="17.121163"><ele>40.0</ele><time>2026-04-11T09:32:24.006Z</time></trkpt><trkpt lat="40.5734384" lon="17.1210513"><ele>40.0</ele><time>2026-04-11T09:32:25.036Z</time></trkpt><trkpt lat="40.5735519" lon="17.1209448"><ele>40.0</ele><time>2026-04-11T09:32:25.987Z</time></trkpt><trkpt lat="40.5736657" lon="17.1208379"><ele>40.5</ele><time>2026-04-11T09:32:26.991Z</time></trkpt><trkpt lat="40.5737832" lon="17.120736"><ele>41.0</ele><time>2026-04-11T09:32:27.999Z</time></trkpt><trkpt lat="40.5739018" lon="17.1206216"><ele>41.5</ele><time>2026-04-11T09:32:29.001Z</time></trkpt><trkpt lat="40.5740236" lon="17.1205003"><ele>42.0</ele><time>2026-04-11T09:32:30.028Z</time></trkpt><trkpt lat="40.5741448" lon="17.120381"><ele>42.0</ele><time>2026-04-11T09:32:30.988Z</time></trkpt><trkpt lat="40.5742783" lon="17.1202466"><ele>42.0</ele><time>2026-04-11T09:32:32.028Z</time></trkpt><trkpt lat="40.5744063" lon="17.1201243"><ele>42.0</ele><time>2026-04-11T09:32:32.99Z</time></trkpt><trkpt lat="40.5745513" lon="17.1200232"><ele>42.0</ele><time>2026-04-11T09:32:34.023Z</time></trkpt><trkpt lat="40.5746836" lon="17.1199012"><ele>42.0</ele><time>2026-04-11T09:32:34.988Z</time></trkpt><trkpt lat="40.5747961" lon="17.1197964"><ele>42.0</ele><time>2026-04-11T09:32:35.993Z</time></trkpt><trkpt lat="40.5749143" lon="17.1196856"><ele>42.0</ele><time>2026-04-11T09:32:36.99Z</time></trkpt><trkpt lat="40.5750292" lon="17.1196003"><ele>42.0</ele><time>2026-04-11T09:32:37.997Z</time></trkpt><trkpt lat="40.5751292" lon="17.1195219"><ele>42.0</ele><time>2026-04-11T09:32:39.001Z</time></trkpt><trkpt lat="40.5752245" lon="17.1194571"><ele>42.0</ele><time>2026-04-11T09:32:40.035Z</time></trkpt><trkpt lat="40.5753207" lon="17.1193924"><ele>42.0</ele><time>2026-04-11T09:32:40.989Z</time></trkpt><trkpt lat="40.5754009" lon="17.1193405"><ele>42.0</ele><time>2026-04-11T09:32:41.991Z</time></trkpt><trkpt lat="40.5754875" lon="17.1192909"><ele>42.166666666666664</ele><time>2026-04-11T09:32:42.987Z</time></trkpt><trkpt lat="40.5755544" lon="17.1192578"><ele>42.333333333333336</ele><time>2026-04-11T09:32:43.996Z</time></trkpt><trkpt lat="40.5756272" lon="17.1192412"><ele>42.5</ele><time>2026-04-11T09:32:44.999Z</time></trkpt><trkpt lat="40.5756972" lon="17.1192357"><ele>42.66666666666667</ele><time>2026-04-11T09:32:46Z</time></trkpt><trkpt lat="40.5757719" lon="17.1192406"><ele>42.833333333333336</ele><time>2026-04-11T09:32:47.002Z</time></trkpt><trkpt lat="40.5758373" lon="17.1192509"><ele>43.0</ele><time>2026-04-11T09:32:47.999Z</time></trkpt><trkpt lat="40.5759634" lon="17.1192764"><ele>43.0</ele><time>2026-04-11T09:32:50.032Z</time></trkpt><trkpt lat="40.576029" lon="17.119283"><ele>43.0</ele><time>2026-04-11T09:32:50.989Z</time></trkpt><trkpt lat="40.5760738" lon="17.1191767"><ele>43.0</ele><time>2026-04-11T09:32:51.989Z</time></trkpt><trkpt lat="40.5761213" lon="17.1191207"><ele>43.0</ele><time>2026-04-11T09:32:52.987Z</time></trkpt><trkpt lat="40.5761321" lon="17.1189959"><ele>43.0</ele><time>2026-04-11T09:32:54.022Z</time></trkpt><trkpt lat="40.5761513" lon="17.1189044"><ele>43.0</ele><time>2026-04-11T09:32:54.989Z</time></trkpt><trkpt lat="40.576173" lon="17.1188052"><ele>43.0</ele><time>2026-04-11T09:32:55.991Z</time></trkpt><trkpt lat="40.5762019" lon="17.1186858"><ele>43.0</ele><time>2026-04-11T09:32:57.005Z</time></trkpt><trkpt lat="40.5762376" lon="17.1185765"><ele>43.0</ele><time>2026-04-11T09:32:57.989Z</time></trkpt><trkpt lat="40.5763045" lon="17.1184665"><ele>43.0</ele><time>2026-04-11T09:32:58.992Z</time></trkpt><trkpt lat="40.5763803" lon="17.1183613"><ele>43.0</ele><time>2026-04-11T09:32:59.998Z</time></trkpt><trkpt lat="40.5764498" lon="17.1182569"><ele>43.2</ele><time>2026-04-11T09:33:01.026Z</time></trkpt><trkpt lat="40.5765231" lon="17.118151"><ele>43.4</ele><time>2026-04-11T09:33:01.986Z</time></trkpt><trkpt lat="40.5766072" lon="17.1180628"><ele>43.6</ele><time>2026-04-11T09:33:02.997Z</time></trkpt><trkpt lat="40.5766903" lon="17.1179654"><ele>43.800000000000004</ele><time>2026-04-11T09:33:04.025Z</time></trkpt><trkpt lat="40.5767828" lon="17.1178753"><ele>44.0</ele><time>2026-04-11T09:33:05.03Z</time></trkpt><trkpt lat="40.576885" lon="17.1177768"><ele>44.0</ele><time>2026-04-11T09:33:06.027Z</time></trkpt><trkpt lat="40.5769911" lon="17.1176742"><ele>44.0</ele><time>2026-04-11T09:33:07Z</time></trkpt><trkpt lat="40.5771023" lon="17.1175668"><ele>44.0</ele><time>2026-04-11T09:33:08.001Z</time></trkpt><trkpt lat="40.5772017" lon="17.1174546"><ele>44.0</ele><time>2026-04-11T09:33:08.998Z</time></trkpt><trkpt lat="40.5773135" lon="17.1173537"><ele>44.75</ele><time>2026-04-11T09:33:10.002Z</time></trkpt><trkpt lat="40.5774279" lon="17.1172466"><ele>45.5</ele><time>2026-04-11T09:33:11.003Z</time></trkpt><trkpt lat="40.5775424" lon="17.1171366"><ele>46.25</ele><time>2026-04-11T09:33:12.002Z</time></trkpt><trkpt lat="40.5776609" lon="17.1170244"><ele>47.0</ele><time>2026-04-11T09:33:12.99Z</time></trkpt><trkpt lat="40.5777912" lon="17.1169091"><ele>47.33333333333333</ele><time>2026-04-11T09:33:13.994Z</time></trkpt><trkpt lat="40.5779097" lon="17.1167849"><ele>47.666666666666664</ele><time>2026-04-11T09:33:15Z</time></trkpt><trkpt lat="40.5780332" lon="17.1166613"><ele>48.0</ele><time>2026-04-11T09:33:16.004Z</time></trkpt><trkpt lat="40.5781616" lon="17.1165391"><ele>48.0</ele><time>2026-04-11T09:33:16.989Z</time></trkpt><trkpt lat="40.5782845" lon="17.1164284"><ele>48.0</ele><time>2026-04-11T09:33:17.993Z</time></trkpt><trkpt lat="40.5784178" lon="17.1162956"><ele>48.0</ele><time>2026-04-11T09:33:19.027Z</time></trkpt><trkpt lat="40.5785535" lon="17.1161663"><ele>48.0</ele><time>2026-04-11T09:33:19.985Z</time></trkpt><trkpt lat="40.5786886" lon="17.1160328"><ele>48.0</ele><time>2026-04-11T09:33:20.989Z</time></trkpt><trkpt lat="40.5788368" lon="17.1158986"><ele>48.0</ele><time>2026-04-11T09:33:22.002Z</time></trkpt><trkpt lat="40.5789925" lon="17.115767"><ele>48.0</ele><time>2026-04-11T09:33:23.041Z</time></trkpt><trkpt lat="40.5791382" lon="17.1156328"><ele>48.0</ele><time>2026-04-11T09:33:23.989Z</time></trkpt><trkpt lat="40.5792802" lon="17.1154904"><ele>48.0</ele><time>2026-04-11T09:33:24.991Z</time></trkpt><trkpt lat="40.5794144" lon="17.1153651"><ele>47.666666666666664</ele><time>2026-04-11T09:33:26.031Z</time></trkpt><trkpt lat="40.5795489" lon="17.1152401"><ele>47.33333333333333</ele><time>2026-04-11T09:33:27.003Z</time></trkpt><trkpt lat="40.5796807" lon="17.1151134"><ele>47.0</ele><time>2026-04-11T09:33:28.007Z</time></trkpt><trkpt lat="40.5798099" lon="17.1149819"><ele>47.0</ele><time>2026-04-11T09:33:29.005Z</time></trkpt><trkpt lat="40.5799547" lon="17.114871"><ele>47.0</ele><time>2026-04-11T09:33:29.998Z</time></trkpt><trkpt lat="40.5800782" lon="17.1147463"><ele>47.0</ele><time>2026-04-11T09:33:31.001Z</time></trkpt><trkpt lat="40.5802" lon="17.1146279"><ele>47.0</ele><time>2026-04-11T09:33:31.998Z</time></trkpt><trkpt lat="40.5803134" lon="17.1145166"><ele>47.0</ele><time>2026-04-11T09:33:33.004Z</time></trkpt><trkpt lat="40.5804218" lon="17.1144169"><ele>47.0</ele><time>2026-04-11T09:33:33.999Z</time></trkpt><trkpt lat="40.5805286" lon="17.1143163"><ele>47.0</ele><time>2026-04-11T09:33:35.003Z</time></trkpt><trkpt lat="40.5806359" lon="17.1142192"><ele>47.25</ele><time>2026-04-11T09:33:36.029Z</time></trkpt><trkpt lat="40.5807499" lon="17.1141176"><ele>47.5</ele><time>2026-04-11T09:33:37.029Z</time></trkpt><trkpt lat="40.580863" lon="17.1140152"><ele>47.75</ele><time>2026-04-11T09:33:38.027Z</time></trkpt><trkpt lat="40.5809759" lon="17.1139083"><ele>48.0</ele><time>2026-04-11T09:33:38.984Z</time></trkpt><trkpt lat="40.5810632" lon="17.1137951"><ele>48.0</ele><time>2026-04-11T09:33:39.996Z</time></trkpt><trkpt lat="40.5811582" lon="17.1137061"><ele>48.0</ele><time>2026-04-11T09:33:41Z</time></trkpt><trkpt lat="40.5812537" lon="17.1136225"><ele>48.0</ele><time>2026-04-11T09:33:42Z</time></trkpt><trkpt lat="40.5813504" lon="17.1135421"><ele>48.0</ele><time>2026-04-11T09:33:43.006Z</time></trkpt><trkpt lat="40.5814281" lon="17.1134669"><ele>48.0</ele><time>2026-04-11T09:33:44Z</time></trkpt><trkpt lat="40.581504" lon="17.1133937"><ele>48.5</ele><time>2026-04-11T09:33:44.998Z</time></trkpt><trkpt lat="40.5815797" lon="17.1133192"><ele>49.0</ele><time>2026-04-11T09:33:45.998Z</time></trkpt><trkpt lat="40.5816511" lon="17.1132505"><ele>49.5</ele><time>2026-04-11T09:33:46.998Z</time></trkpt><trkpt lat="40.5817211" lon="17.1131795"><ele>50.0</ele><time>2026-04-11T09:33:48.003Z</time></trkpt><trkpt lat="40.5817812" lon="17.1131187"><ele>50.5</ele><time>2026-04-11T09:33:49.004Z</time></trkpt><trkpt lat="40.5818361" lon="17.113051"><ele>51.0</ele><time>2026-04-11T09:33:50.002Z</time></trkpt><trkpt lat="40.5818916" lon="17.1129924"><ele>51.0</ele><time>2026-04-11T09:33:50.999Z</time></trkpt><trkpt lat="40.5819529" lon="17.1129337"><ele>51.0</ele><time>2026-04-11T09:33:51.996Z</time></trkpt><trkpt lat="40.5820113" lon="17.112873"><ele>51.0</ele><time>2026-04-11T09:33:52.987Z</time></trkpt><trkpt lat="40.5820811" lon="17.1128118"><ele>51.0</ele><time>2026-04-11T09:33:53.994Z</time></trkpt><trkpt lat="40.5821446" lon="17.1127475"><ele>51.0</ele><time>2026-04-11T09:33:54.99Z</time></trkpt><trkpt lat="40.5822014" lon="17.1126801"><ele>51.0</ele><time>2026-04-11T09:33:55.988Z</time></trkpt><trkpt lat="40.5822443" lon="17.1126128"><ele>51.166666666666664</ele><time>2026-04-11T09:33:56.996Z</time></trkpt><trkpt lat="40.5822983" lon="17.1125521"><ele>51.33333333333333</ele><time>2026-04-11T09:33:57.993Z</time></trkpt><trkpt lat="40.5823974" lon="17.1124589"><ele>51.5</ele><time>2026-04-11T09:33:59.999Z</time></trkpt><trkpt lat="40.5824633" lon="17.1124006"><ele>51.666666666666664</ele><time>2026-04-11T09:34:01.997Z</time></trkpt><trkpt lat="40.5825291" lon="17.1123721"><ele>51.83333333333333</ele><time>2026-04-11T09:34:03.994Z</time></trkpt><trkpt lat="40.5826155" lon="17.1123525"><ele>52.0</ele><time>2026-04-11T09:34:05.995Z</time></trkpt><trkpt lat="40.5826797" lon="17.1123583"><ele>52.166666666666664</ele><time>2026-04-11T09:34:07.011Z</time></trkpt><trkpt lat="40.5827838" lon="17.1123653"><ele>52.33333333333333</ele><time>2026-04-11T09:34:09.024Z</time></trkpt><trkpt lat="40.5828574" lon="17.1123766"><ele>52.5</ele><time>2026-04-11T09:34:11.026Z</time></trkpt><trkpt lat="40.5829336" lon="17.1123406"><ele>52.66666666666667</ele><time>2026-04-11T09:34:12.984Z</time></trkpt><trkpt lat="40.5829992" lon="17.1122276"><ele>52.833333333333336</ele><time>2026-04-11T09:34:14.986Z</time></trkpt><trkpt lat="40.5830024" lon="17.1121263"><ele>53.0</ele><time>2026-04-11T09:34:16Z</time></trkpt><trkpt lat="40.5830164" lon="17.1120351"><ele>53.00000000000001</ele><time>2026-04-11T09:34:17.006Z</time></trkpt><trkpt lat="40.583043" lon="17.111945"><ele>53.0</ele><time>2026-04-11T09:34:18.025Z</time></trkpt><trkpt lat="40.5830696" lon="17.1118469"><ele>53.0</ele><time>2026-04-11T09:34:18.998Z</time></trkpt><trkpt lat="40.5831075" lon="17.1117515"><ele>53.0</ele><time>2026-04-11T09:34:20.051Z</time></trkpt><trkpt lat="40.5831491" lon="17.1116585"><ele>53.00000000000001</ele><time>2026-04-11T09:34:20.987Z</time></trkpt><trkpt lat="40.5832164" lon="17.1115607"><ele>53.0</ele><time>2026-04-11T09:34:22.017Z</time></trkpt><trkpt lat="40.5832828" lon="17.1114545"><ele>52.5</ele><time>2026-04-11T09:34:22.987Z</time></trkpt><trkpt lat="40.5833724" lon="17.1113213"><ele>52.0</ele><time>2026-04-11T09:34:24.024Z</time></trkpt><trkpt lat="40.5834554" lon="17.1111924"><ele>51.5</ele><time>2026-04-11T09:34:25.003Z</time></trkpt><trkpt lat="40.5835532" lon="17.1110654"><ele>51.0</ele><time>2026-04-11T09:34:26.026Z</time></trkpt><trkpt lat="40.5836459" lon="17.1109483"><ele>51.0</ele><time>2026-04-11T09:34:27.02Z</time></trkpt><trkpt lat="40.5837419" lon="17.110823"><ele>51.0</ele><time>2026-04-11T09:34:27.983Z</time></trkpt><trkpt lat="40.583816" lon="17.1107239"><ele>51.0</ele><time>2026-04-11T09:34:28.995Z</time></trkpt><trkpt lat="40.583882" lon="17.1106282"><ele>51.0</ele><time>2026-04-11T09:34:30Z</time></trkpt><trkpt lat="40.5839488" lon="17.1105476"><ele>51.0</ele><time>2026-04-11T09:34:31.002Z</time></trkpt><trkpt lat="40.5840141" lon="17.1104612"><ele>51.0</ele><time>2026-04-11T09:34:31.988Z</time></trkpt><trkpt lat="40.5840699" lon="17.1103911"><ele>51.0</ele><time>2026-04-11T09:34:32.995Z</time></trkpt><trkpt lat="40.5841196" lon="17.1103157"><ele>51.0</ele><time>2026-04-11T09:34:34.001Z</time></trkpt><trkpt lat="40.5841665" lon="17.1102492"><ele>51.0</ele><time>2026-04-11T09:34:34.994Z</time></trkpt><trkpt lat="40.5842391" lon="17.1101382"><ele>51.0</ele><time>2026-04-11T09:34:37.007Z</time></trkpt><trkpt lat="40.5843071" lon="17.110045"><ele>51.0</ele><time>2026-04-11T09:34:39.003Z</time></trkpt><trkpt lat="40.5843731" lon="17.1099453"><ele>51.0</ele><time>2026-04-11T09:34:40.986Z</time></trkpt><trkpt lat="40.5844508" lon="17.1098507"><ele>51.0</ele><time>2026-04-11T09:34:42.998Z</time></trkpt><trkpt lat="40.5845209" lon="17.1097684"><ele>51.0</ele><time>2026-04-11T09:34:45.001Z</time></trkpt><trkpt lat="40.5846086" lon="17.1096559"><ele>51.0</ele><time>2026-04-11T09:34:46.995Z</time></trkpt><trkpt lat="40.5846667" lon="17.1095945"><ele>51.0</ele><time>2026-04-11T09:34:48.049Z</time></trkpt><trkpt lat="40.5847236" lon="17.1095191"><ele>51.0</ele><time>2026-04-11T09:34:49.005Z</time></trkpt><trkpt lat="40.5847915" lon="17.1094332"><ele>51.0</ele><time>2026-04-11T09:34:49.998Z</time></trkpt><trkpt lat="40.5848538" lon="17.1093514"><ele>51.0</ele><time>2026-04-11T09:34:50.991Z</time></trkpt><trkpt lat="40.5849296" lon="17.109276"><ele>51.0</ele><time>2026-04-11T09:34:51.998Z</time></trkpt><trkpt lat="40.5849865" lon="17.109201"><ele>51.0</ele><time>2026-04-11T09:34:53.001Z</time></trkpt><trkpt lat="40.5850457" lon="17.1091251"><ele>51.0</ele><time>2026-04-11T09:34:53.987Z</time></trkpt><trkpt lat="40.5851037" lon="17.1090677"><ele>50.599999999999994</ele><time>2026-04-11T09:34:55.019Z</time></trkpt><trkpt lat="40.5851729" lon="17.1089575"><ele>50.2</ele><time>2026-04-11T09:34:56.996Z</time></trkpt><trkpt lat="40.5852445" lon="17.1088782"><ele>49.8</ele><time>2026-04-11T09:34:58.998Z</time></trkpt><trkpt lat="40.5853108" lon="17.1087777"><ele>49.400000000000006</ele><time>2026-04-11T09:35:01.006Z</time></trkpt><trkpt lat="40.5853738" lon="17.1086713"><ele>49.0</ele><time>2026-04-11T09:35:02.993Z</time></trkpt><trkpt lat="40.5854354" lon="17.1085703"><ele>49.166666666666664</ele><time>2026-04-11T09:35:05.004Z</time></trkpt><trkpt lat="40.5855044" lon="17.1084864"><ele>49.33333333333333</ele><time>2026-04-11T09:35:06.994Z</time></trkpt><trkpt lat="40.5855562" lon="17.1084231"><ele>49.5</ele><time>2026-04-11T09:35:08.996Z</time></trkpt><trkpt lat="40.5856073" lon="17.1083638"><ele>49.66666666666667</ele><time>2026-04-11T09:35:11.003Z</time></trkpt><trkpt lat="40.5856491" lon="17.108288"><ele>49.833333333333336</ele><time>2026-04-11T09:35:12.998Z</time></trkpt><trkpt lat="40.5857111" lon="17.1082078"><ele>50.0</ele><time>2026-04-11T09:35:14.983Z</time></trkpt><trkpt lat="40.5857713" lon="17.108146"><ele>50.0</ele><time>2026-04-11T09:35:17.008Z</time></trkpt><trkpt lat="40.5858552" lon="17.1080789"><ele>50.0</ele><time>2026-04-11T09:35:18.998Z</time></trkpt><trkpt lat="40.5859518" lon="17.1079606"><ele>50.0</ele><time>2026-04-11T09:35:21.022Z</time></trkpt><trkpt lat="40.5860003" lon="17.1078786"><ele>50.0</ele><time>2026-04-11T09:35:22Z</time></trkpt><trkpt lat="40.5860514" lon="17.1077904"><ele>50.0</ele><time>2026-04-11T09:35:22.988Z</time></trkpt><trkpt lat="40.5861048" lon="17.1076932"><ele>50.0</ele><time>2026-04-11T09:35:24.001Z</time></trkpt><trkpt lat="40.5861691" lon="17.1075855"><ele>50.0</ele><time>2026-04-11T09:35:25.028Z</time></trkpt><trkpt lat="40.5862326" lon="17.1074755"><ele>50.0</ele><time>2026-04-11T09:35:26.022Z</time></trkpt><trkpt lat="40.5863078" lon="17.1073504"><ele>50.0</ele><time>2026-04-11T09:35:26.991Z</time></trkpt><trkpt lat="40.586383" lon="17.1072292"><ele>50.0</ele><time>2026-04-11T09:35:28.002Z</time></trkpt><trkpt lat="40.5864545" lon="17.1070971"><ele>50.0</ele><time>2026-04-11T09:35:28.996Z</time></trkpt><trkpt lat="40.5865288" lon="17.1069508"><ele>50.0</ele><time>2026-04-11T09:35:29.995Z</time></trkpt><trkpt lat="40.5865977" lon="17.1068051"><ele>50.0</ele><time>2026-04-11T09:35:30.999Z</time></trkpt><trkpt lat="40.5866657" lon="17.1066557"><ele>50.0</ele><time>2026-04-11T09:35:31.993Z</time></trkpt><trkpt lat="40.5867373" lon="17.1064942"><ele>49.75</ele><time>2026-04-11T09:35:32.999Z</time></trkpt><trkpt lat="40.5868149" lon="17.1063255"><ele>49.5</ele><time>2026-04-11T09:35:34.001Z</time></trkpt><trkpt lat="40.5868901" lon="17.1061547"><ele>49.25</ele><time>2026-04-11T09:35:34.998Z</time></trkpt><trkpt lat="40.5869636" lon="17.105986"><ele>49.0</ele><time>2026-04-11T09:35:36.002Z</time></trkpt><trkpt lat="40.5870417" lon="17.1058243"><ele>49.0</ele><time>2026-04-11T09:35:36.987Z</time></trkpt><trkpt lat="40.5871139" lon="17.1056487"><ele>49.0</ele><time>2026-04-11T09:35:37.991Z</time></trkpt><trkpt lat="40.5871893" lon="17.1054671"><ele>49.0</ele><time>2026-04-11T09:35:38.997Z</time></trkpt><trkpt lat="40.5872691" lon="17.1052971"><ele>49.0</ele><time>2026-04-11T09:35:39.987Z</time></trkpt><trkpt lat="40.5873452" lon="17.1051294"><ele>49.0</ele><time>2026-04-11T09:35:41.003Z</time></trkpt><trkpt lat="40.5874262" lon="17.104958"><ele>49.0</ele><time>2026-04-11T09:35:41.994Z</time></trkpt><trkpt lat="40.5875094" lon="17.1047835"><ele>48.75</ele><time>2026-04-11T09:35:43.021Z</time></trkpt><trkpt lat="40.5875814" lon="17.1046168"><ele>48.5</ele><time>2026-04-11T09:35:43.995Z</time></trkpt><trkpt lat="40.5876579" lon="17.1044528"><ele>48.25</ele><time>2026-04-11T09:35:44.985Z</time></trkpt><trkpt lat="40.5877285" lon="17.1043121"><ele>48.0</ele><time>2026-04-11T09:35:46.021Z</time></trkpt><trkpt lat="40.5877926" lon="17.1041763"><ele>48.5</ele><time>2026-04-11T09:35:47.002Z</time></trkpt><trkpt lat="40.5878634" lon="17.1040379"><ele>49.0</ele><time>2026-04-11T09:35:48.032Z</time></trkpt><trkpt lat="40.5879329" lon="17.1039001"><ele>49.5</ele><time>2026-04-11T09:35:48.986Z</time></trkpt><trkpt lat="40.5880058" lon="17.1037608"><ele>50.0</ele><time>2026-04-11T09:35:50.021Z</time></trkpt><trkpt lat="40.5880736" lon="17.1036277"><ele>50.0</ele><time>2026-04-11T09:35:50.987Z</time></trkpt><trkpt lat="40.5881309" lon="17.1034917"><ele>50.0</ele><time>2026-04-11T09:35:52.023Z</time></trkpt><trkpt lat="40.5881911" lon="17.1033642"><ele>50.0</ele><time>2026-04-11T09:35:52.989Z</time></trkpt><trkpt lat="40.5882549" lon="17.1032285"><ele>50.0</ele><time>2026-04-11T09:35:53.985Z</time></trkpt><trkpt lat="40.5883163" lon="17.1030817"><ele>50.25</ele><time>2026-04-11T09:35:54.998Z</time></trkpt><trkpt lat="40.5883801" lon="17.1029251"><ele>50.5</ele><time>2026-04-11T09:35:56.005Z</time></trkpt><trkpt lat="40.5884486" lon="17.1027686"><ele>50.75</ele><time>2026-04-11T09:35:56.985Z</time></trkpt><trkpt lat="40.5885269" lon="17.1026148"><ele>51.0</ele><time>2026-04-11T09:35:58.029Z</time></trkpt><trkpt lat="40.5885997" lon="17.102454"><ele>51.75</ele><time>2026-04-11T09:35:58.992Z</time></trkpt><trkpt lat="40.5886771" lon="17.1022941"><ele>52.5</ele><time>2026-04-11T09:35:59.997Z</time></trkpt><trkpt lat="40.5887508" lon="17.1021369"><ele>53.25</ele><time>2026-04-11T09:36:00.986Z</time></trkpt><trkpt lat="40.5888277" lon="17.1019874"><ele>54.0</ele><time>2026-04-11T09:36:02.02Z</time></trkpt><trkpt lat="40.5889056" lon="17.1018182"><ele>54.0</ele><time>2026-04-11T09:36:02.998Z</time></trkpt><trkpt lat="40.5889825" lon="17.1016522"><ele>54.0</ele><time>2026-04-11T09:36:03.993Z</time></trkpt><trkpt lat="40.5890671" lon="17.10148"><ele>54.0</ele><time>2026-04-11T09:36:05.026Z</time></trkpt><trkpt lat="40.5891481" lon="17.1013044"><ele>53.66666666666667</ele><time>2026-04-11T09:36:05.987Z</time></trkpt><trkpt lat="40.5892286" lon="17.1011264"><ele>53.333333333333336</ele><time>2026-04-11T09:36:06.995Z</time></trkpt><trkpt lat="40.5893152" lon="17.1009517"><ele>53.0</ele><time>2026-04-11T09:36:07.992Z</time></trkpt><trkpt lat="40.5894024" lon="17.1007738"><ele>53.0</ele><time>2026-04-11T09:36:09.024Z</time></trkpt><trkpt lat="40.589484" lon="17.1005839"><ele>53.0</ele><time>2026-04-11T09:36:10.002Z</time></trkpt><trkpt lat="40.5895596" lon="17.1004141"><ele>53.0</ele><time>2026-04-11T09:36:10.993Z</time></trkpt><trkpt lat="40.589652" lon="17.1002311"><ele>54.0</ele><time>2026-04-11T09:36:12.104Z</time></trkpt><trkpt lat="40.5897992" lon="17.0998725"><ele>55.0</ele><time>2026-04-11T09:36:13.989Z</time></trkpt><trkpt lat="40.5898788" lon="17.0997038"><ele>55.0</ele><time>2026-04-11T09:36:15.023Z</time></trkpt><trkpt lat="40.589958" lon="17.0995295"><ele>55.0</ele><time>2026-04-11T09:36:15.987Z</time></trkpt><trkpt lat="40.5900341" lon="17.0993529"><ele>55.0</ele><time>2026-04-11T09:36:17.01Z</time></trkpt><trkpt lat="40.5901115" lon="17.0991788"><ele>55.0</ele><time>2026-04-11T09:36:18.003Z</time></trkpt><trkpt lat="40.5901891" lon="17.099015"><ele>55.0</ele><time>2026-04-11T09:36:19.023Z</time></trkpt><trkpt lat="40.5902871" lon="17.0988383"><ele>55.0</ele><time>2026-04-11T09:36:19.995Z</time></trkpt><trkpt lat="40.5903901" lon="17.0986606"><ele>55.0</ele><time>2026-04-11T09:36:21.021Z</time></trkpt><trkpt lat="40.5904686" lon="17.0984834"><ele>55.0</ele><time>2026-04-11T09:36:22.033Z</time></trkpt><trkpt lat="40.5905555" lon="17.0982902"><ele>55.0</ele><time>2026-04-11T09:36:23.003Z</time></trkpt><trkpt lat="40.5906372" lon="17.098114"><ele>55.0</ele><time>2026-04-11T09:36:23.987Z</time></trkpt><trkpt lat="40.590718" lon="17.0979464"><ele>55.0</ele><time>2026-04-11T09:36:24.994Z</time></trkpt><trkpt lat="40.5907939" lon="17.097768"><ele>55.0</ele><time>2026-04-11T09:36:26.014Z</time></trkpt><trkpt lat="40.5908761" lon="17.0975893"><ele>55.0</ele><time>2026-04-11T09:36:26.998Z</time></trkpt><trkpt lat="40.5909483" lon="17.0974281"><ele>55.0</ele><time>2026-04-11T09:36:27.998Z</time></trkpt><trkpt lat="40.5910225" lon="17.0972678"><ele>55.0</ele><time>2026-04-11T09:36:28.984Z</time></trkpt><trkpt lat="40.5910944" lon="17.0971114"><ele>55.0</ele><time>2026-04-11T09:36:30.026Z</time></trkpt><trkpt lat="40.5911608" lon="17.096964"><ele>55.5</ele><time>2026-04-11T09:36:31.031Z</time></trkpt><trkpt lat="40.5912307" lon="17.0968109"><ele>56.0</ele><time>2026-04-11T09:36:32.029Z</time></trkpt><trkpt lat="40.5912998" lon="17.0966576"><ele>56.5</ele><time>2026-04-11T09:36:33.003Z</time></trkpt><trkpt lat="40.5913612" lon="17.096493"><ele>57.0</ele><time>2026-04-11T09:36:33.999Z</time></trkpt><trkpt lat="40.5914312" lon="17.0963401"><ele>57.5</ele><time>2026-04-11T09:36:35.001Z</time></trkpt><trkpt lat="40.5915034" lon="17.0961816"><ele>58.0</ele><time>2026-04-11T09:36:36.003Z</time></trkpt><trkpt lat="40.5915771" lon="17.096018"><ele>58.5</ele><time>2026-04-11T09:36:37.001Z</time></trkpt><trkpt lat="40.5916499" lon="17.0958616"><ele>59.0</ele><time>2026-04-11T09:36:38.004Z</time></trkpt><trkpt lat="40.5917333" lon="17.0957181"><ele>59.25</ele><time>2026-04-11T09:36:38.995Z</time></trkpt><trkpt lat="40.591814" lon="17.0955446"><ele>59.5</ele><time>2026-04-11T09:36:40.03Z</time></trkpt><trkpt lat="40.5918877" lon="17.0953879"><ele>59.75</ele><time>2026-04-11T09:36:40.998Z</time></trkpt><trkpt lat="40.5919646" lon="17.0952247"><ele>60.0</ele><time>2026-04-11T09:36:42.002Z</time></trkpt><trkpt lat="40.5920382" lon="17.0950684"><ele>59.75</ele><time>2026-04-11T09:36:42.998Z</time></trkpt><trkpt lat="40.5921048" lon="17.0949223"><ele>59.5</ele><time>2026-04-11T09:36:43.992Z</time></trkpt><trkpt lat="40.5921666" lon="17.0947832"><ele>59.25</ele><time>2026-04-11T09:36:45.025Z</time></trkpt><trkpt lat="40.5922278" lon="17.0946385"><ele>59.0</ele><time>2026-04-11T09:36:45.995Z</time></trkpt><trkpt lat="40.5922908" lon="17.0945001"><ele>59.0</ele><time>2026-04-11T09:36:46.985Z</time></trkpt><trkpt lat="40.5923523" lon="17.0943873"><ele>59.00000000000001</ele><time>2026-04-11T09:36:48.029Z</time></trkpt><trkpt lat="40.5924122" lon="17.0942611"><ele>59.00000000000001</ele><time>2026-04-11T09:36:49.024Z</time></trkpt><trkpt lat="40.5924732" lon="17.0941343"><ele>59.0</ele><time>2026-04-11T09:36:49.985Z</time></trkpt><trkpt lat="40.5925276" lon="17.0940026"><ele>59.0</ele><time>2026-04-11T09:36:50.986Z</time></trkpt><trkpt lat="40.5925915" lon="17.0938634"><ele>59.0</ele><time>2026-04-11T09:36:51.996Z</time></trkpt><trkpt lat="40.5926603" lon="17.0937225"><ele>59.0</ele><time>2026-04-11T09:36:53Z</time></trkpt><trkpt lat="40.5927288" lon="17.0935791"><ele>59.0</ele><time>2026-04-11T09:36:54.023Z</time></trkpt><trkpt lat="40.5927968" lon="17.0934317"><ele>59.0</ele><time>2026-04-11T09:36:55.005Z</time></trkpt><trkpt lat="40.5928772" lon="17.0932845"><ele>58.75</ele><time>2026-04-11T09:36:56.001Z</time></trkpt><trkpt lat="40.5929524" lon="17.0931282"><ele>58.5</ele><time>2026-04-11T09:36:57.006Z</time></trkpt><trkpt lat="40.5930286" lon="17.092976"><ele>58.25</ele><time>2026-04-11T09:36:57.996Z</time></trkpt><trkpt lat="40.5931021" lon="17.0928104"><ele>58.0</ele><time>2026-04-11T09:36:58.993Z</time></trkpt><trkpt lat="40.593177" lon="17.0926497"><ele>58.0</ele><time>2026-04-11T09:36:59.997Z</time></trkpt><trkpt lat="40.5932417" lon="17.0925008"><ele>58.0</ele><time>2026-04-11T09:37:01.001Z</time></trkpt><trkpt lat="40.5933141" lon="17.09235"><ele>58.0</ele><time>2026-04-11T09:37:01.99Z</time></trkpt><trkpt lat="40.5933737" lon="17.0922014"><ele>58.0</ele><time>2026-04-11T09:37:03.026Z</time></trkpt><trkpt lat="40.5934447" lon="17.0920476"><ele>57.75</ele><time>2026-04-11T09:37:03.996Z</time></trkpt><trkpt lat="40.5935182" lon="17.0918892"><ele>57.5</ele><time>2026-04-11T09:37:04.991Z</time></trkpt><trkpt lat="40.5935917" lon="17.0917175"><ele>57.25</ele><time>2026-04-11T09:37:06.023Z</time></trkpt><trkpt lat="40.5936625" lon="17.0915634"><ele>57.0</ele><time>2026-04-11T09:37:06.999Z</time></trkpt><trkpt lat="40.5937333" lon="17.0914092"><ele>57.5</ele><time>2026-04-11T09:37:07.984Z</time></trkpt><trkpt lat="40.5937937" lon="17.0912574"><ele>58.0</ele><time>2026-04-11T09:37:09.018Z</time></trkpt><trkpt lat="40.5938668" lon="17.0911074"><ele>58.5</ele><time>2026-04-11T09:37:10.024Z</time></trkpt><trkpt lat="40.5939386" lon="17.090954"><ele>59.0</ele><time>2026-04-11T09:37:10.982Z</time></trkpt><trkpt lat="40.5940101" lon="17.0907957"><ele>58.66666666666667</ele><time>2026-04-11T09:37:11.995Z</time></trkpt><trkpt lat="40.5940925" lon="17.0906316"><ele>58.33333333333333</ele><time>2026-04-11T09:37:13.025Z</time></trkpt><trkpt lat="40.5941682" lon="17.0904656"><ele>58.0</ele><time>2026-04-11T09:37:13.984Z</time></trkpt><trkpt lat="40.5942495" lon="17.0902943"><ele>58.0</ele><time>2026-04-11T09:37:14.99Z</time></trkpt><trkpt lat="40.5943299" lon="17.0901222"><ele>58.0</ele><time>2026-04-11T09:37:15.997Z</time></trkpt><trkpt lat="40.5944138" lon="17.089932"><ele>58.0</ele><time>2026-04-11T09:37:17.022Z</time></trkpt><trkpt lat="40.594498" lon="17.0897495"><ele>58.666666666666664</ele><time>2026-04-11T09:37:17.994Z</time></trkpt><trkpt lat="40.5945826" lon="17.0895641"><ele>59.33333333333333</ele><time>2026-04-11T09:37:19.03Z</time></trkpt><trkpt lat="40.5946724" lon="17.08937"><ele>60.0</ele><time>2026-04-11T09:37:19.997Z</time></trkpt><trkpt lat="40.5947691" lon="17.0891766"><ele>59.66666666666667</ele><time>2026-04-11T09:37:21.02Z</time></trkpt><trkpt lat="40.5948613" lon="17.0889765"><ele>59.333333333333336</ele><time>2026-04-11T09:37:21.982Z</time></trkpt><trkpt lat="40.5949675" lon="17.0887601"><ele>59.0</ele><time>2026-04-11T09:37:22.985Z</time></trkpt><trkpt lat="40.595071" lon="17.0885396"><ele>59.0</ele><time>2026-04-11T09:37:23.994Z</time></trkpt><trkpt lat="40.595169" lon="17.0883261"><ele>59.0</ele><time>2026-04-11T09:37:25Z</time></trkpt><trkpt lat="40.5952696" lon="17.0881025"><ele>59.0</ele><time>2026-04-11T09:37:25.989Z</time></trkpt><trkpt lat="40.5953711" lon="17.0878595"><ele>58.66666666666667</ele><time>2026-04-11T09:37:27.001Z</time></trkpt><trkpt lat="40.5954694" lon="17.0876246"><ele>58.33333333333333</ele><time>2026-04-11T09:37:28.002Z</time></trkpt><trkpt lat="40.5955707" lon="17.0873774"><ele>58.0</ele><time>2026-04-11T09:37:29.002Z</time></trkpt><trkpt lat="40.5956696" lon="17.0871342"><ele>58.0</ele><time>2026-04-11T09:37:30.001Z</time></trkpt><trkpt lat="40.5957813" lon="17.0868827"><ele>58.0</ele><time>2026-04-11T09:37:30.997Z</time></trkpt><trkpt lat="40.5958876" lon="17.0866349"><ele>58.0</ele><time>2026-04-11T09:37:31.989Z</time></trkpt><trkpt lat="40.5959987" lon="17.0863825"><ele>57.5</ele><time>2026-04-11T09:37:32.993Z</time></trkpt><trkpt lat="40.5961133" lon="17.0861222"><ele>57.0</ele><time>2026-04-11T09:37:34.01Z</time></trkpt><trkpt lat="40.5962109" lon="17.0858499"><ele>58.0</ele><time>2026-04-11T09:37:35Z</time></trkpt><trkpt lat="40.596318" lon="17.0855704"><ele>59.0</ele><time>2026-04-11T09:37:36.002Z</time></trkpt><trkpt lat="40.5964238" lon="17.0852822"><ele>59.0</ele><time>2026-04-11T09:37:36.998Z</time></trkpt><trkpt lat="40.5965335" lon="17.0849859"><ele>59.0</ele><time>2026-04-11T09:37:37.995Z</time></trkpt><trkpt lat="40.5966397" lon="17.0846914"><ele>59.0</ele><time>2026-04-11T09:37:39.001Z</time></trkpt><trkpt lat="40.5967493" lon="17.0843931"><ele>59.0</ele><time>2026-04-11T09:37:40.001Z</time></trkpt><trkpt lat="40.5968631" lon="17.0840934"><ele>60.0</ele><time>2026-04-11T09:37:41.03Z</time></trkpt><trkpt lat="40.5969801" lon="17.0837921"><ele>61.0</ele><time>2026-04-11T09:37:42.021Z</time></trkpt><trkpt lat="40.597091" lon="17.0834908"><ele>62.5</ele><time>2026-04-11T09:37:43.018Z</time></trkpt><trkpt lat="40.5971989" lon="17.0831924"><ele>64.0</ele><time>2026-04-11T09:37:44.003Z</time></trkpt><trkpt lat="40.5973084" lon="17.0828896"><ele>64.0</ele><time>2026-04-11T09:37:45.024Z</time></trkpt><trkpt lat="40.5974168" lon="17.0825858"><ele>64.0</ele><time>2026-04-11T09:37:45.986Z</time></trkpt><trkpt lat="40.597526" lon="17.082291"><ele>63.5</ele><time>2026-04-11T09:37:47.019Z</time></trkpt><trkpt lat="40.5976207" lon="17.0819895"><ele>63.0</ele><time>2026-04-11T09:37:47.992Z</time></trkpt><trkpt lat="40.5977216" lon="17.0817444"><ele>63.0</ele><time>2026-04-11T09:37:48.99Z</time></trkpt><trkpt lat="40.5978214" lon="17.0814763"><ele>63.0</ele><time>2026-04-11T09:37:49.993Z</time></trkpt><trkpt lat="40.5979359" lon="17.0812259"><ele>63.0</ele><time>2026-04-11T09:37:51.071Z</time></trkpt><trkpt lat="40.5980352" lon="17.0809668"><ele>63.33333333333333</ele><time>2026-04-11T09:37:51.988Z</time></trkpt><trkpt lat="40.5981223" lon="17.0807053"><ele>63.666666666666664</ele><time>2026-04-11T09:37:53.019Z</time></trkpt><trkpt lat="40.5982199" lon="17.0804384"><ele>64.0</ele><time>2026-04-11T09:37:54.026Z</time></trkpt><trkpt lat="40.5983324" lon="17.0801853"><ele>63.33333333333333</ele><time>2026-04-11T09:37:54.999Z</time></trkpt><trkpt lat="40.5984255" lon="17.0799162"><ele>62.66666666666667</ele><time>2026-04-11T09:37:56.026Z</time></trkpt><trkpt lat="40.5985282" lon="17.0796528"><ele>62.0</ele><time>2026-04-11T09:37:57.035Z</time></trkpt><trkpt lat="40.5986269" lon="17.0793763"><ele>64.5</ele><time>2026-04-11T09:37:58.029Z</time></trkpt><trkpt lat="40.598733" lon="17.07911"><ele>67.0</ele><time>2026-04-11T09:37:59.001Z</time></trkpt><trkpt lat="40.5988308" lon="17.0788393"><ele>67.0</ele><time>2026-04-11T09:37:59.983Z</time></trkpt><trkpt lat="40.5989289" lon="17.0785653"><ele>67.0</ele><time>2026-04-11T09:38:00.992Z</time></trkpt><trkpt lat="40.5990247" lon="17.0782919"><ele>65.5</ele><time>2026-04-11T09:38:01.99Z</time></trkpt><trkpt lat="40.5991219" lon="17.0780174"><ele>64.0</ele><time>2026-04-11T09:38:02.991Z</time></trkpt><trkpt lat="40.5992203" lon="17.0777337"><ele>64.0</ele><time>2026-04-11T09:38:04.002Z</time></trkpt><trkpt lat="40.599317" lon="17.0774546"><ele>64.0</ele><time>2026-04-11T09:38:04.993Z</time></trkpt><trkpt lat="40.5994159" lon="17.0771702"><ele>65.0</ele><time>2026-04-11T09:38:06.03Z</time></trkpt><trkpt lat="40.5995183" lon="17.0768785"><ele>66.0</ele><time>2026-04-11T09:38:06.988Z</time></trkpt><trkpt lat="40.5996202" lon="17.0765672"><ele>66.0</ele><time>2026-04-11T09:38:07.988Z</time></trkpt><trkpt lat="40.5997256" lon="17.0762337"><ele>66.0</ele><time>2026-04-11T09:38:09Z</time></trkpt><trkpt lat="40.5998379" lon="17.0759127"><ele>65.5</ele><time>2026-04-11T09:38:10.034Z</time></trkpt><trkpt lat="40.5999495" lon="17.0755975"><ele>65.0</ele><time>2026-04-11T09:38:11.025Z</time></trkpt><trkpt lat="40.6000555" lon="17.0753039"><ele>65.0</ele><time>2026-04-11T09:38:12.024Z</time></trkpt><trkpt lat="40.60015" lon="17.0750196"><ele>65.0</ele><time>2026-04-11T09:38:12.995Z</time></trkpt><trkpt lat="40.6002432" lon="17.0747394"><ele>67.0</ele><time>2026-04-11T09:38:14.069Z</time></trkpt><trkpt lat="40.6003394" lon="17.0744603"><ele>69.0</ele><time>2026-04-11T09:38:14.989Z</time></trkpt><trkpt lat="40.6004463" lon="17.0741722"><ele>68.5</ele><time>2026-04-11T09:38:16.023Z</time></trkpt><trkpt lat="40.6005426" lon="17.0738908"><ele>68.0</ele><time>2026-04-11T09:38:16.985Z</time></trkpt><trkpt lat="40.6006395" lon="17.0736039"><ele>68.0</ele><time>2026-04-11T09:38:17.992Z</time></trkpt><trkpt lat="40.6007453" lon="17.0733305"><ele>68.0</ele><time>2026-04-11T09:38:19.026Z</time></trkpt><trkpt lat="40.6008481" lon="17.0730521"><ele>68.0</ele><time>2026-04-11T09:38:19.995Z</time></trkpt><trkpt lat="40.6009553" lon="17.0727633"><ele>68.0</ele><time>2026-04-11T09:38:21.001Z</time></trkpt><trkpt lat="40.6010623" lon="17.0724838"><ele>70.0</ele><time>2026-04-11T09:38:21.998Z</time></trkpt><trkpt lat="40.6011754" lon="17.0722101"><ele>72.0</ele><time>2026-04-11T09:38:23Z</time></trkpt><trkpt lat="40.6013056" lon="17.0719468"><ele>72.0</ele><time>2026-04-11T09:38:23.998Z</time></trkpt><trkpt lat="40.6014217" lon="17.0717035"><ele>72.0</ele><time>2026-04-11T09:38:25.001Z</time></trkpt><trkpt lat="40.6015425" lon="17.0714668"><ele>72.0</ele><time>2026-04-11T09:38:25.997Z</time></trkpt><trkpt lat="40.601673" lon="17.0712801"><ele>72.33333333333333</ele><time>2026-04-11T09:38:27Z</time></trkpt><trkpt lat="40.6017939" lon="17.0710771"><ele>72.66666666666666</ele><time>2026-04-11T09:38:28.01Z</time></trkpt><trkpt lat="40.6019107" lon="17.070913"><ele>73.0</ele><time>2026-04-11T09:38:29.003Z</time></trkpt><trkpt lat="40.6020404" lon="17.0707367"><ele>74.0</ele><time>2026-04-11T09:38:30.023Z</time></trkpt><trkpt lat="40.6021673" lon="17.0705626"><ele>75.0</ele><time>2026-04-11T09:38:30.988Z</time></trkpt><trkpt lat="40.6022996" lon="17.0703911"><ele>76.0</ele><time>2026-04-11T09:38:31.988Z</time></trkpt><trkpt lat="40.6024336" lon="17.0702312"><ele>76.0</ele><time>2026-04-11T09:38:32.995Z</time></trkpt><trkpt lat="40.6025843" lon="17.0701021"><ele>76.0</ele><time>2026-04-11T09:38:33.995Z</time></trkpt><trkpt lat="40.6027272" lon="17.069942"><ele>76.0</ele><time>2026-04-11T09:38:34.997Z</time></trkpt><trkpt lat="40.6028722" lon="17.0697822"><ele>76.33333333333333</ele><time>2026-04-11T09:38:36.026Z</time></trkpt><trkpt lat="40.6030239" lon="17.0696461"><ele>76.66666666666667</ele><time>2026-04-11T09:38:37.033Z</time></trkpt><trkpt lat="40.6031751" lon="17.0695044"><ele>77.0</ele><time>2026-04-11T09:38:37.995Z</time></trkpt><trkpt lat="40.6033377" lon="17.0693779"><ele>77.0</ele><time>2026-04-11T09:38:39.023Z</time></trkpt><trkpt lat="40.6035052" lon="17.069254"><ele>77.0</ele><time>2026-04-11T09:38:40.026Z</time></trkpt><trkpt lat="40.6036697" lon="17.0691278"><ele>77.0</ele><time>2026-04-11T09:38:40.999Z</time></trkpt><trkpt lat="40.6038445" lon="17.0690115"><ele>77.0</ele><time>2026-04-11T09:38:41.982Z</time></trkpt><trkpt lat="40.6040203" lon="17.0689122"><ele>77.0</ele><time>2026-04-11T09:38:42.989Z</time></trkpt><trkpt lat="40.6042099" lon="17.0688036"><ele>77.0</ele><time>2026-04-11T09:38:44.022Z</time></trkpt><trkpt lat="40.6043996" lon="17.0686991"><ele>79.0</ele><time>2026-04-11T09:38:44.985Z</time></trkpt><trkpt lat="40.6045984" lon="17.0686127"><ele>81.0</ele><time>2026-04-11T09:38:46.027Z</time></trkpt><trkpt lat="40.6048047" lon="17.0685221"><ele>83.0</ele><time>2026-04-11T09:38:47.009Z</time></trkpt><trkpt lat="40.6050131" lon="17.068451"><ele>83.0</ele><time>2026-04-11T09:38:48Z</time></trkpt><trkpt lat="40.6052213" lon="17.0683774"><ele>83.0</ele><time>2026-04-11T09:38:49.005Z</time></trkpt><trkpt lat="40.605432" lon="17.06833"><ele>83.0</ele><time>2026-04-11T09:38:50.001Z</time></trkpt><trkpt lat="40.6056554" lon="17.0682958"><ele>83.66666666666667</ele><time>2026-04-11T09:38:51Z</time></trkpt><trkpt lat="40.6058743" lon="17.0682526"><ele>84.33333333333333</ele><time>2026-04-11T09:38:52.032Z</time></trkpt><trkpt lat="40.6060941" lon="17.0682182"><ele>85.0</ele><time>2026-04-11T09:38:52.986Z</time></trkpt><trkpt lat="40.6063226" lon="17.068203"><ele>85.0</ele><time>2026-04-11T09:38:54.02Z</time></trkpt><trkpt lat="40.60655" lon="17.0681801"><ele>85.0</ele><time>2026-04-11T09:38:55.001Z</time></trkpt><trkpt lat="40.60678" lon="17.0681553"><ele>87.5</ele><time>2026-04-11T09:38:56.002Z</time></trkpt><trkpt lat="40.6070113" lon="17.0681543"><ele>90.0</ele><time>2026-04-11T09:38:57.003Z</time></trkpt><trkpt lat="40.6072387" lon="17.0681298"><ele>90.0</ele><time>2026-04-11T09:38:57.988Z</time></trkpt><trkpt lat="40.6074847" lon="17.0681129"><ele>90.0</ele><time>2026-04-11T09:38:58.998Z</time></trkpt><trkpt lat="40.6077133" lon="17.0681028"><ele>95.5</ele><time>2026-04-11T09:39:00.01Z</time></trkpt><trkpt lat="40.6079437" lon="17.068086"><ele>101.0</ele><time>2026-04-11T09:39:01.032Z</time></trkpt><trkpt lat="40.6081765" lon="17.0680657"><ele>101.0</ele><time>2026-04-11T09:39:01.987Z</time></trkpt><trkpt lat="40.6083941" lon="17.0680354"><ele>101.0</ele><time>2026-04-11T09:39:03.002Z</time></trkpt><trkpt lat="40.608615" lon="17.0680155"><ele>101.0</ele><time>2026-04-11T09:39:04.003Z</time></trkpt><trkpt lat="40.6088374" lon="17.0679933"><ele>104.33333333333333</ele><time>2026-04-11T09:39:04.989Z</time></trkpt><trkpt lat="40.6090533" lon="17.067976"><ele>107.66666666666666</ele><time>2026-04-11T09:39:05.99Z</time></trkpt><trkpt lat="40.6092482" lon="17.0679644"><ele>111.0</ele><time>2026-04-11T09:39:06.995Z</time></trkpt><trkpt lat="40.609452" lon="17.0679421"><ele>113.0</ele><time>2026-04-11T09:39:08.004Z</time></trkpt><trkpt lat="40.6096676" lon="17.0679135"><ele>115.0</ele><time>2026-04-11T09:39:09.002Z</time></trkpt><trkpt lat="40.6098687" lon="17.0678921"><ele>117.0</ele><time>2026-04-11T09:39:09.986Z</time></trkpt><trkpt lat="40.6100831" lon="17.0678609"><ele>117.0</ele><time>2026-04-11T09:39:10.99Z</time></trkpt><trkpt lat="40.6102892" lon="17.0678394"><ele>117.0</ele><time>2026-04-11T09:39:11.997Z</time></trkpt><trkpt lat="40.6105017" lon="17.0678255"><ele>117.0</ele><time>2026-04-11T09:39:13.003Z</time></trkpt><trkpt lat="40.6107157" lon="17.0678022"><ele>118.66666666666666</ele><time>2026-04-11T09:39:13.998Z</time></trkpt><trkpt lat="40.6109392" lon="17.0677758"><ele>120.33333333333333</ele><time>2026-04-11T09:39:15.003Z</time></trkpt><trkpt lat="40.6111637" lon="17.0677547"><ele>122.0</ele><time>2026-04-11T09:39:15.988Z</time></trkpt><trkpt lat="40.6113911" lon="17.0677422"><ele>124.5</ele><time>2026-04-11T09:39:17.004Z</time></trkpt><trkpt lat="40.6116174" lon="17.0677348"><ele>127.0</ele><time>2026-04-11T09:39:18.01Z</time></trkpt><trkpt lat="40.6118572" lon="17.0677426"><ele>129.0</ele><time>2026-04-11T09:39:19Z</time></trkpt><trkpt lat="40.6120883" lon="17.0677354"><ele>131.0</ele><time>2026-04-11T09:39:20.034Z</time></trkpt><trkpt lat="40.6123188" lon="17.0677308"><ele>131.0</ele><time>2026-04-11T09:39:20.992Z</time></trkpt><trkpt lat="40.6125428" lon="17.067714"><ele>131.0</ele><time>2026-04-11T09:39:21.99Z</time></trkpt><trkpt lat="40.6127717" lon="17.0676987"><ele>134.0</ele><time>2026-04-11T09:39:23Z</time></trkpt><trkpt lat="40.6129997" lon="17.0676874"><ele>137.0</ele><time>2026-04-11T09:39:23.986Z</time></trkpt><trkpt lat="40.6132318" lon="17.0676847"><ele>137.0</ele><time>2026-04-11T09:39:25.022Z</time></trkpt><trkpt lat="40.6134688" lon="17.0676797"><ele>137.0</ele><time>2026-04-11T09:39:25.993Z</time></trkpt><trkpt lat="40.6136971" lon="17.0676752"><ele>138.5</ele><time>2026-04-11T09:39:26.985Z</time></trkpt><trkpt lat="40.613933" lon="17.067666"><ele>140.0</ele><time>2026-04-11T09:39:27.999Z</time></trkpt><trkpt lat="40.6141607" lon="17.0676668"><ele>140.0</ele><time>2026-04-11T09:39:29.03Z</time></trkpt><trkpt lat="40.6143881" lon="17.0676629"><ele>140.0</ele><time>2026-04-11T09:39:29.986Z</time></trkpt><trkpt lat="40.6146052" lon="17.0676624"><ele>140.0</ele><time>2026-04-11T09:39:30.992Z</time></trkpt><trkpt lat="40.6148328" lon="17.067658"><ele>142.5</ele><time>2026-04-11T09:39:31.997Z</time></trkpt><trkpt lat="40.6150716" lon="17.0676566"><ele>145.0</ele><time>2026-04-11T09:39:32.999Z</time></trkpt><trkpt lat="40.6153017" lon="17.0676484"><ele>146.5</ele><time>2026-04-11T09:39:34.007Z</time></trkpt><trkpt lat="40.6155324" lon="17.0676439"><ele>148.0</ele><time>2026-04-11T09:39:35Z</time></trkpt><trkpt lat="40.6157638" lon="17.067639"><ele>148.0</ele><time>2026-04-11T09:39:35.99Z</time></trkpt><trkpt lat="40.6159919" lon="17.0676279"><ele>148.0</ele><time>2026-04-11T09:39:36.997Z</time></trkpt><trkpt lat="40.6162284" lon="17.067618"><ele>150.0</ele><time>2026-04-11T09:39:37.999Z</time></trkpt><trkpt lat="40.6164674" lon="17.0676095"><ele>152.0</ele><time>2026-04-11T09:39:38.982Z</time></trkpt><trkpt lat="40.6167092" lon="17.0676102"><ele>152.0</ele><time>2026-04-11T09:39:39.995Z</time></trkpt><trkpt lat="40.6169564" lon="17.0676029"><ele>152.0</ele><time>2026-04-11T09:39:41.009Z</time></trkpt><trkpt lat="40.6172117" lon="17.0676"><ele>154.0</ele><time>2026-04-11T09:39:41.999Z</time></trkpt><trkpt lat="40.6174637" lon="17.0675898"><ele>156.0</ele><time>2026-04-11T09:39:43.001Z</time></trkpt><trkpt lat="40.6177136" lon="17.0675811"><ele>159.5</ele><time>2026-04-11T09:39:43.985Z</time></trkpt><trkpt lat="40.6179568" lon="17.0675767"><ele>163.0</ele><time>2026-04-11T09:39:45.003Z</time></trkpt><trkpt lat="40.6182031" lon="17.0675685"><ele>163.0</ele><time>2026-04-11T09:39:45.998Z</time></trkpt><trkpt lat="40.6184511" lon="17.0675588"><ele>163.0</ele><time>2026-04-11T09:39:46.995Z</time></trkpt><trkpt lat="40.6187063" lon="17.0675461"><ele>166.0</ele><time>2026-04-11T09:39:48.013Z</time></trkpt><trkpt lat="40.6189589" lon="17.0675368"><ele>169.0</ele><time>2026-04-11T09:39:48.998Z</time></trkpt><trkpt lat="40.6192302" lon="17.0675215"><ele>169.0</ele><time>2026-04-11T09:39:50.025Z</time></trkpt><trkpt lat="40.6194831" lon="17.06751"><ele>169.0</ele><time>2026-04-11T09:39:50.993Z</time></trkpt><trkpt lat="40.6197426" lon="17.0674967"><ele>171.0</ele><time>2026-04-11T09:39:52.025Z</time></trkpt><trkpt lat="40.6200006" lon="17.0674789"><ele>173.0</ele><time>2026-04-11T09:39:53.032Z</time></trkpt><trkpt lat="40.620257" lon="17.0674456"><ele>176.0</ele><time>2026-04-11T09:39:54.019Z</time></trkpt><trkpt lat="40.6205171" lon="17.0674133"><ele>179.0</ele><time>2026-04-11T09:39:55.022Z</time></trkpt><trkpt lat="40.620781" lon="17.0673678"><ele>179.0</ele><time>2026-04-11T09:39:56.026Z</time></trkpt><trkpt lat="40.6210458" lon="17.0673126"><ele>179.0</ele><time>2026-04-11T09:39:57.024Z</time></trkpt><trkpt lat="40.6213178" lon="17.0672579"><ele>181.0</ele><time>2026-04-11T09:39:57.985Z</time></trkpt><trkpt lat="40.6215943" lon="17.0672041"><ele>183.0</ele><time>2026-04-11T09:39:59.026Z</time></trkpt><trkpt lat="40.6218784" lon="17.0671467"><ele>184.5</ele><time>2026-04-11T09:40:00.011Z</time></trkpt><trkpt lat="40.6221614" lon="17.0670881"><ele>186.0</ele><time>2026-04-11T09:40:01.004Z</time></trkpt><trkpt lat="40.6224525" lon="17.0670198"><ele>186.0</ele><time>2026-04-11T09:40:02.004Z</time></trkpt><trkpt lat="40.6227437" lon="17.0669428"><ele>186.0</ele><time>2026-04-11T09:40:03.036Z</time></trkpt><trkpt lat="40.6230238" lon="17.0668704"><ele>188.0</ele><time>2026-04-11T09:40:04Z</time></trkpt><trkpt lat="40.6233059" lon="17.0667966"><ele>190.0</ele><time>2026-04-11T09:40:04.984Z</time></trkpt><trkpt lat="40.6235477" lon="17.0667261"><ele>190.0</ele><time>2026-04-11T09:40:06.01Z</time></trkpt><trkpt lat="40.6237854" lon="17.0666536"><ele>190.0</ele><time>2026-04-11T09:40:06.997Z</time></trkpt><trkpt lat="40.6240273" lon="17.0665774"><ele>190.0</ele><time>2026-04-11T09:40:08.022Z</time></trkpt><trkpt lat="40.6242611" lon="17.0665094"><ele>190.0</ele><time>2026-04-11T09:40:08.998Z</time></trkpt><trkpt lat="40.624493" lon="17.066437"><ele>194.0</ele><time>2026-04-11T09:40:10.002Z</time></trkpt><trkpt lat="40.6247205" lon="17.0663753"><ele>198.0</ele><time>2026-04-11T09:40:11.003Z</time></trkpt><trkpt lat="40.6249554" lon="17.0663103"><ele>198.0</ele><time>2026-04-11T09:40:12.078Z</time></trkpt><trkpt lat="40.6251847" lon="17.0662438"><ele>198.0</ele><time>2026-04-11T09:40:12.989Z</time></trkpt><trkpt lat="40.6254052" lon="17.0661836"><ele>200.5</ele><time>2026-04-11T09:40:14.02Z</time></trkpt><trkpt lat="40.6256322" lon="17.066119"><ele>203.0</ele><time>2026-04-11T09:40:14.984Z</time></trkpt><trkpt lat="40.625846" lon="17.0660543"><ele>203.0</ele><time>2026-04-11T09:40:16.021Z</time></trkpt><trkpt lat="40.6260691" lon="17.065988"><ele>203.0</ele><time>2026-04-11T09:40:16.986Z</time></trkpt><trkpt lat="40.626292" lon="17.0659184"><ele>205.0</ele><time>2026-04-11T09:40:17.996Z</time></trkpt><trkpt lat="40.6265132" lon="17.0658492"><ele>207.0</ele><time>2026-04-11T09:40:19.027Z</time></trkpt><trkpt lat="40.6267338" lon="17.0657901"><ele>206.0</ele><time>2026-04-11T09:40:20.034Z</time></trkpt><trkpt lat="40.6269564" lon="17.0657249"><ele>205.0</ele><time>2026-04-11T09:40:20.984Z</time></trkpt><trkpt lat="40.6271776" lon="17.0656549"><ele>206.33333333333331</ele><time>2026-04-11T09:40:21.986Z</time></trkpt><trkpt lat="40.6273896" lon="17.0656017"><ele>207.66666666666669</ele><time>2026-04-11T09:40:23.006Z</time></trkpt><trkpt lat="40.6276087" lon="17.0655366"><ele>209.0</ele><time>2026-04-11T09:40:24.014Z</time></trkpt><trkpt lat="40.6278228" lon="17.0654851"><ele>211.0</ele><time>2026-04-11T09:40:24.999Z</time></trkpt><trkpt lat="40.6280387" lon="17.0654241"><ele>213.0</ele><time>2026-04-11T09:40:25.986Z</time></trkpt><trkpt lat="40.6282467" lon="17.0653637"><ele>215.0</ele><time>2026-04-11T09:40:26.993Z</time></trkpt><trkpt lat="40.6284587" lon="17.0652983"><ele>216.66666666666669</ele><time>2026-04-11T09:40:28.005Z</time></trkpt><trkpt lat="40.6286638" lon="17.0652373"><ele>218.33333333333331</ele><time>2026-04-11T09:40:29.004Z</time></trkpt><trkpt lat="40.6288659" lon="17.0651776"><ele>220.0</ele><time>2026-04-11T09:40:29.999Z</time></trkpt><trkpt lat="40.6290658" lon="17.0651077"><ele>220.0</ele><time>2026-04-11T09:40:30.997Z</time></trkpt><trkpt lat="40.6292646" lon="17.0650479"><ele>220.0</ele><time>2026-04-11T09:40:31.995Z</time></trkpt><trkpt lat="40.6294739" lon="17.0649978"><ele>220.0</ele><time>2026-04-11T09:40:32.991Z</time></trkpt><trkpt lat="40.6296812" lon="17.0649378"><ele>221.66666666666666</ele><time>2026-04-11T09:40:33.987Z</time></trkpt><trkpt lat="40.6298776" lon="17.0648777"><ele>223.33333333333331</ele><time>2026-04-11T09:40:35.001Z</time></trkpt><trkpt lat="40.6300809" lon="17.0648181"><ele>225.0</ele><time>2026-04-11T09:40:35.997Z</time></trkpt><trkpt lat="40.6302859" lon="17.0647566"><ele>228.66666666666669</ele><time>2026-04-11T09:40:36.998Z</time></trkpt><trkpt lat="40.6304905" lon="17.0646932"><ele>232.33333333333334</ele><time>2026-04-11T09:40:38.01Z</time></trkpt><trkpt lat="40.630694" lon="17.0646281"><ele>236.0</ele><time>2026-04-11T09:40:39.008Z</time></trkpt><trkpt lat="40.6308983" lon="17.0645652"><ele>236.0</ele><time>2026-04-11T09:40:39.987Z</time></trkpt><trkpt lat="40.6311017" lon="17.0645061"><ele>236.0</ele><time>2026-04-11T09:40:40.987Z</time></trkpt><trkpt lat="40.6313073" lon="17.0644442"><ele>236.0</ele><time>2026-04-11T09:40:41.995Z</time></trkpt><trkpt lat="40.6334296" lon="17.0636219"><ele>242.5</ele><time>2026-04-11T09:40:53.023Z</time></trkpt><trkpt lat="40.633622" lon="17.0634239"><ele>249.0</ele><time>2026-04-11T09:40:53.995Z</time></trkpt><trkpt lat="40.633766" lon="17.0631155"><ele>250.66666666666669</ele><time>2026-04-11T09:40:54.99Z</time></trkpt><trkpt lat="40.6339384" lon="17.0630267"><ele>252.33333333333334</ele><time>2026-04-11T09:40:55.994Z</time></trkpt><trkpt lat="40.6340959" lon="17.0627895"><ele>254.0</ele><time>2026-04-11T09:40:57.001Z</time></trkpt><trkpt lat="40.6342535" lon="17.0624777"><ele>253.5</ele><time>2026-04-11T09:40:57.993Z</time></trkpt><trkpt lat="40.6344041" lon="17.06224"><ele>253.0</ele><time>2026-04-11T09:40:58.996Z</time></trkpt><trkpt lat="40.6345431" lon="17.0619909"><ele>255.5</ele><time>2026-04-11T09:40:59.99Z</time></trkpt><trkpt lat="40.634672" lon="17.061728"><ele>258.0</ele><time>2026-04-11T09:41:00.993Z</time></trkpt><trkpt lat="40.6347916" lon="17.061465"><ele>258.0</ele><time>2026-04-11T09:41:01.997Z</time></trkpt><trkpt lat="40.6349139" lon="17.0612008"><ele>258.0</ele><time>2026-04-11T09:41:03.002Z</time></trkpt><trkpt lat="40.6350345" lon="17.0609532"><ele>258.0</ele><time>2026-04-11T09:41:03.994Z</time></trkpt><trkpt lat="40.6351106" lon="17.0606185"><ele>258.0</ele><time>2026-04-11T09:41:04.991Z</time></trkpt><trkpt lat="40.6351956" lon="17.0603184"><ele>258.0</ele><time>2026-04-11T09:41:05.995Z</time></trkpt><trkpt lat="40.6352812" lon="17.0600064"><ele>258.0</ele><time>2026-04-11T09:41:06.997Z</time></trkpt><trkpt lat="40.6353693" lon="17.0596958"><ele>261.0</ele><time>2026-04-11T09:41:07.993Z</time></trkpt><trkpt lat="40.6354606" lon="17.0593921"><ele>264.0</ele><time>2026-04-11T09:41:08.995Z</time></trkpt><trkpt lat="40.6355559" lon="17.05908"><ele>264.5</ele><time>2026-04-11T09:41:09.993Z</time></trkpt><trkpt lat="40.6356494" lon="17.0587676"><ele>265.0</ele><time>2026-04-11T09:41:10.991Z</time></trkpt><trkpt lat="40.6357484" lon="17.0584557"><ele>265.5</ele><time>2026-04-11T09:41:11.989Z</time></trkpt><trkpt lat="40.6358401" lon="17.0581277"><ele>266.0</ele><time>2026-04-11T09:41:12.998Z</time></trkpt><trkpt lat="40.6359344" lon="17.0578105"><ele>266.0</ele><time>2026-04-11T09:41:13.992Z</time></trkpt><trkpt lat="40.6360362" lon="17.0575023"><ele>266.0</ele><time>2026-04-11T09:41:14.991Z</time></trkpt><trkpt lat="40.636125" lon="17.0571837"><ele>267.0</ele><time>2026-04-11T09:41:16Z</time></trkpt><trkpt lat="40.6362192" lon="17.0568692"><ele>268.0</ele><time>2026-04-11T09:41:16.987Z</time></trkpt><trkpt lat="40.6363235" lon="17.0565517"><ele>269.0</ele><time>2026-04-11T09:41:17.994Z</time></trkpt><trkpt lat="40.6364207" lon="17.0562365"><ele>270.0</ele><time>2026-04-11T09:41:18.988Z</time></trkpt><trkpt lat="40.6365119" lon="17.0559231"><ele>270.5</ele><time>2026-04-11T09:41:20.025Z</time></trkpt><trkpt lat="40.6366074" lon="17.0556067"><ele>271.0</ele><time>2026-04-11T09:41:21.025Z</time></trkpt><trkpt lat="40.6367124" lon="17.0552887"><ele>271.0</ele><time>2026-04-11T09:41:22.026Z</time></trkpt><trkpt lat="40.6368087" lon="17.0549657"><ele>271.0</ele><time>2026-04-11T09:41:22.983Z</time></trkpt><trkpt lat="40.6368963" lon="17.0546445"><ele>272.0</ele><time>2026-04-11T09:41:23.989Z</time></trkpt><trkpt lat="40.6369935" lon="17.0543195"><ele>273.0</ele><time>2026-04-11T09:41:24.987Z</time></trkpt><trkpt lat="40.6370836" lon="17.0540076"><ele>273.0</ele><time>2026-04-11T09:41:25.993Z</time></trkpt><trkpt lat="40.63718" lon="17.0536834"><ele>273.0</ele><time>2026-04-11T09:41:26.992Z</time></trkpt><trkpt lat="40.6372722" lon="17.0533553"><ele>271.5</ele><time>2026-04-11T09:41:27.997Z</time></trkpt><trkpt lat="40.6373738" lon="17.0530297"><ele>270.0</ele><time>2026-04-11T09:41:29.006Z</time></trkpt><trkpt lat="40.6374788" lon="17.0527168"><ele>269.5</ele><time>2026-04-11T09:41:30Z</time></trkpt><trkpt lat="40.6375746" lon="17.0523981"><ele>269.0</ele><time>2026-04-11T09:41:30.99Z</time></trkpt><trkpt lat="40.6376692" lon="17.0520774"><ele>269.0</ele><time>2026-04-11T09:41:31.998Z</time></trkpt><trkpt lat="40.6377584" lon="17.0517654"><ele>269.0</ele><time>2026-04-11T09:41:32.998Z</time></trkpt><trkpt lat="40.6378468" lon="17.0514494"><ele>270.0</ele><time>2026-04-11T09:41:34.008Z</time></trkpt><trkpt lat="40.6379483" lon="17.0511552"><ele>271.0</ele><time>2026-04-11T09:41:35Z</time></trkpt><trkpt lat="40.6380392" lon="17.0508544"><ele>272.5</ele><time>2026-04-11T09:41:36.005Z</time></trkpt><trkpt lat="40.6381247" lon="17.0505553"><ele>274.0</ele><time>2026-04-11T09:41:37.004Z</time></trkpt><trkpt lat="40.6382164" lon="17.0502566"><ele>276.5</ele><time>2026-04-11T09:41:37.999Z</time></trkpt><trkpt lat="40.6383071" lon="17.0499543"><ele>279.0</ele><time>2026-04-11T09:41:38.984Z</time></trkpt><trkpt lat="40.6384037" lon="17.0496411"><ele>279.0</ele><time>2026-04-11T09:41:39.985Z</time></trkpt><trkpt lat="40.6385031" lon="17.0493395"><ele>279.0</ele><time>2026-04-11T09:41:40.997Z</time></trkpt><trkpt lat="40.6385896" lon="17.049037"><ele>280.0</ele><time>2026-04-11T09:41:42.006Z</time></trkpt><trkpt lat="40.6386785" lon="17.0487302"><ele>281.0</ele><time>2026-04-11T09:41:42.998Z</time></trkpt><trkpt lat="40.6387686" lon="17.0484271"><ele>283.0</ele><time>2026-04-11T09:41:43.986Z</time></trkpt><trkpt lat="40.6388639" lon="17.0481203"><ele>285.0</ele><time>2026-04-11T09:41:44.995Z</time></trkpt><trkpt lat="40.6389516" lon="17.0478117"><ele>285.0</ele><time>2026-04-11T09:41:46.002Z</time></trkpt><trkpt lat="40.639038" lon="17.047502"><ele>285.0</ele><time>2026-04-11T09:41:46.993Z</time></trkpt><trkpt lat="40.6391279" lon="17.0471963"><ele>288.5</ele><time>2026-04-11T09:41:47.982Z</time></trkpt><trkpt lat="40.6392235" lon="17.0468957"><ele>292.0</ele><time>2026-04-11T09:41:48.997Z</time></trkpt><trkpt lat="40.6393059" lon="17.0465922"><ele>292.5</ele><time>2026-04-11T09:41:50.004Z</time></trkpt><trkpt lat="40.639396" lon="17.0462941"><ele>293.0</ele><time>2026-04-11T09:41:50.99Z</time></trkpt><trkpt lat="40.6394718" lon="17.0460354"><ele>294.6666666666667</ele><time>2026-04-11T09:41:51.994Z</time></trkpt><trkpt lat="40.6395509" lon="17.0457713"><ele>296.3333333333333</ele><time>2026-04-11T09:41:52.989Z</time></trkpt><trkpt lat="40.6396264" lon="17.0455433"><ele>298.0</ele><time>2026-04-11T09:41:53.987Z</time></trkpt><trkpt lat="40.6396823" lon="17.0453436"><ele>298.0</ele><time>2026-04-11T09:41:55.022Z</time></trkpt><trkpt lat="40.639751" lon="17.0451283"><ele>298.0</ele><time>2026-04-11T09:41:56.032Z</time></trkpt><trkpt lat="40.6398199" lon="17.0449212"><ele>298.0</ele><time>2026-04-11T09:41:56.988Z</time></trkpt><trkpt lat="40.6398732" lon="17.0447183"><ele>300.3333333333333</ele><time>2026-04-11T09:41:58.017Z</time></trkpt><trkpt lat="40.6399341" lon="17.044516"><ele>302.6666666666667</ele><time>2026-04-11T09:41:59Z</time></trkpt><trkpt lat="40.6399975" lon="17.044326"><ele>305.0</ele><time>2026-04-11T09:42:00.007Z</time></trkpt><trkpt lat="40.6400624" lon="17.0441353"><ele>306.33333333333337</ele><time>2026-04-11T09:42:01.001Z</time></trkpt><trkpt lat="40.6401259" lon="17.0439447"><ele>307.6666666666667</ele><time>2026-04-11T09:42:02.003Z</time></trkpt><trkpt lat="40.6401914" lon="17.0437529"><ele>309.0</ele><time>2026-04-11T09:42:02.983Z</time></trkpt><trkpt lat="40.6402962" lon="17.0435928"><ele>308.6666666666667</ele><time>2026-04-11T09:42:04Z</time></trkpt><trkpt lat="40.6403959" lon="17.0434247"><ele>308.33333333333337</ele><time>2026-04-11T09:42:05Z</time></trkpt><trkpt lat="40.6405138" lon="17.0432633"><ele>308.0</ele><time>2026-04-11T09:42:06.008Z</time></trkpt><trkpt lat="40.6406347" lon="17.0431013"><ele>308.0</ele><time>2026-04-11T09:42:07.004Z</time></trkpt><trkpt lat="40.6407776" lon="17.0429628"><ele>308.0</ele><time>2026-04-11T09:42:08.006Z</time></trkpt><trkpt lat="40.640917" lon="17.0428211"><ele>308.0</ele><time>2026-04-11T09:42:09.001Z</time></trkpt><trkpt lat="40.6410363" lon="17.0426859"><ele>308.25</ele><time>2026-04-11T09:42:10.002Z</time></trkpt><trkpt lat="40.6411538" lon="17.042558"><ele>308.5</ele><time>2026-04-11T09:42:11.026Z</time></trkpt><trkpt lat="40.6412587" lon="17.0424435"><ele>308.75</ele><time>2026-04-11T09:42:12.035Z</time></trkpt><trkpt lat="40.6413568" lon="17.0423469"><ele>309.0</ele><time>2026-04-11T09:42:13.028Z</time></trkpt><trkpt lat="40.6414546" lon="17.0422532"><ele>309.0</ele><time>2026-04-11T09:42:13.985Z</time></trkpt><trkpt lat="40.6415272" lon="17.0421899"><ele>309.0</ele><time>2026-04-11T09:42:15.027Z</time></trkpt><trkpt lat="40.6415982" lon="17.0421272"><ele>309.0</ele><time>2026-04-11T09:42:16.032Z</time></trkpt><trkpt lat="40.6416639" lon="17.042073"><ele>309.0</ele><time>2026-04-11T09:42:17.02Z</time></trkpt><trkpt lat="40.6417211" lon="17.0420176"><ele>309.0</ele><time>2026-04-11T09:42:17.983Z</time></trkpt><trkpt lat="40.6417758" lon="17.0419389"><ele>309.0</ele><time>2026-04-11T09:42:19.993Z</time></trkpt><trkpt lat="40.6418159" lon="17.0418479"><ele>309.0</ele><time>2026-04-11T09:42:22.987Z</time></trkpt><trkpt lat="40.641831" lon="17.0417284"><ele>309.0</ele><time>2026-04-11T09:42:35.998Z</time></trkpt><trkpt lat="40.6418105" lon="17.0415878"><ele>309.0</ele><time>2026-04-11T09:42:37.989Z</time></trkpt><trkpt lat="40.6417696" lon="17.0415102"><ele>309.0</ele><time>2026-04-11T09:42:39.032Z</time></trkpt><trkpt lat="40.6417072" lon="17.0414356"><ele>309.0</ele><time>2026-04-11T09:42:39.997Z</time></trkpt><trkpt lat="40.6416522" lon="17.0413589"><ele>309.0</ele><time>2026-04-11T09:42:40.987Z</time></trkpt><trkpt lat="40.6415771" lon="17.0412974"><ele>309.3333333333333</ele><time>2026-04-11T09:42:41.988Z</time></trkpt><trkpt lat="40.6415249" lon="17.0412247"><ele>309.6666666666667</ele><time>2026-04-11T09:42:42.995Z</time></trkpt><trkpt lat="40.6414598" lon="17.0411507"><ele>310.0</ele><time>2026-04-11T09:42:43.994Z</time></trkpt><trkpt lat="40.6414106" lon="17.0410831"><ele>310.33333333333337</ele><time>2026-04-11T09:42:45.018Z</time></trkpt><trkpt lat="40.6413514" lon="17.0410062"><ele>310.6666666666667</ele><time>2026-04-11T09:42:45.997Z</time></trkpt><trkpt lat="40.6412791" lon="17.0409345"><ele>311.0</ele><time>2026-04-11T09:42:47.004Z</time></trkpt><trkpt lat="40.6412013" lon="17.0408499"><ele>311.0</ele><time>2026-04-11T09:42:47.999Z</time></trkpt><trkpt lat="40.6411344" lon="17.0407783"><ele>311.0</ele><time>2026-04-11T09:42:48.995Z</time></trkpt><trkpt lat="40.6410577" lon="17.0407015"><ele>311.0</ele><time>2026-04-11T09:42:50.004Z</time></trkpt><trkpt lat="40.6409851" lon="17.0406257"><ele>311.0</ele><time>2026-04-11T09:42:51Z</time></trkpt><trkpt lat="40.6409232" lon="17.0405374"><ele>311.0</ele><time>2026-04-11T09:42:51.999Z</time></trkpt><trkpt lat="40.6408664" lon="17.0404661"><ele>311.0</ele><time>2026-04-11T09:42:53.035Z</time></trkpt><trkpt lat="40.6408067" lon="17.040393"><ele>311.0</ele><time>2026-04-11T09:42:53.996Z</time></trkpt><trkpt lat="40.6407393" lon="17.0403182"><ele>311.0</ele><time>2026-04-11T09:42:55.027Z</time></trkpt><trkpt lat="40.6406665" lon="17.040248"><ele>311.0</ele><time>2026-04-11T09:42:55.989Z</time></trkpt><trkpt lat="40.6405888" lon="17.0401812"><ele>311.0</ele><time>2026-04-11T09:42:56.998Z</time></trkpt><trkpt lat="40.6405155" lon="17.0401072"><ele>311.0</ele><time>2026-04-11T09:42:57.988Z</time></trkpt><trkpt lat="40.6404494" lon="17.0400412"><ele>311.0</ele><time>2026-04-11T09:42:58.995Z</time></trkpt><trkpt lat="40.6403692" lon="17.0399646"><ele>312.0</ele><time>2026-04-11T09:43:00.008Z</time></trkpt><trkpt lat="40.640299" lon="17.0398803"><ele>313.0</ele><time>2026-04-11T09:43:01Z</time></trkpt><trkpt lat="40.6402276" lon="17.0398016"><ele>314.0</ele><time>2026-04-11T09:43:01.996Z</time></trkpt><trkpt lat="40.6401595" lon="17.0397228"><ele>315.0</ele><time>2026-04-11T09:43:03.013Z</time></trkpt><trkpt lat="40.6400956" lon="17.039651"><ele>316.0</ele><time>2026-04-11T09:43:04.001Z</time></trkpt><trkpt lat="40.6400335" lon="17.0395987"><ele>317.0</ele><time>2026-04-11T09:43:05.005Z</time></trkpt><trkpt lat="40.6399774" lon="17.039538"><ele>317.0</ele><time>2026-04-11T09:43:05.998Z</time></trkpt><trkpt lat="40.6399209" lon="17.0394857"><ele>317.0</ele><time>2026-04-11T09:43:07.006Z</time></trkpt><trkpt lat="40.639838" lon="17.039392"><ele>317.0</ele><time>2026-04-11T09:43:08.999Z</time></trkpt><trkpt lat="40.6397788" lon="17.0393194"><ele>317.0</ele><time>2026-04-11T09:43:11Z</time></trkpt><trkpt lat="40.6397358" lon="17.0392575"><ele>317.0</ele><time>2026-04-11T09:43:13.996Z</time></trkpt><trkpt lat="40.6397022" lon="17.0391866"><ele>317.0</ele><time>2026-04-11T09:43:16.994Z</time></trkpt><trkpt lat="40.6396856" lon="17.0390839"><ele>317.5</ele><time>2026-04-11T09:43:19.026Z</time></trkpt><trkpt lat="40.6395869" lon="17.0389944"><ele>318.0</ele><time>2026-04-11T09:43:21.029Z</time></trkpt><trkpt lat="40.6395244" lon="17.0389591"><ele>318.5</ele><time>2026-04-11T09:43:22.029Z</time></trkpt><trkpt lat="40.6394623" lon="17.0389232"><ele>319.0</ele><time>2026-04-11T09:43:22.983Z</time></trkpt><trkpt lat="40.6393974" lon="17.0388415"><ele>319.5</ele><time>2026-04-11T09:43:23.991Z</time></trkpt><trkpt lat="40.6393316" lon="17.0387738"><ele>320.0</ele><time>2026-04-11T09:43:24.997Z</time></trkpt><trkpt lat="40.6392689" lon="17.0387029"><ele>320.1666666666667</ele><time>2026-04-11T09:43:26.032Z</time></trkpt><trkpt lat="40.6392207" lon="17.0386358"><ele>320.33333333333337</ele><time>2026-04-11T09:43:27.028Z</time></trkpt><trkpt lat="40.6391692" lon="17.0385803"><ele>320.5</ele><time>2026-04-11T09:43:27.994Z</time></trkpt><trkpt lat="40.6390986" lon="17.0385177"><ele>320.6666666666667</ele><time>2026-04-11T09:43:30.028Z</time></trkpt><trkpt lat="40.6390273" lon="17.0384463"><ele>320.8333333333333</ele><time>2026-04-11T09:43:32.031Z</time></trkpt><trkpt lat="40.6389616" lon="17.0383786"><ele>321.0</ele><time>2026-04-11T09:43:34.027Z</time></trkpt><trkpt lat="40.6389043" lon="17.0383436"><ele>321.1666666666667</ele><time>2026-04-11T09:43:38Z</time></trkpt><trkpt lat="40.6388577" lon="17.0382846"><ele>321.3333333333333</ele><time>2026-04-11T09:43:41.998Z</time></trkpt><trkpt lat="40.6388133" lon="17.0382237"><ele>321.5</ele><time>2026-04-11T09:43:43.998Z</time></trkpt><trkpt lat="40.6387498" lon="17.0381568"><ele>321.66666666666663</ele><time>2026-04-11T09:43:47Z</time></trkpt><trkpt lat="40.6386421" lon="17.0380764"><ele>321.8333333333333</ele><time>2026-04-11T09:43:49.996Z</time></trkpt><trkpt lat="40.6385529" lon="17.0380069"><ele>322.0</ele><time>2026-04-11T09:43:51.982Z</time></trkpt><trkpt lat="40.6384882" lon="17.0380402"><ele>322.16666666666663</ele><time>2026-04-11T09:43:53.036Z</time></trkpt><trkpt lat="40.638417" lon="17.038052"><ele>322.3333333333333</ele><time>2026-04-11T09:43:54.029Z</time></trkpt><trkpt lat="40.638343" lon="17.0380653"><ele>322.5</ele><time>2026-04-11T09:43:54.997Z</time></trkpt><trkpt lat="40.638261" lon="17.0380701"><ele>322.6666666666667</ele><time>2026-04-11T09:43:56.067Z</time></trkpt><trkpt lat="40.6381922" lon="17.0380669"><ele>322.83333333333337</ele><time>2026-04-11T09:43:56.999Z</time></trkpt><trkpt lat="40.6380848" lon="17.0380855"><ele>323.0</ele><time>2026-04-11T09:43:58.988Z</time></trkpt><trkpt lat="40.6380163" lon="17.0381008"><ele>323.0</ele><time>2026-04-11T09:44:00.986Z</time></trkpt><trkpt lat="40.6379356" lon="17.0381174"><ele>323.0</ele><time>2026-04-11T09:44:02.998Z</time></trkpt><trkpt lat="40.6378543" lon="17.0381273"><ele>323.0</ele><time>2026-04-11T09:44:04.996Z</time></trkpt><trkpt lat="40.6377662" lon="17.0381601"><ele>323.0</ele><time>2026-04-11T09:44:07.044Z</time></trkpt><trkpt lat="40.6376832" lon="17.038177"><ele>323.0</ele><time>2026-04-11T09:44:10.032Z</time></trkpt><trkpt lat="40.6376146" lon="17.038186"><ele>323.0</ele><time>2026-04-11T09:44:12.025Z</time></trkpt><trkpt lat="40.6375344" lon="17.0382015"><ele>334.0</ele><time>2026-04-11T09:44:13.994Z</time></trkpt><trkpt lat="40.63746" lon="17.0382337"><ele>334.0</ele><time>2026-04-11T09:44:17.027Z</time></trkpt><trkpt lat="40.6373988" lon="17.0382106"><ele>334.0</ele><time>2026-04-11T09:44:22.99Z</time></trkpt><trkpt lat="40.6373409" lon="17.0382492"><ele>334.0</ele><time>2026-04-11T09:44:51.997Z</time></trkpt><trkpt lat="40.6372825" lon="17.0381874"><ele>334.0</ele><time>2026-04-11T09:44:57.008Z</time></trkpt></trkseg><trkseg><trkpt lat="40.6372678" lon="17.038267"><ele>333.66666666666663</ele><time>2026-04-11T09:58:50.995Z</time></trkpt><trkpt lat="40.6372866" lon="17.0383473"><ele>333.3333333333333</ele><time>2026-04-11T09:58:59.029Z</time></trkpt><trkpt lat="40.6372953" lon="17.0384427"><ele>333.0</ele><time>2026-04-11T09:59:01.99Z</time></trkpt><trkpt lat="40.6372659" lon="17.0385384"><ele>332.6666666666667</ele><time>2026-04-11T09:59:04.031Z</time></trkpt><trkpt lat="40.6372159" lon="17.0386349"><ele>332.33333333333337</ele><time>2026-04-11T09:59:05.995Z</time></trkpt><trkpt lat="40.6371458" lon="17.0387214"><ele>332.0</ele><time>2026-04-11T09:59:06.992Z</time></trkpt><trkpt lat="40.637104" lon="17.0388029"><ele>332.0</ele><time>2026-04-11T09:59:07.997Z</time></trkpt><trkpt lat="40.637046" lon="17.0388805"><ele>332.0</ele><time>2026-04-11T09:59:08.993Z</time></trkpt><trkpt lat="40.6369605" lon="17.039006"><ele>332.0</ele><time>2026-04-11T09:59:10.988Z</time></trkpt><trkpt lat="40.6368695" lon="17.0391374"><ele>332.0</ele><time>2026-04-11T09:59:12.998Z</time></trkpt><trkpt lat="40.6368086" lon="17.0391873"><ele>332.0</ele><time>2026-04-11T09:59:14.027Z</time></trkpt><trkpt lat="40.6367152" lon="17.0392722"><ele>334.0</ele><time>2026-04-11T09:59:15.997Z</time></trkpt><trkpt lat="40.6366546" lon="17.0393005"><ele>336.0</ele><time>2026-04-11T09:59:17.02Z</time></trkpt><trkpt lat="40.6365761" lon="17.0393383"><ele>338.0</ele><time>2026-04-11T09:59:19.023Z</time></trkpt><trkpt lat="40.6365139" lon="17.0394044"><ele>340.0</ele><time>2026-04-11T09:59:20.992Z</time></trkpt><trkpt lat="40.6363656" lon="17.0394747"><ele>342.0</ele><time>2026-04-11T09:59:22.99Z</time></trkpt><trkpt lat="40.6362761" lon="17.0395299"><ele>342.0</ele><time>2026-04-11T09:59:23.988Z</time></trkpt><trkpt lat="40.6361921" lon="17.0395836"><ele>342.0</ele><time>2026-04-11T09:59:24.988Z</time></trkpt><trkpt lat="40.6360842" lon="17.0396482"><ele>342.0</ele><time>2026-04-11T09:59:25.994Z</time></trkpt><trkpt lat="40.6359768" lon="17.0397094"><ele>342.0</ele><time>2026-04-11T09:59:27Z</time></trkpt><trkpt lat="40.6358668" lon="17.0397682"><ele>342.0</ele><time>2026-04-11T09:59:27.992Z</time></trkpt><trkpt lat="40.6357448" lon="17.0398214"><ele>343.20000000000005</ele><time>2026-04-11T09:59:28.987Z</time></trkpt><trkpt lat="40.6356235" lon="17.0398742"><ele>344.4</ele><time>2026-04-11T09:59:29.995Z</time></trkpt><trkpt lat="40.6355162" lon="17.0399261"><ele>345.6</ele><time>2026-04-11T09:59:30.987Z</time></trkpt><trkpt lat="40.6354115" lon="17.0399706"><ele>346.79999999999995</ele><time>2026-04-11T09:59:31.992Z</time></trkpt><trkpt lat="40.6353259" lon="17.0400022"><ele>348.0</ele><time>2026-04-11T09:59:32.993Z</time></trkpt><trkpt lat="40.6352428" lon="17.0400391"><ele>350.0</ele><time>2026-04-11T09:59:34.028Z</time></trkpt><trkpt lat="40.6351727" lon="17.0400701"><ele>352.0</ele><time>2026-04-11T09:59:34.994Z</time></trkpt><trkpt lat="40.6351018" lon="17.0400941"><ele>354.0</ele><time>2026-04-11T09:59:35.992Z</time></trkpt><trkpt lat="40.6350354" lon="17.0401267"><ele>356.0</ele><time>2026-04-11T09:59:36.995Z</time></trkpt><trkpt lat="40.6349739" lon="17.0401458"><ele>358.0</ele><time>2026-04-11T09:59:37.991Z</time></trkpt><trkpt lat="40.6349097" lon="17.0401784"><ele>360.0</ele><time>2026-04-11T09:59:39.069Z</time></trkpt><trkpt lat="40.6348418" lon="17.0402136"><ele>362.0</ele><time>2026-04-11T09:59:39.996Z</time></trkpt><trkpt lat="40.6347737" lon="17.0402489"><ele>362.0</ele><time>2026-04-11T09:59:40.99Z</time></trkpt><trkpt lat="40.634704" lon="17.0402816"><ele>362.0</ele><time>2026-04-11T09:59:42Z</time></trkpt><trkpt lat="40.6346459" lon="17.0403282"><ele>362.0</ele><time>2026-04-11T09:59:42.991Z</time></trkpt><trkpt lat="40.6345791" lon="17.0403607"><ele>362.0</ele><time>2026-04-11T09:59:43.992Z</time></trkpt><trkpt lat="40.6344959" lon="17.0403848"><ele>362.0</ele><time>2026-04-11T09:59:44.995Z</time></trkpt><trkpt lat="40.6344192" lon="17.0404232"><ele>362.0</ele><time>2026-04-11T09:59:45.993Z</time></trkpt><trkpt lat="40.6342729" lon="17.0404936"><ele>364.6</ele><time>2026-04-11T09:59:48.031Z</time></trkpt><trkpt lat="40.6341887" lon="17.0405398"><ele>367.20000000000005</ele><time>2026-04-11T09:59:49.024Z</time></trkpt><trkpt lat="40.6341135" lon="17.04057"><ele>369.8</ele><time>2026-04-11T09:59:49.991Z</time></trkpt><trkpt lat="40.6340065" lon="17.0406184"><ele>372.4</ele><time>2026-04-11T09:59:51.99Z</time></trkpt><trkpt lat="40.6339369" lon="17.0406487"><ele>375.0</ele><time>2026-04-11T09:59:52.991Z</time></trkpt><trkpt lat="40.6338133" lon="17.0406847"><ele>375.0</ele><time>2026-04-11T09:59:54.989Z</time></trkpt><trkpt lat="40.6337419" lon="17.0406988"><ele>375.0</ele><time>2026-04-11T09:59:55.991Z</time></trkpt><trkpt lat="40.6336613" lon="17.0407306"><ele>375.0</ele><time>2026-04-11T09:59:56.995Z</time></trkpt><trkpt lat="40.633582" lon="17.0407504"><ele>375.0</ele><time>2026-04-11T09:59:57.992Z</time></trkpt><trkpt lat="40.6334953" lon="17.0407711"><ele>375.0</ele><time>2026-04-11T09:59:58.989Z</time></trkpt><trkpt lat="40.6334043" lon="17.0408015"><ele>375.0</ele><time>2026-04-11T10:00:00.001Z</time></trkpt><trkpt lat="40.6333151" lon="17.0408406"><ele>374.0</ele><time>2026-04-11T10:00:01.002Z</time></trkpt><trkpt lat="40.6332269" lon="17.0408703"><ele>373.0</ele><time>2026-04-11T10:00:01.994Z</time></trkpt><trkpt lat="40.633133" lon="17.0408745"><ele>372.0</ele><time>2026-04-11T10:00:03Z</time></trkpt><trkpt lat="40.6330615" lon="17.0408774"><ele>371.0</ele><time>2026-04-11T10:00:03.992Z</time></trkpt><trkpt lat="40.6329889" lon="17.0408512"><ele>370.0</ele><time>2026-04-11T10:00:05Z</time></trkpt><trkpt lat="40.6329148" lon="17.0408729"><ele>369.0</ele><time>2026-04-11T10:00:05.992Z</time></trkpt><trkpt lat="40.6328368" lon="17.040868"><ele>369.6666666666667</ele><time>2026-04-11T10:00:07.001Z</time></trkpt><trkpt lat="40.6327568" lon="17.0408701"><ele>370.3333333333333</ele><time>2026-04-11T10:00:07.988Z</time></trkpt><trkpt lat="40.6326756" lon="17.0408678"><ele>371.0</ele><time>2026-04-11T10:00:08.994Z</time></trkpt><trkpt lat="40.6326053" lon="17.0408721"><ele>371.66666666666663</ele><time>2026-04-11T10:00:09.992Z</time></trkpt><trkpt lat="40.632528" lon="17.0409017"><ele>372.3333333333333</ele><time>2026-04-11T10:00:10.987Z</time></trkpt><trkpt lat="40.6324342" lon="17.0409119"><ele>373.0</ele><time>2026-04-11T10:00:11.994Z</time></trkpt><trkpt lat="40.6323182" lon="17.0408023"><ele>373.8333333333333</ele><time>2026-04-11T10:00:13.993Z</time></trkpt><trkpt lat="40.6322787" lon="17.0407261"><ele>374.66666666666663</ele><time>2026-04-11T10:00:15.014Z</time></trkpt><trkpt lat="40.6322378" lon="17.0406131"><ele>375.5</ele><time>2026-04-11T10:00:16Z</time></trkpt><trkpt lat="40.6322151" lon="17.0405206"><ele>376.3333333333333</ele><time>2026-04-11T10:00:16.999Z</time></trkpt><trkpt lat="40.632187" lon="17.04043"><ele>377.1666666666667</ele><time>2026-04-11T10:00:18.02Z</time></trkpt><trkpt lat="40.6321671" lon="17.0402652"><ele>378.0</ele><time>2026-04-11T10:00:20Z</time></trkpt><trkpt lat="40.6321676" lon="17.0401782"><ele>378.0</ele><time>2026-04-11T10:00:21.003Z</time></trkpt><trkpt lat="40.6321651" lon="17.0400809"><ele>378.0</ele><time>2026-04-11T10:00:21.998Z</time></trkpt><trkpt lat="40.6321586" lon="17.039982"><ele>378.0</ele><time>2026-04-11T10:00:22.991Z</time></trkpt><trkpt lat="40.6321614" lon="17.0398768"><ele>378.0</ele><time>2026-04-11T10:00:23.998Z</time></trkpt><trkpt lat="40.6321594" lon="17.0397657"><ele>378.0</ele><time>2026-04-11T10:00:24.995Z</time></trkpt><trkpt lat="40.6321541" lon="17.0396571"><ele>378.0</ele><time>2026-04-11T10:00:25.99Z</time></trkpt><trkpt lat="40.6321505" lon="17.0395409"><ele>378.1666666666667</ele><time>2026-04-11T10:00:26.992Z</time></trkpt><trkpt lat="40.6321479" lon="17.0394201"><ele>378.3333333333333</ele><time>2026-04-11T10:00:27.991Z</time></trkpt><trkpt lat="40.632138" lon="17.0393031"><ele>378.5</ele><time>2026-04-11T10:00:28.996Z</time></trkpt><trkpt lat="40.6321386" lon="17.0392087"><ele>378.66666666666663</ele><time>2026-04-11T10:00:29.991Z</time></trkpt><trkpt lat="40.6321338" lon="17.0391087"><ele>378.8333333333333</ele><time>2026-04-11T10:00:30.994Z</time></trkpt><trkpt lat="40.6321413" lon="17.0390233"><ele>379.0</ele><time>2026-04-11T10:00:31.998Z</time></trkpt><trkpt lat="40.6321373" lon="17.0388896"><ele>378.0</ele><time>2026-04-11T10:00:34.001Z</time></trkpt><trkpt lat="40.6321592" lon="17.0387856"><ele>377.0</ele><time>2026-04-11T10:00:35.99Z</time></trkpt><trkpt lat="40.6322492" lon="17.0387067"><ele>376.0</ele><time>2026-04-11T10:00:38.036Z</time></trkpt><trkpt lat="40.6323038" lon="17.0386653"><ele>375.0</ele><time>2026-04-11T10:00:39.007Z</time></trkpt><trkpt lat="40.6323757" lon="17.0386189"><ele>374.0</ele><time>2026-04-11T10:00:39.997Z</time></trkpt><trkpt lat="40.6324385" lon="17.0385802"><ele>373.0</ele><time>2026-04-11T10:00:41.005Z</time></trkpt><trkpt lat="40.6325339" lon="17.0384887"><ele>373.0</ele><time>2026-04-11T10:00:42.995Z</time></trkpt><trkpt lat="40.6326303" lon="17.0384509"><ele>373.0</ele><time>2026-04-11T10:00:44.989Z</time></trkpt><trkpt lat="40.6327398" lon="17.0383859"><ele>373.0</ele><time>2026-04-11T10:00:47Z</time></trkpt><trkpt lat="40.6328567" lon="17.0383188"><ele>373.0</ele><time>2026-04-11T10:00:49.009Z</time></trkpt><trkpt lat="40.6329194" lon="17.038278"><ele>373.0</ele><time>2026-04-11T10:00:50.01Z</time></trkpt><trkpt lat="40.6329789" lon="17.0382425"><ele>372.8333333333333</ele><time>2026-04-11T10:00:50.987Z</time></trkpt><trkpt lat="40.6330464" lon="17.0382091"><ele>372.66666666666663</ele><time>2026-04-11T10:00:51.998Z</time></trkpt><trkpt lat="40.6331025" lon="17.0381618"><ele>372.5</ele><time>2026-04-11T10:00:52.995Z</time></trkpt><trkpt lat="40.6331642" lon="17.0381137"><ele>372.3333333333333</ele><time>2026-04-11T10:00:53.989Z</time></trkpt><trkpt lat="40.6332311" lon="17.0380691"><ele>372.1666666666667</ele><time>2026-04-11T10:00:55.001Z</time></trkpt><trkpt lat="40.6332921" lon="17.038019"><ele>372.0</ele><time>2026-04-11T10:00:55.994Z</time></trkpt><trkpt lat="40.6334003" lon="17.0379486"><ele>372.0</ele><time>2026-04-11T10:00:57.995Z</time></trkpt><trkpt lat="40.6334748" lon="17.0379314"><ele>372.0</ele><time>2026-04-11T10:00:58.995Z</time></trkpt><trkpt lat="40.6335537" lon="17.0378798"><ele>372.0</ele><time>2026-04-11T10:00:59.989Z</time></trkpt><trkpt lat="40.6336316" lon="17.0378034"><ele>372.0</ele><time>2026-04-11T10:01:01.009Z</time></trkpt><trkpt lat="40.6337602" lon="17.0377102"><ele>372.0</ele><time>2026-04-11T10:01:02.986Z</time></trkpt><trkpt lat="40.6338145" lon="17.0376675"><ele>373.20000000000005</ele><time>2026-04-11T10:01:03.99Z</time></trkpt><trkpt lat="40.6339439" lon="17.0376312"><ele>374.4</ele><time>2026-04-11T10:01:05.995Z</time></trkpt><trkpt lat="40.6340068" lon="17.0375637"><ele>375.6</ele><time>2026-04-11T10:01:07.985Z</time></trkpt><trkpt lat="40.6340956" lon="17.0375096"><ele>376.79999999999995</ele><time>2026-04-11T10:01:09.996Z</time></trkpt><trkpt lat="40.6341615" lon="17.0374121"><ele>378.0</ele><time>2026-04-11T10:01:11.992Z</time></trkpt><trkpt lat="40.6342046" lon="17.0373075"><ele>378.0</ele><time>2026-04-11T10:01:14.021Z</time></trkpt><trkpt lat="40.6342653" lon="17.0372095"><ele>378.0</ele><time>2026-04-11T10:01:15.978Z</time></trkpt><trkpt lat="40.6343557" lon="17.0371172"><ele>378.0</ele><time>2026-04-11T10:01:18Z</time></trkpt><trkpt lat="40.6344404" lon="17.037049"><ele>378.0</ele><time>2026-04-11T10:01:19.991Z</time></trkpt><trkpt lat="40.6345447" lon="17.0369881"><ele>378.0</ele><time>2026-04-11T10:01:22.022Z</time></trkpt><trkpt lat="40.6345979" lon="17.0369419"><ele>378.3333333333333</ele><time>2026-04-11T10:01:22.992Z</time></trkpt><trkpt lat="40.6346881" lon="17.0368368"><ele>378.6666666666667</ele><time>2026-04-11T10:01:24.996Z</time></trkpt><trkpt lat="40.6347489" lon="17.0367914"><ele>379.0</ele><time>2026-04-11T10:01:25.994Z</time></trkpt><trkpt lat="40.6348085" lon="17.0367499"><ele>379.33333333333337</ele><time>2026-04-11T10:01:26.991Z</time></trkpt><trkpt lat="40.6348711" lon="17.036704"><ele>379.6666666666667</ele><time>2026-04-11T10:01:27.991Z</time></trkpt><trkpt lat="40.6349354" lon="17.0366679"><ele>380.0</ele><time>2026-04-11T10:01:28.992Z</time></trkpt><trkpt lat="40.6349911" lon="17.0366258"><ele>378.6666666666667</ele><time>2026-04-11T10:01:29.994Z</time></trkpt><trkpt lat="40.6350442" lon="17.0365768"><ele>377.33333333333337</ele><time>2026-04-11T10:01:30.996Z</time></trkpt><trkpt lat="40.6350992" lon="17.0365237"><ele>376.0</ele><time>2026-04-11T10:01:31.988Z</time></trkpt><trkpt lat="40.6351568" lon="17.0364809"><ele>374.6666666666667</ele><time>2026-04-11T10:01:32.989Z</time></trkpt><trkpt lat="40.6352148" lon="17.0364398"><ele>373.3333333333333</ele><time>2026-04-11T10:01:33.996Z</time></trkpt><trkpt lat="40.6353191" lon="17.0363594"><ele>372.0</ele><time>2026-04-11T10:01:36.056Z</time></trkpt><trkpt lat="40.635404" lon="17.0362957"><ele>371.3333333333333</ele><time>2026-04-11T10:01:37.993Z</time></trkpt><trkpt lat="40.6354707" lon="17.0362664"><ele>370.6666666666667</ele><time>2026-04-11T10:01:39.991Z</time></trkpt><trkpt lat="40.6355435" lon="17.0363241"><ele>370.0</ele><time>2026-04-11T10:01:41.993Z</time></trkpt><trkpt lat="40.6356141" lon="17.0364528"><ele>369.33333333333337</ele><time>2026-04-11T10:01:44.002Z</time></trkpt><trkpt lat="40.6356642" lon="17.0365268"><ele>368.6666666666667</ele><time>2026-04-11T10:01:45.001Z</time></trkpt><trkpt lat="40.6357036" lon="17.0366065"><ele>368.0</ele><time>2026-04-11T10:01:45.989Z</time></trkpt><trkpt lat="40.6357441" lon="17.0366908"><ele>369.33333333333337</ele><time>2026-04-11T10:01:47.001Z</time></trkpt><trkpt lat="40.6357777" lon="17.0367708"><ele>370.6666666666667</ele><time>2026-04-11T10:01:47.999Z</time></trkpt><trkpt lat="40.6358093" lon="17.0368452"><ele>372.0</ele><time>2026-04-11T10:01:48.995Z</time></trkpt><trkpt lat="40.635849" lon="17.0369235"><ele>373.3333333333333</ele><time>2026-04-11T10:01:49.998Z</time></trkpt><trkpt lat="40.6358975" lon="17.0370512"><ele>374.66666666666663</ele><time>2026-04-11T10:01:51.993Z</time></trkpt><trkpt lat="40.6359652" lon="17.0371556"><ele>376.0</ele><time>2026-04-11T10:01:54.024Z</time></trkpt><trkpt lat="40.6360371" lon="17.0372685"><ele>376.0</ele><time>2026-04-11T10:01:55.992Z</time></trkpt><trkpt lat="40.6360532" lon="17.0373604"><ele>376.0</ele><time>2026-04-11T10:01:56.992Z</time></trkpt><trkpt lat="40.6360703" lon="17.0374574"><ele>376.0</ele><time>2026-04-11T10:01:57.999Z</time></trkpt><trkpt lat="40.6360814" lon="17.037557"><ele>376.0</ele><time>2026-04-11T10:01:58.998Z</time></trkpt><trkpt lat="40.6360802" lon="17.0376584"><ele>376.0</ele><time>2026-04-11T10:01:59.998Z</time></trkpt><trkpt lat="40.6360806" lon="17.0377494"><ele>376.0</ele><time>2026-04-11T10:02:01.055Z</time></trkpt><trkpt lat="40.6360822" lon="17.0378777"><ele>375.8</ele><time>2026-04-11T10:02:02.993Z</time></trkpt><trkpt lat="40.6360803" lon="17.0379807"><ele>375.6</ele><time>2026-04-11T10:02:04.99Z</time></trkpt><trkpt lat="40.6360739" lon="17.0380947"><ele>375.4</ele><time>2026-04-11T10:02:06.99Z</time></trkpt><trkpt lat="40.636055" lon="17.0382202"><ele>375.2</ele><time>2026-04-11T10:02:08.995Z</time></trkpt><trkpt lat="40.6360254" lon="17.038371"><ele>375.0</ele><time>2026-04-11T10:02:10.997Z</time></trkpt><trkpt lat="40.635976" lon="17.0385084"><ele>375.0</ele><time>2026-04-11T10:02:12.995Z</time></trkpt><trkpt lat="40.6358715" lon="17.0385895"><ele>375.0</ele><time>2026-04-11T10:02:14.993Z</time></trkpt><trkpt lat="40.6358101" lon="17.038638"><ele>375.0</ele><time>2026-04-11T10:02:15.993Z</time></trkpt><trkpt lat="40.635699" lon="17.0387318"><ele>375.0</ele><time>2026-04-11T10:02:17.993Z</time></trkpt><trkpt lat="40.6356415" lon="17.03878"><ele>375.0</ele><time>2026-04-11T10:02:18.998Z</time></trkpt><trkpt lat="40.635577" lon="17.0388205"><ele>375.0</ele><time>2026-04-11T10:02:19.991Z</time></trkpt><trkpt lat="40.6355172" lon="17.0388521"><ele>375.0</ele><time>2026-04-11T10:02:20.989Z</time></trkpt><trkpt lat="40.6354066" lon="17.0389346"><ele>375.0</ele><time>2026-04-11T10:02:22.996Z</time></trkpt><trkpt lat="40.6353338" lon="17.0389595"><ele>375.0</ele><time>2026-04-11T10:02:23.992Z</time></trkpt><trkpt lat="40.635267" lon="17.0389862"><ele>375.0</ele><time>2026-04-11T10:02:24.997Z</time></trkpt><trkpt lat="40.6352082" lon="17.0390343"><ele>375.0</ele><time>2026-04-11T10:02:25.99Z</time></trkpt><trkpt lat="40.6351421" lon="17.0390721"><ele>375.8333333333333</ele><time>2026-04-11T10:02:26.988Z</time></trkpt><trkpt lat="40.6350898" lon="17.0391313"><ele>376.6666666666667</ele><time>2026-04-11T10:02:27.998Z</time></trkpt><trkpt lat="40.6350211" lon="17.0391757"><ele>377.5</ele><time>2026-04-11T10:02:28.992Z</time></trkpt><trkpt lat="40.6349461" lon="17.039208"><ele>378.33333333333337</ele><time>2026-04-11T10:02:29.992Z</time></trkpt><trkpt lat="40.6348849" lon="17.0392454"><ele>379.1666666666667</ele><time>2026-04-11T10:02:30.989Z</time></trkpt><trkpt lat="40.6347831" lon="17.0392968"><ele>380.0</ele><time>2026-04-11T10:02:32.993Z</time></trkpt><trkpt lat="40.6347163" lon="17.0392122"><ele>380.6666666666667</ele><time>2026-04-11T10:02:34.996Z</time></trkpt><trkpt lat="40.6346997" lon="17.0390767"><ele>381.33333333333337</ele><time>2026-04-11T10:02:36.994Z</time></trkpt><trkpt lat="40.6346702" lon="17.0389681"><ele>382.0</ele><time>2026-04-11T10:02:39.991Z</time></trkpt><trkpt lat="40.6346613" lon="17.0388705"><ele>382.6666666666667</ele><time>2026-04-11T10:02:41.997Z</time></trkpt><trkpt lat="40.6346373" lon="17.0387872"><ele>383.3333333333333</ele><time>2026-04-11T10:02:44.997Z</time></trkpt><trkpt lat="40.6345995" lon="17.0387204"><ele>384.0</ele><time>2026-04-11T10:02:58.989Z</time></trkpt><trkpt lat="40.6345489" lon="17.03867"><ele>384.0</ele><time>2026-04-11T10:03:10.998Z</time></trkpt></trkseg><trkseg><trkpt lat="40.633962" lon="17.038833"><ele>386.0</ele><time>2026-04-11T10:36:29.982Z</time></trkpt><trkpt lat="40.6337879" lon="17.0389432"><ele>386.0</ele><time>2026-04-11T10:36:32.983Z</time></trkpt><trkpt lat="40.6337227" lon="17.0389213"><ele>386.0</ele><time>2026-04-11T10:36:33.988Z</time></trkpt><trkpt lat="40.6336013" lon="17.0390045"><ele>386.0</ele><time>2026-04-11T10:36:35.982Z</time></trkpt><trkpt lat="40.6335614" lon="17.03907"><ele>385.4</ele><time>2026-04-11T10:36:36.982Z</time></trkpt><trkpt lat="40.6335331" lon="17.0391699"><ele>384.8</ele><time>2026-04-11T10:36:37.989Z</time></trkpt><trkpt lat="40.6334523" lon="17.0391916"><ele>384.2</ele><time>2026-04-11T10:36:39.983Z</time></trkpt><trkpt lat="40.6333632" lon="17.039205"><ele>383.59999999999997</ele><time>2026-04-11T10:36:41.985Z</time></trkpt><trkpt lat="40.6332641" lon="17.0392891"><ele>383.0</ele><time>2026-04-11T10:36:43.991Z</time></trkpt><trkpt lat="40.6331808" lon="17.0393397"><ele>383.0</ele><time>2026-04-11T10:36:45.984Z</time></trkpt><trkpt lat="40.6331091" lon="17.0393635"><ele>383.0</ele><time>2026-04-11T10:36:46.984Z</time></trkpt><trkpt lat="40.6330241" lon="17.0393784"><ele>383.0</ele><time>2026-04-11T10:36:47.994Z</time></trkpt><trkpt lat="40.6329136" lon="17.0394313"><ele>383.0</ele><time>2026-04-11T10:36:49.984Z</time></trkpt><trkpt lat="40.6328366" lon="17.0394528"><ele>383.0</ele><time>2026-04-11T10:36:50.985Z</time></trkpt><trkpt lat="40.6327463" lon="17.0395528"><ele>382.2</ele><time>2026-04-11T10:36:52.979Z</time></trkpt><trkpt lat="40.6326468" lon="17.0395795"><ele>381.4</ele><time>2026-04-11T10:36:55.986Z</time></trkpt><trkpt lat="40.6325685" lon="17.0396355"><ele>380.59999999999997</ele><time>2026-04-11T10:36:57.988Z</time></trkpt><trkpt lat="40.6324945" lon="17.0396463"><ele>379.79999999999995</ele><time>2026-04-11T10:36:58.99Z</time></trkpt><trkpt lat="40.6324407" lon="17.0397168"><ele>379.0</ele><time>2026-04-11T10:36:59.987Z</time></trkpt><trkpt lat="40.6323221" lon="17.0397856"><ele>379.0</ele><time>2026-04-11T10:37:01.99Z</time></trkpt><trkpt lat="40.6322278" lon="17.0398188"><ele>379.0</ele><time>2026-04-11T10:37:03.981Z</time></trkpt><trkpt lat="40.6321752" lon="17.039734"><ele>379.0</ele><time>2026-04-11T10:37:05.99Z</time></trkpt><trkpt lat="40.632156" lon="17.0395637"><ele>379.0</ele><time>2026-04-11T10:37:07.987Z</time></trkpt><trkpt lat="40.6321448" lon="17.0394713"><ele>379.0</ele><time>2026-04-11T10:37:08.992Z</time></trkpt><trkpt lat="40.6321417" lon="17.0393692"><ele>379.0</ele><time>2026-04-11T10:37:09.988Z</time></trkpt><trkpt lat="40.6321324" lon="17.0392615"><ele>379.0</ele><time>2026-04-11T10:37:10.987Z</time></trkpt><trkpt lat="40.6321224" lon="17.0391461"><ele>379.0</ele><time>2026-04-11T10:37:11.991Z</time></trkpt><trkpt lat="40.6321122" lon="17.0390503"><ele>379.0</ele><time>2026-04-11T10:37:12.984Z</time></trkpt><trkpt lat="40.6320962" lon="17.038947"><ele>379.0</ele><time>2026-04-11T10:37:13.989Z</time></trkpt><trkpt lat="40.6321012" lon="17.0388506"><ele>379.0</ele><time>2026-04-11T10:37:14.983Z</time></trkpt><trkpt lat="40.6321031" lon="17.0387581"><ele>377.79999999999995</ele><time>2026-04-11T10:37:15.986Z</time></trkpt><trkpt lat="40.6321" lon="17.0386723"><ele>376.59999999999997</ele><time>2026-04-11T10:37:16.986Z</time></trkpt><trkpt lat="40.6321044" lon="17.0385125"><ele>375.4</ele><time>2026-04-11T10:37:18.987Z</time></trkpt><trkpt lat="40.6321529" lon="17.0383721"><ele>374.2</ele><time>2026-04-11T10:37:20.993Z</time></trkpt><trkpt lat="40.6322408" lon="17.0382514"><ele>373.0</ele><time>2026-04-11T10:37:22.986Z</time></trkpt><trkpt lat="40.6323201" lon="17.0381431"><ele>371.66666666666663</ele><time>2026-04-11T10:37:24.997Z</time></trkpt><trkpt lat="40.6323221" lon="17.0380399"><ele>370.3333333333333</ele><time>2026-04-11T10:37:27.019Z</time></trkpt><trkpt lat="40.6322654" lon="17.0379749"><ele>369.0</ele><time>2026-04-11T10:37:30.025Z</time></trkpt><trkpt lat="40.6322238" lon="17.0379107"><ele>367.6666666666667</ele><time>2026-04-11T10:37:31.987Z</time></trkpt><trkpt lat="40.6321802" lon="17.0378481"><ele>366.33333333333337</ele><time>2026-04-11T10:37:32.994Z</time></trkpt><trkpt lat="40.6321113" lon="17.0377507"><ele>365.0</ele><time>2026-04-11T10:37:33.983Z</time></trkpt><trkpt lat="40.6320101" lon="17.037666"><ele>363.83333333333337</ele><time>2026-04-11T10:37:34.984Z</time></trkpt><trkpt lat="40.6319566" lon="17.0375679"><ele>362.6666666666667</ele><time>2026-04-11T10:37:36.98Z</time></trkpt><trkpt lat="40.6318893" lon="17.0375674"><ele>361.5</ele><time>2026-04-11T10:37:37.988Z</time></trkpt><trkpt lat="40.6318114" lon="17.0374825"><ele>360.3333333333333</ele><time>2026-04-11T10:37:39.997Z</time></trkpt><trkpt lat="40.6317659" lon="17.0373899"><ele>359.16666666666663</ele><time>2026-04-11T10:37:43.002Z</time></trkpt><trkpt lat="40.6318145" lon="17.0372839"><ele>358.0</ele><time>2026-04-11T10:37:45.99Z</time></trkpt><trkpt lat="40.6319676" lon="17.0371574"><ele>356.3333333333333</ele><time>2026-04-11T10:37:47.988Z</time></trkpt><trkpt lat="40.6321278" lon="17.0368342"><ele>354.6666666666667</ele><time>2026-04-11T10:37:48.982Z</time></trkpt><trkpt lat="40.6321849" lon="17.0367332"><ele>353.0</ele><time>2026-04-11T10:37:49.976Z</time></trkpt><trkpt lat="40.6322165" lon="17.0366279"><ele>352.0</ele><time>2026-04-11T10:37:50.987Z</time></trkpt><trkpt lat="40.6322435" lon="17.0365297"><ele>351.0</ele><time>2026-04-11T10:37:51.997Z</time></trkpt><trkpt lat="40.6322723" lon="17.0364228"><ele>350.0</ele><time>2026-04-11T10:37:52.987Z</time></trkpt><trkpt lat="40.6323019" lon="17.0363186"><ele>349.0</ele><time>2026-04-11T10:37:53.98Z</time></trkpt><trkpt lat="40.6323252" lon="17.0362201"><ele>348.0</ele><time>2026-04-11T10:37:54.988Z</time></trkpt><trkpt lat="40.6323495" lon="17.0361191"><ele>347.0</ele><time>2026-04-11T10:37:55.985Z</time></trkpt><trkpt lat="40.6323716" lon="17.0360286"><ele>347.0</ele><time>2026-04-11T10:37:56.986Z</time></trkpt><trkpt lat="40.6323997" lon="17.0359371"><ele>347.0</ele><time>2026-04-11T10:37:57.987Z</time></trkpt><trkpt lat="40.6324164" lon="17.0358409"><ele>347.0</ele><time>2026-04-11T10:37:58.983Z</time></trkpt><trkpt lat="40.6324429" lon="17.0357401"><ele>347.0</ele><time>2026-04-11T10:37:59.989Z</time></trkpt><trkpt lat="40.6324682" lon="17.0356406"><ele>347.0</ele><time>2026-04-11T10:38:00.99Z</time></trkpt><trkpt lat="40.6324931" lon="17.035551"><ele>347.0</ele><time>2026-04-11T10:38:01.986Z</time></trkpt><trkpt lat="40.632517" lon="17.0354477"><ele>346.0</ele><time>2026-04-11T10:38:02.995Z</time></trkpt><trkpt lat="40.6325506" lon="17.0353446"><ele>345.0</ele><time>2026-04-11T10:38:03.99Z</time></trkpt><trkpt lat="40.6325737" lon="17.0352525"><ele>344.0</ele><time>2026-04-11T10:38:05.008Z</time></trkpt><trkpt lat="40.6325894" lon="17.0351548"><ele>343.0</ele><time>2026-04-11T10:38:05.994Z</time></trkpt><trkpt lat="40.6326354" lon="17.0350041"><ele>342.0</ele><time>2026-04-11T10:38:07.999Z</time></trkpt><trkpt lat="40.6326911" lon="17.0348506"><ele>341.2857142857143</ele><time>2026-04-11T10:38:09.988Z</time></trkpt><trkpt lat="40.6327168" lon="17.0347677"><ele>340.57142857142856</ele><time>2026-04-11T10:38:10.99Z</time></trkpt><trkpt lat="40.6327344" lon="17.034685"><ele>339.8571428571429</ele><time>2026-04-11T10:38:11.984Z</time></trkpt><trkpt lat="40.6327555" lon="17.0346028"><ele>339.1428571428571</ele><time>2026-04-11T10:38:12.988Z</time></trkpt><trkpt lat="40.6327695" lon="17.0345182"><ele>338.42857142857144</ele><time>2026-04-11T10:38:13.982Z</time></trkpt><trkpt lat="40.6327969" lon="17.0344284"><ele>337.7142857142857</ele><time>2026-04-11T10:38:14.986Z</time></trkpt><trkpt lat="40.6328216" lon="17.0343491"><ele>337.0</ele><time>2026-04-11T10:38:15.987Z</time></trkpt><trkpt lat="40.6328421" lon="17.034263"><ele>337.42857142857144</ele><time>2026-04-11T10:38:16.99Z</time></trkpt><trkpt lat="40.6328572" lon="17.034174"><ele>337.8571428571429</ele><time>2026-04-11T10:38:17.982Z</time></trkpt><trkpt lat="40.6328712" lon="17.0340836"><ele>338.28571428571433</ele><time>2026-04-11T10:38:18.992Z</time></trkpt><trkpt lat="40.6329102" lon="17.0340049"><ele>338.7142857142857</ele><time>2026-04-11T10:38:19.992Z</time></trkpt><trkpt lat="40.6329615" lon="17.0339357"><ele>339.1428571428571</ele><time>2026-04-11T10:38:20.984Z</time></trkpt><trkpt lat="40.6330182" lon="17.0338721"><ele>339.5714285714286</ele><time>2026-04-11T10:38:21.995Z</time></trkpt><trkpt lat="40.6330838" lon="17.03382"><ele>340.0</ele><time>2026-04-11T10:38:22.986Z</time></trkpt><trkpt lat="40.6331545" lon="17.0337654"><ele>340.0</ele><time>2026-04-11T10:38:23.99Z</time></trkpt><trkpt lat="40.6332152" lon="17.0337005"><ele>340.0</ele><time>2026-04-11T10:38:24.987Z</time></trkpt><trkpt lat="40.6332706" lon="17.033636"><ele>340.0</ele><time>2026-04-11T10:38:25.992Z</time></trkpt><trkpt lat="40.633336" lon="17.0335773"><ele>340.0</ele><time>2026-04-11T10:38:26.983Z</time></trkpt><trkpt lat="40.6333959" lon="17.0335226"><ele>340.0</ele><time>2026-04-11T10:38:27.984Z</time></trkpt><trkpt lat="40.6334574" lon="17.0334673"><ele>340.0</ele><time>2026-04-11T10:38:28.987Z</time></trkpt><trkpt lat="40.6335167" lon="17.0334109"><ele>340.0</ele><time>2026-04-11T10:38:29.985Z</time></trkpt><trkpt lat="40.6335811" lon="17.0333616"><ele>340.0</ele><time>2026-04-11T10:38:30.99Z</time></trkpt><trkpt lat="40.6336469" lon="17.0333082"><ele>340.0</ele><time>2026-04-11T10:38:31.992Z</time></trkpt><trkpt lat="40.6337027" lon="17.0332587"><ele>340.0</ele><time>2026-04-11T10:38:32.99Z</time></trkpt><trkpt lat="40.6337524" lon="17.0332056"><ele>340.0</ele><time>2026-04-11T10:38:33.996Z</time></trkpt><trkpt lat="40.6338397" lon="17.0331402"><ele>340.0</ele><time>2026-04-11T10:38:35.997Z</time></trkpt><trkpt lat="40.6339038" lon="17.0330971"><ele>341.0</ele><time>2026-04-11T10:38:38.024Z</time></trkpt><trkpt lat="40.633995" lon="17.0330487"><ele>342.0</ele><time>2026-04-11T10:38:40.985Z</time></trkpt><trkpt lat="40.6340644" lon="17.0330079"><ele>343.0</ele><time>2026-04-11T10:38:42.988Z</time></trkpt><trkpt lat="40.6341439" lon="17.0329733"><ele>344.0</ele><time>2026-04-11T10:38:44.983Z</time></trkpt><trkpt lat="40.6342192" lon="17.0329236"><ele>345.0</ele><time>2026-04-11T10:38:46.992Z</time></trkpt><trkpt lat="40.6342896" lon="17.0328862"><ele>346.0</ele><time>2026-04-11T10:38:48.998Z</time></trkpt><trkpt lat="40.6343481" lon="17.0328457"><ele>346.0</ele><time>2026-04-11T10:38:52.994Z</time></trkpt><trkpt lat="40.6344085" lon="17.0327891"><ele>346.0</ele><time>2026-04-11T10:39:03.995Z</time></trkpt><trkpt lat="40.6344823" lon="17.032743"><ele>346.0</ele><time>2026-04-11T10:39:06.988Z</time></trkpt><trkpt lat="40.6345558" lon="17.0327048"><ele>346.0</ele><time>2026-04-11T10:39:09.983Z</time></trkpt><trkpt lat="40.6346564" lon="17.0326529"><ele>346.0</ele><time>2026-04-11T10:39:13.045Z</time></trkpt><trkpt lat="40.6347207" lon="17.0326403"><ele>346.0</ele><time>2026-04-11T10:39:13.987Z</time></trkpt><trkpt lat="40.6347836" lon="17.0326134"><ele>346.16666666666663</ele><time>2026-04-11T10:39:14.991Z</time></trkpt><trkpt lat="40.6348609" lon="17.0326034"><ele>346.3333333333333</ele><time>2026-04-11T10:39:15.982Z</time></trkpt><trkpt lat="40.6349331" lon="17.0325885"><ele>346.5</ele><time>2026-04-11T10:39:16.988Z</time></trkpt><trkpt lat="40.6349988" lon="17.0325761"><ele>346.6666666666667</ele><time>2026-04-11T10:39:17.987Z</time></trkpt><trkpt lat="40.6350674" lon="17.032563"><ele>346.83333333333337</ele><time>2026-04-11T10:39:18.991Z</time></trkpt><trkpt lat="40.635177" lon="17.0325496"><ele>347.0</ele><time>2026-04-11T10:39:20.984Z</time></trkpt><trkpt lat="40.6352404" lon="17.0325337"><ele>347.1666666666667</ele><time>2026-04-11T10:39:21.987Z</time></trkpt><trkpt lat="40.635307" lon="17.0325169"><ele>347.33333333333337</ele><time>2026-04-11T10:39:22.987Z</time></trkpt><trkpt lat="40.6353928" lon="17.0325223"><ele>347.5</ele><time>2026-04-11T10:39:23.999Z</time></trkpt><trkpt lat="40.6354617" lon="17.032498"><ele>347.6666666666667</ele><time>2026-04-11T10:39:24.99Z</time></trkpt><trkpt lat="40.6355378" lon="17.0324729"><ele>347.8333333333333</ele><time>2026-04-11T10:39:25.991Z</time></trkpt><trkpt lat="40.6356147" lon="17.0324465"><ele>348.0</ele><time>2026-04-11T10:39:26.982Z</time></trkpt><trkpt lat="40.6356973" lon="17.0324193"><ele>347.1666666666667</ele><time>2026-04-11T10:39:27.985Z</time></trkpt><trkpt lat="40.6357717" lon="17.0323911"><ele>346.3333333333333</ele><time>2026-04-11T10:39:28.988Z</time></trkpt><trkpt lat="40.6358432" lon="17.0323729"><ele>345.5</ele><time>2026-04-11T10:39:29.989Z</time></trkpt><trkpt lat="40.6359128" lon="17.0323652"><ele>344.66666666666663</ele><time>2026-04-11T10:39:30.988Z</time></trkpt><trkpt lat="40.635984" lon="17.0323594"><ele>343.8333333333333</ele><time>2026-04-11T10:39:31.984Z</time></trkpt><trkpt lat="40.6360921" lon="17.0323638"><ele>343.0</ele><time>2026-04-11T10:39:33.992Z</time></trkpt><trkpt lat="40.6361682" lon="17.0323587"><ele>342.59999999999997</ele><time>2026-04-11T10:39:34.984Z</time></trkpt><trkpt lat="40.6362351" lon="17.0323523"><ele>342.2</ele><time>2026-04-11T10:39:35.983Z</time></trkpt><trkpt lat="40.6363403" lon="17.0323127"><ele>341.8</ele><time>2026-04-11T10:39:37.989Z</time></trkpt><trkpt lat="40.6364104" lon="17.0321946"><ele>341.4</ele><time>2026-04-11T10:39:39.992Z</time></trkpt><trkpt lat="40.6363798" lon="17.0320473"><ele>341.0</ele><time>2026-04-11T10:39:42.001Z</time></trkpt><trkpt lat="40.6363732" lon="17.0319167"><ele>341.0</ele><time>2026-04-11T10:39:43.994Z</time></trkpt><trkpt lat="40.636356" lon="17.0317639"><ele>341.0</ele><time>2026-04-11T10:39:46.02Z</time></trkpt><trkpt lat="40.6363331" lon="17.0316092"><ele>341.0</ele><time>2026-04-11T10:39:47.991Z</time></trkpt><trkpt lat="40.6363197" lon="17.0314552"><ele>341.0</ele><time>2026-04-11T10:39:50.016Z</time></trkpt><trkpt lat="40.6363185" lon="17.0313388"><ele>341.0</ele><time>2026-04-11T10:39:51.992Z</time></trkpt><trkpt lat="40.6363112" lon="17.0312395"><ele>341.0</ele><time>2026-04-11T10:39:53.975Z</time></trkpt><trkpt lat="40.6363023" lon="17.0311452"><ele>341.0</ele><time>2026-04-11T10:39:55.988Z</time></trkpt><trkpt lat="40.6362891" lon="17.0310086"><ele>341.0</ele><time>2026-04-11T10:39:57.982Z</time></trkpt><trkpt lat="40.6362481" lon="17.0309014"><ele>341.0</ele><time>2026-04-11T10:39:59.006Z</time></trkpt><trkpt lat="40.6362368" lon="17.0307901"><ele>341.0</ele><time>2026-04-11T10:39:59.992Z</time></trkpt><trkpt lat="40.6362358" lon="17.0305854"><ele>340.6666666666667</ele><time>2026-04-11T10:40:01.985Z</time></trkpt><trkpt lat="40.6362425" lon="17.0304772"><ele>340.33333333333337</ele><time>2026-04-11T10:40:02.985Z</time></trkpt><trkpt lat="40.636237" lon="17.0303542"><ele>340.0</ele><time>2026-04-11T10:40:03.987Z</time></trkpt><trkpt lat="40.636233" lon="17.0302579"><ele>339.6666666666667</ele><time>2026-04-11T10:40:04.987Z</time></trkpt><trkpt lat="40.6362341" lon="17.0301714"><ele>339.3333333333333</ele><time>2026-04-11T10:40:05.992Z</time></trkpt><trkpt lat="40.6362487" lon="17.0300547"><ele>339.0</ele><time>2026-04-11T10:40:06.991Z</time></trkpt><trkpt lat="40.63626" lon="17.0299598"><ele>338.8333333333333</ele><time>2026-04-11T10:40:07.987Z</time></trkpt><trkpt lat="40.6362688" lon="17.0298764"><ele>338.6666666666667</ele><time>2026-04-11T10:40:08.986Z</time></trkpt><trkpt lat="40.6362852" lon="17.0297923"><ele>338.5</ele><time>2026-04-11T10:40:09.986Z</time></trkpt><trkpt lat="40.6363033" lon="17.0296915"><ele>338.33333333333337</ele><time>2026-04-11T10:40:10.998Z</time></trkpt><trkpt lat="40.6363064" lon="17.0296025"><ele>338.1666666666667</ele><time>2026-04-11T10:40:11.994Z</time></trkpt><trkpt lat="40.6363054" lon="17.0294653"><ele>338.0</ele><time>2026-04-11T10:40:13.982Z</time></trkpt><trkpt lat="40.6363099" lon="17.0293059"><ele>338.0</ele><time>2026-04-11T10:40:15.992Z</time></trkpt><trkpt lat="40.6363118" lon="17.0292195"><ele>338.0</ele><time>2026-04-11T10:40:16.989Z</time></trkpt><trkpt lat="40.6363156" lon="17.0291217"><ele>338.0</ele><time>2026-04-11T10:40:18.002Z</time></trkpt><trkpt lat="40.6363161" lon="17.0290311"><ele>338.0</ele><time>2026-04-11T10:40:18.987Z</time></trkpt><trkpt lat="40.636307" lon="17.0288768"><ele>338.0</ele><time>2026-04-11T10:40:20.986Z</time></trkpt><trkpt lat="40.6362925" lon="17.0287197"><ele>338.0</ele><time>2026-04-11T10:40:22.983Z</time></trkpt><trkpt lat="40.6362796" lon="17.0286359"><ele>338.33333333333337</ele><time>2026-04-11T10:40:23.985Z</time></trkpt><trkpt lat="40.6362856" lon="17.0285504"><ele>338.6666666666667</ele><time>2026-04-11T10:40:24.984Z</time></trkpt><trkpt lat="40.6362769" lon="17.0284422"><ele>339.0</ele><time>2026-04-11T10:40:26.99Z</time></trkpt><trkpt lat="40.6362558" lon="17.0283415"><ele>339.3333333333333</ele><time>2026-04-11T10:40:28.992Z</time></trkpt><trkpt lat="40.636316" lon="17.0282297"><ele>339.66666666666663</ele><time>2026-04-11T10:40:30.991Z</time></trkpt><trkpt lat="40.6363678" lon="17.028179"><ele>340.0</ele><time>2026-04-11T10:40:31.991Z</time></trkpt><trkpt lat="40.6364684" lon="17.0280708"><ele>340.3333333333333</ele><time>2026-04-11T10:40:34.016Z</time></trkpt><trkpt lat="40.6365252" lon="17.0280093"><ele>340.66666666666663</ele><time>2026-04-11T10:40:34.982Z</time></trkpt><trkpt lat="40.6365849" lon="17.0279409"><ele>341.0</ele><time>2026-04-11T10:40:35.984Z</time></trkpt><trkpt lat="40.6366427" lon="17.0278805"><ele>341.3333333333333</ele><time>2026-04-11T10:40:37Z</time></trkpt><trkpt lat="40.6366984" lon="17.0278146"><ele>341.6666666666667</ele><time>2026-04-11T10:40:37.981Z</time></trkpt><trkpt lat="40.6367571" lon="17.0277467"><ele>342.0</ele><time>2026-04-11T10:40:38.985Z</time></trkpt><trkpt lat="40.6368148" lon="17.0276836"><ele>342.0</ele><time>2026-04-11T10:40:39.981Z</time></trkpt><trkpt lat="40.6368738" lon="17.0276166"><ele>342.0</ele><time>2026-04-11T10:40:40.988Z</time></trkpt><trkpt lat="40.6369227" lon="17.0275549"><ele>342.0</ele><time>2026-04-11T10:40:41.982Z</time></trkpt><trkpt lat="40.6370173" lon="17.0274443"><ele>342.0</ele><time>2026-04-11T10:40:44.023Z</time></trkpt><trkpt lat="40.6370671" lon="17.0273934"><ele>342.0</ele><time>2026-04-11T10:40:45.017Z</time></trkpt><trkpt lat="40.6371447" lon="17.0273017"><ele>342.0</ele><time>2026-04-11T10:40:47.021Z</time></trkpt><trkpt lat="40.6372059" lon="17.0272253"><ele>341.40000000000003</ele><time>2026-04-11T10:40:48.988Z</time></trkpt><trkpt lat="40.6372741" lon="17.0271715"><ele>340.8</ele><time>2026-04-11T10:40:50.981Z</time></trkpt><trkpt lat="40.6373557" lon="17.0271485"><ele>340.2</ele><time>2026-04-11T10:40:53.023Z</time></trkpt><trkpt lat="40.6374341" lon="17.0271168"><ele>339.6</ele><time>2026-04-11T10:40:54.97Z</time></trkpt><trkpt lat="40.6375517" lon="17.0271667"><ele>339.0</ele><time>2026-04-11T10:40:56.986Z</time></trkpt><trkpt lat="40.6376395" lon="17.0272064"><ele>339.0</ele><time>2026-04-11T10:40:58.986Z</time></trkpt><trkpt lat="40.6377054" lon="17.0272243"><ele>339.0</ele><time>2026-04-11T10:40:59.997Z</time></trkpt><trkpt lat="40.6377943" lon="17.0272471"><ele>339.0</ele><time>2026-04-11T10:41:01.997Z</time></trkpt><trkpt lat="40.6378605" lon="17.0272626"><ele>339.0</ele><time>2026-04-11T10:41:03.985Z</time></trkpt><trkpt lat="40.6379349" lon="17.0273006"><ele>339.0</ele><time>2026-04-11T10:41:05.988Z</time></trkpt><trkpt lat="40.6380279" lon="17.02734"><ele>339.0</ele><time>2026-04-11T10:41:07.984Z</time></trkpt><trkpt lat="40.6381156" lon="17.0273821"><ele>339.25</ele><time>2026-04-11T10:41:09.979Z</time></trkpt><trkpt lat="40.6382207" lon="17.0274218"><ele>339.5</ele><time>2026-04-11T10:41:12.026Z</time></trkpt><trkpt lat="40.6383149" lon="17.0275042"><ele>339.75</ele><time>2026-04-11T10:41:14.023Z</time></trkpt><trkpt lat="40.6383874" lon="17.0276105"><ele>340.0</ele><time>2026-04-11T10:41:15.993Z</time></trkpt><trkpt lat="40.6384643" lon="17.0277344"><ele>340.0</ele><time>2026-04-11T10:41:17.986Z</time></trkpt><trkpt lat="40.6385404" lon="17.0278445"><ele>340.0</ele><time>2026-04-11T10:41:20.02Z</time></trkpt><trkpt lat="40.6386065" lon="17.0279491"><ele>340.0</ele><time>2026-04-11T10:41:22.014Z</time></trkpt><trkpt lat="40.6386664" lon="17.0280519"><ele>340.0</ele><time>2026-04-11T10:41:23.986Z</time></trkpt><trkpt lat="40.6386807" lon="17.0281782"><ele>340.0</ele><time>2026-04-11T10:41:26.003Z</time></trkpt><trkpt lat="40.638674" lon="17.0283395"><ele>337.0</ele><time>2026-04-11T10:41:27.991Z</time></trkpt><trkpt lat="40.6386791" lon="17.0284777"><ele>334.0</ele><time>2026-04-11T10:41:29.989Z</time></trkpt><trkpt lat="40.6386797" lon="17.0286223"><ele>331.0</ele><time>2026-04-11T10:41:31.991Z</time></trkpt><trkpt lat="40.6386611" lon="17.0287697"><ele>328.0</ele><time>2026-04-11T10:41:34.03Z</time></trkpt><trkpt lat="40.6386636" lon="17.0289078"><ele>325.0</ele><time>2026-04-11T10:41:35.984Z</time></trkpt><trkpt lat="40.6386592" lon="17.029036"><ele>324.3333333333333</ele><time>2026-04-11T10:41:37.979Z</time></trkpt><trkpt lat="40.6386199" lon="17.0291115"><ele>323.66666666666663</ele><time>2026-04-11T10:41:39.026Z</time></trkpt><trkpt lat="40.6386093" lon="17.0291949"><ele>323.0</ele><time>2026-04-11T10:41:40.002Z</time></trkpt><trkpt lat="40.6386001" lon="17.0292976"><ele>322.3333333333333</ele><time>2026-04-11T10:41:40.995Z</time></trkpt><trkpt lat="40.6386235" lon="17.0294113"><ele>321.6666666666667</ele><time>2026-04-11T10:41:41.982Z</time></trkpt><trkpt lat="40.6386417" lon="17.0295396"><ele>321.0</ele><time>2026-04-11T10:41:42.984Z</time></trkpt><trkpt lat="40.6386172" lon="17.0296604"><ele>323.8</ele><time>2026-04-11T10:41:43.988Z</time></trkpt><trkpt lat="40.6386076" lon="17.0297989"><ele>326.6</ele><time>2026-04-11T10:41:45.052Z</time></trkpt><trkpt lat="40.6385845" lon="17.0299246"><ele>329.4</ele><time>2026-04-11T10:41:46.042Z</time></trkpt><trkpt lat="40.6385606" lon="17.0300443"><ele>332.2</ele><time>2026-04-11T10:41:46.98Z</time></trkpt><trkpt lat="40.6384967" lon="17.0301346"><ele>335.0</ele><time>2026-04-11T10:41:47.976Z</time></trkpt><trkpt lat="40.6384499" lon="17.0302247"><ele>335.0</ele><time>2026-04-11T10:41:48.987Z</time></trkpt><trkpt lat="40.6384065" lon="17.0303096"><ele>335.0</ele><time>2026-04-11T10:41:49.977Z</time></trkpt><trkpt lat="40.6383508" lon="17.0303607"><ele>335.0</ele><time>2026-04-11T10:41:51.02Z</time></trkpt><trkpt lat="40.6382738" lon="17.0304841"><ele>335.0</ele><time>2026-04-11T10:41:53.011Z</time></trkpt><trkpt lat="40.6382327" lon="17.0305575"><ele>335.0</ele><time>2026-04-11T10:41:54.038Z</time></trkpt><trkpt lat="40.638197" lon="17.0306328"><ele>335.0</ele><time>2026-04-11T10:41:54.976Z</time></trkpt><trkpt lat="40.6381502" lon="17.0307147"><ele>334.83333333333337</ele><time>2026-04-11T10:41:55.98Z</time></trkpt><trkpt lat="40.6381085" lon="17.0308082"><ele>334.6666666666667</ele><time>2026-04-11T10:41:57.024Z</time></trkpt><trkpt lat="40.6380678" lon="17.030898"><ele>334.5</ele><time>2026-04-11T10:41:57.993Z</time></trkpt><trkpt lat="40.6380218" lon="17.0309863"><ele>334.3333333333333</ele><time>2026-04-11T10:41:58.974Z</time></trkpt><trkpt lat="40.637979" lon="17.0310907"><ele>334.16666666666663</ele><time>2026-04-11T10:41:59.984Z</time></trkpt><trkpt lat="40.6379411" lon="17.0311883"><ele>334.0</ele><time>2026-04-11T10:42:00.983Z</time></trkpt><trkpt lat="40.6378987" lon="17.0312785"><ele>334.0</ele><time>2026-04-11T10:42:02.018Z</time></trkpt><trkpt lat="40.6378572" lon="17.0313735"><ele>334.0</ele><time>2026-04-11T10:42:02.977Z</time></trkpt><trkpt lat="40.6378108" lon="17.0314496"><ele>334.0</ele><time>2026-04-11T10:42:03.98Z</time></trkpt><trkpt lat="40.637766" lon="17.0315449"><ele>334.0</ele><time>2026-04-11T10:42:05.017Z</time></trkpt><trkpt lat="40.6377219" lon="17.0316413"><ele>334.0</ele><time>2026-04-11T10:42:05.974Z</time></trkpt><trkpt lat="40.6376501" lon="17.0317754"><ele>334.8333333333333</ele><time>2026-04-11T10:42:07.978Z</time></trkpt><trkpt lat="40.6375987" lon="17.0318496"><ele>335.66666666666663</ele><time>2026-04-11T10:42:08.983Z</time></trkpt><trkpt lat="40.6375455" lon="17.0319158"><ele>336.5</ele><time>2026-04-11T10:42:10.019Z</time></trkpt><trkpt lat="40.6374977" lon="17.0319826"><ele>337.3333333333333</ele><time>2026-04-11T10:42:10.974Z</time></trkpt><trkpt lat="40.6374515" lon="17.0320439"><ele>338.1666666666667</ele><time>2026-04-11T10:42:11.976Z</time></trkpt><trkpt lat="40.6373827" lon="17.0321618"><ele>339.0</ele><time>2026-04-11T10:42:14.023Z</time></trkpt><trkpt lat="40.6373259" lon="17.0322419"><ele>339.0</ele><time>2026-04-11T10:42:15.982Z</time></trkpt><trkpt lat="40.6372704" lon="17.0322936"><ele>339.0</ele><time>2026-04-11T10:42:17.975Z</time></trkpt><trkpt lat="40.6372217" lon="17.0323742"><ele>339.0</ele><time>2026-04-11T10:42:26.995Z</time></trkpt><trkpt lat="40.6371551" lon="17.0324772"><ele>339.0</ele><time>2026-04-11T10:42:28.999Z</time></trkpt><trkpt lat="40.6370781" lon="17.0325924"><ele>339.0</ele><time>2026-04-11T10:42:30.974Z</time></trkpt><trkpt lat="40.6370743" lon="17.0327326"><ele>339.0</ele><time>2026-04-11T10:42:32.997Z</time></trkpt><trkpt lat="40.6371284" lon="17.0328183"><ele>339.0</ele><time>2026-04-11T10:42:33.996Z</time></trkpt><trkpt lat="40.6371884" lon="17.0329137"><ele>339.0</ele><time>2026-04-11T10:42:34.996Z</time></trkpt><trkpt lat="40.6372413" lon="17.0330041"><ele>339.0</ele><time>2026-04-11T10:42:36.029Z</time></trkpt><trkpt lat="40.6372898" lon="17.033093"><ele>339.0</ele><time>2026-04-11T10:42:37.018Z</time></trkpt><trkpt lat="40.637323" lon="17.0331836"><ele>339.0</ele><time>2026-04-11T10:42:38.018Z</time></trkpt><trkpt lat="40.6373512" lon="17.0332766"><ele>339.1666666666667</ele><time>2026-04-11T10:42:38.975Z</time></trkpt><trkpt lat="40.6373768" lon="17.0333748"><ele>339.3333333333333</ele><time>2026-04-11T10:42:39.99Z</time></trkpt><trkpt lat="40.637397" lon="17.0334739"><ele>339.5</ele><time>2026-04-11T10:42:40.976Z</time></trkpt><trkpt lat="40.6374019" lon="17.0335682"><ele>339.66666666666663</ele><time>2026-04-11T10:42:41.998Z</time></trkpt><trkpt lat="40.637396" lon="17.0336674"><ele>339.8333333333333</ele><time>2026-04-11T10:42:42.997Z</time></trkpt><trkpt lat="40.6373815" lon="17.0337769"><ele>340.0</ele><time>2026-04-11T10:42:44.079Z</time></trkpt><trkpt lat="40.6373298" lon="17.0340191"><ele>339.2</ele><time>2026-04-11T10:42:46.01Z</time></trkpt><trkpt lat="40.6373045" lon="17.0341503"><ele>338.4</ele><time>2026-04-11T10:42:46.973Z</time></trkpt><trkpt lat="40.6372859" lon="17.0342772"><ele>337.6</ele><time>2026-04-11T10:42:47.984Z</time></trkpt><trkpt lat="40.6372644" lon="17.0343935"><ele>336.8</ele><time>2026-04-11T10:42:49.015Z</time></trkpt><trkpt lat="40.6372407" lon="17.0345236"><ele>336.0</ele><time>2026-04-11T10:42:49.989Z</time></trkpt><trkpt lat="40.6372247" lon="17.0346573"><ele>336.0</ele><time>2026-04-11T10:42:50.988Z</time></trkpt><trkpt lat="40.6372084" lon="17.034784"><ele>336.0</ele><time>2026-04-11T10:42:51.973Z</time></trkpt><trkpt lat="40.6372005" lon="17.0348975"><ele>336.0</ele><time>2026-04-11T10:42:52.991Z</time></trkpt><trkpt lat="40.6371927" lon="17.0350329"><ele>336.0</ele><time>2026-04-11T10:42:54.019Z</time></trkpt><trkpt lat="40.6371865" lon="17.0351592"><ele>336.0</ele><time>2026-04-11T10:42:55.06Z</time></trkpt><trkpt lat="40.6371837" lon="17.0352846"><ele>335.20000000000005</ele><time>2026-04-11T10:42:55.975Z</time></trkpt><trkpt lat="40.6372009" lon="17.035412"><ele>334.40000000000003</ele><time>2026-04-11T10:42:56.981Z</time></trkpt><trkpt lat="40.6372057" lon="17.035552"><ele>333.6</ele><time>2026-04-11T10:42:58.02Z</time></trkpt><trkpt lat="40.6372165" lon="17.0357024"><ele>332.8</ele><time>2026-04-11T10:42:58.976Z</time></trkpt><trkpt lat="40.6372334" lon="17.0358726"><ele>332.0</ele><time>2026-04-11T10:43:00.021Z</time></trkpt><trkpt lat="40.637242" lon="17.0360362"><ele>332.0</ele><time>2026-04-11T10:43:00.998Z</time></trkpt><trkpt lat="40.6372659" lon="17.0362002"><ele>332.0</ele><time>2026-04-11T10:43:01.988Z</time></trkpt><trkpt lat="40.6372713" lon="17.0363522"><ele>332.0</ele><time>2026-04-11T10:43:02.994Z</time></trkpt><trkpt lat="40.6372797" lon="17.0364975"><ele>332.0</ele><time>2026-04-11T10:43:03.996Z</time></trkpt><trkpt lat="40.6372738" lon="17.0366241"><ele>332.0</ele><time>2026-04-11T10:43:04.989Z</time></trkpt><trkpt lat="40.6372763" lon="17.0367404"><ele>332.5</ele><time>2026-04-11T10:43:05.987Z</time></trkpt><trkpt lat="40.6372807" lon="17.0368513"><ele>333.0</ele><time>2026-04-11T10:43:06.989Z</time></trkpt><trkpt lat="40.6372788" lon="17.036952"><ele>333.5</ele><time>2026-04-11T10:43:07.989Z</time></trkpt><trkpt lat="40.6372956" lon="17.0370517"><ele>334.0</ele><time>2026-04-11T10:43:08.992Z</time></trkpt><trkpt lat="40.6373" lon="17.0371576"><ele>334.5</ele><time>2026-04-11T10:43:09.989Z</time></trkpt><trkpt lat="40.6373113" lon="17.0372616"><ele>335.0</ele><time>2026-04-11T10:43:10.99Z</time></trkpt><trkpt lat="40.6373308" lon="17.0373661"><ele>334.85714285714283</ele><time>2026-04-11T10:43:11.994Z</time></trkpt><trkpt lat="40.6373685" lon="17.0374773"><ele>334.7142857142857</ele><time>2026-04-11T10:43:13.019Z</time></trkpt><trkpt lat="40.6373799" lon="17.0375692"><ele>334.57142857142856</ele><time>2026-04-11T10:43:14.015Z</time></trkpt><trkpt lat="40.6373927" lon="17.0376688"><ele>334.42857142857144</ele><time>2026-04-11T10:43:14.974Z</time></trkpt><trkpt lat="40.6374009" lon="17.0377516"><ele>334.2857142857143</ele><time>2026-04-11T10:43:15.985Z</time></trkpt><trkpt lat="40.6374138" lon="17.0378389"><ele>334.1428571428571</ele><time>2026-04-11T10:43:17.021Z</time></trkpt><trkpt lat="40.6374015" lon="17.0379284"><ele>334.0</ele><time>2026-04-11T10:43:18.014Z</time></trkpt><trkpt lat="40.6374336" lon="17.0380596"><ele>334.0</ele><time>2026-04-11T10:43:19.98Z</time></trkpt><trkpt lat="40.6374592" lon="17.0381643"><ele>334.0</ele><time>2026-04-11T10:43:24.018Z</time></trkpt><trkpt lat="40.6374851" lon="17.0382455"><ele>334.0</ele><time>2026-04-11T10:43:25.975Z</time></trkpt><trkpt lat="40.6375703" lon="17.0382687"><ele>334.0</ele><time>2026-04-11T10:43:27.982Z</time></trkpt><trkpt lat="40.6376328" lon="17.0382539"><ele>334.0</ele><time>2026-04-11T10:43:29.015Z</time></trkpt><trkpt lat="40.6377065" lon="17.0382555"><ele>334.0</ele><time>2026-04-11T10:43:30.022Z</time></trkpt><trkpt lat="40.6377782" lon="17.0382334"><ele>334.0</ele><time>2026-04-11T10:43:30.974Z</time></trkpt><trkpt lat="40.6378629" lon="17.0382153"><ele>332.16666666666663</ele><time>2026-04-11T10:43:32.016Z</time></trkpt><trkpt lat="40.6379454" lon="17.0381979"><ele>330.3333333333333</ele><time>2026-04-11T10:43:32.977Z</time></trkpt><trkpt lat="40.638026" lon="17.0381815"><ele>328.5</ele><time>2026-04-11T10:43:34.006Z</time></trkpt><trkpt lat="40.6380936" lon="17.0381778"><ele>326.6666666666667</ele><time>2026-04-11T10:43:34.981Z</time></trkpt><trkpt lat="40.6381613" lon="17.038142"><ele>324.83333333333337</ele><time>2026-04-11T10:43:35.984Z</time></trkpt><trkpt lat="40.6382244" lon="17.0381468"><ele>323.0</ele><time>2026-04-11T10:43:37.015Z</time></trkpt><trkpt lat="40.6383245" lon="17.0381489"><ele>323.0</ele><time>2026-04-11T10:43:38.976Z</time></trkpt><trkpt lat="40.6383824" lon="17.0381903"><ele>323.0</ele><time>2026-04-11T10:43:40.984Z</time></trkpt><trkpt lat="40.6384376" lon="17.0382379"><ele>323.0</ele><time>2026-04-11T10:43:45.016Z</time></trkpt><trkpt lat="40.6385201" lon="17.0382682"><ele>323.0</ele><time>2026-04-11T10:43:46.975Z</time></trkpt><trkpt lat="40.63861" lon="17.0383029"><ele>323.0</ele><time>2026-04-11T10:43:47.988Z</time></trkpt><trkpt lat="40.6386827" lon="17.0383248"><ele>323.0</ele><time>2026-04-11T10:43:49.014Z</time></trkpt><trkpt lat="40.6387607" lon="17.0383507"><ele>322.6666666666667</ele><time>2026-04-11T10:43:49.971Z</time></trkpt><trkpt lat="40.6388404" lon="17.0384087"><ele>322.33333333333337</ele><time>2026-04-11T10:43:50.984Z</time></trkpt><trkpt lat="40.6389011" lon="17.0384695"><ele>322.0</ele><time>2026-04-11T10:43:52.013Z</time></trkpt><trkpt lat="40.6389501" lon="17.0385455"><ele>321.6666666666667</ele><time>2026-04-11T10:43:53.009Z</time></trkpt><trkpt lat="40.6389961" lon="17.0386041"><ele>321.3333333333333</ele><time>2026-04-11T10:43:53.97Z</time></trkpt><trkpt lat="40.6390927" lon="17.0387035"><ele>321.0</ele><time>2026-04-11T10:43:55.981Z</time></trkpt><trkpt lat="40.6391453" lon="17.038757"><ele>321.0</ele><time>2026-04-11T10:43:56.983Z</time></trkpt><trkpt lat="40.639205" lon="17.0388134"><ele>321.0</ele><time>2026-04-11T10:43:57.979Z</time></trkpt><trkpt lat="40.6392619" lon="17.0388742"><ele>321.0</ele><time>2026-04-11T10:43:58.989Z</time></trkpt><trkpt lat="40.6393116" lon="17.0389283"><ele>321.0</ele><time>2026-04-11T10:43:59.987Z</time></trkpt><trkpt lat="40.6394076" lon="17.0390298"><ele>321.0</ele><time>2026-04-11T10:44:01.979Z</time></trkpt><trkpt lat="40.6394974" lon="17.0391631"><ele>320.2</ele><time>2026-04-11T10:44:03.994Z</time></trkpt><trkpt lat="40.6395616" lon="17.0392298"><ele>319.40000000000003</ele><time>2026-04-11T10:44:04.989Z</time></trkpt><trkpt lat="40.6396307" lon="17.0393112"><ele>318.6</ele><time>2026-04-11T10:44:05.987Z</time></trkpt><trkpt lat="40.6397141" lon="17.0393883"><ele>317.8</ele><time>2026-04-11T10:44:06.985Z</time></trkpt><trkpt lat="40.6398153" lon="17.0394775"><ele>317.0</ele><time>2026-04-11T10:44:07.988Z</time></trkpt><trkpt lat="40.6399086" lon="17.0395639"><ele>317.0</ele><time>2026-04-11T10:44:09.019Z</time></trkpt><trkpt lat="40.6400045" lon="17.0396596"><ele>317.0</ele><time>2026-04-11T10:44:09.976Z</time></trkpt><trkpt lat="40.6401045" lon="17.0397681"><ele>317.0</ele><time>2026-04-11T10:44:10.978Z</time></trkpt><trkpt lat="40.6402124" lon="17.0398708"><ele>317.0</ele><time>2026-04-11T10:44:11.987Z</time></trkpt><trkpt lat="40.6403073" lon="17.0399878"><ele>315.5</ele><time>2026-04-11T10:44:13.042Z</time></trkpt><trkpt lat="40.6404077" lon="17.0400972"><ele>314.0</ele><time>2026-04-11T10:44:13.975Z</time></trkpt><trkpt lat="40.6405079" lon="17.0402141"><ele>312.5</ele><time>2026-04-11T10:44:14.985Z</time></trkpt><trkpt lat="40.6406108" lon="17.0403266"><ele>311.0</ele><time>2026-04-11T10:44:15.978Z</time></trkpt><trkpt lat="40.6407165" lon="17.0404322"><ele>311.0</ele><time>2026-04-11T10:44:16.986Z</time></trkpt><trkpt lat="40.6408157" lon="17.0405414"><ele>311.0</ele><time>2026-04-11T10:44:17.981Z</time></trkpt><trkpt lat="40.6408964" lon="17.0406352"><ele>311.0</ele><time>2026-04-11T10:44:18.989Z</time></trkpt><trkpt lat="40.6409814" lon="17.0407245"><ele>311.0</ele><time>2026-04-11T10:44:19.995Z</time></trkpt><trkpt lat="40.64107" lon="17.0408251"><ele>311.0</ele><time>2026-04-11T10:44:20.987Z</time></trkpt><trkpt lat="40.6411448" lon="17.0409135"><ele>311.0</ele><time>2026-04-11T10:44:21.987Z</time></trkpt><trkpt lat="40.6412205" lon="17.0409965"><ele>311.0</ele><time>2026-04-11T10:44:23.033Z</time></trkpt><trkpt lat="40.6413049" lon="17.0410764"><ele>311.0</ele><time>2026-04-11T10:44:24.017Z</time></trkpt><trkpt lat="40.6413758" lon="17.0411542"><ele>311.0</ele><time>2026-04-11T10:44:24.976Z</time></trkpt><trkpt lat="40.6414496" lon="17.0412309"><ele>311.0</ele><time>2026-04-11T10:44:25.989Z</time></trkpt><trkpt lat="40.6415246" lon="17.0413125"><ele>311.0</ele><time>2026-04-11T10:44:26.989Z</time></trkpt><trkpt lat="40.6416031" lon="17.0413959"><ele>311.0</ele><time>2026-04-11T10:44:27.982Z</time></trkpt><trkpt lat="40.6416848" lon="17.0414923"><ele>311.0</ele><time>2026-04-11T10:44:28.985Z</time></trkpt><trkpt lat="40.6417675" lon="17.0415923"><ele>311.0</ele><time>2026-04-11T10:44:29.977Z</time></trkpt><trkpt lat="40.6418583" lon="17.0416939"><ele>310.5</ele><time>2026-04-11T10:44:30.991Z</time></trkpt><trkpt lat="40.6419502" lon="17.0417888"><ele>310.0</ele><time>2026-04-11T10:44:31.992Z</time></trkpt><trkpt lat="40.6420523" lon="17.0418998"><ele>309.5</ele><time>2026-04-11T10:44:33.016Z</time></trkpt><trkpt lat="40.6421547" lon="17.0419945"><ele>309.0</ele><time>2026-04-11T10:44:34.01Z</time></trkpt><trkpt lat="40.6422583" lon="17.0421065"><ele>309.0</ele><time>2026-04-11T10:44:35.014Z</time></trkpt><trkpt lat="40.6423626" lon="17.0422101"><ele>309.0</ele><time>2026-04-11T10:44:36.019Z</time></trkpt><trkpt lat="40.6424619" lon="17.0423139"><ele>309.0</ele><time>2026-04-11T10:44:37.015Z</time></trkpt><trkpt lat="40.6425567" lon="17.0424193"><ele>309.0</ele><time>2026-04-11T10:44:38.016Z</time></trkpt><trkpt lat="40.6426516" lon="17.0425239"><ele>308.59999999999997</ele><time>2026-04-11T10:44:38.978Z</time></trkpt><trkpt lat="40.642747" lon="17.0426241"><ele>308.2</ele><time>2026-04-11T10:44:39.987Z</time></trkpt><trkpt lat="40.6428258" lon="17.0427212"><ele>307.79999999999995</ele><time>2026-04-11T10:44:40.987Z</time></trkpt><trkpt lat="40.6429069" lon="17.0428109"><ele>307.4</ele><time>2026-04-11T10:44:41.979Z</time></trkpt><trkpt lat="40.642984" lon="17.0428987"><ele>307.0</ele><time>2026-04-11T10:44:42.985Z</time></trkpt><trkpt lat="40.6430545" lon="17.0429879"><ele>307.0</ele><time>2026-04-11T10:44:43.987Z</time></trkpt><trkpt lat="40.6431283" lon="17.0430688"><ele>307.0</ele><time>2026-04-11T10:44:44.976Z</time></trkpt><trkpt lat="40.6432048" lon="17.0431549"><ele>307.0</ele><time>2026-04-11T10:44:45.989Z</time></trkpt><trkpt lat="40.6432863" lon="17.043245"><ele>307.0</ele><time>2026-04-11T10:44:46.978Z</time></trkpt><trkpt lat="40.643379" lon="17.0433427"><ele>307.0</ele><time>2026-04-11T10:44:47.985Z</time></trkpt><trkpt lat="40.6434671" lon="17.0434386"><ele>307.0</ele><time>2026-04-11T10:44:48.978Z</time></trkpt><trkpt lat="40.643564" lon="17.0435502"><ele>307.0</ele><time>2026-04-11T10:44:49.983Z</time></trkpt><trkpt lat="40.6436571" lon="17.0436514"><ele>307.0</ele><time>2026-04-11T10:44:50.994Z</time></trkpt><trkpt lat="40.6437558" lon="17.0437558"><ele>307.0</ele><time>2026-04-11T10:44:51.976Z</time></trkpt><trkpt lat="40.6438557" lon="17.0438682"><ele>307.0</ele><time>2026-04-11T10:44:52.988Z</time></trkpt><trkpt lat="40.6439647" lon="17.0439953"><ele>307.0</ele><time>2026-04-11T10:44:53.988Z</time></trkpt><trkpt lat="40.6440783" lon="17.044117"><ele>307.0</ele><time>2026-04-11T10:44:54.99Z</time></trkpt><trkpt lat="40.6441878" lon="17.044239"><ele>307.0</ele><time>2026-04-11T10:44:55.977Z</time></trkpt><trkpt lat="40.6443073" lon="17.0443582"><ele>307.0</ele><time>2026-04-11T10:44:56.982Z</time></trkpt><trkpt lat="40.6444226" lon="17.0444867"><ele>307.0</ele><time>2026-04-11T10:44:57.985Z</time></trkpt><trkpt lat="40.6445516" lon="17.0446206"><ele>307.0</ele><time>2026-04-11T10:44:59.02Z</time></trkpt><trkpt lat="40.6446717" lon="17.0447524"><ele>307.0</ele><time>2026-04-11T10:44:59.976Z</time></trkpt><trkpt lat="40.6447917" lon="17.044893"><ele>307.0</ele><time>2026-04-11T10:45:00.982Z</time></trkpt><trkpt lat="40.6449115" lon="17.0450186"><ele>307.0</ele><time>2026-04-11T10:45:01.993Z</time></trkpt><trkpt lat="40.645031" lon="17.0451489"><ele>307.0</ele><time>2026-04-11T10:45:03.019Z</time></trkpt><trkpt lat="40.6451485" lon="17.0452804"><ele>307.0</ele><time>2026-04-11T10:45:03.974Z</time></trkpt><trkpt lat="40.6452688" lon="17.0454136"><ele>307.0</ele><time>2026-04-11T10:45:04.986Z</time></trkpt><trkpt lat="40.6453901" lon="17.0455396"><ele>306.66666666666663</ele><time>2026-04-11T10:45:06.02Z</time></trkpt><trkpt lat="40.6455097" lon="17.0456663"><ele>306.3333333333333</ele><time>2026-04-11T10:45:06.976Z</time></trkpt><trkpt lat="40.6456309" lon="17.0458353"><ele>306.0</ele><time>2026-04-11T10:45:07.977Z</time></trkpt><trkpt lat="40.6457548" lon="17.0459692"><ele>306.0</ele><time>2026-04-11T10:45:08.99Z</time></trkpt><trkpt lat="40.6458783" lon="17.0460991"><ele>306.0</ele><time>2026-04-11T10:45:09.986Z</time></trkpt><trkpt lat="40.6459998" lon="17.0462332"><ele>306.0</ele><time>2026-04-11T10:45:10.99Z</time></trkpt><trkpt lat="40.6461228" lon="17.0463707"><ele>306.0</ele><time>2026-04-11T10:45:11.979Z</time></trkpt><trkpt lat="40.6462412" lon="17.0465041"><ele>306.0</ele><time>2026-04-11T10:45:13.019Z</time></trkpt><trkpt lat="40.646366" lon="17.0466299"><ele>306.0</ele><time>2026-04-11T10:45:13.991Z</time></trkpt><trkpt lat="40.6464909" lon="17.0467578"><ele>306.3333333333333</ele><time>2026-04-11T10:45:14.989Z</time></trkpt><trkpt lat="40.6466107" lon="17.046892"><ele>306.66666666666663</ele><time>2026-04-11T10:45:15.993Z</time></trkpt><trkpt lat="40.6467325" lon="17.0470223"><ele>307.0</ele><time>2026-04-11T10:45:16.994Z</time></trkpt><trkpt lat="40.6468574" lon="17.047154"><ele>306.66666666666663</ele><time>2026-04-11T10:45:17.986Z</time></trkpt><trkpt lat="40.6469928" lon="17.047297"><ele>306.3333333333333</ele><time>2026-04-11T10:45:19.017Z</time></trkpt><trkpt lat="40.6471145" lon="17.0474489"><ele>306.0</ele><time>2026-04-11T10:45:19.983Z</time></trkpt><trkpt lat="40.6472458" lon="17.0475935"><ele>306.6666666666667</ele><time>2026-04-11T10:45:20.982Z</time></trkpt><trkpt lat="40.6473802" lon="17.0477399"><ele>307.33333333333337</ele><time>2026-04-11T10:45:22.023Z</time></trkpt><trkpt lat="40.6475187" lon="17.0478924"><ele>308.0</ele><time>2026-04-11T10:45:23.014Z</time></trkpt><trkpt lat="40.6476571" lon="17.0480425"><ele>308.0</ele><time>2026-04-11T10:45:23.976Z</time></trkpt><trkpt lat="40.647796" lon="17.0481958"><ele>308.0</ele><time>2026-04-11T10:45:24.985Z</time></trkpt><trkpt lat="40.6479269" lon="17.0483381"><ele>308.0</ele><time>2026-04-11T10:45:25.994Z</time></trkpt><trkpt lat="40.6480641" lon="17.0484956"><ele>308.0</ele><time>2026-04-11T10:45:26.991Z</time></trkpt><trkpt lat="40.6482061" lon="17.048639"><ele>308.0</ele><time>2026-04-11T10:45:28.01Z</time></trkpt><trkpt lat="40.6483405" lon="17.0487961"><ele>308.0</ele><time>2026-04-11T10:45:29.012Z</time></trkpt><trkpt lat="40.6484753" lon="17.0489472"><ele>308.0</ele><time>2026-04-11T10:45:30.013Z</time></trkpt><trkpt lat="40.6486127" lon="17.0490999"><ele>308.0</ele><time>2026-04-11T10:45:30.984Z</time></trkpt><trkpt lat="40.6487571" lon="17.0492462"><ele>308.0</ele><time>2026-04-11T10:45:31.989Z</time></trkpt><trkpt lat="40.6488997" lon="17.0493919"><ele>308.0</ele><time>2026-04-11T10:45:32.987Z</time></trkpt><trkpt lat="40.6490454" lon="17.0495567"><ele>308.0</ele><time>2026-04-11T10:45:33.978Z</time></trkpt><trkpt lat="40.6491902" lon="17.0497059"><ele>308.0</ele><time>2026-04-11T10:45:34.987Z</time></trkpt><trkpt lat="40.6493333" lon="17.0498637"><ele>307.33333333333337</ele><time>2026-04-11T10:45:35.996Z</time></trkpt><trkpt lat="40.6494784" lon="17.0500251"><ele>306.6666666666667</ele><time>2026-04-11T10:45:36.987Z</time></trkpt><trkpt lat="40.6496235" lon="17.0501839"><ele>306.0</ele><time>2026-04-11T10:45:37.988Z</time></trkpt><trkpt lat="40.6497677" lon="17.0503321"><ele>306.0</ele><time>2026-04-11T10:45:38.988Z</time></trkpt><trkpt lat="40.6499111" lon="17.0504846"><ele>306.0</ele><time>2026-04-11T10:45:40.089Z</time></trkpt><trkpt lat="40.650052" lon="17.0506473"><ele>306.0</ele><time>2026-04-11T10:45:41.013Z</time></trkpt><trkpt lat="40.6501944" lon="17.0508038"><ele>306.6666666666667</ele><time>2026-04-11T10:45:42.011Z</time></trkpt><trkpt lat="40.6503305" lon="17.0509464"><ele>307.33333333333337</ele><time>2026-04-11T10:45:43.016Z</time></trkpt><trkpt lat="40.6504647" lon="17.0510872"><ele>308.0</ele><time>2026-04-11T10:45:44.014Z</time></trkpt><trkpt lat="40.6505908" lon="17.0512248"><ele>308.0</ele><time>2026-04-11T10:45:44.988Z</time></trkpt><trkpt lat="40.6507206" lon="17.0513726"><ele>308.0</ele><time>2026-04-11T10:45:45.984Z</time></trkpt><trkpt lat="40.6508463" lon="17.051522"><ele>308.0</ele><time>2026-04-11T10:45:46.982Z</time></trkpt><trkpt lat="40.6509677" lon="17.0516629"><ele>308.25</ele><time>2026-04-11T10:45:47.986Z</time></trkpt><trkpt lat="40.6510966" lon="17.0517733"><ele>308.5</ele><time>2026-04-11T10:45:49.058Z</time></trkpt><trkpt lat="40.6512057" lon="17.0518945"><ele>308.75</ele><time>2026-04-11T10:45:49.994Z</time></trkpt><trkpt lat="40.6513194" lon="17.0520269"><ele>309.0</ele><time>2026-04-11T10:45:51.014Z</time></trkpt><trkpt lat="40.6514347" lon="17.0521527"><ele>310.3333333333333</ele><time>2026-04-11T10:45:52.016Z</time></trkpt><trkpt lat="40.6515483" lon="17.0522802"><ele>311.66666666666663</ele><time>2026-04-11T10:45:53.018Z</time></trkpt><trkpt lat="40.6516629" lon="17.0524088"><ele>313.0</ele><time>2026-04-11T10:45:53.973Z</time></trkpt><trkpt lat="40.6517768" lon="17.0525448"><ele>313.66666666666663</ele><time>2026-04-11T10:45:55.009Z</time></trkpt><trkpt lat="40.6518958" lon="17.0526624"><ele>314.3333333333333</ele><time>2026-04-11T10:45:56.016Z</time></trkpt><trkpt lat="40.6520149" lon="17.0527906"><ele>315.0</ele><time>2026-04-11T10:45:56.976Z</time></trkpt><trkpt lat="40.6521395" lon="17.0529191"><ele>313.3333333333333</ele><time>2026-04-11T10:45:57.987Z</time></trkpt><trkpt lat="40.6522674" lon="17.053045"><ele>311.66666666666663</ele><time>2026-04-11T10:45:58.983Z</time></trkpt><trkpt lat="40.6523883" lon="17.0532128"><ele>310.0</ele><time>2026-04-11T10:45:59.987Z</time></trkpt><trkpt lat="40.652519" lon="17.0533438"><ele>310.0</ele><time>2026-04-11T10:46:01.016Z</time></trkpt><trkpt lat="40.6526476" lon="17.0534925"><ele>310.0</ele><time>2026-04-11T10:46:02.014Z</time></trkpt><trkpt lat="40.6527773" lon="17.0536326"><ele>310.0</ele><time>2026-04-11T10:46:02.973Z</time></trkpt><trkpt lat="40.6529075" lon="17.0537351"><ele>309.3333333333333</ele><time>2026-04-11T10:46:04.012Z</time></trkpt><trkpt lat="40.6530321" lon="17.0538692"><ele>308.6666666666667</ele><time>2026-04-11T10:46:04.998Z</time></trkpt><trkpt lat="40.6531684" lon="17.0539981"><ele>308.0</ele><time>2026-04-11T10:46:05.992Z</time></trkpt><trkpt lat="40.6532895" lon="17.0541378"><ele>308.0</ele><time>2026-04-11T10:46:07.017Z</time></trkpt><trkpt lat="40.6534092" lon="17.0542708"><ele>308.0</ele><time>2026-04-11T10:46:07.972Z</time></trkpt><trkpt lat="40.6535231" lon="17.0544051"><ele>308.0</ele><time>2026-04-11T10:46:08.991Z</time></trkpt><trkpt lat="40.6536279" lon="17.0545223"><ele>308.0</ele><time>2026-04-11T10:46:09.987Z</time></trkpt><trkpt lat="40.6537183" lon="17.0546404"><ele>308.0</ele><time>2026-04-11T10:46:10.984Z</time></trkpt><trkpt lat="40.653801" lon="17.0547571"><ele>308.0</ele><time>2026-04-11T10:46:11.984Z</time></trkpt><trkpt lat="40.6538934" lon="17.0548609"><ele>308.0</ele><time>2026-04-11T10:46:12.972Z</time></trkpt><trkpt lat="40.6539872" lon="17.0549559"><ele>308.0</ele><time>2026-04-11T10:46:13.98Z</time></trkpt><trkpt lat="40.6540732" lon="17.0550501"><ele>308.25</ele><time>2026-04-11T10:46:14.983Z</time></trkpt><trkpt lat="40.6541646" lon="17.0551458"><ele>308.5</ele><time>2026-04-11T10:46:15.971Z</time></trkpt><trkpt lat="40.6542535" lon="17.0552584"><ele>308.75</ele><time>2026-04-11T10:46:16.977Z</time></trkpt><trkpt lat="40.6543584" lon="17.055364"><ele>309.0</ele><time>2026-04-11T10:46:17.989Z</time></trkpt><trkpt lat="40.6544535" lon="17.0554734"><ele>308.5</ele><time>2026-04-11T10:46:19.029Z</time></trkpt><trkpt lat="40.6545474" lon="17.0555856"><ele>308.0</ele><time>2026-04-11T10:46:19.989Z</time></trkpt><trkpt lat="40.6546471" lon="17.0557018"><ele>307.5</ele><time>2026-04-11T10:46:21.017Z</time></trkpt><trkpt lat="40.6547494" lon="17.0557949"><ele>307.0</ele><time>2026-04-11T10:46:22.018Z</time></trkpt><trkpt lat="40.6548646" lon="17.0559022"><ele>307.0</ele><time>2026-04-11T10:46:22.984Z</time></trkpt><trkpt lat="40.6549771" lon="17.0559916"><ele>307.0</ele><time>2026-04-11T10:46:23.979Z</time></trkpt><trkpt lat="40.6551064" lon="17.0560663"><ele>307.0</ele><time>2026-04-11T10:46:24.982Z</time></trkpt><trkpt lat="40.6552375" lon="17.056161"><ele>307.0</ele><time>2026-04-11T10:46:25.989Z</time></trkpt><trkpt lat="40.6553713" lon="17.0562625"><ele>306.66666666666663</ele><time>2026-04-11T10:46:27.021Z</time></trkpt><trkpt lat="40.6555048" lon="17.0563642"><ele>306.3333333333333</ele><time>2026-04-11T10:46:27.974Z</time></trkpt><trkpt lat="40.6556445" lon="17.0564715"><ele>306.0</ele><time>2026-04-11T10:46:29.013Z</time></trkpt><trkpt lat="40.6557886" lon="17.0565797"><ele>306.6666666666667</ele><time>2026-04-11T10:46:29.979Z</time></trkpt><trkpt lat="40.6559485" lon="17.0566791"><ele>307.33333333333337</ele><time>2026-04-11T10:46:30.986Z</time></trkpt><trkpt lat="40.6560922" lon="17.0567877"><ele>308.0</ele><time>2026-04-11T10:46:31.991Z</time></trkpt><trkpt lat="40.6562453" lon="17.0568934"><ele>308.0</ele><time>2026-04-11T10:46:32.987Z</time></trkpt><trkpt lat="40.6563932" lon="17.0570166"><ele>308.0</ele><time>2026-04-11T10:46:34.022Z</time></trkpt><trkpt lat="40.6565499" lon="17.0571437"><ele>308.0</ele><time>2026-04-11T10:46:35.017Z</time></trkpt><trkpt lat="40.6567101" lon="17.0572576"><ele>308.0</ele><time>2026-04-11T10:46:35.976Z</time></trkpt><trkpt lat="40.6568796" lon="17.0573876"><ele>308.0</ele><time>2026-04-11T10:46:37.015Z</time></trkpt><trkpt lat="40.6570454" lon="17.057505"><ele>308.0</ele><time>2026-04-11T10:46:37.979Z</time></trkpt><trkpt lat="40.6572361" lon="17.057623"><ele>308.6666666666667</ele><time>2026-04-11T10:46:39.013Z</time></trkpt><trkpt lat="40.6574278" lon="17.0577519"><ele>309.3333333333333</ele><time>2026-04-11T10:46:39.986Z</time></trkpt><trkpt lat="40.6576313" lon="17.0578883"><ele>310.0</ele><time>2026-04-11T10:46:40.99Z</time></trkpt><trkpt lat="40.6578307" lon="17.0580304"><ele>310.0</ele><time>2026-04-11T10:46:41.984Z</time></trkpt><trkpt lat="40.6580329" lon="17.0581705"><ele>310.0</ele><time>2026-04-11T10:46:42.98Z</time></trkpt><trkpt lat="40.6582302" lon="17.0583039"><ele>310.0</ele><time>2026-04-11T10:46:43.988Z</time></trkpt><trkpt lat="40.6584111" lon="17.0584275"><ele>310.0</ele><time>2026-04-11T10:46:44.994Z</time></trkpt><trkpt lat="40.6585887" lon="17.0585484"><ele>310.0</ele><time>2026-04-11T10:46:46.032Z</time></trkpt><trkpt lat="40.6587561" lon="17.0586576"><ele>310.3333333333333</ele><time>2026-04-11T10:46:46.991Z</time></trkpt><trkpt lat="40.6589155" lon="17.0587652"><ele>310.6666666666667</ele><time>2026-04-11T10:46:48.012Z</time></trkpt><trkpt lat="40.6590754" lon="17.0588785"><ele>311.0</ele><time>2026-04-11T10:46:49.002Z</time></trkpt><trkpt lat="40.6592177" lon="17.0589703"><ele>311.0</ele><time>2026-04-11T10:46:50.016Z</time></trkpt><trkpt lat="40.6593727" lon="17.0590714"><ele>311.0</ele><time>2026-04-11T10:46:50.988Z</time></trkpt><trkpt lat="40.6595268" lon="17.0591781"><ele>311.0</ele><time>2026-04-11T10:46:51.986Z</time></trkpt><trkpt lat="40.6596795" lon="17.0592873"><ele>311.0</ele><time>2026-04-11T10:46:52.985Z</time></trkpt><trkpt lat="40.6598295" lon="17.0593929"><ele>311.0</ele><time>2026-04-11T10:46:53.98Z</time></trkpt><trkpt lat="40.6599796" lon="17.0594997"><ele>311.0</ele><time>2026-04-11T10:46:54.991Z</time></trkpt><trkpt lat="40.6601264" lon="17.0596015"><ele>311.0</ele><time>2026-04-11T10:46:55.986Z</time></trkpt><trkpt lat="40.6602633" lon="17.0597035"><ele>311.0</ele><time>2026-04-11T10:46:56.982Z</time></trkpt><trkpt lat="40.6603991" lon="17.0597969"><ele>311.0</ele><time>2026-04-11T10:46:57.983Z</time></trkpt><trkpt lat="40.6605391" lon="17.0598937"><ele>310.6666666666667</ele><time>2026-04-11T10:46:58.989Z</time></trkpt><trkpt lat="40.660679" lon="17.0599943"><ele>310.3333333333333</ele><time>2026-04-11T10:46:59.987Z</time></trkpt><trkpt lat="40.660817" lon="17.0601004"><ele>310.0</ele><time>2026-04-11T10:47:00.995Z</time></trkpt><trkpt lat="40.6609584" lon="17.0601946"><ele>310.0</ele><time>2026-04-11T10:47:02.045Z</time></trkpt><trkpt lat="40.6610925" lon="17.0602932"><ele>310.0</ele><time>2026-04-11T10:47:03.02Z</time></trkpt><trkpt lat="40.6612246" lon="17.060384"><ele>310.0</ele><time>2026-04-11T10:47:04.015Z</time></trkpt><trkpt lat="40.6613556" lon="17.0604704"><ele>310.0</ele><time>2026-04-11T10:47:05.042Z</time></trkpt><trkpt lat="40.6614862" lon="17.0605634"><ele>310.25</ele><time>2026-04-11T10:47:05.971Z</time></trkpt><trkpt lat="40.6616108" lon="17.0606535"><ele>310.5</ele><time>2026-04-11T10:47:07.037Z</time></trkpt><trkpt lat="40.6617441" lon="17.0607491"><ele>310.75</ele><time>2026-04-11T10:47:07.993Z</time></trkpt><trkpt lat="40.6618765" lon="17.0608416"><ele>311.0</ele><time>2026-04-11T10:47:08.971Z</time></trkpt><trkpt lat="40.6620111" lon="17.0609373"><ele>312.6666666666667</ele><time>2026-04-11T10:47:09.981Z</time></trkpt><trkpt lat="40.662158" lon="17.0610482"><ele>314.3333333333333</ele><time>2026-04-11T10:47:10.986Z</time></trkpt><trkpt lat="40.6623002" lon="17.061146"><ele>316.0</ele><time>2026-04-11T10:47:12.025Z</time></trkpt><trkpt lat="40.6624471" lon="17.061247"><ele>316.0</ele><time>2026-04-11T10:47:12.988Z</time></trkpt><trkpt lat="40.6625972" lon="17.0613511"><ele>316.0</ele><time>2026-04-11T10:47:14.02Z</time></trkpt><trkpt lat="40.6627524" lon="17.0614608"><ele>316.0</ele><time>2026-04-11T10:47:14.979Z</time></trkpt><trkpt lat="40.6629113" lon="17.0615778"><ele>317.66666666666663</ele><time>2026-04-11T10:47:15.986Z</time></trkpt><trkpt lat="40.6630667" lon="17.0616887"><ele>319.3333333333333</ele><time>2026-04-11T10:47:17.014Z</time></trkpt><trkpt lat="40.6632222" lon="17.0617956"><ele>321.0</ele><time>2026-04-11T10:47:17.972Z</time></trkpt><trkpt lat="40.66338" lon="17.06191"><ele>321.0</ele><time>2026-04-11T10:47:19.001Z</time></trkpt><trkpt lat="40.6635361" lon="17.0620213"><ele>321.0</ele><time>2026-04-11T10:47:19.989Z</time></trkpt><trkpt lat="40.6636884" lon="17.0621325"><ele>321.0</ele><time>2026-04-11T10:47:20.99Z</time></trkpt><trkpt lat="40.663845" lon="17.0622447"><ele>322.6666666666667</ele><time>2026-04-11T10:47:21.984Z</time></trkpt><trkpt lat="40.6639994" lon="17.0623554"><ele>324.33333333333337</ele><time>2026-04-11T10:47:22.994Z</time></trkpt><trkpt lat="40.664154" lon="17.0624677"><ele>326.0</ele><time>2026-04-11T10:47:23.983Z</time></trkpt><trkpt lat="40.6643088" lon="17.0625749"><ele>328.6666666666667</ele><time>2026-04-11T10:47:24.982Z</time></trkpt><trkpt lat="40.6644639" lon="17.0626873"><ele>331.3333333333333</ele><time>2026-04-11T10:47:25.986Z</time></trkpt><trkpt lat="40.6646181" lon="17.0627992"><ele>334.0</ele><time>2026-04-11T10:47:26.981Z</time></trkpt><trkpt lat="40.6647712" lon="17.0629195"><ele>334.0</ele><time>2026-04-11T10:47:27.989Z</time></trkpt><trkpt lat="40.6649255" lon="17.0630297"><ele>334.0</ele><time>2026-04-11T10:47:28.994Z</time></trkpt><trkpt lat="40.6650818" lon="17.0631322"><ele>334.0</ele><time>2026-04-11T10:47:29.997Z</time></trkpt><trkpt lat="40.6652264" lon="17.0632528"><ele>336.0</ele><time>2026-04-11T10:47:30.991Z</time></trkpt><trkpt lat="40.6653629" lon="17.0633611"><ele>338.0</ele><time>2026-04-11T10:47:31.997Z</time></trkpt><trkpt lat="40.6654941" lon="17.0634449"><ele>340.0</ele><time>2026-04-11T10:47:32.988Z</time></trkpt><trkpt lat="40.6656255" lon="17.0635461"><ele>340.0</ele><time>2026-04-11T10:47:33.981Z</time></trkpt><trkpt lat="40.6657472" lon="17.063634"><ele>340.0</ele><time>2026-04-11T10:47:34.984Z</time></trkpt><trkpt lat="40.6658673" lon="17.0637214"><ele>340.0</ele><time>2026-04-11T10:47:35.991Z</time></trkpt><trkpt lat="40.6659967" lon="17.0638142"><ele>340.0</ele><time>2026-04-11T10:47:36.99Z</time></trkpt><trkpt lat="40.6661311" lon="17.0639342"><ele>341.66666666666663</ele><time>2026-04-11T10:47:37.988Z</time></trkpt><trkpt lat="40.6662696" lon="17.0640335"><ele>343.3333333333333</ele><time>2026-04-11T10:47:38.977Z</time></trkpt><trkpt lat="40.6664182" lon="17.0641385"><ele>345.0</ele><time>2026-04-11T10:47:39.99Z</time></trkpt><trkpt lat="40.666568" lon="17.0642433"><ele>345.0</ele><time>2026-04-11T10:47:40.992Z</time></trkpt><trkpt lat="40.6667151" lon="17.0643479"><ele>345.0</ele><time>2026-04-11T10:47:41.99Z</time></trkpt><trkpt lat="40.6668618" lon="17.0644533"><ele>345.0</ele><time>2026-04-11T10:47:42.973Z</time></trkpt><trkpt lat="40.6670189" lon="17.0645608"><ele>347.0</ele><time>2026-04-11T10:47:43.993Z</time></trkpt><trkpt lat="40.6671629" lon="17.064665"><ele>349.0</ele><time>2026-04-11T10:47:44.989Z</time></trkpt><trkpt lat="40.6673043" lon="17.0647635"><ele>351.0</ele><time>2026-04-11T10:47:45.971Z</time></trkpt><trkpt lat="40.6674288" lon="17.0648548"><ele>351.0</ele><time>2026-04-11T10:47:47.011Z</time></trkpt><trkpt lat="40.667526" lon="17.0649404"><ele>351.0</ele><time>2026-04-11T10:47:47.989Z</time></trkpt><trkpt lat="40.6675965" lon="17.0650356"><ele>351.0</ele><time>2026-04-11T10:47:49.012Z</time></trkpt><trkpt lat="40.6676602" lon="17.0651487"><ele>351.0</ele><time>2026-04-11T10:47:49.971Z</time></trkpt><trkpt lat="40.6676772" lon="17.0652844"><ele>351.0</ele><time>2026-04-11T10:47:50.972Z</time></trkpt><trkpt lat="40.6676827" lon="17.0654318"><ele>351.5</ele><time>2026-04-11T10:47:51.985Z</time></trkpt><trkpt lat="40.6676485" lon="17.0655837"><ele>352.0</ele><time>2026-04-11T10:47:53.008Z</time></trkpt><trkpt lat="40.667624" lon="17.0657499"><ele>352.5</ele><time>2026-04-11T10:47:53.972Z</time></trkpt><trkpt lat="40.6675514" lon="17.0659021"><ele>353.0</ele><time>2026-04-11T10:47:54.986Z</time></trkpt><trkpt lat="40.6675108" lon="17.0660692"><ele>354.25</ele><time>2026-04-11T10:47:55.994Z</time></trkpt><trkpt lat="40.6674671" lon="17.0662251"><ele>355.5</ele><time>2026-04-11T10:47:57.015Z</time></trkpt><trkpt lat="40.6674292" lon="17.066388"><ele>356.75</ele><time>2026-04-11T10:47:57.973Z</time></trkpt><trkpt lat="40.6673971" lon="17.0665549"><ele>358.0</ele><time>2026-04-11T10:47:58.984Z</time></trkpt><trkpt lat="40.6673788" lon="17.0667172"><ele>359.4</ele><time>2026-04-11T10:47:59.996Z</time></trkpt><trkpt lat="40.6673643" lon="17.0668732"><ele>360.79999999999995</ele><time>2026-04-11T10:48:01.017Z</time></trkpt><trkpt lat="40.6673637" lon="17.0670284"><ele>362.2</ele><time>2026-04-11T10:48:02.021Z</time></trkpt><trkpt lat="40.6673569" lon="17.0671705"><ele>363.6</ele><time>2026-04-11T10:48:02.972Z</time></trkpt><trkpt lat="40.6673618" lon="17.0672755"><ele>365.0</ele><time>2026-04-11T10:48:03.982Z</time></trkpt><trkpt lat="40.6673599" lon="17.0673851"><ele>365.83333333333337</ele><time>2026-04-11T10:48:04.986Z</time></trkpt><trkpt lat="40.6673604" lon="17.0674892"><ele>366.6666666666667</ele><time>2026-04-11T10:48:05.972Z</time></trkpt><trkpt lat="40.6673458" lon="17.0675734"><ele>367.5</ele><time>2026-04-11T10:48:07.022Z</time></trkpt><trkpt lat="40.6673529" lon="17.0676996"><ele>368.3333333333333</ele><time>2026-04-11T10:48:09.02Z</time></trkpt><trkpt lat="40.6673467" lon="17.067799"><ele>369.16666666666663</ele><time>2026-04-11T10:48:10.983Z</time></trkpt><trkpt lat="40.6673905" lon="17.0678896"><ele>370.0</ele><time>2026-04-11T10:48:12.987Z</time></trkpt><trkpt lat="40.6675096" lon="17.0678797"><ele>370.0</ele><time>2026-04-11T10:48:14.978Z</time></trkpt><trkpt lat="40.667549" lon="17.0677847"><ele>370.0</ele><time>2026-04-11T10:48:15.996Z</time></trkpt><trkpt lat="40.6675739" lon="17.0676901"><ele>370.0</ele><time>2026-04-11T10:48:17.012Z</time></trkpt><trkpt lat="40.667595" lon="17.067577"><ele>370.0</ele><time>2026-04-11T10:48:18.006Z</time></trkpt><trkpt lat="40.6676416" lon="17.0674702"><ele>370.0</ele><time>2026-04-11T10:48:19.015Z</time></trkpt><trkpt lat="40.6676884" lon="17.0673695"><ele>370.0</ele><time>2026-04-11T10:48:19.987Z</time></trkpt><trkpt lat="40.6677252" lon="17.0672776"><ele>369.16666666666663</ele><time>2026-04-11T10:48:20.985Z</time></trkpt><trkpt lat="40.6677668" lon="17.0671869"><ele>368.3333333333333</ele><time>2026-04-11T10:48:21.982Z</time></trkpt><trkpt lat="40.6678182" lon="17.0671008"><ele>367.5</ele><time>2026-04-11T10:48:22.989Z</time></trkpt><trkpt lat="40.6678721" lon="17.0670252"><ele>366.6666666666667</ele><time>2026-04-11T10:48:23.987Z</time></trkpt><trkpt lat="40.6679235" lon="17.0669569"><ele>365.83333333333337</ele><time>2026-04-11T10:48:25.017Z</time></trkpt><trkpt lat="40.6679864" lon="17.0668912"><ele>365.0</ele><time>2026-04-11T10:48:26.023Z</time></trkpt><trkpt lat="40.6680336" lon="17.0668245"><ele>366.83333333333337</ele><time>2026-04-11T10:48:27.019Z</time></trkpt><trkpt lat="40.6680985" lon="17.0667677"><ele>368.6666666666667</ele><time>2026-04-11T10:48:27.99Z</time></trkpt><trkpt lat="40.668169" lon="17.0667215"><ele>370.5</ele><time>2026-04-11T10:48:28.989Z</time></trkpt><trkpt lat="40.668237" lon="17.06667"><ele>372.3333333333333</ele><time>2026-04-11T10:48:29.972Z</time></trkpt><trkpt lat="40.668319" lon="17.0666508"><ele>374.16666666666663</ele><time>2026-04-11T10:48:30.998Z</time></trkpt><trkpt lat="40.6684059" lon="17.0666379"><ele>376.0</ele><time>2026-04-11T10:48:32.007Z</time></trkpt><trkpt lat="40.6684908" lon="17.0666327"><ele>376.0</ele><time>2026-04-11T10:48:32.978Z</time></trkpt><trkpt lat="40.6685918" lon="17.0666527"><ele>376.0</ele><time>2026-04-11T10:48:34.015Z</time></trkpt><trkpt lat="40.668686" lon="17.0666531"><ele>376.0</ele><time>2026-04-11T10:48:34.989Z</time></trkpt><trkpt lat="40.6687809" lon="17.0666577"><ele>376.0</ele><time>2026-04-11T10:48:36.015Z</time></trkpt><trkpt lat="40.6688748" lon="17.0666689"><ele>376.0</ele><time>2026-04-11T10:48:36.971Z</time></trkpt><trkpt lat="40.6689597" lon="17.0667101"><ele>376.4</ele><time>2026-04-11T10:48:38.01Z</time></trkpt><trkpt lat="40.6690466" lon="17.0667526"><ele>376.8</ele><time>2026-04-11T10:48:38.972Z</time></trkpt><trkpt lat="40.6691244" lon="17.0668229"><ele>377.2</ele><time>2026-04-11T10:48:40.014Z</time></trkpt><trkpt lat="40.6692117" lon="17.0668812"><ele>377.59999999999997</ele><time>2026-04-11T10:48:40.989Z</time></trkpt><trkpt lat="40.6692993" lon="17.0669406"><ele>378.0</ele><time>2026-04-11T10:48:41.983Z</time></trkpt><trkpt lat="40.6693912" lon="17.0670003"><ele>378.79999999999995</ele><time>2026-04-11T10:48:42.978Z</time></trkpt><trkpt lat="40.6694858" lon="17.0670631"><ele>379.6</ele><time>2026-04-11T10:48:44.016Z</time></trkpt><trkpt lat="40.6695843" lon="17.0671275"><ele>380.4</ele><time>2026-04-11T10:48:45.017Z</time></trkpt><trkpt lat="40.6696872" lon="17.0671958"><ele>381.20000000000005</ele><time>2026-04-11T10:48:45.968Z</time></trkpt><trkpt lat="40.6697924" lon="17.0672596"><ele>382.0</ele><time>2026-04-11T10:48:46.973Z</time></trkpt><trkpt lat="40.6698982" lon="17.067328"><ele>382.0</ele><time>2026-04-11T10:48:47.989Z</time></trkpt><trkpt lat="40.6700276" lon="17.0674144"><ele>382.0</ele><time>2026-04-11T10:48:48.989Z</time></trkpt><trkpt lat="40.6701626" lon="17.0674874"><ele>382.0</ele><time>2026-04-11T10:48:49.998Z</time></trkpt><trkpt lat="40.6702969" lon="17.0675554"><ele>382.0</ele><time>2026-04-11T10:48:50.991Z</time></trkpt><trkpt lat="40.6704336" lon="17.0676234"><ele>383.25</ele><time>2026-04-11T10:48:51.978Z</time></trkpt><trkpt lat="40.6705747" lon="17.0676977"><ele>384.5</ele><time>2026-04-11T10:48:52.984Z</time></trkpt><trkpt lat="40.6707083" lon="17.0677579"><ele>385.75</ele><time>2026-04-11T10:48:53.987Z</time></trkpt><trkpt lat="40.6708481" lon="17.0678123"><ele>387.0</ele><time>2026-04-11T10:48:54.972Z</time></trkpt><trkpt lat="40.6709861" lon="17.0678605"><ele>387.25</ele><time>2026-04-11T10:48:55.987Z</time></trkpt><trkpt lat="40.6711246" lon="17.0679126"><ele>387.5</ele><time>2026-04-11T10:48:56.99Z</time></trkpt><trkpt lat="40.6712398" lon="17.0679454"><ele>387.75</ele><time>2026-04-11T10:48:58.023Z</time></trkpt><trkpt lat="40.6713578" lon="17.0679755"><ele>388.0</ele><time>2026-04-11T10:48:58.986Z</time></trkpt><trkpt lat="40.6714742" lon="17.068003"><ele>388.0</ele><time>2026-04-11T10:49:00.014Z</time></trkpt><trkpt lat="40.6715807" lon="17.0680332"><ele>388.0</ele><time>2026-04-11T10:49:01.022Z</time></trkpt><trkpt lat="40.6716946" lon="17.0680585"><ele>388.0</ele><time>2026-04-11T10:49:01.976Z</time></trkpt><trkpt lat="40.671801" lon="17.0680779"><ele>388.0</ele><time>2026-04-11T10:49:02.978Z</time></trkpt><trkpt lat="40.6719035" lon="17.0680901"><ele>388.0</ele><time>2026-04-11T10:49:03.983Z</time></trkpt><trkpt lat="40.6719984" lon="17.0681022"><ele>388.2</ele><time>2026-04-11T10:49:04.984Z</time></trkpt><trkpt lat="40.672094" lon="17.0681163"><ele>388.4</ele><time>2026-04-11T10:49:05.977Z</time></trkpt><trkpt lat="40.672184" lon="17.0681583"><ele>388.59999999999997</ele><time>2026-04-11T10:49:06.989Z</time></trkpt><trkpt lat="40.6722638" lon="17.068167"><ele>388.79999999999995</ele><time>2026-04-11T10:49:07.987Z</time></trkpt><trkpt lat="40.6723853" lon="17.0681956"><ele>389.0</ele><time>2026-04-11T10:49:09.977Z</time></trkpt><trkpt lat="40.6724406" lon="17.0682921"><ele>389.0</ele><time>2026-04-11T10:49:10.99Z</time></trkpt><trkpt lat="40.6724791" lon="17.0683985"><ele>389.0</ele><time>2026-04-11T10:49:11.996Z</time></trkpt><trkpt lat="40.6725189" lon="17.0684963"><ele>389.0</ele><time>2026-04-11T10:49:12.976Z</time></trkpt><trkpt lat="40.6725827" lon="17.0686192"><ele>389.0</ele><time>2026-04-11T10:49:13.977Z</time></trkpt><trkpt lat="40.6726413" lon="17.0687323"><ele>389.0</ele><time>2026-04-11T10:49:14.975Z</time></trkpt><trkpt lat="40.6727232" lon="17.0688214"><ele>389.0</ele><time>2026-04-11T10:49:15.987Z</time></trkpt><trkpt lat="40.6728075" lon="17.0689265"><ele>389.0</ele><time>2026-04-11T10:49:16.978Z</time></trkpt><trkpt lat="40.6729286" lon="17.0690093"><ele>389.0</ele><time>2026-04-11T10:49:17.983Z</time></trkpt><trkpt lat="40.6730487" lon="17.0690813"><ele>389.0</ele><time>2026-04-11T10:49:19.018Z</time></trkpt><trkpt lat="40.6731798" lon="17.0691405"><ele>390.0</ele><time>2026-04-11T10:49:19.986Z</time></trkpt><trkpt lat="40.6733084" lon="17.0692084"><ele>391.0</ele><time>2026-04-11T10:49:21.016Z</time></trkpt><trkpt lat="40.6734411" lon="17.0692748"><ele>392.0</ele><time>2026-04-11T10:49:22.02Z</time></trkpt><trkpt lat="40.6735818" lon="17.0693286"><ele>393.0</ele><time>2026-04-11T10:49:23.012Z</time></trkpt><trkpt lat="40.6737247" lon="17.0693815"><ele>393.66666666666663</ele><time>2026-04-11T10:49:24.022Z</time></trkpt><trkpt lat="40.67387" lon="17.0694375"><ele>394.3333333333333</ele><time>2026-04-11T10:49:25.056Z</time></trkpt><trkpt lat="40.6740088" lon="17.069502"><ele>395.0</ele><time>2026-04-11T10:49:26.02Z</time></trkpt><trkpt lat="40.6741522" lon="17.0695649"><ele>395.0</ele><time>2026-04-11T10:49:26.975Z</time></trkpt><trkpt lat="40.6742927" lon="17.0696206"><ele>395.0</ele><time>2026-04-11T10:49:28.01Z</time></trkpt><trkpt lat="40.6744318" lon="17.0696822"><ele>395.0</ele><time>2026-04-11T10:49:29.025Z</time></trkpt><trkpt lat="40.6745664" lon="17.0697256"><ele>395.0</ele><time>2026-04-11T10:49:30.014Z</time></trkpt><trkpt lat="40.6747001" lon="17.0697811"><ele>395.0</ele><time>2026-04-11T10:49:31.021Z</time></trkpt><trkpt lat="40.6748292" lon="17.0698358"><ele>395.0</ele><time>2026-04-11T10:49:31.997Z</time></trkpt><trkpt lat="40.674954" lon="17.0698724"><ele>395.0</ele><time>2026-04-11T10:49:33.027Z</time></trkpt><trkpt lat="40.6750657" lon="17.0699206"><ele>395.0</ele><time>2026-04-11T10:49:33.989Z</time></trkpt><trkpt lat="40.6751788" lon="17.0699586"><ele>395.5</ele><time>2026-04-11T10:49:34.971Z</time></trkpt><trkpt lat="40.6752823" lon="17.069977"><ele>396.0</ele><time>2026-04-11T10:49:35.992Z</time></trkpt><trkpt lat="40.6753884" lon="17.0700389"><ele>396.5</ele><time>2026-04-11T10:49:36.995Z</time></trkpt><trkpt lat="40.6754953" lon="17.0700904"><ele>397.0</ele><time>2026-04-11T10:49:37.978Z</time></trkpt><trkpt lat="40.6755929" lon="17.0701799"><ele>397.0</ele><time>2026-04-11T10:49:39.012Z</time></trkpt><trkpt lat="40.675691" lon="17.0702708"><ele>397.0</ele><time>2026-04-11T10:49:39.985Z</time></trkpt><trkpt lat="40.6757626" lon="17.0703706"><ele>397.0</ele><time>2026-04-11T10:49:41.018Z</time></trkpt><trkpt lat="40.6758368" lon="17.0704895"><ele>397.0</ele><time>2026-04-11T10:49:42.01Z</time></trkpt><trkpt lat="40.6759114" lon="17.0706178"><ele>397.0</ele><time>2026-04-11T10:49:42.993Z</time></trkpt><trkpt lat="40.6759817" lon="17.0707316"><ele>397.0</ele><time>2026-04-11T10:49:44.02Z</time></trkpt><trkpt lat="40.6760529" lon="17.0708482"><ele>397.0</ele><time>2026-04-11T10:49:44.983Z</time></trkpt><trkpt lat="40.6761251" lon="17.0709618"><ele>397.0</ele><time>2026-04-11T10:49:45.972Z</time></trkpt><trkpt lat="40.6762017" lon="17.0710705"><ele>396.8</ele><time>2026-04-11T10:49:46.985Z</time></trkpt><trkpt lat="40.6762666" lon="17.0711676"><ele>396.6</ele><time>2026-04-11T10:49:47.978Z</time></trkpt><trkpt lat="40.6763174" lon="17.0712548"><ele>396.40000000000003</ele><time>2026-04-11T10:49:48.985Z</time></trkpt><trkpt lat="40.6763833" lon="17.0713584"><ele>396.20000000000005</ele><time>2026-04-11T10:49:49.981Z</time></trkpt><trkpt lat="40.6764493" lon="17.0714926"><ele>396.0</ele><time>2026-04-11T10:49:51.024Z</time></trkpt><trkpt lat="40.6765057" lon="17.0716096"><ele>396.5</ele><time>2026-04-11T10:49:51.98Z</time></trkpt><trkpt lat="40.6765658" lon="17.0717483"><ele>397.0</ele><time>2026-04-11T10:49:53.017Z</time></trkpt><trkpt lat="40.6766206" lon="17.071886"><ele>397.5</ele><time>2026-04-11T10:49:54.013Z</time></trkpt><trkpt lat="40.6766698" lon="17.0720311"><ele>398.0</ele><time>2026-04-11T10:49:54.985Z</time></trkpt><trkpt lat="40.6767231" lon="17.0721742"><ele>398.0</ele><time>2026-04-11T10:49:55.982Z</time></trkpt><trkpt lat="40.6767718" lon="17.0723157"><ele>398.0</ele><time>2026-04-11T10:49:57.015Z</time></trkpt><trkpt lat="40.6768308" lon="17.0724633"><ele>398.0</ele><time>2026-04-11T10:49:57.973Z</time></trkpt><trkpt lat="40.6769109" lon="17.072619"><ele>398.0</ele><time>2026-04-11T10:49:58.985Z</time></trkpt><trkpt lat="40.6769914" lon="17.0727471"><ele>397.5</ele><time>2026-04-11T10:49:59.989Z</time></trkpt><trkpt lat="40.6770746" lon="17.0728863"><ele>397.0</ele><time>2026-04-11T10:50:01.022Z</time></trkpt><trkpt lat="40.6771561" lon="17.0730107"><ele>396.5</ele><time>2026-04-11T10:50:01.989Z</time></trkpt><trkpt lat="40.6772253" lon="17.073138"><ele>396.0</ele><time>2026-04-11T10:50:03.015Z</time></trkpt><trkpt lat="40.6773073" lon="17.0732614"><ele>397.25</ele><time>2026-04-11T10:50:04.016Z</time></trkpt><trkpt lat="40.6773807" lon="17.0733861"><ele>398.5</ele><time>2026-04-11T10:50:04.982Z</time></trkpt><trkpt lat="40.6774675" lon="17.0735102"><ele>399.75</ele><time>2026-04-11T10:50:06.015Z</time></trkpt><trkpt lat="40.6775563" lon="17.0736448"><ele>401.0</ele><time>2026-04-11T10:50:07.016Z</time></trkpt><trkpt lat="40.6776446" lon="17.0737715"><ele>401.0</ele><time>2026-04-11T10:50:08.01Z</time></trkpt><trkpt lat="40.6777277" lon="17.0739208"><ele>401.0</ele><time>2026-04-11T10:50:09.009Z</time></trkpt><trkpt lat="40.6778093" lon="17.0740572"><ele>401.0</ele><time>2026-04-11T10:50:09.985Z</time></trkpt><trkpt lat="40.6778999" lon="17.0742012"><ele>401.0</ele><time>2026-04-11T10:50:11.011Z</time></trkpt><trkpt lat="40.6779868" lon="17.0743426"><ele>401.0</ele><time>2026-04-11T10:50:12.016Z</time></trkpt><trkpt lat="40.6780723" lon="17.0744885"><ele>401.0</ele><time>2026-04-11T10:50:12.971Z</time></trkpt><trkpt lat="40.6781581" lon="17.0746287"><ele>401.0</ele><time>2026-04-11T10:50:13.983Z</time></trkpt><trkpt lat="40.6782544" lon="17.07477"><ele>401.0</ele><time>2026-04-11T10:50:14.988Z</time></trkpt><trkpt lat="40.6783705" lon="17.0749305"><ele>401.75</ele><time>2026-04-11T10:50:15.993Z</time></trkpt><trkpt lat="40.6784727" lon="17.0750701"><ele>402.5</ele><time>2026-04-11T10:50:16.993Z</time></trkpt><trkpt lat="40.6785765" lon="17.075189"><ele>403.25</ele><time>2026-04-11T10:50:17.99Z</time></trkpt><trkpt lat="40.6786797" lon="17.0753177"><ele>404.0</ele><time>2026-04-11T10:50:19.027Z</time></trkpt><trkpt lat="40.6787782" lon="17.0754469"><ele>404.0</ele><time>2026-04-11T10:50:19.975Z</time></trkpt><trkpt lat="40.6788643" lon="17.0755827"><ele>404.0</ele><time>2026-04-11T10:50:20.976Z</time></trkpt><trkpt lat="40.6789481" lon="17.0756972"><ele>404.0</ele><time>2026-04-11T10:50:21.987Z</time></trkpt><trkpt lat="40.6790341" lon="17.0758263"><ele>404.0</ele><time>2026-04-11T10:50:22.976Z</time></trkpt><trkpt lat="40.6791133" lon="17.0759665"><ele>404.25</ele><time>2026-04-11T10:50:24.011Z</time></trkpt><trkpt lat="40.679194" lon="17.0761032"><ele>404.5</ele><time>2026-04-11T10:50:24.975Z</time></trkpt><trkpt lat="40.6792778" lon="17.0762521"><ele>404.75</ele><time>2026-04-11T10:50:26.013Z</time></trkpt><trkpt lat="40.6793693" lon="17.0764067"><ele>405.0</ele><time>2026-04-11T10:50:26.984Z</time></trkpt><trkpt lat="40.6794525" lon="17.0765501"><ele>406.0</ele><time>2026-04-11T10:50:27.975Z</time></trkpt><trkpt lat="40.6795496" lon="17.0767053"><ele>407.0</ele><time>2026-04-11T10:50:28.992Z</time></trkpt><trkpt lat="40.6796372" lon="17.0768492"><ele>408.0</ele><time>2026-04-11T10:50:29.986Z</time></trkpt><trkpt lat="40.6797287" lon="17.0770196"><ele>408.0</ele><time>2026-04-11T10:50:30.986Z</time></trkpt><trkpt lat="40.6798135" lon="17.0771696"><ele>408.0</ele><time>2026-04-11T10:50:31.974Z</time></trkpt><trkpt lat="40.6799018" lon="17.0773355"><ele>408.0</ele><time>2026-04-11T10:50:32.989Z</time></trkpt><trkpt lat="40.6799868" lon="17.0774874"><ele>408.0</ele><time>2026-04-11T10:50:33.978Z</time></trkpt><trkpt lat="40.6800828" lon="17.0776423"><ele>408.33333333333337</ele><time>2026-04-11T10:50:35.008Z</time></trkpt><trkpt lat="40.6801803" lon="17.0778115"><ele>408.6666666666667</ele><time>2026-04-11T10:50:36.014Z</time></trkpt><trkpt lat="40.6802751" lon="17.0779682"><ele>409.0</ele><time>2026-04-11T10:50:37.021Z</time></trkpt><trkpt lat="40.6803729" lon="17.0781277"><ele>409.33333333333337</ele><time>2026-04-11T10:50:37.972Z</time></trkpt><trkpt lat="40.6804575" lon="17.0783022"><ele>409.66666666666663</ele><time>2026-04-11T10:50:39.017Z</time></trkpt><trkpt lat="40.6805537" lon="17.0784713"><ele>410.0</ele><time>2026-04-11T10:50:39.98Z</time></trkpt><trkpt lat="40.6806365" lon="17.0786112"><ele>410.0</ele><time>2026-04-11T10:50:40.991Z</time></trkpt><trkpt lat="40.680732" lon="17.0787569"><ele>410.0</ele><time>2026-04-11T10:50:41.995Z</time></trkpt><trkpt lat="40.6808215" lon="17.0789127"><ele>410.0</ele><time>2026-04-11T10:50:42.975Z</time></trkpt><trkpt lat="40.6809123" lon="17.0790713"><ele>410.0</ele><time>2026-04-11T10:50:43.983Z</time></trkpt><trkpt lat="40.6810039" lon="17.0792292"><ele>410.3333333333333</ele><time>2026-04-11T10:50:44.99Z</time></trkpt><trkpt lat="40.6810977" lon="17.0793873"><ele>410.66666666666663</ele><time>2026-04-11T10:50:45.992Z</time></trkpt><trkpt lat="40.6811799" lon="17.0795496"><ele>411.0</ele><time>2026-04-11T10:50:46.992Z</time></trkpt><trkpt lat="40.6812761" lon="17.0797118"><ele>411.33333333333337</ele><time>2026-04-11T10:50:47.99Z</time></trkpt><trkpt lat="40.6813675" lon="17.079861"><ele>411.6666666666667</ele><time>2026-04-11T10:50:48.993Z</time></trkpt><trkpt lat="40.681457" lon="17.0800341"><ele>412.0</ele><time>2026-04-11T10:50:49.986Z</time></trkpt><trkpt lat="40.6815386" lon="17.0801957"><ele>412.0</ele><time>2026-04-11T10:50:50.979Z</time></trkpt><trkpt lat="40.6816268" lon="17.0803598"><ele>412.0</ele><time>2026-04-11T10:50:51.984Z</time></trkpt><trkpt lat="40.6817167" lon="17.0805085"><ele>412.0</ele><time>2026-04-11T10:50:52.99Z</time></trkpt><trkpt lat="40.6818024" lon="17.0806555"><ele>412.0</ele><time>2026-04-11T10:50:53.986Z</time></trkpt><trkpt lat="40.6818855" lon="17.0807999"><ele>412.25</ele><time>2026-04-11T10:50:54.986Z</time></trkpt><trkpt lat="40.681969" lon="17.0809554"><ele>412.5</ele><time>2026-04-11T10:50:55.993Z</time></trkpt><trkpt lat="40.6820545" lon="17.0811124"><ele>412.75</ele><time>2026-04-11T10:50:56.977Z</time></trkpt><trkpt lat="40.6821465" lon="17.0812689"><ele>413.0</ele><time>2026-04-11T10:50:57.987Z</time></trkpt><trkpt lat="40.6822341" lon="17.0814309"><ele>414.0</ele><time>2026-04-11T10:50:58.988Z</time></trkpt><trkpt lat="40.682336" lon="17.0816105"><ele>415.0</ele><time>2026-04-11T10:50:59.987Z</time></trkpt><trkpt lat="40.6824299" lon="17.081765"><ele>416.0</ele><time>2026-04-11T10:51:00.989Z</time></trkpt><trkpt lat="40.6825239" lon="17.0819376"><ele>416.0</ele><time>2026-04-11T10:51:01.99Z</time></trkpt><trkpt lat="40.6826203" lon="17.0821034"><ele>416.0</ele><time>2026-04-11T10:51:02.988Z</time></trkpt><trkpt lat="40.68273" lon="17.082278"><ele>416.0</ele><time>2026-04-11T10:51:04.061Z</time></trkpt><trkpt lat="40.6828285" lon="17.0824488"><ele>415.0</ele><time>2026-04-11T10:51:04.975Z</time></trkpt><trkpt lat="40.6829297" lon="17.0826088"><ele>414.0</ele><time>2026-04-11T10:51:05.989Z</time></trkpt><trkpt lat="40.6830258" lon="17.0827845"><ele>413.0</ele><time>2026-04-11T10:51:06.99Z</time></trkpt><trkpt lat="40.6831339" lon="17.0829715"><ele>413.0</ele><time>2026-04-11T10:51:07.97Z</time></trkpt><trkpt lat="40.6832427" lon="17.0831632"><ele>413.0</ele><time>2026-04-11T10:51:08.985Z</time></trkpt><trkpt lat="40.6833527" lon="17.0833538"><ele>413.0</ele><time>2026-04-11T10:51:09.986Z</time></trkpt><trkpt lat="40.6834582" lon="17.0835496"><ele>412.66666666666663</ele><time>2026-04-11T10:51:10.985Z</time></trkpt><trkpt lat="40.6835707" lon="17.0837356"><ele>412.33333333333337</ele><time>2026-04-11T10:51:12.052Z</time></trkpt><trkpt lat="40.6836852" lon="17.0839242"><ele>412.0</ele><time>2026-04-11T10:51:12.971Z</time></trkpt><trkpt lat="40.6838021" lon="17.0841374"><ele>411.33333333333337</ele><time>2026-04-11T10:51:14.005Z</time></trkpt><trkpt lat="40.6839098" lon="17.084325"><ele>410.66666666666663</ele><time>2026-04-11T10:51:14.991Z</time></trkpt><trkpt lat="40.6840185" lon="17.0845125"><ele>410.0</ele><time>2026-04-11T10:51:16.015Z</time></trkpt><trkpt lat="40.6841266" lon="17.0846992"><ele>410.0</ele><time>2026-04-11T10:51:16.969Z</time></trkpt><trkpt lat="40.6842151" lon="17.0848595"><ele>410.0</ele><time>2026-04-11T10:51:17.981Z</time></trkpt><trkpt lat="40.6842985" lon="17.0849839"><ele>410.0</ele><time>2026-04-11T10:51:18.982Z</time></trkpt><trkpt lat="40.6843892" lon="17.0851453"><ele>410.0</ele><time>2026-04-11T10:51:19.987Z</time></trkpt><trkpt lat="40.6844892" lon="17.0853114"><ele>409.3333333333333</ele><time>2026-04-11T10:51:20.99Z</time></trkpt><trkpt lat="40.6846015" lon="17.0854927"><ele>408.66666666666663</ele><time>2026-04-11T10:51:21.99Z</time></trkpt><trkpt lat="40.6847123" lon="17.0856643"><ele>408.0</ele><time>2026-04-11T10:51:22.994Z</time></trkpt><trkpt lat="40.6848051" lon="17.0858425"><ele>408.0</ele><time>2026-04-11T10:51:23.993Z</time></trkpt><trkpt lat="40.6849042" lon="17.0860279"><ele>408.0</ele><time>2026-04-11T10:51:24.997Z</time></trkpt><trkpt lat="40.6850129" lon="17.0862157"><ele>408.0</ele><time>2026-04-11T10:51:25.988Z</time></trkpt><trkpt lat="40.6851217" lon="17.0864075"><ele>408.0</ele><time>2026-04-11T10:51:26.979Z</time></trkpt><trkpt lat="40.685242" lon="17.0866103"><ele>408.0</ele><time>2026-04-11T10:51:27.985Z</time></trkpt><trkpt lat="40.6853532" lon="17.0868029"><ele>408.0</ele><time>2026-04-11T10:51:28.981Z</time></trkpt><trkpt lat="40.6854733" lon="17.0869923"><ele>407.0</ele><time>2026-04-11T10:51:29.983Z</time></trkpt><trkpt lat="40.6855878" lon="17.087185"><ele>406.0</ele><time>2026-04-11T10:51:30.979Z</time></trkpt><trkpt lat="40.685716" lon="17.0873713"><ele>405.0</ele><time>2026-04-11T10:51:31.987Z</time></trkpt><trkpt lat="40.6858506" lon="17.0875456"><ele>405.0</ele><time>2026-04-11T10:51:32.989Z</time></trkpt><trkpt lat="40.6859864" lon="17.0877251"><ele>405.0</ele><time>2026-04-11T10:51:33.993Z</time></trkpt><trkpt lat="40.6861279" lon="17.0879031"><ele>405.0</ele><time>2026-04-11T10:51:34.989Z</time></trkpt><trkpt lat="40.68627" lon="17.0880813"><ele>404.0</ele><time>2026-04-11T10:51:35.986Z</time></trkpt><trkpt lat="40.6864089" lon="17.0882587"><ele>403.0</ele><time>2026-04-11T10:51:36.975Z</time></trkpt><trkpt lat="40.6865434" lon="17.0884314"><ele>402.0</ele><time>2026-04-11T10:51:37.987Z</time></trkpt><trkpt lat="40.6866678" lon="17.0886055"><ele>402.0</ele><time>2026-04-11T10:51:39.062Z</time></trkpt><trkpt lat="40.686782" lon="17.0887715"><ele>402.0</ele><time>2026-04-11T10:51:40.013Z</time></trkpt><trkpt lat="40.686896" lon="17.088936"><ele>402.0</ele><time>2026-04-11T10:51:40.972Z</time></trkpt><trkpt lat="40.6870133" lon="17.0890945"><ele>401.0</ele><time>2026-04-11T10:51:41.987Z</time></trkpt><trkpt lat="40.6871163" lon="17.0892456"><ele>400.0</ele><time>2026-04-11T10:51:43.014Z</time></trkpt><trkpt lat="40.6872297" lon="17.0894043"><ele>399.0</ele><time>2026-04-11T10:51:44.013Z</time></trkpt><trkpt lat="40.687345" lon="17.0895667"><ele>399.0</ele><time>2026-04-11T10:51:44.97Z</time></trkpt><trkpt lat="40.6874595" lon="17.0897424"><ele>399.0</ele><time>2026-04-11T10:51:46.011Z</time></trkpt><trkpt lat="40.6875736" lon="17.0899024"><ele>399.0</ele><time>2026-04-11T10:51:46.985Z</time></trkpt><trkpt lat="40.6876985" lon="17.0900704"><ele>398.33333333333337</ele><time>2026-04-11T10:51:47.987Z</time></trkpt><trkpt lat="40.6878113" lon="17.0902339"><ele>397.6666666666667</ele><time>2026-04-11T10:51:48.991Z</time></trkpt><trkpt lat="40.687932" lon="17.0904006"><ele>397.0</ele><time>2026-04-11T10:51:49.991Z</time></trkpt><trkpt lat="40.6880389" lon="17.0905612"><ele>397.0</ele><time>2026-04-11T10:51:50.987Z</time></trkpt><trkpt lat="40.6881492" lon="17.0907227"><ele>397.0</ele><time>2026-04-11T10:51:51.974Z</time></trkpt><trkpt lat="40.6882614" lon="17.0908825"><ele>397.0</ele><time>2026-04-11T10:51:53.014Z</time></trkpt><trkpt lat="40.6883663" lon="17.0910471"><ele>398.0</ele><time>2026-04-11T10:51:53.99Z</time></trkpt><trkpt lat="40.688476" lon="17.0912044"><ele>399.0</ele><time>2026-04-11T10:51:54.975Z</time></trkpt><trkpt lat="40.6885857" lon="17.0913633"><ele>400.0</ele><time>2026-04-11T10:51:55.992Z</time></trkpt><trkpt lat="40.688693" lon="17.0915212"><ele>400.0</ele><time>2026-04-11T10:51:56.993Z</time></trkpt><trkpt lat="40.6888019" lon="17.0916799"><ele>400.0</ele><time>2026-04-11T10:51:57.978Z</time></trkpt><trkpt lat="40.6889121" lon="17.0918459"><ele>400.0</ele><time>2026-04-11T10:51:58.985Z</time></trkpt><trkpt lat="40.6890267" lon="17.0920231"><ele>400.0</ele><time>2026-04-11T10:51:59.988Z</time></trkpt><trkpt lat="40.6891491" lon="17.0921846"><ele>400.0</ele><time>2026-04-11T10:52:00.991Z</time></trkpt><trkpt lat="40.6892733" lon="17.0923547"><ele>400.0</ele><time>2026-04-11T10:52:01.99Z</time></trkpt><trkpt lat="40.6893987" lon="17.0925402"><ele>399.33333333333337</ele><time>2026-04-11T10:52:02.989Z</time></trkpt><trkpt lat="40.6895196" lon="17.0927136"><ele>398.66666666666663</ele><time>2026-04-11T10:52:03.99Z</time></trkpt><trkpt lat="40.6896443" lon="17.0928922"><ele>398.0</ele><time>2026-04-11T10:52:04.975Z</time></trkpt><trkpt lat="40.68977" lon="17.0930579"><ele>398.0</ele><time>2026-04-11T10:52:05.985Z</time></trkpt><trkpt lat="40.6898923" lon="17.0932374"><ele>398.0</ele><time>2026-04-11T10:52:06.989Z</time></trkpt><trkpt lat="40.6900139" lon="17.0934116"><ele>398.0</ele><time>2026-04-11T10:52:07.973Z</time></trkpt><trkpt lat="40.6901352" lon="17.0935972"><ele>398.0</ele><time>2026-04-11T10:52:09.011Z</time></trkpt><trkpt lat="40.6902519" lon="17.0937698"><ele>398.0</ele><time>2026-04-11T10:52:09.989Z</time></trkpt><trkpt lat="40.6903714" lon="17.0939421"><ele>398.0</ele><time>2026-04-11T10:52:10.976Z</time></trkpt><trkpt lat="40.6904832" lon="17.0940992"><ele>398.3333333333333</ele><time>2026-04-11T10:52:11.984Z</time></trkpt><trkpt lat="40.6905917" lon="17.0942579"><ele>398.66666666666663</ele><time>2026-04-11T10:52:12.98Z</time></trkpt><trkpt lat="40.6906908" lon="17.0943942"><ele>399.0</ele><time>2026-04-11T10:52:14.021Z</time></trkpt><trkpt lat="40.6907953" lon="17.0945329"><ele>399.0</ele><time>2026-04-11T10:52:15.021Z</time></trkpt><trkpt lat="40.690899" lon="17.0946869"><ele>399.0</ele><time>2026-04-11T10:52:15.986Z</time></trkpt><trkpt lat="40.6910059" lon="17.0948445"><ele>399.0</ele><time>2026-04-11T10:52:17.016Z</time></trkpt><trkpt lat="40.6911114" lon="17.094998"><ele>398.5</ele><time>2026-04-11T10:52:17.985Z</time></trkpt><trkpt lat="40.6912064" lon="17.095146"><ele>398.0</ele><time>2026-04-11T10:52:18.984Z</time></trkpt><trkpt lat="40.6913149" lon="17.0952868"><ele>397.5</ele><time>2026-04-11T10:52:20.013Z</time></trkpt><trkpt lat="40.6914032" lon="17.0954227"><ele>397.0</ele><time>2026-04-11T10:52:20.989Z</time></trkpt><trkpt lat="40.6914954" lon="17.09555"><ele>397.0</ele><time>2026-04-11T10:52:22.023Z</time></trkpt><trkpt lat="40.6915854" lon="17.0956908"><ele>397.0</ele><time>2026-04-11T10:52:23.016Z</time></trkpt><trkpt lat="40.6916629" lon="17.0958232"><ele>397.0</ele><time>2026-04-11T10:52:23.982Z</time></trkpt><trkpt lat="40.6917559" lon="17.0959651"><ele>397.0</ele><time>2026-04-11T10:52:24.986Z</time></trkpt><trkpt lat="40.6918408" lon="17.0960928"><ele>396.75</ele><time>2026-04-11T10:52:25.988Z</time></trkpt><trkpt lat="40.6919207" lon="17.0962188"><ele>396.5</ele><time>2026-04-11T10:52:27.016Z</time></trkpt><trkpt lat="40.6920008" lon="17.0963317"><ele>396.25</ele><time>2026-04-11T10:52:28.019Z</time></trkpt><trkpt lat="40.6920733" lon="17.0964634"><ele>396.0</ele><time>2026-04-11T10:52:28.985Z</time></trkpt><trkpt lat="40.6921467" lon="17.0965833"><ele>396.75</ele><time>2026-04-11T10:52:29.974Z</time></trkpt><trkpt lat="40.6922124" lon="17.0967025"><ele>397.5</ele><time>2026-04-11T10:52:31.017Z</time></trkpt><trkpt lat="40.6922852" lon="17.0968163"><ele>398.25</ele><time>2026-04-11T10:52:32.021Z</time></trkpt><trkpt lat="40.6923581" lon="17.0969302"><ele>399.0</ele><time>2026-04-11T10:52:32.974Z</time></trkpt><trkpt lat="40.692445" lon="17.0970358"><ele>399.0</ele><time>2026-04-11T10:52:34.08Z</time></trkpt><trkpt lat="40.6925253" lon="17.0971487"><ele>399.0</ele><time>2026-04-11T10:52:34.983Z</time></trkpt><trkpt lat="40.6926133" lon="17.0972746"><ele>399.0</ele><time>2026-04-11T10:52:35.977Z</time></trkpt><trkpt lat="40.6927069" lon="17.0974125"><ele>399.0</ele><time>2026-04-11T10:52:37.021Z</time></trkpt><trkpt lat="40.6927812" lon="17.0975369"><ele>399.75</ele><time>2026-04-11T10:52:37.984Z</time></trkpt><trkpt lat="40.6928638" lon="17.0976713"><ele>400.5</ele><time>2026-04-11T10:52:38.97Z</time></trkpt><trkpt lat="40.6929502" lon="17.0978134"><ele>401.25</ele><time>2026-04-11T10:52:39.974Z</time></trkpt><trkpt lat="40.69304" lon="17.0979657"><ele>402.0</ele><time>2026-04-11T10:52:40.985Z</time></trkpt><trkpt lat="40.6931332" lon="17.0981104"><ele>402.66666666666663</ele><time>2026-04-11T10:52:41.974Z</time></trkpt><trkpt lat="40.6932252" lon="17.0982797"><ele>403.3333333333333</ele><time>2026-04-11T10:52:43.028Z</time></trkpt><trkpt lat="40.6933215" lon="17.09843"><ele>404.0</ele><time>2026-04-11T10:52:43.98Z</time></trkpt><trkpt lat="40.6934114" lon="17.098585"><ele>404.0</ele><time>2026-04-11T10:52:45.015Z</time></trkpt><trkpt lat="40.6935146" lon="17.0987381"><ele>404.0</ele><time>2026-04-11T10:52:45.994Z</time></trkpt><trkpt lat="40.6936147" lon="17.0988945"><ele>404.0</ele><time>2026-04-11T10:52:46.97Z</time></trkpt><trkpt lat="40.6937167" lon="17.0990566"><ele>404.75</ele><time>2026-04-11T10:52:48.013Z</time></trkpt><trkpt lat="40.6938159" lon="17.0992113"><ele>405.5</ele><time>2026-04-11T10:52:48.989Z</time></trkpt><trkpt lat="40.6939158" lon="17.0993663"><ele>406.25</ele><time>2026-04-11T10:52:49.976Z</time></trkpt><trkpt lat="40.6939931" lon="17.099513"><ele>407.0</ele><time>2026-04-11T10:52:51.013Z</time></trkpt><trkpt lat="40.6940682" lon="17.099636"><ele>407.0</ele><time>2026-04-11T10:52:52.016Z</time></trkpt><trkpt lat="40.6941473" lon="17.0997628"><ele>407.0</ele><time>2026-04-11T10:52:52.969Z</time></trkpt><trkpt lat="40.6942163" lon="17.0999031"><ele>407.0</ele><time>2026-04-11T10:52:54.066Z</time></trkpt><trkpt lat="40.6942866" lon="17.1000506"><ele>407.0</ele><time>2026-04-11T10:52:54.981Z</time></trkpt><trkpt lat="40.6943564" lon="17.1002236"><ele>407.3333333333333</ele><time>2026-04-11T10:52:56.011Z</time></trkpt><trkpt lat="40.6944267" lon="17.1003959"><ele>407.66666666666663</ele><time>2026-04-11T10:52:56.993Z</time></trkpt><trkpt lat="40.6945048" lon="17.100575"><ele>408.0</ele><time>2026-04-11T10:52:57.984Z</time></trkpt><trkpt lat="40.6945762" lon="17.1007489"><ele>408.25</ele><time>2026-04-11T10:52:58.981Z</time></trkpt><trkpt lat="40.6946464" lon="17.1009235"><ele>408.5</ele><time>2026-04-11T10:52:59.985Z</time></trkpt><trkpt lat="40.6947167" lon="17.1010977"><ele>408.75</ele><time>2026-04-11T10:53:00.973Z</time></trkpt><trkpt lat="40.694789" lon="17.1012478"><ele>409.0</ele><time>2026-04-11T10:53:01.98Z</time></trkpt><trkpt lat="40.6948612" lon="17.1014168"><ele>410.0</ele><time>2026-04-11T10:53:03.012Z</time></trkpt><trkpt lat="40.6949258" lon="17.1015876"><ele>411.0</ele><time>2026-04-11T10:53:04.017Z</time></trkpt><trkpt lat="40.6950017" lon="17.1017656"><ele>412.0</ele><time>2026-04-11T10:53:05.01Z</time></trkpt><trkpt lat="40.6950757" lon="17.1019403"><ele>412.0</ele><time>2026-04-11T10:53:06.032Z</time></trkpt><trkpt lat="40.6951382" lon="17.1021106"><ele>412.0</ele><time>2026-04-11T10:53:06.992Z</time></trkpt><trkpt lat="40.6952109" lon="17.1022954"><ele>412.0</ele><time>2026-04-11T10:53:07.993Z</time></trkpt><trkpt lat="40.6952725" lon="17.1024877"><ele>413.6666666666667</ele><time>2026-04-11T10:53:09.017Z</time></trkpt><trkpt lat="40.6953389" lon="17.1026617"><ele>415.33333333333337</ele><time>2026-04-11T10:53:09.993Z</time></trkpt><trkpt lat="40.6954083" lon="17.1028402"><ele>417.0</ele><time>2026-04-11T10:53:10.997Z</time></trkpt><trkpt lat="40.6954846" lon="17.1030312"><ele>417.0</ele><time>2026-04-11T10:53:12.013Z</time></trkpt><trkpt lat="40.6955489" lon="17.1032164"><ele>417.0</ele><time>2026-04-11T10:53:12.982Z</time></trkpt><trkpt lat="40.6956113" lon="17.1033964"><ele>417.0</ele><time>2026-04-11T10:53:13.987Z</time></trkpt><trkpt lat="40.6956705" lon="17.1035584"><ele>417.0</ele><time>2026-04-11T10:53:15.022Z</time></trkpt><trkpt lat="40.6957152" lon="17.1037077"><ele>417.25</ele><time>2026-04-11T10:53:15.981Z</time></trkpt><trkpt lat="40.6957413" lon="17.1038609"><ele>417.5</ele><time>2026-04-11T10:53:17.019Z</time></trkpt><trkpt lat="40.6957467" lon="17.1040078"><ele>417.75</ele><time>2026-04-11T10:53:18.014Z</time></trkpt><trkpt lat="40.6957445" lon="17.1041594"><ele>418.0</ele><time>2026-04-11T10:53:19.028Z</time></trkpt><trkpt lat="40.6957296" lon="17.1043137"><ele>418.25</ele><time>2026-04-11T10:53:19.986Z</time></trkpt><trkpt lat="40.6957004" lon="17.1044789"><ele>418.5</ele><time>2026-04-11T10:53:21.017Z</time></trkpt><trkpt lat="40.6956623" lon="17.1046512"><ele>418.75</ele><time>2026-04-11T10:53:22.024Z</time></trkpt><trkpt lat="40.6956241" lon="17.104823"><ele>419.0</ele><time>2026-04-11T10:53:23.022Z</time></trkpt><trkpt lat="40.695579" lon="17.1049982"><ele>418.25</ele><time>2026-04-11T10:53:24.017Z</time></trkpt><trkpt lat="40.6955373" lon="17.1051694"><ele>417.5</ele><time>2026-04-11T10:53:25.019Z</time></trkpt><trkpt lat="40.6954989" lon="17.1053361"><ele>416.75</ele><time>2026-04-11T10:53:26.02Z</time></trkpt><trkpt lat="40.6954516" lon="17.1054906"><ele>416.0</ele><time>2026-04-11T10:53:27.017Z</time></trkpt><trkpt lat="40.6954087" lon="17.1056473"><ele>415.6</ele><time>2026-04-11T10:53:27.984Z</time></trkpt><trkpt lat="40.6953718" lon="17.1057932"><ele>415.20000000000005</ele><time>2026-04-11T10:53:29.019Z</time></trkpt><trkpt lat="40.6953381" lon="17.1059344"><ele>414.79999999999995</ele><time>2026-04-11T10:53:30.013Z</time></trkpt><trkpt lat="40.695313" lon="17.106064"><ele>414.4</ele><time>2026-04-11T10:53:31.021Z</time></trkpt><trkpt lat="40.6952997" lon="17.1061948"><ele>414.0</ele><time>2026-04-11T10:53:31.987Z</time></trkpt><trkpt lat="40.6953023" lon="17.1063343"><ele>414.0</ele><time>2026-04-11T10:53:33.019Z</time></trkpt><trkpt lat="40.6953275" lon="17.106494"><ele>414.0</ele><time>2026-04-11T10:53:34.02Z</time></trkpt><trkpt lat="40.6953586" lon="17.1066518"><ele>414.0</ele><time>2026-04-11T10:53:35.025Z</time></trkpt><trkpt lat="40.6954036" lon="17.1068111"><ele>414.0</ele><time>2026-04-11T10:53:36.021Z</time></trkpt><trkpt lat="40.6954465" lon="17.1069598"><ele>414.0</ele><time>2026-04-11T10:53:37.023Z</time></trkpt><trkpt lat="40.695485" lon="17.107098"><ele>414.0</ele><time>2026-04-11T10:53:37.978Z</time></trkpt><trkpt lat="40.6955149" lon="17.1072109"><ele>414.0</ele><time>2026-04-11T10:53:39.02Z</time></trkpt><trkpt lat="40.695551" lon="17.1073301"><ele>414.0</ele><time>2026-04-11T10:53:39.987Z</time></trkpt><trkpt lat="40.6955809" lon="17.1074577"><ele>414.0</ele><time>2026-04-11T10:53:41.022Z</time></trkpt><trkpt lat="40.695625" lon="17.1075887"><ele>414.0</ele><time>2026-04-11T10:53:42.021Z</time></trkpt><trkpt lat="40.695663" lon="17.1077345"><ele>414.0</ele><time>2026-04-11T10:53:43.014Z</time></trkpt><trkpt lat="40.6956925" lon="17.1078842"><ele>414.0</ele><time>2026-04-11T10:53:43.982Z</time></trkpt><trkpt lat="40.6957298" lon="17.1080296"><ele>414.0</ele><time>2026-04-11T10:53:45.012Z</time></trkpt><trkpt lat="40.695764" lon="17.1081828"><ele>414.75</ele><time>2026-04-11T10:53:45.988Z</time></trkpt><trkpt lat="40.6958043" lon="17.1083407"><ele>415.5</ele><time>2026-04-11T10:53:46.984Z</time></trkpt><trkpt lat="40.6958478" lon="17.1085052"><ele>416.25</ele><time>2026-04-11T10:53:47.986Z</time></trkpt><trkpt lat="40.6958957" lon="17.1086683"><ele>417.0</ele><time>2026-04-11T10:53:48.988Z</time></trkpt><trkpt lat="40.6959411" lon="17.1088329"><ele>417.0</ele><time>2026-04-11T10:53:50.017Z</time></trkpt><trkpt lat="40.6959791" lon="17.1089823"><ele>417.0</ele><time>2026-04-11T10:53:51.014Z</time></trkpt><trkpt lat="40.6960134" lon="17.1091165"><ele>417.0</ele><time>2026-04-11T10:53:51.983Z</time></trkpt><trkpt lat="40.6960425" lon="17.1092484"><ele>417.0</ele><time>2026-04-11T10:53:52.984Z</time></trkpt><trkpt lat="40.6960762" lon="17.1093817"><ele>417.0</ele><time>2026-04-11T10:53:54.026Z</time></trkpt><trkpt lat="40.6961128" lon="17.1095096"><ele>417.20000000000005</ele><time>2026-04-11T10:53:55.026Z</time></trkpt><trkpt lat="40.6961485" lon="17.1096326"><ele>417.4</ele><time>2026-04-11T10:53:56.022Z</time></trkpt><trkpt lat="40.6961895" lon="17.1097691"><ele>417.6</ele><time>2026-04-11T10:53:57.02Z</time></trkpt><trkpt lat="40.6962259" lon="17.1099175"><ele>417.79999999999995</ele><time>2026-04-11T10:53:57.984Z</time></trkpt><trkpt lat="40.6962648" lon="17.1100641"><ele>418.0</ele><time>2026-04-11T10:53:59.033Z</time></trkpt><trkpt lat="40.6963018" lon="17.1102219"><ele>418.4</ele><time>2026-04-11T10:54:00.024Z</time></trkpt><trkpt lat="40.6963376" lon="17.1103679"><ele>418.79999999999995</ele><time>2026-04-11T10:54:01.02Z</time></trkpt><trkpt lat="40.6963808" lon="17.1105135"><ele>419.2</ele><time>2026-04-11T10:54:02.021Z</time></trkpt><trkpt lat="40.6964178" lon="17.1106504"><ele>419.6</ele><time>2026-04-11T10:54:03.059Z</time></trkpt><trkpt lat="40.6964514" lon="17.1107586"><ele>420.0</ele><time>2026-04-11T10:54:04.019Z</time></trkpt><trkpt lat="40.6964814" lon="17.1108829"><ele>421.0</ele><time>2026-04-11T10:54:05.016Z</time></trkpt><trkpt lat="40.6965106" lon="17.1109999"><ele>422.0</ele><time>2026-04-11T10:54:05.971Z</time></trkpt><trkpt lat="40.6965504" lon="17.1111188"><ele>423.0</ele><time>2026-04-11T10:54:07.039Z</time></trkpt><trkpt lat="40.696578" lon="17.1112432"><ele>424.0</ele><time>2026-04-11T10:54:07.985Z</time></trkpt><trkpt lat="40.6966269" lon="17.1113642"><ele>425.0</ele><time>2026-04-11T10:54:09.026Z</time></trkpt><trkpt lat="40.6966699" lon="17.111478"><ele>424.75</ele><time>2026-04-11T10:54:09.99Z</time></trkpt><trkpt lat="40.6967312" lon="17.1115987"><ele>424.5</ele><time>2026-04-11T10:54:10.987Z</time></trkpt><trkpt lat="40.6968033" lon="17.1117249"><ele>424.25</ele><time>2026-04-11T10:54:12.014Z</time></trkpt><trkpt lat="40.6968832" lon="17.1118456"><ele>424.0</ele><time>2026-04-11T10:54:13.016Z</time></trkpt><trkpt lat="40.6969623" lon="17.1119634"><ele>424.0</ele><time>2026-04-11T10:54:14.02Z</time></trkpt><trkpt lat="40.6970485" lon="17.1120806"><ele>424.0</ele><time>2026-04-11T10:54:15.026Z</time></trkpt><trkpt lat="40.6971445" lon="17.1121998"><ele>424.0</ele><time>2026-04-11T10:54:16.021Z</time></trkpt><trkpt lat="40.6972473" lon="17.1123121"><ele>424.0</ele><time>2026-04-11T10:54:17.029Z</time></trkpt><trkpt lat="40.6973651" lon="17.112426"><ele>424.6666666666667</ele><time>2026-04-11T10:54:18.028Z</time></trkpt><trkpt lat="40.6974987" lon="17.1125259"><ele>425.33333333333337</ele><time>2026-04-11T10:54:19.021Z</time></trkpt><trkpt lat="40.697625" lon="17.1126346"><ele>426.0</ele><time>2026-04-11T10:54:20.011Z</time></trkpt><trkpt lat="40.6977507" lon="17.1127398"><ele>425.75</ele><time>2026-04-11T10:54:21.022Z</time></trkpt><trkpt lat="40.6978709" lon="17.1128409"><ele>425.5</ele><time>2026-04-11T10:54:22.022Z</time></trkpt><trkpt lat="40.6979913" lon="17.1129362"><ele>425.25</ele><time>2026-04-11T10:54:22.971Z</time></trkpt><trkpt lat="40.6981095" lon="17.1130365"><ele>425.0</ele><time>2026-04-11T10:54:23.985Z</time></trkpt><trkpt lat="40.6982246" lon="17.1131322"><ele>425.0</ele><time>2026-04-11T10:54:24.983Z</time></trkpt><trkpt lat="40.6983246" lon="17.1132051"><ele>425.0</ele><time>2026-04-11T10:54:26.017Z</time></trkpt><trkpt lat="40.6984013" lon="17.1132656"><ele>425.0</ele><time>2026-04-11T10:54:27.035Z</time></trkpt><trkpt lat="40.6984783" lon="17.1133255"><ele>425.0</ele><time>2026-04-11T10:54:28.019Z</time></trkpt><trkpt lat="40.698545" lon="17.1133822"><ele>425.0</ele><time>2026-04-11T10:54:28.993Z</time></trkpt><trkpt lat="40.6986146" lon="17.113452"><ele>425.3333333333333</ele><time>2026-04-11T10:54:30.065Z</time></trkpt><trkpt lat="40.6986779" lon="17.1135287"><ele>425.66666666666663</ele><time>2026-04-11T10:54:31.013Z</time></trkpt><trkpt lat="40.6987319" lon="17.1136158"><ele>426.0</ele><time>2026-04-11T10:54:32.081Z</time></trkpt><trkpt lat="40.698793" lon="17.1137023"><ele>426.33333333333337</ele><time>2026-04-11T10:54:33.012Z</time></trkpt><trkpt lat="40.6988519" lon="17.1137843"><ele>426.6666666666667</ele><time>2026-04-11T10:54:34.023Z</time></trkpt><trkpt lat="40.6989089" lon="17.1138642"><ele>427.0</ele><time>2026-04-11T10:54:35.011Z</time></trkpt><trkpt lat="40.6989605" lon="17.1139307"><ele>427.00000000000006</ele><time>2026-04-11T10:54:36.012Z</time></trkpt><trkpt lat="40.6990145" lon="17.1140033"><ele>427.0</ele><time>2026-04-11T10:54:36.983Z</time></trkpt><trkpt lat="40.6990683" lon="17.1140793"><ele>427.0</ele><time>2026-04-11T10:54:37.981Z</time></trkpt><trkpt lat="40.6991238" lon="17.1141463"><ele>427.0</ele><time>2026-04-11T10:54:38.989Z</time></trkpt><trkpt lat="40.6991788" lon="17.1142216"><ele>427.00000000000006</ele><time>2026-04-11T10:54:39.988Z</time></trkpt><trkpt lat="40.6992441" lon="17.1143124"><ele>427.0</ele><time>2026-04-11T10:54:40.993Z</time></trkpt><trkpt lat="40.6993185" lon="17.1144042"><ele>427.40000000000003</ele><time>2026-04-11T10:54:41.989Z</time></trkpt><trkpt lat="40.6993865" lon="17.1145052"><ele>427.80000000000007</ele><time>2026-04-11T10:54:42.979Z</time></trkpt><trkpt lat="40.6994653" lon="17.1146143"><ele>428.2</ele><time>2026-04-11T10:54:43.979Z</time></trkpt><trkpt lat="40.6995443" lon="17.1147134"><ele>428.6</ele><time>2026-04-11T10:54:44.984Z</time></trkpt><trkpt lat="40.6996259" lon="17.1148331"><ele>429.0</ele><time>2026-04-11T10:54:45.98Z</time></trkpt><trkpt lat="40.699716" lon="17.1149589"><ele>429.5</ele><time>2026-04-11T10:54:46.983Z</time></trkpt><trkpt lat="40.699798" lon="17.1150819"><ele>430.0</ele><time>2026-04-11T10:54:47.984Z</time></trkpt><trkpt lat="40.6998765" lon="17.1151899"><ele>430.5</ele><time>2026-04-11T10:54:49.009Z</time></trkpt><trkpt lat="40.6999507" lon="17.1152986"><ele>431.0</ele><time>2026-04-11T10:54:49.968Z</time></trkpt><trkpt lat="40.7000115" lon="17.1154174"><ele>431.0</ele><time>2026-04-11T10:54:51.017Z</time></trkpt><trkpt lat="40.7000703" lon="17.1155653"><ele>431.0</ele><time>2026-04-11T10:54:52.006Z</time></trkpt><trkpt lat="40.7001277" lon="17.115708"><ele>431.0</ele><time>2026-04-11T10:54:52.968Z</time></trkpt><trkpt lat="40.7001764" lon="17.1158608"><ele>431.0</ele><time>2026-04-11T10:54:53.985Z</time></trkpt><trkpt lat="40.7001971" lon="17.1160534"><ele>431.25</ele><time>2026-04-11T10:54:54.979Z</time></trkpt><trkpt lat="40.7002329" lon="17.1162277"><ele>431.5</ele><time>2026-04-11T10:54:55.989Z</time></trkpt><trkpt lat="40.7002644" lon="17.1164031"><ele>431.75</ele><time>2026-04-11T10:54:56.992Z</time></trkpt><trkpt lat="40.7003031" lon="17.1165869"><ele>432.0</ele><time>2026-04-11T10:54:57.981Z</time></trkpt><trkpt lat="40.7003344" lon="17.1167727"><ele>431.25</ele><time>2026-04-11T10:54:59.018Z</time></trkpt><trkpt lat="40.7003728" lon="17.1169621"><ele>430.5</ele><time>2026-04-11T10:54:59.979Z</time></trkpt><trkpt lat="40.7004138" lon="17.1171445"><ele>429.75</ele><time>2026-04-11T10:55:00.99Z</time></trkpt><trkpt lat="40.7004555" lon="17.1173183"><ele>429.0</ele><time>2026-04-11T10:55:01.992Z</time></trkpt><trkpt lat="40.7004932" lon="17.1174969"><ele>429.0</ele><time>2026-04-11T10:55:02.993Z</time></trkpt><trkpt lat="40.7005244" lon="17.1176739"><ele>429.0</ele><time>2026-04-11T10:55:03.985Z</time></trkpt><trkpt lat="40.700563" lon="17.1178623"><ele>429.0</ele><time>2026-04-11T10:55:04.988Z</time></trkpt><trkpt lat="40.7006059" lon="17.1180549"><ele>429.0</ele><time>2026-04-11T10:55:05.987Z</time></trkpt><trkpt lat="40.7006413" lon="17.1182502"><ele>429.25</ele><time>2026-04-11T10:55:07.036Z</time></trkpt><trkpt lat="40.7006789" lon="17.1184397"><ele>429.5</ele><time>2026-04-11T10:55:07.976Z</time></trkpt><trkpt lat="40.7007194" lon="17.1186242"><ele>429.75</ele><time>2026-04-11T10:55:08.979Z</time></trkpt><trkpt lat="40.7007506" lon="17.1188112"><ele>430.0</ele><time>2026-04-11T10:55:09.983Z</time></trkpt><trkpt lat="40.7007849" lon="17.1189934"><ele>430.0</ele><time>2026-04-11T10:55:10.985Z</time></trkpt><trkpt lat="40.7008278" lon="17.1191815"><ele>430.0</ele><time>2026-04-11T10:55:11.988Z</time></trkpt><trkpt lat="40.7008648" lon="17.1193655"><ele>430.0</ele><time>2026-04-11T10:55:12.994Z</time></trkpt><trkpt lat="40.7009131" lon="17.1195513"><ele>430.0</ele><time>2026-04-11T10:55:13.989Z</time></trkpt><trkpt lat="40.7009546" lon="17.1197395"><ele>430.0</ele><time>2026-04-11T10:55:14.992Z</time></trkpt><trkpt lat="40.7009962" lon="17.1199258"><ele>430.0</ele><time>2026-04-11T10:55:15.992Z</time></trkpt><trkpt lat="40.7010329" lon="17.120102"><ele>430.0</ele><time>2026-04-11T10:55:17.011Z</time></trkpt><trkpt lat="40.7010685" lon="17.1202678"><ele>430.0</ele><time>2026-04-11T10:55:17.998Z</time></trkpt><trkpt lat="40.7011057" lon="17.1204316"><ele>430.0</ele><time>2026-04-11T10:55:18.988Z</time></trkpt><trkpt lat="40.7011444" lon="17.1206042"><ele>430.0</ele><time>2026-04-11T10:55:19.985Z</time></trkpt><trkpt lat="40.7011783" lon="17.1207747"><ele>430.0</ele><time>2026-04-11T10:55:20.992Z</time></trkpt><trkpt lat="40.7012095" lon="17.120955"><ele>430.0</ele><time>2026-04-11T10:55:21.984Z</time></trkpt><trkpt lat="40.7012369" lon="17.1211242"><ele>430.0</ele><time>2026-04-11T10:55:22.992Z</time></trkpt><trkpt lat="40.7012737" lon="17.1212914"><ele>430.0</ele><time>2026-04-11T10:55:23.98Z</time></trkpt><trkpt lat="40.7012973" lon="17.1214478"><ele>430.0</ele><time>2026-04-11T10:55:24.98Z</time></trkpt><trkpt lat="40.7013279" lon="17.1216086"><ele>430.0</ele><time>2026-04-11T10:55:25.978Z</time></trkpt><trkpt lat="40.701342" lon="17.1218006"><ele>430.0</ele><time>2026-04-11T10:55:26.98Z</time></trkpt><trkpt lat="40.7013529" lon="17.1219909"><ele>430.0</ele><time>2026-04-11T10:55:27.98Z</time></trkpt><trkpt lat="40.7013586" lon="17.1221905"><ele>430.0</ele><time>2026-04-11T10:55:28.97Z</time></trkpt><trkpt lat="40.7013484" lon="17.122399"><ele>429.5</ele><time>2026-04-11T10:55:29.981Z</time></trkpt><trkpt lat="40.7013382" lon="17.1225849"><ele>429.0</ele><time>2026-04-11T10:55:30.98Z</time></trkpt><trkpt lat="40.7013299" lon="17.122739"><ele>428.5</ele><time>2026-04-11T10:55:31.987Z</time></trkpt><trkpt lat="40.7012988" lon="17.1228888"><ele>428.0</ele><time>2026-04-11T10:55:32.979Z</time></trkpt><trkpt lat="40.7012827" lon="17.1230262"><ele>428.0</ele><time>2026-04-11T10:55:33.986Z</time></trkpt><trkpt lat="40.7012641" lon="17.1231441"><ele>427.99999999999994</ele><time>2026-04-11T10:55:34.978Z</time></trkpt><trkpt lat="40.7012245" lon="17.1232537"><ele>427.99999999999994</ele><time>2026-04-11T10:55:35.967Z</time></trkpt><trkpt lat="40.7011245" lon="17.1233741"><ele>428.0</ele><time>2026-04-11T10:55:36.975Z</time></trkpt><trkpt lat="40.7010384" lon="17.1234733"><ele>428.0</ele><time>2026-04-11T10:55:37.983Z</time></trkpt><trkpt lat="40.7009511" lon="17.1235809"><ele>427.75</ele><time>2026-04-11T10:55:38.98Z</time></trkpt><trkpt lat="40.700856" lon="17.1236897"><ele>427.5</ele><time>2026-04-11T10:55:39.983Z</time></trkpt><trkpt lat="40.7007516" lon="17.1237971"><ele>427.25</ele><time>2026-04-11T10:55:40.971Z</time></trkpt><trkpt lat="40.7006404" lon="17.1239032"><ele>427.0</ele><time>2026-04-11T10:55:41.973Z</time></trkpt><trkpt lat="40.700534" lon="17.1239966"><ele>427.0</ele><time>2026-04-11T10:55:42.977Z</time></trkpt><trkpt lat="40.7004235" lon="17.1241036"><ele>427.0</ele><time>2026-04-11T10:55:43.98Z</time></trkpt><trkpt lat="40.7002942" lon="17.1242161"><ele>427.0</ele><time>2026-04-11T10:55:44.979Z</time></trkpt><trkpt lat="40.7001873" lon="17.1243251"><ele>427.0</ele><time>2026-04-11T10:55:45.977Z</time></trkpt><trkpt lat="40.7000829" lon="17.1244312"><ele>426.6</ele><time>2026-04-11T10:55:46.98Z</time></trkpt><trkpt lat="40.6999806" lon="17.124527"><ele>426.20000000000005</ele><time>2026-04-11T10:55:47.971Z</time></trkpt><trkpt lat="40.6999025" lon="17.1246046"><ele>425.8</ele><time>2026-04-11T10:55:48.979Z</time></trkpt><trkpt lat="40.6998233" lon="17.1246962"><ele>425.4</ele><time>2026-04-11T10:55:49.982Z</time></trkpt><trkpt lat="40.6997429" lon="17.1247663"><ele>425.0</ele><time>2026-04-11T10:55:50.979Z</time></trkpt><trkpt lat="40.6996765" lon="17.124838"><ele>425.4</ele><time>2026-04-11T10:55:51.983Z</time></trkpt><trkpt lat="40.6996092" lon="17.1249195"><ele>425.8</ele><time>2026-04-11T10:55:52.981Z</time></trkpt><trkpt lat="40.6995529" lon="17.1250353"><ele>426.20000000000005</ele><time>2026-04-11T10:55:53.982Z</time></trkpt><trkpt lat="40.6995094" lon="17.125173"><ele>426.6</ele><time>2026-04-11T10:55:54.974Z</time></trkpt><trkpt lat="40.6994984" lon="17.1253288"><ele>427.0</ele><time>2026-04-11T10:55:55.991Z</time></trkpt><trkpt lat="40.6994867" lon="17.1254937"><ele>427.0</ele><time>2026-04-11T10:55:56.978Z</time></trkpt><trkpt lat="40.6994732" lon="17.1256652"><ele>427.0</ele><time>2026-04-11T10:55:57.981Z</time></trkpt><trkpt lat="40.6994457" lon="17.1258202"><ele>427.0</ele><time>2026-04-11T10:55:58.983Z</time></trkpt><trkpt lat="40.6994381" lon="17.1259843"><ele>427.0</ele><time>2026-04-11T10:55:59.983Z</time></trkpt><trkpt lat="40.6994197" lon="17.1261421"><ele>427.0</ele><time>2026-04-11T10:56:00.979Z</time></trkpt><trkpt lat="40.6994021" lon="17.1263068"><ele>427.0</ele><time>2026-04-11T10:56:01.981Z</time></trkpt><trkpt lat="40.6993943" lon="17.1264818"><ele>427.0</ele><time>2026-04-11T10:56:02.979Z</time></trkpt><trkpt lat="40.6993886" lon="17.1266505"><ele>427.0</ele><time>2026-04-11T10:56:03.983Z</time></trkpt><trkpt lat="40.6993596" lon="17.1267912"><ele>427.0</ele><time>2026-04-11T10:56:04.977Z</time></trkpt><trkpt lat="40.699353" lon="17.1269354"><ele>427.00000000000006</ele><time>2026-04-11T10:56:05.979Z</time></trkpt><trkpt lat="40.6993359" lon="17.1270686"><ele>427.00000000000006</ele><time>2026-04-11T10:56:06.976Z</time></trkpt><trkpt lat="40.6993169" lon="17.1272026"><ele>427.0</ele><time>2026-04-11T10:56:07.984Z</time></trkpt><trkpt lat="40.6993132" lon="17.1273253"><ele>427.0</ele><time>2026-04-11T10:56:08.977Z</time></trkpt><trkpt lat="40.699302" lon="17.1274473"><ele>427.20000000000005</ele><time>2026-04-11T10:56:09.973Z</time></trkpt><trkpt lat="40.6993019" lon="17.1275816"><ele>427.40000000000003</ele><time>2026-04-11T10:56:10.986Z</time></trkpt><trkpt lat="40.6992924" lon="17.1277126"><ele>427.59999999999997</ele><time>2026-04-11T10:56:11.983Z</time></trkpt><trkpt lat="40.6992835" lon="17.1278547"><ele>427.79999999999995</ele><time>2026-04-11T10:56:12.982Z</time></trkpt><trkpt lat="40.6992737" lon="17.1280097"><ele>428.0</ele><time>2026-04-11T10:56:13.988Z</time></trkpt><trkpt lat="40.699271" lon="17.1281678"><ele>428.0</ele><time>2026-04-11T10:56:14.995Z</time></trkpt><trkpt lat="40.6992618" lon="17.1283312"><ele>428.0</ele><time>2026-04-11T10:56:15.985Z</time></trkpt><trkpt lat="40.6992542" lon="17.1285081"><ele>428.0</ele><time>2026-04-11T10:56:16.989Z</time></trkpt><trkpt lat="40.699247" lon="17.1286781"><ele>428.0</ele><time>2026-04-11T10:56:17.97Z</time></trkpt><trkpt lat="40.6992404" lon="17.1288244"><ele>428.0</ele><time>2026-04-11T10:56:18.979Z</time></trkpt><trkpt lat="40.6992334" lon="17.1289733"><ele>427.99999999999994</ele><time>2026-04-11T10:56:19.983Z</time></trkpt><trkpt lat="40.6992322" lon="17.1291081"><ele>427.99999999999994</ele><time>2026-04-11T10:56:20.985Z</time></trkpt><trkpt lat="40.6992289" lon="17.1292449"><ele>428.0</ele><time>2026-04-11T10:56:21.989Z</time></trkpt><trkpt lat="40.6992278" lon="17.1293537"><ele>428.0</ele><time>2026-04-11T10:56:22.989Z</time></trkpt><trkpt lat="40.699226" lon="17.1294537"><ele>427.79999999999995</ele><time>2026-04-11T10:56:23.993Z</time></trkpt><trkpt lat="40.6992216" lon="17.1295569"><ele>427.59999999999997</ele><time>2026-04-11T10:56:24.993Z</time></trkpt><trkpt lat="40.6992286" lon="17.1296744"><ele>427.40000000000003</ele><time>2026-04-11T10:56:25.981Z</time></trkpt><trkpt lat="40.6992175" lon="17.1297975"><ele>427.20000000000005</ele><time>2026-04-11T10:56:26.991Z</time></trkpt><trkpt lat="40.699212" lon="17.1299317"><ele>427.0</ele><time>2026-04-11T10:56:27.986Z</time></trkpt><trkpt lat="40.6992044" lon="17.130077"><ele>427.0</ele><time>2026-04-11T10:56:28.988Z</time></trkpt><trkpt lat="40.6991966" lon="17.1302151"><ele>427.0</ele><time>2026-04-11T10:56:29.978Z</time></trkpt><trkpt lat="40.6991894" lon="17.1303808"><ele>427.0</ele><time>2026-04-11T10:56:30.983Z</time></trkpt><trkpt lat="40.6991828" lon="17.1305514"><ele>427.0</ele><time>2026-04-11T10:56:31.991Z</time></trkpt><trkpt lat="40.6991759" lon="17.1307212"><ele>427.5</ele><time>2026-04-11T10:56:33.008Z</time></trkpt><trkpt lat="40.6991728" lon="17.1308928"><ele>428.0</ele><time>2026-04-11T10:56:34.015Z</time></trkpt><trkpt lat="40.6991655" lon="17.1310696"><ele>428.5</ele><time>2026-04-11T10:56:34.981Z</time></trkpt><trkpt lat="40.6991558" lon="17.1312463"><ele>429.0</ele><time>2026-04-11T10:56:36.014Z</time></trkpt><trkpt lat="40.6991451" lon="17.131434"><ele>429.75</ele><time>2026-04-11T10:56:36.979Z</time></trkpt><trkpt lat="40.6991336" lon="17.1316159"><ele>430.5</ele><time>2026-04-11T10:56:37.986Z</time></trkpt><trkpt lat="40.6991245" lon="17.1318044"><ele>431.25</ele><time>2026-04-11T10:56:39.014Z</time></trkpt><trkpt lat="40.6991128" lon="17.1319959"><ele>432.0</ele><time>2026-04-11T10:56:39.985Z</time></trkpt><trkpt lat="40.699101" lon="17.1321948"><ele>432.33333333333337</ele><time>2026-04-11T10:56:41.018Z</time></trkpt><trkpt lat="40.6990809" lon="17.1323946"><ele>432.6666666666667</ele><time>2026-04-11T10:56:42.009Z</time></trkpt><trkpt lat="40.6990672" lon="17.1325907"><ele>433.0</ele><time>2026-04-11T10:56:42.978Z</time></trkpt><trkpt lat="40.6990488" lon="17.1327917"><ele>433.0</ele><time>2026-04-11T10:56:43.984Z</time></trkpt><trkpt lat="40.6990394" lon="17.1329896"><ele>433.0</ele><time>2026-04-11T10:56:45.014Z</time></trkpt><trkpt lat="40.6990178" lon="17.1331871"><ele>433.0</ele><time>2026-04-11T10:56:45.982Z</time></trkpt><trkpt lat="40.6989922" lon="17.1333843"><ele>434.0</ele><time>2026-04-11T10:56:46.981Z</time></trkpt><trkpt lat="40.6989637" lon="17.1335817"><ele>435.0</ele><time>2026-04-11T10:56:47.98Z</time></trkpt><trkpt lat="40.6989279" lon="17.1337784"><ele>436.0</ele><time>2026-04-11T10:56:49.053Z</time></trkpt><trkpt lat="40.6988931" lon="17.1339812"><ele>436.5</ele><time>2026-04-11T10:56:49.99Z</time></trkpt><trkpt lat="40.6988498" lon="17.1341659"><ele>437.0</ele><time>2026-04-11T10:56:51.02Z</time></trkpt><trkpt lat="40.6988116" lon="17.1343472"><ele>437.5</ele><time>2026-04-11T10:56:51.985Z</time></trkpt><trkpt lat="40.6987831" lon="17.1345216"><ele>438.0</ele><time>2026-04-11T10:56:52.986Z</time></trkpt><trkpt lat="40.6987563" lon="17.134693"><ele>438.0</ele><time>2026-04-11T10:56:54.012Z</time></trkpt><trkpt lat="40.6987187" lon="17.1348579"><ele>438.0</ele><time>2026-04-11T10:56:54.987Z</time></trkpt><trkpt lat="40.6986862" lon="17.1350224"><ele>438.0</ele><time>2026-04-11T10:56:56.026Z</time></trkpt><trkpt lat="40.6986569" lon="17.1351894"><ele>438.0</ele><time>2026-04-11T10:56:56.989Z</time></trkpt><trkpt lat="40.6986289" lon="17.1353465"><ele>438.0</ele><time>2026-04-11T10:56:57.992Z</time></trkpt><trkpt lat="40.6985952" lon="17.1354936"><ele>437.99999999999994</ele><time>2026-04-11T10:56:58.978Z</time></trkpt><trkpt lat="40.6985661" lon="17.1356128"><ele>437.99999999999994</ele><time>2026-04-11T10:57:00.012Z</time></trkpt><trkpt lat="40.698532" lon="17.1357427"><ele>438.0</ele><time>2026-04-11T10:57:01.012Z</time></trkpt><trkpt lat="40.6984762" lon="17.1358686"><ele>438.0</ele><time>2026-04-11T10:57:02.007Z</time></trkpt><trkpt lat="40.6984219" lon="17.1360073"><ele>438.25</ele><time>2026-04-11T10:57:03.005Z</time></trkpt><trkpt lat="40.6983342" lon="17.1361258"><ele>438.5</ele><time>2026-04-11T10:57:04.015Z</time></trkpt><trkpt lat="40.6982491" lon="17.1362448"><ele>438.75</ele><time>2026-04-11T10:57:05.016Z</time></trkpt><trkpt lat="40.6981513" lon="17.1363629"><ele>439.0</ele><time>2026-04-11T10:57:05.981Z</time></trkpt><trkpt lat="40.6980473" lon="17.1364841"><ele>439.6666666666667</ele><time>2026-04-11T10:57:07.02Z</time></trkpt><trkpt lat="40.6979424" lon="17.1366068"><ele>440.33333333333337</ele><time>2026-04-11T10:57:07.972Z</time></trkpt><trkpt lat="40.6978256" lon="17.1367356"><ele>441.0</ele><time>2026-04-11T10:57:09.093Z</time></trkpt><trkpt lat="40.6976134" lon="17.1369814"><ele>441.0</ele><time>2026-04-11T10:57:10.98Z</time></trkpt><trkpt lat="40.6975085" lon="17.1371022"><ele>441.0</ele><time>2026-04-11T10:57:11.975Z</time></trkpt><trkpt lat="40.6974195" lon="17.1372132"><ele>441.0</ele><time>2026-04-11T10:57:12.984Z</time></trkpt><trkpt lat="40.6973193" lon="17.137323"><ele>441.0</ele><time>2026-04-11T10:57:13.984Z</time></trkpt><trkpt lat="40.6972287" lon="17.137435"><ele>441.75</ele><time>2026-04-11T10:57:15.016Z</time></trkpt><trkpt lat="40.6971337" lon="17.1375552"><ele>442.5</ele><time>2026-04-11T10:57:15.969Z</time></trkpt><trkpt lat="40.6970657" lon="17.1376822"><ele>443.25</ele><time>2026-04-11T10:57:16.976Z</time></trkpt><trkpt lat="40.6970012" lon="17.1378001"><ele>444.0</ele><time>2026-04-11T10:57:18.013Z</time></trkpt><trkpt lat="40.6969515" lon="17.1379105"><ele>444.1666666666667</ele><time>2026-04-11T10:57:19.013Z</time></trkpt><trkpt lat="40.6968964" lon="17.1380115"><ele>444.33333333333337</ele><time>2026-04-11T10:57:19.966Z</time></trkpt><trkpt lat="40.6968428" lon="17.1381242"><ele>444.5</ele><time>2026-04-11T10:57:22.002Z</time></trkpt><trkpt lat="40.6968075" lon="17.1381968"><ele>444.6666666666667</ele><time>2026-04-11T10:57:23.994Z</time></trkpt><trkpt lat="40.6967516" lon="17.1382602"><ele>444.83333333333337</ele><time>2026-04-11T10:57:27.986Z</time></trkpt><trkpt lat="40.6966966" lon="17.1383169"><ele>445.0</ele><time>2026-04-11T10:57:32.984Z</time></trkpt><trkpt lat="40.6966615" lon="17.1384063"><ele>445.8</ele><time>2026-04-11T10:57:47.007Z</time></trkpt><trkpt lat="40.6966203" lon="17.138511"><ele>446.6</ele><time>2026-04-11T10:57:48.972Z</time></trkpt><trkpt lat="40.6966622" lon="17.1386105"><ele>447.4</ele><time>2026-04-11T10:57:50.014Z</time></trkpt><trkpt lat="40.6967289" lon="17.1386967"><ele>448.2</ele><time>2026-04-11T10:57:50.992Z</time></trkpt><trkpt lat="40.6967965" lon="17.1387676"><ele>449.0</ele><time>2026-04-11T10:57:51.982Z</time></trkpt><trkpt lat="40.6969011" lon="17.1388786"><ele>449.0</ele><time>2026-04-11T10:57:53.02Z</time></trkpt><trkpt lat="40.6969919" lon="17.138987"><ele>449.0</ele><time>2026-04-11T10:57:54.023Z</time></trkpt><trkpt lat="40.6970928" lon="17.1391037"><ele>449.0</ele><time>2026-04-11T10:57:55.044Z</time></trkpt><trkpt lat="40.6972" lon="17.139227"><ele>449.0</ele><time>2026-04-11T10:57:56.012Z</time></trkpt><trkpt lat="40.6973003" lon="17.1393523"><ele>450.0</ele><time>2026-04-11T10:57:57.01Z</time></trkpt><trkpt lat="40.6973974" lon="17.1394557"><ele>451.0</ele><time>2026-04-11T10:57:58.016Z</time></trkpt><trkpt lat="40.6974678" lon="17.1395334"><ele>452.0</ele><time>2026-04-11T10:57:59.044Z</time></trkpt><trkpt lat="40.6975298" lon="17.1396169"><ele>453.0</ele><time>2026-04-11T10:58:00.017Z</time></trkpt><trkpt lat="40.6975937" lon="17.1397193"><ele>454.0</ele><time>2026-04-11T10:58:01.01Z</time></trkpt><trkpt lat="40.6976438" lon="17.1398262"><ele>454.5</ele><time>2026-04-11T10:58:01.982Z</time></trkpt><trkpt lat="40.6976831" lon="17.1399434"><ele>455.0</ele><time>2026-04-11T10:58:02.972Z</time></trkpt><trkpt lat="40.6976891" lon="17.1401023"><ele>455.5</ele><time>2026-04-11T10:58:04.015Z</time></trkpt><trkpt lat="40.6977129" lon="17.1402693"><ele>456.0</ele><time>2026-04-11T10:58:05.066Z</time></trkpt><trkpt lat="40.6977292" lon="17.1404343"><ele>456.0</ele><time>2026-04-11T10:58:06.015Z</time></trkpt><trkpt lat="40.6977455" lon="17.140595"><ele>456.0</ele><time>2026-04-11T10:58:07.007Z</time></trkpt><trkpt lat="40.6977689" lon="17.1407625"><ele>456.0</ele><time>2026-04-11T10:58:07.968Z</time></trkpt><trkpt lat="40.6977832" lon="17.1409103"><ele>456.0</ele><time>2026-04-11T10:58:09.029Z</time></trkpt><trkpt lat="40.6978053" lon="17.1410654"><ele>456.4</ele><time>2026-04-11T10:58:09.981Z</time></trkpt><trkpt lat="40.6978227" lon="17.1411942"><ele>456.8</ele><time>2026-04-11T10:58:10.992Z</time></trkpt><trkpt lat="40.6978322" lon="17.1413318"><ele>457.19999999999993</ele><time>2026-04-11T10:58:11.994Z</time></trkpt><trkpt lat="40.6978525" lon="17.1414415"><ele>457.59999999999997</ele><time>2026-04-11T10:58:13.018Z</time></trkpt><trkpt lat="40.6978838" lon="17.1415363"><ele>458.0</ele><time>2026-04-11T10:58:14.115Z</time></trkpt><trkpt lat="40.6980032" lon="17.1416592"><ele>458.0</ele><time>2026-04-11T10:58:15.989Z</time></trkpt><trkpt lat="40.6981109" lon="17.1416262"><ele>458.0</ele><time>2026-04-11T10:58:17.015Z</time></trkpt><trkpt lat="40.6982055" lon="17.1416033"><ele>458.0</ele><time>2026-04-11T10:58:17.982Z</time></trkpt><trkpt lat="40.6983377" lon="17.1415488"><ele>458.0</ele><time>2026-04-11T10:58:19.017Z</time></trkpt><trkpt lat="40.6984688" lon="17.1415077"><ele>458.25</ele><time>2026-04-11T10:58:19.983Z</time></trkpt><trkpt lat="40.6985969" lon="17.1414668"><ele>458.5</ele><time>2026-04-11T10:58:20.97Z</time></trkpt><trkpt lat="40.6987291" lon="17.1414179"><ele>458.75</ele><time>2026-04-11T10:58:21.977Z</time></trkpt><trkpt lat="40.6988508" lon="17.1413623"><ele>459.0</ele><time>2026-04-11T10:58:23.015Z</time></trkpt><trkpt lat="40.6989945" lon="17.1413135"><ele>459.0</ele><time>2026-04-11T10:58:24.015Z</time></trkpt><trkpt lat="40.6991317" lon="17.141271"><ele>459.0</ele><time>2026-04-11T10:58:25.005Z</time></trkpt><trkpt lat="40.6992555" lon="17.1412272"><ele>459.0</ele><time>2026-04-11T10:58:25.986Z</time></trkpt><trkpt lat="40.6993662" lon="17.1412017"><ele>459.0</ele><time>2026-04-11T10:58:27.014Z</time></trkpt><trkpt lat="40.6994588" lon="17.141176"><ele>458.0</ele><time>2026-04-11T10:58:27.985Z</time></trkpt><trkpt lat="40.699536" lon="17.1411593"><ele>457.0</ele><time>2026-04-11T10:58:29.008Z</time></trkpt><trkpt lat="40.6996206" lon="17.141152"><ele>456.0</ele><time>2026-04-11T10:58:30.012Z</time></trkpt><trkpt lat="40.6997049" lon="17.1411185"><ele>455.0</ele><time>2026-04-11T10:58:31.013Z</time></trkpt><trkpt lat="40.6997921" lon="17.1410949"><ele>454.0</ele><time>2026-04-11T10:58:31.988Z</time></trkpt><trkpt lat="40.6998804" lon="17.1410577"><ele>453.0</ele><time>2026-04-11T10:58:32.978Z</time></trkpt><trkpt lat="40.6999975" lon="17.1410062"><ele>453.0</ele><time>2026-04-11T10:58:33.976Z</time></trkpt><trkpt lat="40.7000996" lon="17.1409563"><ele>452.99999999999994</ele><time>2026-04-11T10:58:34.97Z</time></trkpt><trkpt lat="40.7001852" lon="17.1408936"><ele>452.99999999999994</ele><time>2026-04-11T10:58:35.987Z</time></trkpt><trkpt lat="40.7002796" lon="17.140852"><ele>453.0</ele><time>2026-04-11T10:58:36.976Z</time></trkpt><trkpt lat="40.7003627" lon="17.1407806"><ele>453.0</ele><time>2026-04-11T10:58:37.979Z</time></trkpt><trkpt lat="40.7004592" lon="17.1407095"><ele>452.25</ele><time>2026-04-11T10:58:38.992Z</time></trkpt><trkpt lat="40.7005554" lon="17.1406213"><ele>451.5</ele><time>2026-04-11T10:58:39.985Z</time></trkpt><trkpt lat="40.7006552" lon="17.1405286"><ele>450.75</ele><time>2026-04-11T10:58:40.986Z</time></trkpt><trkpt lat="40.7007527" lon="17.1404324"><ele>450.0</ele><time>2026-04-11T10:58:41.985Z</time></trkpt><trkpt lat="40.7008612" lon="17.1403363"><ele>450.0</ele><time>2026-04-11T10:58:42.989Z</time></trkpt><trkpt lat="40.7009792" lon="17.1402285"><ele>450.0</ele><time>2026-04-11T10:58:43.989Z</time></trkpt><trkpt lat="40.7011067" lon="17.1401404"><ele>450.0</ele><time>2026-04-11T10:58:44.99Z</time></trkpt><trkpt lat="40.7012294" lon="17.1400308"><ele>450.0</ele><time>2026-04-11T10:58:45.988Z</time></trkpt><trkpt lat="40.7013465" lon="17.1399143"><ele>449.75</ele><time>2026-04-11T10:58:46.985Z</time></trkpt><trkpt lat="40.701467" lon="17.1398147"><ele>449.5</ele><time>2026-04-11T10:58:47.987Z</time></trkpt><trkpt lat="40.7015681" lon="17.1397167"><ele>449.25</ele><time>2026-04-11T10:58:48.985Z</time></trkpt><trkpt lat="40.7016509" lon="17.1396137"><ele>449.0</ele><time>2026-04-11T10:58:49.986Z</time></trkpt><trkpt lat="40.7017416" lon="17.1395193"><ele>449.0</ele><time>2026-04-11T10:58:51.012Z</time></trkpt><trkpt lat="40.7018306" lon="17.139422"><ele>449.0</ele><time>2026-04-11T10:58:51.972Z</time></trkpt><trkpt lat="40.7018616" lon="17.1392734"><ele>449.0</ele><time>2026-04-11T10:58:53.006Z</time></trkpt><trkpt lat="40.7018997" lon="17.1391359"><ele>449.0</ele><time>2026-04-11T10:58:54.016Z</time></trkpt><trkpt lat="40.7019406" lon="17.1389981"><ele>447.75</ele><time>2026-04-11T10:58:54.971Z</time></trkpt><trkpt lat="40.7019764" lon="17.138843"><ele>446.5</ele><time>2026-04-11T10:58:55.986Z</time></trkpt><trkpt lat="40.7020151" lon="17.1386828"><ele>445.25</ele><time>2026-04-11T10:58:57.012Z</time></trkpt><trkpt lat="40.7020532" lon="17.138529"><ele>444.0</ele><time>2026-04-11T10:58:57.97Z</time></trkpt><trkpt lat="40.7020957" lon="17.1383385"><ele>443.75</ele><time>2026-04-11T10:58:58.982Z</time></trkpt><trkpt lat="40.7021317" lon="17.1381485"><ele>443.5</ele><time>2026-04-11T10:58:59.988Z</time></trkpt><trkpt lat="40.7021752" lon="17.1379787"><ele>443.25</ele><time>2026-04-11T10:59:00.986Z</time></trkpt><trkpt lat="40.7022186" lon="17.1377943"><ele>443.0</ele><time>2026-04-11T10:59:01.976Z</time></trkpt><trkpt lat="40.7022669" lon="17.1376248"><ele>443.0</ele><time>2026-04-11T10:59:03.012Z</time></trkpt><trkpt lat="40.7023138" lon="17.1374525"><ele>443.0</ele><time>2026-04-11T10:59:03.973Z</time></trkpt><trkpt lat="40.7023684" lon="17.1372703"><ele>443.0</ele><time>2026-04-11T10:59:04.985Z</time></trkpt><trkpt lat="40.702422" lon="17.1371023"><ele>443.0</ele><time>2026-04-11T10:59:05.995Z</time></trkpt><trkpt lat="40.7024654" lon="17.1369194"><ele>442.66666666666663</ele><time>2026-04-11T10:59:06.986Z</time></trkpt><trkpt lat="40.7025244" lon="17.1367456"><ele>442.33333333333337</ele><time>2026-04-11T10:59:08.07Z</time></trkpt><trkpt lat="40.702576" lon="17.1365584"><ele>442.0</ele><time>2026-04-11T10:59:08.977Z</time></trkpt><trkpt lat="40.7026319" lon="17.1363519"><ele>441.75</ele><time>2026-04-11T10:59:09.984Z</time></trkpt><trkpt lat="40.702685" lon="17.136164"><ele>441.5</ele><time>2026-04-11T10:59:10.972Z</time></trkpt><trkpt lat="40.7027407" lon="17.1359868"><ele>441.25</ele><time>2026-04-11T10:59:12.01Z</time></trkpt><trkpt lat="40.7027902" lon="17.1358297"><ele>441.0</ele><time>2026-04-11T10:59:13.016Z</time></trkpt><trkpt lat="40.7028425" lon="17.1356848"><ele>439.25</ele><time>2026-04-11T10:59:14.014Z</time></trkpt><trkpt lat="40.7028794" lon="17.1355249"><ele>437.5</ele><time>2026-04-11T10:59:15.012Z</time></trkpt><trkpt lat="40.7029229" lon="17.135369"><ele>435.75</ele><time>2026-04-11T10:59:15.97Z</time></trkpt><trkpt lat="40.7029638" lon="17.1352183"><ele>434.0</ele><time>2026-04-11T10:59:16.977Z</time></trkpt><trkpt lat="40.7030071" lon="17.1350534"><ele>433.25</ele><time>2026-04-11T10:59:17.979Z</time></trkpt><trkpt lat="40.7030553" lon="17.1348784"><ele>432.5</ele><time>2026-04-11T10:59:19.016Z</time></trkpt><trkpt lat="40.7031046" lon="17.1347142"><ele>431.75</ele><time>2026-04-11T10:59:20.016Z</time></trkpt><trkpt lat="40.7031539" lon="17.1345359"><ele>431.0</ele><time>2026-04-11T10:59:20.97Z</time></trkpt><trkpt lat="40.703217" lon="17.1343204"><ele>431.0</ele><time>2026-04-11T10:59:21.974Z</time></trkpt><trkpt lat="40.7032743" lon="17.1341153"><ele>431.0</ele><time>2026-04-11T10:59:22.978Z</time></trkpt><trkpt lat="40.7033447" lon="17.1338949"><ele>431.0</ele><time>2026-04-11T10:59:24.011Z</time></trkpt><trkpt lat="40.703405" lon="17.1336832"><ele>429.66666666666663</ele><time>2026-04-11T10:59:24.975Z</time></trkpt><trkpt lat="40.7034785" lon="17.1334627"><ele>428.33333333333337</ele><time>2026-04-11T10:59:25.981Z</time></trkpt><trkpt lat="40.7035479" lon="17.1332404"><ele>427.0</ele><time>2026-04-11T10:59:26.991Z</time></trkpt><trkpt lat="40.7036178" lon="17.1330369"><ele>427.0</ele><time>2026-04-11T10:59:27.975Z</time></trkpt><trkpt lat="40.7036871" lon="17.1328547"><ele>427.0</ele><time>2026-04-11T10:59:28.986Z</time></trkpt><trkpt lat="40.7037602" lon="17.1326662"><ele>427.0</ele><time>2026-04-11T10:59:29.99Z</time></trkpt><trkpt lat="40.7038277" lon="17.1324776"><ele>426.5</ele><time>2026-04-11T10:59:30.984Z</time></trkpt><trkpt lat="40.7038961" lon="17.1322845"><ele>426.0</ele><time>2026-04-11T10:59:31.977Z</time></trkpt><trkpt lat="40.703947" lon="17.1321042"><ele>425.5</ele><time>2026-04-11T10:59:32.981Z</time></trkpt><trkpt lat="40.7040043" lon="17.1319555"><ele>425.0</ele><time>2026-04-11T10:59:33.981Z</time></trkpt><trkpt lat="40.70405" lon="17.1318198"><ele>424.99999999999994</ele><time>2026-04-11T10:59:34.979Z</time></trkpt><trkpt lat="40.7040933" lon="17.1316995"><ele>425.0</ele><time>2026-04-11T10:59:36.005Z</time></trkpt><trkpt lat="40.7041282" lon="17.1315897"><ele>425.0</ele><time>2026-04-11T10:59:36.981Z</time></trkpt><trkpt lat="40.704164" lon="17.1314905"><ele>425.0</ele><time>2026-04-11T10:59:37.981Z</time></trkpt><trkpt lat="40.7041973" lon="17.1313987"><ele>424.99999999999994</ele><time>2026-04-11T10:59:38.979Z</time></trkpt><trkpt lat="40.7042356" lon="17.1313152"><ele>425.0</ele><time>2026-04-11T10:59:39.985Z</time></trkpt><trkpt lat="40.7043162" lon="17.1311957"><ele>425.8</ele><time>2026-04-11T10:59:42.016Z</time></trkpt><trkpt lat="40.7044314" lon="17.1311183"><ele>426.6</ele><time>2026-04-11T10:59:44.014Z</time></trkpt><trkpt lat="40.7045171" lon="17.131109"><ele>427.4</ele><time>2026-04-11T10:59:45.021Z</time></trkpt><trkpt lat="40.7046299" lon="17.1311084"><ele>428.2</ele><time>2026-04-11T10:59:45.983Z</time></trkpt><trkpt lat="40.7047484" lon="17.1311091"><ele>429.0</ele><time>2026-04-11T10:59:46.983Z</time></trkpt><trkpt lat="40.7048642" lon="17.1311105"><ele>429.0</ele><time>2026-04-11T10:59:47.991Z</time></trkpt><trkpt lat="40.7049913" lon="17.1311104"><ele>429.0</ele><time>2026-04-11T10:59:49.021Z</time></trkpt><trkpt lat="40.7051238" lon="17.1311175"><ele>429.0</ele><time>2026-04-11T10:59:50.014Z</time></trkpt><trkpt lat="40.7052511" lon="17.1311322"><ele>429.0</ele><time>2026-04-11T10:59:51.029Z</time></trkpt><trkpt lat="40.7053744" lon="17.1311334"><ele>429.2</ele><time>2026-04-11T10:59:52.026Z</time></trkpt><trkpt lat="40.7054941" lon="17.1311314"><ele>429.4</ele><time>2026-04-11T10:59:52.988Z</time></trkpt><trkpt lat="40.7056075" lon="17.1311352"><ele>429.6</ele><time>2026-04-11T10:59:54.022Z</time></trkpt><trkpt lat="40.7057063" lon="17.1311383"><ele>429.8</ele><time>2026-04-11T10:59:55.017Z</time></trkpt><trkpt lat="40.7058085" lon="17.1311406"><ele>430.0</ele><time>2026-04-11T10:59:56.019Z</time></trkpt><trkpt lat="40.7059171" lon="17.1311461"><ele>430.0</ele><time>2026-04-11T10:59:56.984Z</time></trkpt><trkpt lat="40.7060336" lon="17.1311449"><ele>430.0</ele><time>2026-04-11T10:59:57.984Z</time></trkpt><trkpt lat="40.7061542" lon="17.1311449"><ele>430.0</ele><time>2026-04-11T10:59:58.982Z</time></trkpt><trkpt lat="40.706281" lon="17.1311367"><ele>430.0</ele><time>2026-04-11T10:59:59.981Z</time></trkpt><trkpt lat="40.7064165" lon="17.1311261"><ele>430.0</ele><time>2026-04-11T11:00:00.982Z</time></trkpt><trkpt lat="40.7065577" lon="17.1311131"><ele>430.0</ele><time>2026-04-11T11:00:01.986Z</time></trkpt><trkpt lat="40.7067034" lon="17.1310982"><ele>430.0</ele><time>2026-04-11T11:00:03.027Z</time></trkpt><trkpt lat="40.7068555" lon="17.1310725"><ele>430.0</ele><time>2026-04-11T11:00:04.041Z</time></trkpt><trkpt lat="40.707" lon="17.1310411"><ele>429.25</ele><time>2026-04-11T11:00:05.037Z</time></trkpt><trkpt lat="40.7071451" lon="17.131023"><ele>428.5</ele><time>2026-04-11T11:00:06.017Z</time></trkpt><trkpt lat="40.7072796" lon="17.131001"><ele>427.75</ele><time>2026-04-11T11:00:07.021Z</time></trkpt><trkpt lat="40.7074179" lon="17.1309795"><ele>427.0</ele><time>2026-04-11T11:00:08.023Z</time></trkpt><trkpt lat="40.7075539" lon="17.130959"><ele>427.0</ele><time>2026-04-11T11:00:09.02Z</time></trkpt><trkpt lat="40.7076919" lon="17.1309339"><ele>427.0</ele><time>2026-04-11T11:00:10.042Z</time></trkpt><trkpt lat="40.7078337" lon="17.1309089"><ele>427.0</ele><time>2026-04-11T11:00:11.026Z</time></trkpt><trkpt lat="40.7079721" lon="17.130884"><ele>427.0</ele><time>2026-04-11T11:00:11.998Z</time></trkpt><trkpt lat="40.7081265" lon="17.1308723"><ele>425.33333333333337</ele><time>2026-04-11T11:00:13.026Z</time></trkpt><trkpt lat="40.7082755" lon="17.1308413"><ele>423.66666666666663</ele><time>2026-04-11T11:00:14.017Z</time></trkpt><trkpt lat="40.7084355" lon="17.1308089"><ele>422.0</ele><time>2026-04-11T11:00:15.086Z</time></trkpt><trkpt lat="40.7085903" lon="17.130787"><ele>420.0</ele><time>2026-04-11T11:00:16.022Z</time></trkpt><trkpt lat="40.7087421" lon="17.1307656"><ele>418.0</ele><time>2026-04-11T11:00:17.02Z</time></trkpt><trkpt lat="40.7088958" lon="17.1307415"><ele>416.0</ele><time>2026-04-11T11:00:18.032Z</time></trkpt><trkpt lat="40.7090466" lon="17.1307076"><ele>415.66666666666663</ele><time>2026-04-11T11:00:19.019Z</time></trkpt><trkpt lat="40.7092035" lon="17.1306865"><ele>415.33333333333337</ele><time>2026-04-11T11:00:20.028Z</time></trkpt><trkpt lat="40.709359" lon="17.1306598"><ele>415.0</ele><time>2026-04-11T11:00:21.09Z</time></trkpt><trkpt lat="40.7095095" lon="17.1306257"><ele>414.0</ele><time>2026-04-11T11:00:22.021Z</time></trkpt><trkpt lat="40.7096498" lon="17.1306043"><ele>413.0</ele><time>2026-04-11T11:00:23.026Z</time></trkpt><trkpt lat="40.7097924" lon="17.1305788"><ele>412.0</ele><time>2026-04-11T11:00:23.998Z</time></trkpt><trkpt lat="40.7099474" lon="17.1305713"><ele>411.0</ele><time>2026-04-11T11:00:25.031Z</time></trkpt><trkpt lat="40.7100877" lon="17.1305388"><ele>411.0</ele><time>2026-04-11T11:00:26.026Z</time></trkpt><trkpt lat="40.7102138" lon="17.1305192"><ele>411.0</ele><time>2026-04-11T11:00:27.015Z</time></trkpt><trkpt lat="40.7103412" lon="17.1304926"><ele>411.0</ele><time>2026-04-11T11:00:28.021Z</time></trkpt><trkpt lat="40.7104727" lon="17.1304709"><ele>411.0</ele><time>2026-04-11T11:00:29.014Z</time></trkpt><trkpt lat="40.7106022" lon="17.1304548"><ele>410.8</ele><time>2026-04-11T11:00:30.023Z</time></trkpt><trkpt lat="40.7107301" lon="17.1304364"><ele>410.6</ele><time>2026-04-11T11:00:30.999Z</time></trkpt><trkpt lat="40.7108416" lon="17.1304374"><ele>410.4</ele><time>2026-04-11T11:00:32.029Z</time></trkpt><trkpt lat="40.7109456" lon="17.1304193"><ele>410.2</ele><time>2026-04-11T11:00:33.049Z</time></trkpt><trkpt lat="40.7110477" lon="17.1304076"><ele>410.0</ele><time>2026-04-11T11:00:34.022Z</time></trkpt><trkpt lat="40.711156" lon="17.1303914"><ele>409.0</ele><time>2026-04-11T11:00:35.022Z</time></trkpt><trkpt lat="40.7112596" lon="17.1303695"><ele>408.0</ele><time>2026-04-11T11:00:36.018Z</time></trkpt><trkpt lat="40.7113583" lon="17.1303354"><ele>407.0</ele><time>2026-04-11T11:00:37.017Z</time></trkpt><trkpt lat="40.7114652" lon="17.1302728"><ele>406.0</ele><time>2026-04-11T11:00:37.977Z</time></trkpt><trkpt lat="40.7115601" lon="17.1302176"><ele>405.0</ele><time>2026-04-11T11:00:39.015Z</time></trkpt><trkpt lat="40.7116396" lon="17.1301056"><ele>405.0</ele><time>2026-04-11T11:00:40.018Z</time></trkpt><trkpt lat="40.7117405" lon="17.1300287"><ele>405.0</ele><time>2026-04-11T11:00:41.015Z</time></trkpt><trkpt lat="40.7118345" lon="17.1299611"><ele>405.0</ele><time>2026-04-11T11:00:41.98Z</time></trkpt><trkpt lat="40.7119386" lon="17.129897"><ele>405.0</ele><time>2026-04-11T11:00:42.979Z</time></trkpt><trkpt lat="40.7120472" lon="17.1298352"><ele>403.75</ele><time>2026-04-11T11:00:43.981Z</time></trkpt><trkpt lat="40.7121646" lon="17.1297732"><ele>402.5</ele><time>2026-04-11T11:00:44.985Z</time></trkpt><trkpt lat="40.7122966" lon="17.1296998"><ele>401.25</ele><time>2026-04-11T11:00:45.984Z</time></trkpt><trkpt lat="40.712428" lon="17.1296476"><ele>400.0</ele><time>2026-04-11T11:00:46.986Z</time></trkpt><trkpt lat="40.7125476" lon="17.1295943"><ele>400.0</ele><time>2026-04-11T11:00:47.983Z</time></trkpt><trkpt lat="40.7126711" lon="17.1295507"><ele>400.0</ele><time>2026-04-11T11:00:48.986Z</time></trkpt><trkpt lat="40.712788" lon="17.1295067"><ele>400.0</ele><time>2026-04-11T11:00:50.021Z</time></trkpt><trkpt lat="40.7128973" lon="17.1294626"><ele>400.0</ele><time>2026-04-11T11:00:51.021Z</time></trkpt><trkpt lat="40.7130162" lon="17.1294212"><ele>399.2</ele><time>2026-04-11T11:00:52.014Z</time></trkpt><trkpt lat="40.7131249" lon="17.1293939"><ele>398.4</ele><time>2026-04-11T11:00:53.019Z</time></trkpt><trkpt lat="40.7132241" lon="17.1294059"><ele>397.6</ele><time>2026-04-11T11:00:54.02Z</time></trkpt><trkpt lat="40.7133223" lon="17.1294343"><ele>396.8</ele><time>2026-04-11T11:00:55.016Z</time></trkpt><trkpt lat="40.713421" lon="17.1294975"><ele>396.0</ele><time>2026-04-11T11:00:55.979Z</time></trkpt><trkpt lat="40.7135165" lon="17.1295794"><ele>396.25</ele><time>2026-04-11T11:00:56.98Z</time></trkpt><trkpt lat="40.7136121" lon="17.1296702"><ele>396.5</ele><time>2026-04-11T11:00:57.99Z</time></trkpt><trkpt lat="40.7137093" lon="17.1297541"><ele>396.75</ele><time>2026-04-11T11:00:59.028Z</time></trkpt><trkpt lat="40.7138056" lon="17.1298329"><ele>397.0</ele><time>2026-04-11T11:01:00.03Z</time></trkpt><trkpt lat="40.7138976" lon="17.1299128"><ele>397.0</ele><time>2026-04-11T11:01:01.015Z</time></trkpt><trkpt lat="40.7139901" lon="17.1299872"><ele>397.0</ele><time>2026-04-11T11:01:02.024Z</time></trkpt><trkpt lat="40.7140972" lon="17.1300503"><ele>397.0</ele><time>2026-04-11T11:01:03.023Z</time></trkpt><trkpt lat="40.7142118" lon="17.1301059"><ele>397.0</ele><time>2026-04-11T11:01:04.023Z</time></trkpt><trkpt lat="40.7143261" lon="17.1301615"><ele>397.25</ele><time>2026-04-11T11:01:04.999Z</time></trkpt><trkpt lat="40.7144486" lon="17.1302521"><ele>397.5</ele><time>2026-04-11T11:01:06.062Z</time></trkpt><trkpt lat="40.7145691" lon="17.1303333"><ele>397.75</ele><time>2026-04-11T11:01:07.071Z</time></trkpt><trkpt lat="40.7146994" lon="17.1303991"><ele>398.0</ele><time>2026-04-11T11:01:08.025Z</time></trkpt><trkpt lat="40.7148318" lon="17.1304724"><ele>398.0</ele><time>2026-04-11T11:01:09.015Z</time></trkpt><trkpt lat="40.7149634" lon="17.1305462"><ele>398.0</ele><time>2026-04-11T11:01:10.01Z</time></trkpt><trkpt lat="40.7150987" lon="17.1306136"><ele>398.0</ele><time>2026-04-11T11:01:11.046Z</time></trkpt><trkpt lat="40.7152372" lon="17.1306831"><ele>398.0</ele><time>2026-04-11T11:01:12.013Z</time></trkpt><trkpt lat="40.7153702" lon="17.1307474"><ele>398.0</ele><time>2026-04-11T11:01:13.077Z</time></trkpt><trkpt lat="40.7155049" lon="17.1308175"><ele>398.0</ele><time>2026-04-11T11:01:14.049Z</time></trkpt><trkpt lat="40.7156371" lon="17.1308888"><ele>398.0</ele><time>2026-04-11T11:01:15.017Z</time></trkpt><trkpt lat="40.7157647" lon="17.1309604"><ele>398.0</ele><time>2026-04-11T11:01:16.074Z</time></trkpt><trkpt lat="40.7158996" lon="17.1310343"><ele>398.0</ele><time>2026-04-11T11:01:17.088Z</time></trkpt><trkpt lat="40.716032" lon="17.1311056"><ele>398.0</ele><time>2026-04-11T11:01:18.077Z</time></trkpt><trkpt lat="40.7161697" lon="17.1311725"><ele>398.0</ele><time>2026-04-11T11:01:19.019Z</time></trkpt><trkpt lat="40.7162995" lon="17.1312397"><ele>398.0</ele><time>2026-04-11T11:01:20.017Z</time></trkpt><trkpt lat="40.7164222" lon="17.1312947"><ele>399.0</ele><time>2026-04-11T11:01:21.015Z</time></trkpt><trkpt lat="40.7165417" lon="17.1313235"><ele>400.0</ele><time>2026-04-11T11:01:22.027Z</time></trkpt><trkpt lat="40.7166616" lon="17.1313524"><ele>401.0</ele><time>2026-04-11T11:01:23.02Z</time></trkpt><trkpt lat="40.7167839" lon="17.1313772"><ele>402.0</ele><time>2026-04-11T11:01:24.003Z</time></trkpt><trkpt lat="40.7168943" lon="17.1313942"><ele>401.75</ele><time>2026-04-11T11:01:25.041Z</time></trkpt><trkpt lat="40.7170124" lon="17.1314364"><ele>401.5</ele><time>2026-04-11T11:01:26.084Z</time></trkpt><trkpt lat="40.7171249" lon="17.1315187"><ele>401.25</ele><time>2026-04-11T11:01:27.009Z</time></trkpt><trkpt lat="40.7172358" lon="17.1316123"><ele>401.0</ele><time>2026-04-11T11:01:28.086Z</time></trkpt><trkpt lat="40.7173528" lon="17.1316758"><ele>401.0</ele><time>2026-04-11T11:01:29.02Z</time></trkpt><trkpt lat="40.7174771" lon="17.131745"><ele>401.0</ele><time>2026-04-11T11:01:29.987Z</time></trkpt><trkpt lat="40.7176012" lon="17.1317694"><ele>401.0</ele><time>2026-04-11T11:01:31.007Z</time></trkpt><trkpt lat="40.7177314" lon="17.1317958"><ele>401.0</ele><time>2026-04-11T11:01:32.014Z</time></trkpt><trkpt lat="40.7178632" lon="17.1318053"><ele>401.25</ele><time>2026-04-11T11:01:33.015Z</time></trkpt><trkpt lat="40.7179987" lon="17.1318146"><ele>401.5</ele><time>2026-04-11T11:01:33.982Z</time></trkpt><trkpt lat="40.7181362" lon="17.1318207"><ele>401.75</ele><time>2026-04-11T11:01:34.988Z</time></trkpt><trkpt lat="40.7182758" lon="17.1318172"><ele>402.0</ele><time>2026-04-11T11:01:36.097Z</time></trkpt><trkpt lat="40.7184202" lon="17.1318133"><ele>402.0</ele><time>2026-04-11T11:01:37.025Z</time></trkpt><trkpt lat="40.7185633" lon="17.1318105"><ele>402.0</ele><time>2026-04-11T11:01:38.014Z</time></trkpt><trkpt lat="40.7187016" lon="17.1318058"><ele>402.0</ele><time>2026-04-11T11:01:39.03Z</time></trkpt><trkpt lat="40.7188378" lon="17.1318063"><ele>402.0</ele><time>2026-04-11T11:01:40.08Z</time></trkpt><trkpt lat="40.7189756" lon="17.1317979"><ele>402.5</ele><time>2026-04-11T11:01:41.02Z</time></trkpt><trkpt lat="40.7191128" lon="17.1317918"><ele>403.0</ele><time>2026-04-11T11:01:42.014Z</time></trkpt><trkpt lat="40.719248" lon="17.1317934"><ele>403.5</ele><time>2026-04-11T11:01:43.013Z</time></trkpt><trkpt lat="40.7193842" lon="17.1317864"><ele>404.0</ele><time>2026-04-11T11:01:44.088Z</time></trkpt><trkpt lat="40.7195188" lon="17.1317875"><ele>404.5</ele><time>2026-04-11T11:01:45.016Z</time></trkpt><trkpt lat="40.7196525" lon="17.1317823"><ele>405.0</ele><time>2026-04-11T11:01:45.988Z</time></trkpt><trkpt lat="40.7197808" lon="17.1317802"><ele>405.5</ele><time>2026-04-11T11:01:46.984Z</time></trkpt><trkpt lat="40.7199077" lon="17.1317786"><ele>406.0</ele><time>2026-04-11T11:01:48.008Z</time></trkpt><trkpt lat="40.720024" lon="17.1317931"><ele>406.0</ele><time>2026-04-11T11:01:48.983Z</time></trkpt><trkpt lat="40.7201368" lon="17.1317931"><ele>406.0</ele><time>2026-04-11T11:01:49.97Z</time></trkpt><trkpt lat="40.7202542" lon="17.1318227"><ele>406.0</ele><time>2026-04-11T11:01:51.01Z</time></trkpt><trkpt lat="40.7203638" lon="17.131837"><ele>406.0</ele><time>2026-04-11T11:01:51.969Z</time></trkpt><trkpt lat="40.7204865" lon="17.1318715"><ele>406.25</ele><time>2026-04-11T11:01:52.977Z</time></trkpt><trkpt lat="40.7206129" lon="17.1318996"><ele>406.5</ele><time>2026-04-11T11:01:53.981Z</time></trkpt><trkpt lat="40.720757" lon="17.1319397"><ele>406.75</ele><time>2026-04-11T11:01:55.018Z</time></trkpt><trkpt lat="40.7209099" lon="17.1319852"><ele>407.0</ele><time>2026-04-11T11:01:56.022Z</time></trkpt><trkpt lat="40.7210628" lon="17.1320231"><ele>407.3333333333333</ele><time>2026-04-11T11:01:56.971Z</time></trkpt><trkpt lat="40.7212441" lon="17.1320627"><ele>407.66666666666663</ele><time>2026-04-11T11:01:57.979Z</time></trkpt><trkpt lat="40.7214323" lon="17.1321067"><ele>408.0</ele><time>2026-04-11T11:01:58.994Z</time></trkpt><trkpt lat="40.7216132" lon="17.1321545"><ele>408.0</ele><time>2026-04-11T11:01:59.997Z</time></trkpt><trkpt lat="40.7218184" lon="17.1322717"><ele>408.0</ele><time>2026-04-11T11:02:00.988Z</time></trkpt><trkpt lat="40.7219797" lon="17.1323026"><ele>408.0</ele><time>2026-04-11T11:02:02.024Z</time></trkpt><trkpt lat="40.7221483" lon="17.1323439"><ele>408.0</ele><time>2026-04-11T11:02:02.973Z</time></trkpt><trkpt lat="40.722305" lon="17.1323625"><ele>408.0</ele><time>2026-04-11T11:02:03.976Z</time></trkpt><trkpt lat="40.7224549" lon="17.1324034"><ele>408.0</ele><time>2026-04-11T11:02:04.977Z</time></trkpt><trkpt lat="40.7225989" lon="17.1324421"><ele>408.5</ele><time>2026-04-11T11:02:06.014Z</time></trkpt><trkpt lat="40.7227388" lon="17.1324786"><ele>409.0</ele><time>2026-04-11T11:02:06.976Z</time></trkpt><trkpt lat="40.722875" lon="17.1325269"><ele>409.5</ele><time>2026-04-11T11:02:07.977Z</time></trkpt><trkpt lat="40.7230164" lon="17.1325309"><ele>410.0</ele><time>2026-04-11T11:02:09.016Z</time></trkpt><trkpt lat="40.723155" lon="17.1325467"><ele>410.0</ele><time>2026-04-11T11:02:09.973Z</time></trkpt><trkpt lat="40.7233118" lon="17.1325271"><ele>410.0</ele><time>2026-04-11T11:02:10.976Z</time></trkpt><trkpt lat="40.7234742" lon="17.132496"><ele>410.0</ele><time>2026-04-11T11:02:11.979Z</time></trkpt><trkpt lat="40.7236392" lon="17.1324532"><ele>411.0</ele><time>2026-04-11T11:02:13.014Z</time></trkpt><trkpt lat="40.7238123" lon="17.132424"><ele>412.0</ele><time>2026-04-11T11:02:13.975Z</time></trkpt><trkpt lat="40.7239849" lon="17.1323923"><ele>413.0</ele><time>2026-04-11T11:02:14.973Z</time></trkpt><trkpt lat="40.7241608" lon="17.1323466"><ele>414.0</ele><time>2026-04-11T11:02:16.014Z</time></trkpt><trkpt lat="40.7243351" lon="17.1323159"><ele>415.0</ele><time>2026-04-11T11:02:16.973Z</time></trkpt><trkpt lat="40.7244923" lon="17.1322768"><ele>416.0</ele><time>2026-04-11T11:02:18.017Z</time></trkpt><trkpt lat="40.7246518" lon="17.1322542"><ele>416.66666666666663</ele><time>2026-04-11T11:02:19.015Z</time></trkpt><trkpt lat="40.7248181" lon="17.1322403"><ele>417.33333333333337</ele><time>2026-04-11T11:02:19.984Z</time></trkpt><trkpt lat="40.7249689" lon="17.13222"><ele>418.0</ele><time>2026-04-11T11:02:20.983Z</time></trkpt><trkpt lat="40.7251262" lon="17.1321982"><ele>418.0</ele><time>2026-04-11T11:02:21.985Z</time></trkpt><trkpt lat="40.7252927" lon="17.1321952"><ele>418.0</ele><time>2026-04-11T11:02:22.978Z</time></trkpt><trkpt lat="40.7254538" lon="17.1322096"><ele>418.0</ele><time>2026-04-11T11:02:24.015Z</time></trkpt><trkpt lat="40.725617" lon="17.1322167"><ele>418.0</ele><time>2026-04-11T11:02:25.01Z</time></trkpt><trkpt lat="40.7257842" lon="17.1322294"><ele>418.0</ele><time>2026-04-11T11:02:25.98Z</time></trkpt><trkpt lat="40.7259656" lon="17.132252"><ele>418.0</ele><time>2026-04-11T11:02:27.019Z</time></trkpt><trkpt lat="40.7261312" lon="17.1322742"><ele>418.0</ele><time>2026-04-11T11:02:28.068Z</time></trkpt><trkpt lat="40.726301" lon="17.1323044"><ele>418.0</ele><time>2026-04-11T11:02:29.02Z</time></trkpt><trkpt lat="40.7264733" lon="17.1323348"><ele>418.0</ele><time>2026-04-11T11:02:29.972Z</time></trkpt><trkpt lat="40.7266487" lon="17.1323477"><ele>418.0</ele><time>2026-04-11T11:02:30.981Z</time></trkpt><trkpt lat="40.7268098" lon="17.1323661"><ele>418.0</ele><time>2026-04-11T11:02:31.983Z</time></trkpt><trkpt lat="40.7269461" lon="17.1323821"><ele>418.0</ele><time>2026-04-11T11:02:33.015Z</time></trkpt><trkpt lat="40.7270838" lon="17.1324177"><ele>418.0</ele><time>2026-04-11T11:02:33.988Z</time></trkpt><trkpt lat="40.727217" lon="17.1324363"><ele>418.25</ele><time>2026-04-11T11:02:34.982Z</time></trkpt><trkpt lat="40.7273391" lon="17.1324558"><ele>418.5</ele><time>2026-04-11T11:02:35.982Z</time></trkpt><trkpt lat="40.7274489" lon="17.1324719"><ele>418.75</ele><time>2026-04-11T11:02:37.008Z</time></trkpt><trkpt lat="40.7275563" lon="17.1324793"><ele>419.0</ele><time>2026-04-11T11:02:38.015Z</time></trkpt><trkpt lat="40.7276659" lon="17.1324945"><ele>419.75</ele><time>2026-04-11T11:02:38.973Z</time></trkpt><trkpt lat="40.7278008" lon="17.1325065"><ele>420.5</ele><time>2026-04-11T11:02:40.01Z</time></trkpt><trkpt lat="40.7279166" lon="17.1325243"><ele>421.25</ele><time>2026-04-11T11:02:40.981Z</time></trkpt><trkpt lat="40.7280477" lon="17.1325303"><ele>422.0</ele><time>2026-04-11T11:02:41.986Z</time></trkpt><trkpt lat="40.7281806" lon="17.1325497"><ele>422.0</ele><time>2026-04-11T11:02:42.991Z</time></trkpt><trkpt lat="40.7283178" lon="17.1325885"><ele>422.0</ele><time>2026-04-11T11:02:43.984Z</time></trkpt><trkpt lat="40.7284576" lon="17.1326076"><ele>422.0</ele><time>2026-04-11T11:02:44.983Z</time></trkpt><trkpt lat="40.7286077" lon="17.1326288"><ele>422.0</ele><time>2026-04-11T11:02:45.983Z</time></trkpt><trkpt lat="40.7287548" lon="17.1326568"><ele>422.3333333333333</ele><time>2026-04-11T11:02:46.987Z</time></trkpt><trkpt lat="40.7289099" lon="17.1326881"><ele>422.66666666666663</ele><time>2026-04-11T11:02:47.989Z</time></trkpt><trkpt lat="40.729068" lon="17.1327211"><ele>423.0</ele><time>2026-04-11T11:02:48.991Z</time></trkpt><trkpt lat="40.7292316" lon="17.1327631"><ele>422.0</ele><time>2026-04-11T11:02:49.987Z</time></trkpt><trkpt lat="40.7294049" lon="17.1327954"><ele>421.0</ele><time>2026-04-11T11:02:50.986Z</time></trkpt><trkpt lat="40.729583" lon="17.1328372"><ele>420.0</ele><time>2026-04-11T11:02:52.052Z</time></trkpt><trkpt lat="40.729751" lon="17.1328911"><ele>420.0</ele><time>2026-04-11T11:02:53.016Z</time></trkpt><trkpt lat="40.7299297" lon="17.1329374"><ele>420.0</ele><time>2026-04-11T11:02:53.973Z</time></trkpt><trkpt lat="40.730109" lon="17.1329876"><ele>420.0</ele><time>2026-04-11T11:02:55.013Z</time></trkpt><trkpt lat="40.7302809" lon="17.1330332"><ele>420.33333333333337</ele><time>2026-04-11T11:02:55.968Z</time></trkpt><trkpt lat="40.7304477" lon="17.1330989"><ele>420.6666666666667</ele><time>2026-04-11T11:02:57.005Z</time></trkpt><trkpt lat="40.7306128" lon="17.1331605"><ele>421.0</ele><time>2026-04-11T11:02:57.99Z</time></trkpt><trkpt lat="40.7307771" lon="17.1332212"><ele>421.6666666666667</ele><time>2026-04-11T11:02:58.976Z</time></trkpt><trkpt lat="40.7309414" lon="17.1332892"><ele>422.33333333333337</ele><time>2026-04-11T11:02:59.984Z</time></trkpt><trkpt lat="40.7311115" lon="17.1333709"><ele>423.0</ele><time>2026-04-11T11:03:00.987Z</time></trkpt><trkpt lat="40.731273" lon="17.133451"><ele>423.33333333333337</ele><time>2026-04-11T11:03:01.988Z</time></trkpt><trkpt lat="40.7314406" lon="17.1335467"><ele>423.6666666666667</ele><time>2026-04-11T11:03:02.988Z</time></trkpt><trkpt lat="40.7316074" lon="17.1336189"><ele>424.0</ele><time>2026-04-11T11:03:03.987Z</time></trkpt><trkpt lat="40.7317741" lon="17.1336962"><ele>424.33333333333337</ele><time>2026-04-11T11:03:04.991Z</time></trkpt><trkpt lat="40.7319327" lon="17.1337788"><ele>424.66666666666663</ele><time>2026-04-11T11:03:05.984Z</time></trkpt><trkpt lat="40.7320903" lon="17.1338509"><ele>425.0</ele><time>2026-04-11T11:03:06.983Z</time></trkpt><trkpt lat="40.7322458" lon="17.1339257"><ele>425.0</ele><time>2026-04-11T11:03:07.982Z</time></trkpt><trkpt lat="40.7323975" lon="17.1339962"><ele>425.0</ele><time>2026-04-11T11:03:08.985Z</time></trkpt><trkpt lat="40.7325522" lon="17.1340685"><ele>425.0</ele><time>2026-04-11T11:03:09.988Z</time></trkpt><trkpt lat="40.7327033" lon="17.1341454"><ele>425.66666666666663</ele><time>2026-04-11T11:03:10.984Z</time></trkpt><trkpt lat="40.732864" lon="17.1342341"><ele>426.33333333333337</ele><time>2026-04-11T11:03:11.989Z</time></trkpt><trkpt lat="40.7330335" lon="17.1343438"><ele>427.0</ele><time>2026-04-11T11:03:13.017Z</time></trkpt><trkpt lat="40.7331878" lon="17.1344469"><ele>427.0</ele><time>2026-04-11T11:03:13.972Z</time></trkpt><trkpt lat="40.7333482" lon="17.1345544"><ele>427.0</ele><time>2026-04-11T11:03:14.969Z</time></trkpt><trkpt lat="40.7335108" lon="17.1346636"><ele>427.0</ele><time>2026-04-11T11:03:15.975Z</time></trkpt><trkpt lat="40.7336752" lon="17.1347728"><ele>427.33333333333337</ele><time>2026-04-11T11:03:16.984Z</time></trkpt><trkpt lat="40.7338315" lon="17.134888"><ele>427.66666666666663</ele><time>2026-04-11T11:03:18.02Z</time></trkpt><trkpt lat="40.7339829" lon="17.1349979"><ele>428.0</ele><time>2026-04-11T11:03:18.99Z</time></trkpt><trkpt lat="40.7341415" lon="17.1351111"><ele>428.0</ele><time>2026-04-11T11:03:19.983Z</time></trkpt><trkpt lat="40.7343038" lon="17.1352136"><ele>428.0</ele><time>2026-04-11T11:03:20.985Z</time></trkpt><trkpt lat="40.7344674" lon="17.1353126"><ele>428.0</ele><time>2026-04-11T11:03:21.991Z</time></trkpt><trkpt lat="40.7346339" lon="17.1353835"><ele>428.66666666666663</ele><time>2026-04-11T11:03:22.992Z</time></trkpt><trkpt lat="40.734802" lon="17.1354534"><ele>429.33333333333337</ele><time>2026-04-11T11:03:23.982Z</time></trkpt><trkpt lat="40.7349757" lon="17.1355188"><ele>430.0</ele><time>2026-04-11T11:03:24.984Z</time></trkpt><trkpt lat="40.7351495" lon="17.1355525"><ele>430.0</ele><time>2026-04-11T11:03:25.976Z</time></trkpt><trkpt lat="40.7353223" lon="17.1355711"><ele>430.0</ele><time>2026-04-11T11:03:27.015Z</time></trkpt><trkpt lat="40.735505" lon="17.1356238"><ele>430.0</ele><time>2026-04-11T11:03:27.972Z</time></trkpt><trkpt lat="40.7356834" lon="17.1356789"><ele>430.33333333333337</ele><time>2026-04-11T11:03:28.973Z</time></trkpt><trkpt lat="40.735878" lon="17.1357273"><ele>430.66666666666663</ele><time>2026-04-11T11:03:29.974Z</time></trkpt><trkpt lat="40.7360558" lon="17.135759"><ele>431.0</ele><time>2026-04-11T11:03:30.99Z</time></trkpt><trkpt lat="40.7362314" lon="17.1358034"><ele>431.3333333333333</ele><time>2026-04-11T11:03:31.987Z</time></trkpt><trkpt lat="40.7364209" lon="17.1358528"><ele>431.66666666666663</ele><time>2026-04-11T11:03:32.99Z</time></trkpt><trkpt lat="40.7366199" lon="17.1359041"><ele>432.0</ele><time>2026-04-11T11:03:33.989Z</time></trkpt><trkpt lat="40.736814" lon="17.1359557"><ele>431.66666666666663</ele><time>2026-04-11T11:03:34.987Z</time></trkpt><trkpt lat="40.7369842" lon="17.1359994"><ele>431.3333333333333</ele><time>2026-04-11T11:03:35.985Z</time></trkpt><trkpt lat="40.7371535" lon="17.1360545"><ele>431.0</ele><time>2026-04-11T11:03:36.987Z</time></trkpt><trkpt lat="40.7373206" lon="17.1361065"><ele>431.0</ele><time>2026-04-11T11:03:37.995Z</time></trkpt><trkpt lat="40.7374929" lon="17.1361614"><ele>431.0</ele><time>2026-04-11T11:03:38.989Z</time></trkpt><trkpt lat="40.7376721" lon="17.1362107"><ele>431.0</ele><time>2026-04-11T11:03:39.985Z</time></trkpt><trkpt lat="40.7378443" lon="17.1362611"><ele>431.0</ele><time>2026-04-11T11:03:40.991Z</time></trkpt><trkpt lat="40.7380129" lon="17.1363093"><ele>431.0</ele><time>2026-04-11T11:03:41.987Z</time></trkpt><trkpt lat="40.7382365" lon="17.1364337"><ele>431.0</ele><time>2026-04-11T11:03:43.019Z</time></trkpt><trkpt lat="40.7384123" lon="17.1364691"><ele>431.66666666666663</ele><time>2026-04-11T11:03:43.972Z</time></trkpt><trkpt lat="40.7385858" lon="17.1364863"><ele>432.33333333333337</ele><time>2026-04-11T11:03:45.007Z</time></trkpt><trkpt lat="40.7387608" lon="17.1365168"><ele>433.0</ele><time>2026-04-11T11:03:45.971Z</time></trkpt><trkpt lat="40.7389416" lon="17.1365338"><ele>433.0</ele><time>2026-04-11T11:03:46.972Z</time></trkpt><trkpt lat="40.7391219" lon="17.1365669"><ele>433.0</ele><time>2026-04-11T11:03:47.97Z</time></trkpt><trkpt lat="40.7392778" lon="17.1365696"><ele>433.0</ele><time>2026-04-11T11:03:48.982Z</time></trkpt><trkpt lat="40.7394258" lon="17.1365812"><ele>433.5</ele><time>2026-04-11T11:03:49.98Z</time></trkpt><trkpt lat="40.7395726" lon="17.1365987"><ele>434.0</ele><time>2026-04-11T11:03:51.059Z</time></trkpt><trkpt lat="40.7397167" lon="17.1366198"><ele>434.5</ele><time>2026-04-11T11:03:51.974Z</time></trkpt><trkpt lat="40.7398449" lon="17.1366346"><ele>435.0</ele><time>2026-04-11T11:03:52.972Z</time></trkpt><trkpt lat="40.7399624" lon="17.136623"><ele>435.0</ele><time>2026-04-11T11:03:53.981Z</time></trkpt><trkpt lat="40.7400989" lon="17.1365752"><ele>435.0</ele><time>2026-04-11T11:03:54.978Z</time></trkpt><trkpt lat="40.7402236" lon="17.1364728"><ele>435.0</ele><time>2026-04-11T11:03:55.984Z</time></trkpt><trkpt lat="40.7403066" lon="17.1363204"><ele>435.0</ele><time>2026-04-11T11:03:56.972Z</time></trkpt><trkpt lat="40.7404256" lon="17.1361715"><ele>435.0</ele><time>2026-04-11T11:03:57.977Z</time></trkpt><trkpt lat="40.7405541" lon="17.1360658"><ele>435.0</ele><time>2026-04-11T11:03:58.971Z</time></trkpt><trkpt lat="40.7406891" lon="17.1359993"><ele>435.0</ele><time>2026-04-11T11:03:59.971Z</time></trkpt><trkpt lat="40.740819" lon="17.1358879"><ele>435.0</ele><time>2026-04-11T11:04:00.983Z</time></trkpt><trkpt lat="40.7409359" lon="17.1357971"><ele>435.0</ele><time>2026-04-11T11:04:01.989Z</time></trkpt><trkpt lat="40.7410721" lon="17.1357684"><ele>435.0</ele><time>2026-04-11T11:04:02.989Z</time></trkpt><trkpt lat="40.741195" lon="17.1357168"><ele>435.0</ele><time>2026-04-11T11:04:03.989Z</time></trkpt><trkpt lat="40.741311" lon="17.1356707"><ele>435.0</ele><time>2026-04-11T11:04:04.981Z</time></trkpt><trkpt lat="40.7414223" lon="17.1356344"><ele>435.0</ele><time>2026-04-11T11:04:05.976Z</time></trkpt><trkpt lat="40.7415471" lon="17.1356148"><ele>435.0</ele><time>2026-04-11T11:04:07.016Z</time></trkpt><trkpt lat="40.7416747" lon="17.1356025"><ele>435.0</ele><time>2026-04-11T11:04:07.984Z</time></trkpt><trkpt lat="40.741799" lon="17.1355947"><ele>434.5</ele><time>2026-04-11T11:04:08.965Z</time></trkpt><trkpt lat="40.7419246" lon="17.1355998"><ele>434.0</ele><time>2026-04-11T11:04:09.978Z</time></trkpt><trkpt lat="40.7420449" lon="17.1356034"><ele>433.5</ele><time>2026-04-11T11:04:11.012Z</time></trkpt><trkpt lat="40.7421676" lon="17.1356047"><ele>433.0</ele><time>2026-04-11T11:04:11.985Z</time></trkpt><trkpt lat="40.742318" lon="17.1356643"><ele>433.0</ele><time>2026-04-11T11:04:12.983Z</time></trkpt><trkpt lat="40.7424459" lon="17.1356887"><ele>433.0</ele><time>2026-04-11T11:04:14.014Z</time></trkpt><trkpt lat="40.7425766" lon="17.1357034"><ele>433.0</ele><time>2026-04-11T11:04:14.97Z</time></trkpt><trkpt lat="40.7427327" lon="17.1357387"><ele>433.0</ele><time>2026-04-11T11:04:16.006Z</time></trkpt><trkpt lat="40.7428718" lon="17.13577"><ele>433.0</ele><time>2026-04-11T11:04:17.013Z</time></trkpt><trkpt lat="40.7430048" lon="17.1358026"><ele>433.0</ele><time>2026-04-11T11:04:17.989Z</time></trkpt><trkpt lat="40.7431423" lon="17.1358417"><ele>433.0</ele><time>2026-04-11T11:04:18.984Z</time></trkpt><trkpt lat="40.7432674" lon="17.1358752"><ele>433.0</ele><time>2026-04-11T11:04:19.983Z</time></trkpt><trkpt lat="40.7433896" lon="17.1359173"><ele>433.0</ele><time>2026-04-11T11:04:20.985Z</time></trkpt><trkpt lat="40.7435025" lon="17.1359683"><ele>432.99999999999994</ele><time>2026-04-11T11:04:21.988Z</time></trkpt><trkpt lat="40.7436039" lon="17.1360229"><ele>432.99999999999994</ele><time>2026-04-11T11:04:22.985Z</time></trkpt><trkpt lat="40.7436912" lon="17.1360895"><ele>433.0</ele><time>2026-04-11T11:04:23.987Z</time></trkpt><trkpt lat="40.7437712" lon="17.1361875"><ele>433.0</ele><time>2026-04-11T11:04:24.986Z</time></trkpt><trkpt lat="40.7438392" lon="17.1362641"><ele>432.75</ele><time>2026-04-11T11:04:25.981Z</time></trkpt><trkpt lat="40.7439075" lon="17.1363701"><ele>432.5</ele><time>2026-04-11T11:04:26.98Z</time></trkpt><trkpt lat="40.7439765" lon="17.1364887"><ele>432.25</ele><time>2026-04-11T11:04:27.974Z</time></trkpt><trkpt lat="40.7440571" lon="17.136596"><ele>432.0</ele><time>2026-04-11T11:04:28.981Z</time></trkpt><trkpt lat="40.7441327" lon="17.1367188"><ele>432.5</ele><time>2026-04-11T11:04:29.986Z</time></trkpt><trkpt lat="40.7442084" lon="17.1368468"><ele>433.0</ele><time>2026-04-11T11:04:30.99Z</time></trkpt><trkpt lat="40.7442819" lon="17.1369718"><ele>433.5</ele><time>2026-04-11T11:04:31.985Z</time></trkpt><trkpt lat="40.74436" lon="17.1371065"><ele>434.0</ele><time>2026-04-11T11:04:32.983Z</time></trkpt><trkpt lat="40.7444402" lon="17.137236"><ele>434.0</ele><time>2026-04-11T11:04:33.99Z</time></trkpt><trkpt lat="40.7445244" lon="17.1373827"><ele>434.0</ele><time>2026-04-11T11:04:34.984Z</time></trkpt><trkpt lat="40.7492392" lon="17.1439503"><ele>433.75</ele><time>2026-04-11T11:06:06.981Z</time></trkpt><trkpt lat="40.7492367" lon="17.1441313"><ele>433.5</ele><time>2026-04-11T11:06:07.983Z</time></trkpt><trkpt lat="40.7492448" lon="17.1443093"><ele>433.25</ele><time>2026-04-11T11:06:09.013Z</time></trkpt><trkpt lat="40.7492565" lon="17.1444894"><ele>433.0</ele><time>2026-04-11T11:06:10.014Z</time></trkpt><trkpt lat="40.7492731" lon="17.1446697"><ele>433.0</ele><time>2026-04-11T11:06:11.014Z</time></trkpt><trkpt lat="40.7492928" lon="17.1448467"><ele>433.0</ele><time>2026-04-11T11:06:11.972Z</time></trkpt><trkpt lat="40.749329" lon="17.1451556"><ele>433.0</ele><time>2026-04-11T11:06:13.982Z</time></trkpt><trkpt lat="40.7493532" lon="17.1453151"><ele>432.0</ele><time>2026-04-11T11:06:14.969Z</time></trkpt><trkpt lat="40.7493815" lon="17.1454791"><ele>431.0</ele><time>2026-04-11T11:06:15.97Z</time></trkpt><trkpt lat="40.7494121" lon="17.1456557"><ele>430.0</ele><time>2026-04-11T11:06:16.978Z</time></trkpt><trkpt lat="40.7494268" lon="17.1458264"><ele>429.0</ele><time>2026-04-11T11:06:17.974Z</time></trkpt><trkpt lat="40.7494648" lon="17.146003"><ele>429.0</ele><time>2026-04-11T11:06:19.006Z</time></trkpt><trkpt lat="40.7494852" lon="17.146174"><ele>429.0</ele><time>2026-04-11T11:06:20.003Z</time></trkpt><trkpt lat="40.7495235" lon="17.1463534"><ele>429.0</ele><time>2026-04-11T11:06:20.982Z</time></trkpt><trkpt lat="40.7495429" lon="17.1465253"><ele>429.0</ele><time>2026-04-11T11:06:21.985Z</time></trkpt><trkpt lat="40.74956" lon="17.1467135"><ele>428.0</ele><time>2026-04-11T11:06:22.977Z</time></trkpt><trkpt lat="40.7495387" lon="17.1469044"><ele>427.0</ele><time>2026-04-11T11:06:23.977Z</time></trkpt><trkpt lat="40.7495343" lon="17.147092"><ele>426.0</ele><time>2026-04-11T11:06:24.98Z</time></trkpt><trkpt lat="40.7495106" lon="17.1472883"><ele>425.0</ele><time>2026-04-11T11:06:25.986Z</time></trkpt><trkpt lat="40.7495015" lon="17.1474886"><ele>424.0</ele><time>2026-04-11T11:06:26.987Z</time></trkpt><trkpt lat="40.7495094" lon="17.1476976"><ele>423.0</ele><time>2026-04-11T11:06:27.983Z</time></trkpt><trkpt lat="40.7495079" lon="17.1478858"><ele>422.0</ele><time>2026-04-11T11:06:28.989Z</time></trkpt><trkpt lat="40.7495043" lon="17.1480704"><ele>421.0</ele><time>2026-04-11T11:06:29.984Z</time></trkpt><trkpt lat="40.7495154" lon="17.14825"><ele>420.0</ele><time>2026-04-11T11:06:31.058Z</time></trkpt><trkpt lat="40.7495226" lon="17.1484206"><ele>420.0</ele><time>2026-04-11T11:06:31.978Z</time></trkpt><trkpt lat="40.7495309" lon="17.1485999"><ele>420.0</ele><time>2026-04-11T11:06:32.966Z</time></trkpt></trkseg></trk></gpx>